<?xml version="1.0" encoding="UTF-8"?>
<gpx version="1.1" creator="https://www.www-youtrack-es.amenigma.com" xsi:schemaLocation="http://www.topografix.com/GPX/1/1 http://www.topografix.com/GPX/1/1/gpx.xsd http://www.garmin.com/xmlschemas/GpxExtensions/v3 http://www.garmin.com/xmlschemas/GpxExtensionsv3.xsd http://www.garmin.com/xmlschemas/TrackPointExtension/v1 http://www.garmin.com/xmlschemas/TrackPointExtensionv1.xsd" xmlns:gpxtpx="http://www.garmin.com/xmlschemas/TrackPointExtension/v1" xmlns:gpxx="http://www.garmin.com/xmlschemas/GpxExtensions/v3" xmlns:xsi="http://www.w3.org/2001/XMLSchema-instance">
  <metadata>
    <link href="https://www.www-youtrack-es.amenigma.com">
      <text>YouTrack.es</text>
    </link>
    <time>2026-08-31T13:57:32Z</time>
  </metadata>
  <trk>
    <src>https://www.www-youtrack-es.amenigma.com</src>
    <link href="https://www.www-youtrack-es.amenigma.com/ruta/34597-hit-the-road">
      <text>YouTrack.es</text>
    </link>
    <trkseg>
      <trkpt lat="42.16927103698253631591796875" lon="2.477532662451267242431640625">
        <ele>442</ele>
        <time>2022-07-27T08:10:32.000Z</time>
      </trkpt>
      <trkpt lat="42.1692708693444728851318359375" lon="2.47753224335610866546630859375">
        <ele>442</ele>
        <time>2022-07-27T08:10:34.000Z</time>
      </trkpt>
      <trkpt lat="42.169284783303737640380859375" lon="2.47653680853545665740966796875">
        <ele>441.79998779296875</ele>
        <time>2022-07-27T08:12:33.000Z</time>
      </trkpt>
      <trkpt lat="42.16929341666400432586669921875" lon="2.4764941446483135223388671875">
        <ele>442</ele>
        <time>2022-07-27T08:12:34.000Z</time>
      </trkpt>
      <trkpt lat="42.16937002725899219512939453125" lon="2.4763429351150989532470703125">
        <ele>442</ele>
        <time>2022-07-27T08:12:39.000Z</time>
      </trkpt>
      <trkpt lat="42.1694240905344486236572265625" lon="2.4763315357267856597900390625">
        <ele>442.20001220703125</ele>
        <time>2022-07-27T08:12:41.000Z</time>
      </trkpt>
      <trkpt lat="42.16947220265865325927734375" lon="2.4763427674770355224609375">
        <ele>442.20001220703125</ele>
        <time>2022-07-27T08:12:43.000Z</time>
      </trkpt>
      <trkpt lat="42.16961880214512348175048828125" lon="2.4764529056847095489501953125">
        <ele>442</ele>
        <time>2022-07-27T08:12:48.000Z</time>
      </trkpt>
      <trkpt lat="42.16969390399754047393798828125" lon="2.4765166081488132476806640625">
        <ele>441.79998779296875</ele>
        <time>2022-07-27T08:12:50.000Z</time>
      </trkpt>
      <trkpt lat="42.16989875771105289459228515625" lon="2.47669002972543239593505859375">
        <ele>441.399993896484375</ele>
        <time>2022-07-27T08:12:55.000Z</time>
      </trkpt>
      <trkpt lat="42.170275188982486724853515625" lon="2.4770154990255832672119140625">
        <ele>440.600006103515625</ele>
        <time>2022-07-27T08:13:03.000Z</time>
      </trkpt>
      <trkpt lat="42.1706532128155231475830078125" lon="2.4773400463163852691650390625">
        <ele>439.79998779296875</ele>
        <time>2022-07-27T08:13:11.000Z</time>
      </trkpt>
      <trkpt lat="42.1707980521023273468017578125" lon="2.47746460139751434326171875">
        <ele>439.600006103515625</ele>
        <time>2022-07-27T08:13:14.000Z</time>
      </trkpt>
      <trkpt lat="42.17110273428261280059814453125" lon="2.47772938571870326995849609375">
        <ele>439.20001220703125</ele>
        <time>2022-07-27T08:13:20.000Z</time>
      </trkpt>
      <trkpt lat="42.17132099904119968414306640625" lon="2.4779150448739528656005859375">
        <ele>438.600006103515625</ele>
        <time>2022-07-27T08:13:24.000Z</time>
      </trkpt>
      <trkpt lat="42.17148796655237674713134765625" lon="2.47805627994239330291748046875">
        <ele>438.600006103515625</ele>
        <time>2022-07-27T08:13:27.000Z</time>
      </trkpt>
      <trkpt lat="42.1716007031500339508056640625" lon="2.4781591258943080902099609375">
        <ele>438.399993896484375</ele>
        <time>2022-07-27T08:13:29.000Z</time>
      </trkpt>
      <trkpt lat="42.17182047665119171142578125" lon="2.47837118804454803466796875">
        <ele>438</ele>
        <time>2022-07-27T08:13:33.000Z</time>
      </trkpt>
      <trkpt lat="42.1719329617917537689208984375" lon="2.4784716032445430755615234375">
        <ele>437.399993896484375</ele>
        <time>2022-07-27T08:13:35.000Z</time>
      </trkpt>
      <trkpt lat="42.17227737419307231903076171875" lon="2.4787666462361812591552734375">
        <ele>436.79998779296875</ele>
        <time>2022-07-27T08:13:41.000Z</time>
      </trkpt>
      <trkpt lat="42.17242372222244739532470703125" lon="2.478886507451534271240234375">
        <ele>436.399993896484375</ele>
        <time>2022-07-27T08:13:44.000Z</time>
      </trkpt>
      <trkpt lat="42.172751538455486297607421875" lon="2.47917610220611095428466796875">
        <ele>435.600006103515625</ele>
        <time>2022-07-27T08:13:50.000Z</time>
      </trkpt>
      <trkpt lat="42.17315797694027423858642578125" lon="2.47952210716903209686279296875">
        <ele>435.20001220703125</ele>
        <time>2022-07-27T08:13:57.000Z</time>
      </trkpt>
      <trkpt lat="42.17351772822439670562744140625" lon="2.47984916903078556060791015625">
        <ele>434.20001220703125</ele>
        <time>2022-07-27T08:14:03.000Z</time>
      </trkpt>
      <trkpt lat="42.1735761500895023345947265625" lon="2.47989929281175136566162109375">
        <ele>434</ele>
        <time>2022-07-27T08:14:04.000Z</time>
      </trkpt>
      <trkpt lat="42.17383372597396373748779296875" lon="2.48012241907417774200439453125">
        <ele>433.79998779296875</ele>
        <time>2022-07-27T08:14:08.000Z</time>
      </trkpt>
      <trkpt lat="42.17417470179498195648193359375" lon="2.48043053783476352691650390625">
        <ele>432.79998779296875</ele>
        <time>2022-07-27T08:14:13.000Z</time>
      </trkpt>
      <trkpt lat="42.17430797405540943145751953125" lon="2.4805503152310848236083984375">
        <ele>432.600006103515625</ele>
        <time>2022-07-27T08:14:15.000Z</time>
      </trkpt>
      <trkpt lat="42.1745591796934604644775390625" lon="2.480769418179988861083984375">
        <ele>432</ele>
        <time>2022-07-27T08:14:19.000Z</time>
      </trkpt>
      <trkpt lat="42.1746285818517208099365234375" lon="2.480825744569301605224609375">
        <ele>431.79998779296875</ele>
        <time>2022-07-27T08:14:20.000Z</time>
      </trkpt>
      <trkpt lat="42.17498104088008403778076171875" lon="2.48112053610384464263916015625">
        <ele>431.20001220703125</ele>
        <time>2022-07-27T08:14:25.000Z</time>
      </trkpt>
      <trkpt lat="42.1752431429922580718994140625" lon="2.48134014196693897247314453125">
        <ele>431.20001220703125</ele>
        <time>2022-07-27T08:14:30.000Z</time>
      </trkpt>
      <trkpt lat="42.17543877661228179931640625" lon="2.481527812778949737548828125">
        <ele>431.399993896484375</ele>
        <time>2022-07-27T08:14:35.000Z</time>
      </trkpt>
      <trkpt lat="42.17578536830842494964599609375" lon="2.48178723268210887908935546875">
        <ele>431.79998779296875</ele>
        <time>2022-07-27T08:14:42.000Z</time>
      </trkpt>
      <trkpt lat="42.17622742988169193267822265625" lon="2.4821596406400203704833984375">
        <ele>431.79998779296875</ele>
        <time>2022-07-27T08:14:50.000Z</time>
      </trkpt>
      <trkpt lat="42.17659883201122283935546875" lon="2.48252484016120433807373046875">
        <ele>431.600006103515625</ele>
        <time>2022-07-27T08:14:57.000Z</time>
      </trkpt>
      <trkpt lat="42.1766999177634716033935546875" lon="2.48262517154216766357421875">
        <ele>431.600006103515625</ele>
        <time>2022-07-27T08:14:59.000Z</time>
      </trkpt>
      <trkpt lat="42.17685305513441562652587890625" lon="2.48276171274483203887939453125">
        <ele>431.20001220703125</ele>
        <time>2022-07-27T08:15:02.000Z</time>
      </trkpt>
      <trkpt lat="42.1771773509681224822998046875" lon="2.48303462751209735870361328125">
        <ele>430.600006103515625</ele>
        <time>2022-07-27T08:15:08.000Z</time>
      </trkpt>
      <trkpt lat="42.17723342590034008026123046875" lon="2.4830793030560016632080078125">
        <ele>430.399993896484375</ele>
        <time>2022-07-27T08:15:09.000Z</time>
      </trkpt>
      <trkpt lat="42.17750734649598598480224609375" lon="2.48332128860056400299072265625">
        <ele>430.399993896484375</ele>
        <time>2022-07-27T08:15:14.000Z</time>
      </trkpt>
      <trkpt lat="42.1778552792966365814208984375" lon="2.48360979370772838592529296875">
        <ele>430.20001220703125</ele>
        <time>2022-07-27T08:15:20.000Z</time>
      </trkpt>
      <trkpt lat="42.177970446646213531494140625" lon="2.4836998991668224334716796875">
        <ele>430.399993896484375</ele>
        <time>2022-07-27T08:15:22.000Z</time>
      </trkpt>
      <trkpt lat="42.17810623347759246826171875" lon="2.483814395964145660400390625">
        <ele>430.399993896484375</ele>
        <time>2022-07-27T08:15:25.000Z</time>
      </trkpt>
      <trkpt lat="42.178193069994449615478515625" lon="2.4838886596262454986572265625">
        <ele>430.399993896484375</ele>
        <time>2022-07-27T08:15:27.000Z</time>
      </trkpt>
      <trkpt lat="42.1782710216939449310302734375" lon="2.4839691258966922760009765625">
        <ele>430.600006103515625</ele>
        <time>2022-07-27T08:15:29.000Z</time>
      </trkpt>
      <trkpt lat="42.17830496840178966522216796875" lon="2.48400910757482051849365234375">
        <ele>430.600006103515625</ele>
        <time>2022-07-27T08:15:30.000Z</time>
      </trkpt>
      <trkpt lat="42.1784547530114650726318359375" lon="2.4841666035354137420654296875">
        <ele>430.600006103515625</ele>
        <time>2022-07-27T08:15:34.000Z</time>
      </trkpt>
      <trkpt lat="42.178549133241176605224609375" lon="2.48425587080419063568115234375">
        <ele>430.600006103515625</ele>
        <time>2022-07-27T08:15:36.000Z</time>
      </trkpt>
      <trkpt lat="42.178611494600772857666015625" lon="2.484305240213871002197265625">
        <ele>431</ele>
        <time>2022-07-27T08:15:37.000Z</time>
      </trkpt>
      <trkpt lat="42.17877008020877838134765625" lon="2.48443591408431529998779296875">
        <ele>430.79998779296875</ele>
        <time>2022-07-27T08:15:40.000Z</time>
      </trkpt>
      <trkpt lat="42.17889170162379741668701171875" lon="2.48452492989599704742431640625">
        <ele>430.79998779296875</ele>
        <time>2022-07-27T08:15:42.000Z</time>
      </trkpt>
      <trkpt lat="42.17911382205784320831298828125" lon="2.4846517480909824371337890625">
        <ele>431</ele>
        <time>2022-07-27T08:15:46.000Z</time>
      </trkpt>
      <trkpt lat="42.17915455810725688934326171875" lon="2.48468200676143169403076171875">
        <ele>431</ele>
        <time>2022-07-27T08:15:47.000Z</time>
      </trkpt>
      <trkpt lat="42.1792939491569995880126953125" lon="2.4847734533250331878662109375">
        <ele>431.20001220703125</ele>
        <time>2022-07-27T08:15:50.000Z</time>
      </trkpt>
      <trkpt lat="42.17938019894063472747802734375" lon="2.48483573086559772491455078125">
        <ele>431.20001220703125</ele>
        <time>2022-07-27T08:15:52.000Z</time>
      </trkpt>
      <trkpt lat="42.17946871183812618255615234375" lon="2.48492382466793060302734375">
        <ele>431.20001220703125</ele>
        <time>2022-07-27T08:15:54.000Z</time>
      </trkpt>
      <trkpt lat="42.179634086787700653076171875" lon="2.485028766095638275146484375">
        <ele>431.20001220703125</ele>
        <time>2022-07-27T08:15:57.000Z</time>
      </trkpt>
      <trkpt lat="42.179777584969997406005859375" lon="2.48509372584521770477294921875">
        <ele>431.399993896484375</ele>
        <time>2022-07-27T08:16:00.000Z</time>
      </trkpt>
      <trkpt lat="42.1799034811556339263916015625" lon="2.4851687438786029815673828125">
        <ele>431.600006103515625</ele>
        <time>2022-07-27T08:16:03.000Z</time>
      </trkpt>
      <trkpt lat="42.179931811988353729248046875" lon="2.4852047860622406005859375">
        <ele>431.600006103515625</ele>
        <time>2022-07-27T08:16:04.000Z</time>
      </trkpt>
      <trkpt lat="42.1800124458968639373779296875" lon="2.48527192510664463043212890625">
        <ele>431.79998779296875</ele>
        <time>2022-07-27T08:16:06.000Z</time>
      </trkpt>
      <trkpt lat="42.18028284609317779541015625" lon="2.48547392897307872772216796875">
        <ele>432.600006103515625</ele>
        <time>2022-07-27T08:16:11.000Z</time>
      </trkpt>
      <trkpt lat="42.1803386695683002471923828125" lon="2.48552338220179080963134765625">
        <ele>432.600006103515625</ele>
        <time>2022-07-27T08:16:12.000Z</time>
      </trkpt>
      <trkpt lat="42.180449478328227996826171875" lon="2.48558859340846538543701171875">
        <ele>432.79998779296875</ele>
        <time>2022-07-27T08:16:14.000Z</time>
      </trkpt>
      <trkpt lat="42.180540002882480621337890625" lon="2.485561184585094451904296875">
        <ele>433.20001220703125</ele>
        <time>2022-07-27T08:16:16.000Z</time>
      </trkpt>
      <trkpt lat="42.180660031735897064208984375" lon="2.48545599170029163360595703125">
        <ele>433.399993896484375</ele>
        <time>2022-07-27T08:16:19.000Z</time>
      </trkpt>
      <trkpt lat="42.1807721816003322601318359375" lon="2.4853427521884441375732421875">
        <ele>433.399993896484375</ele>
        <time>2022-07-27T08:16:22.000Z</time>
      </trkpt>
      <trkpt lat="42.1808023564517498016357421875" lon="2.4853013455867767333984375">
        <ele>433.600006103515625</ele>
        <time>2022-07-27T08:16:23.000Z</time>
      </trkpt>
      <trkpt lat="42.18097460456192493438720703125" lon="2.48514401726424694061279296875">
        <ele>434</ele>
        <time>2022-07-27T08:16:27.000Z</time>
      </trkpt>
      <trkpt lat="42.1810943819582462310791015625" lon="2.48496003448963165283203125">
        <ele>434.20001220703125</ele>
        <time>2022-07-27T08:16:30.000Z</time>
      </trkpt>
      <trkpt lat="42.18116973526775836944580078125" lon="2.48481561429798603057861328125">
        <ele>434.20001220703125</ele>
        <time>2022-07-27T08:16:32.000Z</time>
      </trkpt>
      <trkpt lat="42.1814046800136566162109375" lon="2.4843687750399112701416015625">
        <ele>434.20001220703125</ele>
        <time>2022-07-27T08:16:38.000Z</time>
      </trkpt>
      <trkpt lat="42.18163333833217620849609375" lon="2.483850605785846710205078125">
        <ele>434.399993896484375</ele>
        <time>2022-07-27T08:16:45.000Z</time>
      </trkpt>
      <trkpt lat="42.18169813044369220733642578125" lon="2.48368464410305023193359375">
        <ele>434.399993896484375</ele>
        <time>2022-07-27T08:16:47.000Z</time>
      </trkpt>
      <trkpt lat="42.1819205023348331451416015625" lon="2.483229674398899078369140625">
        <ele>434.600006103515625</ele>
        <time>2022-07-27T08:16:53.000Z</time>
      </trkpt>
      <trkpt lat="42.1822661720216274261474609375" lon="2.48262508772313594818115234375">
        <ele>434.20001220703125</ele>
        <time>2022-07-27T08:17:02.000Z</time>
      </trkpt>
      <trkpt lat="42.18247446231544017791748046875" lon="2.4822179786860942840576171875">
        <ele>434</ele>
        <time>2022-07-27T08:17:08.000Z</time>
      </trkpt>
      <trkpt lat="42.18253179453313350677490234375" lon="2.4821817688643932342529296875">
        <ele>434</ele>
        <time>2022-07-27T08:17:09.000Z</time>
      </trkpt>
      <trkpt lat="42.182918451726436614990234375" lon="2.48198823072016239166259765625">
        <ele>433.20001220703125</ele>
        <time>2022-07-27T08:17:15.000Z</time>
      </trkpt>
      <trkpt lat="42.1829845011234283447265625" lon="2.48195269145071506500244140625">
        <ele>433</ele>
        <time>2022-07-27T08:17:16.000Z</time>
      </trkpt>
      <trkpt lat="42.18337836675345897674560546875" lon="2.48172705061733722686767578125">
        <ele>432.399993896484375</ele>
        <time>2022-07-27T08:17:22.000Z</time>
      </trkpt>
      <trkpt lat="42.18350560404360294342041015625" lon="2.48163786716759204864501953125">
        <ele>432</ele>
        <time>2022-07-27T08:17:24.000Z</time>
      </trkpt>
      <trkpt lat="42.1839707158505916595458984375" lon="2.48134936206042766571044921875">
        <ele>431.79998779296875</ele>
        <time>2022-07-27T08:17:31.000Z</time>
      </trkpt>
      <trkpt lat="42.1843847818672657012939453125" lon="2.48111500404775142669677734375">
        <ele>431.600006103515625</ele>
        <time>2022-07-27T08:17:37.000Z</time>
      </trkpt>
      <trkpt lat="42.18487302772700786590576171875" lon="2.480863630771636962890625">
        <ele>431.600006103515625</ele>
        <time>2022-07-27T08:17:44.000Z</time>
      </trkpt>
      <trkpt lat="42.18532950617372989654541015625" lon="2.4806156940758228302001953125">
        <ele>431.600006103515625</ele>
        <time>2022-07-27T08:17:51.000Z</time>
      </trkpt>
      <trkpt lat="42.18575916253030300140380859375" lon="2.4803679250180721282958984375">
        <ele>431.79998779296875</ele>
        <time>2022-07-27T08:17:58.000Z</time>
      </trkpt>
      <trkpt lat="42.18615529127418994903564453125" lon="2.480153851211071014404296875">
        <ele>432</ele>
        <time>2022-07-27T08:18:04.000Z</time>
      </trkpt>
      <trkpt lat="42.18671369366347789764404296875" lon="2.479819916188716888427734375">
        <ele>431.79998779296875</ele>
        <time>2022-07-27T08:18:12.000Z</time>
      </trkpt>
      <trkpt lat="42.18722096644341945648193359375" lon="2.479522861540317535400390625">
        <ele>430.600006103515625</ele>
        <time>2022-07-27T08:18:19.000Z</time>
      </trkpt>
      <trkpt lat="42.1872936375439167022705078125" lon="2.47947935946285724639892578125">
        <ele>430.399993896484375</ele>
        <time>2022-07-27T08:18:20.000Z</time>
      </trkpt>
      <trkpt lat="42.187511734664440155029296875" lon="2.479350529611110687255859375">
        <ele>429.600006103515625</ele>
        <time>2022-07-27T08:18:23.000Z</time>
      </trkpt>
      <trkpt lat="42.1878045983612537384033203125" lon="2.479180879890918731689453125">
        <ele>428.20001220703125</ele>
        <time>2022-07-27T08:18:27.000Z</time>
      </trkpt>
      <trkpt lat="42.18817197717726230621337890625" lon="2.4789778701961040496826171875">
        <ele>427.20001220703125</ele>
        <time>2022-07-27T08:18:32.000Z</time>
      </trkpt>
      <trkpt lat="42.18831874430179595947265625" lon="2.47889019548892974853515625">
        <ele>426.600006103515625</ele>
        <time>2022-07-27T08:18:34.000Z</time>
      </trkpt>
      <trkpt lat="42.18839141540229320526123046875" lon="2.47884384356439113616943359375">
        <ele>426.20001220703125</ele>
        <time>2022-07-27T08:18:35.000Z</time>
      </trkpt>
      <trkpt lat="42.18875921331346035003662109375" lon="2.4786387383937835693359375">
        <ele>425</ele>
        <time>2022-07-27T08:18:40.000Z</time>
      </trkpt>
      <trkpt lat="42.188824675977230072021484375" lon="2.478602193295955657958984375">
        <ele>424.79998779296875</ele>
        <time>2022-07-27T08:18:41.000Z</time>
      </trkpt>
      <trkpt lat="42.1888861991465091705322265625" lon="2.47857847250998020172119140625">
        <ele>424.600006103515625</ele>
        <time>2022-07-27T08:18:42.000Z</time>
      </trkpt>
      <trkpt lat="42.18898720107972621917724609375" lon="2.4786092340946197509765625">
        <ele>424.399993896484375</ele>
        <time>2022-07-27T08:18:44.000Z</time>
      </trkpt>
      <trkpt lat="42.1890799887478351593017578125" lon="2.47880629263818264007568359375">
        <ele>424.20001220703125</ele>
        <time>2022-07-27T08:18:47.000Z</time>
      </trkpt>
      <trkpt lat="42.18910220079123973846435546875" lon="2.47888214886188507080078125">
        <ele>424.20001220703125</ele>
        <time>2022-07-27T08:18:48.000Z</time>
      </trkpt>
      <trkpt lat="42.18921569176018238067626953125" lon="2.47924366034567356109619140625">
        <ele>424</ele>
        <time>2022-07-27T08:18:53.000Z</time>
      </trkpt>
      <trkpt lat="42.18936069868505001068115234375" lon="2.4797008931636810302734375">
        <ele>424</ele>
        <time>2022-07-27T08:19:00.000Z</time>
      </trkpt>
      <trkpt lat="42.1895517222583293914794921875" lon="2.4801890552043914794921875">
        <ele>424.399993896484375</ele>
        <time>2022-07-27T08:19:07.000Z</time>
      </trkpt>
      <trkpt lat="42.18980326317250728607177734375" lon="2.480608485639095306396484375">
        <ele>424.399993896484375</ele>
        <time>2022-07-27T08:19:14.000Z</time>
      </trkpt>
      <trkpt lat="42.18998414464294910430908203125" lon="2.4808232299983501434326171875">
        <ele>423.79998779296875</ele>
        <time>2022-07-27T08:19:18.000Z</time>
      </trkpt>
      <trkpt lat="42.1901766769587993621826171875" lon="2.48104677535593509674072265625">
        <ele>423.399993896484375</ele>
        <time>2022-07-27T08:19:22.000Z</time>
      </trkpt>
      <trkpt lat="42.1903339214622974395751953125" lon="2.4812195263803005218505859375">
        <ele>422.600006103515625</ele>
        <time>2022-07-27T08:19:25.000Z</time>
      </trkpt>
      <trkpt lat="42.19070993363857269287109375" lon="2.48163141310214996337890625">
        <ele>421.79998779296875</ele>
        <time>2022-07-27T08:19:32.000Z</time>
      </trkpt>
      <trkpt lat="42.19076491892337799072265625" lon="2.4816910922527313232421875">
        <ele>421.20001220703125</ele>
        <time>2022-07-27T08:19:33.000Z</time>
      </trkpt>
      <trkpt lat="42.19087354838848114013671875" lon="2.48180919326841831207275390625">
        <ele>420.600006103515625</ele>
        <time>2022-07-27T08:19:35.000Z</time>
      </trkpt>
      <trkpt lat="42.19101964496076107025146484375" lon="2.4819826148450374603271484375">
        <ele>420.399993896484375</ele>
        <time>2022-07-27T08:19:38.000Z</time>
      </trkpt>
      <trkpt lat="42.19143337570130825042724609375" lon="2.4824233353137969970703125">
        <ele>420.399993896484375</ele>
        <time>2022-07-27T08:19:46.000Z</time>
      </trkpt>
      <trkpt lat="42.1918626129627227783203125" lon="2.48292432166635990142822265625">
        <ele>421.600006103515625</ele>
        <time>2022-07-27T08:19:55.000Z</time>
      </trkpt>
      <trkpt lat="42.19199814833700656890869140625" lon="2.48308408074080944061279296875">
        <ele>421.600006103515625</ele>
        <time>2022-07-27T08:19:58.000Z</time>
      </trkpt>
      <trkpt lat="42.19217785634100437164306640625" lon="2.48328424058854579925537109375">
        <ele>421.600006103515625</ele>
        <time>2022-07-27T08:20:02.000Z</time>
      </trkpt>
      <trkpt lat="42.19243199564516544342041015625" lon="2.483579032123088836669921875">
        <ele>422</ele>
        <time>2022-07-27T08:20:08.000Z</time>
      </trkpt>
      <trkpt lat="42.1924766711890697479248046875" lon="2.4836221151053905487060546875">
        <ele>422.20001220703125</ele>
        <time>2022-07-27T08:20:09.000Z</time>
      </trkpt>
      <trkpt lat="42.19278328120708465576171875" lon="2.4838824570178985595703125">
        <ele>423.600006103515625</ele>
        <time>2022-07-27T08:20:16.000Z</time>
      </trkpt>
      <trkpt lat="42.1929608099162578582763671875" lon="2.484032325446605682373046875">
        <ele>424.600006103515625</ele>
        <time>2022-07-27T08:20:20.000Z</time>
      </trkpt>
      <trkpt lat="42.19314261339604854583740234375" lon="2.484185881912708282470703125">
        <ele>425.79998779296875</ele>
        <time>2022-07-27T08:20:24.000Z</time>
      </trkpt>
      <trkpt lat="42.1934799849987030029296875" lon="2.48456365428864955902099609375">
        <ele>426.399993896484375</ele>
        <time>2022-07-27T08:20:32.000Z</time>
      </trkpt>
      <trkpt lat="42.19365726225078105926513671875" lon="2.4849360622465610504150390625">
        <ele>426.399993896484375</ele>
        <time>2022-07-27T08:20:38.000Z</time>
      </trkpt>
      <trkpt lat="42.19379170797765254974365234375" lon="2.4854456819593906402587890625">
        <ele>426.600006103515625</ele>
        <time>2022-07-27T08:20:45.000Z</time>
      </trkpt>
      <trkpt lat="42.19385893084108829498291015625" lon="2.48590827919542789459228515625">
        <ele>426.79998779296875</ele>
        <time>2022-07-27T08:20:51.000Z</time>
      </trkpt>
      <trkpt lat="42.19386412762105464935302734375" lon="2.485983632504940032958984375">
        <ele>426.79998779296875</ele>
        <time>2022-07-27T08:20:52.000Z</time>
      </trkpt>
      <trkpt lat="42.19388960860669612884521484375" lon="2.48625428415834903717041015625">
        <ele>427</ele>
        <time>2022-07-27T08:20:56.000Z</time>
      </trkpt>
      <trkpt lat="42.19391441904008388519287109375" lon="2.48628898523747920989990234375">
        <ele>427.20001220703125</ele>
        <time>2022-07-27T08:20:57.000Z</time>
      </trkpt>
      <trkpt lat="42.19402003102004528045654296875" lon="2.4862946011126041412353515625">
        <ele>427.399993896484375</ele>
        <time>2022-07-27T08:21:00.000Z</time>
      </trkpt>
      <trkpt lat="42.19406579621136188507080078125" lon="2.48628295026719570159912109375">
        <ele>427.399993896484375</ele>
        <time>2022-07-27T08:21:01.000Z</time>
      </trkpt>
      <trkpt lat="42.19435128383338451385498046875" lon="2.48622913844883441925048828125">
        <ele>427.399993896484375</ele>
        <time>2022-07-27T08:21:06.000Z</time>
      </trkpt>
      <trkpt lat="42.19460626132786273956298828125" lon="2.4861963652074337005615234375">
        <ele>426.399993896484375</ele>
        <time>2022-07-27T08:21:11.000Z</time>
      </trkpt>
      <trkpt lat="42.1946438960731029510498046875" lon="2.486208267509937286376953125">
        <ele>425</ele>
        <time>2022-07-27T08:21:12.000Z</time>
      </trkpt>
      <trkpt lat="42.194675914943218231201171875" lon="2.48622863553464412689208984375">
        <ele>424.600006103515625</ele>
        <time>2022-07-27T08:21:13.000Z</time>
      </trkpt>
      <trkpt lat="42.194727547466754913330078125" lon="2.4863143824040889739990234375">
        <ele>424</ele>
        <time>2022-07-27T08:21:15.000Z</time>
      </trkpt>
      <trkpt lat="42.19476585276424884796142578125" lon="2.48643533326685428619384765625">
        <ele>423.399993896484375</ele>
        <time>2022-07-27T08:21:17.000Z</time>
      </trkpt>
      <trkpt lat="42.19480340369045734405517578125" lon="2.48656910844147205352783203125">
        <ele>423</ele>
        <time>2022-07-27T08:21:19.000Z</time>
      </trkpt>
      <trkpt lat="42.19485084526240825653076171875" lon="2.48671696521341800689697265625">
        <ele>422.79998779296875</ele>
        <time>2022-07-27T08:21:21.000Z</time>
      </trkpt>
      <trkpt lat="42.19494220800697803497314453125" lon="2.48703899793326854705810546875">
        <ele>421.79998779296875</ele>
        <time>2022-07-27T08:21:25.000Z</time>
      </trkpt>
      <trkpt lat="42.195040695369243621826171875" lon="2.48736924491822719573974609375">
        <ele>421</ele>
        <time>2022-07-27T08:21:29.000Z</time>
      </trkpt>
      <trkpt lat="42.195064164698123931884765625" lon="2.487451471388339996337890625">
        <ele>420.79998779296875</ele>
        <time>2022-07-27T08:21:30.000Z</time>
      </trkpt>
      <trkpt lat="42.19518913887441158294677734375" lon="2.48788909055292606353759765625">
        <ele>419.79998779296875</ele>
        <time>2022-07-27T08:21:35.000Z</time>
      </trkpt>
      <trkpt lat="42.1952604688704013824462890625" lon="2.48816451989114284515380859375">
        <ele>418.600006103515625</ele>
        <time>2022-07-27T08:21:38.000Z</time>
      </trkpt>
      <trkpt lat="42.19531922601163387298583984375" lon="2.4883429706096649169921875">
        <ele>418.20001220703125</ele>
        <time>2022-07-27T08:21:40.000Z</time>
      </trkpt>
      <trkpt lat="42.195395417511463165283203125" lon="2.48862250708043575286865234375">
        <ele>417.79998779296875</ele>
        <time>2022-07-27T08:21:43.000Z</time>
      </trkpt>
      <trkpt lat="42.19543875195086002349853515625" lon="2.48881705105304718017578125">
        <ele>417.399993896484375</ele>
        <time>2022-07-27T08:21:45.000Z</time>
      </trkpt>
      <trkpt lat="42.1954626403748989105224609375" lon="2.48891335912048816680908203125">
        <ele>416.79998779296875</ele>
        <time>2022-07-27T08:21:46.000Z</time>
      </trkpt>
      <trkpt lat="42.19548820517957210540771484375" lon="2.48900882899761199951171875">
        <ele>416.399993896484375</ele>
        <time>2022-07-27T08:21:47.000Z</time>
      </trkpt>
      <trkpt lat="42.19556339085102081298828125" lon="2.4892527423799037933349609375">
        <ele>416</ele>
        <time>2022-07-27T08:21:50.000Z</time>
      </trkpt>
      <trkpt lat="42.1955441124737262725830078125" lon="2.48947159387171268463134765625">
        <ele>415.79998779296875</ele>
        <time>2022-07-27T08:21:53.000Z</time>
      </trkpt>
      <trkpt lat="42.1953922323882579803466796875" lon="2.489577122032642364501953125">
        <ele>415.79998779296875</ele>
        <time>2022-07-27T08:21:56.000Z</time>
      </trkpt>
      <trkpt lat="42.19508620910346508026123046875" lon="2.489671669900417327880859375">
        <ele>415.79998779296875</ele>
        <time>2022-07-27T08:22:02.000Z</time>
      </trkpt>
      <trkpt lat="42.19472981058061122894287109375" lon="2.48970352113246917724609375">
        <ele>417.79998779296875</ele>
        <time>2022-07-27T08:22:09.000Z</time>
      </trkpt>
      <trkpt lat="42.194608189165592193603515625" lon="2.48971114866435527801513671875">
        <ele>418.600006103515625</ele>
        <time>2022-07-27T08:22:12.000Z</time>
      </trkpt>
      <trkpt lat="42.19460642896592617034912109375" lon="2.48973034322261810302734375">
        <ele>418.79998779296875</ele>
        <time>2022-07-27T08:22:13.000Z</time>
      </trkpt>
      <trkpt lat="42.19464833848178386688232421875" lon="2.489757835865020751953125">
        <ele>419.399993896484375</ele>
        <time>2022-07-27T08:22:16.000Z</time>
      </trkpt>
      <trkpt lat="42.19467432238161563873291015625" lon="2.4897724203765392303466796875">
        <ele>419.600006103515625</ele>
        <time>2022-07-27T08:22:18.000Z</time>
      </trkpt>
      <trkpt lat="42.19467314891517162322998046875" lon="2.48977283947169780731201171875">
        <ele>420</ele>
        <time>2022-07-27T08:22:19.000Z</time>
      </trkpt>
      <trkpt lat="42.1948366798460483551025390625" lon="2.4902488477528095245361328125">
        <ele>420.600006103515625</ele>
        <time>2022-07-27T08:25:28.000Z</time>
      </trkpt>
      <trkpt lat="42.1948608197271823883056640625" lon="2.490278519690036773681640625">
        <ele>420.600006103515625</ele>
        <time>2022-07-27T08:25:29.000Z</time>
      </trkpt>
      <trkpt lat="42.1950100176036357879638671875" lon="2.4904550425708293914794921875">
        <ele>419.20001220703125</ele>
        <time>2022-07-27T08:25:34.000Z</time>
      </trkpt>
      <trkpt lat="42.1950381807982921600341796875" lon="2.490498125553131103515625">
        <ele>418.600006103515625</ele>
        <time>2022-07-27T08:25:35.000Z</time>
      </trkpt>
      <trkpt lat="42.19509392045438289642333984375" lon="2.4905904941260814666748046875">
        <ele>417.79998779296875</ele>
        <time>2022-07-27T08:25:37.000Z</time>
      </trkpt>
      <trkpt lat="42.1951940841972827911376953125" lon="2.4906925857067108154296875">
        <ele>416.79998779296875</ele>
        <time>2022-07-27T08:25:40.000Z</time>
      </trkpt>
      <trkpt lat="42.195255942642688751220703125" lon="2.49069652520120143890380859375">
        <ele>416.399993896484375</ele>
        <time>2022-07-27T08:25:41.000Z</time>
      </trkpt>
      <trkpt lat="42.1953841857612133026123046875" lon="2.49067389406263828277587890625">
        <ele>415.399993896484375</ele>
        <time>2022-07-27T08:25:43.000Z</time>
      </trkpt>
      <trkpt lat="42.19562105834484100341796875" lon="2.49062662012875080108642578125">
        <ele>414.20001220703125</ele>
        <time>2022-07-27T08:25:46.000Z</time>
      </trkpt>
      <trkpt lat="42.1957010217010974884033203125" lon="2.4906136281788349151611328125">
        <ele>413.79998779296875</ele>
        <time>2022-07-27T08:25:47.000Z</time>
      </trkpt>
      <trkpt lat="42.19587209634482860565185546875" lon="2.49060918577015399932861328125">
        <ele>412.600006103515625</ele>
        <time>2022-07-27T08:25:49.000Z</time>
      </trkpt>
      <trkpt lat="42.1960601024329662322998046875" lon="2.49059527181088924407958984375">
        <ele>411.20001220703125</ele>
        <time>2022-07-27T08:25:51.000Z</time>
      </trkpt>
      <trkpt lat="42.196332849562168121337890625" lon="2.49055151827633380889892578125">
        <ele>409.600006103515625</ele>
        <time>2022-07-27T08:25:54.000Z</time>
      </trkpt>
      <trkpt lat="42.19640937633812427520751953125" lon="2.49052922241389751434326171875">
        <ele>409</ele>
        <time>2022-07-27T08:25:55.000Z</time>
      </trkpt>
      <trkpt lat="42.19647307880222797393798828125" lon="2.49050072394311428070068359375">
        <ele>408</ele>
        <time>2022-07-27T08:25:56.000Z</time>
      </trkpt>
      <trkpt lat="42.196537367999553680419921875" lon="2.490466944873332977294921875">
        <ele>407</ele>
        <time>2022-07-27T08:25:57.000Z</time>
      </trkpt>
      <trkpt lat="42.19665161333978176116943359375" lon="2.4904020689427852630615234375">
        <ele>406</ele>
        <time>2022-07-27T08:25:59.000Z</time>
      </trkpt>
      <trkpt lat="42.1967078559100627899169921875" lon="2.490379102528095245361328125">
        <ele>406</ele>
        <time>2022-07-27T08:26:00.000Z</time>
      </trkpt>
      <trkpt lat="42.19681732356548309326171875" lon="2.49037248082458972930908203125">
        <ele>406</ele>
        <time>2022-07-27T08:26:02.000Z</time>
      </trkpt>
      <trkpt lat="42.1971081756055355072021484375" lon="2.49035873450338840484619140625">
        <ele>406.20001220703125</ele>
        <time>2022-07-27T08:26:08.000Z</time>
      </trkpt>
      <trkpt lat="42.197366170585155487060546875" lon="2.4903842993080615997314453125">
        <ele>406.399993896484375</ele>
        <time>2022-07-27T08:26:13.000Z</time>
      </trkpt>
      <trkpt lat="42.19742425717413425445556640625" lon="2.4903718940913677215576171875">
        <ele>406.399993896484375</ele>
        <time>2022-07-27T08:26:14.000Z</time>
      </trkpt>
      <trkpt lat="42.1976025402545928955078125" lon="2.49032235704362392425537109375">
        <ele>406.399993896484375</ele>
        <time>2022-07-27T08:26:18.000Z</time>
      </trkpt>
      <trkpt lat="42.19763011671602725982666015625" lon="2.49032068066298961639404296875">
        <ele>406.20001220703125</ele>
        <time>2022-07-27T08:26:19.000Z</time>
      </trkpt>
      <trkpt lat="42.1976791508495807647705078125" lon="2.49034113250672817230224609375">
        <ele>406</ele>
        <time>2022-07-27T08:26:21.000Z</time>
      </trkpt>
      <trkpt lat="42.19771393574774265289306640625" lon="2.4903707206249237060546875">
        <ele>405.79998779296875</ele>
        <time>2022-07-27T08:26:22.000Z</time>
      </trkpt>
      <trkpt lat="42.1977472119033336639404296875" lon="2.49041824601590633392333984375">
        <ele>405.600006103515625</ele>
        <time>2022-07-27T08:26:23.000Z</time>
      </trkpt>
      <trkpt lat="42.197834551334381103515625" lon="2.4905224330723285675048828125">
        <ele>405.20001220703125</ele>
        <time>2022-07-27T08:26:25.000Z</time>
      </trkpt>
      <trkpt lat="42.197877131402492523193359375" lon="2.49056316912174224853515625">
        <ele>404.79998779296875</ele>
        <time>2022-07-27T08:26:26.000Z</time>
      </trkpt>
      <trkpt lat="42.1979297697544097900390625" lon="2.490590997040271759033203125">
        <ele>404.79998779296875</ele>
        <time>2022-07-27T08:26:27.000Z</time>
      </trkpt>
      <trkpt lat="42.19805650413036346435546875" lon="2.490616142749786376953125">
        <ele>403.79998779296875</ele>
        <time>2022-07-27T08:26:29.000Z</time>
      </trkpt>
      <trkpt lat="42.19812330789864063262939453125" lon="2.490627877414226531982421875">
        <ele>403.399993896484375</ele>
        <time>2022-07-27T08:26:30.000Z</time>
      </trkpt>
      <trkpt lat="42.19842706806957721710205078125" lon="2.49068780802190303802490234375">
        <ele>402.20001220703125</ele>
        <time>2022-07-27T08:26:34.000Z</time>
      </trkpt>
      <trkpt lat="42.19850711524486541748046875" lon="2.4907058291137218475341796875">
        <ele>402.20001220703125</ele>
        <time>2022-07-27T08:26:35.000Z</time>
      </trkpt>
      <trkpt lat="42.19866930507123470306396484375" lon="2.49074681662023067474365234375">
        <ele>400.600006103515625</ele>
        <time>2022-07-27T08:26:37.000Z</time>
      </trkpt>
      <trkpt lat="42.19887583516538143157958984375" lon="2.49079543165862560272216796875">
        <ele>399.20001220703125</ele>
        <time>2022-07-27T08:26:40.000Z</time>
      </trkpt>
      <trkpt lat="42.19892914406955242156982421875" lon="2.49080481939017772674560546875">
        <ele>399</ele>
        <time>2022-07-27T08:26:41.000Z</time>
      </trkpt>
      <trkpt lat="42.19905772246420383453369140625" lon="2.4908365868031978607177734375">
        <ele>398.600006103515625</ele>
        <time>2022-07-27T08:26:44.000Z</time>
      </trkpt>
      <trkpt lat="42.19910784624516963958740234375" lon="2.4908372573554515838623046875">
        <ele>398.600006103515625</ele>
        <time>2022-07-27T08:26:45.000Z</time>
      </trkpt>
      <trkpt lat="42.199263833463191986083984375" lon="2.49080632813274860382080078125">
        <ele>398.20001220703125</ele>
        <time>2022-07-27T08:26:48.000Z</time>
      </trkpt>
      <trkpt lat="42.19932426698505878448486328125" lon="2.49080012552440166473388671875">
        <ele>398.20001220703125</ele>
        <time>2022-07-27T08:26:49.000Z</time>
      </trkpt>
      <trkpt lat="42.1993860416114330291748046875" lon="2.4908013828098773956298828125">
        <ele>398.20001220703125</ele>
        <time>2022-07-27T08:26:50.000Z</time>
      </trkpt>
      <trkpt lat="42.199744619429111480712890625" lon="2.49086215160787105560302734375">
        <ele>397.600006103515625</ele>
        <time>2022-07-27T08:26:55.000Z</time>
      </trkpt>
      <trkpt lat="42.1999771334230899810791015625" lon="2.49089852906763553619384765625">
        <ele>397</ele>
        <time>2022-07-27T08:26:58.000Z</time>
      </trkpt>
      <trkpt lat="42.20020897686481475830078125" lon="2.4909200705587863922119140625">
        <ele>396</ele>
        <time>2022-07-27T08:27:01.000Z</time>
      </trkpt>
      <trkpt lat="42.20028801821172237396240234375" lon="2.49092233367264270782470703125">
        <ele>395.79998779296875</ele>
        <time>2022-07-27T08:27:02.000Z</time>
      </trkpt>
      <trkpt lat="42.20088480971753597259521484375" lon="2.49093021266162395477294921875">
        <ele>395</ele>
        <time>2022-07-27T08:27:10.000Z</time>
      </trkpt>
      <trkpt lat="42.20096158795058727264404296875" lon="2.49093641526997089385986328125">
        <ele>395</ele>
        <time>2022-07-27T08:27:11.000Z</time>
      </trkpt>
      <trkpt lat="42.2011200897395610809326171875" lon="2.490983270108699798583984375">
        <ele>394.79998779296875</ele>
        <time>2022-07-27T08:27:13.000Z</time>
      </trkpt>
      <trkpt lat="42.20138269476592540740966796875" lon="2.49106834642589092254638671875">
        <ele>394.600006103515625</ele>
        <time>2022-07-27T08:27:16.000Z</time>
      </trkpt>
      <trkpt lat="42.20147925429046154022216796875" lon="2.491083182394504547119140625">
        <ele>394.600006103515625</ele>
        <time>2022-07-27T08:27:17.000Z</time>
      </trkpt>
      <trkpt lat="42.20178200863301753997802734375" lon="2.49112584628164768218994140625">
        <ele>393.79998779296875</ele>
        <time>2022-07-27T08:27:20.000Z</time>
      </trkpt>
      <trkpt lat="42.202084846794605255126953125" lon="2.49114847742021083831787109375">
        <ele>390.79998779296875</ele>
        <time>2022-07-27T08:27:23.000Z</time>
      </trkpt>
      <trkpt lat="42.202187441289424896240234375" lon="2.49114143662154674530029296875">
        <ele>389.399993896484375</ele>
        <time>2022-07-27T08:27:24.000Z</time>
      </trkpt>
      <trkpt lat="42.20229062251746654510498046875" lon="2.49112618155777454376220703125">
        <ele>388.20001220703125</ele>
        <time>2022-07-27T08:27:25.000Z</time>
      </trkpt>
      <trkpt lat="42.20239103771746158599853515625" lon="2.491107992827892303466796875">
        <ele>387</ele>
        <time>2022-07-27T08:27:26.000Z</time>
      </trkpt>
      <trkpt lat="42.20248893834650516510009765625" lon="2.4910867027938365936279296875">
        <ele>386.600006103515625</ele>
        <time>2022-07-27T08:27:27.000Z</time>
      </trkpt>
      <trkpt lat="42.20267669297754764556884765625" lon="2.4910400994122028350830078125">
        <ele>385.79998779296875</ele>
        <time>2022-07-27T08:27:29.000Z</time>
      </trkpt>
      <trkpt lat="42.20276872627437114715576171875" lon="2.49102191068232059478759765625">
        <ele>385.600006103515625</ele>
        <time>2022-07-27T08:27:30.000Z</time>
      </trkpt>
      <trkpt lat="42.20294575206935405731201171875" lon="2.491032890975475311279296875">
        <ele>385.20001220703125</ele>
        <time>2022-07-27T08:27:32.000Z</time>
      </trkpt>
      <trkpt lat="42.20328656025230884552001953125" lon="2.4912144429981708526611328125">
        <ele>384.79998779296875</ele>
        <time>2022-07-27T08:27:36.000Z</time>
      </trkpt>
      <trkpt lat="42.20335914753377437591552734375" lon="2.49129801057279109954833984375">
        <ele>384.600006103515625</ele>
        <time>2022-07-27T08:27:37.000Z</time>
      </trkpt>
      <trkpt lat="42.20342871733009815216064453125" lon="2.49138467945158481597900390625">
        <ele>384.20001220703125</ele>
        <time>2022-07-27T08:27:38.000Z</time>
      </trkpt>
      <trkpt lat="42.2035052441060543060302734375" lon="2.49146581627428531646728515625">
        <ele>384</ele>
        <time>2022-07-27T08:27:39.000Z</time>
      </trkpt>
      <trkpt lat="42.20358897931873798370361328125" lon="2.49153924174606800079345703125">
        <ele>383.79998779296875</ele>
        <time>2022-07-27T08:27:40.000Z</time>
      </trkpt>
      <trkpt lat="42.2038489021360874176025390625" lon="2.49174199998378753662109375">
        <ele>383.399993896484375</ele>
        <time>2022-07-27T08:27:43.000Z</time>
      </trkpt>
      <trkpt lat="42.20418996177613735198974609375" lon="2.49200594611465930938720703125">
        <ele>382.600006103515625</ele>
        <time>2022-07-27T08:27:47.000Z</time>
      </trkpt>
      <trkpt lat="42.204268164932727813720703125" lon="2.49206881038844585418701171875">
        <ele>382.20001220703125</ele>
        <time>2022-07-27T08:27:48.000Z</time>
      </trkpt>
      <trkpt lat="42.2044193744659423828125" lon="2.4922018311917781829833984375">
        <ele>380.79998779296875</ele>
        <time>2022-07-27T08:27:50.000Z</time>
      </trkpt>
      <trkpt lat="42.2045630402863025665283203125" lon="2.49234415590763092041015625">
        <ele>379.600006103515625</ele>
        <time>2022-07-27T08:27:52.000Z</time>
      </trkpt>
      <trkpt lat="42.20469094812870025634765625" lon="2.49246259219944477081298828125">
        <ele>378.600006103515625</ele>
        <time>2022-07-27T08:27:54.000Z</time>
      </trkpt>
      <trkpt lat="42.20474383793771266937255859375" lon="2.49253719113767147064208984375">
        <ele>378.20001220703125</ele>
        <time>2022-07-27T08:27:55.000Z</time>
      </trkpt>
      <trkpt lat="42.20483352430164813995361328125" lon="2.492701224982738494873046875">
        <ele>377.600006103515625</ele>
        <time>2022-07-27T08:27:57.000Z</time>
      </trkpt>
      <trkpt lat="42.20494383014738559722900390625" lon="2.492961399257183074951171875">
        <ele>377.600006103515625</ele>
        <time>2022-07-27T08:28:00.000Z</time>
      </trkpt>
      <trkpt lat="42.2051055170595645904541015625" lon="2.4933528341352939605712890625">
        <ele>377.600006103515625</ele>
        <time>2022-07-27T08:28:05.000Z</time>
      </trkpt>
      <trkpt lat="42.2051903419196605682373046875" lon="2.4933830089867115020751953125">
        <ele>377.600006103515625</ele>
        <time>2022-07-27T08:28:07.000Z</time>
      </trkpt>
      <trkpt lat="42.20528966747224330902099609375" lon="2.49331788159906864166259765625">
        <ele>378</ele>
        <time>2022-07-27T08:28:09.000Z</time>
      </trkpt>
      <trkpt lat="42.20539913512766361236572265625" lon="2.49323473311960697174072265625">
        <ele>378</ele>
        <time>2022-07-27T08:28:11.000Z</time>
      </trkpt>
      <trkpt lat="42.20581470988690853118896484375" lon="2.49291739426553249359130859375">
        <ele>378</ele>
        <time>2022-07-27T08:28:18.000Z</time>
      </trkpt>
      <trkpt lat="42.20618938095867633819580078125" lon="2.49266442842781543731689453125">
        <ele>377.20001220703125</ele>
        <time>2022-07-27T08:28:24.000Z</time>
      </trkpt>
      <trkpt lat="42.2063845954835414886474609375" lon="2.4925129674375057220458984375">
        <ele>376.20001220703125</ele>
        <time>2022-07-27T08:28:27.000Z</time>
      </trkpt>
      <trkpt lat="42.2066457755863666534423828125" lon="2.49230585061013698577880859375">
        <ele>375.399993896484375</ele>
        <time>2022-07-27T08:28:31.000Z</time>
      </trkpt>
      <trkpt lat="42.206714339554309844970703125" lon="2.49225421808660030364990234375">
        <ele>375.20001220703125</ele>
        <time>2022-07-27T08:28:32.000Z</time>
      </trkpt>
      <trkpt lat="42.2070638649165630340576171875" lon="2.4919919483363628387451171875">
        <ele>374.20001220703125</ele>
        <time>2022-07-27T08:28:37.000Z</time>
      </trkpt>
      <trkpt lat="42.20713444054126739501953125" lon="2.49193838797509670257568359375">
        <ele>374.20001220703125</ele>
        <time>2022-07-27T08:28:38.000Z</time>
      </trkpt>
      <trkpt lat="42.20753199420869350433349609375" lon="2.4916533194482326507568359375">
        <ele>373.600006103515625</ele>
        <time>2022-07-27T08:28:44.000Z</time>
      </trkpt>
      <trkpt lat="42.207669205963611602783203125" lon="2.49157033860683441162109375">
        <ele>373.20001220703125</ele>
        <time>2022-07-27T08:28:46.000Z</time>
      </trkpt>
      <trkpt lat="42.2077394463121891021728515625" lon="2.4915510602295398712158203125">
        <ele>373</ele>
        <time>2022-07-27T08:28:47.000Z</time>
      </trkpt>
      <trkpt lat="42.20780943520367145538330078125" lon="2.4915493838489055633544921875">
        <ele>372.79998779296875</ele>
        <time>2022-07-27T08:28:48.000Z</time>
      </trkpt>
      <trkpt lat="42.20794052816927433013916015625" lon="2.491569332778453826904296875">
        <ele>372.399993896484375</ele>
        <time>2022-07-27T08:28:50.000Z</time>
      </trkpt>
      <trkpt lat="42.2081119380891323089599609375" lon="2.49158735387027263641357421875">
        <ele>372.20001220703125</ele>
        <time>2022-07-27T08:28:53.000Z</time>
      </trkpt>
      <trkpt lat="42.208262979984283447265625" lon="2.4915949814021587371826171875">
        <ele>372.20001220703125</ele>
        <time>2022-07-27T08:28:57.000Z</time>
      </trkpt>
      <trkpt lat="42.2082906402647495269775390625" lon="2.4915735237300395965576171875">
        <ele>372.20001220703125</ele>
        <time>2022-07-27T08:28:58.000Z</time>
      </trkpt>
      <trkpt lat="42.20833397470414638519287109375" lon="2.49147721566259860992431640625">
        <ele>372.399993896484375</ele>
        <time>2022-07-27T08:29:00.000Z</time>
      </trkpt>
      <trkpt lat="42.2083664126694202423095703125" lon="2.4912375770509243011474609375">
        <ele>372.600006103515625</ele>
        <time>2022-07-27T08:29:03.000Z</time>
      </trkpt>
      <trkpt lat="42.2083724476397037506103515625" lon="2.4911457113921642303466796875">
        <ele>372.600006103515625</ele>
        <time>2022-07-27T08:29:04.000Z</time>
      </trkpt>
      <trkpt lat="42.2084156982600688934326171875" lon="2.4903755821287631988525390625">
        <ele>373</ele>
        <time>2022-07-27T08:29:12.000Z</time>
      </trkpt>
      <trkpt lat="42.20842936076223850250244140625" lon="2.49018740840256214141845703125">
        <ele>373</ele>
        <time>2022-07-27T08:29:14.000Z</time>
      </trkpt>
      <trkpt lat="42.2084800712764263153076171875" lon="2.48947310261428356170654296875">
        <ele>372.600006103515625</ele>
        <time>2022-07-27T08:29:21.000Z</time>
      </trkpt>
      <trkpt lat="42.2085142694413661956787109375" lon="2.489012517035007476806640625">
        <ele>371.600006103515625</ele>
        <time>2022-07-27T08:29:25.000Z</time>
      </trkpt>
      <trkpt lat="42.2085484676063060760498046875" lon="2.4885325692594051361083984375">
        <ele>370.399993896484375</ele>
        <time>2022-07-27T08:29:29.000Z</time>
      </trkpt>
      <trkpt lat="42.2085555084049701690673828125" lon="2.488410361111164093017578125">
        <ele>370</ele>
        <time>2022-07-27T08:29:30.000Z</time>
      </trkpt>
      <trkpt lat="42.20857352949678897857666015625" lon="2.4881620891392230987548828125">
        <ele>369.20001220703125</ele>
        <time>2022-07-27T08:29:32.000Z</time>
      </trkpt>
      <trkpt lat="42.20862013287842273712158203125" lon="2.48752045445144176483154296875">
        <ele>368.20001220703125</ele>
        <time>2022-07-27T08:29:37.000Z</time>
      </trkpt>
      <trkpt lat="42.2086399979889392852783203125" lon="2.48725558631122112274169921875">
        <ele>368</ele>
        <time>2022-07-27T08:29:39.000Z</time>
      </trkpt>
      <trkpt lat="42.20869221724569797515869140625" lon="2.48644824139773845672607421875">
        <ele>367.20001220703125</ele>
        <time>2022-07-27T08:29:45.000Z</time>
      </trkpt>
      <trkpt lat="42.20870076678693294525146484375" lon="2.48630893416702747344970703125">
        <ele>367</ele>
        <time>2022-07-27T08:29:46.000Z</time>
      </trkpt>
      <trkpt lat="42.20873211510479450225830078125" lon="2.4857407249510288238525390625">
        <ele>365.600006103515625</ele>
        <time>2022-07-27T08:29:50.000Z</time>
      </trkpt>
      <trkpt lat="42.208751142024993896484375" lon="2.48546152375638484954833984375">
        <ele>364.20001220703125</ele>
        <time>2022-07-27T08:29:52.000Z</time>
      </trkpt>
      <trkpt lat="42.2087704204022884368896484375" lon="2.48518534004688262939453125">
        <ele>362.600006103515625</ele>
        <time>2022-07-27T08:29:54.000Z</time>
      </trkpt>
      <trkpt lat="42.2087860107421875" lon="2.4849132634699344635009765625">
        <ele>361.20001220703125</ele>
        <time>2022-07-27T08:29:56.000Z</time>
      </trkpt>
      <trkpt lat="42.2088042832911014556884765625" lon="2.48466641642153263092041015625">
        <ele>361</ele>
        <time>2022-07-27T08:29:58.000Z</time>
      </trkpt>
      <trkpt lat="42.2088482044637203216552734375" lon="2.48417590744793415069580078125">
        <ele>360.79998779296875</ele>
        <time>2022-07-27T08:30:03.000Z</time>
      </trkpt>
      <trkpt lat="42.20888500101864337921142578125" lon="2.48370853252708911895751953125">
        <ele>361.79998779296875</ele>
        <time>2022-07-27T08:30:09.000Z</time>
      </trkpt>
      <trkpt lat="42.2088911198079586029052734375" lon="2.48364566825330257415771484375">
        <ele>362</ele>
        <time>2022-07-27T08:30:10.000Z</time>
      </trkpt>
      <trkpt lat="42.208954654633998870849609375" lon="2.4834866635501384735107421875">
        <ele>362.20001220703125</ele>
        <time>2022-07-27T08:30:13.000Z</time>
      </trkpt>
      <trkpt lat="42.20903118140995502471923828125" lon="2.4833160080015659332275390625">
        <ele>362.399993896484375</ele>
        <time>2022-07-27T08:30:16.000Z</time>
      </trkpt>
      <trkpt lat="42.2091412357985973358154296875" lon="2.48304418288171291351318359375">
        <ele>362.399993896484375</ele>
        <time>2022-07-27T08:30:20.000Z</time>
      </trkpt>
      <trkpt lat="42.20931029878556728363037109375" lon="2.48258401639759540557861328125">
        <ele>362.399993896484375</ele>
        <time>2022-07-27T08:30:26.000Z</time>
      </trkpt>
      <trkpt lat="42.20956460572779178619384765625" lon="2.48195889405906200408935546875">
        <ele>361.600006103515625</ele>
        <time>2022-07-27T08:30:34.000Z</time>
      </trkpt>
      <trkpt lat="42.2096682898700237274169921875" lon="2.481637112796306610107421875">
        <ele>361.20001220703125</ele>
        <time>2022-07-27T08:30:38.000Z</time>
      </trkpt>
      <trkpt lat="42.2096843831241130828857421875" lon="2.48157734982669353485107421875">
        <ele>361</ele>
        <time>2022-07-27T08:30:39.000Z</time>
      </trkpt>
      <trkpt lat="42.20973442308604717254638671875" lon="2.4813465960323810577392578125">
        <ele>360.79998779296875</ele>
        <time>2022-07-27T08:30:44.000Z</time>
      </trkpt>
      <trkpt lat="42.20974280498921871185302734375" lon="2.48131432570517063140869140625">
        <ele>360.79998779296875</ele>
        <time>2022-07-27T08:30:45.000Z</time>
      </trkpt>
      <trkpt lat="42.209705002605915069580078125" lon="2.481155656278133392333984375">
        <ele>361.20001220703125</ele>
        <time>2022-07-27T08:30:56.000Z</time>
      </trkpt>
      <trkpt lat="42.20967851579189300537109375" lon="2.4811358749866485595703125">
        <ele>361.20001220703125</ele>
        <time>2022-07-27T08:30:57.000Z</time>
      </trkpt>
      <trkpt lat="42.20952906645834445953369140625" lon="2.4811186082661151885986328125">
        <ele>361.20001220703125</ele>
        <time>2022-07-27T08:31:01.000Z</time>
      </trkpt>
      <trkpt lat="42.2091707400977611541748046875" lon="2.48108969070017337799072265625">
        <ele>361.20001220703125</ele>
        <time>2022-07-27T08:31:09.000Z</time>
      </trkpt>
      <trkpt lat="42.20913310535252094268798828125" lon="2.4810720048844814300537109375">
        <ele>361.20001220703125</ele>
        <time>2022-07-27T08:31:10.000Z</time>
      </trkpt>
      <trkpt lat="42.20907661132514476776123046875" lon="2.48093948699533939361572265625">
        <ele>361.20001220703125</ele>
        <time>2022-07-27T08:31:13.000Z</time>
      </trkpt>
      <trkpt lat="42.20908499322831630706787109375" lon="2.48080193996429443359375">
        <ele>361.20001220703125</ele>
        <time>2022-07-27T08:31:15.000Z</time>
      </trkpt>
      <trkpt lat="42.2091067023575305938720703125" lon="2.480570264160633087158203125">
        <ele>361.399993896484375</ele>
        <time>2022-07-27T08:31:18.000Z</time>
      </trkpt>
      <trkpt lat="42.20916177146136760711669921875" lon="2.47993290424346923828125">
        <ele>361</ele>
        <time>2022-07-27T08:31:25.000Z</time>
      </trkpt>
      <trkpt lat="42.20919865183532238006591796875" lon="2.4794439040124416351318359375">
        <ele>360</ele>
        <time>2022-07-27T08:31:30.000Z</time>
      </trkpt>
      <trkpt lat="42.20923000015318393707275390625" lon="2.479028664529323577880859375">
        <ele>359.600006103515625</ele>
        <time>2022-07-27T08:31:34.000Z</time>
      </trkpt>
      <trkpt lat="42.209257073700428009033203125" lon="2.4787046201527118682861328125">
        <ele>359.20001220703125</ele>
        <time>2022-07-27T08:31:37.000Z</time>
      </trkpt>
      <trkpt lat="42.20929705537855625152587890625" lon="2.4781504087150096893310546875">
        <ele>358</ele>
        <time>2022-07-27T08:31:42.000Z</time>
      </trkpt>
      <trkpt lat="42.20930560491979122161865234375" lon="2.47803783975541591644287109375">
        <ele>358</ele>
        <time>2022-07-27T08:31:43.000Z</time>
      </trkpt>
      <trkpt lat="42.20936478115618228912353515625" lon="2.47723870910704135894775390625">
        <ele>357.399993896484375</ele>
        <time>2022-07-27T08:31:50.000Z</time>
      </trkpt>
      <trkpt lat="42.2093908488750457763671875" lon="2.47689588926732540130615234375">
        <ele>357.399993896484375</ele>
        <time>2022-07-27T08:31:53.000Z</time>
      </trkpt>
      <trkpt lat="42.20945463515818119049072265625" lon="2.4760810844600200653076171875">
        <ele>357.399993896484375</ele>
        <time>2022-07-27T08:32:00.000Z</time>
      </trkpt>
      <trkpt lat="42.20947307534515857696533203125" lon="2.47584312222898006439208984375">
        <ele>357.399993896484375</ele>
        <time>2022-07-27T08:32:02.000Z</time>
      </trkpt>
      <trkpt lat="42.2095311619341373443603515625" lon="2.47501163743436336517333984375">
        <ele>357.399993896484375</ele>
        <time>2022-07-27T08:32:09.000Z</time>
      </trkpt>
      <trkpt lat="42.20954901538789272308349609375" lon="2.47477124445140361785888671875">
        <ele>357.399993896484375</ele>
        <time>2022-07-27T08:32:11.000Z</time>
      </trkpt>
      <trkpt lat="42.2096035815775394439697265625" lon="2.47404419817030429840087890625">
        <ele>357.20001220703125</ele>
        <time>2022-07-27T08:32:17.000Z</time>
      </trkpt>
      <trkpt lat="42.209652364253997802734375" lon="2.4733311496675014495849609375">
        <ele>357.20001220703125</ele>
        <time>2022-07-27T08:32:23.000Z</time>
      </trkpt>
      <trkpt lat="42.20971564762294292449951171875" lon="2.4725030176341533660888671875">
        <ele>357</ele>
        <time>2022-07-27T08:32:30.000Z</time>
      </trkpt>
      <trkpt lat="42.20972587354481220245361328125" lon="2.472384832799434661865234375">
        <ele>357</ele>
        <time>2022-07-27T08:32:31.000Z</time>
      </trkpt>
      <trkpt lat="42.2097604908049106597900390625" lon="2.47191217727959156036376953125">
        <ele>357</ele>
        <time>2022-07-27T08:32:35.000Z</time>
      </trkpt>
      <trkpt lat="42.20979041419923305511474609375" lon="2.47146056033670902252197265625">
        <ele>357</ele>
        <time>2022-07-27T08:32:39.000Z</time>
      </trkpt>
      <trkpt lat="42.20980592072010040283203125" lon="2.471354193985462188720703125">
        <ele>357</ele>
        <time>2022-07-27T08:32:40.000Z</time>
      </trkpt>
      <trkpt lat="42.209892757236957550048828125" lon="2.471058480441570281982421875">
        <ele>356.79998779296875</ele>
        <time>2022-07-27T08:32:43.000Z</time>
      </trkpt>
      <trkpt lat="42.20988965593278408050537109375" lon="2.47074508108198642730712890625">
        <ele>356.79998779296875</ele>
        <time>2022-07-27T08:32:46.000Z</time>
      </trkpt>
      <trkpt lat="42.20987088046967983245849609375" lon="2.470642067492008209228515625">
        <ele>356.600006103515625</ele>
        <time>2022-07-27T08:32:47.000Z</time>
      </trkpt>
      <trkpt lat="42.2098624147474765777587890625" lon="2.47053788043558597564697265625">
        <ele>356.600006103515625</ele>
        <time>2022-07-27T08:32:48.000Z</time>
      </trkpt>
      <trkpt lat="42.20987104810774326324462890625" lon="2.47032850049436092376708984375">
        <ele>356.399993896484375</ele>
        <time>2022-07-27T08:32:50.000Z</time>
      </trkpt>
      <trkpt lat="42.20992536284029483795166015625" lon="2.46957488358020782470703125">
        <ele>356.20001220703125</ele>
        <time>2022-07-27T08:32:57.000Z</time>
      </trkpt>
      <trkpt lat="42.20993994735181331634521484375" lon="2.4693564511835575103759765625">
        <ele>356.20001220703125</ele>
        <time>2022-07-27T08:32:59.000Z</time>
      </trkpt>
      <trkpt lat="42.2099988721311092376708984375" lon="2.46859294362366199493408203125">
        <ele>356.399993896484375</ele>
        <time>2022-07-27T08:33:06.000Z</time>
      </trkpt>
      <trkpt lat="42.2100243531167507171630859375" lon="2.4682664684951305389404296875">
        <ele>356.399993896484375</ele>
        <time>2022-07-27T08:33:09.000Z</time>
      </trkpt>
      <trkpt lat="42.210075818002223968505859375" lon="2.46753095649182796478271484375">
        <ele>357</ele>
        <time>2022-07-27T08:33:16.000Z</time>
      </trkpt>
      <trkpt lat="42.2100850380957126617431640625" lon="2.46742836199700832366943359375">
        <ele>357.20001220703125</ele>
        <time>2022-07-27T08:33:17.000Z</time>
      </trkpt>
      <trkpt lat="42.2101390175521373748779296875" lon="2.46670299209654331207275390625">
        <ele>358</ele>
        <time>2022-07-27T08:33:24.000Z</time>
      </trkpt>
      <trkpt lat="42.21016894094645977020263671875" lon="2.46627802960574626922607421875">
        <ele>358.399993896484375</ele>
        <time>2022-07-27T08:33:28.000Z</time>
      </trkpt>
      <trkpt lat="42.21022023819386959075927734375" lon="2.46551779098808765411376953125">
        <ele>358.600006103515625</ele>
        <time>2022-07-27T08:33:35.000Z</time>
      </trkpt>
      <trkpt lat="42.21026751212775707244873046875" lon="2.4648593924939632415771484375">
        <ele>358.600006103515625</ele>
        <time>2022-07-27T08:33:41.000Z</time>
      </trkpt>
      <trkpt lat="42.2103254310786724090576171875" lon="2.46409554965794086456298828125">
        <ele>358.600006103515625</ele>
        <time>2022-07-27T08:33:48.000Z</time>
      </trkpt>
      <trkpt lat="42.21035669557750225067138671875" lon="2.46367209590971469879150390625">
        <ele>358.600006103515625</ele>
        <time>2022-07-27T08:33:52.000Z</time>
      </trkpt>
      <trkpt lat="42.21040807664394378662109375" lon="2.46296726167201995849609375">
        <ele>359.399993896484375</ele>
        <time>2022-07-27T08:33:59.000Z</time>
      </trkpt>
      <trkpt lat="42.21042240969836711883544921875" lon="2.462765760719776153564453125">
        <ele>359.600006103515625</ele>
        <time>2022-07-27T08:34:01.000Z</time>
      </trkpt>
      <trkpt lat="42.21047353930771350860595703125" lon="2.4620465934276580810546875">
        <ele>360.600006103515625</ele>
        <time>2022-07-27T08:34:08.000Z</time>
      </trkpt>
      <trkpt lat="42.21050187014043331146240234375" lon="2.4616236425936222076416015625">
        <ele>360.600006103515625</ele>
        <time>2022-07-27T08:34:12.000Z</time>
      </trkpt>
      <trkpt lat="42.21055828034877777099609375" lon="2.46086516417562961578369140625">
        <ele>360.600006103515625</ele>
        <time>2022-07-27T08:34:19.000Z</time>
      </trkpt>
      <trkpt lat="42.210599519312381744384765625" lon="2.460299469530582427978515625">
        <ele>360.399993896484375</ele>
        <time>2022-07-27T08:34:24.000Z</time>
      </trkpt>
      <trkpt lat="42.2106488049030303955078125" lon="2.4595979042351245880126953125">
        <ele>359.600006103515625</ele>
        <time>2022-07-27T08:34:30.000Z</time>
      </trkpt>
      <trkpt lat="42.21067621372640132904052734375" lon="2.4592254124581813812255859375">
        <ele>359.399993896484375</ele>
        <time>2022-07-27T08:34:33.000Z</time>
      </trkpt>
      <trkpt lat="42.2107223980128765106201171875" lon="2.4585890583693981170654296875">
        <ele>358.399993896484375</ele>
        <time>2022-07-27T08:34:38.000Z</time>
      </trkpt>
      <trkpt lat="42.2107505612075328826904296875" lon="2.4582152254879474639892578125">
        <ele>357.20001220703125</ele>
        <time>2022-07-27T08:34:41.000Z</time>
      </trkpt>
      <trkpt lat="42.2107850946485996246337890625" lon="2.45772547088563442230224609375">
        <ele>356.600006103515625</ele>
        <time>2022-07-27T08:34:45.000Z</time>
      </trkpt>
      <trkpt lat="42.2108484618365764617919921875" lon="2.4568999372422695159912109375">
        <ele>356.600006103515625</ele>
        <time>2022-07-27T08:34:52.000Z</time>
      </trkpt>
      <trkpt lat="42.21086480654776096343994140625" lon="2.45668007992208003997802734375">
        <ele>356.600006103515625</ele>
        <time>2022-07-27T08:34:54.000Z</time>
      </trkpt>
      <trkpt lat="42.2109170258045196533203125" lon="2.455976419150829315185546875">
        <ele>358.600006103515625</ele>
        <time>2022-07-27T08:35:01.000Z</time>
      </trkpt>
      <trkpt lat="42.2109252400696277618408203125" lon="2.45588111691176891326904296875">
        <ele>358.79998779296875</ele>
        <time>2022-07-27T08:35:02.000Z</time>
      </trkpt>
      <trkpt lat="42.21095147542655467987060546875" lon="2.4555051885545253753662109375">
        <ele>359.79998779296875</ele>
        <time>2022-07-27T08:35:06.000Z</time>
      </trkpt>
      <trkpt lat="42.2109760344028472900390625" lon="2.45514434762299060821533203125">
        <ele>360.600006103515625</ele>
        <time>2022-07-27T08:35:10.000Z</time>
      </trkpt>
      <trkpt lat="42.21098232083022594451904296875" lon="2.45505767874419689178466796875">
        <ele>361</ele>
        <time>2022-07-27T08:35:11.000Z</time>
      </trkpt>
      <trkpt lat="42.21101718954741954803466796875" lon="2.45457488112151622772216796875">
        <ele>362</ele>
        <time>2022-07-27T08:35:17.000Z</time>
      </trkpt>
      <trkpt lat="42.211023978888988494873046875" lon="2.4545000307261943817138671875">
        <ele>362.20001220703125</ele>
        <time>2022-07-27T08:35:18.000Z</time>
      </trkpt>
      <trkpt lat="42.21104736439883708953857421875" lon="2.45419987477362155914306640625">
        <ele>363</ele>
        <time>2022-07-27T08:35:22.000Z</time>
      </trkpt>
      <trkpt lat="42.211063206195831298828125" lon="2.4539811909198760986328125">
        <ele>364</ele>
        <time>2022-07-27T08:35:25.000Z</time>
      </trkpt>
      <trkpt lat="42.2110764496028423309326171875" lon="2.453838698565959930419921875">
        <ele>364.600006103515625</ele>
        <time>2022-07-27T08:35:27.000Z</time>
      </trkpt>
      <trkpt lat="42.21111089922487735748291015625" lon="2.4536289833486080169677734375">
        <ele>365.20001220703125</ele>
        <time>2022-07-27T08:35:30.000Z</time>
      </trkpt>
      <trkpt lat="42.2111391462385654449462890625" lon="2.45341147296130657196044921875">
        <ele>365.79998779296875</ele>
        <time>2022-07-27T08:35:33.000Z</time>
      </trkpt>
      <trkpt lat="42.2111637890338897705078125" lon="2.45326881296932697296142578125">
        <ele>366.399993896484375</ele>
        <time>2022-07-27T08:35:35.000Z</time>
      </trkpt>
      <trkpt lat="42.21127702854573726654052734375" lon="2.452692054212093353271484375">
        <ele>367.399993896484375</ele>
        <time>2022-07-27T08:35:43.000Z</time>
      </trkpt>
      <trkpt lat="42.2112925350666046142578125" lon="2.45261753909289836883544921875">
        <ele>367.399993896484375</ele>
        <time>2022-07-27T08:35:44.000Z</time>
      </trkpt>
      <trkpt lat="42.21140175126492977142333984375" lon="2.45203482918441295623779296875">
        <ele>367.79998779296875</ele>
        <time>2022-07-27T08:35:52.000Z</time>
      </trkpt>
      <trkpt lat="42.21151457168161869049072265625" lon="2.451513893902301788330078125">
        <ele>368.600006103515625</ele>
        <time>2022-07-27T08:35:59.000Z</time>
      </trkpt>
      <trkpt lat="42.2115796990692615509033203125" lon="2.45120133273303508758544921875">
        <ele>369.600006103515625</ele>
        <time>2022-07-27T08:36:03.000Z</time>
      </trkpt>
      <trkpt lat="42.211658991873264312744140625" lon="2.45079849846661090850830078125">
        <ele>370</ele>
        <time>2022-07-27T08:36:08.000Z</time>
      </trkpt>
      <trkpt lat="42.2117900848388671875" lon="2.450225092470645904541015625">
        <ele>370.399993896484375</ele>
        <time>2022-07-27T08:36:15.000Z</time>
      </trkpt>
      <trkpt lat="42.21184398047626018524169921875" lon="2.449980340898036956787109375">
        <ele>370.600006103515625</ele>
        <time>2022-07-27T08:36:18.000Z</time>
      </trkpt>
      <trkpt lat="42.21195579506456851959228515625" lon="2.44947482831776142120361328125">
        <ele>370.79998779296875</ele>
        <time>2022-07-27T08:36:24.000Z</time>
      </trkpt>
      <trkpt lat="42.21211287193000316619873046875" lon="2.44872867129743099212646484375">
        <ele>371.20001220703125</ele>
        <time>2022-07-27T08:36:33.000Z</time>
      </trkpt>
      <trkpt lat="42.21213097684085369110107421875" lon="2.448645941913127899169921875">
        <ele>371.20001220703125</ele>
        <time>2022-07-27T08:36:34.000Z</time>
      </trkpt>
      <trkpt lat="42.2122214175760746002197265625" lon="2.4482407607138156890869140625">
        <ele>371.600006103515625</ele>
        <time>2022-07-27T08:36:39.000Z</time>
      </trkpt>
      <trkpt lat="42.21231202594935894012451171875" lon="2.4478484876453876495361328125">
        <ele>372</ele>
        <time>2022-07-27T08:36:44.000Z</time>
      </trkpt>
      <trkpt lat="42.2124614752829074859619140625" lon="2.4473928473889827728271484375">
        <ele>372.600006103515625</ele>
        <time>2022-07-27T08:36:50.000Z</time>
      </trkpt>
      <trkpt lat="42.21249508671462535858154296875" lon="2.447319589555263519287109375">
        <ele>372.79998779296875</ele>
        <time>2022-07-27T08:36:51.000Z</time>
      </trkpt>
      <trkpt lat="42.21282717771828174591064453125" lon="2.44677610695362091064453125">
        <ele>373</ele>
        <time>2022-07-27T08:36:59.000Z</time>
      </trkpt>
      <trkpt lat="42.21318542025983333587646484375" lon="2.44622449390590190887451171875">
        <ele>372.79998779296875</ele>
        <time>2022-07-27T08:37:07.000Z</time>
      </trkpt>
      <trkpt lat="42.2132746875286102294921875" lon="2.44608200155198574066162109375">
        <ele>372.79998779296875</ele>
        <time>2022-07-27T08:37:09.000Z</time>
      </trkpt>
      <trkpt lat="42.21357651986181735992431640625" lon="2.44547314010560512542724609375">
        <ele>373</ele>
        <time>2022-07-27T08:37:17.000Z</time>
      </trkpt>
      <trkpt lat="42.2137201018631458282470703125" lon="2.44483997114002704620361328125">
        <ele>373</ele>
        <time>2022-07-27T08:37:24.000Z</time>
      </trkpt>
      <trkpt lat="42.2138391248881816864013671875" lon="2.44437678717076778411865234375">
        <ele>373</ele>
        <time>2022-07-27T08:37:29.000Z</time>
      </trkpt>
      <trkpt lat="42.213877849280834197998046875" lon="2.4442912079393863677978515625">
        <ele>373</ele>
        <time>2022-07-27T08:37:30.000Z</time>
      </trkpt>
      <trkpt lat="42.21423919312655925750732421875" lon="2.44365803897380828857421875">
        <ele>373</ele>
        <time>2022-07-27T08:37:38.000Z</time>
      </trkpt>
      <trkpt lat="42.21463657915592193603515625" lon="2.44305881671607494354248046875">
        <ele>372.600006103515625</ele>
        <time>2022-07-27T08:37:46.000Z</time>
      </trkpt>
      <trkpt lat="42.214992307126522064208984375" lon="2.44268565438687801361083984375">
        <ele>372.600006103515625</ele>
        <time>2022-07-27T08:37:52.000Z</time>
      </trkpt>
      <trkpt lat="42.21539639867842197418212890625" lon="2.44242715649306774139404296875">
        <ele>372.399993896484375</ele>
        <time>2022-07-27T08:37:58.000Z</time>
      </trkpt>
      <trkpt lat="42.2158361971378326416015625" lon="2.4422902800142765045166015625">
        <ele>372.600006103515625</ele>
        <time>2022-07-27T08:38:04.000Z</time>
      </trkpt>
      <trkpt lat="42.2162105329334735870361328125" lon="2.4422778747975826263427734375">
        <ele>372.600006103515625</ele>
        <time>2022-07-27T08:38:09.000Z</time>
      </trkpt>
      <trkpt lat="42.21672912128269672393798828125" lon="2.44236228056252002716064453125">
        <ele>372.399993896484375</ele>
        <time>2022-07-27T08:38:16.000Z</time>
      </trkpt>
      <trkpt lat="42.21731920726597309112548828125" lon="2.44248029775917530059814453125">
        <ele>372.399993896484375</ele>
        <time>2022-07-27T08:38:24.000Z</time>
      </trkpt>
      <trkpt lat="42.21747008152306079864501953125" lon="2.44250142015516757965087890625">
        <ele>372.600006103515625</ele>
        <time>2022-07-27T08:38:26.000Z</time>
      </trkpt>
      <trkpt lat="42.2179187647998332977294921875" lon="2.44246847927570343017578125">
        <ele>373</ele>
        <time>2022-07-27T08:38:32.000Z</time>
      </trkpt>
      <trkpt lat="42.21833794377744197845458984375" lon="2.44227712042629718780517578125">
        <ele>373</ele>
        <time>2022-07-27T08:38:38.000Z</time>
      </trkpt>
      <trkpt lat="42.21886130981147289276123046875" lon="2.441929019987583160400390625">
        <ele>372.79998779296875</ele>
        <time>2022-07-27T08:38:46.000Z</time>
      </trkpt>
      <trkpt lat="42.21892484463751316070556640625" lon="2.441884092986583709716796875">
        <ele>372.79998779296875</ele>
        <time>2022-07-27T08:38:47.000Z</time>
      </trkpt>
      <trkpt lat="42.21942641772329807281494140625" lon="2.4415087513625621795654296875">
        <ele>373.20001220703125</ele>
        <time>2022-07-27T08:38:55.000Z</time>
      </trkpt>
      <trkpt lat="42.21978197805583477020263671875" lon="2.44117355905473232269287109375">
        <ele>374</ele>
        <time>2022-07-27T08:39:01.000Z</time>
      </trkpt>
      <trkpt lat="42.2199535556137561798095703125" lon="2.4409941025078296661376953125">
        <ele>374.20001220703125</ele>
        <time>2022-07-27T08:39:04.000Z</time>
      </trkpt>
      <trkpt lat="42.22044481895864009857177734375" lon="2.44056486524641513824462890625">
        <ele>374.20001220703125</ele>
        <time>2022-07-27T08:39:12.000Z</time>
      </trkpt>
      <trkpt lat="42.2208564542233943939208984375" lon="2.44039638899266719818115234375">
        <ele>374</ele>
        <time>2022-07-27T08:39:18.000Z</time>
      </trkpt>
      <trkpt lat="42.22142793238162994384765625" lon="2.44017996825277805328369140625">
        <ele>374.20001220703125</ele>
        <time>2022-07-27T08:39:26.000Z</time>
      </trkpt>
      <trkpt lat="42.22149431705474853515625" lon="2.44015331380069255828857421875">
        <ele>374.20001220703125</ele>
        <time>2022-07-27T08:39:27.000Z</time>
      </trkpt>
      <trkpt lat="42.221774272620677947998046875" lon="2.440007217228412628173828125">
        <ele>374.399993896484375</ele>
        <time>2022-07-27T08:39:32.000Z</time>
      </trkpt>
      <trkpt lat="42.2218215465545654296875" lon="2.4399773776531219482421875">
        <ele>374.600006103515625</ele>
        <time>2022-07-27T08:39:33.000Z</time>
      </trkpt>
      <trkpt lat="42.221866808831691741943359375" lon="2.43994778953492641448974609375">
        <ele>375</ele>
        <time>2022-07-27T08:39:34.000Z</time>
      </trkpt>
      <trkpt lat="42.22199857234954833984375" lon="2.43985894136130809783935546875">
        <ele>376.399993896484375</ele>
        <time>2022-07-27T08:39:37.000Z</time>
      </trkpt>
      <trkpt lat="42.22212798893451690673828125" lon="2.4397730268537998199462890625">
        <ele>377.79998779296875</ele>
        <time>2022-07-27T08:39:40.000Z</time>
      </trkpt>
      <trkpt lat="42.22221314907073974609375" lon="2.43972365744411945343017578125">
        <ele>378.600006103515625</ele>
        <time>2022-07-27T08:39:42.000Z</time>
      </trkpt>
      <trkpt lat="42.2222538851201534271240234375" lon="2.439697086811065673828125">
        <ele>379.20001220703125</ele>
        <time>2022-07-27T08:39:43.000Z</time>
      </trkpt>
      <trkpt lat="42.2224030829966068267822265625" lon="2.439577393233776092529296875">
        <ele>380.20001220703125</ele>
        <time>2022-07-27T08:39:47.000Z</time>
      </trkpt>
      <trkpt lat="42.2224724851548671722412109375" lon="2.43951377458870410919189453125">
        <ele>381</ele>
        <time>2022-07-27T08:39:49.000Z</time>
      </trkpt>
      <trkpt lat="42.2225100360810756683349609375" lon="2.43947907350957393646240234375">
        <ele>381.399993896484375</ele>
        <time>2022-07-27T08:39:50.000Z</time>
      </trkpt>
      <trkpt lat="42.222646661102771759033203125" lon="2.43933540768921375274658203125">
        <ele>382.600006103515625</ele>
        <time>2022-07-27T08:39:54.000Z</time>
      </trkpt>
      <trkpt lat="42.22275135107338428497314453125" lon="2.43923029862344264984130859375">
        <ele>383.20001220703125</ele>
        <time>2022-07-27T08:39:57.000Z</time>
      </trkpt>
      <trkpt lat="42.2228188253939151763916015625" lon="2.43916123174130916595458984375">
        <ele>383.600006103515625</ele>
        <time>2022-07-27T08:39:59.000Z</time>
      </trkpt>
      <trkpt lat="42.22294715233147144317626953125" lon="2.43902779184281826019287109375">
        <ele>385</ele>
        <time>2022-07-27T08:40:03.000Z</time>
      </trkpt>
      <trkpt lat="42.22303935326635837554931640625" lon="2.43892787955701351165771484375">
        <ele>385.600006103515625</ele>
        <time>2022-07-27T08:40:06.000Z</time>
      </trkpt>
      <trkpt lat="42.2230701148509979248046875" lon="2.43889577686786651611328125">
        <ele>386</ele>
        <time>2022-07-27T08:40:07.000Z</time>
      </trkpt>
      <trkpt lat="42.22315954975783824920654296875" lon="2.4388070963323116302490234375">
        <ele>387</ele>
        <time>2022-07-27T08:40:10.000Z</time>
      </trkpt>
      <trkpt lat="42.22329609096050262451171875" lon="2.4386589042842388153076171875">
        <ele>388</ele>
        <time>2022-07-27T08:40:15.000Z</time>
      </trkpt>
      <trkpt lat="42.223428525030612945556640625" lon="2.43851884268224239349365234375">
        <ele>389.20001220703125</ele>
        <time>2022-07-27T08:40:20.000Z</time>
      </trkpt>
      <trkpt lat="42.2234563529491424560546875" lon="2.4384905956685543060302734375">
        <ele>389.399993896484375</ele>
        <time>2022-07-27T08:40:21.000Z</time>
      </trkpt>
      <trkpt lat="42.223564647138118743896484375" lon="2.43837199173867702484130859375">
        <ele>390.399993896484375</ele>
        <time>2022-07-27T08:40:25.000Z</time>
      </trkpt>
      <trkpt lat="42.22369984723627567291259765625" lon="2.4382285773754119873046875">
        <ele>391.600006103515625</ele>
        <time>2022-07-27T08:40:30.000Z</time>
      </trkpt>
      <trkpt lat="42.22383345477283000946044921875" lon="2.43808097206056118011474609375">
        <ele>392.600006103515625</ele>
        <time>2022-07-27T08:40:35.000Z</time>
      </trkpt>
      <trkpt lat="42.2238613665103912353515625" lon="2.43805297650396823883056640625">
        <ele>392.79998779296875</ele>
        <time>2022-07-27T08:40:36.000Z</time>
      </trkpt>
      <trkpt lat="42.22399589605629444122314453125" lon="2.43791802786290645599365234375">
        <ele>393.79998779296875</ele>
        <time>2022-07-27T08:40:41.000Z</time>
      </trkpt>
      <trkpt lat="42.22408239729702472686767578125" lon="2.43784024380147457122802734375">
        <ele>394.600006103515625</ele>
        <time>2022-07-27T08:40:44.000Z</time>
      </trkpt>
      <trkpt lat="42.224111817777156829833984375" lon="2.43781358934938907623291015625">
        <ele>394.79998779296875</ele>
        <time>2022-07-27T08:40:45.000Z</time>
      </trkpt>
      <trkpt lat="42.22426076419651508331298828125" lon="2.43770227767527103424072265625">
        <ele>396</ele>
        <time>2022-07-27T08:40:50.000Z</time>
      </trkpt>
      <trkpt lat="42.22434877417981624603271484375" lon="2.43764276616275310516357421875">
        <ele>396.600006103515625</ele>
        <time>2022-07-27T08:40:53.000Z</time>
      </trkpt>
      <trkpt lat="42.2244412265717983245849609375" lon="2.43759314529597759246826171875">
        <ele>397</ele>
        <time>2022-07-27T08:40:56.000Z</time>
      </trkpt>
      <trkpt lat="42.224600650370121002197265625" lon="2.43752843700349330902099609375">
        <ele>398</ele>
        <time>2022-07-27T08:41:01.000Z</time>
      </trkpt>
      <trkpt lat="42.22463342361152172088623046875" lon="2.437515445053577423095703125">
        <ele>398.20001220703125</ele>
        <time>2022-07-27T08:41:02.000Z</time>
      </trkpt>
      <trkpt lat="42.22480072639882564544677734375" lon="2.43745635263621807098388671875">
        <ele>399.20001220703125</ele>
        <time>2022-07-27T08:41:07.000Z</time>
      </trkpt>
      <trkpt lat="42.2249723039567470550537109375" lon="2.437400110065937042236328125">
        <ele>400</ele>
        <time>2022-07-27T08:41:12.000Z</time>
      </trkpt>
      <trkpt lat="42.225007005035877227783203125" lon="2.437388710677623748779296875">
        <ele>400.20001220703125</ele>
        <time>2022-07-27T08:41:13.000Z</time>
      </trkpt>
      <trkpt lat="42.2250420413911342620849609375" lon="2.4373791553080081939697265625">
        <ele>400.399993896484375</ele>
        <time>2022-07-27T08:41:14.000Z</time>
      </trkpt>
      <trkpt lat="42.225247733294963836669921875" lon="2.43731570430099964141845703125">
        <ele>401</ele>
        <time>2022-07-27T08:41:20.000Z</time>
      </trkpt>
      <trkpt lat="42.22535066306591033935546875" lon="2.43728435598313808441162109375">
        <ele>401.600006103515625</ele>
        <time>2022-07-27T08:41:23.000Z</time>
      </trkpt>
      <trkpt lat="42.22562902607023715972900390625" lon="2.43719936348497867584228515625">
        <ele>402.600006103515625</ele>
        <time>2022-07-27T08:41:31.000Z</time>
      </trkpt>
      <trkpt lat="42.2257008589804172515869140625" lon="2.4371766485273838043212890625">
        <ele>403</ele>
        <time>2022-07-27T08:41:33.000Z</time>
      </trkpt>
      <trkpt lat="42.22584812901914119720458984375" lon="2.43713331408798694610595703125">
        <ele>403.79998779296875</ele>
        <time>2022-07-27T08:41:37.000Z</time>
      </trkpt>
      <trkpt lat="42.22604929469525814056396484375" lon="2.4370723776519298553466796875">
        <ele>404.399993896484375</ele>
        <time>2022-07-27T08:41:42.000Z</time>
      </trkpt>
      <trkpt lat="42.2262580879032611846923828125" lon="2.4370054900646209716796875">
        <ele>405</ele>
        <time>2022-07-27T08:41:47.000Z</time>
      </trkpt>
      <trkpt lat="42.22652010619640350341796875" lon="2.43692703545093536376953125">
        <ele>405.600006103515625</ele>
        <time>2022-07-27T08:41:53.000Z</time>
      </trkpt>
      <trkpt lat="42.226783297955989837646484375" lon="2.43684791028499603271484375">
        <ele>406</ele>
        <time>2022-07-27T08:41:59.000Z</time>
      </trkpt>
      <trkpt lat="42.2270533628761768341064453125" lon="2.4367655999958515167236328125">
        <ele>406.20001220703125</ele>
        <time>2022-07-27T08:42:05.000Z</time>
      </trkpt>
      <trkpt lat="42.22755049355328083038330078125" lon="2.4366110377013683319091796875">
        <ele>406.79998779296875</ele>
        <time>2022-07-27T08:42:16.000Z</time>
      </trkpt>
      <trkpt lat="42.2275965102016925811767578125" lon="2.4365972913801670074462890625">
        <ele>407</ele>
        <time>2022-07-27T08:42:17.000Z</time>
      </trkpt>
      <trkpt lat="42.22808911465108394622802734375" lon="2.436452619731426239013671875">
        <ele>408.20001220703125</ele>
        <time>2022-07-27T08:42:28.000Z</time>
      </trkpt>
      <trkpt lat="42.228132449090480804443359375" lon="2.4364387057721614837646484375">
        <ele>408.399993896484375</ele>
        <time>2022-07-27T08:42:29.000Z</time>
      </trkpt>
      <trkpt lat="42.22851474769413471221923828125" lon="2.4363203532993793487548828125">
        <ele>409.600006103515625</ele>
        <time>2022-07-27T08:42:38.000Z</time>
      </trkpt>
      <trkpt lat="42.2288011573255062103271484375" lon="2.43623041547834873199462890625">
        <ele>410.79998779296875</ele>
        <time>2022-07-27T08:42:45.000Z</time>
      </trkpt>
      <trkpt lat="42.22900542430579662322998046875" lon="2.4361728318035602569580078125">
        <ele>411.399993896484375</ele>
        <time>2022-07-27T08:42:50.000Z</time>
      </trkpt>
      <trkpt lat="42.229132913053035736083984375" lon="2.4361530505120754241943359375">
        <ele>412</ele>
        <time>2022-07-27T08:42:53.000Z</time>
      </trkpt>
      <trkpt lat="42.2293459810316562652587890625" lon="2.4361637793481349945068359375">
        <ele>413</ele>
        <time>2022-07-27T08:42:58.000Z</time>
      </trkpt>
      <trkpt lat="42.2293868847191333770751953125" lon="2.4361740052700042724609375">
        <ele>413</ele>
        <time>2022-07-27T08:42:59.000Z</time>
      </trkpt>
      <trkpt lat="42.2296644933521747589111328125" lon="2.43628540076315402984619140625">
        <ele>413.600006103515625</ele>
        <time>2022-07-27T08:43:06.000Z</time>
      </trkpt>
      <trkpt lat="42.22986088134348392486572265625" lon="2.4363589100539684295654296875">
        <ele>414</ele>
        <time>2022-07-27T08:43:11.000Z</time>
      </trkpt>
      <trkpt lat="42.22994319163262844085693359375" lon="2.436384223401546478271484375">
        <ele>414.399993896484375</ele>
        <time>2022-07-27T08:43:13.000Z</time>
      </trkpt>
      <trkpt lat="42.230109907686710357666015625" lon="2.43640358559787273406982421875">
        <ele>415.20001220703125</ele>
        <time>2022-07-27T08:43:17.000Z</time>
      </trkpt>
      <trkpt lat="42.23019230179488658905029296875" lon="2.436397634446620941162109375">
        <ele>415.79998779296875</ele>
        <time>2022-07-27T08:43:19.000Z</time>
      </trkpt>
      <trkpt lat="42.2302329540252685546875" lon="2.43638657033443450927734375">
        <ele>416</ele>
        <time>2022-07-27T08:43:20.000Z</time>
      </trkpt>
      <trkpt lat="42.230349294841289520263671875" lon="2.43633049540221691131591796875">
        <ele>416.20001220703125</ele>
        <time>2022-07-27T08:43:23.000Z</time>
      </trkpt>
      <trkpt lat="42.23046890459954738616943359375" lon="2.43625153787434101104736328125">
        <ele>416.79998779296875</ele>
        <time>2022-07-27T08:43:26.000Z</time>
      </trkpt>
      <trkpt lat="42.230618856847286224365234375" lon="2.4360846541821956634521484375">
        <ele>417.20001220703125</ele>
        <time>2022-07-27T08:43:30.000Z</time>
      </trkpt>
      <trkpt lat="42.23068968392908573150634765625" lon="2.43598692119121551513671875">
        <ele>417.20001220703125</ele>
        <time>2022-07-27T08:43:32.000Z</time>
      </trkpt>
      <trkpt lat="42.230986990034580230712890625" lon="2.43557226844131946563720703125">
        <ele>418</ele>
        <time>2022-07-27T08:43:40.000Z</time>
      </trkpt>
      <trkpt lat="42.23113107495009899139404296875" lon="2.43536020629107952117919921875">
        <ele>418.20001220703125</ele>
        <time>2022-07-27T08:43:44.000Z</time>
      </trkpt>
      <trkpt lat="42.23120869137346744537353515625" lon="2.4352595396339893341064453125">
        <ele>418.20001220703125</ele>
        <time>2022-07-27T08:43:46.000Z</time>
      </trkpt>
      <trkpt lat="42.2314977832138538360595703125" lon="2.43486106395721435546875">
        <ele>418</ele>
        <time>2022-07-27T08:43:53.000Z</time>
      </trkpt>
      <trkpt lat="42.23174395971000194549560546875" lon="2.43448496796190738677978515625">
        <ele>418</ele>
        <time>2022-07-27T08:43:59.000Z</time>
      </trkpt>
      <trkpt lat="42.231943197548389434814453125" lon="2.4340381287038326263427734375">
        <ele>417.79998779296875</ele>
        <time>2022-07-27T08:44:05.000Z</time>
      </trkpt>
      <trkpt lat="42.23210580646991729736328125" lon="2.43347226642072200775146484375">
        <ele>417.399993896484375</ele>
        <time>2022-07-27T08:44:12.000Z</time>
      </trkpt>
      <trkpt lat="42.2322883643209934234619140625" lon="2.43269626982510089874267578125">
        <ele>417</ele>
        <time>2022-07-27T08:44:21.000Z</time>
      </trkpt>
      <trkpt lat="42.23242842592298984527587890625" lon="2.43217558600008487701416015625">
        <ele>417</ele>
        <time>2022-07-27T08:44:27.000Z</time>
      </trkpt>
      <trkpt lat="42.23263327963650226593017578125" lon="2.43178331293165683746337890625">
        <ele>416.79998779296875</ele>
        <time>2022-07-27T08:44:32.000Z</time>
      </trkpt>
      <trkpt lat="42.233027480542659759521484375" lon="2.43134175427258014678955078125">
        <ele>416.79998779296875</ele>
        <time>2022-07-27T08:44:39.000Z</time>
      </trkpt>
      <trkpt lat="42.23352067172527313232421875" lon="2.43087756447494029998779296875">
        <ele>417</ele>
        <time>2022-07-27T08:44:47.000Z</time>
      </trkpt>
      <trkpt lat="42.23358445800840854644775390625" lon="2.4308203160762786865234375">
        <ele>417</ele>
        <time>2022-07-27T08:44:48.000Z</time>
      </trkpt>
      <trkpt lat="42.2338473983108997344970703125" lon="2.4305861257016658782958984375">
        <ele>417</ele>
        <time>2022-07-27T08:44:52.000Z</time>
      </trkpt>
      <trkpt lat="42.2339929081499576568603515625" lon="2.4304966069757938385009765625">
        <ele>417</ele>
        <time>2022-07-27T08:44:54.000Z</time>
      </trkpt>
      <trkpt lat="42.23431100137531757354736328125" lon="2.4304563738405704498291015625">
        <ele>417</ele>
        <time>2022-07-27T08:44:58.000Z</time>
      </trkpt>
      <trkpt lat="42.23446623422205448150634765625" lon="2.4304957687854766845703125">
        <ele>417</ele>
        <time>2022-07-27T08:45:00.000Z</time>
      </trkpt>
      <trkpt lat="42.2346948087215423583984375" lon="2.43056994862854480743408203125">
        <ele>416.79998779296875</ele>
        <time>2022-07-27T08:45:03.000Z</time>
      </trkpt>
      <trkpt lat="42.2350838966667652130126953125" lon="2.43062661029398441314697265625">
        <ele>416.79998779296875</ele>
        <time>2022-07-27T08:45:08.000Z</time>
      </trkpt>
      <trkpt lat="42.2351588308811187744140625" lon="2.430611439049243927001953125">
        <ele>416.79998779296875</ele>
        <time>2022-07-27T08:45:09.000Z</time>
      </trkpt>
      <trkpt lat="42.23537231795489788055419921875" lon="2.43052552454173564910888671875">
        <ele>416.79998779296875</ele>
        <time>2022-07-27T08:45:12.000Z</time>
      </trkpt>
      <trkpt lat="42.23577263765037059783935546875" lon="2.430217154324054718017578125">
        <ele>416.79998779296875</ele>
        <time>2022-07-27T08:45:18.000Z</time>
      </trkpt>
      <trkpt lat="42.236242108047008514404296875" lon="2.42982144467532634735107421875">
        <ele>416.79998779296875</ele>
        <time>2022-07-27T08:45:25.000Z</time>
      </trkpt>
      <trkpt lat="42.23671392537653446197509765625" lon="2.42942045442759990692138671875">
        <ele>417</ele>
        <time>2022-07-27T08:45:32.000Z</time>
      </trkpt>
      <trkpt lat="42.23714525811374187469482421875" lon="2.42906975559890270233154296875">
        <ele>417.20001220703125</ele>
        <time>2022-07-27T08:45:39.000Z</time>
      </trkpt>
      <trkpt lat="42.2375069372355937957763671875" lon="2.42876884527504444122314453125">
        <ele>418.20001220703125</ele>
        <time>2022-07-27T08:45:46.000Z</time>
      </trkpt>
      <trkpt lat="42.23755379207432270050048828125" lon="2.428732551634311676025390625">
        <ele>418.399993896484375</ele>
        <time>2022-07-27T08:45:47.000Z</time>
      </trkpt>
      <trkpt lat="42.237689159810543060302734375" lon="2.42862266488373279571533203125">
        <ele>419.79998779296875</ele>
        <time>2022-07-27T08:45:50.000Z</time>
      </trkpt>
      <trkpt lat="42.237812541425228118896484375" lon="2.4285114370286464691162109375">
        <ele>420.79998779296875</ele>
        <time>2022-07-27T08:45:53.000Z</time>
      </trkpt>
      <trkpt lat="42.23792460747063159942626953125" lon="2.4284014664590358734130859375">
        <ele>421.600006103515625</ele>
        <time>2022-07-27T08:45:56.000Z</time>
      </trkpt>
      <trkpt lat="42.23795763216912746429443359375" lon="2.42836031131446361541748046875">
        <ele>422</ele>
        <time>2022-07-27T08:45:57.000Z</time>
      </trkpt>
      <trkpt lat="42.2380775772035121917724609375" lon="2.42818747647106647491455078125">
        <ele>423.20001220703125</ele>
        <time>2022-07-27T08:46:01.000Z</time>
      </trkpt>
      <trkpt lat="42.2381550259888172149658203125" lon="2.4280454032123088836669921875">
        <ele>423.79998779296875</ele>
        <time>2022-07-27T08:46:04.000Z</time>
      </trkpt>
      <trkpt lat="42.2381976060569286346435546875" lon="2.427945993840694427490234375">
        <ele>424.399993896484375</ele>
        <time>2022-07-27T08:46:06.000Z</time>
      </trkpt>
      <trkpt lat="42.23826348781585693359375" lon="2.42774558253586292266845703125">
        <ele>425.399993896484375</ele>
        <time>2022-07-27T08:46:10.000Z</time>
      </trkpt>
      <trkpt lat="42.2383226640522480010986328125" lon="2.42745020426809787750244140625">
        <ele>426</ele>
        <time>2022-07-27T08:46:16.000Z</time>
      </trkpt>
      <trkpt lat="42.23832744173705577850341796875" lon="2.42739689536392688751220703125">
        <ele>426.600006103515625</ele>
        <time>2022-07-27T08:46:17.000Z</time>
      </trkpt>
      <trkpt lat="42.23834060132503509521484375" lon="2.4271357990801334381103515625">
        <ele>427.600006103515625</ele>
        <time>2022-07-27T08:46:22.000Z</time>
      </trkpt>
      <trkpt lat="42.2383474744856357574462890625" lon="2.4268105812370777130126953125">
        <ele>428.600006103515625</ele>
        <time>2022-07-27T08:46:28.000Z</time>
      </trkpt>
      <trkpt lat="42.23834873177111148834228515625" lon="2.4267609603703022003173828125">
        <ele>428.79998779296875</ele>
        <time>2022-07-27T08:46:29.000Z</time>
      </trkpt>
      <trkpt lat="42.23836415447294712066650390625" lon="2.426572032272815704345703125">
        <ele>429.79998779296875</ele>
        <time>2022-07-27T08:46:33.000Z</time>
      </trkpt>
      <trkpt lat="42.23838619887828826904296875" lon="2.42642425931990146636962890625">
        <ele>430.20001220703125</ele>
        <time>2022-07-27T08:46:36.000Z</time>
      </trkpt>
      <trkpt lat="42.23840690217912197113037109375" lon="2.4263251014053821563720703125">
        <ele>431</ele>
        <time>2022-07-27T08:46:38.000Z</time>
      </trkpt>
      <trkpt lat="42.23845283500850200653076171875" lon="2.426156960427761077880859375">
        <ele>432</ele>
        <time>2022-07-27T08:46:42.000Z</time>
      </trkpt>
      <trkpt lat="42.23848166875541210174560546875" lon="2.426080517470836639404296875">
        <ele>432.600006103515625</ele>
        <time>2022-07-27T08:46:44.000Z</time>
      </trkpt>
      <trkpt lat="42.2385224886238574981689453125" lon="2.42596694268286228179931640625">
        <ele>433.600006103515625</ele>
        <time>2022-07-27T08:46:47.000Z</time>
      </trkpt>
      <trkpt lat="42.2385778091847896575927734375" lon="2.42581774480640888214111328125">
        <ele>434.79998779296875</ele>
        <time>2022-07-27T08:46:51.000Z</time>
      </trkpt>
      <trkpt lat="42.23865534178912639617919921875" lon="2.42563652805984020233154296875">
        <ele>436</ele>
        <time>2022-07-27T08:46:56.000Z</time>
      </trkpt>
      <trkpt lat="42.2387127578258514404296875" lon="2.42549386806786060333251953125">
        <ele>436.79998779296875</ele>
        <time>2022-07-27T08:47:00.000Z</time>
      </trkpt>
      <trkpt lat="42.23873966373503208160400390625" lon="2.425421364605426788330078125">
        <ele>437</ele>
        <time>2022-07-27T08:47:02.000Z</time>
      </trkpt>
      <trkpt lat="42.2388146817684173583984375" lon="2.42524861358106136322021484375">
        <ele>438.20001220703125</ele>
        <time>2022-07-27T08:47:07.000Z</time>
      </trkpt>
      <trkpt lat="42.23885826766490936279296875" lon="2.4251461029052734375">
        <ele>439</ele>
        <time>2022-07-27T08:47:10.000Z</time>
      </trkpt>
      <trkpt lat="42.23888450302183628082275390625" lon="2.42507158778607845306396484375">
        <ele>439.399993896484375</ele>
        <time>2022-07-27T08:47:12.000Z</time>
      </trkpt>
      <trkpt lat="42.238959856331348419189453125" lon="2.424889616668224334716796875">
        <ele>440.600006103515625</ele>
        <time>2022-07-27T08:47:17.000Z</time>
      </trkpt>
      <trkpt lat="42.2389754466712474822998046875" lon="2.42485416121780872344970703125">
        <ele>440.79998779296875</ele>
        <time>2022-07-27T08:47:18.000Z</time>
      </trkpt>
      <trkpt lat="42.2390292584896087646484375" lon="2.4247124232351779937744140625">
        <ele>441.79998779296875</ele>
        <time>2022-07-27T08:47:22.000Z</time>
      </trkpt>
      <trkpt lat="42.23908357322216033935546875" lon="2.42457252927124500274658203125">
        <ele>442.600006103515625</ele>
        <time>2022-07-27T08:47:26.000Z</time>
      </trkpt>
      <trkpt lat="42.23909698426723480224609375" lon="2.42453749291598796844482421875">
        <ele>442.79998779296875</ele>
        <time>2022-07-27T08:47:27.000Z</time>
      </trkpt>
      <trkpt lat="42.23914903588593006134033203125" lon="2.42435845546424388885498046875">
        <ele>443.79998779296875</ele>
        <time>2022-07-27T08:47:32.000Z</time>
      </trkpt>
      <trkpt lat="42.23916647024452686309814453125" lon="2.424282096326351165771484375">
        <ele>444.399993896484375</ele>
        <time>2022-07-27T08:47:34.000Z</time>
      </trkpt>
      <trkpt lat="42.2391906939446926116943359375" lon="2.42416516877710819244384765625">
        <ele>445</ele>
        <time>2022-07-27T08:47:37.000Z</time>
      </trkpt>
      <trkpt lat="42.23922497592866420745849609375" lon="2.42392838001251220703125">
        <ele>446.20001220703125</ele>
        <time>2022-07-27T08:47:43.000Z</time>
      </trkpt>
      <trkpt lat="42.239245511591434478759765625" lon="2.423726879060268402099609375">
        <ele>447.20001220703125</ele>
        <time>2022-07-27T08:47:48.000Z</time>
      </trkpt>
      <trkpt lat="42.23925925791263580322265625" lon="2.42356267757713794708251953125">
        <ele>448</ele>
        <time>2022-07-27T08:47:52.000Z</time>
      </trkpt>
      <trkpt lat="42.2392805479466915130615234375" lon="2.42335975170135498046875">
        <ele>448.399993896484375</ele>
        <time>2022-07-27T08:47:57.000Z</time>
      </trkpt>
      <trkpt lat="42.2392953000962734222412109375" lon="2.42319856770336627960205078125">
        <ele>449.399993896484375</ele>
        <time>2022-07-27T08:48:01.000Z</time>
      </trkpt>
      <trkpt lat="42.23929739557206630706787109375" lon="2.4231612682342529296875">
        <ele>449.600006103515625</ele>
        <time>2022-07-27T08:48:02.000Z</time>
      </trkpt>
      <trkpt lat="42.2393180988729000091552734375" lon="2.4229384772479534149169921875">
        <ele>451</ele>
        <time>2022-07-27T08:48:08.000Z</time>
      </trkpt>
      <trkpt lat="42.2393264807760715484619140625" lon="2.42286396212875843048095703125">
        <ele>451.399993896484375</ele>
        <time>2022-07-27T08:48:10.000Z</time>
      </trkpt>
      <trkpt lat="42.23933645524084568023681640625" lon="2.422734461724758148193359375">
        <ele>452</ele>
        <time>2022-07-27T08:48:13.000Z</time>
      </trkpt>
      <trkpt lat="42.239358834922313690185546875" lon="2.422526590526103973388671875">
        <ele>452.79998779296875</ele>
        <time>2022-07-27T08:48:18.000Z</time>
      </trkpt>
      <trkpt lat="42.23936713300645351409912109375" lon="2.4224402569234371185302734375">
        <ele>453.20001220703125</ele>
        <time>2022-07-27T08:48:20.000Z</time>
      </trkpt>
      <trkpt lat="42.239392362534999847412109375" lon="2.422139681875705718994140625">
        <ele>454.20001220703125</ele>
        <time>2022-07-27T08:48:27.000Z</time>
      </trkpt>
      <trkpt lat="42.23940074443817138671875" lon="2.4220536835491657257080078125">
        <ele>454.600006103515625</ele>
        <time>2022-07-27T08:48:29.000Z</time>
      </trkpt>
      <trkpt lat="42.2394227050244808197021484375" lon="2.42179526947438716888427734375">
        <ele>455.399993896484375</ele>
        <time>2022-07-27T08:48:35.000Z</time>
      </trkpt>
      <trkpt lat="42.23943754099309444427490234375" lon="2.4216176569461822509765625">
        <ele>456</ele>
        <time>2022-07-27T08:48:39.000Z</time>
      </trkpt>
      <trkpt lat="42.239441312849521636962890625" lon="2.42157549597322940826416015625">
        <ele>456.399993896484375</ele>
        <time>2022-07-27T08:48:40.000Z</time>
      </trkpt>
      <trkpt lat="42.23945832811295986175537109375" lon="2.42141338996589183807373046875">
        <ele>457.399993896484375</ele>
        <time>2022-07-27T08:48:44.000Z</time>
      </trkpt>
      <trkpt lat="42.23947844468057155609130859375" lon="2.4211943708360195159912109375">
        <ele>458</ele>
        <time>2022-07-27T08:48:49.000Z</time>
      </trkpt>
      <trkpt lat="42.23949152044951915740966796875" lon="2.421014495193958282470703125">
        <ele>458.600006103515625</ele>
        <time>2022-07-27T08:48:53.000Z</time>
      </trkpt>
      <trkpt lat="42.2395066916942596435546875" lon="2.42088164202868938446044921875">
        <ele>459</ele>
        <time>2022-07-27T08:48:56.000Z</time>
      </trkpt>
      <trkpt lat="42.23952420987188816070556640625" lon="2.42074686102569103240966796875">
        <ele>459.600006103515625</ele>
        <time>2022-07-27T08:48:59.000Z</time>
      </trkpt>
      <trkpt lat="42.239568047225475311279296875" lon="2.42047796957194805145263671875">
        <ele>460.600006103515625</ele>
        <time>2022-07-27T08:49:05.000Z</time>
      </trkpt>
      <trkpt lat="42.2395786084234714508056640625" lon="2.4204356409609317779541015625">
        <ele>460.79998779296875</ele>
        <time>2022-07-27T08:49:06.000Z</time>
      </trkpt>
      <trkpt lat="42.23963501863181591033935546875" lon="2.42027479223906993865966796875">
        <ele>461.600006103515625</ele>
        <time>2022-07-27T08:49:10.000Z</time>
      </trkpt>
      <trkpt lat="42.239710204303264617919921875" lon="2.420124672353267669677734375">
        <ele>462.20001220703125</ele>
        <time>2022-07-27T08:49:14.000Z</time>
      </trkpt>
      <trkpt lat="42.2398072667419910430908203125" lon="2.4200031347572803497314453125">
        <ele>462.600006103515625</ele>
        <time>2022-07-27T08:49:18.000Z</time>
      </trkpt>
      <trkpt lat="42.23989091813564300537109375" lon="2.41991839371621608734130859375">
        <ele>463.20001220703125</ele>
        <time>2022-07-27T08:49:21.000Z</time>
      </trkpt>
      <trkpt lat="42.239981107413768768310546875" lon="2.41984748281538486480712890625">
        <ele>463.79998779296875</ele>
        <time>2022-07-27T08:49:24.000Z</time>
      </trkpt>
      <trkpt lat="42.24013608880341053009033203125" lon="2.41975327022373676300048828125">
        <ele>464.399993896484375</ele>
        <time>2022-07-27T08:49:29.000Z</time>
      </trkpt>
      <trkpt lat="42.24026785232126712799072265625" lon="2.41968219168484210968017578125">
        <ele>464.79998779296875</ele>
        <time>2022-07-27T08:49:33.000Z</time>
      </trkpt>
      <trkpt lat="42.2403691895306110382080078125" lon="2.41963324137032032012939453125">
        <ele>465.600006103515625</ele>
        <time>2022-07-27T08:49:36.000Z</time>
      </trkpt>
      <trkpt lat="42.2404038906097412109375" lon="2.41961731575429439544677734375">
        <ele>466</ele>
        <time>2022-07-27T08:49:37.000Z</time>
      </trkpt>
      <trkpt lat="42.24057865329086780548095703125" lon="2.41953114978969097137451171875">
        <ele>467</ele>
        <time>2022-07-27T08:49:42.000Z</time>
      </trkpt>
      <trkpt lat="42.2407202236354351043701171875" lon="2.41946459747850894927978515625">
        <ele>467.399993896484375</ele>
        <time>2022-07-27T08:49:46.000Z</time>
      </trkpt>
      <trkpt lat="42.24085785448551177978515625" lon="2.41939804516732692718505859375">
        <ele>468.20001220703125</ele>
        <time>2022-07-27T08:49:50.000Z</time>
      </trkpt>
      <trkpt lat="42.24102959968149662017822265625" lon="2.41929260082542896270751953125">
        <ele>468.79998779296875</ele>
        <time>2022-07-27T08:49:55.000Z</time>
      </trkpt>
      <trkpt lat="42.2411334514617919921875" lon="2.4192319996654987335205078125">
        <ele>469</ele>
        <time>2022-07-27T08:49:58.000Z</time>
      </trkpt>
      <trkpt lat="42.2413649596273899078369140625" lon="2.41907986812293529510498046875">
        <ele>470</ele>
        <time>2022-07-27T08:50:05.000Z</time>
      </trkpt>
      <trkpt lat="42.241538129746913909912109375" lon="2.41885833442211151123046875">
        <ele>470.600006103515625</ele>
        <time>2022-07-27T08:50:11.000Z</time>
      </trkpt>
      <trkpt lat="42.24162588827311992645263671875" lon="2.41868239827454090118408203125">
        <ele>471.20001220703125</ele>
        <time>2022-07-27T08:50:15.000Z</time>
      </trkpt>
      <trkpt lat="42.241692356765270233154296875" lon="2.41849347017705440521240234375">
        <ele>471.399993896484375</ele>
        <time>2022-07-27T08:50:19.000Z</time>
      </trkpt>
      <trkpt lat="42.24174088798463344573974609375" lon="2.4182905443012714385986328125">
        <ele>472.399993896484375</ele>
        <time>2022-07-27T08:50:23.000Z</time>
      </trkpt>
      <trkpt lat="42.24176217801868915557861328125" lon="2.4181235767900943756103515625">
        <ele>472.79998779296875</ele>
        <time>2022-07-27T08:50:26.000Z</time>
      </trkpt>
      <trkpt lat="42.24180492572486400604248046875" lon="2.41758830845355987548828125">
        <ele>473.399993896484375</ele>
        <time>2022-07-27T08:50:36.000Z</time>
      </trkpt>
      <trkpt lat="42.24183007143437862396240234375" lon="2.4172820337116718292236328125">
        <ele>474.399993896484375</ele>
        <time>2022-07-27T08:50:42.000Z</time>
      </trkpt>
      <trkpt lat="42.2418393753468990325927734375" lon="2.4171780981123447418212890625">
        <ele>474.79998779296875</ele>
        <time>2022-07-27T08:50:44.000Z</time>
      </trkpt>
      <trkpt lat="42.24185924045741558074951171875" lon="2.41698305122554302215576171875">
        <ele>475.399993896484375</ele>
        <time>2022-07-27T08:50:48.000Z</time>
      </trkpt>
      <trkpt lat="42.24187843501567840576171875" lon="2.41680216975510120391845703125">
        <ele>476.20001220703125</ele>
        <time>2022-07-27T08:50:52.000Z</time>
      </trkpt>
      <trkpt lat="42.2418936900794506072998046875" lon="2.416712231934070587158203125">
        <ele>476.600006103515625</ele>
        <time>2022-07-27T08:50:54.000Z</time>
      </trkpt>
      <trkpt lat="42.24192780442535877227783203125" lon="2.4165340326726436614990234375">
        <ele>477.600006103515625</ele>
        <time>2022-07-27T08:50:58.000Z</time>
      </trkpt>
      <trkpt lat="42.24195982329547405242919921875" lon="2.41640201769769191741943359375">
        <ele>478.20001220703125</ele>
        <time>2022-07-27T08:51:01.000Z</time>
      </trkpt>
      <trkpt lat="42.2419825382530689239501953125" lon="2.41631417535245418548583984375">
        <ele>478.600006103515625</ele>
        <time>2022-07-27T08:51:03.000Z</time>
      </trkpt>
      <trkpt lat="42.24204850383102893829345703125" lon="2.41610747762024402618408203125">
        <ele>479.79998779296875</ele>
        <time>2022-07-27T08:51:08.000Z</time>
      </trkpt>
      <trkpt lat="42.24209309555590152740478515625" lon="2.415991723537445068359375">
        <ele>480.20001220703125</ele>
        <time>2022-07-27T08:51:11.000Z</time>
      </trkpt>
      <trkpt lat="42.24215679802000522613525390625" lon="2.415842525660991668701171875">
        <ele>480.79998779296875</ele>
        <time>2022-07-27T08:51:15.000Z</time>
      </trkpt>
      <trkpt lat="42.24226257763803005218505859375" lon="2.41562048904597759246826171875">
        <ele>481.79998779296875</ele>
        <time>2022-07-27T08:51:21.000Z</time>
      </trkpt>
      <trkpt lat="42.24239249713718891143798828125" lon="2.41536182351410388946533203125">
        <ele>483</ele>
        <time>2022-07-27T08:51:28.000Z</time>
      </trkpt>
      <trkpt lat="42.242410182952880859375" lon="2.41532745771110057830810546875">
        <ele>483.20001220703125</ele>
        <time>2022-07-27T08:51:29.000Z</time>
      </trkpt>
      <trkpt lat="42.2424522601068019866943359375" lon="2.41521991789340972900390625">
        <ele>484</ele>
        <time>2022-07-27T08:51:32.000Z</time>
      </trkpt>
      <trkpt lat="42.24251118488609790802001953125" lon="2.41508186794817447662353515625">
        <ele>485.20001220703125</ele>
        <time>2022-07-27T08:51:36.000Z</time>
      </trkpt>
      <trkpt lat="42.24252459593117237091064453125" lon="2.41504691541194915771484375">
        <ele>485.399993896484375</ele>
        <time>2022-07-27T08:51:37.000Z</time>
      </trkpt>
      <trkpt lat="42.2425783239305019378662109375" lon="2.41490903310477733612060546875">
        <ele>486.20001220703125</ele>
        <time>2022-07-27T08:51:41.000Z</time>
      </trkpt>
      <trkpt lat="42.24262216128408908843994140625" lon="2.4147698096930980682373046875">
        <ele>486.79998779296875</ele>
        <time>2022-07-27T08:51:45.000Z</time>
      </trkpt>
      <trkpt lat="42.24264697171747684478759765625" lon="2.4146481044590473175048828125">
        <ele>487.399993896484375</ele>
        <time>2022-07-27T08:51:48.000Z</time>
      </trkpt>
      <trkpt lat="42.24267370998859405517578125" lon="2.41448742337524890899658203125">
        <ele>488.399993896484375</ele>
        <time>2022-07-27T08:51:52.000Z</time>
      </trkpt>
      <trkpt lat="42.24268049933016300201416015625" lon="2.41444836370646953582763671875">
        <ele>488.600006103515625</ele>
        <time>2022-07-27T08:51:53.000Z</time>
      </trkpt>
      <trkpt lat="42.24270447157323360443115234375" lon="2.41426010616123676300048828125">
        <ele>489.600006103515625</ele>
        <time>2022-07-27T08:51:58.000Z</time>
      </trkpt>
      <trkpt lat="42.242713607847690582275390625" lon="2.41417913697659969329833984375">
        <ele>490.20001220703125</ele>
        <time>2022-07-27T08:52:00.000Z</time>
      </trkpt>
      <trkpt lat="42.24272944964468479156494140625" lon="2.4140543304383754730224609375">
        <ele>490.79998779296875</ele>
        <time>2022-07-27T08:52:03.000Z</time>
      </trkpt>
      <trkpt lat="42.24275551736354827880859375" lon="2.41381033323705196380615234375">
        <ele>491.79998779296875</ele>
        <time>2022-07-27T08:52:09.000Z</time>
      </trkpt>
      <trkpt lat="42.2427684254944324493408203125" lon="2.41368644870817661285400390625">
        <ele>492.600006103515625</ele>
        <time>2022-07-27T08:52:12.000Z</time>
      </trkpt>
      <trkpt lat="42.24277756176888942718505859375" lon="2.41360313259065151214599609375">
        <ele>493</ele>
        <time>2022-07-27T08:52:14.000Z</time>
      </trkpt>
      <trkpt lat="42.2427996061742305755615234375" lon="2.41334907710552215576171875">
        <ele>494.20001220703125</ele>
        <time>2022-07-27T08:52:20.000Z</time>
      </trkpt>
      <trkpt lat="42.24280706606805324554443359375" lon="2.4132614023983478546142578125">
        <ele>494.399993896484375</ele>
        <time>2022-07-27T08:52:22.000Z</time>
      </trkpt>
      <trkpt lat="42.24281125701963901519775390625" lon="2.41317582316696643829345703125">
        <ele>495</ele>
        <time>2022-07-27T08:52:24.000Z</time>
      </trkpt>
      <trkpt lat="42.24281695671379566192626953125" lon="2.4130890704691410064697265625">
        <ele>495.399993896484375</ele>
        <time>2022-07-27T08:52:26.000Z</time>
      </trkpt>
      <trkpt lat="42.24282793700695037841796875" lon="2.4129063449800014495849609375">
        <ele>496.399993896484375</ele>
        <time>2022-07-27T08:52:30.000Z</time>
      </trkpt>
      <trkpt lat="42.24283355288207530975341796875" lon="2.41281665861606597900390625">
        <ele>496.79998779296875</ele>
        <time>2022-07-27T08:52:32.000Z</time>
      </trkpt>
      <trkpt lat="42.24283757619559764862060546875" lon="2.41267709992825984954833984375">
        <ele>497.399993896484375</ele>
        <time>2022-07-27T08:52:35.000Z</time>
      </trkpt>
      <trkpt lat="42.2428415156900882720947265625" lon="2.41240384988486766815185546875">
        <ele>498.600006103515625</ele>
        <time>2022-07-27T08:52:41.000Z</time>
      </trkpt>
      <trkpt lat="42.24284579046070575714111328125" lon="2.41236068308353424072265625">
        <ele>498.600006103515625</ele>
        <time>2022-07-27T08:52:42.000Z</time>
      </trkpt>
      <trkpt lat="42.2428514063358306884765625" lon="2.41213210858404636383056640625">
        <ele>499.399993896484375</ele>
        <time>2022-07-27T08:52:47.000Z</time>
      </trkpt>
      <trkpt lat="42.242854423820972442626953125" lon="2.41199724376201629638671875">
        <ele>499.79998779296875</ele>
        <time>2022-07-27T08:52:50.000Z</time>
      </trkpt>
      <trkpt lat="42.24285920150578022003173828125" lon="2.411699183285236358642578125">
        <ele>500.600006103515625</ele>
        <time>2022-07-27T08:52:56.000Z</time>
      </trkpt>
      <trkpt lat="42.2428653202950954437255859375" lon="2.4115364067256450653076171875">
        <ele>501</ele>
        <time>2022-07-27T08:52:59.000Z</time>
      </trkpt>
      <trkpt lat="42.242885939776897430419921875" lon="2.41119300015270709991455078125">
        <ele>501.399993896484375</ele>
        <time>2022-07-27T08:53:06.000Z</time>
      </trkpt>
      <trkpt lat="42.242894656956195831298828125" lon="2.4109161458909511566162109375">
        <ele>501.79998779296875</ele>
        <time>2022-07-27T08:53:11.000Z</time>
      </trkpt>
      <trkpt lat="42.24290446378290653228759765625" lon="2.410800643265247344970703125">
        <ele>501.79998779296875</ele>
        <time>2022-07-27T08:53:13.000Z</time>
      </trkpt>
      <trkpt lat="42.24297001026570796966552734375" lon="2.41034760139882564544677734375">
        <ele>502</ele>
        <time>2022-07-27T08:53:21.000Z</time>
      </trkpt>
      <trkpt lat="42.243069671094417572021484375" lon="2.410111315548419952392578125">
        <ele>502</ele>
        <time>2022-07-27T08:53:27.000Z</time>
      </trkpt>
      <trkpt lat="42.2431291826069355010986328125" lon="2.41001919843256473541259765625">
        <ele>502.600006103515625</ele>
        <time>2022-07-27T08:53:30.000Z</time>
      </trkpt>
      <trkpt lat="42.243216522037982940673828125" lon="2.4099109880626201629638671875">
        <ele>504</ele>
        <time>2022-07-27T08:53:34.000Z</time>
      </trkpt>
      <trkpt lat="42.24331903271377086639404296875" lon="2.40981769748032093048095703125">
        <ele>505.20001220703125</ele>
        <time>2022-07-27T08:53:38.000Z</time>
      </trkpt>
      <trkpt lat="42.243368066847324371337890625" lon="2.40976028144359588623046875">
        <ele>505.79998779296875</ele>
        <time>2022-07-27T08:53:40.000Z</time>
      </trkpt>
      <trkpt lat="42.24341575987637042999267578125" lon="2.4097140133380889892578125">
        <ele>506.20001220703125</ele>
        <time>2022-07-27T08:53:42.000Z</time>
      </trkpt>
      <trkpt lat="42.2435023449361324310302734375" lon="2.4096196331083774566650390625">
        <ele>507.399993896484375</ele>
        <time>2022-07-27T08:53:46.000Z</time>
      </trkpt>
      <trkpt lat="42.2435432486236095428466796875" lon="2.4095772206783294677734375">
        <ele>507.79998779296875</ele>
        <time>2022-07-27T08:53:48.000Z</time>
      </trkpt>
      <trkpt lat="42.2435868345201015472412109375" lon="2.40954059176146984100341796875">
        <ele>508.399993896484375</ele>
        <time>2022-07-27T08:53:50.000Z</time>
      </trkpt>
      <trkpt lat="42.24364927969872951507568359375" lon="2.409473955631256103515625">
        <ele>509.399993896484375</ele>
        <time>2022-07-27T08:53:53.000Z</time>
      </trkpt>
      <trkpt lat="42.24371264688670635223388671875" lon="2.409405894577503204345703125">
        <ele>510.20001220703125</ele>
        <time>2022-07-27T08:53:56.000Z</time>
      </trkpt>
      <trkpt lat="42.2437588311731815338134765625" lon="2.4093639850616455078125">
        <ele>510.600006103515625</ele>
        <time>2022-07-27T08:53:58.000Z</time>
      </trkpt>
      <trkpt lat="42.2438473440706729888916015625" lon="2.4092741310596466064453125">
        <ele>511.600006103515625</ele>
        <time>2022-07-27T08:54:02.000Z</time>
      </trkpt>
      <trkpt lat="42.24386720918118953704833984375" lon="2.4092491529881954193115234375">
        <ele>511.79998779296875</ele>
        <time>2022-07-27T08:54:03.000Z</time>
      </trkpt>
      <trkpt lat="42.2439817897975444793701171875" lon="2.4091009609401226043701171875">
        <ele>513</ele>
        <time>2022-07-27T08:54:09.000Z</time>
      </trkpt>
      <trkpt lat="42.2440233640372753143310546875" lon="2.4090546928346157073974609375">
        <ele>513.20001220703125</ele>
        <time>2022-07-27T08:54:11.000Z</time>
      </trkpt>
      <trkpt lat="42.244083546102046966552734375" lon="2.40898311138153076171875">
        <ele>514</ele>
        <time>2022-07-27T08:54:14.000Z</time>
      </trkpt>
      <trkpt lat="42.24416309036314487457275390625" lon="2.40889082662761211395263671875">
        <ele>515</ele>
        <time>2022-07-27T08:54:18.000Z</time>
      </trkpt>
      <trkpt lat="42.2441846318542957305908203125" lon="2.40886752493679523468017578125">
        <ele>515.20001220703125</ele>
        <time>2022-07-27T08:54:19.000Z</time>
      </trkpt>
      <trkpt lat="42.24429736845195293426513671875" lon="2.4087690375745296478271484375">
        <ele>516.20001220703125</ele>
        <time>2022-07-27T08:54:24.000Z</time>
      </trkpt>
      <trkpt lat="42.244323603808879852294921875" lon="2.40875587798655033111572265625">
        <ele>516.4000244140625</ele>
        <time>2022-07-27T08:54:25.000Z</time>
      </trkpt>
      <trkpt lat="42.24446718581020832061767578125" lon="2.4087043292820453643798828125">
        <ele>517.4000244140625</ele>
        <time>2022-07-27T08:54:30.000Z</time>
      </trkpt>
      <trkpt lat="42.24452636204659938812255859375" lon="2.4086942709982395172119140625">
        <ele>517.5999755859375</ele>
        <time>2022-07-27T08:54:32.000Z</time>
      </trkpt>
      <trkpt lat="42.2446697764098644256591796875" lon="2.408701814711093902587890625">
        <ele>518.4000244140625</ele>
        <time>2022-07-27T08:54:37.000Z</time>
      </trkpt>
      <trkpt lat="42.2447318024933338165283203125" lon="2.408705167472362518310546875">
        <ele>518.5999755859375</ele>
        <time>2022-07-27T08:54:39.000Z</time>
      </trkpt>
      <trkpt lat="42.24482676945626735687255859375" lon="2.40870474837720394134521484375">
        <ele>519.4000244140625</ele>
        <time>2022-07-27T08:54:42.000Z</time>
      </trkpt>
      <trkpt lat="42.24494746886193752288818359375" lon="2.40867532789707183837890625">
        <ele>520.4000244140625</ele>
        <time>2022-07-27T08:54:46.000Z</time>
      </trkpt>
      <trkpt lat="42.2450657375156879425048828125" lon="2.4085527844727039337158203125">
        <ele>521.4000244140625</ele>
        <time>2022-07-27T08:54:50.000Z</time>
      </trkpt>
      <trkpt lat="42.24511728622019290924072265625" lon="2.40842630155384540557861328125">
        <ele>521.4000244140625</ele>
        <time>2022-07-27T08:54:53.000Z</time>
      </trkpt>
      <trkpt lat="42.245122231543064117431640625" lon="2.40837533958256244659423828125">
        <ele>521.4000244140625</ele>
        <time>2022-07-27T08:54:54.000Z</time>
      </trkpt>
      <trkpt lat="42.24508979357779026031494140625" lon="2.40809974260628223419189453125">
        <ele>521.5999755859375</ele>
        <time>2022-07-27T08:54:59.000Z</time>
      </trkpt>
      <trkpt lat="42.24496071226894855499267578125" lon="2.40781727246940135955810546875">
        <ele>521.5999755859375</ele>
        <time>2022-07-27T08:55:05.000Z</time>
      </trkpt>
      <trkpt lat="42.2447800822556018829345703125" lon="2.40763287059962749481201171875">
        <ele>522.4000244140625</ele>
        <time>2022-07-27T08:55:11.000Z</time>
      </trkpt>
      <trkpt lat="42.24457967095077037811279296875" lon="2.40752398967742919921875">
        <ele>523.4000244140625</ele>
        <time>2022-07-27T08:55:17.000Z</time>
      </trkpt>
      <trkpt lat="42.24451462738215923309326171875" lon="2.4075144343078136444091796875">
        <ele>523.5999755859375</ele>
        <time>2022-07-27T08:55:19.000Z</time>
      </trkpt>
      <trkpt lat="42.24440197460353374481201171875" lon="2.4074614606797695159912109375">
        <ele>524.4000244140625</ele>
        <time>2022-07-27T08:55:23.000Z</time>
      </trkpt>
      <trkpt lat="42.244376242160797119140625" lon="2.40743723697960376739501953125">
        <ele>524.79998779296875</ele>
        <time>2022-07-27T08:55:24.000Z</time>
      </trkpt>
      <trkpt lat="42.244298122823238372802734375" lon="2.40737286396324634552001953125">
        <ele>525.5999755859375</ele>
        <time>2022-07-27T08:55:27.000Z</time>
      </trkpt>
      <trkpt lat="42.2441889904439449310302734375" lon="2.40729809738695621490478515625">
        <ele>526.4000244140625</ele>
        <time>2022-07-27T08:55:31.000Z</time>
      </trkpt>
      <trkpt lat="42.24416526965796947479248046875" lon="2.4072743766009807586669921875">
        <ele>526.5999755859375</ele>
        <time>2022-07-27T08:55:32.000Z</time>
      </trkpt>
      <trkpt lat="42.24401925690472126007080078125" lon="2.40719935856759548187255859375">
        <ele>527.5999755859375</ele>
        <time>2022-07-27T08:55:37.000Z</time>
      </trkpt>
      <trkpt lat="42.24399209953844547271728515625" lon="2.407179661095142364501953125">
        <ele>527.79998779296875</ele>
        <time>2022-07-27T08:55:38.000Z</time>
      </trkpt>
      <trkpt lat="42.24382597021758556365966796875" lon="2.407097518444061279296875">
        <ele>529</ele>
        <time>2022-07-27T08:55:44.000Z</time>
      </trkpt>
      <trkpt lat="42.24361776374280452728271484375" lon="2.40701680071651935577392578125">
        <ele>530</ele>
        <time>2022-07-27T08:55:51.000Z</time>
      </trkpt>
      <trkpt lat="42.2435650415718555450439453125" lon="2.40697220899164676666259765625">
        <ele>530.4000244140625</ele>
        <time>2022-07-27T08:55:53.000Z</time>
      </trkpt>
      <trkpt lat="42.24353327415883541107177734375" lon="2.4068562872707843780517578125">
        <ele>531</ele>
        <time>2022-07-27T08:55:56.000Z</time>
      </trkpt>
      <trkpt lat="42.243533693253993988037109375" lon="2.4068150483071804046630859375">
        <ele>531.4000244140625</ele>
        <time>2022-07-27T08:55:57.000Z</time>
      </trkpt>
      <trkpt lat="42.24355858750641345977783203125" lon="2.40661715157330036163330078125">
        <ele>532.20001220703125</ele>
        <time>2022-07-27T08:56:02.000Z</time>
      </trkpt>
      <trkpt lat="42.243566550314426422119140625" lon="2.40657691843807697296142578125">
        <ele>532.4000244140625</ele>
        <time>2022-07-27T08:56:03.000Z</time>
      </trkpt>
      <trkpt lat="42.243583314120769500732421875" lon="2.406451441347599029541015625">
        <ele>533.20001220703125</ele>
        <time>2022-07-27T08:56:06.000Z</time>
      </trkpt>
      <trkpt lat="42.24360586144030094146728515625" lon="2.4063718132674694061279296875">
        <ele>533.79998779296875</ele>
        <time>2022-07-27T08:56:08.000Z</time>
      </trkpt>
      <trkpt lat="42.24363553337752819061279296875" lon="2.40620258264243602752685546875">
        <ele>534.4000244140625</ele>
        <time>2022-07-27T08:56:12.000Z</time>
      </trkpt>
      <trkpt lat="42.24364073015749454498291015625" lon="2.406116165220737457275390625">
        <ele>534.79998779296875</ele>
        <time>2022-07-27T08:56:14.000Z</time>
      </trkpt>
      <trkpt lat="42.24364626221358776092529296875" lon="2.40595062263309955596923828125">
        <ele>535.4000244140625</ele>
        <time>2022-07-27T08:56:18.000Z</time>
      </trkpt>
      <trkpt lat="42.24363117478787899017333984375" lon="2.4058668874204158782958984375">
        <ele>535.79998779296875</ele>
        <time>2022-07-27T08:56:20.000Z</time>
      </trkpt>
      <trkpt lat="42.243565209209918975830078125" lon="2.40561568178236484527587890625">
        <ele>536.4000244140625</ele>
        <time>2022-07-27T08:56:26.000Z</time>
      </trkpt>
      <trkpt lat="42.24354484118521213531494140625" lon="2.40553102456033229827880859375">
        <ele>536.5999755859375</ele>
        <time>2022-07-27T08:56:28.000Z</time>
      </trkpt>
      <trkpt lat="42.24352640099823474884033203125" lon="2.4052982591092586517333984375">
        <ele>537.4000244140625</ele>
        <time>2022-07-27T08:56:33.000Z</time>
      </trkpt>
      <trkpt lat="42.24353067576885223388671875" lon="2.40525241009891033172607421875">
        <ele>537.4000244140625</ele>
        <time>2022-07-27T08:56:34.000Z</time>
      </trkpt>
      <trkpt lat="42.2436163388192653656005859375" lon="2.404997348785400390625">
        <ele>538.20001220703125</ele>
        <time>2022-07-27T08:56:40.000Z</time>
      </trkpt>
      <trkpt lat="42.2436374612152576446533203125" lon="2.40495502017438411712646484375">
        <ele>538.4000244140625</ele>
        <time>2022-07-27T08:56:41.000Z</time>
      </trkpt>
      <trkpt lat="42.24372907541692256927490234375" lon="2.40478344261646270751953125">
        <ele>539.4000244140625</ele>
        <time>2022-07-27T08:56:45.000Z</time>
      </trkpt>
      <trkpt lat="42.24380652420222759246826171875" lon="2.40466006100177764892578125">
        <ele>540.20001220703125</ele>
        <time>2022-07-27T08:56:48.000Z</time>
      </trkpt>
      <trkpt lat="42.2438540495932102203369140625" lon="2.404574565589427947998046875">
        <ele>540.5999755859375</ele>
        <time>2022-07-27T08:56:50.000Z</time>
      </trkpt>
      <trkpt lat="42.2439546324312686920166015625" lon="2.40437633357942104339599609375">
        <ele>541.5999755859375</ele>
        <time>2022-07-27T08:56:55.000Z</time>
      </trkpt>
      <trkpt lat="42.24404674954712390899658203125" lon="2.4041211046278476715087890625">
        <ele>542.4000244140625</ele>
        <time>2022-07-27T08:57:01.000Z</time>
      </trkpt>
      <trkpt lat="42.244070805609226226806640625" lon="2.404020018875598907470703125">
        <ele>542.79998779296875</ele>
        <time>2022-07-27T08:57:03.000Z</time>
      </trkpt>
      <trkpt lat="42.24415831267833709716796875" lon="2.40381005220115184783935546875">
        <ele>543.79998779296875</ele>
        <time>2022-07-27T08:57:08.000Z</time>
      </trkpt>
      <trkpt lat="42.24433072842657566070556640625" lon="2.40351048298180103302001953125">
        <ele>544.79998779296875</ele>
        <time>2022-07-27T08:57:16.000Z</time>
      </trkpt>
      <trkpt lat="42.2443521022796630859375" lon="2.4034710042178630828857421875">
        <ele>544.79998779296875</ele>
        <time>2022-07-27T08:57:17.000Z</time>
      </trkpt>
      <trkpt lat="42.2444669343531131744384765625" lon="2.40328685380518436431884765625">
        <ele>546</ele>
        <time>2022-07-27T08:57:22.000Z</time>
      </trkpt>
      <trkpt lat="42.24452937953174114227294921875" lon="2.40317319519817829132080078125">
        <ele>546.5999755859375</ele>
        <time>2022-07-27T08:57:25.000Z</time>
      </trkpt>
      <trkpt lat="42.24463666789233684539794921875" lon="2.4029925651848316192626953125">
        <ele>547</ele>
        <time>2022-07-27T08:57:30.000Z</time>
      </trkpt>
      <trkpt lat="42.24469550885260105133056640625" lon="2.4029519967734813690185546875">
        <ele>547.20001220703125</ele>
        <time>2022-07-27T08:57:32.000Z</time>
      </trkpt>
      <trkpt lat="42.244862727820873260498046875" lon="2.402892149984836578369140625">
        <ele>548.20001220703125</ele>
        <time>2022-07-27T08:57:37.000Z</time>
      </trkpt>
      <trkpt lat="42.24493053741753101348876953125" lon="2.4028896354138851165771484375">
        <ele>548.4000244140625</ele>
        <time>2022-07-27T08:57:39.000Z</time>
      </trkpt>
      <trkpt lat="42.24505760706961154937744140625" lon="2.40286163985729217529296875">
        <ele>549.20001220703125</ele>
        <time>2022-07-27T08:57:43.000Z</time>
      </trkpt>
      <trkpt lat="42.2451193816959857940673828125" lon="2.40284915082156658172607421875">
        <ele>549.4000244140625</ele>
        <time>2022-07-27T08:57:45.000Z</time>
      </trkpt>
      <trkpt lat="42.24522843025624752044677734375" lon="2.40280690602958202362060546875">
        <ele>550.20001220703125</ele>
        <time>2022-07-27T08:57:49.000Z</time>
      </trkpt>
      <trkpt lat="42.2453215532004833221435546875" lon="2.4027965962886810302734375">
        <ele>551</ele>
        <time>2022-07-27T08:57:52.000Z</time>
      </trkpt>
      <trkpt lat="42.24535189568996429443359375" lon="2.4027930758893489837646484375">
        <ele>551.4000244140625</ele>
        <time>2022-07-27T08:57:53.000Z</time>
      </trkpt>
      <trkpt lat="42.2455067932605743408203125" lon="2.4027960933744907379150390625">
        <ele>552</ele>
        <time>2022-07-27T08:57:58.000Z</time>
      </trkpt>
      <trkpt lat="42.24556940607726573944091796875" lon="2.40279148332774639129638671875">
        <ele>552.4000244140625</ele>
        <time>2022-07-27T08:58:00.000Z</time>
      </trkpt>
      <trkpt lat="42.245718352496623992919921875" lon="2.40283548831939697265625">
        <ele>553.20001220703125</ele>
        <time>2022-07-27T08:58:05.000Z</time>
      </trkpt>
      <trkpt lat="42.2457476891577243804931640625" lon="2.40284747444093227386474609375">
        <ele>553.4000244140625</ele>
        <time>2022-07-27T08:58:06.000Z</time>
      </trkpt>
      <trkpt lat="42.24588205106556415557861328125" lon="2.40286407060921192169189453125">
        <ele>554.4000244140625</ele>
        <time>2022-07-27T08:58:11.000Z</time>
      </trkpt>
      <trkpt lat="42.2459967993199825286865234375" lon="2.40282400511205196380615234375">
        <ele>555.4000244140625</ele>
        <time>2022-07-27T08:58:15.000Z</time>
      </trkpt>
      <trkpt lat="42.24605572409927845001220703125" lon="2.40278653800487518310546875">
        <ele>556</ele>
        <time>2022-07-27T08:58:17.000Z</time>
      </trkpt>
      <trkpt lat="42.2461959533393383026123046875" lon="2.40269022993743419647216796875">
        <ele>556.5999755859375</ele>
        <time>2022-07-27T08:58:22.000Z</time>
      </trkpt>
      <trkpt lat="42.24622503854334354400634765625" lon="2.40266491658985614776611328125">
        <ele>556.79998779296875</ele>
        <time>2022-07-27T08:58:23.000Z</time>
      </trkpt>
      <trkpt lat="42.246387898921966552734375" lon="2.40255628712475299835205078125">
        <ele>557.5999755859375</ele>
        <time>2022-07-27T08:58:29.000Z</time>
      </trkpt>
      <trkpt lat="42.24641815759241580963134765625" lon="2.40254648029804229736328125">
        <ele>557.5999755859375</ele>
        <time>2022-07-27T08:58:30.000Z</time>
      </trkpt>
      <trkpt lat="42.24655612371861934661865234375" lon="2.40249283611774444580078125">
        <ele>558.20001220703125</ele>
        <time>2022-07-27T08:58:35.000Z</time>
      </trkpt>
      <trkpt lat="42.246584706008434295654296875" lon="2.40248705260455608367919921875">
        <ele>558.5999755859375</ele>
        <time>2022-07-27T08:58:36.000Z</time>
      </trkpt>
      <trkpt lat="42.24670314230024814605712890625" lon="2.40247582085430622100830078125">
        <ele>559.5999755859375</ele>
        <time>2022-07-27T08:58:40.000Z</time>
      </trkpt>
      <trkpt lat="42.24673465825617313385009765625" lon="2.402475066483020782470703125">
        <ele>559.5999755859375</ele>
        <time>2022-07-27T08:58:41.000Z</time>
      </trkpt>
      <trkpt lat="42.2468685172498226165771484375" lon="2.40247582085430622100830078125">
        <ele>560.20001220703125</ele>
        <time>2022-07-27T08:58:45.000Z</time>
      </trkpt>
      <trkpt lat="42.246999442577362060546875" lon="2.4023981206119060516357421875">
        <ele>560.79998779296875</ele>
        <time>2022-07-27T08:58:49.000Z</time>
      </trkpt>
      <trkpt lat="42.24706725217401981353759765625" lon="2.402158565819263458251953125">
        <ele>561.5999755859375</ele>
        <time>2022-07-27T08:58:54.000Z</time>
      </trkpt>
      <trkpt lat="42.2470311261713504791259765625" lon="2.40195999853312969207763671875">
        <ele>561.79998779296875</ele>
        <time>2022-07-27T08:58:58.000Z</time>
      </trkpt>
      <trkpt lat="42.247012518346309661865234375" lon="2.4019169993698596954345703125">
        <ele>561.79998779296875</ele>
        <time>2022-07-27T08:58:59.000Z</time>
      </trkpt>
      <trkpt lat="42.24690196104347705841064453125" lon="2.40175866521894931793212890625">
        <ele>563</ele>
        <time>2022-07-27T08:59:04.000Z</time>
      </trkpt>
      <trkpt lat="42.24687849171459674835205078125" lon="2.40173201076686382293701171875">
        <ele>563.20001220703125</ele>
        <time>2022-07-27T08:59:05.000Z</time>
      </trkpt>
      <trkpt lat="42.24676935933530330657958984375" lon="2.40160502493381500244140625">
        <ele>564</ele>
        <time>2022-07-27T08:59:10.000Z</time>
      </trkpt>
      <trkpt lat="42.24674530327320098876953125" lon="2.4015602655708789825439453125">
        <ele>564.20001220703125</ele>
        <time>2022-07-27T08:59:12.000Z</time>
      </trkpt>
      <trkpt lat="42.24674127995967864990234375" lon="2.40153486840426921844482421875">
        <ele>564.79998779296875</ele>
        <time>2022-07-27T08:59:15.000Z</time>
      </trkpt>
      <trkpt lat="42.2463122941553592681884765625" lon="2.40082056261599063873291015625">
        <ele>565.4000244140625</ele>
        <time>2022-07-27T09:01:13.000Z</time>
      </trkpt>
      <trkpt lat="42.2459575720131397247314453125" lon="2.4006610549986362457275390625">
        <ele>566.4000244140625</ele>
        <time>2022-07-27T09:01:22.000Z</time>
      </trkpt>
      <trkpt lat="42.245686165988445281982421875" lon="2.40058100782334804534912109375">
        <ele>567</ele>
        <time>2022-07-27T09:01:29.000Z</time>
      </trkpt>
      <trkpt lat="42.24556689150631427764892578125" lon="2.40053306333720684051513671875">
        <ele>567.4000244140625</ele>
        <time>2022-07-27T09:01:32.000Z</time>
      </trkpt>
      <trkpt lat="42.24549514241516590118408203125" lon="2.40047623403370380401611328125">
        <ele>567.5999755859375</ele>
        <time>2022-07-27T09:01:34.000Z</time>
      </trkpt>
      <trkpt lat="42.245435379445552825927734375" lon="2.40039660595357418060302734375">
        <ele>568.20001220703125</ele>
        <time>2022-07-27T09:01:36.000Z</time>
      </trkpt>
      <trkpt lat="42.24533689208328723907470703125" lon="2.40022662095725536346435546875">
        <ele>568.79998779296875</ele>
        <time>2022-07-27T09:01:40.000Z</time>
      </trkpt>
      <trkpt lat="42.2453108243644237518310546875" lon="2.40018839947879314422607421875">
        <ele>568.79998779296875</ele>
        <time>2022-07-27T09:01:41.000Z</time>
      </trkpt>
      <trkpt lat="42.24517579190433025360107421875" lon="2.40008748136460781097412109375">
        <ele>569.5999755859375</ele>
        <time>2022-07-27T09:01:45.000Z</time>
      </trkpt>
      <trkpt lat="42.24512164480984210968017578125" lon="2.4000941030681133270263671875">
        <ele>569.5999755859375</ele>
        <time>2022-07-27T09:01:46.000Z</time>
      </trkpt>
      <trkpt lat="42.24501033313572406768798828125" lon="2.40014581941068172454833984375">
        <ele>570.20001220703125</ele>
        <time>2022-07-27T09:01:49.000Z</time>
      </trkpt>
      <trkpt lat="42.24495031870901584625244140625" lon="2.4001973681151866912841796875">
        <ele>570.5999755859375</ele>
        <time>2022-07-27T09:01:51.000Z</time>
      </trkpt>
      <trkpt lat="42.24486817605793476104736328125" lon="2.400274313986301422119140625">
        <ele>570.5999755859375</ele>
        <time>2022-07-27T09:01:54.000Z</time>
      </trkpt>
      <trkpt lat="42.24478662014007568359375" lon="2.40033592097461223602294921875">
        <ele>571.4000244140625</ele>
        <time>2022-07-27T09:01:57.000Z</time>
      </trkpt>
      <trkpt lat="42.2447234205901622772216796875" lon="2.40034949965775012969970703125">
        <ele>572</ele>
        <time>2022-07-27T09:01:59.000Z</time>
      </trkpt>
      <trkpt lat="42.24463432095944881439208984375" lon="2.40034145303070545196533203125">
        <ele>572.79998779296875</ele>
        <time>2022-07-27T09:02:02.000Z</time>
      </trkpt>
      <trkpt lat="42.2446050681173801422119140625" lon="2.4003358371555805206298828125">
        <ele>573.20001220703125</ele>
        <time>2022-07-27T09:02:03.000Z</time>
      </trkpt>
      <trkpt lat="42.24446886219084262847900390625" lon="2.40030021406710147857666015625">
        <ele>574.4000244140625</ele>
        <time>2022-07-27T09:02:08.000Z</time>
      </trkpt>
      <trkpt lat="42.2444451414048671722412109375" lon="2.400284707546234130859375">
        <ele>574.5999755859375</ele>
        <time>2022-07-27T09:02:09.000Z</time>
      </trkpt>
      <trkpt lat="42.24435905925929546356201171875" lon="2.40021455101668834686279296875">
        <ele>575.5999755859375</ele>
        <time>2022-07-27T09:02:13.000Z</time>
      </trkpt>
      <trkpt lat="42.2442949377000331878662109375" lon="2.4001454003155231475830078125">
        <ele>576</ele>
        <time>2022-07-27T09:02:16.000Z</time>
      </trkpt>
      <trkpt lat="42.24424146115779876708984375" lon="2.400060407817363739013671875">
        <ele>576.5999755859375</ele>
        <time>2022-07-27T09:02:19.000Z</time>
      </trkpt>
      <trkpt lat="42.24419653415679931640625" lon="2.39991146139800548553466796875">
        <ele>577.5999755859375</ele>
        <time>2022-07-27T09:02:23.000Z</time>
      </trkpt>
      <trkpt lat="42.244191505014896392822265625" lon="2.39987106062471866607666015625">
        <ele>578</ele>
        <time>2022-07-27T09:02:24.000Z</time>
      </trkpt>
      <trkpt lat="42.2441656887531280517578125" lon="2.39968028850853443145751953125">
        <ele>579</ele>
        <time>2022-07-27T09:02:29.000Z</time>
      </trkpt>
      <trkpt lat="42.24415202625095844268798828125" lon="2.399477697908878326416015625">
        <ele>580</ele>
        <time>2022-07-27T09:02:34.000Z</time>
      </trkpt>
      <trkpt lat="42.2441628389060497283935546875" lon="2.39936009980738162994384765625">
        <ele>580.79998779296875</ele>
        <time>2022-07-27T09:02:37.000Z</time>
      </trkpt>
      <trkpt lat="42.2441675327718257904052734375" lon="2.399233616888523101806640625">
        <ele>581.20001220703125</ele>
        <time>2022-07-27T09:02:40.000Z</time>
      </trkpt>
      <trkpt lat="42.2441836260259151458740234375" lon="2.39905868656933307647705078125">
        <ele>581.79998779296875</ele>
        <time>2022-07-27T09:02:44.000Z</time>
      </trkpt>
      <trkpt lat="42.244170717895030975341796875" lon="2.39889339543879032135009765625">
        <ele>582.20001220703125</ele>
        <time>2022-07-27T09:02:48.000Z</time>
      </trkpt>
      <trkpt lat="42.24414196796715259552001953125" lon="2.3988126777112483978271484375">
        <ele>582.20001220703125</ele>
        <time>2022-07-27T09:02:50.000Z</time>
      </trkpt>
      <trkpt lat="42.24407575093209743499755859375" lon="2.39872089587152004241943359375">
        <ele>583</ele>
        <time>2022-07-27T09:02:53.000Z</time>
      </trkpt>
      <trkpt lat="42.2440468333661556243896484375" lon="2.39870413206517696380615234375">
        <ele>583.20001220703125</ele>
        <time>2022-07-27T09:02:54.000Z</time>
      </trkpt>
      <trkpt lat="42.24385580979287624359130859375" lon="2.39869055338203907012939453125">
        <ele>584</ele>
        <time>2022-07-27T09:03:00.000Z</time>
      </trkpt>
      <trkpt lat="42.2437920235097408294677734375" lon="2.39871117286384105682373046875">
        <ele>584.4000244140625</ele>
        <time>2022-07-27T09:03:02.000Z</time>
      </trkpt>
      <trkpt lat="42.24359982647001743316650390625" lon="2.39876951090991497039794921875">
        <ele>585.4000244140625</ele>
        <time>2022-07-27T09:03:08.000Z</time>
      </trkpt>
      <trkpt lat="42.2433873452246189117431640625" lon="2.398872859776020050048828125">
        <ele>586.20001220703125</ele>
        <time>2022-07-27T09:03:15.000Z</time>
      </trkpt>
      <trkpt lat="42.2433320246636867523193359375" lon="2.39891870878636837005615234375">
        <ele>586.5999755859375</ele>
        <time>2022-07-27T09:03:17.000Z</time>
      </trkpt>
      <trkpt lat="42.243244349956512451171875" lon="2.398987524211406707763671875">
        <ele>587.20001220703125</ele>
        <time>2022-07-27T09:03:20.000Z</time>
      </trkpt>
      <trkpt lat="42.24314603023231029510498046875" lon="2.3990173637866973876953125">
        <ele>587.79998779296875</ele>
        <time>2022-07-27T09:03:23.000Z</time>
      </trkpt>
      <trkpt lat="42.24299959838390350341796875" lon="2.39893530495464801788330078125">
        <ele>588</ele>
        <time>2022-07-27T09:03:28.000Z</time>
      </trkpt>
      <trkpt lat="42.2429665736854076385498046875" lon="2.39885978400707244873046875">
        <ele>588.4000244140625</ele>
        <time>2022-07-27T09:03:30.000Z</time>
      </trkpt>
      <trkpt lat="42.2429506480693817138671875" lon="2.39873145706951618194580078125">
        <ele>589</ele>
        <time>2022-07-27T09:03:33.000Z</time>
      </trkpt>
      <trkpt lat="42.24296313710510730743408203125" lon="2.39864931441843509674072265625">
        <ele>589.5999755859375</ele>
        <time>2022-07-27T09:03:35.000Z</time>
      </trkpt>
      <trkpt lat="42.2429927252233028411865234375" lon="2.3984924890100955963134765625">
        <ele>590.5999755859375</ele>
        <time>2022-07-27T09:03:39.000Z</time>
      </trkpt>
      <trkpt lat="42.24300018511712551116943359375" lon="2.3984552733600139617919921875">
        <ele>590.5999755859375</ele>
        <time>2022-07-27T09:03:40.000Z</time>
      </trkpt>
      <trkpt lat="42.2430222295224666595458984375" lon="2.398257292807102203369140625">
        <ele>591.79998779296875</ele>
        <time>2022-07-27T09:03:45.000Z</time>
      </trkpt>
      <trkpt lat="42.2430265881121158599853515625" lon="2.39821328781545162200927734375">
        <ele>592</ele>
        <time>2022-07-27T09:03:46.000Z</time>
      </trkpt>
      <trkpt lat="42.24304242990911006927490234375" lon="2.39801983349025249481201171875">
        <ele>593</ele>
        <time>2022-07-27T09:03:50.000Z</time>
      </trkpt>
      <trkpt lat="42.2430500574409961700439453125" lon="2.39788077771663665771484375">
        <ele>593.4000244140625</ele>
        <time>2022-07-27T09:03:53.000Z</time>
      </trkpt>
      <trkpt lat="42.24307872354984283447265625" lon="2.39774943329393863677978515625">
        <ele>594</ele>
        <time>2022-07-27T09:03:56.000Z</time>
      </trkpt>
      <trkpt lat="42.243109233677387237548828125" lon="2.39767416380345821380615234375">
        <ele>594.20001220703125</ele>
        <time>2022-07-27T09:03:58.000Z</time>
      </trkpt>
      <trkpt lat="42.24318022839725017547607421875" lon="2.39754290319979190826416015625">
        <ele>595</ele>
        <time>2022-07-27T09:04:02.000Z</time>
      </trkpt>
      <trkpt lat="42.2432247363030910491943359375" lon="2.39743226207792758941650390625">
        <ele>595.5999755859375</ele>
        <time>2022-07-27T09:04:05.000Z</time>
      </trkpt>
      <trkpt lat="42.24324745126068592071533203125" lon="2.39727417938411235809326171875">
        <ele>596.20001220703125</ele>
        <time>2022-07-27T09:04:09.000Z</time>
      </trkpt>
      <trkpt lat="42.24324242211878299713134765625" lon="2.39723294042050838470458984375">
        <ele>596.4000244140625</ele>
        <time>2022-07-27T09:04:10.000Z</time>
      </trkpt>
      <trkpt lat="42.2432351298630237579345703125" lon="2.39706429652869701385498046875">
        <ele>597.20001220703125</ele>
        <time>2022-07-27T09:04:14.000Z</time>
      </trkpt>
      <trkpt lat="42.24323454312980175018310546875" lon="2.3969830758869647979736328125">
        <ele>597.79998779296875</ele>
        <time>2022-07-27T09:04:16.000Z</time>
      </trkpt>
      <trkpt lat="42.24324703216552734375" lon="2.3969039507210254669189453125">
        <ele>598.20001220703125</ele>
        <time>2022-07-27T09:04:18.000Z</time>
      </trkpt>
      <trkpt lat="42.24326656199991703033447265625" lon="2.3967795632779598236083984375">
        <ele>598.5999755859375</ele>
        <time>2022-07-27T09:04:21.000Z</time>
      </trkpt>
      <trkpt lat="42.2432931326329708099365234375" lon="2.396603710949420928955078125">
        <ele>599.20001220703125</ele>
        <time>2022-07-27T09:04:25.000Z</time>
      </trkpt>
      <trkpt lat="42.24329405464231967926025390625" lon="2.39652332849800586700439453125">
        <ele>599.79998779296875</ele>
        <time>2022-07-27T09:04:27.000Z</time>
      </trkpt>
      <trkpt lat="42.24327511154115200042724609375" lon="2.39640598185360431671142578125">
        <ele>600.4000244140625</ele>
        <time>2022-07-27T09:04:30.000Z</time>
      </trkpt>
      <trkpt lat="42.243251390755176544189453125" lon="2.3962957598268985748291015625">
        <ele>601.20001220703125</ele>
        <time>2022-07-27T09:04:33.000Z</time>
      </trkpt>
      <trkpt lat="42.24321878515183925628662109375" lon="2.39622409455478191375732421875">
        <ele>601.5999755859375</ele>
        <time>2022-07-27T09:04:35.000Z</time>
      </trkpt>
      <trkpt lat="42.24317125976085662841796875" lon="2.39610381424427032470703125">
        <ele>602</ele>
        <time>2022-07-27T09:04:38.000Z</time>
      </trkpt>
      <trkpt lat="42.24311602301895618438720703125" lon="2.39591815508902072906494140625">
        <ele>602.79998779296875</ele>
        <time>2022-07-27T09:04:43.000Z</time>
      </trkpt>
      <trkpt lat="42.243093140423297882080078125" lon="2.395846657454967498779296875">
        <ele>603.20001220703125</ele>
        <time>2022-07-27T09:04:45.000Z</time>
      </trkpt>
      <trkpt lat="42.24306958727538585662841796875" lon="2.395789325237274169921875">
        <ele>604.20001220703125</ele>
        <time>2022-07-27T09:04:47.000Z</time>
      </trkpt>
      <trkpt lat="42.24300622008740901947021484375" lon="2.39566150121390819549560546875">
        <ele>605</ele>
        <time>2022-07-27T09:04:51.000Z</time>
      </trkpt>
      <trkpt lat="42.242946960031986236572265625" lon="2.39546184428036212921142578125">
        <ele>606.20001220703125</ele>
        <time>2022-07-27T09:04:56.000Z</time>
      </trkpt>
      <trkpt lat="42.2429950721561908721923828125" lon="2.39530342631042003631591796875">
        <ele>606.5999755859375</ele>
        <time>2022-07-27T09:05:00.000Z</time>
      </trkpt>
      <trkpt lat="42.24306799471378326416015625" lon="2.39524743519723415374755859375">
        <ele>607.20001220703125</ele>
        <time>2022-07-27T09:05:03.000Z</time>
      </trkpt>
      <trkpt lat="42.2431248240172863006591796875" lon="2.395239807665348052978515625">
        <ele>607.5999755859375</ele>
        <time>2022-07-27T09:05:05.000Z</time>
      </trkpt>
      <trkpt lat="42.24323286674916744232177734375" lon="2.39527995698153972625732421875">
        <ele>608.4000244140625</ele>
        <time>2022-07-27T09:05:09.000Z</time>
      </trkpt>
      <trkpt lat="42.24329405464231967926025390625" lon="2.39529915153980255126953125">
        <ele>609.4000244140625</ele>
        <time>2022-07-27T09:05:11.000Z</time>
      </trkpt>
      <trkpt lat="42.2433209605515003204345703125" lon="2.3953077010810375213623046875">
        <ele>609.79998779296875</ele>
        <time>2022-07-27T09:05:12.000Z</time>
      </trkpt>
      <trkpt lat="42.2433958947658538818359375" lon="2.3953127302229404449462890625">
        <ele>610.79998779296875</ele>
        <time>2022-07-27T09:05:15.000Z</time>
      </trkpt>
      <trkpt lat="42.24342213012278079986572265625" lon="2.39531122148036956787109375">
        <ele>611</ele>
        <time>2022-07-27T09:05:16.000Z</time>
      </trkpt>
      <trkpt lat="42.2435284964740276336669921875" lon="2.39530409686267375946044921875">
        <ele>612</ele>
        <time>2022-07-27T09:05:20.000Z</time>
      </trkpt>
      <trkpt lat="42.24355573765933513641357421875" lon="2.3953033424913883209228515625">
        <ele>612.20001220703125</ele>
        <time>2022-07-27T09:05:21.000Z</time>
      </trkpt>
      <trkpt lat="42.2437464259564876556396484375" lon="2.39531784318387508392333984375">
        <ele>613</ele>
        <time>2022-07-27T09:05:28.000Z</time>
      </trkpt>
      <trkpt lat="42.24389051087200641632080078125" lon="2.39533930085599422454833984375">
        <ele>614.20001220703125</ele>
        <time>2022-07-27T09:05:33.000Z</time>
      </trkpt>
      <trkpt lat="42.2440116293728351593017578125" lon="2.3953883349895477294921875">
        <ele>615</ele>
        <time>2022-07-27T09:05:38.000Z</time>
      </trkpt>
      <trkpt lat="42.2440401278436183929443359375" lon="2.39538774825632572174072265625">
        <ele>615.20001220703125</ele>
        <time>2022-07-27T09:05:39.000Z</time>
      </trkpt>
      <trkpt lat="42.24414565600454807281494140625" lon="2.3953600041568279266357421875">
        <ele>616.20001220703125</ele>
        <time>2022-07-27T09:05:43.000Z</time>
      </trkpt>
      <trkpt lat="42.244172058999538421630859375" lon="2.3953516222536563873291015625">
        <ele>616.4000244140625</ele>
        <time>2022-07-27T09:05:44.000Z</time>
      </trkpt>
      <trkpt lat="42.2442982904613018035888671875" lon="2.39525732584297657012939453125">
        <ele>617.20001220703125</ele>
        <time>2022-07-27T09:05:49.000Z</time>
      </trkpt>
      <trkpt lat="42.24432402290403842926025390625" lon="2.3952332697808742523193359375">
        <ele>617.4000244140625</ele>
        <time>2022-07-27T09:05:50.000Z</time>
      </trkpt>
      <trkpt lat="42.24449702538549900054931640625" lon="2.39505381323397159576416015625">
        <ele>618</ele>
        <time>2022-07-27T09:05:57.000Z</time>
      </trkpt>
      <trkpt lat="42.2445319779217243194580078125" lon="2.3949838243424892425537109375">
        <ele>618.4000244140625</ele>
        <time>2022-07-27T09:05:59.000Z</time>
      </trkpt>
      <trkpt lat="42.24456273950636386871337890625" lon="2.39486387930810451507568359375">
        <ele>619</ele>
        <time>2022-07-27T09:06:02.000Z</time>
      </trkpt>
      <trkpt lat="42.244562990963459014892578125" lon="2.39476966671645641326904296875">
        <ele>619.4000244140625</ele>
        <time>2022-07-27T09:06:04.000Z</time>
      </trkpt>
      <trkpt lat="42.24453876726329326629638671875" lon="2.3946455307304859161376953125">
        <ele>620.20001220703125</ele>
        <time>2022-07-27T09:06:07.000Z</time>
      </trkpt>
      <trkpt lat="42.244515381753444671630859375" lon="2.3945700936019420623779296875">
        <ele>620.5999755859375</ele>
        <time>2022-07-27T09:06:09.000Z</time>
      </trkpt>
      <trkpt lat="42.24443583749234676361083984375" lon="2.3944255895912647247314453125">
        <ele>621.20001220703125</ele>
        <time>2022-07-27T09:06:13.000Z</time>
      </trkpt>
      <trkpt lat="42.24436341784894466400146484375" lon="2.3942483961582183837890625">
        <ele>621.5999755859375</ele>
        <time>2022-07-27T09:06:17.000Z</time>
      </trkpt>
      <trkpt lat="42.244311869144439697265625" lon="2.39411202259361743927001953125">
        <ele>622</ele>
        <time>2022-07-27T09:06:20.000Z</time>
      </trkpt>
      <trkpt lat="42.2442610748112201690673828125" lon="2.39391588605940341949462890625">
        <ele>622.5999755859375</ele>
        <time>2022-07-27T09:06:24.000Z</time>
      </trkpt>
      <trkpt lat="42.2442622482776641845703125" lon="2.39381027407944202423095703125">
        <ele>623</ele>
        <time>2022-07-27T09:06:26.000Z</time>
      </trkpt>
      <trkpt lat="42.24430776201188564300537109375" lon="2.39368940703570842742919921875">
        <ele>623.79998779296875</ele>
        <time>2022-07-27T09:06:29.000Z</time>
      </trkpt>
      <trkpt lat="42.2443284653127193450927734375" lon="2.39365898072719573974609375">
        <ele>624</ele>
        <time>2022-07-27T09:06:30.000Z</time>
      </trkpt>
      <trkpt lat="42.2444598935544490814208984375" lon="2.39352897740900516510009765625">
        <ele>624.79998779296875</ele>
        <time>2022-07-27T09:06:36.000Z</time>
      </trkpt>
      <trkpt lat="42.24452669732272624969482421875" lon="2.39344884641468524932861328125">
        <ele>626</ele>
        <time>2022-07-27T09:06:39.000Z</time>
      </trkpt>
      <trkpt lat="42.244585454463958740234375" lon="2.39336033351719379425048828125">
        <ele>627.20001220703125</ele>
        <time>2022-07-27T09:06:42.000Z</time>
      </trkpt>
      <trkpt lat="42.24461118690669536590576171875" lon="2.39328959025442600250244140625">
        <ele>627.5999755859375</ele>
        <time>2022-07-27T09:06:44.000Z</time>
      </trkpt>
      <trkpt lat="42.2446533478796482086181640625" lon="2.3931569047272205352783203125">
        <ele>628.20001220703125</ele>
        <time>2022-07-27T09:06:48.000Z</time>
      </trkpt>
      <trkpt lat="42.244644798338413238525390625" lon="2.3930767737329006195068359375">
        <ele>628.5999755859375</ele>
        <time>2022-07-27T09:06:50.000Z</time>
      </trkpt>
      <trkpt lat="42.24460096098482608795166015625" lon="2.39295129664242267608642578125">
        <ele>629.4000244140625</ele>
        <time>2022-07-27T09:06:53.000Z</time>
      </trkpt>
      <trkpt lat="42.24456064403057098388671875" lon="2.39289178512990474700927734375">
        <ele>629.79998779296875</ele>
        <time>2022-07-27T09:06:55.000Z</time>
      </trkpt>
      <trkpt lat="42.24444002844393253326416015625" lon="2.39274795167148113250732421875">
        <ele>630.20001220703125</ele>
        <time>2022-07-27T09:07:00.000Z</time>
      </trkpt>
      <trkpt lat="42.24440985359251499176025390625" lon="2.3927290923893451690673828125">
        <ele>630.4000244140625</ele>
        <time>2022-07-27T09:07:01.000Z</time>
      </trkpt>
      <trkpt lat="42.24423903040587902069091796875" lon="2.39264032803475856781005859375">
        <ele>631.20001220703125</ele>
        <time>2022-07-27T09:07:06.000Z</time>
      </trkpt>
      <trkpt lat="42.244125120341777801513671875" lon="2.392600513994693756103515625">
        <ele>631.5999755859375</ele>
        <time>2022-07-27T09:07:09.000Z</time>
      </trkpt>
      <trkpt lat="42.24388011731207370758056640625" lon="2.39247369579970836639404296875">
        <ele>632.4000244140625</ele>
        <time>2022-07-27T09:07:16.000Z</time>
      </trkpt>
      <trkpt lat="42.2436270676553249359130859375" lon="2.3923265933990478515625">
        <ele>633</ele>
        <time>2022-07-27T09:07:23.000Z</time>
      </trkpt>
      <trkpt lat="42.24340461194515228271484375" lon="2.39219223149120807647705078125">
        <ele>633.20001220703125</ele>
        <time>2022-07-27T09:07:28.000Z</time>
      </trkpt>
      <trkpt lat="42.2433316893875598907470703125" lon="2.3921292833983898162841796875">
        <ele>633.4000244140625</ele>
        <time>2022-07-27T09:07:30.000Z</time>
      </trkpt>
      <trkpt lat="42.243178300559520721435546875" lon="2.39196717739105224609375">
        <ele>634.79998779296875</ele>
        <time>2022-07-27T09:07:35.000Z</time>
      </trkpt>
      <trkpt lat="42.24312524311244487762451171875" lon="2.39188696257770061492919921875">
        <ele>635.5999755859375</ele>
        <time>2022-07-27T09:07:37.000Z</time>
      </trkpt>
      <trkpt lat="42.2430993430316448211669921875" lon="2.3918442986905574798583984375">
        <ele>636</ele>
        <time>2022-07-27T09:07:38.000Z</time>
      </trkpt>
      <trkpt lat="42.243076376616954803466796875" lon="2.391798533499240875244140625">
        <ele>636.20001220703125</ele>
        <time>2022-07-27T09:07:39.000Z</time>
      </trkpt>
      <trkpt lat="42.2430456988513469696044921875" lon="2.39164070226252079010009765625">
        <ele>637</ele>
        <time>2022-07-27T09:07:42.000Z</time>
      </trkpt>
      <trkpt lat="42.24305802024900913238525390625" lon="2.39158831536769866943359375">
        <ele>637</ele>
        <time>2022-07-27T09:07:43.000Z</time>
      </trkpt>
      <trkpt lat="42.24313429556787014007568359375" lon="2.39146233536303043365478515625">
        <ele>637.20001220703125</ele>
        <time>2022-07-27T09:07:46.000Z</time>
      </trkpt>
      <trkpt lat="42.24316480569541454315185546875" lon="2.39142662845551967620849609375">
        <ele>637.20001220703125</ele>
        <time>2022-07-27T09:07:47.000Z</time>
      </trkpt>
      <trkpt lat="42.24336647428572177886962890625" lon="2.39124809391796588897705078125">
        <ele>637.4000244140625</ele>
        <time>2022-07-27T09:07:53.000Z</time>
      </trkpt>
      <trkpt lat="42.243402265012264251708984375" lon="2.3912213556468486785888671875">
        <ele>637.5999755859375</ele>
        <time>2022-07-27T09:07:54.000Z</time>
      </trkpt>
      <trkpt lat="42.24357702769339084625244140625" lon="2.3910922743380069732666015625">
        <ele>638.20001220703125</ele>
        <time>2022-07-27T09:07:59.000Z</time>
      </trkpt>
      <trkpt lat="42.2436113096773624420166015625" lon="2.3910734988749027252197265625">
        <ele>638.20001220703125</ele>
        <time>2022-07-27T09:08:00.000Z</time>
      </trkpt>
      <trkpt lat="42.2438490204513072967529296875" lon="2.39097140729427337646484375">
        <ele>639.4000244140625</ele>
        <time>2022-07-27T09:08:07.000Z</time>
      </trkpt>
      <trkpt lat="42.24401791580021381378173828125" lon="2.3908740095794200897216796875">
        <ele>640.20001220703125</ele>
        <time>2022-07-27T09:08:13.000Z</time>
      </trkpt>
      <trkpt lat="42.24407709203660488128662109375" lon="2.390855066478252410888671875">
        <ele>640.79998779296875</ele>
        <time>2022-07-27T09:08:15.000Z</time>
      </trkpt>
      <trkpt lat="42.24419611506164073944091796875" lon="2.39084157161414623260498046875">
        <ele>641.20001220703125</ele>
        <time>2022-07-27T09:08:19.000Z</time>
      </trkpt>
      <trkpt lat="42.2442798502743244171142578125" lon="2.39082044921815395355224609375">
        <ele>641.79998779296875</ele>
        <time>2022-07-27T09:08:22.000Z</time>
      </trkpt>
      <trkpt lat="42.244392000138759613037109375" lon="2.3907844908535480499267578125">
        <ele>642.4000244140625</ele>
        <time>2022-07-27T09:08:26.000Z</time>
      </trkpt>
      <trkpt lat="42.24448143504559993743896484375" lon="2.39075406454503536224365234375">
        <ele>643</ele>
        <time>2022-07-27T09:08:29.000Z</time>
      </trkpt>
      <trkpt lat="42.2445111908018589019775390625" lon="2.39073713310062885284423828125">
        <ele>643.4000244140625</ele>
        <time>2022-07-27T09:08:30.000Z</time>
      </trkpt>
      <trkpt lat="42.244637422263622283935546875" lon="2.3907025158405303955078125">
        <ele>644.4000244140625</ele>
        <time>2022-07-27T09:08:34.000Z</time>
      </trkpt>
      <trkpt lat="42.24475719965994358062744140625" lon="2.39067058078944683074951171875">
        <ele>645</ele>
        <time>2022-07-27T09:08:38.000Z</time>
      </trkpt>
      <trkpt lat="42.24483883939683437347412109375" lon="2.39063344895839691162109375">
        <ele>645.4000244140625</ele>
        <time>2022-07-27T09:08:41.000Z</time>
      </trkpt>
      <trkpt lat="42.24491209723055362701416015625" lon="2.3905823193490505218505859375">
        <ele>646</ele>
        <time>2022-07-27T09:08:44.000Z</time>
      </trkpt>
      <trkpt lat="42.2449891269207000732421875" lon="2.390542924404144287109375">
        <ele>646.4000244140625</ele>
        <time>2022-07-27T09:08:47.000Z</time>
      </trkpt>
      <trkpt lat="42.24507990293204784393310546875" lon="2.3905072174966335296630859375">
        <ele>646.79998779296875</ele>
        <time>2022-07-27T09:08:50.000Z</time>
      </trkpt>
      <trkpt lat="42.24513740278780460357666015625" lon="2.39046941511332988739013671875">
        <ele>647.20001220703125</ele>
        <time>2022-07-27T09:08:52.000Z</time>
      </trkpt>
      <trkpt lat="42.2452197968959808349609375" lon="2.3904210515320301055908203125">
        <ele>648.4000244140625</ele>
        <time>2022-07-27T09:08:55.000Z</time>
      </trkpt>
      <trkpt lat="42.24524754099547863006591796875" lon="2.39040504209697246551513671875">
        <ele>648.5999755859375</ele>
        <time>2022-07-27T09:08:56.000Z</time>
      </trkpt>
      <trkpt lat="42.245367653667926788330078125" lon="2.39025299437344074249267578125">
        <ele>649.5999755859375</ele>
        <time>2022-07-27T09:09:01.000Z</time>
      </trkpt>
      <trkpt lat="42.245393134653568267822265625" lon="2.39022265188395977020263671875">
        <ele>649.79998779296875</ele>
        <time>2022-07-27T09:09:02.000Z</time>
      </trkpt>
      <trkpt lat="42.24550268612802028656005859375" lon="2.3900475539267063140869140625">
        <ele>650.5999755859375</ele>
        <time>2022-07-27T09:09:07.000Z</time>
      </trkpt>
      <trkpt lat="42.24552699364721775054931640625" lon="2.3900185525417327880859375">
        <ele>650.5999755859375</ele>
        <time>2022-07-27T09:09:08.000Z</time>
      </trkpt>
      <trkpt lat="42.245615422725677490234375" lon="2.389850579202175140380859375">
        <ele>651.5999755859375</ele>
        <time>2022-07-27T09:09:13.000Z</time>
      </trkpt>
      <trkpt lat="42.245630510151386260986328125" lon="2.38981562666594982147216796875">
        <ele>652</ele>
        <time>2022-07-27T09:09:14.000Z</time>
      </trkpt>
      <trkpt lat="42.2457450069487094879150390625" lon="2.389601804316043853759765625">
        <ele>653.20001220703125</ele>
        <time>2022-07-27T09:09:21.000Z</time>
      </trkpt>
      <trkpt lat="42.24584517069160938262939453125" lon="2.3894350044429302215576171875">
        <ele>654</ele>
        <time>2022-07-27T09:09:27.000Z</time>
      </trkpt>
      <trkpt lat="42.245930917561054229736328125" lon="2.3893521912395954132080078125">
        <ele>654.79998779296875</ele>
        <time>2022-07-27T09:09:31.000Z</time>
      </trkpt>
      <trkpt lat="42.24597257561981678009033203125" lon="2.38931992091238498687744140625">
        <ele>655.20001220703125</ele>
        <time>2022-07-27T09:09:33.000Z</time>
      </trkpt>
      <trkpt lat="42.24599621258676052093505859375" lon="2.38931019790470600128173828125">
        <ele>655.4000244140625</ele>
        <time>2022-07-27T09:09:34.000Z</time>
      </trkpt>
      <trkpt lat="42.24604256451129913330078125" lon="2.38927499391138553619384765625">
        <ele>655.79998779296875</ele>
        <time>2022-07-27T09:09:36.000Z</time>
      </trkpt>
      <trkpt lat="42.24612931720912456512451171875" lon="2.389174662530422210693359375">
        <ele>656.4000244140625</ele>
        <time>2022-07-27T09:09:40.000Z</time>
      </trkpt>
      <trkpt lat="42.246182374656200408935546875" lon="2.38914079964160919189453125">
        <ele>656.5999755859375</ele>
        <time>2022-07-27T09:09:42.000Z</time>
      </trkpt>
      <trkpt lat="42.2462690435349941253662109375" lon="2.3890556395053863525390625">
        <ele>657.20001220703125</ele>
        <time>2022-07-27T09:09:46.000Z</time>
      </trkpt>
      <trkpt lat="42.246307767927646636962890625" lon="2.38902722485363483428955078125">
        <ele>657.4000244140625</ele>
        <time>2022-07-27T09:09:48.000Z</time>
      </trkpt>
      <trkpt lat="42.2463572211563587188720703125" lon="2.38899671472609043121337890625">
        <ele>657.79998779296875</ele>
        <time>2022-07-27T09:09:50.000Z</time>
      </trkpt>
      <trkpt lat="42.24637893028557300567626953125" lon="2.38897307775914669036865234375">
        <ele>658</ele>
        <time>2022-07-27T09:09:51.000Z</time>
      </trkpt>
      <trkpt lat="42.24644129164516925811767578125" lon="2.38891121931374073028564453125">
        <ele>658.5999755859375</ele>
        <time>2022-07-27T09:09:54.000Z</time>
      </trkpt>
      <trkpt lat="42.24647431634366512298583984375" lon="2.38885589875280857086181640625">
        <ele>658.79998779296875</ele>
        <time>2022-07-27T09:09:56.000Z</time>
      </trkpt>
      <trkpt lat="42.24648186005651950836181640625" lon="2.38881985656917095184326171875">
        <ele>659</ele>
        <time>2022-07-27T09:09:57.000Z</time>
      </trkpt>
      <trkpt lat="42.2464956901967525482177734375" lon="2.38874877803027629852294921875">
        <ele>659.4000244140625</ele>
        <time>2022-07-27T09:09:59.000Z</time>
      </trkpt>
      <trkpt lat="42.24649610929191112518310546875" lon="2.38859958015382289886474609375">
        <ele>660.20001220703125</ele>
        <time>2022-07-27T09:10:03.000Z</time>
      </trkpt>
      <trkpt lat="42.246475405991077423095703125" lon="2.3885191977024078369140625">
        <ele>660.4000244140625</ele>
        <time>2022-07-27T09:10:05.000Z</time>
      </trkpt>
      <trkpt lat="42.24645235575735569000244140625" lon="2.38845323212444782257080078125">
        <ele>660.5999755859375</ele>
        <time>2022-07-27T09:10:07.000Z</time>
      </trkpt>
      <trkpt lat="42.24641061387956142425537109375" lon="2.38841366954147815704345703125">
        <ele>661</ele>
        <time>2022-07-27T09:10:09.000Z</time>
      </trkpt>
      <trkpt lat="42.246314473450183868408203125" lon="2.3883681558072566986083984375">
        <ele>661.79998779296875</ele>
        <time>2022-07-27T09:10:13.000Z</time>
      </trkpt>
      <trkpt lat="42.24623258225619792938232421875" lon="2.38835080526769161224365234375">
        <ele>662</ele>
        <time>2022-07-27T09:10:16.000Z</time>
      </trkpt>
      <trkpt lat="42.24614859558641910552978515625" lon="2.38833613693714141845703125">
        <ele>662.5999755859375</ele>
        <time>2022-07-27T09:10:19.000Z</time>
      </trkpt>
      <trkpt lat="42.24598330445587635040283203125" lon="2.388313673436641693115234375">
        <ele>663.79998779296875</ele>
        <time>2022-07-27T09:10:25.000Z</time>
      </trkpt>
      <trkpt lat="42.24584718234837055206298828125" lon="2.38828877918422222137451171875">
        <ele>664.5999755859375</ele>
        <time>2022-07-27T09:10:30.000Z</time>
      </trkpt>
      <trkpt lat="42.245819605886936187744140625" lon="2.38827771507203578948974609375">
        <ele>665</ele>
        <time>2022-07-27T09:10:31.000Z</time>
      </trkpt>
      <trkpt lat="42.24564199335873126983642578125" lon="2.388237230479717254638671875">
        <ele>665.79998779296875</ele>
        <time>2022-07-27T09:10:37.000Z</time>
      </trkpt>
      <trkpt lat="42.2456122376024723052978515625" lon="2.38823429681360721588134765625">
        <ele>666</ele>
        <time>2022-07-27T09:10:38.000Z</time>
      </trkpt>
      <trkpt lat="42.24539975635707378387451171875" lon="2.3882482945919036865234375">
        <ele>666.79998779296875</ele>
        <time>2022-07-27T09:10:45.000Z</time>
      </trkpt>
      <trkpt lat="42.2453366406261920928955078125" lon="2.388255335390567779541015625">
        <ele>667.20001220703125</ele>
        <time>2022-07-27T09:10:47.000Z</time>
      </trkpt>
      <trkpt lat="42.24521216936409473419189453125" lon="2.38824150525033473968505859375">
        <ele>667.79998779296875</ele>
        <time>2022-07-27T09:10:51.000Z</time>
      </trkpt>
      <trkpt lat="42.2450861893594264984130859375" lon="2.388217784464359283447265625">
        <ele>668.79998779296875</ele>
        <time>2022-07-27T09:10:55.000Z</time>
      </trkpt>
      <trkpt lat="42.2450543381273746490478515625" lon="2.38822055049240589141845703125">
        <ele>669</ele>
        <time>2022-07-27T09:10:56.000Z</time>
      </trkpt>
      <trkpt lat="42.2449279390275478363037109375" lon="2.3882350511848926544189453125">
        <ele>670</ele>
        <time>2022-07-27T09:11:00.000Z</time>
      </trkpt>
      <trkpt lat="42.2448655776679515838623046875" lon="2.38823412917554378509521484375">
        <ele>670</ele>
        <time>2022-07-27T09:11:02.000Z</time>
      </trkpt>
      <trkpt lat="42.244788296520709991455078125" lon="2.38819976337254047393798828125">
        <ele>670.5999755859375</ele>
        <time>2022-07-27T09:11:05.000Z</time>
      </trkpt>
      <trkpt lat="42.2447546012699604034423828125" lon="2.3881532438099384307861328125">
        <ele>671.20001220703125</ele>
        <time>2022-07-27T09:11:07.000Z</time>
      </trkpt>
      <trkpt lat="42.2446754761040210723876953125" lon="2.38805023021996021270751953125">
        <ele>672</ele>
        <time>2022-07-27T09:11:11.000Z</time>
      </trkpt>
      <trkpt lat="42.24461294710636138916015625" lon="2.3879675008356571197509765625">
        <ele>672.20001220703125</ele>
        <time>2022-07-27T09:11:14.000Z</time>
      </trkpt>
      <trkpt lat="42.2445178963243961334228515625" lon="2.3878593742847442626953125">
        <ele>673</ele>
        <time>2022-07-27T09:11:18.000Z</time>
      </trkpt>
      <trkpt lat="42.24443818442523479461669921875" lon="2.38778452388942241668701171875">
        <ele>673.4000244140625</ele>
        <time>2022-07-27T09:11:21.000Z</time>
      </trkpt>
      <trkpt lat="42.24431798793375492095947265625" lon="2.38772048614919185638427734375">
        <ele>673.4000244140625</ele>
        <time>2022-07-27T09:11:25.000Z</time>
      </trkpt>
      <trkpt lat="42.24416409619152545928955078125" lon="2.38767421804368495941162109375">
        <ele>674.20001220703125</ele>
        <time>2022-07-27T09:11:30.000Z</time>
      </trkpt>
      <trkpt lat="42.24410089664161205291748046875" lon="2.38766918890178203582763671875">
        <ele>674.4000244140625</ele>
        <time>2022-07-27T09:11:32.000Z</time>
      </trkpt>
      <trkpt lat="42.24394977092742919921875" lon="2.3876188136637210845947265625">
        <ele>675.20001220703125</ele>
        <time>2022-07-27T09:11:37.000Z</time>
      </trkpt>
      <trkpt lat="42.2438966296613216400146484375" lon="2.38757547922432422637939453125">
        <ele>675.5999755859375</ele>
        <time>2022-07-27T09:11:39.000Z</time>
      </trkpt>
      <trkpt lat="42.2438329271972179412841796875" lon="2.38749149255454540252685546875">
        <ele>676.20001220703125</ele>
        <time>2022-07-27T09:11:42.000Z</time>
      </trkpt>
      <trkpt lat="42.24380828440189361572265625" lon="2.38742242567241191864013671875">
        <ele>676.79998779296875</ele>
        <time>2022-07-27T09:11:44.000Z</time>
      </trkpt>
      <trkpt lat="42.2437816299498081207275390625" lon="2.38735578954219818115234375">
        <ele>677.20001220703125</ele>
        <time>2022-07-27T09:11:46.000Z</time>
      </trkpt>
      <trkpt lat="42.2437675483524799346923828125" lon="2.38728965632617473602294921875">
        <ele>677.79998779296875</ele>
        <time>2022-07-27T09:11:49.000Z</time>
      </trkpt>
      <trkpt lat="42.24376696161925792694091796875" lon="2.38728529773652553558349609375">
        <ele>678.4000244140625</ele>
        <time>2022-07-27T09:11:51.000Z</time>
      </trkpt>
      <trkpt lat="42.24375992082059383392333984375" lon="2.38728211261332035064697265625">
        <ele>679</ele>
        <time>2022-07-27T09:11:54.000Z</time>
      </trkpt>
      <trkpt lat="42.24376671016216278076171875" lon="2.387273311614990234375">
        <ele>679.4000244140625</ele>
        <time>2022-07-27T09:11:57.000Z</time>
      </trkpt>
      <trkpt lat="42.243769057095050811767578125" lon="2.387274317443370819091796875">
        <ele>679.79998779296875</ele>
        <time>2022-07-27T09:12:02.000Z</time>
      </trkpt>
      <trkpt lat="42.24377869628369808197021484375" lon="2.38727532327175140380859375">
        <ele>679.5999755859375</ele>
        <time>2022-07-27T09:12:14.000Z</time>
      </trkpt>
      <trkpt lat="42.243802584707736968994140625" lon="2.38728211261332035064697265625">
        <ele>679.5999755859375</ele>
        <time>2022-07-27T09:12:16.000Z</time>
      </trkpt>
      <trkpt lat="42.24391431547701358795166015625" lon="2.3872718028724193572998046875">
        <ele>679.5999755859375</ele>
        <time>2022-07-27T09:12:21.000Z</time>
      </trkpt>
      <trkpt lat="42.244018502533435821533203125" lon="2.38734581507742404937744140625">
        <ele>679.5999755859375</ele>
        <time>2022-07-27T09:12:25.000Z</time>
      </trkpt>
      <trkpt lat="42.24404029548168182373046875" lon="2.3873727209866046905517578125">
        <ele>679.5999755859375</ele>
        <time>2022-07-27T09:12:26.000Z</time>
      </trkpt>
      <trkpt lat="42.24415303207933902740478515625" lon="2.38749082200229167938232421875">
        <ele>679.5999755859375</ele>
        <time>2022-07-27T09:12:31.000Z</time>
      </trkpt>
      <trkpt lat="42.2443009726703166961669921875" lon="2.3875785805284976959228515625">
        <ele>680.79998779296875</ele>
        <time>2022-07-27T09:12:36.000Z</time>
      </trkpt>
      <trkpt lat="42.2443378530442714691162109375" lon="2.387592159211635589599609375">
        <ele>681.20001220703125</ele>
        <time>2022-07-27T09:12:37.000Z</time>
      </trkpt>
      <trkpt lat="42.24440314806997776031494140625" lon="2.3876285366714000701904296875">
        <ele>682</ele>
        <time>2022-07-27T09:12:39.000Z</time>
      </trkpt>
      <trkpt lat="42.244507335126399993896484375" lon="2.38772518001496791839599609375">
        <ele>682.79998779296875</ele>
        <time>2022-07-27T09:12:43.000Z</time>
      </trkpt>
      <trkpt lat="42.2445360012352466583251953125" lon="2.38776256330311298370361328125">
        <ele>683</ele>
        <time>2022-07-27T09:12:44.000Z</time>
      </trkpt>
      <trkpt lat="42.24460800178349018096923828125" lon="2.38785007037222385406494140625">
        <ele>684.20001220703125</ele>
        <time>2022-07-27T09:12:47.000Z</time>
      </trkpt>
      <trkpt lat="42.2446697764098644256591796875" lon="2.38790891133248805999755859375">
        <ele>684.5999755859375</ele>
        <time>2022-07-27T09:12:49.000Z</time>
      </trkpt>
      <trkpt lat="42.24478687159717082977294921875" lon="2.3879561014473438262939453125">
        <ele>685.20001220703125</ele>
        <time>2022-07-27T09:12:53.000Z</time>
      </trkpt>
      <trkpt lat="42.24481620825827121734619140625" lon="2.38796272315084934234619140625">
        <ele>685.4000244140625</ele>
        <time>2022-07-27T09:12:54.000Z</time>
      </trkpt>
      <trkpt lat="42.245042435824871063232421875" lon="2.38797915168106555938720703125">
        <ele>685.79998779296875</ele>
        <time>2022-07-27T09:13:01.000Z</time>
      </trkpt>
      <trkpt lat="42.2446074150502681732177734375" lon="2.3877653293311595916748046875">
        <ele>685.4000244140625</ele>
        <time>2022-07-27T09:19:02.000Z</time>
      </trkpt>
      <trkpt lat="42.24438638426363468170166015625" lon="2.387576736509799957275390625">
        <ele>685</ele>
        <time>2022-07-27T09:19:06.000Z</time>
      </trkpt>
      <trkpt lat="42.2443224303424358367919921875" lon="2.3875267803668975830078125">
        <ele>684.79998779296875</ele>
        <time>2022-07-27T09:19:07.000Z</time>
      </trkpt>
      <trkpt lat="42.2440718114376068115234375" lon="2.3872845433652400970458984375">
        <ele>684.4000244140625</ele>
        <time>2022-07-27T09:19:11.000Z</time>
      </trkpt>
      <trkpt lat="42.24400634877383708953857421875" lon="2.38724607042968273162841796875">
        <ele>683.79998779296875</ele>
        <time>2022-07-27T09:19:12.000Z</time>
      </trkpt>
      <trkpt lat="42.24388246424496173858642578125" lon="2.38724238239228725433349609375">
        <ele>682.79998779296875</ele>
        <time>2022-07-27T09:19:14.000Z</time>
      </trkpt>
      <trkpt lat="42.24381498992443084716796875" lon="2.3873448930680751800537109375">
        <ele>682</ele>
        <time>2022-07-27T09:19:16.000Z</time>
      </trkpt>
      <trkpt lat="42.24387324415147304534912109375" lon="2.38753574900329113006591796875">
        <ele>681.79998779296875</ele>
        <time>2022-07-27T09:19:19.000Z</time>
      </trkpt>
      <trkpt lat="42.24394080229103565216064453125" lon="2.387576401233673095703125">
        <ele>681.20001220703125</ele>
        <time>2022-07-27T09:19:20.000Z</time>
      </trkpt>
      <trkpt lat="42.24408916197717189788818359375" lon="2.387617640197277069091796875">
        <ele>680.20001220703125</ele>
        <time>2022-07-27T09:19:22.000Z</time>
      </trkpt>
      <trkpt lat="42.24416946060955524444580078125" lon="2.38764144480228424072265625">
        <ele>679.4000244140625</ele>
        <time>2022-07-27T09:19:23.000Z</time>
      </trkpt>
      <trkpt lat="42.2442510165274143218994140625" lon="2.38766835071146488189697265625">
        <ele>678.5999755859375</ele>
        <time>2022-07-27T09:19:24.000Z</time>
      </trkpt>
      <trkpt lat="42.24440105259418487548828125" lon="2.3877472244203090667724609375">
        <ele>677.4000244140625</ele>
        <time>2022-07-27T09:19:26.000Z</time>
      </trkpt>
      <trkpt lat="42.2445195727050304412841796875" lon="2.387869097292423248291015625">
        <ele>675.5999755859375</ele>
        <time>2022-07-27T09:19:28.000Z</time>
      </trkpt>
      <trkpt lat="42.2446181438863277435302734375" lon="2.3879879526793956756591796875">
        <ele>674</ele>
        <time>2022-07-27T09:19:30.000Z</time>
      </trkpt>
      <trkpt lat="42.24470254965126514434814453125" lon="2.38809800706803798675537109375">
        <ele>673</ele>
        <time>2022-07-27T09:19:32.000Z</time>
      </trkpt>
      <trkpt lat="42.2447660006582736968994140625" lon="2.38816942088305950164794921875">
        <ele>672.79998779296875</ele>
        <time>2022-07-27T09:19:34.000Z</time>
      </trkpt>
      <trkpt lat="42.2448307089507579803466796875" lon="2.38823161460459232330322265625">
        <ele>672.79998779296875</ele>
        <time>2022-07-27T09:19:38.000Z</time>
      </trkpt>
      <trkpt lat="42.24483632482588291168212890625" lon="2.38822080194950103759765625">
        <ele>672.5999755859375</ele>
        <time>2022-07-27T09:19:42.000Z</time>
      </trkpt>
      <trkpt lat="42.24475166760385036468505859375" lon="2.38813974894583225250244140625">
        <ele>672.5999755859375</ele>
        <time>2022-07-27T09:19:45.000Z</time>
      </trkpt>
      <trkpt lat="42.24462443031370639801025390625" lon="2.3879534192383289337158203125">
        <ele>672.79998779296875</ele>
        <time>2022-07-27T09:19:49.000Z</time>
      </trkpt>
      <trkpt lat="42.24455033428966999053955078125" lon="2.3878669179975986480712890625">
        <ele>672.79998779296875</ele>
        <time>2022-07-27T09:19:51.000Z</time>
      </trkpt>
      <trkpt lat="42.24443617276847362518310546875" lon="2.387757115066051483154296875">
        <ele>673</ele>
        <time>2022-07-27T09:19:54.000Z</time>
      </trkpt>
      <trkpt lat="42.244340367615222930908203125" lon="2.38771327771246433258056640625">
        <ele>673</ele>
        <time>2022-07-27T09:19:56.000Z</time>
      </trkpt>
      <trkpt lat="42.24423953332006931304931640625" lon="2.3876905627548694610595703125">
        <ele>673</ele>
        <time>2022-07-27T09:19:58.000Z</time>
      </trkpt>
      <trkpt lat="42.2440900839865207672119140625" lon="2.38766348920762538909912109375">
        <ele>674</ele>
        <time>2022-07-27T09:20:01.000Z</time>
      </trkpt>
      <trkpt lat="42.24404088221490383148193359375" lon="2.38764823414385318756103515625">
        <ele>674.4000244140625</ele>
        <time>2022-07-27T09:20:02.000Z</time>
      </trkpt>
      <trkpt lat="42.2438714839518070220947265625" lon="2.38751211203634738922119140625">
        <ele>675</ele>
        <time>2022-07-27T09:20:06.000Z</time>
      </trkpt>
      <trkpt lat="42.243842817842960357666015625" lon="2.38733860664069652557373046875">
        <ele>675.4000244140625</ele>
        <time>2022-07-27T09:20:09.000Z</time>
      </trkpt>
      <trkpt lat="42.24390123970806598663330078125" lon="2.38726769573986530303955078125">
        <ele>676.20001220703125</ele>
        <time>2022-07-27T09:20:11.000Z</time>
      </trkpt>
      <trkpt lat="42.24394264630973339080810546875" lon="2.38726325333118438720703125">
        <ele>676.5999755859375</ele>
        <time>2022-07-27T09:20:12.000Z</time>
      </trkpt>
      <trkpt lat="42.24398195743560791015625" lon="2.3872724734246730804443359375">
        <ele>677.20001220703125</ele>
        <time>2022-07-27T09:20:13.000Z</time>
      </trkpt>
      <trkpt lat="42.2440458275377750396728515625" lon="2.38732469268143177032470703125">
        <ele>678.20001220703125</ele>
        <time>2022-07-27T09:20:15.000Z</time>
      </trkpt>
      <trkpt lat="42.24407759495079517364501953125" lon="2.38735319115221500396728515625">
        <ele>678.4000244140625</ele>
        <time>2022-07-27T09:20:16.000Z</time>
      </trkpt>
      <trkpt lat="42.2441819496452808380126953125" lon="2.38747707568109035491943359375">
        <ele>679.4000244140625</ele>
        <time>2022-07-27T09:20:20.000Z</time>
      </trkpt>
      <trkpt lat="42.244234420359134674072265625" lon="2.38753155805170536041259765625">
        <ele>679.4000244140625</ele>
        <time>2022-07-27T09:20:22.000Z</time>
      </trkpt>
      <trkpt lat="42.24426685832440853118896484375" lon="2.3875536024570465087890625">
        <ele>679.5999755859375</ele>
        <time>2022-07-27T09:20:23.000Z</time>
      </trkpt>
      <trkpt lat="42.24437112919986248016357421875" lon="2.3876152932643890380859375">
        <ele>680.79998779296875</ele>
        <time>2022-07-27T09:20:26.000Z</time>
      </trkpt>
      <trkpt lat="42.24450565874576568603515625" lon="2.38771118223667144775390625">
        <ele>681.79998779296875</ele>
        <time>2022-07-27T09:20:30.000Z</time>
      </trkpt>
      <trkpt lat="42.24459559656679630279541015625" lon="2.38780681975185871124267578125">
        <ele>683</ele>
        <time>2022-07-27T09:20:33.000Z</time>
      </trkpt>
      <trkpt lat="42.244661562144756317138671875" lon="2.38789985887706279754638671875">
        <ele>683.5999755859375</ele>
        <time>2022-07-27T09:20:35.000Z</time>
      </trkpt>
      <trkpt lat="42.2447002865374088287353515625" lon="2.38792953081429004669189453125">
        <ele>684</ele>
        <time>2022-07-27T09:20:36.000Z</time>
      </trkpt>
      <trkpt lat="42.24474496208131313323974609375" lon="2.38795199431478977203369140625">
        <ele>684.4000244140625</ele>
        <time>2022-07-27T09:20:37.000Z</time>
      </trkpt>
      <trkpt lat="42.24483850412070751190185546875" lon="2.38797294907271862030029296875">
        <ele>684.79998779296875</ele>
        <time>2022-07-27T09:20:39.000Z</time>
      </trkpt>
      <trkpt lat="42.2448830120265483856201171875" lon="2.387977726757526397705078125">
        <ele>685</ele>
        <time>2022-07-27T09:20:40.000Z</time>
      </trkpt>
      <trkpt lat="42.24520177580416202545166015625" lon="2.38804922439157962799072265625">
        <ele>693.5999755859375</ele>
        <time>2022-07-27T09:49:27.000Z</time>
      </trkpt>
      <trkpt lat="42.24535332061350345611572265625" lon="2.38798602484166622161865234375">
        <ele>693.5999755859375</ele>
        <time>2022-07-27T09:49:34.000Z</time>
      </trkpt>
      <trkpt lat="42.2455723397433757781982421875" lon="2.38791100680828094482421875">
        <ele>693.4000244140625</ele>
        <time>2022-07-27T09:49:40.000Z</time>
      </trkpt>
      <trkpt lat="42.24578482098877429962158203125" lon="2.38788954913616180419921875">
        <ele>693.4000244140625</ele>
        <time>2022-07-27T09:49:46.000Z</time>
      </trkpt>
      <trkpt lat="42.2459867410361766815185546875" lon="2.3878759704530239105224609375">
        <ele>693.5999755859375</ele>
        <time>2022-07-27T09:49:52.000Z</time>
      </trkpt>
      <trkpt lat="42.24615194834768772125244140625" lon="2.387876808643341064453125">
        <ele>695</ele>
        <time>2022-07-27T09:49:57.000Z</time>
      </trkpt>
      <trkpt lat="42.24621447734534740447998046875" lon="2.38787555135786533355712890625">
        <ele>695.20001220703125</ele>
        <time>2022-07-27T09:49:59.000Z</time>
      </trkpt>
      <trkpt lat="42.24636568687856197357177734375" lon="2.38786406815052032470703125">
        <ele>696.20001220703125</ele>
        <time>2022-07-27T09:50:04.000Z</time>
      </trkpt>
      <trkpt lat="42.24644531495869159698486328125" lon="2.38785493187606334686279296875">
        <ele>696.79998779296875</ele>
        <time>2022-07-27T09:50:07.000Z</time>
      </trkpt>
      <trkpt lat="42.2465030662715435028076171875" lon="2.38785174675285816192626953125">
        <ele>697.20001220703125</ele>
        <time>2022-07-27T09:50:09.000Z</time>
      </trkpt>
      <trkpt lat="42.24661932326853275299072265625" lon="2.3878514952957630157470703125">
        <ele>698.4000244140625</ele>
        <time>2022-07-27T09:50:13.000Z</time>
      </trkpt>
      <trkpt lat="42.2467095963656902313232421875" lon="2.38787337206304073333740234375">
        <ele>699</ele>
        <time>2022-07-27T09:50:16.000Z</time>
      </trkpt>
      <trkpt lat="42.24676768295466899871826171875" lon="2.38789030350744724273681640625">
        <ele>699.4000244140625</ele>
        <time>2022-07-27T09:50:18.000Z</time>
      </trkpt>
      <trkpt lat="42.2469261847436428070068359375" lon="2.3879237473011016845703125">
        <ele>700.4000244140625</ele>
        <time>2022-07-27T09:50:23.000Z</time>
      </trkpt>
      <trkpt lat="42.24695594049990177154541015625" lon="2.3879279382526874542236328125">
        <ele>700.5999755859375</ele>
        <time>2022-07-27T09:50:24.000Z</time>
      </trkpt>
      <trkpt lat="42.2470331378281116485595703125" lon="2.3879564367234706878662109375">
        <ele>701.79998779296875</ele>
        <time>2022-07-27T09:50:27.000Z</time>
      </trkpt>
      <trkpt lat="42.24713849835097789764404296875" lon="2.38804268650710582733154296875">
        <ele>702.5999755859375</ele>
        <time>2022-07-27T09:50:30.000Z</time>
      </trkpt>
      <trkpt lat="42.24716833792626857757568359375" lon="2.3880828358232975006103515625">
        <ele>702.79998779296875</ele>
        <time>2022-07-27T09:50:31.000Z</time>
      </trkpt>
      <trkpt lat="42.24723036400973796844482421875" lon="2.38825608976185321807861328125">
        <ele>703.79998779296875</ele>
        <time>2022-07-27T09:50:35.000Z</time>
      </trkpt>
      <trkpt lat="42.24722986109554767608642578125" lon="2.38829565234482288360595703125">
        <ele>704</ele>
        <time>2022-07-27T09:50:36.000Z</time>
      </trkpt>
      <trkpt lat="42.247174791991710662841796875" lon="2.3885138332843780517578125">
        <ele>705.20001220703125</ele>
        <time>2022-07-27T09:50:42.000Z</time>
      </trkpt>
      <trkpt lat="42.24711184389889240264892578125" lon="2.38869379274547100067138671875">
        <ele>706.20001220703125</ele>
        <time>2022-07-27T09:50:47.000Z</time>
      </trkpt>
      <trkpt lat="42.2470772266387939453125" lon="2.38880577497184276580810546875">
        <ele>706.5999755859375</ele>
        <time>2022-07-27T09:50:50.000Z</time>
      </trkpt>
      <trkpt lat="42.2470485605299472808837890625" lon="2.38892412744462490081787109375">
        <ele>707.20001220703125</ele>
        <time>2022-07-27T09:50:53.000Z</time>
      </trkpt>
      <trkpt lat="42.24700489081442356109619140625" lon="2.3891164921224117279052734375">
        <ele>708.4000244140625</ele>
        <time>2022-07-27T09:50:58.000Z</time>
      </trkpt>
      <trkpt lat="42.24693196825683116912841796875" lon="2.3892970383167266845703125">
        <ele>709.5999755859375</ele>
        <time>2022-07-27T09:51:03.000Z</time>
      </trkpt>
      <trkpt lat="42.24689609371125698089599609375" lon="2.389363758265972137451171875">
        <ele>709.79998779296875</ele>
        <time>2022-07-27T09:51:05.000Z</time>
      </trkpt>
      <trkpt lat="42.246777825057506561279296875" lon="2.38957573659718036651611328125">
        <ele>710.79998779296875</ele>
        <time>2022-07-27T09:51:11.000Z</time>
      </trkpt>
      <trkpt lat="42.24672158248722553253173828125" lon="2.38968302495777606964111328125">
        <ele>711</ele>
        <time>2022-07-27T09:51:14.000Z</time>
      </trkpt>
      <trkpt lat="42.24666156806051731109619140625" lon="2.3898400180041790008544921875">
        <ele>711.79998779296875</ele>
        <time>2022-07-27T09:51:18.000Z</time>
      </trkpt>
      <trkpt lat="42.2465717978775501251220703125" lon="2.3900091648101806640625">
        <ele>712.79998779296875</ele>
        <time>2022-07-27T09:51:23.000Z</time>
      </trkpt>
      <trkpt lat="42.2465501725673675537109375" lon="2.39003707654774188995361328125">
        <ele>713</ele>
        <time>2022-07-27T09:51:24.000Z</time>
      </trkpt>
      <trkpt lat="42.24641379900276660919189453125" lon="2.3901982605457305908203125">
        <ele>714</ele>
        <time>2022-07-27T09:51:30.000Z</time>
      </trkpt>
      <trkpt lat="42.24637038074433803558349609375" lon="2.390247881412506103515625">
        <ele>714.4000244140625</ele>
        <time>2022-07-27T09:51:32.000Z</time>
      </trkpt>
      <trkpt lat="42.24622621200978755950927734375" lon="2.39039783366024494171142578125">
        <ele>715.20001220703125</ele>
        <time>2022-07-27T09:51:38.000Z</time>
      </trkpt>
      <trkpt lat="42.2460762597620487213134765625" lon="2.3905917070806026458740234375">
        <ele>716.20001220703125</ele>
        <time>2022-07-27T09:51:45.000Z</time>
      </trkpt>
      <trkpt lat="42.24605522118508815765380859375" lon="2.3906259052455425262451171875">
        <ele>716.4000244140625</ele>
        <time>2022-07-27T09:51:46.000Z</time>
      </trkpt>
      <trkpt lat="42.24594005383551120758056640625" lon="2.39083729684352874755859375">
        <ele>717.79998779296875</ele>
        <time>2022-07-27T09:51:52.000Z</time>
      </trkpt>
      <trkpt lat="42.245922200381755828857421875" lon="2.39087308757007122039794921875">
        <ele>717.79998779296875</ele>
        <time>2022-07-27T09:51:53.000Z</time>
      </trkpt>
      <trkpt lat="42.24583058618009090423583984375" lon="2.39104290492832660675048828125">
        <ele>718.79998779296875</ele>
        <time>2022-07-27T09:51:58.000Z</time>
      </trkpt>
      <trkpt lat="42.24577224813401699066162109375" lon="2.39113963209092617034912109375">
        <ele>719.20001220703125</ele>
        <time>2022-07-27T09:52:01.000Z</time>
      </trkpt>
      <trkpt lat="42.24571022205054759979248046875" lon="2.3912367783486843109130859375">
        <ele>720</ele>
        <time>2022-07-27T09:52:04.000Z</time>
      </trkpt>
      <trkpt lat="42.2455914504826068878173828125" lon="2.39143182523548603057861328125">
        <ele>720.79998779296875</ele>
        <time>2022-07-27T09:52:10.000Z</time>
      </trkpt>
      <trkpt lat="42.24557426758110523223876953125" lon="2.391467280685901641845703125">
        <ele>721</ele>
        <time>2022-07-27T09:52:11.000Z</time>
      </trkpt>
      <trkpt lat="42.245541997253894805908203125" lon="2.39162695594131946563720703125">
        <ele>722.20001220703125</ele>
        <time>2022-07-27T09:52:15.000Z</time>
      </trkpt>
      <trkpt lat="42.24561735056340694427490234375" lon="2.3918077535927295684814453125">
        <ele>723.4000244140625</ele>
        <time>2022-07-27T09:52:20.000Z</time>
      </trkpt>
      <trkpt lat="42.24576101638376712799072265625" lon="2.39192602224647998809814453125">
        <ele>724.5999755859375</ele>
        <time>2022-07-27T09:52:25.000Z</time>
      </trkpt>
      <trkpt lat="42.24581994116306304931640625" lon="2.39197547547519207000732421875">
        <ele>724.79998779296875</ele>
        <time>2022-07-27T09:52:27.000Z</time>
      </trkpt>
      <trkpt lat="42.24607852287590503692626953125" lon="2.39217278547585010528564453125">
        <ele>725.5999755859375</ele>
        <time>2022-07-27T09:52:35.000Z</time>
      </trkpt>
      <trkpt lat="42.24611230194568634033203125" lon="2.39219374023377895355224609375">
        <ele>725.79998779296875</ele>
        <time>2022-07-27T09:52:36.000Z</time>
      </trkpt>
      <trkpt lat="42.2463060915470123291015625" lon="2.39231125451624393463134765625">
        <ele>727</ele>
        <time>2022-07-27T09:52:42.000Z</time>
      </trkpt>
      <trkpt lat="42.24636451341211795806884765625" lon="2.392355091869831085205078125">
        <ele>727.4000244140625</ele>
        <time>2022-07-27T09:52:44.000Z</time>
      </trkpt>
      <trkpt lat="42.24645151756703853607177734375" lon="2.3924444429576396942138671875">
        <ele>728.20001220703125</ele>
        <time>2022-07-27T09:52:47.000Z</time>
      </trkpt>
      <trkpt lat="42.246520332992076873779296875" lon="2.3925530724227428436279296875">
        <ele>729</ele>
        <time>2022-07-27T09:52:50.000Z</time>
      </trkpt>
      <trkpt lat="42.24656232632696628570556640625" lon="2.39267620258033275604248046875">
        <ele>729.4000244140625</ele>
        <time>2022-07-27T09:52:53.000Z</time>
      </trkpt>
      <trkpt lat="42.24657875485718250274658203125" lon="2.3928139172494411468505859375">
        <ele>730</ele>
        <time>2022-07-27T09:52:56.000Z</time>
      </trkpt>
      <trkpt lat="42.24656559526920318603515625" lon="2.39290888421237468719482421875">
        <ele>730.4000244140625</ele>
        <time>2022-07-27T09:52:58.000Z</time>
      </trkpt>
      <trkpt lat="42.24650633521378040313720703125" lon="2.39307216368615627288818359375">
        <ele>731.5999755859375</ele>
        <time>2022-07-27T09:53:02.000Z</time>
      </trkpt>
      <trkpt lat="42.2464148886501789093017578125" lon="2.393263019621372222900390625">
        <ele>732.5999755859375</ele>
        <time>2022-07-27T09:53:07.000Z</time>
      </trkpt>
      <trkpt lat="42.24636535160243511199951171875" lon="2.3933835513889789581298828125">
        <ele>733</ele>
        <time>2022-07-27T09:53:10.000Z</time>
      </trkpt>
      <trkpt lat="42.24633383564651012420654296875" lon="2.39346711896359920501708984375">
        <ele>733.4000244140625</ele>
        <time>2022-07-27T09:53:12.000Z</time>
      </trkpt>
      <trkpt lat="42.2462760843336582183837890625" lon="2.393647246062755584716796875">
        <ele>734.5999755859375</ele>
        <time>2022-07-27T09:53:16.000Z</time>
      </trkpt>
      <trkpt lat="42.24624297581613063812255859375" lon="2.39374120719730854034423828125">
        <ele>735</ele>
        <time>2022-07-27T09:53:18.000Z</time>
      </trkpt>
      <trkpt lat="42.246194779872894287109375" lon="2.39392644725739955902099609375">
        <ele>736</ele>
        <time>2022-07-27T09:53:22.000Z</time>
      </trkpt>
      <trkpt lat="42.24618514068424701690673828125" lon="2.39402149803936481475830078125">
        <ele>736.5999755859375</ele>
        <time>2022-07-27T09:53:24.000Z</time>
      </trkpt>
      <trkpt lat="42.246197797358036041259765625" lon="2.39416533149778842926025390625">
        <ele>737.20001220703125</ele>
        <time>2022-07-27T09:53:27.000Z</time>
      </trkpt>
      <trkpt lat="42.24623342044651508331298828125" lon="2.39430430345237255096435546875">
        <ele>737.79998779296875</ele>
        <time>2022-07-27T09:53:30.000Z</time>
      </trkpt>
      <trkpt lat="42.24628907628357410430908203125" lon="2.3944433592259883880615234375">
        <ele>738.20001220703125</ele>
        <time>2022-07-27T09:53:33.000Z</time>
      </trkpt>
      <trkpt lat="42.24634355865418910980224609375" lon="2.3946294374763965606689453125">
        <ele>739</ele>
        <time>2022-07-27T09:53:37.000Z</time>
      </trkpt>
      <trkpt lat="42.2463508509099483489990234375" lon="2.39467511884868144989013671875">
        <ele>739.20001220703125</ele>
        <time>2022-07-27T09:53:38.000Z</time>
      </trkpt>
      <trkpt lat="42.246371805667877197265625" lon="2.39489673636853694915771484375">
        <ele>740.4000244140625</ele>
        <time>2022-07-27T09:53:43.000Z</time>
      </trkpt>
      <trkpt lat="42.24637306295335292816162109375" lon="2.39498667418956756591796875">
        <ele>740.79998779296875</ele>
        <time>2022-07-27T09:53:45.000Z</time>
      </trkpt>
      <trkpt lat="42.24636082537472248077392578125" lon="2.39521642215549945831298828125">
        <ele>741.5999755859375</ele>
        <time>2022-07-27T09:53:50.000Z</time>
      </trkpt>
      <trkpt lat="42.24635428749024868011474609375" lon="2.39530594088137149810791015625">
        <ele>742.20001220703125</ele>
        <time>2022-07-27T09:53:52.000Z</time>
      </trkpt>
      <trkpt lat="42.24633894860744476318359375" lon="2.395469807088375091552734375">
        <ele>743</ele>
        <time>2022-07-27T09:53:56.000Z</time>
      </trkpt>
      <trkpt lat="42.24633249454200267791748046875" lon="2.39560081623494625091552734375">
        <ele>743.4000244140625</ele>
        <time>2022-07-27T09:53:59.000Z</time>
      </trkpt>
      <trkpt lat="42.24633802659809589385986328125" lon="2.39574842154979705810546875">
        <ele>744.20001220703125</ele>
        <time>2022-07-27T09:54:02.000Z</time>
      </trkpt>
      <trkpt lat="42.24638295359909534454345703125" lon="2.39588764496147632598876953125">
        <ele>744.79998779296875</ele>
        <time>2022-07-27T09:54:05.000Z</time>
      </trkpt>
      <trkpt lat="42.2464407049119472503662109375" lon="2.39595000632107257843017578125">
        <ele>745</ele>
        <time>2022-07-27T09:54:07.000Z</time>
      </trkpt>
      <trkpt lat="42.246509604156017303466796875" lon="2.3959769122302532196044921875">
        <ele>745.5999755859375</ele>
        <time>2022-07-27T09:54:09.000Z</time>
      </trkpt>
      <trkpt lat="42.24657422862946987152099609375" lon="2.395963333547115325927734375">
        <ele>746.20001220703125</ele>
        <time>2022-07-27T09:54:11.000Z</time>
      </trkpt>
      <trkpt lat="42.24663340486586093902587890625" lon="2.395931817591190338134765625">
        <ele>746.5999755859375</ele>
        <time>2022-07-27T09:54:13.000Z</time>
      </trkpt>
      <trkpt lat="42.24671957083046436309814453125" lon="2.3958860523998737335205078125">
        <ele>747.4000244140625</ele>
        <time>2022-07-27T09:54:16.000Z</time>
      </trkpt>
      <trkpt lat="42.24685954861342906951904296875" lon="2.39582352340221405029296875">
        <ele>748.4000244140625</ele>
        <time>2022-07-27T09:54:21.000Z</time>
      </trkpt>
      <trkpt lat="42.246883101761341094970703125" lon="2.3958099447190761566162109375">
        <ele>748.4000244140625</ele>
        <time>2022-07-27T09:54:22.000Z</time>
      </trkpt>
      <trkpt lat="42.2470566071569919586181640625" lon="2.39574951119720935821533203125">
        <ele>749.4000244140625</ele>
        <time>2022-07-27T09:54:28.000Z</time>
      </trkpt>
      <trkpt lat="42.2470866143703460693359375" lon="2.39573894999921321868896484375">
        <ele>749.5999755859375</ele>
        <time>2022-07-27T09:54:29.000Z</time>
      </trkpt>
      <trkpt lat="42.24720521830022335052490234375" lon="2.3956672847270965576171875">
        <ele>750.79998779296875</ele>
        <time>2022-07-27T09:54:34.000Z</time>
      </trkpt>
      <trkpt lat="42.247308902442455291748046875" lon="2.3955252952873706817626953125">
        <ele>751.5999755859375</ele>
        <time>2022-07-27T09:54:39.000Z</time>
      </trkpt>
      <trkpt lat="42.2473224811255931854248046875" lon="2.39548799581825733184814453125">
        <ele>751.79998779296875</ele>
        <time>2022-07-27T09:54:40.000Z</time>
      </trkpt>
      <trkpt lat="42.2473764605820178985595703125" lon="2.39532555453479290008544921875">
        <ele>752.79998779296875</ele>
        <time>2022-07-27T09:54:44.000Z</time>
      </trkpt>
      <trkpt lat="42.24738777615129947662353515625" lon="2.3952825553715229034423828125">
        <ele>753</ele>
        <time>2022-07-27T09:54:45.000Z</time>
      </trkpt>
      <trkpt lat="42.24744376726448535919189453125" lon="2.3950277455151081085205078125">
        <ele>754.20001220703125</ele>
        <time>2022-07-27T09:54:51.000Z</time>
      </trkpt>
      <trkpt lat="42.247541584074497222900390625" lon="2.39483781158924102783203125">
        <ele>754.5999755859375</ele>
        <time>2022-07-27T09:54:56.000Z</time>
      </trkpt>
      <trkpt lat="42.24760805256664752960205078125" lon="2.39473211579024791717529296875">
        <ele>755.20001220703125</ele>
        <time>2022-07-27T09:54:59.000Z</time>
      </trkpt>
      <trkpt lat="42.24763638339936733245849609375" lon="2.39466078579425811767578125">
        <ele>755.5999755859375</ele>
        <time>2022-07-27T09:55:01.000Z</time>
      </trkpt>
      <trkpt lat="42.24768801592290401458740234375" lon="2.394510246813297271728515625">
        <ele>756.4000244140625</ele>
        <time>2022-07-27T09:55:05.000Z</time>
      </trkpt>
      <trkpt lat="42.24769237451255321502685546875" lon="2.39446741528809070587158203125">
        <ele>756.5999755859375</ele>
        <time>2022-07-27T09:55:06.000Z</time>
      </trkpt>
      <trkpt lat="42.24768868647515773773193359375" lon="2.3942653276026248931884765625">
        <ele>757.4000244140625</ele>
        <time>2022-07-27T09:55:11.000Z</time>
      </trkpt>
      <trkpt lat="42.24764920771121978759765625" lon="2.39398486912250518798828125">
        <ele>758.20001220703125</ele>
        <time>2022-07-27T09:55:18.000Z</time>
      </trkpt>
      <trkpt lat="42.24766186438500881195068359375" lon="2.39390465430915355682373046875">
        <ele>758.5999755859375</ele>
        <time>2022-07-27T09:55:20.000Z</time>
      </trkpt>
      <trkpt lat="42.24771299399435520172119140625" lon="2.39375445060431957244873046875">
        <ele>759</ele>
        <time>2022-07-27T09:55:24.000Z</time>
      </trkpt>
      <trkpt lat="42.24776596762239933013916015625" lon="2.39359402097761631011962890625">
        <ele>759.5999755859375</ele>
        <time>2022-07-27T09:55:28.000Z</time>
      </trkpt>
      <trkpt lat="42.24778071977198123931884765625" lon="2.3935119621455669403076171875">
        <ele>760</ele>
        <time>2022-07-27T09:55:30.000Z</time>
      </trkpt>
      <trkpt lat="42.24778893403708934783935546875" lon="2.393434680998325347900390625">
        <ele>760.79998779296875</ele>
        <time>2022-07-27T09:55:32.000Z</time>
      </trkpt>
      <trkpt lat="42.247803099453449249267578125" lon="2.39325304515659809112548828125">
        <ele>761.79998779296875</ele>
        <time>2022-07-27T09:55:37.000Z</time>
      </trkpt>
      <trkpt lat="42.2478096373379230499267578125" lon="2.39321616478264331817626953125">
        <ele>762.20001220703125</ele>
        <time>2022-07-27T09:55:38.000Z</time>
      </trkpt>
      <trkpt lat="42.24788381718099117279052734375" lon="2.39307836629450321197509765625">
        <ele>762.79998779296875</ele>
        <time>2022-07-27T09:55:43.000Z</time>
      </trkpt>
      <trkpt lat="42.24790242500603199005126953125" lon="2.39305590279400348663330078125">
        <ele>763</ele>
        <time>2022-07-27T09:55:44.000Z</time>
      </trkpt>
      <trkpt lat="42.24796562455594539642333984375" lon="2.39292003214359283447265625">
        <ele>763.5999755859375</ele>
        <time>2022-07-27T09:55:48.000Z</time>
      </trkpt>
      <trkpt lat="42.247984819114208221435546875" lon="2.39276572130620479583740234375">
        <ele>764.20001220703125</ele>
        <time>2022-07-27T09:55:52.000Z</time>
      </trkpt>
      <trkpt lat="42.247992195188999176025390625" lon="2.3927280865609645843505859375">
        <ele>764.4000244140625</ele>
        <time>2022-07-27T09:55:53.000Z</time>
      </trkpt>
      <trkpt lat="42.24800200201570987701416015625" lon="2.39253689534962177276611328125">
        <ele>765.4000244140625</ele>
        <time>2022-07-27T09:55:58.000Z</time>
      </trkpt>
      <trkpt lat="42.24802161566913127899169921875" lon="2.39236070774495601654052734375">
        <ele>766.4000244140625</ele>
        <time>2022-07-27T09:56:03.000Z</time>
      </trkpt>
      <trkpt lat="42.2480302490293979644775390625" lon="2.3923225700855255126953125">
        <ele>766.5999755859375</ele>
        <time>2022-07-27T09:56:04.000Z</time>
      </trkpt>
      <trkpt lat="42.248076014220714569091796875" lon="2.3920793272554874420166015625">
        <ele>767.79998779296875</ele>
        <time>2022-07-27T09:56:10.000Z</time>
      </trkpt>
      <trkpt lat="42.24808640778064727783203125" lon="2.39204387180507183074951171875">
        <ele>768</ele>
        <time>2022-07-27T09:56:11.000Z</time>
      </trkpt>
      <trkpt lat="42.24815455265343189239501953125" lon="2.3918825201690196990966796875">
        <ele>768.5999755859375</ele>
        <time>2022-07-27T09:56:16.000Z</time>
      </trkpt>
      <trkpt lat="42.24818891845643520355224609375" lon="2.39182300865650177001953125">
        <ele>768.79998779296875</ele>
        <time>2022-07-27T09:56:18.000Z</time>
      </trkpt>
      <trkpt lat="42.24825077690184116363525390625" lon="2.39174933172762393951416015625">
        <ele>769.20001220703125</ele>
        <time>2022-07-27T09:56:21.000Z</time>
      </trkpt>
      <trkpt lat="42.24834113381803035736083984375" lon="2.39166215993463993072509765625">
        <ele>770</ele>
        <time>2022-07-27T09:56:25.000Z</time>
      </trkpt>
      <trkpt lat="42.248360998928546905517578125" lon="2.3916332423686981201171875">
        <ele>770.20001220703125</ele>
        <time>2022-07-27T09:56:26.000Z</time>
      </trkpt>
      <trkpt lat="42.2484278865158557891845703125" lon="2.39155990071594715118408203125">
        <ele>771.20001220703125</ele>
        <time>2022-07-27T09:56:29.000Z</time>
      </trkpt>
      <trkpt lat="42.24845965392887592315673828125" lon="2.391499467194080352783203125">
        <ele>771.5999755859375</ele>
        <time>2022-07-27T09:56:31.000Z</time>
      </trkpt>
      <trkpt lat="42.248527295887470245361328125" lon="2.39132679998874664306640625">
        <ele>772</ele>
        <time>2022-07-27T09:56:36.000Z</time>
      </trkpt>
      <trkpt lat="42.24854196421802043914794921875" lon="2.3912880755960941314697265625">
        <ele>772.20001220703125</ele>
        <time>2022-07-27T09:56:37.000Z</time>
      </trkpt>
      <trkpt lat="42.248622514307498931884765625" lon="2.39111356437206268310546875">
        <ele>773.20001220703125</ele>
        <time>2022-07-27T09:56:42.000Z</time>
      </trkpt>
      <trkpt lat="42.24864187650382518768310546875" lon="2.3910828866064548492431640625">
        <ele>773.4000244140625</ele>
        <time>2022-07-27T09:56:43.000Z</time>
      </trkpt>
      <trkpt lat="42.24874296225607395172119140625" lon="2.390938214957714080810546875">
        <ele>773.79998779296875</ele>
        <time>2022-07-27T09:56:48.000Z</time>
      </trkpt>
      <trkpt lat="42.2487951815128326416015625" lon="2.390890605747699737548828125">
        <ele>774.20001220703125</ele>
        <time>2022-07-27T09:56:50.000Z</time>
      </trkpt>
      <trkpt lat="42.24891076795756816864013671875" lon="2.390830926597118377685546875">
        <ele>774.79998779296875</ele>
        <time>2022-07-27T09:56:54.000Z</time>
      </trkpt>
      <trkpt lat="42.2489990293979644775390625" lon="2.3908079601824283599853515625">
        <ele>775.4000244140625</ele>
        <time>2022-07-27T09:56:57.000Z</time>
      </trkpt>
      <trkpt lat="42.249111346900463104248046875" lon="2.3907724209129810333251953125">
        <ele>776</ele>
        <time>2022-07-27T09:57:01.000Z</time>
      </trkpt>
      <trkpt lat="42.2491641528904438018798828125" lon="2.39074409008026123046875">
        <ele>776.20001220703125</ele>
        <time>2022-07-27T09:57:03.000Z</time>
      </trkpt>
      <trkpt lat="42.24925593473017215728759765625" lon="2.390663288533687591552734375">
        <ele>777</ele>
        <time>2022-07-27T09:57:07.000Z</time>
      </trkpt>
      <trkpt lat="42.249309830367565155029296875" lon="2.39062950946390628814697265625">
        <ele>777.20001220703125</ele>
        <time>2022-07-27T09:57:09.000Z</time>
      </trkpt>
      <trkpt lat="42.24944637157022953033447265625" lon="2.390557341277599334716796875">
        <ele>778.20001220703125</ele>
        <time>2022-07-27T09:57:14.000Z</time>
      </trkpt>
      <trkpt lat="42.24957712925970554351806640625" lon="2.3904891125857830047607421875">
        <ele>779.20001220703125</ele>
        <time>2022-07-27T09:57:19.000Z</time>
      </trkpt>
      <trkpt lat="42.24960319697856903076171875" lon="2.3904760368168354034423828125">
        <ele>779.4000244140625</ele>
        <time>2022-07-27T09:57:20.000Z</time>
      </trkpt>
      <trkpt lat="42.24970453418791294097900390625" lon="2.390398085117340087890625">
        <ele>780.20001220703125</ele>
        <time>2022-07-27T09:57:24.000Z</time>
      </trkpt>
      <trkpt lat="42.24973194301128387451171875" lon="2.3903833329677581787109375">
        <ele>780.5999755859375</ele>
        <time>2022-07-27T09:57:25.000Z</time>
      </trkpt>
      <trkpt lat="42.2498922049999237060546875" lon="2.3902929760515689849853515625">
        <ele>781.4000244140625</ele>
        <time>2022-07-27T09:57:31.000Z</time>
      </trkpt>
      <trkpt lat="42.24991743452847003936767578125" lon="2.39027981646358966827392578125">
        <ele>781.79998779296875</ele>
        <time>2022-07-27T09:57:32.000Z</time>
      </trkpt>
      <trkpt lat="42.25007249973714351654052734375" lon="2.39025919698178768157958984375">
        <ele>782.79998779296875</ele>
        <time>2022-07-27T09:57:38.000Z</time>
      </trkpt>
      <trkpt lat="42.25021935068070888519287109375" lon="2.3903241567313671112060546875">
        <ele>783.79998779296875</ele>
        <time>2022-07-27T09:57:43.000Z</time>
      </trkpt>
      <trkpt lat="42.2502574883401393890380859375" lon="2.39033094607293605804443359375">
        <ele>783.79998779296875</ele>
        <time>2022-07-27T09:57:44.000Z</time>
      </trkpt>
      <trkpt lat="42.250357568264007568359375" lon="2.39030127413570880889892578125">
        <ele>784.4000244140625</ele>
        <time>2022-07-27T09:57:47.000Z</time>
      </trkpt>
      <trkpt lat="42.2504479251801967620849609375" lon="2.39024310372769832611083984375">
        <ele>785</ele>
        <time>2022-07-27T09:57:50.000Z</time>
      </trkpt>
      <trkpt lat="42.25052495487034320831298828125" lon="2.39017068408429622650146484375">
        <ele>786</ele>
        <time>2022-07-27T09:57:53.000Z</time>
      </trkpt>
      <trkpt lat="42.25054976530373096466064453125" lon="2.3901504836976528167724609375">
        <ele>786.4000244140625</ele>
        <time>2022-07-27T09:57:54.000Z</time>
      </trkpt>
      <trkpt lat="42.25063894875347614288330078125" lon="2.39008284173905849456787109375">
        <ele>787</ele>
        <time>2022-07-27T09:57:58.000Z</time>
      </trkpt>
      <trkpt lat="42.2507161460816860198974609375" lon="2.39003908820450305938720703125">
        <ele>787.20001220703125</ele>
        <time>2022-07-27T09:58:02.000Z</time>
      </trkpt>
      <trkpt lat="42.25074305199086666107177734375" lon="2.390036322176456451416015625">
        <ele>787.4000244140625</ele>
        <time>2022-07-27T09:58:03.000Z</time>
      </trkpt>
      <trkpt lat="42.2508953511714935302734375" lon="2.39006741903722286224365234375">
        <ele>788.20001220703125</ele>
        <time>2022-07-27T09:58:08.000Z</time>
      </trkpt>
      <trkpt lat="42.250926531851291656494140625" lon="2.39008049480617046356201171875">
        <ele>788.4000244140625</ele>
        <time>2022-07-27T09:58:09.000Z</time>
      </trkpt>
      <trkpt lat="42.25102753378450870513916015625" lon="2.390107400715351104736328125">
        <ele>789</ele>
        <time>2022-07-27T09:58:13.000Z</time>
      </trkpt>
      <trkpt lat="42.2510997019708156585693359375" lon="2.39013531245291233062744140625">
        <ele>789.4000244140625</ele>
        <time>2022-07-27T09:58:15.000Z</time>
      </trkpt>
      <trkpt lat="42.2512465529143810272216796875" lon="2.3901729471981525421142578125">
        <ele>790.20001220703125</ele>
        <time>2022-07-27T09:58:19.000Z</time>
      </trkpt>
      <trkpt lat="42.25127563811838626861572265625" lon="2.39018443040549755096435546875">
        <ele>790.5999755859375</ele>
        <time>2022-07-27T09:58:20.000Z</time>
      </trkpt>
      <trkpt lat="42.25145258009433746337890625" lon="2.39020320586860179901123046875">
        <ele>791.79998779296875</ele>
        <time>2022-07-27T09:58:26.000Z</time>
      </trkpt>
      <trkpt lat="42.25159800611436367034912109375" lon="2.39018107764422893524169921875">
        <ele>793</ele>
        <time>2022-07-27T09:58:31.000Z</time>
      </trkpt>
      <trkpt lat="42.25162482820451259613037109375" lon="2.39017085172235965728759765625">
        <ele>793</ele>
        <time>2022-07-27T09:58:32.000Z</time>
      </trkpt>
      <trkpt lat="42.2517652250826358795166015625" lon="2.39009843207895755767822265625">
        <ele>794</ele>
        <time>2022-07-27T09:58:37.000Z</time>
      </trkpt>
      <trkpt lat="42.25181794725358486175537109375" lon="2.3900777287781238555908203125">
        <ele>794.4000244140625</ele>
        <time>2022-07-27T09:58:39.000Z</time>
      </trkpt>
      <trkpt lat="42.251922972500324249267578125" lon="2.39002986811101436614990234375">
        <ele>795</ele>
        <time>2022-07-27T09:58:44.000Z</time>
      </trkpt>
      <trkpt lat="42.2519496269524097442626953125" lon="2.3900254257023334503173828125">
        <ele>795</ele>
        <time>2022-07-27T09:58:45.000Z</time>
      </trkpt>
      <trkpt lat="42.25203956477344036102294921875" lon="2.3900328017771244049072265625">
        <ele>795.4000244140625</ele>
        <time>2022-07-27T09:58:48.000Z</time>
      </trkpt>
      <trkpt lat="42.25211667828261852264404296875" lon="2.39001846872270107269287109375">
        <ele>796</ele>
        <time>2022-07-27T09:58:51.000Z</time>
      </trkpt>
      <trkpt lat="42.252138890326023101806640625" lon="2.390015535056591033935546875">
        <ele>796.20001220703125</ele>
        <time>2022-07-27T09:58:52.000Z</time>
      </trkpt>
      <trkpt lat="42.2521732561290264129638671875" lon="2.39002517424523830413818359375">
        <ele>796.4000244140625</ele>
        <time>2022-07-27T09:58:53.000Z</time>
      </trkpt>
      <trkpt lat="42.2522688098251819610595703125" lon="2.3900507390499114990234375">
        <ele>797</ele>
        <time>2022-07-27T09:58:56.000Z</time>
      </trkpt>
      <trkpt lat="42.2522862441837787628173828125" lon="2.390047051012516021728515625">
        <ele>797.20001220703125</ele>
        <time>2022-07-27T09:58:57.000Z</time>
      </trkpt>
      <trkpt lat="42.252369560301303863525390625" lon="2.39006306044757366180419921875">
        <ele>797.79998779296875</ele>
        <time>2022-07-27T09:59:00.000Z</time>
      </trkpt>
      <trkpt lat="42.2523968853056430816650390625" lon="2.3900735378265380859375">
        <ele>798</ele>
        <time>2022-07-27T09:59:01.000Z</time>
      </trkpt>
      <trkpt lat="42.252526469528675079345703125" lon="2.39010899327695369720458984375">
        <ele>799.20001220703125</ele>
        <time>2022-07-27T09:59:06.000Z</time>
      </trkpt>
      <trkpt lat="42.2525514476001262664794921875" lon="2.39012022502720355987548828125">
        <ele>799.4000244140625</ele>
        <time>2022-07-27T09:59:07.000Z</time>
      </trkpt>
      <trkpt lat="42.25271564908325672149658203125" lon="2.390212677419185638427734375">
        <ele>800.20001220703125</ele>
        <time>2022-07-27T09:59:12.000Z</time>
      </trkpt>
      <trkpt lat="42.252770550549030303955078125" lon="2.39025567658245563507080078125">
        <ele>800.79998779296875</ele>
        <time>2022-07-27T09:59:14.000Z</time>
      </trkpt>
      <trkpt lat="42.25283651612699031829833984375" lon="2.39033882506191730499267578125">
        <ele>801.4000244140625</ele>
        <time>2022-07-27T09:59:17.000Z</time>
      </trkpt>
      <trkpt lat="42.25288680754601955413818359375" lon="2.39043370820581912994384765625">
        <ele>802</ele>
        <time>2022-07-27T09:59:20.000Z</time>
      </trkpt>
      <trkpt lat="42.252908013761043548583984375" lon="2.39049573428928852081298828125">
        <ele>802.4000244140625</ele>
        <time>2022-07-27T09:59:22.000Z</time>
      </trkpt>
      <trkpt lat="42.25294279865920543670654296875" lon="2.39060872234404087066650390625">
        <ele>802.79998779296875</ele>
        <time>2022-07-27T09:59:26.000Z</time>
      </trkpt>
      <trkpt lat="42.252952270209789276123046875" lon="2.3907130770385265350341796875">
        <ele>803.4000244140625</ele>
        <time>2022-07-27T09:59:29.000Z</time>
      </trkpt>
      <trkpt lat="42.25299091078341007232666015625" lon="2.39085783250629901885986328125">
        <ele>804.20001220703125</ele>
        <time>2022-07-27T09:59:33.000Z</time>
      </trkpt>
      <trkpt lat="42.25301069207489490509033203125" lon="2.39090125076472759246826171875">
        <ele>804.4000244140625</ele>
        <time>2022-07-27T09:59:34.000Z</time>
      </trkpt>
      <trkpt lat="42.2531318105757236480712890625" lon="2.3910845629870891571044921875">
        <ele>805.4000244140625</ele>
        <time>2022-07-27T09:59:39.000Z</time>
      </trkpt>
      <trkpt lat="42.2531569562852382659912109375" lon="2.3911123909056186676025390625">
        <ele>805.4000244140625</ele>
        <time>2022-07-27T09:59:40.000Z</time>
      </trkpt>
      <trkpt lat="42.2532959282398223876953125" lon="2.3912243731319904327392578125">
        <ele>806.5999755859375</ele>
        <time>2022-07-27T09:59:45.000Z</time>
      </trkpt>
      <trkpt lat="42.25344018079340457916259765625" lon="2.39132814109325408935546875">
        <ele>807.5999755859375</ele>
        <time>2022-07-27T09:59:50.000Z</time>
      </trkpt>
      <trkpt lat="42.2535589523613452911376953125" lon="2.39144037477672100067138671875">
        <ele>808.20001220703125</ele>
        <time>2022-07-27T09:59:54.000Z</time>
      </trkpt>
      <trkpt lat="42.25367470644414424896240234375" lon="2.39159041084349155426025390625">
        <ele>808.5999755859375</ele>
        <time>2022-07-27T09:59:58.000Z</time>
      </trkpt>
      <trkpt lat="42.25370136089622974395751953125" lon="2.39163466729223728179931640625">
        <ele>808.79998779296875</ele>
        <time>2022-07-27T09:59:59.000Z</time>
      </trkpt>
      <trkpt lat="42.25375064648687839508056640625" lon="2.39172636531293392181396484375">
        <ele>809</ele>
        <time>2022-07-27T10:00:01.000Z</time>
      </trkpt>
      <trkpt lat="42.25386933423578739166259765625" lon="2.39200481213629245758056640625">
        <ele>809.4000244140625</ele>
        <time>2022-07-27T10:00:08.000Z</time>
      </trkpt>
      <trkpt lat="42.253907807171344757080078125" lon="2.392107658088207244873046875">
        <ele>809.79998779296875</ele>
        <time>2022-07-27T10:00:11.000Z</time>
      </trkpt>
      <trkpt lat="42.25393387489020824432373046875" lon="2.3922097496688365936279296875">
        <ele>811</ele>
        <time>2022-07-27T10:00:14.000Z</time>
      </trkpt>
      <trkpt lat="42.25393823347985744476318359375" lon="2.39224554039537906646728515625">
        <ele>811</ele>
        <time>2022-07-27T10:00:15.000Z</time>
      </trkpt>
      <trkpt lat="42.2539311088621616363525390625" lon="2.3923441953957080841064453125">
        <ele>811.79998779296875</ele>
        <time>2022-07-27T10:00:18.000Z</time>
      </trkpt>
      <trkpt lat="42.25391409359872341156005859375" lon="2.3924042098224163055419921875">
        <ele>812.20001220703125</ele>
        <time>2022-07-27T10:00:20.000Z</time>
      </trkpt>
      <trkpt lat="42.2538994252681732177734375" lon="2.39242851734161376953125">
        <ele>812.5999755859375</ele>
        <time>2022-07-27T10:00:21.000Z</time>
      </trkpt>
      <trkpt lat="42.253871597349643707275390625" lon="2.39248090423643589019775390625">
        <ele>813</ele>
        <time>2022-07-27T10:00:23.000Z</time>
      </trkpt>
      <trkpt lat="42.25385055877268314361572265625" lon="2.39258282817900180816650390625">
        <ele>813.4000244140625</ele>
        <time>2022-07-27T10:00:26.000Z</time>
      </trkpt>
      <trkpt lat="42.25381585769355297088623046875" lon="2.392715513706207275390625">
        <ele>813.79998779296875</ele>
        <time>2022-07-27T10:00:30.000Z</time>
      </trkpt>
      <trkpt lat="42.25380730815231800079345703125" lon="2.392750717699527740478515625">
        <ele>814</ele>
        <time>2022-07-27T10:00:31.000Z</time>
      </trkpt>
      <trkpt lat="42.2537934780120849609375" lon="2.39282355643808841705322265625">
        <ele>814.20001220703125</ele>
        <time>2022-07-27T10:00:33.000Z</time>
      </trkpt>
      <trkpt lat="42.25374444387853145599365234375" lon="2.3929936252534389495849609375">
        <ele>815.20001220703125</ele>
        <time>2022-07-27T10:00:38.000Z</time>
      </trkpt>
      <trkpt lat="42.25372114218771457672119140625" lon="2.393054477870464324951171875">
        <ele>815.5999755859375</ele>
        <time>2022-07-27T10:00:40.000Z</time>
      </trkpt>
      <trkpt lat="42.2536526620388031005859375" lon="2.39321130327880382537841796875">
        <ele>816.20001220703125</ele>
        <time>2022-07-27T10:00:45.000Z</time>
      </trkpt>
      <trkpt lat="42.2536374069750308990478515625" lon="2.39324399270117282867431640625">
        <ele>816.4000244140625</ele>
        <time>2022-07-27T10:00:46.000Z</time>
      </trkpt>
      <trkpt lat="42.25359298288822174072265625" lon="2.3933872394263744354248046875">
        <ele>817.4000244140625</ele>
        <time>2022-07-27T10:00:50.000Z</time>
      </trkpt>
      <trkpt lat="42.253581583499908447265625" lon="2.39346108399331569671630859375">
        <ele>817.5999755859375</ele>
        <time>2022-07-27T10:00:52.000Z</time>
      </trkpt>
      <trkpt lat="42.25358636118471622467041015625" lon="2.39357356913387775421142578125">
        <ele>818.4000244140625</ele>
        <time>2022-07-27T10:00:55.000Z</time>
      </trkpt>
      <trkpt lat="42.253610752522945404052734375" lon="2.3936417140066623687744140625">
        <ele>818.5999755859375</ele>
        <time>2022-07-27T10:00:57.000Z</time>
      </trkpt>
      <trkpt lat="42.2537277638912200927734375" lon="2.393755875527858734130859375">
        <ele>819.20001220703125</ele>
        <time>2022-07-27T10:01:02.000Z</time>
      </trkpt>
      <trkpt lat="42.2537798993289470672607421875" lon="2.39377942867577075958251953125">
        <ele>819.5999755859375</ele>
        <time>2022-07-27T10:01:04.000Z</time>
      </trkpt>
      <trkpt lat="42.25383262149989604949951171875" lon="2.39378730766475200653076171875">
        <ele>820</ele>
        <time>2022-07-27T10:01:06.000Z</time>
      </trkpt>
      <trkpt lat="42.2538563422858715057373046875" lon="2.39380088634788990020751953125">
        <ele>820.20001220703125</ele>
        <time>2022-07-27T10:01:07.000Z</time>
      </trkpt>
      <trkpt lat="42.25390654988586902618408203125" lon="2.3938184045255184173583984375">
        <ele>820.79998779296875</ele>
        <time>2022-07-27T10:01:09.000Z</time>
      </trkpt>
      <trkpt lat="42.25394912995398044586181640625" lon="2.39381614141166210174560546875">
        <ele>821</ele>
        <time>2022-07-27T10:01:11.000Z</time>
      </trkpt>
      <trkpt lat="42.254047282040119171142578125" lon="2.3937982879579067230224609375">
        <ele>821.79998779296875</ele>
        <time>2022-07-27T10:01:15.000Z</time>
      </trkpt>
      <trkpt lat="42.25414325483143329620361328125" lon="2.39378697238862514495849609375">
        <ele>822.4000244140625</ele>
        <time>2022-07-27T10:01:18.000Z</time>
      </trkpt>
      <trkpt lat="42.25419874303042888641357421875" lon="2.39377188496291637420654296875">
        <ele>822.79998779296875</ele>
        <time>2022-07-27T10:01:20.000Z</time>
      </trkpt>
      <trkpt lat="42.25432832725346088409423828125" lon="2.3937754891812801361083984375">
        <ele>823.5999755859375</ele>
        <time>2022-07-27T10:01:25.000Z</time>
      </trkpt>
      <trkpt lat="42.2544129006564617156982421875" lon="2.3937848769128322601318359375">
        <ele>824.20001220703125</ele>
        <time>2022-07-27T10:01:28.000Z</time>
      </trkpt>
      <trkpt lat="42.25449579767882823944091796875" lon="2.3937945999205112457275390625">
        <ele>824.5999755859375</ele>
        <time>2022-07-27T10:01:31.000Z</time>
      </trkpt>
      <trkpt lat="42.2545265592634677886962890625" lon="2.3938056640326976776123046875">
        <ele>824.79998779296875</ele>
        <time>2022-07-27T10:01:32.000Z</time>
      </trkpt>
      <trkpt lat="42.2546021640300750732421875" lon="2.39383868873119354248046875">
        <ele>825.4000244140625</ele>
        <time>2022-07-27T10:01:35.000Z</time>
      </trkpt>
      <trkpt lat="42.2546289861202239990234375" lon="2.3938509263098239898681640625">
        <ele>825.4000244140625</ele>
        <time>2022-07-27T10:01:36.000Z</time>
      </trkpt>
      <trkpt lat="42.25465572439134120941162109375" lon="2.39386056549847126007080078125">
        <ele>825.79998779296875</ele>
        <time>2022-07-27T10:01:37.000Z</time>
      </trkpt>
      <trkpt lat="42.254767455160617828369140625" lon="2.3939079232513904571533203125">
        <ele>826.4000244140625</ele>
        <time>2022-07-27T10:01:41.000Z</time>
      </trkpt>
      <trkpt lat="42.25479519926011562347412109375" lon="2.39392510615289211273193359375">
        <ele>826.5999755859375</ele>
        <time>2022-07-27T10:01:42.000Z</time>
      </trkpt>
      <trkpt lat="42.2548997215926647186279296875" lon="2.39404262043535709381103515625">
        <ele>827.4000244140625</ele>
        <time>2022-07-27T10:01:47.000Z</time>
      </trkpt>
      <trkpt lat="42.254909612238407135009765625" lon="2.3940660059452056884765625">
        <ele>827.5999755859375</ele>
        <time>2022-07-27T10:01:48.000Z</time>
      </trkpt>
      <trkpt lat="42.25497038103640079498291015625" lon="2.39423288963735103607177734375">
        <ele>828.4000244140625</ele>
        <time>2022-07-27T10:01:54.000Z</time>
      </trkpt>
      <trkpt lat="42.25497591309249401092529296875" lon="2.394266165792942047119140625">
        <ele>828.5999755859375</ele>
        <time>2022-07-27T10:01:55.000Z</time>
      </trkpt>
      <trkpt lat="42.2549714706838130950927734375" lon="2.39442743360996246337890625">
        <ele>829.5999755859375</ele>
        <time>2022-07-27T10:02:00.000Z</time>
      </trkpt>
      <trkpt lat="42.25496635772287845611572265625" lon="2.394459955394268035888671875">
        <ele>829.5999755859375</ele>
        <time>2022-07-27T10:02:01.000Z</time>
      </trkpt>
      <trkpt lat="42.2549275495111942291259765625" lon="2.39467193372547626495361328125">
        <ele>830.79998779296875</ele>
        <time>2022-07-27T10:02:06.000Z</time>
      </trkpt>
      <trkpt lat="42.25495194084942340850830078125" lon="2.3948706686496734619140625">
        <ele>831.20001220703125</ele>
        <time>2022-07-27T10:02:11.000Z</time>
      </trkpt>
      <trkpt lat="42.255003489553928375244140625" lon="2.39500301890075206756591796875">
        <ele>831.79998779296875</ele>
        <time>2022-07-27T10:02:15.000Z</time>
      </trkpt>
      <trkpt lat="42.25502871908247470855712890625" lon="2.3950649611651897430419921875">
        <ele>832.4000244140625</ele>
        <time>2022-07-27T10:02:17.000Z</time>
      </trkpt>
      <trkpt lat="42.25509543903172016143798828125" lon="2.3951093852519989013671875">
        <ele>833</ele>
        <time>2022-07-27T10:02:20.000Z</time>
      </trkpt>
      <trkpt lat="42.25512159056961536407470703125" lon="2.39512237720191478729248046875">
        <ele>833.20001220703125</ele>
        <time>2022-07-27T10:02:21.000Z</time>
      </trkpt>
      <trkpt lat="42.25522636435925960540771484375" lon="2.395190857350826263427734375">
        <ele>834.20001220703125</ele>
        <time>2022-07-27T10:02:25.000Z</time>
      </trkpt>
      <trkpt lat="42.25530800409615039825439453125" lon="2.39528615958988666534423828125">
        <ele>834.79998779296875</ele>
        <time>2022-07-27T10:02:29.000Z</time>
      </trkpt>
      <trkpt lat="42.25535519421100616455078125" lon="2.3954525403678417205810546875">
        <ele>835.4000244140625</ele>
        <time>2022-07-27T10:02:34.000Z</time>
      </trkpt>
      <trkpt lat="42.25536055862903594970703125" lon="2.3954817093908786773681640625">
        <ele>835.5999755859375</ele>
        <time>2022-07-27T10:02:35.000Z</time>
      </trkpt>
      <trkpt lat="42.25535863079130649566650390625" lon="2.3956377804279327392578125">
        <ele>836.4000244140625</ele>
        <time>2022-07-27T10:02:40.000Z</time>
      </trkpt>
      <trkpt lat="42.2553558647632598876953125" lon="2.39567541517317295074462890625">
        <ele>836.5999755859375</ele>
        <time>2022-07-27T10:02:41.000Z</time>
      </trkpt>
      <trkpt lat="42.255344130098819732666015625" lon="2.395800054073333740234375">
        <ele>837.5999755859375</ele>
        <time>2022-07-27T10:02:44.000Z</time>
      </trkpt>
      <trkpt lat="42.255351841449737548828125" lon="2.3959249444305896759033203125">
        <ele>838.20001220703125</ele>
        <time>2022-07-27T10:02:47.000Z</time>
      </trkpt>
      <trkpt lat="42.25536097772419452667236328125" lon="2.3960030637681484222412109375">
        <ele>838.5999755859375</ele>
        <time>2022-07-27T10:02:49.000Z</time>
      </trkpt>
      <trkpt lat="42.2553791664540767669677734375" lon="2.396145723760128021240234375">
        <ele>839.5999755859375</ele>
        <time>2022-07-27T10:02:53.000Z</time>
      </trkpt>
      <trkpt lat="42.25539718754589557647705078125" lon="2.396175563335418701171875">
        <ele>839.79998779296875</ele>
        <time>2022-07-27T10:02:54.000Z</time>
      </trkpt>
      <trkpt lat="42.25543926469981670379638671875" lon="2.396283857524394989013671875">
        <ele>840</ele>
        <time>2022-07-27T10:02:57.000Z</time>
      </trkpt>
      <trkpt lat="42.25545150227844715118408203125" lon="2.396319396793842315673828125">
        <ele>840.20001220703125</ele>
        <time>2022-07-27T10:02:58.000Z</time>
      </trkpt>
      <trkpt lat="42.2554991953074932098388671875" lon="2.39639759995043277740478515625">
        <ele>840.79998779296875</ele>
        <time>2022-07-27T10:03:01.000Z</time>
      </trkpt>
      <trkpt lat="42.25552442483603954315185546875" lon="2.396461553871631622314453125">
        <ele>841.20001220703125</ele>
        <time>2022-07-27T10:03:03.000Z</time>
      </trkpt>
      <trkpt lat="42.2556160390377044677734375" lon="2.39660211838781833648681640625">
        <ele>841.79998779296875</ele>
        <time>2022-07-27T10:03:08.000Z</time>
      </trkpt>
      <trkpt lat="42.255630455911159515380859375" lon="2.396632544696331024169921875">
        <ele>842</ele>
        <time>2022-07-27T10:03:09.000Z</time>
      </trkpt>
      <trkpt lat="42.255728356540203094482421875" lon="2.39677478559315204620361328125">
        <ele>843</ele>
        <time>2022-07-27T10:03:14.000Z</time>
      </trkpt>
      <trkpt lat="42.25585408508777618408203125" lon="2.3969364725053310394287109375">
        <ele>844.20001220703125</ele>
        <time>2022-07-27T10:03:20.000Z</time>
      </trkpt>
      <trkpt lat="42.255879230797290802001953125" lon="2.396951727569103240966796875">
        <ele>844.20001220703125</ele>
        <time>2022-07-27T10:03:21.000Z</time>
      </trkpt>
      <trkpt lat="42.25603303872048854827880859375" lon="2.3969783820211887359619140625">
        <ele>845.4000244140625</ele>
        <time>2022-07-27T10:03:27.000Z</time>
      </trkpt>
      <trkpt lat="42.25613412447273731231689453125" lon="2.39700512029230594635009765625">
        <ele>846.5999755859375</ele>
        <time>2022-07-27T10:03:31.000Z</time>
      </trkpt>
      <trkpt lat="42.25617184303700923919677734375" lon="2.39703009836375713348388671875">
        <ele>847</ele>
        <time>2022-07-27T10:03:33.000Z</time>
      </trkpt>
      <trkpt lat="42.2562850825488567352294921875" lon="2.39713286049664020538330078125">
        <ele>847.79998779296875</ele>
        <time>2022-07-27T10:03:39.000Z</time>
      </trkpt>
      <trkpt lat="42.25635171867907047271728515625" lon="2.397260181605815887451171875">
        <ele>849</ele>
        <time>2022-07-27T10:03:43.000Z</time>
      </trkpt>
      <trkpt lat="42.25640335120260715484619140625" lon="2.39733670838177204132080078125">
        <ele>849.4000244140625</ele>
        <time>2022-07-27T10:03:46.000Z</time>
      </trkpt>
      <trkpt lat="42.256500832736492156982421875" lon="2.39748255349695682525634765625">
        <ele>850</ele>
        <time>2022-07-27T10:03:51.000Z</time>
      </trkpt>
      <trkpt lat="42.256515584886074066162109375" lon="2.39751926623284816741943359375">
        <ele>850.20001220703125</ele>
        <time>2022-07-27T10:03:52.000Z</time>
      </trkpt>
      <trkpt lat="42.25654433481395244598388671875" lon="2.3977411352097988128662109375">
        <ele>851</ele>
        <time>2022-07-27T10:03:57.000Z</time>
      </trkpt>
      <trkpt lat="42.2565408982336521148681640625" lon="2.39778832532465457916259765625">
        <ele>851.20001220703125</ele>
        <time>2022-07-27T10:03:58.000Z</time>
      </trkpt>
      <trkpt lat="42.2564973123371601104736328125" lon="2.39805914461612701416015625">
        <ele>852.20001220703125</ele>
        <time>2022-07-27T10:04:04.000Z</time>
      </trkpt>
      <trkpt lat="42.2564674727618694305419921875" lon="2.398235835134983062744140625">
        <ele>853.20001220703125</ele>
        <time>2022-07-27T10:04:09.000Z</time>
      </trkpt>
      <trkpt lat="42.2564621083438396453857421875" lon="2.39824824035167694091796875">
        <ele>853.4000244140625</ele>
        <time>2022-07-27T10:04:10.000Z</time>
      </trkpt>
      <trkpt lat="42.2564614377915859222412109375" lon="2.3982671834528446197509765625">
        <ele>854.20001220703125</ele>
        <time>2022-07-27T10:04:15.000Z</time>
      </trkpt>
      <trkpt lat="42.2564617730677127838134765625" lon="2.398267351090908050537109375">
        <ele>854.4000244140625</ele>
        <time>2022-07-27T10:04:16.000Z</time>
      </trkpt>
      <trkpt lat="42.2564637847244739532470703125" lon="2.3982759006321430206298828125">
        <ele>854.79998779296875</ele>
        <time>2022-07-27T10:04:19.000Z</time>
      </trkpt>
      <trkpt lat="42.25705160759389400482177734375" lon="2.39831906743347644805908203125">
        <ele>855.5999755859375</ele>
        <time>2022-07-27T10:06:51.000Z</time>
      </trkpt>
      <trkpt lat="42.25727372802793979644775390625" lon="2.39801882766187191009521484375">
        <ele>855</ele>
        <time>2022-07-27T10:06:57.000Z</time>
      </trkpt>
      <trkpt lat="42.2573978640139102935791015625" lon="2.39787683822214603424072265625">
        <ele>854.79998779296875</ele>
        <time>2022-07-27T10:07:00.000Z</time>
      </trkpt>
      <trkpt lat="42.257463075220584869384765625" lon="2.397769130766391754150390625">
        <ele>854.79998779296875</ele>
        <time>2022-07-27T10:07:02.000Z</time>
      </trkpt>
      <trkpt lat="42.257482521235942840576171875" lon="2.39757643081247806549072265625">
        <ele>854.79998779296875</ele>
        <time>2022-07-27T10:07:05.000Z</time>
      </trkpt>
      <trkpt lat="42.25737950764596462249755859375" lon="2.39733553491532802581787109375">
        <ele>854.79998779296875</ele>
        <time>2022-07-27T10:07:09.000Z</time>
      </trkpt>
      <trkpt lat="42.25725847296416759490966796875" lon="2.3971074633300304412841796875">
        <ele>854.79998779296875</ele>
        <time>2022-07-27T10:07:13.000Z</time>
      </trkpt>
      <trkpt lat="42.25723139941692352294921875" lon="2.39696639589965343475341796875">
        <ele>854.79998779296875</ele>
        <time>2022-07-27T10:07:15.000Z</time>
      </trkpt>
      <trkpt lat="42.25725964643061161041259765625" lon="2.396743856370449066162109375">
        <ele>855.79998779296875</ele>
        <time>2022-07-27T10:07:18.000Z</time>
      </trkpt>
      <trkpt lat="42.25727590732276439666748046875" lon="2.3966732807457447052001953125">
        <ele>856</ele>
        <time>2022-07-27T10:07:19.000Z</time>
      </trkpt>
      <trkpt lat="42.25729116238653659820556640625" lon="2.39660211838781833648681640625">
        <ele>856</ele>
        <time>2022-07-27T10:07:20.000Z</time>
      </trkpt>
      <trkpt lat="42.2573395259678363800048828125" lon="2.3963048122823238372802734375">
        <ele>856.4000244140625</ele>
        <time>2022-07-27T10:07:24.000Z</time>
      </trkpt>
      <trkpt lat="42.2573633305728435516357421875" lon="2.396228872239589691162109375">
        <ele>856.4000244140625</ele>
        <time>2022-07-27T10:07:25.000Z</time>
      </trkpt>
      <trkpt lat="42.2574307210743427276611328125" lon="2.39608797244727611541748046875">
        <ele>857.20001220703125</ele>
        <time>2022-07-27T10:07:27.000Z</time>
      </trkpt>
      <trkpt lat="42.25746852345764636993408203125" lon="2.39602091722190380096435546875">
        <ele>857.4000244140625</ele>
        <time>2022-07-27T10:07:28.000Z</time>
      </trkpt>
      <trkpt lat="42.25750724785029888153076171875" lon="2.39595763385295867919921875">
        <ele>857.5999755859375</ele>
        <time>2022-07-27T10:07:29.000Z</time>
      </trkpt>
      <trkpt lat="42.2577643208205699920654296875" lon="2.39563903771340847015380859375">
        <ele>857.79998779296875</ele>
        <time>2022-07-27T10:07:35.000Z</time>
      </trkpt>
      <trkpt lat="42.2580301947891712188720703125" lon="2.3954377882182598114013671875">
        <ele>857.20001220703125</ele>
        <time>2022-07-27T10:07:40.000Z</time>
      </trkpt>
      <trkpt lat="42.25825709290802478790283203125" lon="2.39522865973412990570068359375">
        <ele>857</ele>
        <time>2022-07-27T10:07:45.000Z</time>
      </trkpt>
      <trkpt lat="42.25829078815877437591552734375" lon="2.39517509937286376953125">
        <ele>857</ele>
        <time>2022-07-27T10:07:46.000Z</time>
      </trkpt>
      <trkpt lat="42.25833336822688579559326171875" lon="2.39495825953781604766845703125">
        <ele>857</ele>
        <time>2022-07-27T10:07:49.000Z</time>
      </trkpt>
      <trkpt lat="42.25830352865159511566162109375" lon="2.394818700850009918212890625">
        <ele>857.20001220703125</ele>
        <time>2022-07-27T10:07:51.000Z</time>
      </trkpt>
      <trkpt lat="42.2582799755036830902099609375" lon="2.394752316176891326904296875">
        <ele>857.4000244140625</ele>
        <time>2022-07-27T10:07:52.000Z</time>
      </trkpt>
      <trkpt lat="42.258251644670963287353515625" lon="2.39469070918858051300048828125">
        <ele>857.5999755859375</ele>
        <time>2022-07-27T10:07:53.000Z</time>
      </trkpt>
      <trkpt lat="42.2582204639911651611328125" lon="2.3946321196854114532470703125">
        <ele>857.79998779296875</ele>
        <time>2022-07-27T10:07:54.000Z</time>
      </trkpt>
      <trkpt lat="42.2581485472619533538818359375" lon="2.3945166170597076416015625">
        <ele>858.20001220703125</ele>
        <time>2022-07-27T10:07:56.000Z</time>
      </trkpt>
      <trkpt lat="42.25806933827698230743408203125" lon="2.3944200575351715087890625">
        <ele>858.4000244140625</ele>
        <time>2022-07-27T10:07:58.000Z</time>
      </trkpt>
      <trkpt lat="42.25783824920654296875" lon="2.394238673150539398193359375">
        <ele>858.79998779296875</ele>
        <time>2022-07-27T10:08:03.000Z</time>
      </trkpt>
      <trkpt lat="42.25776859559118747711181640625" lon="2.39403038285672664642333984375">
        <ele>859</ele>
        <time>2022-07-27T10:08:06.000Z</time>
      </trkpt>
      <trkpt lat="42.25781209766864776611328125" lon="2.39377507008612155914306640625">
        <ele>859</ele>
        <time>2022-07-27T10:08:09.000Z</time>
      </trkpt>
      <trkpt lat="42.2579252533614635467529296875" lon="2.39355848170816898345947265625">
        <ele>859.20001220703125</ele>
        <time>2022-07-27T10:08:12.000Z</time>
      </trkpt>
      <trkpt lat="42.2580124251544475555419921875" lon="2.3934301547706127166748046875">
        <ele>859.4000244140625</ele>
        <time>2022-07-27T10:08:14.000Z</time>
      </trkpt>
      <trkpt lat="42.2583768703043460845947265625" lon="2.39303880371153354644775390625">
        <ele>859.4000244140625</ele>
        <time>2022-07-27T10:08:21.000Z</time>
      </trkpt>
      <trkpt lat="42.2586320154368877410888671875" lon="2.39273755811154842376708984375">
        <ele>859.4000244140625</ele>
        <time>2022-07-27T10:08:26.000Z</time>
      </trkpt>
      <trkpt lat="42.25867199711501598358154296875" lon="2.392667233943939208984375">
        <ele>859.4000244140625</ele>
        <time>2022-07-27T10:08:27.000Z</time>
      </trkpt>
      <trkpt lat="42.2587362863123416900634765625" lon="2.39243187010288238525390625">
        <ele>859.4000244140625</ele>
        <time>2022-07-27T10:08:30.000Z</time>
      </trkpt>
      <trkpt lat="42.2586906887590885162353515625" lon="2.39217848517000675201416015625">
        <ele>859.5999755859375</ele>
        <time>2022-07-27T10:08:33.000Z</time>
      </trkpt>
      <trkpt lat="42.258664034307003021240234375" lon="2.39209525287151336669921875">
        <ele>859.5999755859375</ele>
        <time>2022-07-27T10:08:34.000Z</time>
      </trkpt>
      <trkpt lat="42.2586169280111789703369140625" lon="2.39192401058971881866455078125">
        <ele>859.5999755859375</ele>
        <time>2022-07-27T10:08:36.000Z</time>
      </trkpt>
      <trkpt lat="42.2585706599056720733642578125" lon="2.39175486378371715545654296875">
        <ele>860</ele>
        <time>2022-07-27T10:08:38.000Z</time>
      </trkpt>
      <trkpt lat="42.25854006595909595489501953125" lon="2.39168043248355388641357421875">
        <ele>860</ele>
        <time>2022-07-27T10:08:39.000Z</time>
      </trkpt>
      <trkpt lat="42.25846982561051845550537109375" lon="2.39155034534633159637451171875">
        <ele>860.20001220703125</ele>
        <time>2022-07-27T10:08:41.000Z</time>
      </trkpt>
      <trkpt lat="42.258430682122707366943359375" lon="2.3914902471005916595458984375">
        <ele>860.20001220703125</ele>
        <time>2022-07-27T10:08:42.000Z</time>
      </trkpt>
      <trkpt lat="42.25818132050335407257080078125" lon="2.3911784403026103973388671875">
        <ele>861</ele>
        <time>2022-07-27T10:08:48.000Z</time>
      </trkpt>
      <trkpt lat="42.25808694027364253997802734375" lon="2.3910617642104625701904296875">
        <ele>861.20001220703125</ele>
        <time>2022-07-27T10:08:50.000Z</time>
      </trkpt>
      <trkpt lat="42.2579041309654712677001953125" lon="2.3908478580415248870849609375">
        <ele>861.5999755859375</ele>
        <time>2022-07-27T10:08:54.000Z</time>
      </trkpt>
      <trkpt lat="42.2577260993421077728271484375" lon="2.3907248117029666900634765625">
        <ele>861.79998779296875</ele>
        <time>2022-07-27T10:08:57.000Z</time>
      </trkpt>
      <trkpt lat="42.2576704435050487518310546875" lon="2.39066890440881252288818359375">
        <ele>862</ele>
        <time>2022-07-27T10:08:58.000Z</time>
      </trkpt>
      <trkpt lat="42.2575152106583118438720703125" lon="2.39035793580114841461181640625">
        <ele>862.20001220703125</ele>
        <time>2022-07-27T10:09:02.000Z</time>
      </trkpt>
      <trkpt lat="42.25754815153777599334716796875" lon="2.3901109211146831512451171875">
        <ele>862.4000244140625</ele>
        <time>2022-07-27T10:09:05.000Z</time>
      </trkpt>
      <trkpt lat="42.25767790339887142181396484375" lon="2.38983708433806896209716796875">
        <ele>863</ele>
        <time>2022-07-27T10:09:09.000Z</time>
      </trkpt>
      <trkpt lat="42.25775166414678096771240234375" lon="2.38971672020852565765380859375">
        <ele>863.20001220703125</ele>
        <time>2022-07-27T10:09:11.000Z</time>
      </trkpt>
      <trkpt lat="42.2578489780426025390625" lon="2.38961965776979923248291015625">
        <ele>863.20001220703125</ele>
        <time>2022-07-27T10:09:13.000Z</time>
      </trkpt>
      <trkpt lat="42.25800949148833751678466796875" lon="2.3896013014018535614013671875">
        <ele>863.5999755859375</ele>
        <time>2022-07-27T10:09:16.000Z</time>
      </trkpt>
      <trkpt lat="42.2580660693347454071044921875" lon="2.38961831666529178619384765625">
        <ele>863.5999755859375</ele>
        <time>2022-07-27T10:09:17.000Z</time>
      </trkpt>
      <trkpt lat="42.2583101503551006317138671875" lon="2.38965938799083232879638671875">
        <ele>863.79998779296875</ele>
        <time>2022-07-27T10:09:21.000Z</time>
      </trkpt>
      <trkpt lat="42.25848323665559291839599609375" lon="2.389589063823223114013671875">
        <ele>864.20001220703125</ele>
        <time>2022-07-27T10:09:24.000Z</time>
      </trkpt>
      <trkpt lat="42.25854341872036457061767578125" lon="2.38956064917147159576416015625">
        <ele>864.20001220703125</ele>
        <time>2022-07-27T10:09:25.000Z</time>
      </trkpt>
      <trkpt lat="42.258720360696315765380859375" lon="2.38945034332573413848876953125">
        <ele>864.5999755859375</ele>
        <time>2022-07-27T10:09:28.000Z</time>
      </trkpt>
      <trkpt lat="42.258821614086627960205078125" lon="2.3893511854112148284912109375">
        <ele>865</ele>
        <time>2022-07-27T10:09:30.000Z</time>
      </trkpt>
      <trkpt lat="42.25894290022552013397216796875" lon="2.38917038775980472564697265625">
        <ele>865.20001220703125</ele>
        <time>2022-07-27T10:09:33.000Z</time>
      </trkpt>
      <trkpt lat="42.2589783556759357452392578125" lon="2.3891134746372699737548828125">
        <ele>865.20001220703125</ele>
        <time>2022-07-27T10:09:34.000Z</time>
      </trkpt>
      <trkpt lat="42.25901900790631771087646484375" lon="2.38905723206698894500732421875">
        <ele>865.20001220703125</ele>
        <time>2022-07-27T10:09:35.000Z</time>
      </trkpt>
      <trkpt lat="42.2590675391256809234619140625" lon="2.38900601863861083984375">
        <ele>865.20001220703125</ele>
        <time>2022-07-27T10:09:36.000Z</time>
      </trkpt>
      <trkpt lat="42.25925378501415252685546875" lon="2.38882832229137420654296875">
        <ele>865.4000244140625</ele>
        <time>2022-07-27T10:09:40.000Z</time>
      </trkpt>
      <trkpt lat="42.25946073420345783233642578125" lon="2.38868239335715770721435546875">
        <ele>865.5999755859375</ele>
        <time>2022-07-27T10:09:44.000Z</time>
      </trkpt>
      <trkpt lat="42.259516306221485137939453125" lon="2.38866462372243404388427734375">
        <ele>865.79998779296875</ele>
        <time>2022-07-27T10:09:45.000Z</time>
      </trkpt>
      <trkpt lat="42.259623594582080841064453125" lon="2.38866269588470458984375">
        <ele>866.20001220703125</ele>
        <time>2022-07-27T10:09:47.000Z</time>
      </trkpt>
      <trkpt lat="42.25972878746688365936279296875" lon="2.3886652104556560516357421875">
        <ele>866.5999755859375</ele>
        <time>2022-07-27T10:09:49.000Z</time>
      </trkpt>
      <trkpt lat="42.25991838611662387847900390625" lon="2.38859673030674457550048828125">
        <ele>866.79998779296875</ele>
        <time>2022-07-27T10:09:53.000Z</time>
      </trkpt>
      <trkpt lat="42.259976305067539215087890625" lon="2.38850067369639873504638671875">
        <ele>867.20001220703125</ele>
        <time>2022-07-27T10:09:55.000Z</time>
      </trkpt>
      <trkpt lat="42.2600175440311431884765625" lon="2.38837662152945995330810546875">
        <ele>867.5999755859375</ele>
        <time>2022-07-27T10:09:57.000Z</time>
      </trkpt>
      <trkpt lat="42.2600472159683704376220703125" lon="2.3882293514907360076904296875">
        <ele>867.79998779296875</ele>
        <time>2022-07-27T10:09:59.000Z</time>
      </trkpt>
      <trkpt lat="42.260076887905597686767578125" lon="2.3879601247608661651611328125">
        <ele>868</ele>
        <time>2022-07-27T10:10:03.000Z</time>
      </trkpt>
      <trkpt lat="42.26008418016135692596435546875" lon="2.38789482973515987396240234375">
        <ele>868</ele>
        <time>2022-07-27T10:10:04.000Z</time>
      </trkpt>
      <trkpt lat="42.260080911219120025634765625" lon="2.3877016268670558929443359375">
        <ele>868.4000244140625</ele>
        <time>2022-07-27T10:10:07.000Z</time>
      </trkpt>
      <trkpt lat="42.260060124099254608154296875" lon="2.3875064961612224578857421875">
        <ele>868.5999755859375</ele>
        <time>2022-07-27T10:10:10.000Z</time>
      </trkpt>
      <trkpt lat="42.2599801607429981231689453125" lon="2.38721706904470920562744140625">
        <ele>869</ele>
        <time>2022-07-27T10:10:15.000Z</time>
      </trkpt>
      <trkpt lat="42.259934730827808380126953125" lon="2.38712310791015625">
        <ele>869.20001220703125</ele>
        <time>2022-07-27T10:10:17.000Z</time>
      </trkpt>
      <trkpt lat="42.25984412245452404022216796875" lon="2.38697357475757598876953125">
        <ele>869.20001220703125</ele>
        <time>2022-07-27T10:10:20.000Z</time>
      </trkpt>
      <trkpt lat="42.25981310941278934478759765625" lon="2.3869361914694309234619140625">
        <ele>869</ele>
        <time>2022-07-27T10:10:21.000Z</time>
      </trkpt>
      <trkpt lat="42.25975175388157367706298828125" lon="2.3868299089372158050537109375">
        <ele>869</ele>
        <time>2022-07-27T10:10:24.000Z</time>
      </trkpt>
      <trkpt lat="42.2597283683717250823974609375" lon="2.38678640685975551605224609375">
        <ele>869</ele>
        <time>2022-07-27T10:10:25.000Z</time>
      </trkpt>
      <trkpt lat="42.25969525985419750213623046875" lon="2.386735193431377410888671875">
        <ele>869</ele>
        <time>2022-07-27T10:10:26.000Z</time>
      </trkpt>
      <trkpt lat="42.25961856544017791748046875" lon="2.3866163380444049835205078125">
        <ele>869</ele>
        <time>2022-07-27T10:10:28.000Z</time>
      </trkpt>
      <trkpt lat="42.2595784999430179595947265625" lon="2.38655657507479190826416015625">
        <ele>869</ele>
        <time>2022-07-27T10:10:29.000Z</time>
      </trkpt>
      <trkpt lat="42.25943072699010372161865234375" lon="2.38629874773323535919189453125">
        <ele>869</ele>
        <time>2022-07-27T10:10:33.000Z</time>
      </trkpt>
      <trkpt lat="42.2593491710722446441650390625" lon="2.38615659065544605255126953125">
        <ele>869.20001220703125</ele>
        <time>2022-07-27T10:10:35.000Z</time>
      </trkpt>
      <trkpt lat="42.25931681692600250244140625" lon="2.3860798962414264678955078125">
        <ele>869.20001220703125</ele>
        <time>2022-07-27T10:10:36.000Z</time>
      </trkpt>
      <trkpt lat="42.25928689353168010711669921875" lon="2.3860044591128826141357421875">
        <ele>869.4000244140625</ele>
        <time>2022-07-27T10:10:37.000Z</time>
      </trkpt>
      <trkpt lat="42.259224951267242431640625" lon="2.3858653195202350616455078125">
        <ele>869.5999755859375</ele>
        <time>2022-07-27T10:10:39.000Z</time>
      </trkpt>
      <trkpt lat="42.25918580777943134307861328125" lon="2.38573548384010791778564453125">
        <ele>870</ele>
        <time>2022-07-27T10:10:41.000Z</time>
      </trkpt>
      <trkpt lat="42.2591775096952915191650390625" lon="2.38565786741673946380615234375">
        <ele>870</ele>
        <time>2022-07-27T10:10:42.000Z</time>
      </trkpt>
      <trkpt lat="42.259121350944042205810546875" lon="2.38535544835031032562255859375">
        <ele>870.20001220703125</ele>
        <time>2022-07-27T10:10:46.000Z</time>
      </trkpt>
      <trkpt lat="42.2591003961861133575439453125" lon="2.3852799274027347564697265625">
        <ele>870.20001220703125</ele>
        <time>2022-07-27T10:10:47.000Z</time>
      </trkpt>
      <trkpt lat="42.25907701067626476287841796875" lon="2.3851977847516536712646484375">
        <ele>870.20001220703125</ele>
        <time>2022-07-27T10:10:48.000Z</time>
      </trkpt>
      <trkpt lat="42.2590246237814426422119140625" lon="2.385032661259174346923828125">
        <ele>870.20001220703125</ele>
        <time>2022-07-27T10:10:50.000Z</time>
      </trkpt>
      <trkpt lat="42.25899117998778820037841796875" lon="2.384953200817108154296875">
        <ele>870.20001220703125</ele>
        <time>2022-07-27T10:10:51.000Z</time>
      </trkpt>
      <trkpt lat="42.2589163295924663543701171875" lon="2.38482520915567874908447265625">
        <ele>870.4000244140625</ele>
        <time>2022-07-27T10:10:53.000Z</time>
      </trkpt>
      <trkpt lat="42.2588774375617504119873046875" lon="2.38476351834833621978759765625">
        <ele>870.4000244140625</ele>
        <time>2022-07-27T10:10:54.000Z</time>
      </trkpt>
      <trkpt lat="42.25880359299480915069580078125" lon="2.38467433489859104156494140625">
        <ele>870.4000244140625</ele>
        <time>2022-07-27T10:10:56.000Z</time>
      </trkpt>
      <trkpt lat="42.25872597657144069671630859375" lon="2.38460711203515529632568359375">
        <ele>870.5999755859375</ele>
        <time>2022-07-27T10:10:58.000Z</time>
      </trkpt>
      <trkpt lat="42.25866428576409816741943359375" lon="2.38449261523783206939697265625">
        <ele>870.79998779296875</ele>
        <time>2022-07-27T10:11:01.000Z</time>
      </trkpt>
      <trkpt lat="42.25868239067494869232177734375" lon="2.38441382534801959991455078125">
        <ele>871</ele>
        <time>2022-07-27T10:11:02.000Z</time>
      </trkpt>
      <trkpt lat="42.25880325771868228912353515625" lon="2.38410386256873607635498046875">
        <ele>871</ele>
        <time>2022-07-27T10:11:06.000Z</time>
      </trkpt>
      <trkpt lat="42.2589280642569065093994140625" lon="2.3839016072452068328857421875">
        <ele>871</ele>
        <time>2022-07-27T10:11:09.000Z</time>
      </trkpt>
      <trkpt lat="42.25895605981349945068359375" lon="2.3838298581540584564208984375">
        <ele>871.20001220703125</ele>
        <time>2022-07-27T10:11:10.000Z</time>
      </trkpt>
      <trkpt lat="42.2589703090488910675048828125" lon="2.383592315018177032470703125">
        <ele>871.4000244140625</ele>
        <time>2022-07-27T10:11:13.000Z</time>
      </trkpt>
      <trkpt lat="42.25891641341149806976318359375" lon="2.383389808237552642822265625">
        <ele>871.5999755859375</ele>
        <time>2022-07-27T10:11:16.000Z</time>
      </trkpt>
      <trkpt lat="42.2588154114782810211181640625" lon="2.3831118643283843994140625">
        <ele>871.5999755859375</ele>
        <time>2022-07-27T10:11:21.000Z</time>
      </trkpt>
      <trkpt lat="42.25885120220482349395751953125" lon="2.38282662816345691680908203125">
        <ele>871.79998779296875</ele>
        <time>2022-07-27T10:11:25.000Z</time>
      </trkpt>
      <trkpt lat="42.2589991427958011627197265625" lon="2.3826812021434307098388671875">
        <ele>872</ele>
        <time>2022-07-27T10:11:28.000Z</time>
      </trkpt>
      <trkpt lat="42.25916451774537563323974609375" lon="2.3824870772659778594970703125">
        <ele>872</ele>
        <time>2022-07-27T10:11:32.000Z</time>
      </trkpt>
      <trkpt lat="42.25918966345489025115966796875" lon="2.38244139589369297027587890625">
        <ele>872</ele>
        <time>2022-07-27T10:11:33.000Z</time>
      </trkpt>
      <trkpt lat="42.25921581499278545379638671875" lon="2.38238758407533168792724609375">
        <ele>872</ele>
        <time>2022-07-27T10:11:34.000Z</time>
      </trkpt>
      <trkpt lat="42.2593025676906108856201171875" lon="2.3822517134249210357666015625">
        <ele>872</ele>
        <time>2022-07-27T10:11:36.000Z</time>
      </trkpt>
      <trkpt lat="42.25936266593635082244873046875" lon="2.38219446502625942230224609375">
        <ele>872.20001220703125</ele>
        <time>2022-07-27T10:11:37.000Z</time>
      </trkpt>
      <trkpt lat="42.2595557011663913726806640625" lon="2.38215004093945026397705078125">
        <ele>872.20001220703125</ele>
        <time>2022-07-27T10:11:40.000Z</time>
      </trkpt>
      <trkpt lat="42.25972409360110759735107421875" lon="2.38226621411740779876708984375">
        <ele>872.4000244140625</ele>
        <time>2022-07-27T10:11:43.000Z</time>
      </trkpt>
      <trkpt lat="42.2598141990602016448974609375" lon="2.382377274334430694580078125">
        <ele>872.5999755859375</ele>
        <time>2022-07-27T10:11:45.000Z</time>
      </trkpt>
      <trkpt lat="42.26000622846186161041259765625" lon="2.38258774392306804656982421875">
        <ele>872.79998779296875</ele>
        <time>2022-07-27T10:11:49.000Z</time>
      </trkpt>
      <trkpt lat="42.26038810797035694122314453125" lon="2.3828853853046894073486328125">
        <ele>872.79998779296875</ele>
        <time>2022-07-27T10:11:56.000Z</time>
      </trkpt>
      <trkpt lat="42.2605155967175960540771484375" lon="2.38294749520719051361083984375">
        <ele>872.79998779296875</ele>
        <time>2022-07-27T10:11:58.000Z</time>
      </trkpt>
      <trkpt lat="42.260630428791046142578125" lon="2.38294246606528759002685546875">
        <ele>872.79998779296875</ele>
        <time>2022-07-27T10:12:00.000Z</time>
      </trkpt>
      <trkpt lat="42.26078608073294162750244140625" lon="2.382812798023223876953125">
        <ele>873</ele>
        <time>2022-07-27T10:12:03.000Z</time>
      </trkpt>
      <trkpt lat="42.260802090167999267578125" lon="2.38256871700286865234375">
        <ele>873.20001220703125</ele>
        <time>2022-07-27T10:12:06.000Z</time>
      </trkpt>
      <trkpt lat="42.26069002412259578704833984375" lon="2.38233561627566814422607421875">
        <ele>873.5999755859375</ele>
        <time>2022-07-27T10:12:09.000Z</time>
      </trkpt>
      <trkpt lat="42.26065197028219699859619140625" lon="2.38227275200188159942626953125">
        <ele>874</ele>
        <time>2022-07-27T10:12:10.000Z</time>
      </trkpt>
      <trkpt lat="42.26054987870156764984130859375" lon="2.38207661546766757965087890625">
        <ele>874.5999755859375</ele>
        <time>2022-07-27T10:12:13.000Z</time>
      </trkpt>
      <trkpt lat="42.26051853038370609283447265625" lon="2.38193009980022907257080078125">
        <ele>874.79998779296875</ele>
        <time>2022-07-27T10:12:15.000Z</time>
      </trkpt>
      <trkpt lat="42.2604844160377979278564453125" lon="2.381779141724109649658203125">
        <ele>875</ele>
        <time>2022-07-27T10:12:17.000Z</time>
      </trkpt>
      <trkpt lat="42.2604076378047466278076171875" lon="2.381568588316440582275390625">
        <ele>875.4000244140625</ele>
        <time>2022-07-27T10:12:20.000Z</time>
      </trkpt>
      <trkpt lat="42.26037897169589996337890625" lon="2.3815017007291316986083984375">
        <ele>875.4000244140625</ele>
        <time>2022-07-27T10:12:21.000Z</time>
      </trkpt>
      <trkpt lat="42.260258607566356658935546875" lon="2.38124680705368518829345703125">
        <ele>876</ele>
        <time>2022-07-27T10:12:25.000Z</time>
      </trkpt>
      <trkpt lat="42.260237149894237518310546875" lon="2.3811805061995983123779296875">
        <ele>876</ele>
        <time>2022-07-27T10:12:26.000Z</time>
      </trkpt>
      <trkpt lat="42.26019792258739471435546875" lon="2.38104262389242649078369140625">
        <ele>876.20001220703125</ele>
        <time>2022-07-27T10:12:28.000Z</time>
      </trkpt>
      <trkpt lat="42.2602299414575099945068359375" lon="2.380886636674404144287109375">
        <ele>876.4000244140625</ele>
        <time>2022-07-27T10:12:30.000Z</time>
      </trkpt>
      <trkpt lat="42.260386012494564056396484375" lon="2.380716986954212188720703125">
        <ele>876.4000244140625</ele>
        <time>2022-07-27T10:12:33.000Z</time>
      </trkpt>
      <trkpt lat="42.260445021092891693115234375" lon="2.3806782625615596771240234375">
        <ele>876.4000244140625</ele>
        <time>2022-07-27T10:12:34.000Z</time>
      </trkpt>
      <trkpt lat="42.2606020979583263397216796875" lon="2.38058388233184814453125">
        <ele>876.5999755859375</ele>
        <time>2022-07-27T10:12:37.000Z</time>
      </trkpt>
      <trkpt lat="42.26079362444579601287841796875" lon="2.38039252348244190216064453125">
        <ele>876.79998779296875</ele>
        <time>2022-07-27T10:12:41.000Z</time>
      </trkpt>
      <trkpt lat="42.2608838975429534912109375" lon="2.38026511855423450469970703125">
        <ele>877.20001220703125</ele>
        <time>2022-07-27T10:12:43.000Z</time>
      </trkpt>
      <trkpt lat="42.26094567216932773590087890625" lon="2.3801123164594173431396484375">
        <ele>877.5999755859375</ele>
        <time>2022-07-27T10:12:45.000Z</time>
      </trkpt>
      <trkpt lat="42.26098925806581974029541015625" lon="2.3799473606050014495849609375">
        <ele>878</ele>
        <time>2022-07-27T10:12:47.000Z</time>
      </trkpt>
      <trkpt lat="42.2610067762434482574462890625" lon="2.3798585124313831329345703125">
        <ele>878</ele>
        <time>2022-07-27T10:12:48.000Z</time>
      </trkpt>
      <trkpt lat="42.26104424335062503814697265625" lon="2.37968827597796916961669921875">
        <ele>878.20001220703125</ele>
        <time>2022-07-27T10:12:50.000Z</time>
      </trkpt>
      <trkpt lat="42.26109034381806850433349609375" lon="2.3795232363045215606689453125">
        <ele>878.4000244140625</ele>
        <time>2022-07-27T10:12:52.000Z</time>
      </trkpt>
      <trkpt lat="42.26117617450654506683349609375" lon="2.3793938197195529937744140625">
        <ele>878.4000244140625</ele>
        <time>2022-07-27T10:12:54.000Z</time>
      </trkpt>
      <trkpt lat="42.26128782145678997039794921875" lon="2.3793103359639644622802734375">
        <ele>878.5999755859375</ele>
        <time>2022-07-27T10:12:56.000Z</time>
      </trkpt>
      <trkpt lat="42.2613346762955188751220703125" lon="2.37926214002072811126708984375">
        <ele>878.5999755859375</ele>
        <time>2022-07-27T10:12:57.000Z</time>
      </trkpt>
      <trkpt lat="42.2613775916397571563720703125" lon="2.37920665182173252105712890625">
        <ele>878.5999755859375</ele>
        <time>2022-07-27T10:12:58.000Z</time>
      </trkpt>
      <trkpt lat="42.26155201904475688934326171875" lon="2.37892334349453449249267578125">
        <ele>878.5999755859375</ele>
        <time>2022-07-27T10:13:02.000Z</time>
      </trkpt>
      <trkpt lat="42.26160398684442043304443359375" lon="2.3788620717823505401611328125">
        <ele>878.5999755859375</ele>
        <time>2022-07-27T10:13:03.000Z</time>
      </trkpt>
      <trkpt lat="42.2617966867983341217041015625" lon="2.37883030436933040618896484375">
        <ele>878.5999755859375</ele>
        <time>2022-07-27T10:13:06.000Z</time>
      </trkpt>
      <trkpt lat="42.26194932125508785247802734375" lon="2.378982268273830413818359375">
        <ele>878.5999755859375</ele>
        <time>2022-07-27T10:13:09.000Z</time>
      </trkpt>
      <trkpt lat="42.26238300092518329620361328125" lon="2.37954209558665752410888671875">
        <ele>878.4000244140625</ele>
        <time>2022-07-27T10:13:18.000Z</time>
      </trkpt>
      <trkpt lat="42.26249414496123790740966796875" lon="2.37964435480535030364990234375">
        <ele>878.4000244140625</ele>
        <time>2022-07-27T10:13:20.000Z</time>
      </trkpt>
      <trkpt lat="42.26261903531849384307861328125" lon="2.3796828277409076690673828125">
        <ele>878.5999755859375</ele>
        <time>2022-07-27T10:13:22.000Z</time>
      </trkpt>
      <trkpt lat="42.26281148381531238555908203125" lon="2.37962407059967517852783203125">
        <ele>878.5999755859375</ele>
        <time>2022-07-27T10:13:25.000Z</time>
      </trkpt>
      <trkpt lat="42.2629228793084621429443359375" lon="2.37955450080335140228271484375">
        <ele>878.5999755859375</ele>
        <time>2022-07-27T10:13:27.000Z</time>
      </trkpt>
      <trkpt lat="42.2629781998693943023681640625" lon="2.37952181138098239898681640625">
        <ele>878.79998779296875</ele>
        <time>2022-07-27T10:13:28.000Z</time>
      </trkpt>
      <trkpt lat="42.26309194229543209075927734375" lon="2.379454337060451507568359375">
        <ele>879</ele>
        <time>2022-07-27T10:13:30.000Z</time>
      </trkpt>
      <trkpt lat="42.26314223371446132659912109375" lon="2.3794184625148773193359375">
        <ele>879</ele>
        <time>2022-07-27T10:13:31.000Z</time>
      </trkpt>
      <trkpt lat="42.263262011110782623291015625" lon="2.3792610503733158111572265625">
        <ele>879.20001220703125</ele>
        <time>2022-07-27T10:13:34.000Z</time>
      </trkpt>
      <trkpt lat="42.2633434832096099853515625" lon="2.37904488109052181243896484375">
        <ele>879.20001220703125</ele>
        <time>2022-07-27T10:13:37.000Z</time>
      </trkpt>
      <trkpt lat="42.26337432861328125" lon="2.378972209990024566650390625">
        <ele>879.20001220703125</ele>
        <time>2022-07-27T10:13:38.000Z</time>
      </trkpt>
      <trkpt lat="42.2635340876877307891845703125" lon="2.37860566936433315277099609375">
        <ele>879.20001220703125</ele>
        <time>2022-07-27T10:13:43.000Z</time>
      </trkpt>
      <trkpt lat="42.26360374130308628082275390625" lon="2.3783718980848789215087890625">
        <ele>879.20001220703125</ele>
        <time>2022-07-27T10:13:46.000Z</time>
      </trkpt>
      <trkpt lat="42.26363693363964557647705078125" lon="2.37829838879406452178955078125">
        <ele>879.20001220703125</ele>
        <time>2022-07-27T10:13:47.000Z</time>
      </trkpt>
      <trkpt lat="42.2636930085718631744384765625" lon="2.37815069966018199920654296875">
        <ele>879.4000244140625</ele>
        <time>2022-07-27T10:13:49.000Z</time>
      </trkpt>
      <trkpt lat="42.2638412006199359893798828125" lon="2.3776456899940967559814453125">
        <ele>879.79998779296875</ele>
        <time>2022-07-27T10:13:56.000Z</time>
      </trkpt>
      <trkpt lat="42.2638740576803684234619140625" lon="2.377507388591766357421875">
        <ele>879.79998779296875</ele>
        <time>2022-07-27T10:13:58.000Z</time>
      </trkpt>
      <trkpt lat="42.26391236297786235809326171875" lon="2.37723271362483501434326171875">
        <ele>880</ele>
        <time>2022-07-27T10:14:02.000Z</time>
      </trkpt>
      <trkpt lat="42.26390029303729534149169921875" lon="2.37702886573970317840576171875">
        <ele>880</ele>
        <time>2022-07-27T10:14:05.000Z</time>
      </trkpt>
      <trkpt lat="42.2638718783855438232421875" lon="2.376894168555736541748046875">
        <ele>880.20001220703125</ele>
        <time>2022-07-27T10:14:07.000Z</time>
      </trkpt>
      <trkpt lat="42.26370147429406642913818359375" lon="2.37649016082286834716796875">
        <ele>880.79998779296875</ele>
        <time>2022-07-27T10:14:13.000Z</time>
      </trkpt>
      <trkpt lat="42.2636685334146022796630859375" lon="2.37642402760684490203857421875">
        <ele>881</ele>
        <time>2022-07-27T10:14:14.000Z</time>
      </trkpt>
      <trkpt lat="42.263638861477375030517578125" lon="2.37635479308664798736572265625">
        <ele>881</ele>
        <time>2022-07-27T10:14:15.000Z</time>
      </trkpt>
      <trkpt lat="42.2634992189705371856689453125" lon="2.375994622707366943359375">
        <ele>881.5999755859375</ele>
        <time>2022-07-27T10:14:20.000Z</time>
      </trkpt>
      <trkpt lat="42.263414226472377777099609375" lon="2.37577660940587520599365234375">
        <ele>882</ele>
        <time>2022-07-27T10:14:23.000Z</time>
      </trkpt>
      <trkpt lat="42.26327399723231792449951171875" lon="2.37540026195347309112548828125">
        <ele>882.20001220703125</ele>
        <time>2022-07-27T10:14:28.000Z</time>
      </trkpt>
      <trkpt lat="42.26301818154752254486083984375" lon="2.37470121122896671295166015625">
        <ele>882.20001220703125</ele>
        <time>2022-07-27T10:14:37.000Z</time>
      </trkpt>
      <trkpt lat="42.2627495415508747100830078125" lon="2.3739915154874324798583984375">
        <ele>881.5999755859375</ele>
        <time>2022-07-27T10:14:46.000Z</time>
      </trkpt>
      <trkpt lat="42.262693382799625396728515625" lon="2.37382580526173114776611328125">
        <ele>881</ele>
        <time>2022-07-27T10:14:48.000Z</time>
      </trkpt>
      <trkpt lat="42.26266312412917613983154296875" lon="2.37374383024871349334716796875">
        <ele>880.79998779296875</ele>
        <time>2022-07-27T10:14:49.000Z</time>
      </trkpt>
      <trkpt lat="42.26242390461266040802001953125" lon="2.37318475730717182159423828125">
        <ele>880.20001220703125</ele>
        <time>2022-07-27T10:14:56.000Z</time>
      </trkpt>
      <trkpt lat="42.26220999844372272491455078125" lon="2.37296414561569690704345703125">
        <ele>880</ele>
        <time>2022-07-27T10:15:00.000Z</time>
      </trkpt>
      <trkpt lat="42.261788807809352874755859375" lon="2.37266859970986843109130859375">
        <ele>879.79998779296875</ele>
        <time>2022-07-27T10:15:06.000Z</time>
      </trkpt>
      <trkpt lat="42.26145730353891849517822265625" lon="2.37244195304811000823974609375">
        <ele>879.4000244140625</ele>
        <time>2022-07-27T10:15:11.000Z</time>
      </trkpt>
      <trkpt lat="42.26138387806713581085205078125" lon="2.37238277681171894073486328125">
        <ele>878</ele>
        <time>2022-07-27T10:15:13.000Z</time>
      </trkpt>
      <trkpt lat="42.26136543788015842437744140625" lon="2.37234036438167095184326171875">
        <ele>877.20001220703125</ele>
        <time>2022-07-27T10:15:14.000Z</time>
      </trkpt>
      <trkpt lat="42.26136292330920696258544921875" lon="2.37229057587683200836181640625">
        <ele>876.20001220703125</ele>
        <time>2022-07-27T10:15:15.000Z</time>
      </trkpt>
      <trkpt lat="42.26139158941805362701416015625" lon="2.372198291122913360595703125">
        <ele>875.5999755859375</ele>
        <time>2022-07-27T10:15:17.000Z</time>
      </trkpt>
      <trkpt lat="42.26140893995761871337890625" lon="2.37215328030288219451904296875">
        <ele>875.4000244140625</ele>
        <time>2022-07-27T10:15:18.000Z</time>
      </trkpt>
      <trkpt lat="42.261464260518550872802734375" lon="2.3719470016658306121826171875">
        <ele>875.20001220703125</ele>
        <time>2022-07-27T10:15:23.000Z</time>
      </trkpt>
      <trkpt lat="42.26159057579934597015380859375" lon="2.37176679074764251708984375">
        <ele>876</ele>
        <time>2022-07-27T10:15:29.000Z</time>
      </trkpt>
      <trkpt lat="42.26168646477162837982177734375" lon="2.37166193313896656036376953125">
        <ele>877.4000244140625</ele>
        <time>2022-07-27T10:15:34.000Z</time>
      </trkpt>
      <trkpt lat="42.26168881170451641082763671875" lon="2.37165925092995166778564453125">
        <ele>877.79998779296875</ele>
        <time>2022-07-27T10:15:35.000Z</time>
      </trkpt>
      <trkpt lat="42.26142142899334430694580078125" lon="2.3721263743937015533447265625">
        <ele>879</ele>
        <time>2022-07-27T10:20:51.000Z</time>
      </trkpt>
      <trkpt lat="42.2614097781479358673095703125" lon="2.37217054702341556549072265625">
        <ele>878.5999755859375</ele>
        <time>2022-07-27T10:20:52.000Z</time>
      </trkpt>
      <trkpt lat="42.261318080127239227294921875" lon="2.37229996360838413238525390625">
        <ele>877.20001220703125</ele>
        <time>2022-07-27T10:20:56.000Z</time>
      </trkpt>
      <trkpt lat="42.26128019392490386962890625" lon="2.372308261692523956298828125">
        <ele>877</ele>
        <time>2022-07-27T10:20:57.000Z</time>
      </trkpt>
      <trkpt lat="42.26119578815996646881103515625" lon="2.3722785897552967071533203125">
        <ele>876.5999755859375</ele>
        <time>2022-07-27T10:20:59.000Z</time>
      </trkpt>
      <trkpt lat="42.26110719144344329833984375" lon="2.37221128307282924652099609375">
        <ele>876.4000244140625</ele>
        <time>2022-07-27T10:21:01.000Z</time>
      </trkpt>
      <trkpt lat="42.26105815730988979339599609375" lon="2.3721746541559696197509765625">
        <ele>876</ele>
        <time>2022-07-27T10:21:02.000Z</time>
      </trkpt>
      <trkpt lat="42.26095975376665592193603515625" lon="2.3720935173332691192626953125">
        <ele>875.5999755859375</ele>
        <time>2022-07-27T10:21:04.000Z</time>
      </trkpt>
      <trkpt lat="42.2608676366508007049560546875" lon="2.3719914257526397705078125">
        <ele>874.20001220703125</ele>
        <time>2022-07-27T10:21:06.000Z</time>
      </trkpt>
      <trkpt lat="42.2608089633285999298095703125" lon="2.371845245361328125">
        <ele>873.20001220703125</ele>
        <time>2022-07-27T10:21:08.000Z</time>
      </trkpt>
      <trkpt lat="42.2607980668544769287109375" lon="2.37176477909088134765625">
        <ele>873</ele>
        <time>2022-07-27T10:21:09.000Z</time>
      </trkpt>
      <trkpt lat="42.2608183510601520538330078125" lon="2.37160543911159038543701171875">
        <ele>871.5999755859375</ele>
        <time>2022-07-27T10:21:11.000Z</time>
      </trkpt>
      <trkpt lat="42.2608820535242557525634765625" lon="2.37145976163446903228759765625">
        <ele>870.4000244140625</ele>
        <time>2022-07-27T10:21:13.000Z</time>
      </trkpt>
      <trkpt lat="42.260923124849796295166015625" lon="2.371390946209430694580078125">
        <ele>870</ele>
        <time>2022-07-27T10:21:14.000Z</time>
      </trkpt>
      <trkpt lat="42.2609628550708293914794921875" lon="2.37132078967988491058349609375">
        <ele>869.79998779296875</ele>
        <time>2022-07-27T10:21:15.000Z</time>
      </trkpt>
      <trkpt lat="42.26103401742875576019287109375" lon="2.37116941250860691070556640625">
        <ele>869.5999755859375</ele>
        <time>2022-07-27T10:21:17.000Z</time>
      </trkpt>
      <trkpt lat="42.2611157409846782684326171875" lon="2.370917536318302154541015625">
        <ele>869.4000244140625</ele>
        <time>2022-07-27T10:21:20.000Z</time>
      </trkpt>
      <trkpt lat="42.26114742457866668701171875" lon="2.37083606421947479248046875">
        <ele>869</ele>
        <time>2022-07-27T10:21:21.000Z</time>
      </trkpt>
      <trkpt lat="42.261277176439762115478515625" lon="2.370624840259552001953125">
        <ele>868.4000244140625</ele>
        <time>2022-07-27T10:21:24.000Z</time>
      </trkpt>
      <trkpt lat="42.26136711426079273223876953125" lon="2.3704912327229976654052734375">
        <ele>868</ele>
        <time>2022-07-27T10:21:26.000Z</time>
      </trkpt>
      <trkpt lat="42.26140248589217662811279296875" lon="2.3704144544899463653564453125">
        <ele>868</ele>
        <time>2022-07-27T10:21:27.000Z</time>
      </trkpt>
      <trkpt lat="42.26142813451588153839111328125" lon="2.37032912671566009521484375">
        <ele>867.79998779296875</ele>
        <time>2022-07-27T10:21:28.000Z</time>
      </trkpt>
      <trkpt lat="42.26146015338599681854248046875" lon="2.370045483112335205078125">
        <ele>867.5999755859375</ele>
        <time>2022-07-27T10:21:31.000Z</time>
      </trkpt>
      <trkpt lat="42.26146484725177288055419921875" lon="2.3699470795691013336181640625">
        <ele>867.5999755859375</ele>
        <time>2022-07-27T10:21:32.000Z</time>
      </trkpt>
      <trkpt lat="42.2614738158881664276123046875" lon="2.36935280263423919677734375">
        <ele>867.4000244140625</ele>
        <time>2022-07-27T10:21:38.000Z</time>
      </trkpt>
      <trkpt lat="42.261460237205028533935546875" lon="2.36915272660553455352783203125">
        <ele>866.5999755859375</ele>
        <time>2022-07-27T10:21:40.000Z</time>
      </trkpt>
      <trkpt lat="42.261410616338253021240234375" lon="2.36895290203392505645751953125">
        <ele>866</ele>
        <time>2022-07-27T10:21:42.000Z</time>
      </trkpt>
      <trkpt lat="42.261307351291179656982421875" lon="2.36864578910171985626220703125">
        <ele>865.5999755859375</ele>
        <time>2022-07-27T10:21:45.000Z</time>
      </trkpt>
      <trkpt lat="42.2611911781132221221923828125" lon="2.3683141171932220458984375">
        <ele>865.20001220703125</ele>
        <time>2022-07-27T10:21:48.000Z</time>
      </trkpt>
      <trkpt lat="42.2610651142895221710205078125" lon="2.36796584911644458770751953125">
        <ele>864.4000244140625</ele>
        <time>2022-07-27T10:21:51.000Z</time>
      </trkpt>
      <trkpt lat="42.26096143014729022979736328125" lon="2.3677392862737178802490234375">
        <ele>863.5999755859375</ele>
        <time>2022-07-27T10:21:53.000Z</time>
      </trkpt>
      <trkpt lat="42.26089538075029850006103515625" lon="2.3676356859505176544189453125">
        <ele>863.20001220703125</ele>
        <time>2022-07-27T10:21:54.000Z</time>
      </trkpt>
      <trkpt lat="42.2607482783496379852294921875" lon="2.3674445785582065582275390625">
        <ele>861.5999755859375</ele>
        <time>2022-07-27T10:21:56.000Z</time>
      </trkpt>
      <trkpt lat="42.2606718353927135467529296875" lon="2.36735430546104907989501953125">
        <ele>860.5999755859375</ele>
        <time>2022-07-27T10:21:57.000Z</time>
      </trkpt>
      <trkpt lat="42.2605943866074085235595703125" lon="2.367265038192272186279296875">
        <ele>859.5999755859375</ele>
        <time>2022-07-27T10:21:58.000Z</time>
      </trkpt>
      <trkpt lat="42.260440327227115631103515625" lon="2.36708088777959346771240234375">
        <ele>858.5999755859375</ele>
        <time>2022-07-27T10:22:00.000Z</time>
      </trkpt>
      <trkpt lat="42.26021996699273586273193359375" lon="2.36681400798261165618896484375">
        <ele>856.79998779296875</ele>
        <time>2022-07-27T10:22:03.000Z</time>
      </trkpt>
      <trkpt lat="42.26015659980475902557373046875" lon="2.3667381517589092254638671875">
        <ele>855.79998779296875</ele>
        <time>2022-07-27T10:22:04.000Z</time>
      </trkpt>
      <trkpt lat="42.26010630838572978973388671875" lon="2.36666866578161716461181640625">
        <ele>855.20001220703125</ele>
        <time>2022-07-27T10:22:05.000Z</time>
      </trkpt>
      <trkpt lat="42.260068841278553009033203125" lon="2.3665988445281982421875">
        <ele>854.79998779296875</ele>
        <time>2022-07-27T10:22:06.000Z</time>
      </trkpt>
      <trkpt lat="42.2600327990949153900146484375" lon="2.366453669965267181396484375">
        <ele>853.4000244140625</ele>
        <time>2022-07-27T10:22:08.000Z</time>
      </trkpt>
      <trkpt lat="42.26004595868289470672607421875" lon="2.36630070023238658905029296875">
        <ele>852.20001220703125</ele>
        <time>2022-07-27T10:22:10.000Z</time>
      </trkpt>
      <trkpt lat="42.2600602917373180389404296875" lon="2.36622107215225696563720703125">
        <ele>851.79998779296875</ele>
        <time>2022-07-27T10:22:11.000Z</time>
      </trkpt>
      <trkpt lat="42.26007613353431224822998046875" lon="2.36614077351987361907958984375">
        <ele>851.79998779296875</ele>
        <time>2022-07-27T10:22:12.000Z</time>
      </trkpt>
      <trkpt lat="42.26009868085384368896484375" lon="2.36606315709650516510009765625">
        <ele>851.5999755859375</ele>
        <time>2022-07-27T10:22:13.000Z</time>
      </trkpt>
      <trkpt lat="42.26018727757036685943603515625" lon="2.3659462295472621917724609375">
        <ele>851</ele>
        <time>2022-07-27T10:22:15.000Z</time>
      </trkpt>
      <trkpt lat="42.26038701832294464111328125" lon="2.36589870415627956390380859375">
        <ele>850.4000244140625</ele>
        <time>2022-07-27T10:22:18.000Z</time>
      </trkpt>
      <trkpt lat="42.26060503162443637847900390625" lon="2.36589669249951839447021484375">
        <ele>850</ele>
        <time>2022-07-27T10:22:21.000Z</time>
      </trkpt>
      <trkpt lat="42.26083033718168735504150390625" lon="2.3658929206430912017822265625">
        <ele>849.20001220703125</ele>
        <time>2022-07-27T10:22:24.000Z</time>
      </trkpt>
      <trkpt lat="42.2609890066087245941162109375" lon="2.365883029997348785400390625">
        <ele>849</ele>
        <time>2022-07-27T10:22:26.000Z</time>
      </trkpt>
      <trkpt lat="42.261295616626739501953125" lon="2.36588495783507823944091796875">
        <ele>849</ele>
        <time>2022-07-27T10:22:30.000Z</time>
      </trkpt>
      <trkpt lat="42.26136828772723674774169921875" lon="2.3659002967178821563720703125">
        <ele>849</ele>
        <time>2022-07-27T10:22:31.000Z</time>
      </trkpt>
      <trkpt lat="42.26157867349684238433837890625" lon="2.36598889343440532684326171875">
        <ele>849</ele>
        <time>2022-07-27T10:22:34.000Z</time>
      </trkpt>
      <trkpt lat="42.26213422603905200958251953125" lon="2.36620715819299221038818359375">
        <ele>849.79998779296875</ele>
        <time>2022-07-27T10:22:42.000Z</time>
      </trkpt>
      <trkpt lat="42.2626013495028018951416015625" lon="2.36639088951051235198974609375">
        <ele>850.20001220703125</ele>
        <time>2022-07-27T10:22:49.000Z</time>
      </trkpt>
      <trkpt lat="42.2626660577952861785888671875" lon="2.3664189688861370086669921875">
        <ele>850.4000244140625</ele>
        <time>2022-07-27T10:22:50.000Z</time>
      </trkpt>
      <trkpt lat="42.26304265670478343963623046875" lon="2.366566322743892669677734375">
        <ele>851.20001220703125</ele>
        <time>2022-07-27T10:22:56.000Z</time>
      </trkpt>
      <trkpt lat="42.26328221149742603302001953125" lon="2.36665676347911357879638671875">
        <ele>851.5999755859375</ele>
        <time>2022-07-27T10:23:00.000Z</time>
      </trkpt>
      <trkpt lat="42.26356719620525836944580078125" lon="2.366775535047054290771484375">
        <ele>852.4000244140625</ele>
        <time>2022-07-27T10:23:05.000Z</time>
      </trkpt>
      <trkpt lat="42.2637355886399745941162109375" lon="2.366842925548553466796875">
        <ele>852.5999755859375</ele>
        <time>2022-07-27T10:23:08.000Z</time>
      </trkpt>
      <trkpt lat="42.26401629857718944549560546875" lon="2.3669527284801006317138671875">
        <ele>853.20001220703125</ele>
        <time>2022-07-27T10:23:13.000Z</time>
      </trkpt>
      <trkpt lat="42.26412978954613208770751953125" lon="2.3669963143765926361083984375">
        <ele>853.4000244140625</ele>
        <time>2022-07-27T10:23:15.000Z</time>
      </trkpt>
      <trkpt lat="42.2644088231027126312255859375" lon="2.36710838042199611663818359375">
        <ele>853.5999755859375</ele>
        <time>2022-07-27T10:23:20.000Z</time>
      </trkpt>
      <trkpt lat="42.264692969620227813720703125" lon="2.36721784807741641998291015625">
        <ele>854.4000244140625</ele>
        <time>2022-07-27T10:23:25.000Z</time>
      </trkpt>
      <trkpt lat="42.26497770287096500396728515625" lon="2.36732882447540760040283203125">
        <ele>855.4000244140625</ele>
        <time>2022-07-27T10:23:30.000Z</time>
      </trkpt>
      <trkpt lat="42.26503419689834117889404296875" lon="2.3673493601381778717041015625">
        <ele>855.5999755859375</ele>
        <time>2022-07-27T10:23:31.000Z</time>
      </trkpt>
      <trkpt lat="42.26554448716342449188232421875" lon="2.36755429767072200775146484375">
        <ele>856.5999755859375</ele>
        <time>2022-07-27T10:23:40.000Z</time>
      </trkpt>
      <trkpt lat="42.26606391370296478271484375" lon="2.36777440644800662994384765625">
        <ele>857</ele>
        <time>2022-07-27T10:23:49.000Z</time>
      </trkpt>
      <trkpt lat="42.26612166501581668853759765625" lon="2.367795445024967193603515625">
        <ele>857.20001220703125</ele>
        <time>2022-07-27T10:23:50.000Z</time>
      </trkpt>
      <trkpt lat="42.2665755450725555419921875" lon="2.3679736442863941192626953125">
        <ele>857.5999755859375</ele>
        <time>2022-07-27T10:23:58.000Z</time>
      </trkpt>
      <trkpt lat="42.2666303627192974090576171875" lon="2.36799501813948154449462890625">
        <ele>857.5999755859375</ele>
        <time>2022-07-27T10:23:59.000Z</time>
      </trkpt>
      <trkpt lat="42.26712900213897228240966796875" lon="2.3681912384927272796630859375">
        <ele>858</ele>
        <time>2022-07-27T10:24:08.000Z</time>
      </trkpt>
      <trkpt lat="42.267516665160655975341796875" lon="2.368344962596893310546875">
        <ele>858.5999755859375</ele>
        <time>2022-07-27T10:24:15.000Z</time>
      </trkpt>
      <trkpt lat="42.2676296532154083251953125" lon="2.36838913522660732269287109375">
        <ele>858.79998779296875</ele>
        <time>2022-07-27T10:24:17.000Z</time>
      </trkpt>
      <trkpt lat="42.26813952438533306121826171875" lon="2.36858678050339221954345703125">
        <ele>859.5999755859375</ele>
        <time>2022-07-27T10:24:26.000Z</time>
      </trkpt>
      <trkpt lat="42.26836835034191608428955078125" lon="2.3686762154102325439453125">
        <ele>860</ele>
        <time>2022-07-27T10:24:30.000Z</time>
      </trkpt>
      <trkpt lat="42.26888702251017093658447265625" lon="2.368881739675998687744140625">
        <ele>860.5999755859375</ele>
        <time>2022-07-27T10:24:39.000Z</time>
      </trkpt>
      <trkpt lat="42.2690587677061557769775390625" lon="2.36894686706364154815673828125">
        <ele>860.5999755859375</ele>
        <time>2022-07-27T10:24:42.000Z</time>
      </trkpt>
      <trkpt lat="42.26922900415956974029541015625" lon="2.36901744268834590911865234375">
        <ele>860.79998779296875</ele>
        <time>2022-07-27T10:24:45.000Z</time>
      </trkpt>
      <trkpt lat="42.2696904279291629791259765625" lon="2.3692024312913417816162109375">
        <ele>861.20001220703125</ele>
        <time>2022-07-27T10:24:53.000Z</time>
      </trkpt>
      <trkpt lat="42.270031236112117767333984375" lon="2.36934131942689418792724609375">
        <ele>861.79998779296875</ele>
        <time>2022-07-27T10:24:59.000Z</time>
      </trkpt>
      <trkpt lat="42.27020029909908771514892578125" lon="2.36941021867096424102783203125">
        <ele>862</ele>
        <time>2022-07-27T10:25:02.000Z</time>
      </trkpt>
      <trkpt lat="42.27042459882795810699462890625" lon="2.3694994859397411346435546875">
        <ele>862.79998779296875</ele>
        <time>2022-07-27T10:25:06.000Z</time>
      </trkpt>
      <trkpt lat="42.27059022523462772369384765625" lon="2.36957198940217494964599609375">
        <ele>863.20001220703125</ele>
        <time>2022-07-27T10:25:09.000Z</time>
      </trkpt>
      <trkpt lat="42.27100026793777942657470703125" lon="2.369736023247241973876953125">
        <ele>864</ele>
        <time>2022-07-27T10:25:16.000Z</time>
      </trkpt>
      <trkpt lat="42.2711247391998767852783203125" lon="2.36978941597044467926025390625">
        <ele>864</ele>
        <time>2022-07-27T10:25:18.000Z</time>
      </trkpt>
      <trkpt lat="42.27138147689402103424072265625" lon="2.369863092899322509765625">
        <ele>864.20001220703125</ele>
        <time>2022-07-27T10:25:22.000Z</time>
      </trkpt>
      <trkpt lat="42.2714445926249027252197265625" lon="2.369851358234882354736328125">
        <ele>864.4000244140625</ele>
        <time>2022-07-27T10:25:23.000Z</time>
      </trkpt>
      <trkpt lat="42.27160762064158916473388671875" lon="2.36971397884190082550048828125">
        <ele>864.4000244140625</ele>
        <time>2022-07-27T10:25:26.000Z</time>
      </trkpt>
      <trkpt lat="42.27168657816946506500244140625" lon="2.369443662464618682861328125">
        <ele>864.4000244140625</ele>
        <time>2022-07-27T10:25:29.000Z</time>
      </trkpt>
      <trkpt lat="42.271809875965118408203125" lon="2.368844859302043914794921875">
        <ele>864.20001220703125</ele>
        <time>2022-07-27T10:25:35.000Z</time>
      </trkpt>
      <trkpt lat="42.27185052819550037384033203125" lon="2.36875601112842559814453125">
        <ele>864.20001220703125</ele>
        <time>2022-07-27T10:25:36.000Z</time>
      </trkpt>
      <trkpt lat="42.27202570997178554534912109375" lon="2.3685486428439617156982421875">
        <ele>863.5999755859375</ele>
        <time>2022-07-27T10:25:39.000Z</time>
      </trkpt>
      <trkpt lat="42.27224682457745075225830078125" lon="2.3685045540332794189453125">
        <ele>863.4000244140625</ele>
        <time>2022-07-27T10:25:42.000Z</time>
      </trkpt>
      <trkpt lat="42.2728049755096435546875" lon="2.36849474720656871795654296875">
        <ele>864</ele>
        <time>2022-07-27T10:25:50.000Z</time>
      </trkpt>
      <trkpt lat="42.27287136018276214599609375" lon="2.368492148816585540771484375">
        <ele>864.20001220703125</ele>
        <time>2022-07-27T10:25:51.000Z</time>
      </trkpt>
      <trkpt lat="42.2733938880264759063720703125" lon="2.36847530119121074676513671875">
        <ele>865</ele>
        <time>2022-07-27T10:25:59.000Z</time>
      </trkpt>
      <trkpt lat="42.2735948860645294189453125" lon="2.3684718646109104156494140625">
        <ele>866.4000244140625</ele>
        <time>2022-07-27T10:26:02.000Z</time>
      </trkpt>
      <trkpt lat="42.27391817606985569000244140625" lon="2.36845635809004306793212890625">
        <ele>866.79998779296875</ele>
        <time>2022-07-27T10:26:07.000Z</time>
      </trkpt>
      <trkpt lat="42.27430977858603000640869140625" lon="2.3684477247297763824462890625">
        <ele>867.5999755859375</ele>
        <time>2022-07-27T10:26:13.000Z</time>
      </trkpt>
      <trkpt lat="42.27450021542608737945556640625" lon="2.36844160594046115875244140625">
        <ele>868.20001220703125</ele>
        <time>2022-07-27T10:26:16.000Z</time>
      </trkpt>
      <trkpt lat="42.27468528784811496734619140625" lon="2.36843506805598735809326171875">
        <ele>868.5999755859375</ele>
        <time>2022-07-27T10:26:19.000Z</time>
      </trkpt>
      <trkpt lat="42.27504621259868144989013671875" lon="2.368425093591213226318359375">
        <ele>869.5999755859375</ele>
        <time>2022-07-27T10:26:25.000Z</time>
      </trkpt>
      <trkpt lat="42.275106646120548248291015625" lon="2.36842366866767406463623046875">
        <ele>869.5999755859375</ele>
        <time>2022-07-27T10:26:26.000Z</time>
      </trkpt>
      <trkpt lat="42.275699414312839508056640625" lon="2.368403635919094085693359375">
        <ele>870.5999755859375</ele>
        <time>2022-07-27T10:26:36.000Z</time>
      </trkpt>
      <trkpt lat="42.27575741708278656005859375" lon="2.36840195953845977783203125">
        <ele>870.79998779296875</ele>
        <time>2022-07-27T10:26:37.000Z</time>
      </trkpt>
      <trkpt lat="42.27621917612850666046142578125" lon="2.36838595010340213775634765625">
        <ele>871.79998779296875</ele>
        <time>2022-07-27T10:26:45.000Z</time>
      </trkpt>
      <trkpt lat="42.276445738971233367919921875" lon="2.36837907694280147552490234375">
        <ele>872.4000244140625</ele>
        <time>2022-07-27T10:26:49.000Z</time>
      </trkpt>
      <trkpt lat="42.27667263709008693695068359375" lon="2.3683704435825347900390625">
        <ele>873</ele>
        <time>2022-07-27T10:26:53.000Z</time>
      </trkpt>
      <trkpt lat="42.27718996815383434295654296875" lon="2.368347644805908203125">
        <ele>874</ele>
        <time>2022-07-27T10:27:02.000Z</time>
      </trkpt>
      <trkpt lat="42.2773058898746967315673828125" lon="2.36834487877786159515380859375">
        <ele>874.20001220703125</ele>
        <time>2022-07-27T10:27:04.000Z</time>
      </trkpt>
      <trkpt lat="42.2778262384235858917236328125" lon="2.368325851857662200927734375">
        <ele>875</ele>
        <time>2022-07-27T10:27:13.000Z</time>
      </trkpt>
      <trkpt lat="42.27840207517147064208984375" lon="2.36830330453813076019287109375">
        <ele>876</ele>
        <time>2022-07-27T10:27:23.000Z</time>
      </trkpt>
      <trkpt lat="42.27851615287363529205322265625" lon="2.36830011941492557525634765625">
        <ele>876.20001220703125</ele>
        <time>2022-07-27T10:27:25.000Z</time>
      </trkpt>
      <trkpt lat="42.278916053473949432373046875" lon="2.36828519962728023529052734375">
        <ele>877.20001220703125</ele>
        <time>2022-07-27T10:27:32.000Z</time>
      </trkpt>
      <trkpt lat="42.27897296659648418426513671875" lon="2.368283607065677642822265625">
        <ele>877.4000244140625</ele>
        <time>2022-07-27T10:27:33.000Z</time>
      </trkpt>
      <trkpt lat="42.27948493324220180511474609375" lon="2.3682696931064128875732421875">
        <ele>878.4000244140625</ele>
        <time>2022-07-27T10:27:42.000Z</time>
      </trkpt>
      <trkpt lat="42.2797681577503681182861328125" lon="2.36826441250741481781005859375">
        <ele>879</ele>
        <time>2022-07-27T10:27:47.000Z</time>
      </trkpt>
      <trkpt lat="42.28005372919142246246337890625" lon="2.36826407723128795623779296875">
        <ele>879.4000244140625</ele>
        <time>2022-07-27T10:27:52.000Z</time>
      </trkpt>
      <trkpt lat="42.2804031707346439361572265625" lon="2.36825443804264068603515625">
        <ele>880.20001220703125</ele>
        <time>2022-07-27T10:27:58.000Z</time>
      </trkpt>
      <trkpt lat="42.28046176023781299591064453125" lon="2.36825443804264068603515625">
        <ele>880.4000244140625</ele>
        <time>2022-07-27T10:27:59.000Z</time>
      </trkpt>
      <trkpt lat="42.28105704300105571746826171875" lon="2.3682452179491519927978515625">
        <ele>881.4000244140625</ele>
        <time>2022-07-27T10:28:09.000Z</time>
      </trkpt>
      <trkpt lat="42.281119823455810546875" lon="2.3682445473968982696533203125">
        <ele>881.4000244140625</ele>
        <time>2022-07-27T10:28:10.000Z</time>
      </trkpt>
      <trkpt lat="42.28170010261237621307373046875" lon="2.36823222599923610687255859375">
        <ele>881.79998779296875</ele>
        <time>2022-07-27T10:28:19.000Z</time>
      </trkpt>
      <trkpt lat="42.28176581673324108123779296875" lon="2.36822954379022121429443359375">
        <ele>881.79998779296875</ele>
        <time>2022-07-27T10:28:20.000Z</time>
      </trkpt>
      <trkpt lat="42.2823705710470676422119140625" lon="2.36821353435516357421875">
        <ele>881.79998779296875</ele>
        <time>2022-07-27T10:28:29.000Z</time>
      </trkpt>
      <trkpt lat="42.2824382968246936798095703125" lon="2.36821160651743412017822265625">
        <ele>881.79998779296875</ele>
        <time>2022-07-27T10:28:30.000Z</time>
      </trkpt>
      <trkpt lat="42.282983958721160888671875" lon="2.36820213496685028076171875">
        <ele>882</ele>
        <time>2022-07-27T10:28:38.000Z</time>
      </trkpt>
      <trkpt lat="42.283257879316806793212890625" lon="2.36817003227770328521728515625">
        <ele>882</ele>
        <time>2022-07-27T10:28:42.000Z</time>
      </trkpt>
      <trkpt lat="42.28366700001060962677001953125" lon="2.3680189065635204315185546875">
        <ele>882.20001220703125</ele>
        <time>2022-07-27T10:28:48.000Z</time>
      </trkpt>
      <trkpt lat="42.28380404412746429443359375" lon="2.36794690601527690887451171875">
        <ele>882.5999755859375</ele>
        <time>2022-07-27T10:28:50.000Z</time>
      </trkpt>
      <trkpt lat="42.28427477180957794189453125" lon="2.3677070997655391693115234375">
        <ele>882.79998779296875</ele>
        <time>2022-07-27T10:28:57.000Z</time>
      </trkpt>
      <trkpt lat="42.2848257981240749359130859375" lon="2.36742437817156314849853515625">
        <ele>882.79998779296875</ele>
        <time>2022-07-27T10:29:05.000Z</time>
      </trkpt>
      <trkpt lat="42.28496502153575420379638671875" lon="2.36735162325203418731689453125">
        <ele>882.79998779296875</ele>
        <time>2022-07-27T10:29:07.000Z</time>
      </trkpt>
      <trkpt lat="42.28551235981285572052001953125" lon="2.36707015894353389739990234375">
        <ele>882.5999755859375</ele>
        <time>2022-07-27T10:29:15.000Z</time>
      </trkpt>
      <trkpt lat="42.28564496152102947235107421875" lon="2.36700662411749362945556640625">
        <ele>882.5999755859375</ele>
        <time>2022-07-27T10:29:17.000Z</time>
      </trkpt>
      <trkpt lat="42.28613220155239105224609375" lon="2.36672817729413509368896484375">
        <ele>883.5999755859375</ele>
        <time>2022-07-27T10:29:25.000Z</time>
      </trkpt>
      <trkpt lat="42.28646974079310894012451171875" lon="2.3664726130664348602294921875">
        <ele>884.5999755859375</ele>
        <time>2022-07-27T10:29:31.000Z</time>
      </trkpt>
      <trkpt lat="42.28657501749694347381591796875" lon="2.36637731082737445831298828125">
        <ele>885</ele>
        <time>2022-07-27T10:29:33.000Z</time>
      </trkpt>
      <trkpt lat="42.28686553426086902618408203125" lon="2.36605963669717311859130859375">
        <ele>885.79998779296875</ele>
        <time>2022-07-27T10:29:39.000Z</time>
      </trkpt>
      <trkpt lat="42.2869544662535190582275390625" lon="2.36594111658632755279541015625">
        <ele>886.20001220703125</ele>
        <time>2022-07-27T10:29:41.000Z</time>
      </trkpt>
      <trkpt lat="42.28712604381144046783447265625" lon="2.3656857199966907501220703125">
        <ele>886.79998779296875</ele>
        <time>2022-07-27T10:29:45.000Z</time>
      </trkpt>
      <trkpt lat="42.2872431389987468719482421875" lon="2.36547592096030712127685546875">
        <ele>887.20001220703125</ele>
        <time>2022-07-27T10:29:48.000Z</time>
      </trkpt>
      <trkpt lat="42.28748478926718235015869140625" lon="2.36495892517268657684326171875">
        <ele>887.5999755859375</ele>
        <time>2022-07-27T10:29:55.000Z</time>
      </trkpt>
      <trkpt lat="42.28757782839238643646240234375" lon="2.3647382296621799468994140625">
        <ele>888</ele>
        <time>2022-07-27T10:29:58.000Z</time>
      </trkpt>
      <trkpt lat="42.2877309657633304595947265625" lon="2.3644026182591915130615234375">
        <ele>888.5999755859375</ele>
        <time>2022-07-27T10:30:03.000Z</time>
      </trkpt>
      <trkpt lat="42.2879988513886928558349609375" lon="2.36398042179644107818603515625">
        <ele>889</ele>
        <time>2022-07-27T10:30:10.000Z</time>
      </trkpt>
      <trkpt lat="42.28840931318700313568115234375" lon="2.3635557107627391815185546875">
        <ele>889.5999755859375</ele>
        <time>2022-07-27T10:30:19.000Z</time>
      </trkpt>
      <trkpt lat="42.2886764444410800933837890625" lon="2.36331858672201633453369140625">
        <ele>890</ele>
        <time>2022-07-27T10:30:25.000Z</time>
      </trkpt>
      <trkpt lat="42.28885053656995296478271484375" lon="2.3631671257317066192626953125">
        <ele>890.20001220703125</ele>
        <time>2022-07-27T10:30:29.000Z</time>
      </trkpt>
      <trkpt lat="42.289157398045063018798828125" lon="2.36293100751936435699462890625">
        <ele>890.4000244140625</ele>
        <time>2022-07-27T10:30:36.000Z</time>
      </trkpt>
      <trkpt lat="42.28951371274888515472412109375" lon="2.36267183907330036163330078125">
        <ele>891.20001220703125</ele>
        <time>2022-07-27T10:30:44.000Z</time>
      </trkpt>
      <trkpt lat="42.28982694447040557861328125" lon="2.362430356442928314208984375">
        <ele>892.4000244140625</ele>
        <time>2022-07-27T10:30:51.000Z</time>
      </trkpt>
      <trkpt lat="42.2899679280817508697509765625" lon="2.36233052797615528106689453125">
        <ele>893.4000244140625</ele>
        <time>2022-07-27T10:30:54.000Z</time>
      </trkpt>
      <trkpt lat="42.29015224613249301910400390625" lon="2.36219641752541065216064453125">
        <ele>894.4000244140625</ele>
        <time>2022-07-27T10:30:58.000Z</time>
      </trkpt>
      <trkpt lat="42.2902431897819042205810546875" lon="2.36212751828134059906005859375">
        <ele>894.5999755859375</ele>
        <time>2022-07-27T10:31:00.000Z</time>
      </trkpt>
      <trkpt lat="42.29064644314348697662353515625" lon="2.3618256859481334686279296875">
        <ele>895.20001220703125</ele>
        <time>2022-07-27T10:31:09.000Z</time>
      </trkpt>
      <trkpt lat="42.290741913020610809326171875" lon="2.361755110323429107666015625">
        <ele>895.5999755859375</ele>
        <time>2022-07-27T10:31:11.000Z</time>
      </trkpt>
      <trkpt lat="42.29108682833611965179443359375" lon="2.36151563934981822967529296875">
        <ele>896.20001220703125</ele>
        <time>2022-07-27T10:31:18.000Z</time>
      </trkpt>
      <trkpt lat="42.29156677611172199249267578125" lon="2.36117198131978511810302734375">
        <ele>896.5999755859375</ele>
        <time>2022-07-27T10:31:28.000Z</time>
      </trkpt>
      <trkpt lat="42.29161321185529232025146484375" lon="2.3611373640596866607666015625">
        <ele>897</ele>
        <time>2022-07-27T10:31:29.000Z</time>
      </trkpt>
      <trkpt lat="42.2920613922178745269775390625" lon="2.36082094721496105194091796875">
        <ele>898</ele>
        <time>2022-07-27T10:31:38.000Z</time>
      </trkpt>
      <trkpt lat="42.292163483798503875732421875" lon="2.3607467673718929290771484375">
        <ele>898</ele>
        <time>2022-07-27T10:31:40.000Z</time>
      </trkpt>
      <trkpt lat="42.29258182458579540252685546875" lon="2.36044778488576412200927734375">
        <ele>898.79998779296875</ele>
        <time>2022-07-27T10:31:48.000Z</time>
      </trkpt>
      <trkpt lat="42.292737476527690887451171875" lon="2.36033446155488491058349609375">
        <ele>899.20001220703125</ele>
        <time>2022-07-27T10:31:51.000Z</time>
      </trkpt>
      <trkpt lat="42.29310183785855770111083984375" lon="2.36008065752685070037841796875">
        <ele>899.4000244140625</ele>
        <time>2022-07-27T10:31:58.000Z</time>
      </trkpt>
      <trkpt lat="42.2933766804635524749755859375" lon="2.3599474690854549407958984375">
        <ele>899.79998779296875</ele>
        <time>2022-07-27T10:32:03.000Z</time>
      </trkpt>
      <trkpt lat="42.293487153947353363037109375" lon="2.3598924838006496429443359375">
        <ele>900</ele>
        <time>2022-07-27T10:32:05.000Z</time>
      </trkpt>
      <trkpt lat="42.293819747865200042724609375" lon="2.3597452975809574127197265625">
        <ele>900.79998779296875</ele>
        <time>2022-07-27T10:32:11.000Z</time>
      </trkpt>
      <trkpt lat="42.29405318386852741241455078125" lon="2.3596477322280406951904296875">
        <ele>901</ele>
        <time>2022-07-27T10:32:15.000Z</time>
      </trkpt>
      <trkpt lat="42.29452223517000675201416015625" lon="2.359458468854427337646484375">
        <ele>901.4000244140625</ele>
        <time>2022-07-27T10:32:23.000Z</time>
      </trkpt>
      <trkpt lat="42.29488181881606578826904296875" lon="2.3593124561011791229248046875">
        <ele>901.4000244140625</ele>
        <time>2022-07-27T10:32:29.000Z</time>
      </trkpt>
      <trkpt lat="42.2954309172928333282470703125" lon="2.3590891622006893157958984375">
        <ele>901.5999755859375</ele>
        <time>2022-07-27T10:32:38.000Z</time>
      </trkpt>
      <trkpt lat="42.2957283072173595428466796875" lon="2.3589654453098773956298828125">
        <ele>902</ele>
        <time>2022-07-27T10:32:43.000Z</time>
      </trkpt>
      <trkpt lat="42.29590927250683307647705078125" lon="2.3588879965245723724365234375">
        <ele>902.5999755859375</ele>
        <time>2022-07-27T10:32:46.000Z</time>
      </trkpt>
      <trkpt lat="42.29615335352718830108642578125" lon="2.35878221690654754638671875">
        <ele>903</ele>
        <time>2022-07-27T10:32:50.000Z</time>
      </trkpt>
      <trkpt lat="42.2965182177722454071044921875" lon="2.35863268375396728515625">
        <ele>903.4000244140625</ele>
        <time>2022-07-27T10:32:56.000Z</time>
      </trkpt>
      <trkpt lat="42.29686816222965717315673828125" lon="2.3584918677806854248046875">
        <ele>904.20001220703125</ele>
        <time>2022-07-27T10:33:02.000Z</time>
      </trkpt>
      <trkpt lat="42.29703848250210285186767578125" lon="2.35842959024012088775634765625">
        <ele>904.79998779296875</ele>
        <time>2022-07-27T10:33:05.000Z</time>
      </trkpt>
      <trkpt lat="42.297150380909442901611328125" lon="2.3583884350955486297607421875">
        <ele>905.20001220703125</ele>
        <time>2022-07-27T10:33:07.000Z</time>
      </trkpt>
      <trkpt lat="42.29731609113514423370361328125" lon="2.35833152197301387786865234375">
        <ele>906.20001220703125</ele>
        <time>2022-07-27T10:33:10.000Z</time>
      </trkpt>
      <trkpt lat="42.29752915911376476287841796875" lon="2.3582573421299457550048828125">
        <ele>907.20001220703125</ele>
        <time>2022-07-27T10:33:14.000Z</time>
      </trkpt>
      <trkpt lat="42.29758162982761859893798828125" lon="2.35824233852326869964599609375">
        <ele>907.20001220703125</ele>
        <time>2022-07-27T10:33:15.000Z</time>
      </trkpt>
      <trkpt lat="42.297893352806568145751953125" lon="2.3581503890454769134521484375">
        <ele>908.20001220703125</ele>
        <time>2022-07-27T10:33:21.000Z</time>
      </trkpt>
      <trkpt lat="42.29799829423427581787109375" lon="2.35811702907085418701171875">
        <ele>908.79998779296875</ele>
        <time>2022-07-27T10:33:23.000Z</time>
      </trkpt>
      <trkpt lat="42.2982596419751644134521484375" lon="2.3580444417893886566162109375">
        <ele>909.5999755859375</ele>
        <time>2022-07-27T10:33:28.000Z</time>
      </trkpt>
      <trkpt lat="42.2984611429274082183837890625" lon="2.3579938150942325592041015625">
        <ele>910.20001220703125</ele>
        <time>2022-07-27T10:33:32.000Z</time>
      </trkpt>
      <trkpt lat="42.29856063611805438995361328125" lon="2.3579649813473224639892578125">
        <ele>910.5999755859375</ele>
        <time>2022-07-27T10:33:34.000Z</time>
      </trkpt>
      <trkpt lat="42.298913262784481048583984375" lon="2.3578623868525028228759765625">
        <ele>911.5999755859375</ele>
        <time>2022-07-27T10:33:41.000Z</time>
      </trkpt>
      <trkpt lat="42.29941408149898052215576171875" lon="2.35771411098539829254150390625">
        <ele>912.5999755859375</ele>
        <time>2022-07-27T10:33:51.000Z</time>
      </trkpt>
      <trkpt lat="42.29946085251867771148681640625" lon="2.3576964251697063446044921875">
        <ele>912.79998779296875</ele>
        <time>2022-07-27T10:33:52.000Z</time>
      </trkpt>
      <trkpt lat="42.29966453276574611663818359375" lon="2.357641272246837615966796875">
        <ele>913.20001220703125</ele>
        <time>2022-07-27T10:33:56.000Z</time>
      </trkpt>
      <trkpt lat="42.29996913112699985504150390625" lon="2.357555441558361053466796875">
        <ele>913.79998779296875</ele>
        <time>2022-07-27T10:34:02.000Z</time>
      </trkpt>
      <trkpt lat="42.30012570507824420928955078125" lon="2.35752518288791179656982421875">
        <ele>914</ele>
        <time>2022-07-27T10:34:05.000Z</time>
      </trkpt>
      <trkpt lat="42.300413288176059722900390625" lon="2.35751084983348846435546875">
        <ele>914.79998779296875</ele>
        <time>2022-07-27T10:34:10.000Z</time>
      </trkpt>
      <trkpt lat="42.3005938343703746795654296875" lon="2.35753004439175128936767578125">
        <ele>915</ele>
        <time>2022-07-27T10:34:13.000Z</time>
      </trkpt>
      <trkpt lat="42.30100345797836780548095703125" lon="2.3576602153480052947998046875">
        <ele>915.20001220703125</ele>
        <time>2022-07-27T10:34:20.000Z</time>
      </trkpt>
      <trkpt lat="42.30135700665414333343505859375" lon="2.357875294983386993408203125">
        <ele>915.5999755859375</ele>
        <time>2022-07-27T10:34:27.000Z</time>
      </trkpt>
      <trkpt lat="42.301405034959316253662109375" lon="2.35791242681443691253662109375">
        <ele>915.79998779296875</ele>
        <time>2022-07-27T10:34:28.000Z</time>
      </trkpt>
      <trkpt lat="42.30185572989284992218017578125" lon="2.3582804761826992034912109375">
        <ele>916.79998779296875</ele>
        <time>2022-07-27T10:34:37.000Z</time>
      </trkpt>
      <trkpt lat="42.30223241262137889862060546875" lon="2.35857300460338592529296875">
        <ele>917</ele>
        <time>2022-07-27T10:34:44.000Z</time>
      </trkpt>
      <trkpt lat="42.30269593186676502227783203125" lon="2.358824126422405242919921875">
        <ele>917</ele>
        <time>2022-07-27T10:34:52.000Z</time>
      </trkpt>
      <trkpt lat="42.30303489603102207183837890625" lon="2.3589406348764896392822265625">
        <ele>917</ele>
        <time>2022-07-27T10:34:58.000Z</time>
      </trkpt>
      <trkpt lat="42.30352289043366909027099609375" lon="2.3590861447155475616455078125">
        <ele>917.79998779296875</ele>
        <time>2022-07-27T10:35:06.000Z</time>
      </trkpt>
      <trkpt lat="42.30407592840492725372314453125" lon="2.35924883745610713958740234375">
        <ele>918.4000244140625</ele>
        <time>2022-07-27T10:35:15.000Z</time>
      </trkpt>
      <trkpt lat="42.30426083318889141082763671875" lon="2.3593013919889926910400390625">
        <ele>918.79998779296875</ele>
        <time>2022-07-27T10:35:18.000Z</time>
      </trkpt>
      <trkpt lat="42.3043844662606716156005859375" lon="2.35933475196361541748046875">
        <ele>918.79998779296875</ele>
        <time>2022-07-27T10:35:20.000Z</time>
      </trkpt>
      <trkpt lat="42.30482275597751140594482421875" lon="2.3594911582767963409423828125">
        <ele>919.79998779296875</ele>
        <time>2022-07-27T10:35:27.000Z</time>
      </trkpt>
      <trkpt lat="42.30506465770304203033447265625" lon="2.35964077524840831756591796875">
        <ele>920</ele>
        <time>2022-07-27T10:35:31.000Z</time>
      </trkpt>
      <trkpt lat="42.30518468655645847320556640625" lon="2.35973448492586612701416015625">
        <ele>920.4000244140625</ele>
        <time>2022-07-27T10:35:33.000Z</time>
      </trkpt>
      <trkpt lat="42.30536087416112422943115234375" lon="2.35987387597560882568359375">
        <ele>921.20001220703125</ele>
        <time>2022-07-27T10:35:36.000Z</time>
      </trkpt>
      <trkpt lat="42.30566413141787052154541015625" lon="2.360114268958568572998046875">
        <ele>922</ele>
        <time>2022-07-27T10:35:41.000Z</time>
      </trkpt>
      <trkpt lat="42.305782400071620941162109375" lon="2.3602140136063098907470703125">
        <ele>922.20001220703125</ele>
        <time>2022-07-27T10:35:43.000Z</time>
      </trkpt>
      <trkpt lat="42.30606126599013805389404296875" lon="2.360445521771907806396484375">
        <ele>922.79998779296875</ele>
        <time>2022-07-27T10:35:48.000Z</time>
      </trkpt>
      <trkpt lat="42.30653685517609119415283203125" lon="2.360837124288082122802734375">
        <ele>922.79998779296875</ele>
        <time>2022-07-27T10:35:57.000Z</time>
      </trkpt>
      <trkpt lat="42.3065892420709133148193359375" lon="2.36088129691779613494873046875">
        <ele>922.79998779296875</ele>
        <time>2022-07-27T10:35:58.000Z</time>
      </trkpt>
      <trkpt lat="42.30693968944251537322998046875" lon="2.3611802794039249420166015625">
        <ele>921.79998779296875</ele>
        <time>2022-07-27T10:36:05.000Z</time>
      </trkpt>
      <trkpt lat="42.3069774918258190155029296875" lon="2.36123970709741115570068359375">
        <ele>921.5999755859375</ele>
        <time>2022-07-27T10:36:06.000Z</time>
      </trkpt>
      <trkpt lat="42.30717186816036701202392578125" lon="2.36150206066668033599853515625">
        <ele>921.5999755859375</ele>
        <time>2022-07-27T10:36:11.000Z</time>
      </trkpt>
      <trkpt lat="42.3072215728461742401123046875" lon="2.3615229316055774688720703125">
        <ele>921.5999755859375</ele>
        <time>2022-07-27T10:36:12.000Z</time>
      </trkpt>
      <trkpt lat="42.30746624059975147247314453125" lon="2.3616810142993927001953125">
        <ele>922</ele>
        <time>2022-07-27T10:36:17.000Z</time>
      </trkpt>
      <trkpt lat="42.30755366384983062744140625" lon="2.36176089383661746978759765625">
        <ele>922.20001220703125</ele>
        <time>2022-07-27T10:36:19.000Z</time>
      </trkpt>
      <trkpt lat="42.307606302201747894287109375" lon="2.36187036149203777313232421875">
        <ele>922.5999755859375</ele>
        <time>2022-07-27T10:36:21.000Z</time>
      </trkpt>
      <trkpt lat="42.3076259158551692962646484375" lon="2.36199273727834224700927734375">
        <ele>922.79998779296875</ele>
        <time>2022-07-27T10:36:23.000Z</time>
      </trkpt>
      <trkpt lat="42.30765986256301403045654296875" lon="2.36216959543526172637939453125">
        <ele>923</ele>
        <time>2022-07-27T10:36:26.000Z</time>
      </trkpt>
      <trkpt lat="42.30776949785649776458740234375" lon="2.362385094165802001953125">
        <ele>923.4000244140625</ele>
        <time>2022-07-27T10:36:31.000Z</time>
      </trkpt>
      <trkpt lat="42.307856082916259765625" lon="2.3625582642853260040283203125">
        <ele>924</ele>
        <time>2022-07-27T10:36:35.000Z</time>
      </trkpt>
      <trkpt lat="42.307864464819431304931640625" lon="2.36259975470602512359619140625">
        <ele>924.20001220703125</ele>
        <time>2022-07-27T10:36:36.000Z</time>
      </trkpt>
      <trkpt lat="42.30790075846016407012939453125" lon="2.3627275787293910980224609375">
        <ele>924.79998779296875</ele>
        <time>2022-07-27T10:36:41.000Z</time>
      </trkpt>
      <trkpt lat="42.30790293775498867034912109375" lon="2.36273688264191150665283203125">
        <ele>924.79998779296875</ele>
        <time>2022-07-27T10:36:43.000Z</time>
      </trkpt>
      <trkpt lat="42.30798474512994289398193359375" lon="2.36221737228333950042724609375">
        <ele>925</ele>
        <time>2022-07-27T10:38:03.000Z</time>
      </trkpt>
      <trkpt lat="42.3080953024327754974365234375" lon="2.36216238699853420257568359375">
        <ele>924.5999755859375</ele>
        <time>2022-07-27T10:38:06.000Z</time>
      </trkpt>
      <trkpt lat="42.30827190913259983062744140625" lon="2.3622711002826690673828125">
        <ele>924</ele>
        <time>2022-07-27T10:38:10.000Z</time>
      </trkpt>
      <trkpt lat="42.30861715972423553466796875" lon="2.3625344596803188323974609375">
        <ele>923.5999755859375</ele>
        <time>2022-07-27T10:38:18.000Z</time>
      </trkpt>
      <trkpt lat="42.30866007506847381591796875" lon="2.36257041804492473602294921875">
        <ele>923.79998779296875</ele>
        <time>2022-07-27T10:38:19.000Z</time>
      </trkpt>
      <trkpt lat="42.30887792073190212249755859375" lon="2.3627466894686222076416015625">
        <ele>924.20001220703125</ele>
        <time>2022-07-27T10:38:24.000Z</time>
      </trkpt>
      <trkpt lat="42.309145890176296234130859375" lon="2.36296017654240131378173828125">
        <ele>925.20001220703125</ele>
        <time>2022-07-27T10:38:30.000Z</time>
      </trkpt>
      <trkpt lat="42.3093257658183574676513671875" lon="2.3631101287901401519775390625">
        <ele>925.4000244140625</ele>
        <time>2022-07-27T10:38:34.000Z</time>
      </trkpt>
      <trkpt lat="42.30958946049213409423828125" lon="2.363334931433200836181640625">
        <ele>925.79998779296875</ele>
        <time>2022-07-27T10:38:40.000Z</time>
      </trkpt>
      <trkpt lat="42.3097193799912929534912109375" lon="2.36344850622117519378662109375">
        <ele>926.20001220703125</ele>
        <time>2022-07-27T10:38:43.000Z</time>
      </trkpt>
      <trkpt lat="42.30990059673786163330078125" lon="2.3635949380695819854736328125">
        <ele>926.79998779296875</ele>
        <time>2022-07-27T10:38:47.000Z</time>
      </trkpt>
      <trkpt lat="42.31008156202733516693115234375" lon="2.363740615546703338623046875">
        <ele>927.20001220703125</ele>
        <time>2022-07-27T10:38:51.000Z</time>
      </trkpt>
      <trkpt lat="42.31016688980162143707275390625" lon="2.363814376294612884521484375">
        <ele>927.4000244140625</ele>
        <time>2022-07-27T10:38:53.000Z</time>
      </trkpt>
      <trkpt lat="42.31049244292080402374267578125" lon="2.3640197329223155975341796875">
        <ele>927.79998779296875</ele>
        <time>2022-07-27T10:39:00.000Z</time>
      </trkpt>
      <trkpt lat="42.31058531440794467926025390625" lon="2.36409441567957401275634765625">
        <ele>928</ele>
        <time>2022-07-27T10:39:03.000Z</time>
      </trkpt>
      <trkpt lat="42.31058598496019840240478515625" lon="2.36414286307990550994873046875">
        <ele>928</ele>
        <time>2022-07-27T10:39:04.000Z</time>
      </trkpt>
      <trkpt lat="42.31053418479859828948974609375" lon="2.36430262215435504913330078125">
        <ele>928</ele>
        <time>2022-07-27T10:39:07.000Z</time>
      </trkpt>
      <trkpt lat="42.31050786562263965606689453125" lon="2.36435609869658946990966796875">
        <ele>928</ele>
        <time>2022-07-27T10:39:08.000Z</time>
      </trkpt>
      <trkpt lat="42.310486324131488800048828125" lon="2.36441460438072681427001953125">
        <ele>928.4000244140625</ele>
        <time>2022-07-27T10:39:09.000Z</time>
      </trkpt>
      <trkpt lat="42.31040158309042453765869140625" lon="2.36466639675199985504150390625">
        <ele>928.79998779296875</ele>
        <time>2022-07-27T10:39:13.000Z</time>
      </trkpt>
      <trkpt lat="42.310375012457370758056640625" lon="2.364798747003078460693359375">
        <ele>929</ele>
        <time>2022-07-27T10:39:15.000Z</time>
      </trkpt>
      <trkpt lat="42.31033519841730594635009765625" lon="2.3650041036307811737060546875">
        <ele>929.4000244140625</ele>
        <time>2022-07-27T10:39:18.000Z</time>
      </trkpt>
      <trkpt lat="42.310300581157207489013671875" lon="2.36511801369488239288330078125">
        <ele>929.4000244140625</ele>
        <time>2022-07-27T10:39:20.000Z</time>
      </trkpt>
      <trkpt lat="42.3102982342243194580078125" lon="2.3651844821870326995849609375">
        <ele>929.4000244140625</ele>
        <time>2022-07-27T10:39:21.000Z</time>
      </trkpt>
      <trkpt lat="42.3103641159832477569580078125" lon="2.36528330482542514801025390625">
        <ele>929.5999755859375</ele>
        <time>2022-07-27T10:39:24.000Z</time>
      </trkpt>
      <trkpt lat="42.31047970242798328399658203125" lon="2.36527048051357269287109375">
        <ele>929.5999755859375</ele>
        <time>2022-07-27T10:39:27.000Z</time>
      </trkpt>
      <trkpt lat="42.31052228249609470367431640625" lon="2.3652642779052257537841796875">
        <ele>929.5999755859375</ele>
        <time>2022-07-27T10:39:28.000Z</time>
      </trkpt>
      <trkpt lat="42.3105723224580287933349609375" lon="2.36526754684746265411376953125">
        <ele>929.5999755859375</ele>
        <time>2022-07-27T10:39:29.000Z</time>
      </trkpt>
      <trkpt lat="42.31074473820626735687255859375" lon="2.3652783595025539398193359375">
        <ele>929.4000244140625</ele>
        <time>2022-07-27T10:39:33.000Z</time>
      </trkpt>
      <trkpt lat="42.311018742620944976806640625" lon="2.36526838503777980804443359375">
        <ele>929.20001220703125</ele>
        <time>2022-07-27T10:39:40.000Z</time>
      </trkpt>
      <trkpt lat="42.3111318983137607574462890625" lon="2.365246005356311798095703125">
        <ele>930</ele>
        <time>2022-07-27T10:39:45.000Z</time>
      </trkpt>
      <trkpt lat="42.31128419749438762664794921875" lon="2.3652778565883636474609375">
        <ele>930.4000244140625</ele>
        <time>2022-07-27T10:39:49.000Z</time>
      </trkpt>
      <trkpt lat="42.31137103401124477386474609375" lon="2.36525715328752994537353515625">
        <ele>930.4000244140625</ele>
        <time>2022-07-27T10:39:51.000Z</time>
      </trkpt>
      <trkpt lat="42.3115704394876956939697265625" lon="2.3651942051947116851806640625">
        <ele>930.4000244140625</ele>
        <time>2022-07-27T10:39:55.000Z</time>
      </trkpt>
      <trkpt lat="42.31168719939887523651123046875" lon="2.36515422351658344268798828125">
        <ele>930.4000244140625</ele>
        <time>2022-07-27T10:39:59.000Z</time>
      </trkpt>
      <trkpt lat="42.311714775860309600830078125" lon="2.365108542144298553466796875">
        <ele>930.4000244140625</ele>
        <time>2022-07-27T10:40:02.000Z</time>
      </trkpt>
      <trkpt lat="42.3117364011704921722412109375" lon="2.3650832287967205047607421875">
        <ele>930.4000244140625</ele>
        <time>2022-07-27T10:40:03.000Z</time>
      </trkpt>
      <trkpt lat="42.31178862042725086212158203125" lon="2.3649417422711849212646484375">
        <ele>930.5999755859375</ele>
        <time>2022-07-27T10:40:07.000Z</time>
      </trkpt>
      <trkpt lat="42.31179817579686641693115234375" lon="2.36489203758537769317626953125">
        <ele>930.4000244140625</ele>
        <time>2022-07-27T10:40:08.000Z</time>
      </trkpt>
      <trkpt lat="42.31192876584827899932861328125" lon="2.364657931029796600341796875">
        <ele>930.5999755859375</ele>
        <time>2022-07-27T10:40:13.000Z</time>
      </trkpt>
      <trkpt lat="42.31202499009668827056884765625" lon="2.3644415102899074554443359375">
        <ele>931</ele>
        <time>2022-07-27T10:40:18.000Z</time>
      </trkpt>
      <trkpt lat="42.31211752630770206451416015625" lon="2.3644177056849002838134765625">
        <ele>931</ele>
        <time>2022-07-27T10:40:21.000Z</time>
      </trkpt>
      <trkpt lat="42.31216907501220703125" lon="2.36443555913865566253662109375">
        <ele>931.20001220703125</ele>
        <time>2022-07-27T10:40:23.000Z</time>
      </trkpt>
      <trkpt lat="42.31042320840060710906982421875" lon="2.36457956023514270782470703125">
        <ele>945.79998779296875</ele>
        <time>2022-07-27T10:48:57.000Z</time>
      </trkpt>
      <trkpt lat="42.3104170896112918853759765625" lon="2.3646772094070911407470703125">
        <ele>945.5999755859375</ele>
        <time>2022-07-27T10:48:59.000Z</time>
      </trkpt>
      <trkpt lat="42.31039236299693584442138671875" lon="2.3649843223392963409423828125">
        <ele>946.4000244140625</ele>
        <time>2022-07-27T10:49:04.000Z</time>
      </trkpt>
      <trkpt lat="42.31036084704101085662841796875" lon="2.36503251828253269195556640625">
        <ele>946.5999755859375</ele>
        <time>2022-07-27T10:49:05.000Z</time>
      </trkpt>
      <trkpt lat="42.310303933918476104736328125" lon="2.3652009107172489166259765625">
        <ele>946.79998779296875</ele>
        <time>2022-07-27T10:49:09.000Z</time>
      </trkpt>
      <trkpt lat="42.31030435301363468170166015625" lon="2.36523955129086971282958984375">
        <ele>946.79998779296875</ele>
        <time>2022-07-27T10:49:10.000Z</time>
      </trkpt>
      <trkpt lat="42.31031231582164764404296875" lon="2.36527492292225360870361328125">
        <ele>946.79998779296875</ele>
        <time>2022-07-27T10:49:11.000Z</time>
      </trkpt>
      <trkpt lat="42.31032296083867549896240234375" lon="2.3653038404881954193115234375">
        <ele>947.20001220703125</ele>
        <time>2022-07-27T10:49:12.000Z</time>
      </trkpt>
      <trkpt lat="42.312709204852581024169921875" lon="2.36499429680407047271728515625">
        <ele>949.4000244140625</ele>
        <time>2022-07-27T11:29:23.000Z</time>
      </trkpt>
      <trkpt lat="42.3128260485827922821044921875" lon="2.36496211029589176177978515625">
        <ele>950.4000244140625</ele>
        <time>2022-07-27T11:29:27.000Z</time>
      </trkpt>
      <trkpt lat="42.31286988593637943267822265625" lon="2.36497803591191768646240234375">
        <ele>951</ele>
        <time>2022-07-27T11:29:28.000Z</time>
      </trkpt>
      <trkpt lat="42.31292336247861385345458984375" lon="2.36499060876667499542236328125">
        <ele>951.5999755859375</ele>
        <time>2022-07-27T11:29:30.000Z</time>
      </trkpt>
      <trkpt lat="42.3129480890929698944091796875" lon="2.36499630846083164215087890625">
        <ele>950.5999755859375</ele>
        <time>2022-07-27T11:29:31.000Z</time>
      </trkpt>
      <trkpt lat="42.31302511878311634063720703125" lon="2.3650319315493106842041015625">
        <ele>950.5999755859375</ele>
        <time>2022-07-27T11:29:35.000Z</time>
      </trkpt>
      <trkpt lat="42.31309317983686923980712890625" lon="2.365119270980358123779296875">
        <ele>951.79998779296875</ele>
        <time>2022-07-27T11:29:39.000Z</time>
      </trkpt>
      <trkpt lat="42.31310910545289516448974609375" lon="2.3651305027306079864501953125">
        <ele>951.79998779296875</ele>
        <time>2022-07-27T11:29:40.000Z</time>
      </trkpt>
      <trkpt lat="42.3132454790174961090087890625" lon="2.36520417965948581695556640625">
        <ele>952</ele>
        <time>2022-07-27T11:29:44.000Z</time>
      </trkpt>
      <trkpt lat="42.31337229721248149871826171875" lon="2.36523854546248912811279296875">
        <ele>952.20001220703125</ele>
        <time>2022-07-27T11:29:49.000Z</time>
      </trkpt>
      <trkpt lat="42.31343415565788745880126953125" lon="2.36525304615497589111328125">
        <ele>952.79998779296875</ele>
        <time>2022-07-27T11:29:53.000Z</time>
      </trkpt>
      <trkpt lat="42.31350154615938663482666015625" lon="2.36524139530956745147705078125">
        <ele>952.79998779296875</ele>
        <time>2022-07-27T11:29:58.000Z</time>
      </trkpt>
      <trkpt lat="42.313544712960720062255859375" lon="2.36526302061975002288818359375">
        <ele>952.79998779296875</ele>
        <time>2022-07-27T11:30:03.000Z</time>
      </trkpt>
      <trkpt lat="42.31354094110429286956787109375" lon="2.3652910999953746795654296875">
        <ele>952.79998779296875</ele>
        <time>2022-07-27T11:30:04.000Z</time>
      </trkpt>
      <trkpt lat="42.31353222392499446868896484375" lon="2.36535974778234958648681640625">
        <ele>952.5999755859375</ele>
        <time>2022-07-27T11:30:07.000Z</time>
      </trkpt>
      <trkpt lat="42.3135224170982837677001953125" lon="2.365408279001712799072265625">
        <ele>952.20001220703125</ele>
        <time>2022-07-27T11:30:10.000Z</time>
      </trkpt>
      <trkpt lat="42.3135354928672313690185546875" lon="2.36546485684812068939208984375">
        <ele>952.20001220703125</ele>
        <time>2022-07-27T11:30:11.000Z</time>
      </trkpt>
      <trkpt lat="42.31355644762516021728515625" lon="2.36555471085011959075927734375">
        <ele>952.20001220703125</ele>
        <time>2022-07-27T11:30:15.000Z</time>
      </trkpt>
      <trkpt lat="42.31354915536940097808837890625" lon="2.36578990705311298370361328125">
        <ele>952.20001220703125</ele>
        <time>2022-07-27T11:30:20.000Z</time>
      </trkpt>
      <trkpt lat="42.31356089003384113311767578125" lon="2.366013787686824798583984375">
        <ele>952.4000244140625</ele>
        <time>2022-07-27T11:30:26.000Z</time>
      </trkpt>
      <trkpt lat="42.3135624825954437255859375" lon="2.3661611415445804595947265625">
        <ele>952.5999755859375</ele>
        <time>2022-07-27T11:30:31.000Z</time>
      </trkpt>
      <trkpt lat="42.3135991953313350677490234375" lon="2.36643590033054351806640625">
        <ele>953</ele>
        <time>2022-07-27T11:30:38.000Z</time>
      </trkpt>
      <trkpt lat="42.3136672563850879669189453125" lon="2.366679646074771881103515625">
        <ele>953.79998779296875</ele>
        <time>2022-07-27T11:30:44.000Z</time>
      </trkpt>
      <trkpt lat="42.31367178261280059814453125" lon="2.366726584732532501220703125">
        <ele>954.20001220703125</ele>
        <time>2022-07-27T11:30:45.000Z</time>
      </trkpt>
      <trkpt lat="42.31368410401046276092529296875" lon="2.36697846092283725738525390625">
        <ele>954.79998779296875</ele>
        <time>2022-07-27T11:30:52.000Z</time>
      </trkpt>
      <trkpt lat="42.313678152859210968017578125" lon="2.36709178425371646881103515625">
        <ele>955</ele>
        <time>2022-07-27T11:30:55.000Z</time>
      </trkpt>
      <trkpt lat="42.3136464692652225494384765625" lon="2.3672574944794178009033203125">
        <ele>955.4000244140625</ele>
        <time>2022-07-27T11:30:59.000Z</time>
      </trkpt>
      <trkpt lat="42.31361067853868007659912109375" lon="2.36749403178691864013671875">
        <ele>956</ele>
        <time>2022-07-27T11:31:03.000Z</time>
      </trkpt>
      <trkpt lat="42.3136310465633869171142578125" lon="2.3676504381000995635986328125">
        <ele>956.4000244140625</ele>
        <time>2022-07-27T11:31:06.000Z</time>
      </trkpt>
      <trkpt lat="42.313593327999114990234375" lon="2.3678760789334774017333984375">
        <ele>956.5999755859375</ele>
        <time>2022-07-27T11:31:12.000Z</time>
      </trkpt>
      <trkpt lat="42.3135411925613880157470703125" lon="2.368246726691722869873046875">
        <ele>957</ele>
        <time>2022-07-27T11:31:19.000Z</time>
      </trkpt>
      <trkpt lat="42.31343382038176059722900390625" lon="2.36877973191440105438232421875">
        <ele>957.4000244140625</ele>
        <time>2022-07-27T11:31:27.000Z</time>
      </trkpt>
      <trkpt lat="42.31334715150296688079833984375" lon="2.369264625012874603271484375">
        <ele>958</ele>
        <time>2022-07-27T11:31:35.000Z</time>
      </trkpt>
      <trkpt lat="42.31332032941281795501708984375" lon="2.36938507296144962310791015625">
        <ele>958</ele>
        <time>2022-07-27T11:31:37.000Z</time>
      </trkpt>
      <trkpt lat="42.31325428001582622528076171875" lon="2.36975873820483684539794921875">
        <ele>958.20001220703125</ele>
        <time>2022-07-27T11:31:43.000Z</time>
      </trkpt>
      <trkpt lat="42.3131975345313549041748046875" lon="2.3702230118215084075927734375">
        <ele>958.5999755859375</ele>
        <time>2022-07-27T11:31:50.000Z</time>
      </trkpt>
      <trkpt lat="42.31319594196975231170654296875" lon="2.37064504064619541168212890625">
        <ele>958.5999755859375</ele>
        <time>2022-07-27T11:31:56.000Z</time>
      </trkpt>
      <trkpt lat="42.3132491670548915863037109375" lon="2.3711953125894069671630859375">
        <ele>958.4000244140625</ele>
        <time>2022-07-27T11:32:04.000Z</time>
      </trkpt>
      <trkpt lat="42.313326783478260040283203125" lon="2.371824122965335845947265625">
        <ele>958.4000244140625</ele>
        <time>2022-07-27T11:32:13.000Z</time>
      </trkpt>
      <trkpt lat="42.3133531026542186737060546875" lon="2.37217959947884082794189453125">
        <ele>959.20001220703125</ele>
        <time>2022-07-27T11:32:18.000Z</time>
      </trkpt>
      <trkpt lat="42.31338822282850742340087890625" lon="2.37260338850319385528564453125">
        <ele>959.5999755859375</ele>
        <time>2022-07-27T11:32:24.000Z</time>
      </trkpt>
      <trkpt lat="42.31339492835104465484619140625" lon="2.3726722039282321929931640625">
        <ele>959.5999755859375</ele>
        <time>2022-07-27T11:32:25.000Z</time>
      </trkpt>
      <trkpt lat="42.313443459570407867431640625" lon="2.3727761395275592803955078125">
        <ele>959.5999755859375</ele>
        <time>2022-07-27T11:32:27.000Z</time>
      </trkpt>
      <trkpt lat="42.31356047093868255615234375" lon="2.37282701767981052398681640625">
        <ele>959.79998779296875</ele>
        <time>2022-07-27T11:32:30.000Z</time>
      </trkpt>
      <trkpt lat="42.31359927915036678314208984375" lon="2.3728398419916629791259765625">
        <ele>959.5999755859375</ele>
        <time>2022-07-27T11:32:31.000Z</time>
      </trkpt>
      <trkpt lat="42.31378468684852123260498046875" lon="2.3729011975228786468505859375">
        <ele>959.5999755859375</ele>
        <time>2022-07-27T11:32:37.000Z</time>
      </trkpt>
      <trkpt lat="42.31393908150494098663330078125" lon="2.37296833656728267669677734375">
        <ele>959.79998779296875</ele>
        <time>2022-07-27T11:32:43.000Z</time>
      </trkpt>
      <trkpt lat="42.31407143175601959228515625" lon="2.3730111680924892425537109375">
        <ele>960.20001220703125</ele>
        <time>2022-07-27T11:32:50.000Z</time>
      </trkpt>
      <trkpt lat="42.314082495868206024169921875" lon="2.373011000454425811767578125">
        <ele>960.20001220703125</ele>
        <time>2022-07-27T11:32:51.000Z</time>
      </trkpt>
      <trkpt lat="42.31410051696002483367919921875" lon="2.37298174761235713958740234375">
        <ele>960.20001220703125</ele>
        <time>2022-07-27T11:32:54.000Z</time>
      </trkpt>
      <trkpt lat="42.3140913806855678558349609375" lon="2.3729739524424076080322265625">
        <ele>960.4000244140625</ele>
        <time>2022-07-27T11:32:55.000Z</time>
      </trkpt>
      <trkpt lat="42.31403522193431854248046875" lon="2.37296666018664836883544921875">
        <ele>960.4000244140625</ele>
        <time>2022-07-27T11:32:58.000Z</time>
      </trkpt>
      <trkpt lat="42.3138945735991001129150390625" lon="2.372905053198337554931640625">
        <ele>960.4000244140625</ele>
        <time>2022-07-27T11:33:03.000Z</time>
      </trkpt>
      <trkpt lat="42.31366105377674102783203125" lon="2.37285652197897434234619140625">
        <ele>960.20001220703125</ele>
        <time>2022-07-27T11:33:10.000Z</time>
      </trkpt>
      <trkpt lat="42.31350858695805072784423828125" lon="2.37280455417931079864501953125">
        <ele>960.20001220703125</ele>
        <time>2022-07-27T11:33:15.000Z</time>
      </trkpt>
      <trkpt lat="42.3134841956198215484619140625" lon="2.372820563614368438720703125">
        <ele>960.20001220703125</ele>
        <time>2022-07-27T11:33:16.000Z</time>
      </trkpt>
      <trkpt lat="42.3134795017540454864501953125" lon="2.37295626662671566009521484375">
        <ele>960.20001220703125</ele>
        <time>2022-07-27T11:33:19.000Z</time>
      </trkpt>
      <trkpt lat="42.31349417008459568023681640625" lon="2.37301477231085300445556640625">
        <ele>960</ele>
        <time>2022-07-27T11:33:20.000Z</time>
      </trkpt>
      <trkpt lat="42.31350950896739959716796875" lon="2.37307210452854633331298828125">
        <ele>960</ele>
        <time>2022-07-27T11:33:21.000Z</time>
      </trkpt>
      <trkpt lat="42.31357513926923274993896484375" lon="2.373314090073108673095703125">
        <ele>960</ele>
        <time>2022-07-27T11:33:25.000Z</time>
      </trkpt>
      <trkpt lat="42.31358326971530914306640625" lon="2.373379133641719818115234375">
        <ele>960</ele>
        <time>2022-07-27T11:33:26.000Z</time>
      </trkpt>
      <trkpt lat="42.31356315314769744873046875" lon="2.37350461073219776153564453125">
        <ele>959.79998779296875</ele>
        <time>2022-07-27T11:33:28.000Z</time>
      </trkpt>
      <trkpt lat="42.31355954892933368682861328125" lon="2.37369756214320659637451171875">
        <ele>959.5999755859375</ele>
        <time>2022-07-27T11:33:31.000Z</time>
      </trkpt>
      <trkpt lat="42.31366080231964588165283203125" lon="2.3738332651555538177490234375">
        <ele>959.4000244140625</ele>
        <time>2022-07-27T11:33:34.000Z</time>
      </trkpt>
      <trkpt lat="42.31374864466488361358642578125" lon="2.37384676001965999603271484375">
        <ele>959.4000244140625</ele>
        <time>2022-07-27T11:33:36.000Z</time>
      </trkpt>
      <trkpt lat="42.3138382472097873687744140625" lon="2.373853884637355804443359375">
        <ele>959.4000244140625</ele>
        <time>2022-07-27T11:33:38.000Z</time>
      </trkpt>
      <trkpt lat="42.3138831742107868194580078125" lon="2.37386838532984256744384765625">
        <ele>959.4000244140625</ele>
        <time>2022-07-27T11:33:39.000Z</time>
      </trkpt>
      <trkpt lat="42.31399943120777606964111328125" lon="2.37395991571247577667236328125">
        <ele>959.79998779296875</ele>
        <time>2022-07-27T11:33:42.000Z</time>
      </trkpt>
      <trkpt lat="42.314035892486572265625" lon="2.3739977180957794189453125">
        <ele>959.79998779296875</ele>
        <time>2022-07-27T11:33:43.000Z</time>
      </trkpt>
      <trkpt lat="42.31410118751227855682373046875" lon="2.37408396787941455841064453125">
        <ele>960</ele>
        <time>2022-07-27T11:33:45.000Z</time>
      </trkpt>
      <trkpt lat="42.31420009396970272064208984375" lon="2.374234758317470550537109375">
        <ele>960.4000244140625</ele>
        <time>2022-07-27T11:33:48.000Z</time>
      </trkpt>
      <trkpt lat="42.314342670142650604248046875" lon="2.374439276754856109619140625">
        <ele>960.5999755859375</ele>
        <time>2022-07-27T11:33:52.000Z</time>
      </trkpt>
      <trkpt lat="42.3144870065152645111083984375" lon="2.37464387901127338409423828125">
        <ele>961.79998779296875</ele>
        <time>2022-07-27T11:33:56.000Z</time>
      </trkpt>
      <trkpt lat="42.314520366489887237548828125" lon="2.3746950924396514892578125">
        <ele>962</ele>
        <time>2022-07-27T11:33:57.000Z</time>
      </trkpt>
      <trkpt lat="42.3147656209766864776611328125" lon="2.37506247125566005706787109375">
        <ele>962.79998779296875</ele>
        <time>2022-07-27T11:34:04.000Z</time>
      </trkpt>
      <trkpt lat="42.31513434089720249176025390625" lon="2.37553454004228115081787109375">
        <ele>963.79998779296875</ele>
        <time>2022-07-27T11:34:13.000Z</time>
      </trkpt>
      <trkpt lat="42.315261326730251312255859375" lon="2.3756974004209041595458984375">
        <ele>964</ele>
        <time>2022-07-27T11:34:16.000Z</time>
      </trkpt>
      <trkpt lat="42.31543692760169506072998046875" lon="2.375915162265300750732421875">
        <ele>964</ele>
        <time>2022-07-27T11:34:20.000Z</time>
      </trkpt>
      <trkpt lat="42.31576667167246341705322265625" lon="2.37635160796344280242919921875">
        <ele>964</ele>
        <time>2022-07-27T11:34:28.000Z</time>
      </trkpt>
      <trkpt lat="42.31615441851317882537841796875" lon="2.376842536032199859619140625">
        <ele>964.20001220703125</ele>
        <time>2022-07-27T11:34:37.000Z</time>
      </trkpt>
      <trkpt lat="42.3164440132677555084228515625" lon="2.3772239126265048980712890625">
        <ele>965</ele>
        <time>2022-07-27T11:34:44.000Z</time>
      </trkpt>
      <trkpt lat="42.3165281675755977630615234375" lon="2.377336062490940093994140625">
        <ele>965</ele>
        <time>2022-07-27T11:34:46.000Z</time>
      </trkpt>
      <trkpt lat="42.3169006593525409698486328125" lon="2.37783537246286869049072265625">
        <ele>965.5999755859375</ele>
        <time>2022-07-27T11:34:55.000Z</time>
      </trkpt>
      <trkpt lat="42.31718388386070728302001953125" lon="2.37819612957537174224853515625">
        <ele>965.79998779296875</ele>
        <time>2022-07-27T11:35:02.000Z</time>
      </trkpt>
      <trkpt lat="42.3174277134239673614501953125" lon="2.37851925194263458251953125">
        <ele>966.20001220703125</ele>
        <time>2022-07-27T11:35:08.000Z</time>
      </trkpt>
      <trkpt lat="42.3175132088363170623779296875" lon="2.3786270432174205780029296875">
        <ele>966.5999755859375</ele>
        <time>2022-07-27T11:35:10.000Z</time>
      </trkpt>
      <trkpt lat="42.31794345192611217498779296875" lon="2.3791765607893466949462890625">
        <ele>967.20001220703125</ele>
        <time>2022-07-27T11:35:20.000Z</time>
      </trkpt>
      <trkpt lat="42.31798477470874786376953125" lon="2.3792322166264057159423828125">
        <ele>967.20001220703125</ele>
        <time>2022-07-27T11:35:21.000Z</time>
      </trkpt>
      <trkpt lat="42.31802660040557384490966796875" lon="2.379288375377655029296875">
        <ele>967.4000244140625</ele>
        <time>2022-07-27T11:35:22.000Z</time>
      </trkpt>
      <trkpt lat="42.31837662868201732635498046875" lon="2.37974694930016994476318359375">
        <ele>968.4000244140625</ele>
        <time>2022-07-27T11:35:30.000Z</time>
      </trkpt>
      <trkpt lat="42.31845592148602008819580078125" lon="2.379849292337894439697265625">
        <ele>969.20001220703125</ele>
        <time>2022-07-27T11:35:32.000Z</time>
      </trkpt>
      <trkpt lat="42.3186068795621395111083984375" lon="2.38003109581768512725830078125">
        <ele>969.4000244140625</ele>
        <time>2022-07-27T11:35:36.000Z</time>
      </trkpt>
      <trkpt lat="42.318714000284671783447265625" lon="2.3801559023559093475341796875">
        <ele>970</ele>
        <time>2022-07-27T11:35:39.000Z</time>
      </trkpt>
      <trkpt lat="42.31874383985996246337890625" lon="2.380200326442718505859375">
        <ele>970</ele>
        <time>2022-07-27T11:35:40.000Z</time>
      </trkpt>
      <trkpt lat="42.31877468526363372802734375" lon="2.38024114631116390228271484375">
        <ele>970.20001220703125</ele>
        <time>2022-07-27T11:35:41.000Z</time>
      </trkpt>
      <trkpt lat="42.3188328556716442108154296875" lon="2.38031524233520030975341796875">
        <ele>970.4000244140625</ele>
        <time>2022-07-27T11:35:43.000Z</time>
      </trkpt>
      <trkpt lat="42.31935814954340457916259765625" lon="2.3810048215091228485107421875">
        <ele>971.79998779296875</ele>
        <time>2022-07-27T11:53:31.000Z</time>
      </trkpt>
      <trkpt lat="42.3194333352148532867431640625" lon="2.3811151273548603057861328125">
        <ele>971.79998779296875</ele>
        <time>2022-07-27T11:53:35.000Z</time>
      </trkpt>
      <trkpt lat="42.3196103610098361968994140625" lon="2.3813523352146148681640625">
        <ele>971.79998779296875</ele>
        <time>2022-07-27T11:53:41.000Z</time>
      </trkpt>
      <trkpt lat="42.31983281672000885009765625" lon="2.3816465400159358978271484375">
        <ele>971.20001220703125</ele>
        <time>2022-07-27T11:53:47.000Z</time>
      </trkpt>
      <trkpt lat="42.3201280273497104644775390625" lon="2.38195859827101230621337890625">
        <ele>971</ele>
        <time>2022-07-27T11:53:53.000Z</time>
      </trkpt>
      <trkpt lat="42.32053245417773723602294921875" lon="2.38228239119052886962890625">
        <ele>970.79998779296875</ele>
        <time>2022-07-27T11:54:00.000Z</time>
      </trkpt>
      <trkpt lat="42.3209065385162830352783203125" lon="2.3824756778776645660400390625">
        <ele>971.20001220703125</ele>
        <time>2022-07-27T11:54:06.000Z</time>
      </trkpt>
      <trkpt lat="42.32096336781978607177734375" lon="2.38249965012073516845703125">
        <ele>971.20001220703125</ele>
        <time>2022-07-27T11:54:07.000Z</time>
      </trkpt>
      <trkpt lat="42.321164198219776153564453125" lon="2.3825762607157230377197265625">
        <ele>971.20001220703125</ele>
        <time>2022-07-27T11:54:11.000Z</time>
      </trkpt>
      <trkpt lat="42.32121189124882221221923828125" lon="2.38259964622557163238525390625">
        <ele>971.4000244140625</ele>
        <time>2022-07-27T11:54:12.000Z</time>
      </trkpt>
      <trkpt lat="42.3215797729790210723876953125" lon="2.38273208029568195343017578125">
        <ele>972</ele>
        <time>2022-07-27T11:54:19.000Z</time>
      </trkpt>
      <trkpt lat="42.32187372632324695587158203125" lon="2.38282796926796436309814453125">
        <ele>972.5999755859375</ele>
        <time>2022-07-27T11:54:24.000Z</time>
      </trkpt>
      <trkpt lat="42.32211747206747531890869140625" lon="2.38290734589099884033203125">
        <ele>973.4000244140625</ele>
        <time>2022-07-27T11:54:28.000Z</time>
      </trkpt>
      <trkpt lat="42.32224253006279468536376953125" lon="2.382945902645587921142578125">
        <ele>973.5999755859375</ele>
        <time>2022-07-27T11:54:30.000Z</time>
      </trkpt>
      <trkpt lat="42.3227757029235363006591796875" lon="2.383092753589153289794921875">
        <ele>974.4000244140625</ele>
        <time>2022-07-27T11:54:38.000Z</time>
      </trkpt>
      <trkpt lat="42.322844602167606353759765625" lon="2.383112870156764984130859375">
        <ele>974.5999755859375</ele>
        <time>2022-07-27T11:54:39.000Z</time>
      </trkpt>
      <trkpt lat="42.3229141719639301300048828125" lon="2.3831328190863132476806640625">
        <ele>974.79998779296875</ele>
        <time>2022-07-27T11:54:40.000Z</time>
      </trkpt>
      <trkpt lat="42.32318826019763946533203125" lon="2.38324019126594066619873046875">
        <ele>975</ele>
        <time>2022-07-27T11:54:44.000Z</time>
      </trkpt>
      <trkpt lat="42.32325003482401371002197265625" lon="2.38328796811401844024658203125">
        <ele>975</ele>
        <time>2022-07-27T11:54:45.000Z</time>
      </trkpt>
      <trkpt lat="42.3234412260353565216064453125" lon="2.38354965113103389739990234375">
        <ele>975.20001220703125</ele>
        <time>2022-07-27T11:54:49.000Z</time>
      </trkpt>
      <trkpt lat="42.32350878417491912841796875" lon="2.38379457034170627593994140625">
        <ele>975.4000244140625</ele>
        <time>2022-07-27T11:54:52.000Z</time>
      </trkpt>
      <trkpt lat="42.323523201048374176025390625" lon="2.38387964665889739990234375">
        <ele>975.4000244140625</ele>
        <time>2022-07-27T11:54:53.000Z</time>
      </trkpt>
      <trkpt lat="42.3235857300460338592529296875" lon="2.384311817586421966552734375">
        <ele>975.79998779296875</ele>
        <time>2022-07-27T11:54:58.000Z</time>
      </trkpt>
      <trkpt lat="42.32360878027975559234619140625" lon="2.38448272459208965301513671875">
        <ele>977</ele>
        <time>2022-07-27T11:55:00.000Z</time>
      </trkpt>
      <trkpt lat="42.323645912110805511474609375" lon="2.38473258912563323974609375">
        <ele>978</ele>
        <time>2022-07-27T11:55:03.000Z</time>
      </trkpt>
      <trkpt lat="42.3237164877355098724365234375" lon="2.38520474173128604888916015625">
        <ele>978.4000244140625</ele>
        <time>2022-07-27T11:55:09.000Z</time>
      </trkpt>
      <trkpt lat="42.3237614147365093231201171875" lon="2.38567027263343334197998046875">
        <ele>978.4000244140625</ele>
        <time>2022-07-27T11:55:15.000Z</time>
      </trkpt>
      <trkpt lat="42.3237583972513675689697265625" lon="2.38583229482173919677734375">
        <ele>978.4000244140625</ele>
        <time>2022-07-27T11:55:17.000Z</time>
      </trkpt>
      <trkpt lat="42.3237510211765766143798828125" lon="2.38591410219669342041015625">
        <ele>978.79998779296875</ele>
        <time>2022-07-27T11:55:18.000Z</time>
      </trkpt>
      <trkpt lat="42.32373802922666072845458984375" lon="2.38599280826747417449951171875">
        <ele>979</ele>
        <time>2022-07-27T11:55:19.000Z</time>
      </trkpt>
      <trkpt lat="42.32370366342365741729736328125" lon="2.38614217378199100494384765625">
        <ele>979.4000244140625</ele>
        <time>2022-07-27T11:55:21.000Z</time>
      </trkpt>
      <trkpt lat="42.32368170283734798431396484375" lon="2.3862113244831562042236328125">
        <ele>979.5999755859375</ele>
        <time>2022-07-27T11:55:22.000Z</time>
      </trkpt>
      <trkpt lat="42.3235699720680713653564453125" lon="2.38646395504474639892578125">
        <ele>980</ele>
        <time>2022-07-27T11:55:26.000Z</time>
      </trkpt>
      <trkpt lat="42.32340225018560886383056640625" lon="2.386811636388301849365234375">
        <ele>981</ele>
        <time>2022-07-27T11:55:32.000Z</time>
      </trkpt>
      <trkpt lat="42.32337760739028453826904296875" lon="2.38687123171985149383544921875">
        <ele>981.20001220703125</ele>
        <time>2022-07-27T11:55:33.000Z</time>
      </trkpt>
      <trkpt lat="42.323297895491123199462890625" lon="2.3871920071542263031005859375">
        <ele>982.5999755859375</ele>
        <time>2022-07-27T11:55:38.000Z</time>
      </trkpt>
      <trkpt lat="42.323291860520839691162109375" lon="2.387259565293788909912109375">
        <ele>983.20001220703125</ele>
        <time>2022-07-27T11:55:39.000Z</time>
      </trkpt>
      <trkpt lat="42.3232913576066493988037109375" lon="2.38739727996289730072021484375">
        <ele>983.79998779296875</ele>
        <time>2022-07-27T11:55:41.000Z</time>
      </trkpt>
      <trkpt lat="42.32333234511315822601318359375" lon="2.387678325176239013671875">
        <ele>984.4000244140625</ele>
        <time>2022-07-27T11:55:45.000Z</time>
      </trkpt>
      <trkpt lat="42.3233735002577304840087890625" lon="2.38781687803566455841064453125">
        <ele>984.5999755859375</ele>
        <time>2022-07-27T11:55:47.000Z</time>
      </trkpt>
      <trkpt lat="42.32345975004136562347412109375" lon="2.3880080692470073699951171875">
        <ele>985</ele>
        <time>2022-07-27T11:55:50.000Z</time>
      </trkpt>
      <trkpt lat="42.32349403202533721923828125" lon="2.3880677483975887298583984375">
        <ele>984.79998779296875</ele>
        <time>2022-07-27T11:55:51.000Z</time>
      </trkpt>
      <trkpt lat="42.3237453214824199676513671875" lon="2.3883795551955699920654296875">
        <ele>985</ele>
        <time>2022-07-27T11:55:57.000Z</time>
      </trkpt>
      <trkpt lat="42.3240705393254756927490234375" lon="2.38865657709538936614990234375">
        <ele>984.79998779296875</ele>
        <time>2022-07-27T11:56:04.000Z</time>
      </trkpt>
      <trkpt lat="42.32436331920325756072998046875" lon="2.38892764784395694732666015625">
        <ele>984.4000244140625</ele>
        <time>2022-07-27T11:56:10.000Z</time>
      </trkpt>
      <trkpt lat="42.32464897446334362030029296875" lon="2.38930064253509044647216796875">
        <ele>985.4000244140625</ele>
        <time>2022-07-27T11:56:16.000Z</time>
      </trkpt>
      <trkpt lat="42.3247333802282810211181640625" lon="2.3894405364990234375">
        <ele>985.5999755859375</ele>
        <time>2022-07-27T11:56:18.000Z</time>
      </trkpt>
      <trkpt lat="42.324902527034282684326171875" lon="2.38979123532772064208984375">
        <ele>986</ele>
        <time>2022-07-27T11:56:23.000Z</time>
      </trkpt>
      <trkpt lat="42.32504837214946746826171875" lon="2.39020337350666522979736328125">
        <ele>986.5999755859375</ele>
        <time>2022-07-27T11:56:29.000Z</time>
      </trkpt>
      <trkpt lat="42.32506941072642803192138671875" lon="2.3902718536555767059326171875">
        <ele>986.79998779296875</ele>
        <time>2022-07-27T11:56:30.000Z</time>
      </trkpt>
      <trkpt lat="42.32517720200121402740478515625" lon="2.390680052340030670166015625">
        <ele>987.79998779296875</ele>
        <time>2022-07-27T11:56:36.000Z</time>
      </trkpt>
      <trkpt lat="42.3252245597541332244873046875" lon="2.39088851027190685272216796875">
        <ele>988.20001220703125</ele>
        <time>2022-07-27T11:56:39.000Z</time>
      </trkpt>
      <trkpt lat="42.3252869211137294769287109375" lon="2.3911750875413417816162109375">
        <ele>988.79998779296875</ele>
        <time>2022-07-27T11:56:43.000Z</time>
      </trkpt>
      <trkpt lat="42.325339056551456451416015625" lon="2.39139611832797527313232421875">
        <ele>989.79998779296875</ele>
        <time>2022-07-27T11:56:46.000Z</time>
      </trkpt>
      <trkpt lat="42.32537132687866687774658203125" lon="2.3915452323853969573974609375">
        <ele>990.20001220703125</ele>
        <time>2022-07-27T11:56:48.000Z</time>
      </trkpt>
      <trkpt lat="42.32551901601254940032958984375" lon="2.39226146601140499114990234375">
        <ele>991</ele>
        <time>2022-07-27T11:56:57.000Z</time>
      </trkpt>
      <trkpt lat="42.32558707706630229949951171875" lon="2.392603866755962371826171875">
        <ele>991.4000244140625</ele>
        <time>2022-07-27T11:57:01.000Z</time>
      </trkpt>
      <trkpt lat="42.325657904148101806640625" lon="2.39295582287013530731201171875">
        <ele>991.79998779296875</ele>
        <time>2022-07-27T11:57:05.000Z</time>
      </trkpt>
      <trkpt lat="42.32569076120853424072265625" lon="2.39313284866511821746826171875">
        <ele>991.79998779296875</ele>
        <time>2022-07-27T11:57:07.000Z</time>
      </trkpt>
      <trkpt lat="42.3258307389914989471435546875" lon="2.39386609755456447601318359375">
        <ele>991.79998779296875</ele>
        <time>2022-07-27T11:57:16.000Z</time>
      </trkpt>
      <trkpt lat="42.32591380365192890167236328125" lon="2.3943545110523700714111328125">
        <ele>992.4000244140625</ele>
        <time>2022-07-27T11:57:23.000Z</time>
      </trkpt>
      <trkpt lat="42.3259443975985050201416015625" lon="2.39454545080661773681640625">
        <ele>992.79998779296875</ele>
        <time>2022-07-27T11:57:26.000Z</time>
      </trkpt>
      <trkpt lat="42.32598421163856983184814453125" lon="2.39481124095618724822998046875">
        <ele>993.5999755859375</ele>
        <time>2022-07-27T11:57:30.000Z</time>
      </trkpt>
      <trkpt lat="42.325996868312358856201171875" lon="2.39488114602863788604736328125">
        <ele>993.79998779296875</ele>
        <time>2022-07-27T11:57:31.000Z</time>
      </trkpt>
      <trkpt lat="42.32608999125659465789794921875" lon="2.395456731319427490234375">
        <ele>994.5999755859375</ele>
        <time>2022-07-27T11:57:39.000Z</time>
      </trkpt>
      <trkpt lat="42.32611379586160182952880859375" lon="2.39559629000723361968994140625">
        <ele>995</ele>
        <time>2022-07-27T11:57:41.000Z</time>
      </trkpt>
      <trkpt lat="42.32620448805391788482666015625" lon="2.3960037343204021453857421875">
        <ele>995.20001220703125</ele>
        <time>2022-07-27T11:57:47.000Z</time>
      </trkpt>
      <trkpt lat="42.326346226036548614501953125" lon="2.3964858613908290863037109375">
        <ele>995.79998779296875</ele>
        <time>2022-07-27T11:57:54.000Z</time>
      </trkpt>
      <trkpt lat="42.326396517455577850341796875" lon="2.396625168621540069580078125">
        <ele>996.5999755859375</ele>
        <time>2022-07-27T11:57:56.000Z</time>
      </trkpt>
      <trkpt lat="42.3264245130121707916259765625" lon="2.396694906055927276611328125">
        <ele>996.79998779296875</ele>
        <time>2022-07-27T11:57:57.000Z</time>
      </trkpt>
      <trkpt lat="42.32662676833570003509521484375" lon="2.397110648453235626220703125">
        <ele>997.4000244140625</ele>
        <time>2022-07-27T11:58:03.000Z</time>
      </trkpt>
      <trkpt lat="42.32689440250396728515625" lon="2.39747836254537105560302734375">
        <ele>997.4000244140625</ele>
        <time>2022-07-27T11:58:09.000Z</time>
      </trkpt>
      <trkpt lat="42.32714761979877948760986328125" lon="2.397685982286930084228515625">
        <ele>997.4000244140625</ele>
        <time>2022-07-27T11:58:14.000Z</time>
      </trkpt>
      <trkpt lat="42.3273230530321598052978515625" lon="2.39776619710028171539306640625">
        <ele>998</ele>
        <time>2022-07-27T11:58:17.000Z</time>
      </trkpt>
      <trkpt lat="42.3274598456919193267822265625" lon="2.39779201336205005645751953125">
        <ele>998</ele>
        <time>2022-07-27T11:58:19.000Z</time>
      </trkpt>
      <trkpt lat="42.32752807438373565673828125" lon="2.39779360592365264892578125">
        <ele>998</ele>
        <time>2022-07-27T11:58:20.000Z</time>
      </trkpt>
      <trkpt lat="42.32774105854332447052001953125" lon="2.3977377824485301971435546875">
        <ele>998</ele>
        <time>2022-07-27T11:58:23.000Z</time>
      </trkpt>
      <trkpt lat="42.32787433080375194549560546875" lon="2.3976583220064640045166015625">
        <ele>998.20001220703125</ele>
        <time>2022-07-27T11:58:25.000Z</time>
      </trkpt>
      <trkpt lat="42.32822301797568798065185546875" lon="2.3974655382335186004638671875">
        <ele>998</ele>
        <time>2022-07-27T11:58:30.000Z</time>
      </trkpt>
      <trkpt lat="42.3284539394080638885498046875" lon="2.39745254628360271453857421875">
        <ele>998</ele>
        <time>2022-07-27T11:58:33.000Z</time>
      </trkpt>
      <trkpt lat="42.32860221527516841888427734375" lon="2.3975072801113128662109375">
        <ele>997.20001220703125</ele>
        <time>2022-07-27T11:58:35.000Z</time>
      </trkpt>
      <trkpt lat="42.3288170434534549713134765625" lon="2.397592775523662567138671875">
        <ele>997</ele>
        <time>2022-07-27T11:58:38.000Z</time>
      </trkpt>
      <trkpt lat="42.32933931984007358551025390625" lon="2.397805340588092803955078125">
        <ele>997</ele>
        <time>2022-07-27T11:58:46.000Z</time>
      </trkpt>
      <trkpt lat="42.3298917710781097412109375" lon="2.398025952279567718505859375">
        <ele>998</ele>
        <time>2022-07-27T11:58:55.000Z</time>
      </trkpt>
      <trkpt lat="42.330012805759906768798828125" lon="2.39807196892797946929931640625">
        <ele>998.4000244140625</ele>
        <time>2022-07-27T11:58:57.000Z</time>
      </trkpt>
      <trkpt lat="42.33013518154621124267578125" lon="2.39810314960777759552001953125">
        <ele>998.79998779296875</ele>
        <time>2022-07-27T11:58:59.000Z</time>
      </trkpt>
      <trkpt lat="42.3304498381912708282470703125" lon="2.3981454782187938690185546875">
        <ele>1000</ele>
        <time>2022-07-27T11:59:04.000Z</time>
      </trkpt>
      <trkpt lat="42.3305135406553745269775390625" lon="2.39814497530460357666015625">
        <ele>1000.20001220703125</ele>
        <time>2022-07-27T11:59:05.000Z</time>
      </trkpt>
      <trkpt lat="42.3308347351849079132080078125" lon="2.398127205669879913330078125">
        <ele>1001.20001220703125</ele>
        <time>2022-07-27T11:59:10.000Z</time>
      </trkpt>
      <trkpt lat="42.3310224898159503936767578125" lon="2.3981478251516819000244140625">
        <ele>1001.5999755859375</ele>
        <time>2022-07-27T11:59:13.000Z</time>
      </trkpt>
      <trkpt lat="42.3314197920262813568115234375" lon="2.39827145822346210479736328125">
        <ele>1002.20001220703125</ele>
        <time>2022-07-27T11:59:20.000Z</time>
      </trkpt>
      <trkpt lat="42.331471927464008331298828125" lon="2.3982913233339786529541015625">
        <ele>1002.4000244140625</ele>
        <time>2022-07-27T11:59:21.000Z</time>
      </trkpt>
      <trkpt lat="42.3317668028175830841064453125" lon="2.3984110169112682342529296875">
        <ele>1003.20001220703125</ele>
        <time>2022-07-27T11:59:27.000Z</time>
      </trkpt>
      <trkpt lat="42.3319005779922008514404296875" lon="2.3984648287296295166015625">
        <ele>1004.20001220703125</ele>
        <time>2022-07-27T11:59:30.000Z</time>
      </trkpt>
      <trkpt lat="42.33201784081757068634033203125" lon="2.39851168356835842132568359375">
        <ele>1005.4000244140625</ele>
        <time>2022-07-27T11:59:33.000Z</time>
      </trkpt>
      <trkpt lat="42.33216955326497554779052734375" lon="2.39856214262545108795166015625">
        <ele>1006.20001220703125</ele>
        <time>2022-07-27T11:59:37.000Z</time>
      </trkpt>
      <trkpt lat="42.33220794238150119781494140625" lon="2.3985692672431468963623046875">
        <ele>1006.5999755859375</ele>
        <time>2022-07-27T11:59:38.000Z</time>
      </trkpt>
      <trkpt lat="42.33240826986730098724365234375" lon="2.3985930718481540679931640625">
        <ele>1007.79998779296875</ele>
        <time>2022-07-27T11:59:43.000Z</time>
      </trkpt>
      <trkpt lat="42.332449257373809814453125" lon="2.39859156310558319091796875">
        <ele>1008</ele>
        <time>2022-07-27T11:59:44.000Z</time>
      </trkpt>
      <trkpt lat="42.33257599174976348876953125" lon="2.39857521839439868927001953125">
        <ele>1008.79998779296875</ele>
        <time>2022-07-27T11:59:47.000Z</time>
      </trkpt>
      <trkpt lat="42.33274203725159168243408203125" lon="2.39851604215800762176513671875">
        <ele>1009.5999755859375</ele>
        <time>2022-07-27T11:59:51.000Z</time>
      </trkpt>
      <trkpt lat="42.3327833600342273712158203125" lon="2.39849659614264965057373046875">
        <ele>1009.79998779296875</ele>
        <time>2022-07-27T11:59:52.000Z</time>
      </trkpt>
      <trkpt lat="42.33299165032804012298583984375" lon="2.3983855359256267547607421875">
        <ele>1010.79998779296875</ele>
        <time>2022-07-27T11:59:57.000Z</time>
      </trkpt>
      <trkpt lat="42.333036325871944427490234375" lon="2.39836500026285648345947265625">
        <ele>1010.79998779296875</ele>
        <time>2022-07-27T11:59:58.000Z</time>
      </trkpt>
      <trkpt lat="42.33313062228262424468994140625" lon="2.39833801053464412689208984375">
        <ele>1011.20001220703125</ele>
        <time>2022-07-27T12:00:00.000Z</time>
      </trkpt>
      <trkpt lat="42.33326707966625690460205078125" lon="2.398337759077548980712890625">
        <ele>1011.5999755859375</ele>
        <time>2022-07-27T12:00:03.000Z</time>
      </trkpt>
      <trkpt lat="42.33330697752535343170166015625" lon="2.39834605716168880462646484375">
        <ele>1011.5999755859375</ele>
        <time>2022-07-27T12:00:04.000Z</time>
      </trkpt>
      <trkpt lat="42.33345097862184047698974609375" lon="2.398424930870532989501953125">
        <ele>1011.79998779296875</ele>
        <time>2022-07-27T12:00:08.000Z</time>
      </trkpt>
      <trkpt lat="42.3334832489490509033203125" lon="2.39845116622745990753173828125">
        <ele>1011.79998779296875</ele>
        <time>2022-07-27T12:00:09.000Z</time>
      </trkpt>
      <trkpt lat="42.33367008157074451446533203125" lon="2.39862685091793537139892578125">
        <ele>1011.5999755859375</ele>
        <time>2022-07-27T12:00:15.000Z</time>
      </trkpt>
      <trkpt lat="42.333786673843860626220703125" lon="2.39882625639438629150390625">
        <ele>1011.5999755859375</ele>
        <time>2022-07-27T12:00:20.000Z</time>
      </trkpt>
      <trkpt lat="42.33384660445153713226318359375" lon="2.39911752752959728240966796875">
        <ele>1011.79998779296875</ele>
        <time>2022-07-27T12:00:26.000Z</time>
      </trkpt>
      <trkpt lat="42.33382933773100376129150390625" lon="2.3993719182908535003662109375">
        <ele>1012.5999755859375</ele>
        <time>2022-07-27T12:00:31.000Z</time>
      </trkpt>
      <trkpt lat="42.3338139988481998443603515625" lon="2.39946738816797733306884765625">
        <ele>1013.20001220703125</ele>
        <time>2022-07-27T12:00:33.000Z</time>
      </trkpt>
      <trkpt lat="42.33380377292633056640625" lon="2.399513237178325653076171875">
        <ele>1013.5999755859375</ele>
        <time>2022-07-27T12:00:34.000Z</time>
      </trkpt>
      <trkpt lat="42.33375457115471363067626953125" lon="2.399753630161285400390625">
        <ele>1014.79998779296875</ele>
        <time>2022-07-27T12:00:39.000Z</time>
      </trkpt>
      <trkpt lat="42.33372892253100872039794921875" lon="2.39989788271486759185791015625">
        <ele>1015.4000244140625</ele>
        <time>2022-07-27T12:00:42.000Z</time>
      </trkpt>
      <trkpt lat="42.33372003771364688873291015625" lon="2.39994599483907222747802734375">
        <ele>1015.79998779296875</ele>
        <time>2022-07-27T12:00:43.000Z</time>
      </trkpt>
      <trkpt lat="42.3336946405470371246337890625" lon="2.4000884033739566802978515625">
        <ele>1016.79998779296875</ele>
        <time>2022-07-27T12:00:46.000Z</time>
      </trkpt>
      <trkpt lat="42.333654575049877166748046875" lon="2.4002699553966522216796875">
        <ele>1017.5999755859375</ele>
        <time>2022-07-27T12:00:50.000Z</time>
      </trkpt>
      <trkpt lat="42.33364351093769073486328125" lon="2.40031379275023937225341796875">
        <ele>1017.79998779296875</ele>
        <time>2022-07-27T12:00:51.000Z</time>
      </trkpt>
      <trkpt lat="42.333603613078594207763671875" lon="2.4004872143268585205078125">
        <ele>1018.79998779296875</ele>
        <time>2022-07-27T12:00:55.000Z</time>
      </trkpt>
      <trkpt lat="42.3335786350071430206298828125" lon="2.40065761841833591461181640625">
        <ele>1019.79998779296875</ele>
        <time>2022-07-27T12:00:59.000Z</time>
      </trkpt>
      <trkpt lat="42.333575449883937835693359375" lon="2.40069902502000331878662109375">
        <ele>1020</ele>
        <time>2022-07-27T12:01:00.000Z</time>
      </trkpt>
      <trkpt lat="42.33358257450163364410400390625" lon="2.40085266530513763427734375">
        <ele>1021</ele>
        <time>2022-07-27T12:01:04.000Z</time>
      </trkpt>
      <trkpt lat="42.3335974104702472686767578125" lon="2.4009190499782562255859375">
        <ele>1021.5999755859375</ele>
        <time>2022-07-27T12:01:06.000Z</time>
      </trkpt>
      <trkpt lat="42.333622388541698455810546875" lon="2.40102943964302539825439453125">
        <ele>1022.4000244140625</ele>
        <time>2022-07-27T12:01:09.000Z</time>
      </trkpt>
      <trkpt lat="42.333661615848541259765625" lon="2.40110814571380615234375">
        <ele>1023</ele>
        <time>2022-07-27T12:01:12.000Z</time>
      </trkpt>
      <trkpt lat="42.3337031900882720947265625" lon="2.40115265361964702606201171875">
        <ele>1023.5999755859375</ele>
        <time>2022-07-27T12:01:14.000Z</time>
      </trkpt>
      <trkpt lat="42.3337945528328418731689453125" lon="2.4012035317718982696533203125">
        <ele>1024.199951171875</ele>
        <time>2022-07-27T12:01:17.000Z</time>
      </trkpt>
      <trkpt lat="42.333857081830501556396484375" lon="2.401227168738842010498046875">
        <ele>1024.4000244140625</ele>
        <time>2022-07-27T12:01:19.000Z</time>
      </trkpt>
      <trkpt lat="42.3340064473450183868408203125" lon="2.40125273354351520538330078125">
        <ele>1024.800048828125</ele>
        <time>2022-07-27T12:01:24.000Z</time>
      </trkpt>
      <trkpt lat="42.33413795940577983856201171875" lon="2.40124183706939220428466796875">
        <ele>1025.5999755859375</ele>
        <time>2022-07-27T12:01:28.000Z</time>
      </trkpt>
      <trkpt lat="42.33424122445285320281982421875" lon="2.40122607909142971038818359375">
        <ele>1026.199951171875</ele>
        <time>2022-07-27T12:01:31.000Z</time>
      </trkpt>
      <trkpt lat="42.3343142308294773101806640625" lon="2.40121535025537014007568359375">
        <ele>1026.5999755859375</ele>
        <time>2022-07-27T12:01:33.000Z</time>
      </trkpt>
      <trkpt lat="42.33448547311127185821533203125" lon="2.4011726863682270050048828125">
        <ele>1027.800048828125</ele>
        <time>2022-07-27T12:01:38.000Z</time>
      </trkpt>
      <trkpt lat="42.33451732434332370758056640625" lon="2.4011569283902645111083984375">
        <ele>1028</ele>
        <time>2022-07-27T12:01:39.000Z</time>
      </trkpt>
      <trkpt lat="42.33466015197336673736572265625" lon="2.4010617099702358245849609375">
        <ele>1028.800048828125</ele>
        <time>2022-07-27T12:01:43.000Z</time>
      </trkpt>
      <trkpt lat="42.33472905121743679046630859375" lon="2.40099239163100719451904296875">
        <ele>1029.199951171875</ele>
        <time>2022-07-27T12:01:45.000Z</time>
      </trkpt>
      <trkpt lat="42.3348617367446422576904296875" lon="2.40082860924303531646728515625">
        <ele>1029.800048828125</ele>
        <time>2022-07-27T12:01:49.000Z</time>
      </trkpt>
      <trkpt lat="42.334923259913921356201171875" lon="2.400730960071086883544921875">
        <ele>1030</ele>
        <time>2022-07-27T12:01:51.000Z</time>
      </trkpt>
      <trkpt lat="42.33517237007617950439453125" lon="2.40024648606777191162109375">
        <ele>1030.4000244140625</ele>
        <time>2022-07-27T12:01:59.000Z</time>
      </trkpt>
      <trkpt lat="42.33529969118535518646240234375" lon="2.40008815191686153411865234375">
        <ele>1030.4000244140625</ele>
        <time>2022-07-27T12:02:02.000Z</time>
      </trkpt>
      <trkpt lat="42.3353971727192401885986328125" lon="2.40000315941870212554931640625">
        <ele>1030.5999755859375</ele>
        <time>2022-07-27T12:02:04.000Z</time>
      </trkpt>
      <trkpt lat="42.33550068922340869903564453125" lon="2.39993191324174404144287109375">
        <ele>1030.5999755859375</ele>
        <time>2022-07-27T12:02:06.000Z</time>
      </trkpt>
      <trkpt lat="42.3356667347252368927001953125" lon="2.3998614214360713958740234375">
        <ele>1030.5999755859375</ele>
        <time>2022-07-27T12:02:09.000Z</time>
      </trkpt>
      <trkpt lat="42.33611072413623332977294921875" lon="2.39973745308816432952880859375">
        <ele>1031</ele>
        <time>2022-07-27T12:02:17.000Z</time>
      </trkpt>
      <trkpt lat="42.3361622728407382965087890625" lon="2.39970610477030277252197265625">
        <ele>1031</ele>
        <time>2022-07-27T12:02:18.000Z</time>
      </trkpt>
      <trkpt lat="42.3363476805388927459716796875" lon="2.3995457589626312255859375">
        <ele>1031.199951171875</ele>
        <time>2022-07-27T12:02:22.000Z</time>
      </trkpt>
      <trkpt lat="42.336472906172275543212890625" lon="2.39941659383475780487060546875">
        <ele>1031.800048828125</ele>
        <time>2022-07-27T12:02:25.000Z</time>
      </trkpt>
      <trkpt lat="42.336554713547229766845703125" lon="2.3993367142975330352783203125">
        <ele>1032.199951171875</ele>
        <time>2022-07-27T12:02:27.000Z</time>
      </trkpt>
      <trkpt lat="42.3365934379398822784423828125" lon="2.39929773844778537750244140625">
        <ele>1032.199951171875</ele>
        <time>2022-07-27T12:02:28.000Z</time>
      </trkpt>
      <trkpt lat="42.33686157502233982086181640625" lon="2.39901602268218994140625">
        <ele>1033</ele>
        <time>2022-07-27T12:02:35.000Z</time>
      </trkpt>
      <trkpt lat="42.33690365217626094818115234375" lon="2.39897637628018856048583984375">
        <ele>1033.199951171875</ele>
        <time>2022-07-27T12:02:36.000Z</time>
      </trkpt>
      <trkpt lat="42.3370212502777576446533203125" lon="2.39885048009455204010009765625">
        <ele>1033.800048828125</ele>
        <time>2022-07-27T12:02:39.000Z</time>
      </trkpt>
      <trkpt lat="42.33709073625504970550537109375" lon="2.398762889206409454345703125">
        <ele>1034</ele>
        <time>2022-07-27T12:02:41.000Z</time>
      </trkpt>
      <trkpt lat="42.33712359331548213958740234375" lon="2.39871905185282230377197265625">
        <ele>1034.4000244140625</ele>
        <time>2022-07-27T12:02:42.000Z</time>
      </trkpt>
      <trkpt lat="42.33718712814152240753173828125" lon="2.39863355644047260284423828125">
        <ele>1034.5999755859375</ele>
        <time>2022-07-27T12:02:44.000Z</time>
      </trkpt>
      <trkpt lat="42.33724647201597690582275390625" lon="2.39854236133396625518798828125">
        <ele>1035</ele>
        <time>2022-07-27T12:02:46.000Z</time>
      </trkpt>
      <trkpt lat="42.33727497048676013946533203125" lon="2.3984961770474910736083984375">
        <ele>1035.199951171875</ele>
        <time>2022-07-27T12:02:47.000Z</time>
      </trkpt>
      <trkpt lat="42.33730874955654144287109375" lon="2.3984549380838871002197265625">
        <ele>1035.4000244140625</ele>
        <time>2022-07-27T12:02:48.000Z</time>
      </trkpt>
      <trkpt lat="42.33741695992648601531982421875" lon="2.3983496613800525665283203125">
        <ele>1036.4000244140625</ele>
        <time>2022-07-27T12:02:51.000Z</time>
      </trkpt>
      <trkpt lat="42.33761695213615894317626953125" lon="2.39818110130727291107177734375">
        <ele>1037</ele>
        <time>2022-07-27T12:02:56.000Z</time>
      </trkpt>
      <trkpt lat="42.3377541638910770416259765625" lon="2.39808638580143451690673828125">
        <ele>1037.199951171875</ele>
        <time>2022-07-27T12:02:59.000Z</time>
      </trkpt>
      <trkpt lat="42.33793261460959911346435546875" lon="2.3979630880057811737060546875">
        <ele>1037.800048828125</ele>
        <time>2022-07-27T12:03:03.000Z</time>
      </trkpt>
      <trkpt lat="42.33810226432979106903076171875" lon="2.39784414879977703094482421875">
        <ele>1038.199951171875</ele>
        <time>2022-07-27T12:03:07.000Z</time>
      </trkpt>
      <trkpt lat="42.3382255621254444122314453125" lon="2.39774540998041629791259765625">
        <ele>1038.5999755859375</ele>
        <time>2022-07-27T12:03:10.000Z</time>
      </trkpt>
      <trkpt lat="42.33853946439921855926513671875" lon="2.397431172430515289306640625">
        <ele>1039.4000244140625</ele>
        <time>2022-07-27T12:03:18.000Z</time>
      </trkpt>
      <trkpt lat="42.3385769315063953399658203125" lon="2.397386245429515838623046875">
        <ele>1039.5999755859375</ele>
        <time>2022-07-27T12:03:19.000Z</time>
      </trkpt>
      <trkpt lat="42.33873040415346622467041015625" lon="2.39718885160982608795166015625">
        <ele>1040.4000244140625</ele>
        <time>2022-07-27T12:03:23.000Z</time>
      </trkpt>
      <trkpt lat="42.33888329006731510162353515625" lon="2.39697192795574665069580078125">
        <ele>1040.800048828125</ele>
        <time>2022-07-27T12:03:27.000Z</time>
      </trkpt>
      <trkpt lat="42.3390382714569568634033203125" lon="2.3967611230909824371337890625">
        <ele>1041</ele>
        <time>2022-07-27T12:03:31.000Z</time>
      </trkpt>
      <trkpt lat="42.33912100084125995635986328125" lon="2.39666934125125408172607421875">
        <ele>1041</ele>
        <time>2022-07-27T12:03:33.000Z</time>
      </trkpt>
      <trkpt lat="42.3392038978636264801025390625" lon="2.396585941314697265625">
        <ele>1041.199951171875</ele>
        <time>2022-07-27T12:03:35.000Z</time>
      </trkpt>
      <trkpt lat="42.339289896190166473388671875" lon="2.3965163715183734893798828125">
        <ele>1041.4000244140625</ele>
        <time>2022-07-27T12:03:37.000Z</time>
      </trkpt>
      <trkpt lat="42.33933574520051479339599609375" lon="2.39649265073239803314208984375">
        <ele>1041.4000244140625</ele>
        <time>2022-07-27T12:03:38.000Z</time>
      </trkpt>
      <trkpt lat="42.33945761807262897491455078125" lon="2.396524585783481597900390625">
        <ele>1041.4000244140625</ele>
        <time>2022-07-27T12:03:41.000Z</time>
      </trkpt>
      <trkpt lat="42.33953154645860195159912109375" lon="2.39666213281452655792236328125">
        <ele>1041.800048828125</ele>
        <time>2022-07-27T12:03:44.000Z</time>
      </trkpt>
      <trkpt lat="42.339527942240238189697265625" lon="2.3967768810689449310302734375">
        <ele>1042.4000244140625</ele>
        <time>2022-07-27T12:03:46.000Z</time>
      </trkpt>
      <trkpt lat="42.33950958587229251861572265625" lon="2.39689598791301250457763671875">
        <ele>1042.5999755859375</ele>
        <time>2022-07-27T12:03:48.000Z</time>
      </trkpt>
      <trkpt lat="42.33949449844658374786376953125" lon="2.39695365540683269500732421875">
        <ele>1042.800048828125</ele>
        <time>2022-07-27T12:03:49.000Z</time>
      </trkpt>
      <trkpt lat="42.33947622589766979217529296875" lon="2.39700931124389171600341796875">
        <ele>1042.800048828125</ele>
        <time>2022-07-27T12:03:50.000Z</time>
      </trkpt>
      <trkpt lat="42.33941000886261463165283203125" lon="2.397160939872264862060546875">
        <ele>1043.4000244140625</ele>
        <time>2022-07-27T12:03:53.000Z</time>
      </trkpt>
      <trkpt lat="42.33938352204859256744384765625" lon="2.3972090519964694976806640625">
        <ele>1043.4000244140625</ele>
        <time>2022-07-27T12:03:54.000Z</time>
      </trkpt>
      <trkpt lat="42.3392285406589508056640625" lon="2.39746662788093090057373046875">
        <ele>1044</ele>
        <time>2022-07-27T12:04:00.000Z</time>
      </trkpt>
      <trkpt lat="42.339181266725063323974609375" lon="2.397533766925334930419921875">
        <ele>1044.199951171875</ele>
        <time>2022-07-27T12:04:02.000Z</time>
      </trkpt>
      <trkpt lat="42.3390922509133815765380859375" lon="2.3976682126522064208984375">
        <ele>1044.800048828125</ele>
        <time>2022-07-27T12:04:06.000Z</time>
      </trkpt>
      <trkpt lat="42.33902745880186557769775390625" lon="2.397765107452869415283203125">
        <ele>1045.4000244140625</ele>
        <time>2022-07-27T12:04:09.000Z</time>
      </trkpt>
      <trkpt lat="42.3389229364693164825439453125" lon="2.3979258723556995391845703125">
        <ele>1046.4000244140625</ele>
        <time>2022-07-27T12:04:14.000Z</time>
      </trkpt>
      <trkpt lat="42.33890223316848278045654296875" lon="2.3979583941400051116943359375">
        <ele>1046.800048828125</ele>
        <time>2022-07-27T12:04:15.000Z</time>
      </trkpt>
      <trkpt lat="42.3388223536312580108642578125" lon="2.39807280711829662322998046875">
        <ele>1047.5999755859375</ele>
        <time>2022-07-27T12:04:19.000Z</time>
      </trkpt>
      <trkpt lat="42.33876711688935756683349609375" lon="2.3981568776071071624755859375">
        <ele>1048.4000244140625</ele>
        <time>2022-07-27T12:04:22.000Z</time>
      </trkpt>
      <trkpt lat="42.33874867670238018035888671875" lon="2.39818680100142955780029296875">
        <ele>1048.5999755859375</ele>
        <time>2022-07-27T12:04:23.000Z</time>
      </trkpt>
      <trkpt lat="42.3385796137154102325439453125" lon="2.3984153755009174346923828125">
        <ele>1049.4000244140625</ele>
        <time>2022-07-27T12:04:31.000Z</time>
      </trkpt>
      <trkpt lat="42.33855606056749820709228515625" lon="2.39844026975333690643310546875">
        <ele>1049.5999755859375</ele>
        <time>2022-07-27T12:04:32.000Z</time>
      </trkpt>
      <trkpt lat="42.33844893984496593475341796875" lon="2.3985417746007442474365234375">
        <ele>1050.800048828125</ele>
        <time>2022-07-27T12:04:36.000Z</time>
      </trkpt>
      <trkpt lat="42.33836595900356769561767578125" lon="2.39861578680574893951416015625">
        <ele>1051.4000244140625</ele>
        <time>2022-07-27T12:04:39.000Z</time>
      </trkpt>
      <trkpt lat="42.33834098093211650848388671875" lon="2.3986376635730266571044921875">
        <ele>1051.800048828125</ele>
        <time>2022-07-27T12:04:40.000Z</time>
      </trkpt>
      <trkpt lat="42.33827325515449047088623046875" lon="2.398710586130619049072265625">
        <ele>1053</ele>
        <time>2022-07-27T12:04:43.000Z</time>
      </trkpt>
      <trkpt lat="42.3382051102817058563232421875" lon="2.39877931773662567138671875">
        <ele>1053.800048828125</ele>
        <time>2022-07-27T12:04:46.000Z</time>
      </trkpt>
      <trkpt lat="42.3381621949374675750732421875" lon="2.39882868714630603790283203125">
        <ele>1054.199951171875</ele>
        <time>2022-07-27T12:04:48.000Z</time>
      </trkpt>
      <trkpt lat="42.338094972074031829833984375" lon="2.398945949971675872802734375">
        <ele>1054.800048828125</ele>
        <time>2022-07-27T12:04:52.000Z</time>
      </trkpt>
      <trkpt lat="42.3380549065768718719482421875" lon="2.39909053780138492584228515625">
        <ele>1055.4000244140625</ele>
        <time>2022-07-27T12:04:56.000Z</time>
      </trkpt>
      <trkpt lat="42.33805029653012752532958984375" lon="2.399198748171329498291015625">
        <ele>1055.5999755859375</ele>
        <time>2022-07-27T12:04:59.000Z</time>
      </trkpt>
      <trkpt lat="42.3380756936967372894287109375" lon="2.39943419583141803741455078125">
        <ele>1056.4000244140625</ele>
        <time>2022-07-27T12:05:06.000Z</time>
      </trkpt>
      <trkpt lat="42.33816831372678279876708984375" lon="2.39957501180469989776611328125">
        <ele>1057.5999755859375</ele>
        <time>2022-07-27T12:05:11.000Z</time>
      </trkpt>
      <trkpt lat="42.338194549083709716796875" lon="2.399594374001026153564453125">
        <ele>1057.800048828125</ele>
        <time>2022-07-27T12:05:12.000Z</time>
      </trkpt>
      <trkpt lat="42.33835975639522075653076171875" lon="2.3996652849018573760986328125">
        <ele>1058.5999755859375</ele>
        <time>2022-07-27T12:05:18.000Z</time>
      </trkpt>
      <trkpt lat="42.3385216109454631805419921875" lon="2.39966888912022113800048828125">
        <ele>1060</ele>
        <time>2022-07-27T12:05:23.000Z</time>
      </trkpt>
      <trkpt lat="42.33864851295948028564453125" lon="2.3996538855135440826416015625">
        <ele>1060.5999755859375</ele>
        <time>2022-07-27T12:05:27.000Z</time>
      </trkpt>
      <trkpt lat="42.33887272886931896209716796875" lon="2.39966721273958683013916015625">
        <ele>1061.199951171875</ele>
        <time>2022-07-27T12:05:34.000Z</time>
      </trkpt>
      <trkpt lat="42.3390587233006954193115234375" lon="2.39971951581537723541259765625">
        <ele>1062.199951171875</ele>
        <time>2022-07-27T12:05:40.000Z</time>
      </trkpt>
      <trkpt lat="42.33908764086663722991943359375" lon="2.39973376505076885223388671875">
        <ele>1062.4000244140625</ele>
        <time>2022-07-27T12:05:41.000Z</time>
      </trkpt>
      <trkpt lat="42.33920465223491191864013671875" lon="2.39980618469417095184326171875">
        <ele>1063.199951171875</ele>
        <time>2022-07-27T12:05:46.000Z</time>
      </trkpt>
      <trkpt lat="42.339230217039585113525390625" lon="2.3998300731182098388671875">
        <ele>1063.199951171875</ele>
        <time>2022-07-27T12:05:47.000Z</time>
      </trkpt>
      <trkpt lat="42.339388467371463775634765625" lon="2.40002545528113842010498046875">
        <ele>1064.4000244140625</ele>
        <time>2022-07-27T12:05:54.000Z</time>
      </trkpt>
      <trkpt lat="42.3395150341093540191650390625" lon="2.400297112762928009033203125">
        <ele>1065.4000244140625</ele>
        <time>2022-07-27T12:06:02.000Z</time>
      </trkpt>
      <trkpt lat="42.33952836133539676666259765625" lon="2.4003334902226924896240234375">
        <ele>1065.800048828125</ele>
        <time>2022-07-27T12:06:03.000Z</time>
      </trkpt>
      <trkpt lat="42.3395854420959949493408203125" lon="2.40051361732184886932373046875">
        <ele>1066.5999755859375</ele>
        <time>2022-07-27T12:06:08.000Z</time>
      </trkpt>
      <trkpt lat="42.3396407626569271087646484375" lon="2.40073037333786487579345703125">
        <ele>1067.5999755859375</ele>
        <time>2022-07-27T12:06:14.000Z</time>
      </trkpt>
      <trkpt lat="42.33965073712170124053955078125" lon="2.400765828788280487060546875">
        <ele>1067.800048828125</ele>
        <time>2022-07-27T12:06:15.000Z</time>
      </trkpt>
      <trkpt lat="42.3396853543817996978759765625" lon="2.40091443993151187896728515625">
        <ele>1068.199951171875</ele>
        <time>2022-07-27T12:06:19.000Z</time>
      </trkpt>
      <trkpt lat="42.33972315676510334014892578125" lon="2.401070930063724517822265625">
        <ele>1068.800048828125</ele>
        <time>2022-07-27T12:06:23.000Z</time>
      </trkpt>
      <trkpt lat="42.3397386632859706878662109375" lon="2.401148714125156402587890625">
        <ele>1069</ele>
        <time>2022-07-27T12:06:25.000Z</time>
      </trkpt>
      <trkpt lat="42.33977747149765491485595703125" lon="2.40134761668741703033447265625">
        <ele>1069.800048828125</ele>
        <time>2022-07-27T12:06:30.000Z</time>
      </trkpt>
      <trkpt lat="42.33980454504489898681640625" lon="2.40146823227405548095703125">
        <ele>1070.4000244140625</ele>
        <time>2022-07-27T12:06:33.000Z</time>
      </trkpt>
      <trkpt lat="42.339830696582794189453125" lon="2.40157954394817352294921875">
        <ele>1070.800048828125</ele>
        <time>2022-07-27T12:06:36.000Z</time>
      </trkpt>
      <trkpt lat="42.33988006599247455596923828125" lon="2.4017263948917388916015625">
        <ele>1071.4000244140625</ele>
        <time>2022-07-27T12:06:40.000Z</time>
      </trkpt>
      <trkpt lat="42.33993806876242160797119140625" lon="2.401821613311767578125">
        <ele>1072</ele>
        <time>2022-07-27T12:06:43.000Z</time>
      </trkpt>
      <trkpt lat="42.339999340474605560302734375" lon="2.40190803073346614837646484375">
        <ele>1072.800048828125</ele>
        <time>2022-07-27T12:06:46.000Z</time>
      </trkpt>
      <trkpt lat="42.3400206305086612701416015625" lon="2.40193334408104419708251953125">
        <ele>1073.199951171875</ele>
        <time>2022-07-27T12:06:47.000Z</time>
      </trkpt>
      <trkpt lat="42.3401409946382045745849609375" lon="2.40202051587402820587158203125">
        <ele>1074.199951171875</ele>
        <time>2022-07-27T12:06:52.000Z</time>
      </trkpt>
      <trkpt lat="42.34016722999513149261474609375" lon="2.4020289815962314605712890625">
        <ele>1074.5999755859375</ele>
        <time>2022-07-27T12:06:53.000Z</time>
      </trkpt>
      <trkpt lat="42.34028357081115245819091796875" lon="2.402042560279369354248046875">
        <ele>1075.4000244140625</ele>
        <time>2022-07-27T12:06:57.000Z</time>
      </trkpt>
      <trkpt lat="42.34037057496607303619384765625" lon="2.4020482599735260009765625">
        <ele>1076</ele>
        <time>2022-07-27T12:07:00.000Z</time>
      </trkpt>
      <trkpt lat="42.3404558189213275909423828125" lon="2.402047254145145416259765625">
        <ele>1076.4000244140625</ele>
        <time>2022-07-27T12:07:03.000Z</time>
      </trkpt>
      <trkpt lat="42.34062471427023410797119140625" lon="2.40203828550875186920166015625">
        <ele>1077.199951171875</ele>
        <time>2022-07-27T12:07:09.000Z</time>
      </trkpt>
      <trkpt lat="42.34065153636038303375244140625" lon="2.402041219174861907958984375">
        <ele>1077.4000244140625</ele>
        <time>2022-07-27T12:07:10.000Z</time>
      </trkpt>
      <trkpt lat="42.34078145585954189300537109375" lon="2.4020407162606716156005859375">
        <ele>1078</ele>
        <time>2022-07-27T12:07:15.000Z</time>
      </trkpt>
      <trkpt lat="42.34083317220211029052734375" lon="2.40203744731843471527099609375">
        <ele>1078.4000244140625</ele>
        <time>2022-07-27T12:07:17.000Z</time>
      </trkpt>
      <trkpt lat="42.34097843058407306671142578125" lon="2.40203258581459522247314453125">
        <ele>1079.4000244140625</ele>
        <time>2022-07-27T12:07:22.000Z</time>
      </trkpt>
      <trkpt lat="42.34100642614066600799560546875" lon="2.40202881395816802978515625">
        <ele>1079.4000244140625</ele>
        <time>2022-07-27T12:07:23.000Z</time>
      </trkpt>
      <trkpt lat="42.34116132371127605438232421875" lon="2.40201028995215892791748046875">
        <ele>1080.5999755859375</ele>
        <time>2022-07-27T12:07:29.000Z</time>
      </trkpt>
      <trkpt lat="42.34129359014332294464111328125" lon="2.401985228061676025390625">
        <ele>1081.5999755859375</ele>
        <time>2022-07-27T12:07:34.000Z</time>
      </trkpt>
      <trkpt lat="42.34134455211460590362548828125" lon="2.40197022445499897003173828125">
        <ele>1081.800048828125</ele>
        <time>2022-07-27T12:07:36.000Z</time>
      </trkpt>
      <trkpt lat="42.3414603061974048614501953125" lon="2.40191373042762279510498046875">
        <ele>1082.800048828125</ele>
        <time>2022-07-27T12:07:42.000Z</time>
      </trkpt>
      <trkpt lat="42.34147799201309680938720703125" lon="2.4019034206867218017578125">
        <ele>1083</ele>
        <time>2022-07-27T12:07:43.000Z</time>
      </trkpt>
      <trkpt lat="42.3415856994688510894775390625" lon="2.40183435380458831787109375">
        <ele>1083.5999755859375</ele>
        <time>2022-07-27T12:07:48.000Z</time>
      </trkpt>
      <trkpt lat="42.3416118510067462921142578125" lon="2.40180962719023227691650390625">
        <ele>1083.800048828125</ele>
        <time>2022-07-27T12:07:49.000Z</time>
      </trkpt>
      <trkpt lat="42.34176850877702236175537109375" lon="2.40170233882963657379150390625">
        <ele>1084.4000244140625</ele>
        <time>2022-07-27T12:07:55.000Z</time>
      </trkpt>
      <trkpt lat="42.34181477688252925872802734375" lon="2.4016719125211238861083984375">
        <ele>1084.800048828125</ele>
        <time>2022-07-27T12:07:57.000Z</time>
      </trkpt>
      <trkpt lat="42.34190328978002071380615234375" lon="2.4016038514673709869384765625">
        <ele>1085.199951171875</ele>
        <time>2022-07-27T12:08:01.000Z</time>
      </trkpt>
      <trkpt lat="42.341950647532939910888671875" lon="2.401577197015285491943359375">
        <ele>1086</ele>
        <time>2022-07-27T12:08:03.000Z</time>
      </trkpt>
      <trkpt lat="42.342019379138946533203125" lon="2.40152782760560512542724609375">
        <ele>1086.5999755859375</ele>
        <time>2022-07-27T12:08:06.000Z</time>
      </trkpt>
      <trkpt lat="42.34209808520972728729248046875" lon="2.401484660804271697998046875">
        <ele>1086.800048828125</ele>
        <time>2022-07-27T12:08:09.000Z</time>
      </trkpt>
      <trkpt lat="42.34220101498067378997802734375" lon="2.4014073796570301055908203125">
        <ele>1087.5999755859375</ele>
        <time>2022-07-27T12:08:13.000Z</time>
      </trkpt>
      <trkpt lat="42.3422545753419399261474609375" lon="2.401363290846347808837890625">
        <ele>1088</ele>
        <time>2022-07-27T12:08:15.000Z</time>
      </trkpt>
      <trkpt lat="42.342354319989681243896484375" lon="2.4012809805572032928466796875">
        <ele>1088.4000244140625</ele>
        <time>2022-07-27T12:08:19.000Z</time>
      </trkpt>
      <trkpt lat="42.34240352176129817962646484375" lon="2.401241920888423919677734375">
        <ele>1089</ele>
        <time>2022-07-27T12:08:21.000Z</time>
      </trkpt>
      <trkpt lat="42.3425191082060337066650390625" lon="2.40115977823734283447265625">
        <ele>1090</ele>
        <time>2022-07-27T12:08:26.000Z</time>
      </trkpt>
      <trkpt lat="42.34254115261137485504150390625" lon="2.4011488817632198333740234375">
        <ele>1090</ele>
        <time>2022-07-27T12:08:27.000Z</time>
      </trkpt>
      <trkpt lat="42.34263855032622814178466796875" lon="2.40113119594752788543701171875">
        <ele>1091</ele>
        <time>2022-07-27T12:08:32.000Z</time>
      </trkpt>
      <trkpt lat="42.342739887535572052001953125" lon="2.40120193921029567718505859375">
        <ele>1091.5999755859375</ele>
        <time>2022-07-27T12:08:37.000Z</time>
      </trkpt>
      <trkpt lat="42.3427682183682918548583984375" lon="2.4012632109224796295166015625">
        <ele>1092</ele>
        <time>2022-07-27T12:08:39.000Z</time>
      </trkpt>
      <trkpt lat="42.34278372488915920257568359375" lon="2.401371002197265625">
        <ele>1092.4000244140625</ele>
        <time>2022-07-27T12:08:42.000Z</time>
      </trkpt>
      <trkpt lat="42.3427470959722995758056640625" lon="2.401456497609615325927734375">
        <ele>1093</ele>
        <time>2022-07-27T12:08:45.000Z</time>
      </trkpt>
      <trkpt lat="42.342692948877811431884765625" lon="2.4015091359615325927734375">
        <ele>1093.4000244140625</ele>
        <time>2022-07-27T12:08:47.000Z</time>
      </trkpt>
      <trkpt lat="42.34251734800636768341064453125" lon="2.4016222916543483734130859375">
        <ele>1093.5999755859375</ele>
        <time>2022-07-27T12:08:53.000Z</time>
      </trkpt>
      <trkpt lat="42.34241257421672344207763671875" lon="2.40170217119157314300537109375">
        <ele>1094</ele>
        <time>2022-07-27T12:08:57.000Z</time>
      </trkpt>
      <trkpt lat="42.3423179425299167633056640625" lon="2.401804514229297637939453125">
        <ele>1094.199951171875</ele>
        <time>2022-07-27T12:09:01.000Z</time>
      </trkpt>
      <trkpt lat="42.34219414182007312774658203125" lon="2.40202822722494602203369140625">
        <ele>1094.800048828125</ele>
        <time>2022-07-27T12:09:08.000Z</time>
      </trkpt>
      <trkpt lat="42.34218098223209381103515625" lon="2.402060665190219879150390625">
        <ele>1094.800048828125</ele>
        <time>2022-07-27T12:09:09.000Z</time>
      </trkpt>
      <trkpt lat="42.342147789895534515380859375" lon="2.40216317586600780487060546875">
        <ele>1096</ele>
        <time>2022-07-27T12:09:12.000Z</time>
      </trkpt>
      <trkpt lat="42.3421271704137325286865234375" lon="2.40223509259521961212158203125">
        <ele>1096.4000244140625</ele>
        <time>2022-07-27T12:09:14.000Z</time>
      </trkpt>
      <trkpt lat="42.34209490008652210235595703125" lon="2.40233265794813632965087890625">
        <ele>1097</ele>
        <time>2022-07-27T12:09:17.000Z</time>
      </trkpt>
      <trkpt lat="42.34206405468285083770751953125" lon="2.4024264514446258544921875">
        <ele>1097.199951171875</ele>
        <time>2022-07-27T12:09:20.000Z</time>
      </trkpt>
      <trkpt lat="42.34201124869287014007568359375" lon="2.4025597237050533294677734375">
        <ele>1097.800048828125</ele>
        <time>2022-07-27T12:09:25.000Z</time>
      </trkpt>
      <trkpt lat="42.34198895283043384552001953125" lon="2.40261194296181201934814453125">
        <ele>1098.199951171875</ele>
        <time>2022-07-27T12:09:27.000Z</time>
      </trkpt>
      <trkpt lat="42.34195810742676258087158203125" lon="2.4026919901371002197265625">
        <ele>1099</ele>
        <time>2022-07-27T12:09:31.000Z</time>
      </trkpt>
      <trkpt lat="42.341924495995044708251953125" lon="2.40275477059185504913330078125">
        <ele>1099.800048828125</ele>
        <time>2022-07-27T12:09:34.000Z</time>
      </trkpt>
      <trkpt lat="42.3418804071843624114990234375" lon="2.40281662903726100921630859375">
        <ele>1100</ele>
        <time>2022-07-27T12:09:37.000Z</time>
      </trkpt>
      <trkpt lat="42.34183656983077526092529296875" lon="2.4028735421597957611083984375">
        <ele>1100.199951171875</ele>
        <time>2022-07-27T12:09:39.000Z</time>
      </trkpt>
      <trkpt lat="42.341722659766674041748046875" lon="2.40298544056713581085205078125">
        <ele>1101</ele>
        <time>2022-07-27T12:09:44.000Z</time>
      </trkpt>
      <trkpt lat="42.34166708774864673614501953125" lon="2.403055764734745025634765625">
        <ele>1101.5999755859375</ele>
        <time>2022-07-27T12:09:47.000Z</time>
      </trkpt>
      <trkpt lat="42.34155946411192417144775390625" lon="2.40314804948866367340087890625">
        <ele>1102</ele>
        <time>2022-07-27T12:09:52.000Z</time>
      </trkpt>
      <trkpt lat="42.34151286073029041290283203125" lon="2.40318409167230129241943359375">
        <ele>1102</ele>
        <time>2022-07-27T12:09:54.000Z</time>
      </trkpt>
      <trkpt lat="42.3414448834955692291259765625" lon="2.40323622711002826690673828125">
        <ele>1102.199951171875</ele>
        <time>2022-07-27T12:09:57.000Z</time>
      </trkpt>
      <trkpt lat="42.34132208861410617828369140625" lon="2.40336279384791851043701171875">
        <ele>1103.4000244140625</ele>
        <time>2022-07-27T12:10:02.000Z</time>
      </trkpt>
      <trkpt lat="42.3412628285586833953857421875" lon="2.40345130674540996551513671875">
        <ele>1104.199951171875</ele>
        <time>2022-07-27T12:10:05.000Z</time>
      </trkpt>
      <trkpt lat="42.3412447236478328704833984375" lon="2.40348215214908123016357421875">
        <ele>1104.4000244140625</ele>
        <time>2022-07-27T12:10:06.000Z</time>
      </trkpt>
      <trkpt lat="42.341128550469875335693359375" lon="2.403652556240558624267578125">
        <ele>1105.5999755859375</ele>
        <time>2022-07-27T12:10:12.000Z</time>
      </trkpt>
      <trkpt lat="42.3410712182521820068359375" lon="2.4038180150091648101806640625">
        <ele>1106.4000244140625</ele>
        <time>2022-07-27T12:10:17.000Z</time>
      </trkpt>
      <trkpt lat="42.3410361818969249725341796875" lon="2.403932847082614898681640625">
        <ele>1106.800048828125</ele>
        <time>2022-07-27T12:10:21.000Z</time>
      </trkpt>
      <trkpt lat="42.3410361818969249725341796875" lon="2.40400618873536586761474609375">
        <ele>1107.5999755859375</ele>
        <time>2022-07-27T12:10:23.000Z</time>
      </trkpt>
      <trkpt lat="42.34104984439909458160400390625" lon="2.40409453399479389190673828125">
        <ele>1108</ele>
        <time>2022-07-27T12:10:25.000Z</time>
      </trkpt>
      <trkpt lat="42.3410931788384914398193359375" lon="2.4042270518839359283447265625">
        <ele>1108.199951171875</ele>
        <time>2022-07-27T12:10:28.000Z</time>
      </trkpt>
      <trkpt lat="42.3412132076919078826904296875" lon="2.40441572852432727813720703125">
        <ele>1109</ele>
        <time>2022-07-27T12:10:34.000Z</time>
      </trkpt>
      <trkpt lat="42.3413407802581787109375" lon="2.40452787838876247406005859375">
        <ele>1110.199951171875</ele>
        <time>2022-07-27T12:10:39.000Z</time>
      </trkpt>
      <trkpt lat="42.3413895629346370697021484375" lon="2.40456484258174896240234375">
        <ele>1110.5999755859375</ele>
        <time>2022-07-27T12:10:41.000Z</time>
      </trkpt>
      <trkpt lat="42.341525852680206298828125" lon="2.4046867154538631439208984375">
        <ele>1111.199951171875</ele>
        <time>2022-07-27T12:10:47.000Z</time>
      </trkpt>
      <trkpt lat="42.3415458016097545623779296875" lon="2.404708005487918853759765625">
        <ele>1111.4000244140625</ele>
        <time>2022-07-27T12:10:48.000Z</time>
      </trkpt>
      <trkpt lat="42.3416510783135890960693359375" lon="2.40483063273131847381591796875">
        <ele>1112.4000244140625</ele>
        <time>2022-07-27T12:10:53.000Z</time>
      </trkpt>
      <trkpt lat="42.34169977717101573944091796875" lon="2.404913194477558135986328125">
        <ele>1113</ele>
        <time>2022-07-27T12:10:56.000Z</time>
      </trkpt>
      <trkpt lat="42.34173682518303394317626953125" lon="2.4049894697964191436767578125">
        <ele>1113.5999755859375</ele>
        <time>2022-07-27T12:10:59.000Z</time>
      </trkpt>
      <trkpt lat="42.34178091399371623992919921875" lon="2.4050954170525074005126953125">
        <ele>1114</ele>
        <time>2022-07-27T12:11:03.000Z</time>
      </trkpt>
      <trkpt lat="42.34182282350957393646240234375" lon="2.4052027054131031036376953125">
        <ele>1114.5999755859375</ele>
        <time>2022-07-27T12:11:07.000Z</time>
      </trkpt>
      <trkpt lat="42.34189272858202457427978515625" lon="2.405347041785717010498046875">
        <ele>1115.199951171875</ele>
        <time>2022-07-27T12:11:12.000Z</time>
      </trkpt>
      <trkpt lat="42.34193916432559490203857421875" lon="2.40544594824314117431640625">
        <ele>1115.800048828125</ele>
        <time>2022-07-27T12:11:15.000Z</time>
      </trkpt>
      <trkpt lat="42.34199549071490764617919921875" lon="2.40554896183311939239501953125">
        <ele>1116.800048828125</ele>
        <time>2022-07-27T12:11:19.000Z</time>
      </trkpt>
      <trkpt lat="42.342061288654804229736328125" lon="2.40566278807818889617919921875">
        <ele>1118</ele>
        <time>2022-07-27T12:11:23.000Z</time>
      </trkpt>
      <trkpt lat="42.3421120829880237579345703125" lon="2.40572900511324405670166015625">
        <ele>1118.5999755859375</ele>
        <time>2022-07-27T12:11:26.000Z</time>
      </trkpt>
      <trkpt lat="42.34218056313693523406982421875" lon="2.4058149196207523345947265625">
        <ele>1119</ele>
        <time>2022-07-27T12:11:30.000Z</time>
      </trkpt>
      <trkpt lat="42.34221627004444599151611328125" lon="2.40584886632859706878662109375">
        <ele>1119.4000244140625</ele>
        <time>2022-07-27T12:11:32.000Z</time>
      </trkpt>
      <trkpt lat="42.34236245043575763702392578125" lon="2.4059309251606464385986328125">
        <ele>1120.199951171875</ele>
        <time>2022-07-27T12:11:38.000Z</time>
      </trkpt>
      <trkpt lat="42.34242145903408527374267578125" lon="2.4059621058404445648193359375">
        <ele>1120.4000244140625</ele>
        <time>2022-07-27T12:11:40.000Z</time>
      </trkpt>
      <trkpt lat="42.3425194434821605682373046875" lon="2.40599487908184528350830078125">
        <ele>1121.199951171875</ele>
        <time>2022-07-27T12:11:43.000Z</time>
      </trkpt>
      <trkpt lat="42.34266084618866443634033203125" lon="2.4060288257896900177001953125">
        <ele>1121.800048828125</ele>
        <time>2022-07-27T12:11:47.000Z</time>
      </trkpt>
      <trkpt lat="42.3427896760404109954833984375" lon="2.406072579324245452880859375">
        <ele>1122.4000244140625</ele>
        <time>2022-07-27T12:11:51.000Z</time>
      </trkpt>
      <trkpt lat="42.34290878288447856903076171875" lon="2.40613921545445919036865234375">
        <ele>1123</ele>
        <time>2022-07-27T12:11:55.000Z</time>
      </trkpt>
      <trkpt lat="42.3430185019969940185546875" lon="2.406286485493183135986328125">
        <ele>1123.4000244140625</ele>
        <time>2022-07-27T12:12:00.000Z</time>
      </trkpt>
      <trkpt lat="42.34303568489849567413330078125" lon="2.4063161574304103851318359375">
        <ele>1123.4000244140625</ele>
        <time>2022-07-27T12:12:01.000Z</time>
      </trkpt>
      <trkpt lat="42.34309921972453594207763671875" lon="2.4065404571592807769775390625">
        <ele>1124.199951171875</ele>
        <time>2022-07-27T12:12:08.000Z</time>
      </trkpt>
      <trkpt lat="42.34311128966510295867919921875" lon="2.40661832503974437713623046875">
        <ele>1124.4000244140625</ele>
        <time>2022-07-27T12:12:10.000Z</time>
      </trkpt>
      <trkpt lat="42.343149594962596893310546875" lon="2.40680448710918426513671875">
        <ele>1125.800048828125</ele>
        <time>2022-07-27T12:12:14.000Z</time>
      </trkpt>
      <trkpt lat="42.343285717070102691650390625" lon="2.407036833465099334716796875">
        <ele>1126.800048828125</ele>
        <time>2022-07-27T12:12:21.000Z</time>
      </trkpt>
      <trkpt lat="42.34343432821333408355712890625" lon="2.40714110434055328369140625">
        <ele>1128</ele>
        <time>2022-07-27T12:12:27.000Z</time>
      </trkpt>
      <trkpt lat="42.34346039593219757080078125" lon="2.4071513302624225616455078125">
        <ele>1128.199951171875</ele>
        <time>2022-07-27T12:12:28.000Z</time>
      </trkpt>
      <trkpt lat="42.34359450638294219970703125" lon="2.4071739614009857177734375">
        <ele>1129</ele>
        <time>2022-07-27T12:12:33.000Z</time>
      </trkpt>
      <trkpt lat="42.34365141950547695159912109375" lon="2.4071593768894672393798828125">
        <ele>1129.4000244140625</ele>
        <time>2022-07-27T12:12:35.000Z</time>
      </trkpt>
      <trkpt lat="42.34373473562300205230712890625" lon="2.4071201495826244354248046875">
        <ele>1130</ele>
        <time>2022-07-27T12:12:38.000Z</time>
      </trkpt>
      <trkpt lat="42.34386649914085865020751953125" lon="2.40704949013888835906982421875">
        <ele>1130.5999755859375</ele>
        <time>2022-07-27T12:12:43.000Z</time>
      </trkpt>
      <trkpt lat="42.34397177584469318389892578125" lon="2.4069833569228649139404296875">
        <ele>1131</ele>
        <time>2022-07-27T12:12:47.000Z</time>
      </trkpt>
      <trkpt lat="42.34403061680495738983154296875" lon="2.40696181543171405792236328125">
        <ele>1131.4000244140625</ele>
        <time>2022-07-27T12:12:49.000Z</time>
      </trkpt>
      <trkpt lat="42.34420395456254482269287109375" lon="2.40689098834991455078125">
        <ele>1132</ele>
        <time>2022-07-27T12:12:55.000Z</time>
      </trkpt>
      <trkpt lat="42.3442601971328258514404296875" lon="2.4068723805248737335205078125">
        <ele>1132.199951171875</ele>
        <time>2022-07-27T12:12:57.000Z</time>
      </trkpt>
      <trkpt lat="42.34440931119024753570556640625" lon="2.40682602860033512115478515625">
        <ele>1133</ele>
        <time>2022-07-27T12:13:03.000Z</time>
      </trkpt>
      <trkpt lat="42.34443269670009613037109375" lon="2.4068197421729564666748046875">
        <ele>1133.199951171875</ele>
        <time>2022-07-27T12:13:04.000Z</time>
      </trkpt>
      <trkpt lat="42.34456722624599933624267578125" lon="2.4068096838891506195068359375">
        <ele>1134</ele>
        <time>2022-07-27T12:13:10.000Z</time>
      </trkpt>
      <trkpt lat="42.344591282308101654052734375" lon="2.406809516251087188720703125">
        <ele>1134.199951171875</ele>
        <time>2022-07-27T12:13:11.000Z</time>
      </trkpt>
      <trkpt lat="42.34475246630609035491943359375" lon="2.40679585374891757965087890625">
        <ele>1135.4000244140625</ele>
        <time>2022-07-27T12:13:17.000Z</time>
      </trkpt>
      <trkpt lat="42.34481130726635456085205078125" lon="2.40679551847279071807861328125">
        <ele>1135.5999755859375</ele>
        <time>2022-07-27T12:13:19.000Z</time>
      </trkpt>
      <trkpt lat="42.3450688831508159637451171875" lon="2.406786717474460601806640625">
        <ele>1136.4000244140625</ele>
        <time>2022-07-27T12:13:28.000Z</time>
      </trkpt>
      <trkpt lat="42.34515211544930934906005859375" lon="2.4067791737616062164306640625">
        <ele>1137</ele>
        <time>2022-07-27T12:13:31.000Z</time>
      </trkpt>
      <trkpt lat="42.34523358754813671112060546875" lon="2.4067717976868152618408203125">
        <ele>1137.5999755859375</ele>
        <time>2022-07-27T12:13:34.000Z</time>
      </trkpt>
      <trkpt lat="42.34538345597684383392333984375" lon="2.4067582190036773681640625">
        <ele>1138.5999755859375</ele>
        <time>2022-07-27T12:13:40.000Z</time>
      </trkpt>
      <trkpt lat="42.3454065062105655670166015625" lon="2.406758554279804229736328125">
        <ele>1138.800048828125</ele>
        <time>2022-07-27T12:13:41.000Z</time>
      </trkpt>
      <trkpt lat="42.34551471658051013946533203125" lon="2.40673332475125789642333984375">
        <ele>1139.4000244140625</ele>
        <time>2022-07-27T12:13:46.000Z</time>
      </trkpt>
      <trkpt lat="42.345559895038604736328125" lon="2.4067228473722934722900390625">
        <ele>1139.800048828125</ele>
        <time>2022-07-27T12:13:48.000Z</time>
      </trkpt>
      <trkpt lat="42.345640696585178375244140625" lon="2.40671689622104167938232421875">
        <ele>1140.199951171875</ele>
        <time>2022-07-27T12:13:52.000Z</time>
      </trkpt>
      <trkpt lat="42.34573868103325366973876953125" lon="2.4066759087145328521728515625">
        <ele>1140.800048828125</ele>
        <time>2022-07-27T12:13:57.000Z</time>
      </trkpt>
      <trkpt lat="42.34589844010770320892333984375" lon="2.40659351460635662078857421875">
        <ele>1141.800048828125</ele>
        <time>2022-07-27T12:14:04.000Z</time>
      </trkpt>
      <trkpt lat="42.34592257998883724212646484375" lon="2.406578175723552703857421875">
        <ele>1142</ele>
        <time>2022-07-27T12:14:05.000Z</time>
      </trkpt>
      <trkpt lat="42.34603791497647762298583984375" lon="2.4065059237182140350341796875">
        <ele>1142.800048828125</ele>
        <time>2022-07-27T12:14:10.000Z</time>
      </trkpt>
      <trkpt lat="42.3460616357624530792236328125" lon="2.4065052531659603118896484375">
        <ele>1143</ele>
        <time>2022-07-27T12:14:11.000Z</time>
      </trkpt>
      <trkpt lat="42.346086613833904266357421875" lon="2.4065045826137065887451171875">
        <ele>1143</ele>
        <time>2022-07-27T12:14:12.000Z</time>
      </trkpt>
      <trkpt lat="42.34617185778915882110595703125" lon="2.406452782452106475830078125">
        <ele>1143.4000244140625</ele>
        <time>2022-07-27T12:14:16.000Z</time>
      </trkpt>
      <trkpt lat="42.346305884420871734619140625" lon="2.40638312883675098419189453125">
        <ele>1143.800048828125</ele>
        <time>2022-07-27T12:14:22.000Z</time>
      </trkpt>
      <trkpt lat="42.34641711227595806121826171875" lon="2.406353540718555450439453125">
        <ele>1144.4000244140625</ele>
        <time>2022-07-27T12:14:27.000Z</time>
      </trkpt>
      <trkpt lat="42.34645784832537174224853515625" lon="2.406321354210376739501953125">
        <ele>1145</ele>
        <time>2022-07-27T12:14:29.000Z</time>
      </trkpt>
      <trkpt lat="42.34652691520750522613525390625" lon="2.4062980525195598602294921875">
        <ele>1145.5999755859375</ele>
        <time>2022-07-27T12:14:32.000Z</time>
      </trkpt>
      <trkpt lat="42.34655021689832210540771484375" lon="2.40628723986446857452392578125">
        <ele>1145.800048828125</ele>
        <time>2022-07-27T12:14:33.000Z</time>
      </trkpt>
      <trkpt lat="42.3466202057898044586181640625" lon="2.4062517844140529632568359375">
        <ele>1146.199951171875</ele>
        <time>2022-07-27T12:14:36.000Z</time>
      </trkpt>
      <trkpt lat="42.34664342366158962249755859375" lon="2.40624164231121540069580078125">
        <ele>1146.4000244140625</ele>
        <time>2022-07-27T12:14:37.000Z</time>
      </trkpt>
      <trkpt lat="42.34666957519948482513427734375" lon="2.4062397144734859466552734375">
        <ele>1146.4000244140625</ele>
        <time>2022-07-27T12:14:38.000Z</time>
      </trkpt>
      <trkpt lat="42.34677569009363651275634765625" lon="2.40621842443943023681640625">
        <ele>1147.4000244140625</ele>
        <time>2022-07-27T12:14:42.000Z</time>
      </trkpt>
      <trkpt lat="42.34680267982184886932373046875" lon="2.406214736402034759521484375">
        <ele>1147.5999755859375</ele>
        <time>2022-07-27T12:14:43.000Z</time>
      </trkpt>
      <trkpt lat="42.34682933427393436431884765625" lon="2.40621280856430530548095703125">
        <ele>1147.5999755859375</ele>
        <time>2022-07-27T12:14:44.000Z</time>
      </trkpt>
      <trkpt lat="42.34701725654304027557373046875" lon="2.406206019222736358642578125">
        <ele>1148.5999755859375</ele>
        <time>2022-07-27T12:14:51.000Z</time>
      </trkpt>
      <trkpt lat="42.34720082022249698638916015625" lon="2.40620769560337066650390625">
        <ele>1149.4000244140625</ele>
        <time>2022-07-27T12:14:58.000Z</time>
      </trkpt>
      <trkpt lat="42.347319424152374267578125" lon="2.406208030879497528076171875">
        <ele>1150</ele>
        <time>2022-07-27T12:15:03.000Z</time>
      </trkpt>
      <trkpt lat="42.3473692126572132110595703125" lon="2.40621398203074932098388671875">
        <ele>1150.5999755859375</ele>
        <time>2022-07-27T12:15:05.000Z</time>
      </trkpt>
      <trkpt lat="42.34760097227990627288818359375" lon="2.40622085519134998321533203125">
        <ele>1151.5999755859375</ele>
        <time>2022-07-27T12:15:14.000Z</time>
      </trkpt>
      <trkpt lat="42.347809262573719024658203125" lon="2.4062216095626354217529296875">
        <ele>1152.800048828125</ele>
        <time>2022-07-27T12:15:22.000Z</time>
      </trkpt>
      <trkpt lat="42.34783499501645565032958984375" lon="2.40622236393392086029052734375">
        <ele>1153</ele>
        <time>2022-07-27T12:15:23.000Z</time>
      </trkpt>
      <trkpt lat="42.34798184596002101898193359375" lon="2.4062276445329189300537109375">
        <ele>1153.800048828125</ele>
        <time>2022-07-27T12:15:29.000Z</time>
      </trkpt>
      <trkpt lat="42.34800816513597965240478515625" lon="2.406226806342601776123046875">
        <ele>1154</ele>
        <time>2022-07-27T12:15:30.000Z</time>
      </trkpt>
      <trkpt lat="42.34816289506852626800537109375" lon="2.40624750964343547821044921875">
        <ele>1154.800048828125</ele>
        <time>2022-07-27T12:15:35.000Z</time>
      </trkpt>
      <trkpt lat="42.348341681063175201416015625" lon="2.4062941968441009521484375">
        <ele>1155.4000244140625</ele>
        <time>2022-07-27T12:15:42.000Z</time>
      </trkpt>
      <trkpt lat="42.34838551841676235198974609375" lon="2.40631003864109516143798828125">
        <ele>1155.800048828125</ele>
        <time>2022-07-27T12:15:44.000Z</time>
      </trkpt>
      <trkpt lat="42.34851627610623836517333984375" lon="2.4063677899539470672607421875">
        <ele>1156.5999755859375</ele>
        <time>2022-07-27T12:15:50.000Z</time>
      </trkpt>
      <trkpt lat="42.34856271184980869293212890625" lon="2.40639947354793548583984375">
        <ele>1157</ele>
        <time>2022-07-27T12:15:52.000Z</time>
      </trkpt>
      <trkpt lat="42.34865985810756683349609375" lon="2.40645085461437702178955078125">
        <ele>1157.4000244140625</ele>
        <time>2022-07-27T12:15:56.000Z</time>
      </trkpt>
      <trkpt lat="42.34875733964145183563232421875" lon="2.40650483407080173492431640625">
        <ele>1158</ele>
        <time>2022-07-27T12:16:00.000Z</time>
      </trkpt>
      <trkpt lat="42.34882774762809276580810546875" lon="2.4065485037863254547119140625">
        <ele>1158.800048828125</ele>
        <time>2022-07-27T12:16:03.000Z</time>
      </trkpt>
      <trkpt lat="42.3488511331379413604736328125" lon="2.4065619148313999176025390625">
        <ele>1159.199951171875</ele>
        <time>2022-07-27T12:16:04.000Z</time>
      </trkpt>
      <trkpt lat="42.3490073718130588531494140625" lon="2.4066594801843166351318359375">
        <ele>1160.199951171875</ele>
        <time>2022-07-27T12:16:11.000Z</time>
      </trkpt>
      <trkpt lat="42.3490274883806705474853515625" lon="2.40667280741035938262939453125">
        <ele>1160.4000244140625</ele>
        <time>2022-07-27T12:16:12.000Z</time>
      </trkpt>
      <trkpt lat="42.34910569153726100921630859375" lon="2.40677003748714923858642578125">
        <ele>1161.199951171875</ele>
        <time>2022-07-27T12:16:53.000Z</time>
      </trkpt>
      <trkpt lat="42.34916453249752521514892578125" lon="2.40681177936494350433349609375">
        <ele>1161.199951171875</ele>
        <time>2022-07-27T12:16:56.000Z</time>
      </trkpt>
      <trkpt lat="42.34928087331354618072509765625" lon="2.406746484339237213134765625">
        <ele>1161.199951171875</ele>
        <time>2022-07-27T12:17:00.000Z</time>
      </trkpt>
      <trkpt lat="42.3492908477783203125" lon="2.4066142179071903228759765625">
        <ele>1161</ele>
        <time>2022-07-27T12:17:03.000Z</time>
      </trkpt>
      <trkpt lat="42.349265031516551971435546875" lon="2.40652687847614288330078125">
        <ele>1161</ele>
        <time>2022-07-27T12:17:05.000Z</time>
      </trkpt>
      <trkpt lat="42.34916822053492069244384765625" lon="2.40629109553992748260498046875">
        <ele>1161</ele>
        <time>2022-07-27T12:17:11.000Z</time>
      </trkpt>
      <trkpt lat="42.34900661744177341461181640625" lon="2.4060828052461147308349609375">
        <ele>1161.800048828125</ele>
        <time>2022-07-27T12:17:18.000Z</time>
      </trkpt>
      <trkpt lat="42.348884157836437225341796875" lon="2.406028322875499725341796875">
        <ele>1162.4000244140625</ele>
        <time>2022-07-27T12:17:22.000Z</time>
      </trkpt>
      <trkpt lat="42.3487274162471294403076171875" lon="2.40597006864845752716064453125">
        <ele>1163.199951171875</ele>
        <time>2022-07-27T12:17:27.000Z</time>
      </trkpt>
      <trkpt lat="42.3484457843005657196044921875" lon="2.40586428903043270111083984375">
        <ele>1164.4000244140625</ele>
        <time>2022-07-27T12:17:36.000Z</time>
      </trkpt>
      <trkpt lat="42.34841820783913135528564453125" lon="2.40585389547049999237060546875">
        <ele>1164.5999755859375</ele>
        <time>2022-07-27T12:17:37.000Z</time>
      </trkpt>
      <trkpt lat="42.34833505935966968536376953125" lon="2.405788265168666839599609375">
        <ele>1165.4000244140625</ele>
        <time>2022-07-27T12:17:42.000Z</time>
      </trkpt>
      <trkpt lat="42.34832868911325931549072265625" lon="2.40577720105648040771484375">
        <ele>1166.5999755859375</ele>
        <time>2022-07-27T12:17:47.000Z</time>
      </trkpt>
      <trkpt lat="42.34832868911325931549072265625" lon="2.40577694959938526153564453125">
        <ele>1166.5999755859375</ele>
        <time>2022-07-27T12:17:48.000Z</time>
      </trkpt>
      <trkpt lat="42.3483287729322910308837890625" lon="2.40577661432325839996337890625">
        <ele>1166.800048828125</ele>
        <time>2022-07-27T12:17:50.000Z</time>
      </trkpt>
      <trkpt lat="42.34839431941509246826171875" lon="2.405889518558979034423828125">
        <ele>1166.800048828125</ele>
        <time>2022-07-27T12:18:40.000Z</time>
      </trkpt>
      <trkpt lat="42.348405383527278900146484375" lon="2.4058316834270954132080078125">
        <ele>1166.800048828125</ele>
        <time>2022-07-27T12:18:42.000Z</time>
      </trkpt>
      <trkpt lat="42.34841066412627696990966796875" lon="2.4058060348033905029296875">
        <ele>1166.800048828125</ele>
        <time>2022-07-27T12:18:43.000Z</time>
      </trkpt>
      <trkpt lat="42.3484447784721851348876953125" lon="2.405638732016086578369140625">
        <ele>1167</ele>
        <time>2022-07-27T12:18:49.000Z</time>
      </trkpt>
      <trkpt lat="42.34846112318336963653564453125" lon="2.40554326213896274566650390625">
        <ele>1167.5999755859375</ele>
        <time>2022-07-27T12:18:52.000Z</time>
      </trkpt>
      <trkpt lat="42.3484767973423004150390625" lon="2.4054819904267787933349609375">
        <ele>1168.800048828125</ele>
        <time>2022-07-27T12:18:54.000Z</time>
      </trkpt>
      <trkpt lat="42.348495237529277801513671875" lon="2.40542507730424404144287109375">
        <ele>1169.800048828125</ele>
        <time>2022-07-27T12:18:56.000Z</time>
      </trkpt>
      <trkpt lat="42.3485316149890422821044921875" lon="2.4053341336548328399658203125">
        <ele>1171.4000244140625</ele>
        <time>2022-07-27T12:18:59.000Z</time>
      </trkpt>
      <trkpt lat="42.34853957779705524444580078125" lon="2.40527152083814144134521484375">
        <ele>1172.199951171875</ele>
        <time>2022-07-27T12:19:01.000Z</time>
      </trkpt>
      <trkpt lat="42.34853890724480152130126953125" lon="2.4052369035780429840087890625">
        <ele>1172.800048828125</ele>
        <time>2022-07-27T12:19:02.000Z</time>
      </trkpt>
      <trkpt lat="42.34852499328553676605224609375" lon="2.40514361299574375152587890625">
        <ele>1173.800048828125</ele>
        <time>2022-07-27T12:19:05.000Z</time>
      </trkpt>
      <trkpt lat="42.34851233661174774169921875" lon="2.4050789885222911834716796875">
        <ele>1174.4000244140625</ele>
        <time>2022-07-27T12:19:07.000Z</time>
      </trkpt>
      <trkpt lat="42.34850722365081310272216796875" lon="2.40504571236670017242431640625">
        <ele>1174.800048828125</ele>
        <time>2022-07-27T12:19:08.000Z</time>
      </trkpt>
      <trkpt lat="42.3485024459660053253173828125" lon="2.4049569480121135711669921875">
        <ele>1176.199951171875</ele>
        <time>2022-07-27T12:19:11.000Z</time>
      </trkpt>
      <trkpt lat="42.34849045984447002410888671875" lon="2.40491009317338466644287109375">
        <ele>1177</ele>
        <time>2022-07-27T12:19:13.000Z</time>
      </trkpt>
      <trkpt lat="42.34848157502710819244384765625" lon="2.40489332936704158782958984375">
        <ele>1177.5999755859375</ele>
        <time>2022-07-27T12:19:14.000Z</time>
      </trkpt>
      <trkpt lat="42.3484716005623340606689453125" lon="2.40487874485552310943603515625">
        <ele>1178.5999755859375</ele>
        <time>2022-07-27T12:19:15.000Z</time>
      </trkpt>
      <trkpt lat="42.3484432697296142578125" lon="2.40482141263782978057861328125">
        <ele>1179.800048828125</ele>
        <time>2022-07-27T12:19:18.000Z</time>
      </trkpt>
      <trkpt lat="42.34843312762677669525146484375" lon="2.4048007093369960784912109375">
        <ele>1180.199951171875</ele>
        <time>2022-07-27T12:19:19.000Z</time>
      </trkpt>
      <trkpt lat="42.34841284342110157012939453125" lon="2.40475737489759922027587890625">
        <ele>1180.800048828125</ele>
        <time>2022-07-27T12:19:21.000Z</time>
      </trkpt>
      <trkpt lat="42.34837026335299015045166015625" lon="2.4046585522592067718505859375">
        <ele>1181.4000244140625</ele>
        <time>2022-07-27T12:19:26.000Z</time>
      </trkpt>
      <trkpt lat="42.34833505935966968536376953125" lon="2.4045774154365062713623046875">
        <ele>1182</ele>
        <time>2022-07-27T12:19:30.000Z</time>
      </trkpt>
      <trkpt lat="42.34830622561275959014892578125" lon="2.40455302409827709197998046875">
        <ele>1182.199951171875</ele>
        <time>2022-07-27T12:19:32.000Z</time>
      </trkpt>
      <trkpt lat="42.34824771992862224578857421875" lon="2.40454749204218387603759765625">
        <ele>1182.800048828125</ele>
        <time>2022-07-27T12:19:35.000Z</time>
      </trkpt>
      <trkpt lat="42.3482231609523296356201171875" lon="2.4045381881296634674072265625">
        <ele>1183.199951171875</ele>
        <time>2022-07-27T12:19:37.000Z</time>
      </trkpt>
      <trkpt lat="42.34821000136435031890869140625" lon="2.40452419035136699676513671875">
        <ele>1183.4000244140625</ele>
        <time>2022-07-27T12:19:38.000Z</time>
      </trkpt>
      <trkpt lat="42.348159961402416229248046875" lon="2.4045013077557086944580078125">
        <ele>1183.800048828125</ele>
        <time>2022-07-27T12:19:43.000Z</time>
      </trkpt>
      <trkpt lat="42.34626866877079010009765625" lon="2.40480632521212100982666015625">
        <ele>1178.199951171875</ele>
        <time>2022-07-27T14:18:28.000Z</time>
      </trkpt>
      <trkpt lat="42.34634486027061939239501953125" lon="2.40490875206887722015380859375">
        <ele>1178.199951171875</ele>
        <time>2022-07-27T14:18:31.000Z</time>
      </trkpt>
      <trkpt lat="42.3463858477771282196044921875" lon="2.404940016567707061767578125">
        <ele>1178.199951171875</ele>
        <time>2022-07-27T14:18:32.000Z</time>
      </trkpt>
      <trkpt lat="42.34657720662653446197509765625" lon="2.4049911461770534515380859375">
        <ele>1177.800048828125</ele>
        <time>2022-07-27T14:18:36.000Z</time>
      </trkpt>
      <trkpt lat="42.34663621522486209869384765625" lon="2.40499458275735378265380859375">
        <ele>1177.5999755859375</ele>
        <time>2022-07-27T14:18:37.000Z</time>
      </trkpt>
      <trkpt lat="42.34669958241283893585205078125" lon="2.404996342957019805908203125">
        <ele>1177.199951171875</ele>
        <time>2022-07-27T14:18:38.000Z</time>
      </trkpt>
      <trkpt lat="42.3468377999961376190185546875" lon="2.4049985222518444061279296875">
        <ele>1176.199951171875</ele>
        <time>2022-07-27T14:18:40.000Z</time>
      </trkpt>
      <trkpt lat="42.34698674641549587249755859375" lon="2.40500598214566707611083984375">
        <ele>1175.199951171875</ele>
        <time>2022-07-27T14:18:42.000Z</time>
      </trkpt>
      <trkpt lat="42.34706184826791286468505859375" lon="2.40501972846686840057373046875">
        <ele>1174.800048828125</ele>
        <time>2022-07-27T14:18:43.000Z</time>
      </trkpt>
      <trkpt lat="42.34727919101715087890625" lon="2.40507446229457855224609375">
        <ele>1174</ele>
        <time>2022-07-27T14:18:46.000Z</time>
      </trkpt>
      <trkpt lat="42.34742394648492336273193359375" lon="2.405112683773040771484375">
        <ele>1173.800048828125</ele>
        <time>2022-07-27T14:18:48.000Z</time>
      </trkpt>
      <trkpt lat="42.34757415018975734710693359375" lon="2.40516071207821369171142578125">
        <ele>1173</ele>
        <time>2022-07-27T14:18:50.000Z</time>
      </trkpt>
      <trkpt lat="42.34772913157939910888671875" lon="2.4052399210631847381591796875">
        <ele>1171.800048828125</ele>
        <time>2022-07-27T14:18:52.000Z</time>
      </trkpt>
      <trkpt lat="42.34780414961278438568115234375" lon="2.40529331378638744354248046875">
        <ele>1171.4000244140625</ele>
        <time>2022-07-27T14:18:53.000Z</time>
      </trkpt>
      <trkpt lat="42.34794798307120800018310546875" lon="2.405424825847148895263671875">
        <ele>1170.4000244140625</ele>
        <time>2022-07-27T14:18:55.000Z</time>
      </trkpt>
      <trkpt lat="42.3480196483433246612548828125" lon="2.40549749694764614105224609375">
        <ele>1169.5999755859375</ele>
        <time>2022-07-27T14:18:56.000Z</time>
      </trkpt>
      <trkpt lat="42.34809114597737789154052734375" lon="2.4055721797049045562744140625">
        <ele>1169</ele>
        <time>2022-07-27T14:18:57.000Z</time>
      </trkpt>
      <trkpt lat="42.348299436271190643310546875" lon="2.40578390657901763916015625">
        <ele>1167.5999755859375</ele>
        <time>2022-07-27T14:19:00.000Z</time>
      </trkpt>
      <trkpt lat="42.34843748621642589569091796875" lon="2.40590016357600688934326171875">
        <ele>1166.4000244140625</ele>
        <time>2022-07-27T14:19:02.000Z</time>
      </trkpt>
      <trkpt lat="42.34858014620840549468994140625" lon="2.405990771949291229248046875">
        <ele>1165</ele>
        <time>2022-07-27T14:19:04.000Z</time>
      </trkpt>
      <trkpt lat="42.34865843318402767181396484375" lon="2.4060254730284214019775390625">
        <ele>1164.199951171875</ele>
        <time>2022-07-27T14:19:05.000Z</time>
      </trkpt>
      <trkpt lat="42.34874141402542591094970703125" lon="2.40605489350855350494384765625">
        <ele>1163.199951171875</ele>
        <time>2022-07-27T14:19:06.000Z</time>
      </trkpt>
      <trkpt lat="42.3488249816000461578369140625" lon="2.40608297288417816162109375">
        <ele>1163</ele>
        <time>2022-07-27T14:19:07.000Z</time>
      </trkpt>
      <trkpt lat="42.3490695655345916748046875" lon="2.40617726929485797882080078125">
        <ele>1162.5999755859375</ele>
        <time>2022-07-27T14:19:10.000Z</time>
      </trkpt>
      <trkpt lat="42.34913720749318599700927734375" lon="2.40623678080737590789794921875">
        <ele>1162.199951171875</ele>
        <time>2022-07-27T14:19:11.000Z</time>
      </trkpt>
      <trkpt lat="42.34918984584510326385498046875" lon="2.40630961954593658447265625">
        <ele>1161.800048828125</ele>
        <time>2022-07-27T14:19:12.000Z</time>
      </trkpt>
      <trkpt lat="42.3492434062063694000244140625" lon="2.40647734142839908599853515625">
        <ele>1161.4000244140625</ele>
        <time>2022-07-27T14:19:14.000Z</time>
      </trkpt>
      <trkpt lat="42.34922203235328197479248046875" lon="2.406663335859775543212890625">
        <ele>1161.199951171875</ele>
        <time>2022-07-27T14:19:16.000Z</time>
      </trkpt>
      <trkpt lat="42.34921867959201335906982421875" lon="2.406756542623043060302734375">
        <ele>1161.199951171875</ele>
        <time>2022-07-27T14:19:17.000Z</time>
      </trkpt>
      <trkpt lat="42.34929394908249378204345703125" lon="2.40688939578831195831298828125">
        <ele>1161</ele>
        <time>2022-07-27T14:19:19.000Z</time>
      </trkpt>
      <trkpt lat="42.34947315417230129241943359375" lon="2.40696768276393413543701171875">
        <ele>1160.800048828125</ele>
        <time>2022-07-27T14:19:22.000Z</time>
      </trkpt>
      <trkpt lat="42.34952948056161403656005859375" lon="2.40700305439531803131103515625">
        <ele>1160.5999755859375</ele>
        <time>2022-07-27T14:19:23.000Z</time>
      </trkpt>
      <trkpt lat="42.3495830409228801727294921875" lon="2.4070430360734462738037109375">
        <ele>1160.199951171875</ele>
        <time>2022-07-27T14:19:24.000Z</time>
      </trkpt>
      <trkpt lat="42.34963609836995601654052734375" lon="2.40708301775157451629638671875">
        <ele>1159.4000244140625</ele>
        <time>2022-07-27T14:19:25.000Z</time>
      </trkpt>
      <trkpt lat="42.3497922532260417938232421875" lon="2.40721545182168483734130859375">
        <ele>1158.4000244140625</ele>
        <time>2022-07-27T14:19:28.000Z</time>
      </trkpt>
      <trkpt lat="42.3498420417308807373046875" lon="2.40726406686007976531982421875">
        <ele>1158.4000244140625</ele>
        <time>2022-07-27T14:19:29.000Z</time>
      </trkpt>
      <trkpt lat="42.35015074722468852996826171875" lon="2.40751267410814762115478515625">
        <ele>1158</ele>
        <time>2022-07-27T14:19:35.000Z</time>
      </trkpt>
      <trkpt lat="42.35025183297693729400634765625" lon="2.40757268853485584259033203125">
        <ele>1158.199951171875</ele>
        <time>2022-07-27T14:19:37.000Z</time>
      </trkpt>
      <trkpt lat="42.35041276551783084869384765625" lon="2.4075965769588947296142578125">
        <ele>1158.4000244140625</ele>
        <time>2022-07-27T14:19:40.000Z</time>
      </trkpt>
      <trkpt lat="42.35066573135554790496826171875" lon="2.4075120873749256134033203125">
        <ele>1158.4000244140625</ele>
        <time>2022-07-27T14:19:44.000Z</time>
      </trkpt>
      <trkpt lat="42.3507893644273281097412109375" lon="2.40742466412484645843505859375">
        <ele>1158.4000244140625</ele>
        <time>2022-07-27T14:19:46.000Z</time>
      </trkpt>
      <trkpt lat="42.35102799721062183380126953125" lon="2.40723825059831142425537109375">
        <ele>1158.4000244140625</ele>
        <time>2022-07-27T14:19:50.000Z</time>
      </trkpt>
      <trkpt lat="42.35125179402530193328857421875" lon="2.40703926421701908111572265625">
        <ele>1158.199951171875</ele>
        <time>2022-07-27T14:19:54.000Z</time>
      </trkpt>
      <trkpt lat="42.3513462580740451812744140625" lon="2.406899034976959228515625">
        <ele>1158.199951171875</ele>
        <time>2022-07-27T14:19:56.000Z</time>
      </trkpt>
      <trkpt lat="42.35170357860624790191650390625" lon="2.40627801977097988128662109375">
        <ele>1157.800048828125</ele>
        <time>2022-07-27T14:20:04.000Z</time>
      </trkpt>
      <trkpt lat="42.35175018198788166046142578125" lon="2.40621096454560756683349609375">
        <ele>1157.800048828125</ele>
        <time>2022-07-27T14:20:05.000Z</time>
      </trkpt>
      <trkpt lat="42.35180349089205265045166015625" lon="2.40615262649953365325927734375">
        <ele>1157.4000244140625</ele>
        <time>2022-07-27T14:20:06.000Z</time>
      </trkpt>
      <trkpt lat="42.35192804597318172454833984375" lon="2.40606914274394512176513671875">
        <ele>1157.199951171875</ele>
        <time>2022-07-27T14:20:08.000Z</time>
      </trkpt>
      <trkpt lat="42.3520610667765140533447265625" lon="2.40601063705980777740478515625">
        <ele>1157</ele>
        <time>2022-07-27T14:20:10.000Z</time>
      </trkpt>
      <trkpt lat="42.35226600430905818939208984375" lon="2.4059322662651538848876953125">
        <ele>1156.800048828125</ele>
        <time>2022-07-27T14:20:13.000Z</time>
      </trkpt>
      <trkpt lat="42.35240288078784942626953125" lon="2.40588046610355377197265625">
        <ele>1156.800048828125</ele>
        <time>2022-07-27T14:20:15.000Z</time>
      </trkpt>
      <trkpt lat="42.35288760624825954437255859375" lon="2.405701763927936553955078125">
        <ele>1156.5999755859375</ele>
        <time>2022-07-27T14:20:22.000Z</time>
      </trkpt>
      <trkpt lat="42.3532197810709476470947265625" lon="2.40560662932693958282470703125">
        <ele>1156.4000244140625</ele>
        <time>2022-07-27T14:20:27.000Z</time>
      </trkpt>
      <trkpt lat="42.353284321725368499755859375" lon="2.4056093953549861907958984375">
        <ele>1156.4000244140625</ele>
        <time>2022-07-27T14:20:28.000Z</time>
      </trkpt>
      <trkpt lat="42.353611886501312255859375" lon="2.40570704452693462371826171875">
        <ele>1156.5999755859375</ele>
        <time>2022-07-27T14:20:33.000Z</time>
      </trkpt>
      <trkpt lat="42.35408839769661426544189453125" lon="2.4058937095105648040771484375">
        <ele>1156.4000244140625</ele>
        <time>2022-07-27T14:20:40.000Z</time>
      </trkpt>
      <trkpt lat="42.35464830882847309112548828125" lon="2.4060972221195697784423828125">
        <ele>1156.4000244140625</ele>
        <time>2022-07-27T14:20:48.000Z</time>
      </trkpt>
      <trkpt lat="42.3547174595296382904052734375" lon="2.406123541295528411865234375">
        <ele>1156.199951171875</ele>
        <time>2022-07-27T14:20:49.000Z</time>
      </trkpt>
      <trkpt lat="42.355112247169017791748046875" lon="2.4062588252127170562744140625">
        <ele>1156.199951171875</ele>
        <time>2022-07-27T14:20:55.000Z</time>
      </trkpt>
      <trkpt lat="42.35552120022475719451904296875" lon="2.40631657652556896209716796875">
        <ele>1156.5999755859375</ele>
        <time>2022-07-27T14:21:01.000Z</time>
      </trkpt>
      <trkpt lat="42.35604724846780300140380859375" lon="2.4062521196901798248291015625">
        <ele>1157</ele>
        <time>2022-07-27T14:21:08.000Z</time>
      </trkpt>
      <trkpt lat="42.35655217431485652923583984375" lon="2.40616503171622753143310546875">
        <ele>1157</ele>
        <time>2022-07-27T14:21:15.000Z</time>
      </trkpt>
      <trkpt lat="42.35679692588746547698974609375" lon="2.40596034564077854156494140625">
        <ele>1157</ele>
        <time>2022-07-27T14:21:19.000Z</time>
      </trkpt>
      <trkpt lat="42.3569339700043201446533203125" lon="2.40559623576700687408447265625">
        <ele>1156.800048828125</ele>
        <time>2022-07-27T14:21:23.000Z</time>
      </trkpt>
      <trkpt lat="42.35696255229413509368896484375" lon="2.40539205260574817657470703125">
        <ele>1156.800048828125</ele>
        <time>2022-07-27T14:21:25.000Z</time>
      </trkpt>
      <trkpt lat="42.35702826641499996185302734375" lon="2.4049670062959194183349609375">
        <ele>1156.800048828125</ele>
        <time>2022-07-27T14:21:29.000Z</time>
      </trkpt>
      <trkpt lat="42.3571445234119892120361328125" lon="2.404220513999462127685546875">
        <ele>1156.199951171875</ele>
        <time>2022-07-27T14:21:36.000Z</time>
      </trkpt>
      <trkpt lat="42.3571617901325225830078125" lon="2.404114566743373870849609375">
        <ele>1156</ele>
        <time>2022-07-27T14:21:37.000Z</time>
      </trkpt>
      <trkpt lat="42.3572846688330173492431640625" lon="2.4035296775400638580322265625">
        <ele>1156</ele>
        <time>2022-07-27T14:21:43.000Z</time>
      </trkpt>
      <trkpt lat="42.35746278427541255950927734375" lon="2.40338006056845188140869140625">
        <ele>1156</ele>
        <time>2022-07-27T14:21:46.000Z</time>
      </trkpt>
      <trkpt lat="42.3575984872877597808837890625" lon="2.4034331180155277252197265625">
        <ele>1155.800048828125</ele>
        <time>2022-07-27T14:21:48.000Z</time>
      </trkpt>
      <trkpt lat="42.35774156637489795684814453125" lon="2.4036627821624279022216796875">
        <ele>1155.800048828125</ele>
        <time>2022-07-27T14:21:51.000Z</time>
      </trkpt>
      <trkpt lat="42.35780350863933563232421875" lon="2.403851710259914398193359375">
        <ele>1155.5999755859375</ele>
        <time>2022-07-27T14:21:53.000Z</time>
      </trkpt>
      <trkpt lat="42.35783359967172145843505859375" lon="2.40395790897309780120849609375">
        <ele>1155.199951171875</ele>
        <time>2022-07-27T14:21:54.000Z</time>
      </trkpt>
      <trkpt lat="42.35789763741195201873779296875" lon="2.40416787564754486083984375">
        <ele>1153.800048828125</ele>
        <time>2022-07-27T14:21:56.000Z</time>
      </trkpt>
      <trkpt lat="42.357929907739162445068359375" lon="2.40426653064787387847900390625">
        <ele>1153.4000244140625</ele>
        <time>2022-07-27T14:21:57.000Z</time>
      </trkpt>
      <trkpt lat="42.3580283112823963165283203125" lon="2.4045442230999469757080078125">
        <ele>1152.5999755859375</ele>
        <time>2022-07-27T14:22:00.000Z</time>
      </trkpt>
      <trkpt lat="42.35815932042896747589111328125" lon="2.4049093388020992279052734375">
        <ele>1152.5999755859375</ele>
        <time>2022-07-27T14:22:04.000Z</time>
      </trkpt>
      <trkpt lat="42.35845939256250858306884765625" lon="2.4056023545563220977783203125">
        <ele>1153.5999755859375</ele>
        <time>2022-07-27T14:22:12.000Z</time>
      </trkpt>
      <trkpt lat="42.3585057444870471954345703125" lon="2.40567133761942386627197265625">
        <ele>1153.800048828125</ele>
        <time>2022-07-27T14:22:13.000Z</time>
      </trkpt>
      <trkpt lat="42.35861663706600666046142578125" lon="2.40577259100973606109619140625">
        <ele>1153.800048828125</ele>
        <time>2022-07-27T14:22:15.000Z</time>
      </trkpt>
      <trkpt lat="42.3588158749043941497802734375" lon="2.4058145843446254730224609375">
        <ele>1154.199951171875</ele>
        <time>2022-07-27T14:22:18.000Z</time>
      </trkpt>
      <trkpt lat="42.35899734310805797576904296875" lon="2.4056933820247650146484375">
        <ele>1155</ele>
        <time>2022-07-27T14:22:21.000Z</time>
      </trkpt>
      <trkpt lat="42.3591531626880168914794921875" lon="2.405465729534626007080078125">
        <ele>1155.4000244140625</ele>
        <time>2022-07-27T14:22:24.000Z</time>
      </trkpt>
      <trkpt lat="42.359254248440265655517578125" lon="2.4053002707660198211669921875">
        <ele>1155.5999755859375</ele>
        <time>2022-07-27T14:22:26.000Z</time>
      </trkpt>
      <trkpt lat="42.35961844213306903839111328125" lon="2.4047358334064483642578125">
        <ele>1155.5999755859375</ele>
        <time>2022-07-27T14:22:33.000Z</time>
      </trkpt>
      <trkpt lat="42.35968247987329959869384765625" lon="2.404668442904949188232421875">
        <ele>1155.5999755859375</ele>
        <time>2022-07-27T14:22:34.000Z</time>
      </trkpt>
      <trkpt lat="42.359897308051586151123046875" lon="2.4045264534652233123779296875">
        <ele>1155.4000244140625</ele>
        <time>2022-07-27T14:22:37.000Z</time>
      </trkpt>
      <trkpt lat="42.3602511920034885406494140625" lon="2.4044583924114704132080078125">
        <ele>1154.4000244140625</ele>
        <time>2022-07-27T14:22:41.000Z</time>
      </trkpt>
      <trkpt lat="42.36035001464188098907470703125" lon="2.4044530279934406280517578125">
        <ele>1154</ele>
        <time>2022-07-27T14:22:42.000Z</time>
      </trkpt>
      <trkpt lat="42.36066819168627262115478515625" lon="2.40444506518542766571044921875">
        <ele>1153</ele>
        <time>2022-07-27T14:22:45.000Z</time>
      </trkpt>
      <trkpt lat="42.36077581532299518585205078125" lon="2.40444791503250598907470703125">
        <ele>1152.4000244140625</ele>
        <time>2022-07-27T14:22:46.000Z</time>
      </trkpt>
      <trkpt lat="42.3608846962451934814453125" lon="2.4044570513069629669189453125">
        <ele>1151.800048828125</ele>
        <time>2022-07-27T14:22:47.000Z</time>
      </trkpt>
      <trkpt lat="42.3609924875199794769287109375" lon="2.40447775460779666900634765625">
        <ele>1151</ele>
        <time>2022-07-27T14:22:48.000Z</time>
      </trkpt>
      <trkpt lat="42.36110136844217777252197265625" lon="2.40450675599277019500732421875">
        <ele>1150.5999755859375</ele>
        <time>2022-07-27T14:22:49.000Z</time>
      </trkpt>
      <trkpt lat="42.36121050082147121429443359375" lon="2.4045355059206485748291015625">
        <ele>1150.199951171875</ele>
        <time>2022-07-27T14:22:50.000Z</time>
      </trkpt>
      <trkpt lat="42.3614259995520114898681640625" lon="2.40457666106522083282470703125">
        <ele>1149.5999755859375</ele>
        <time>2022-07-27T14:22:52.000Z</time>
      </trkpt>
      <trkpt lat="42.3616397380828857421875" lon="2.40454212762415409088134765625">
        <ele>1148.800048828125</ele>
        <time>2022-07-27T14:22:54.000Z</time>
      </trkpt>
      <trkpt lat="42.3618518002331256866455078125" lon="2.404452860355377197265625">
        <ele>1148.199951171875</ele>
        <time>2022-07-27T14:22:56.000Z</time>
      </trkpt>
      <trkpt lat="42.362073250114917755126953125" lon="2.404355295002460479736328125">
        <ele>1147</ele>
        <time>2022-07-27T14:22:58.000Z</time>
      </trkpt>
      <trkpt lat="42.36218280158936977386474609375" lon="2.404306344687938690185546875">
        <ele>1146.4000244140625</ele>
        <time>2022-07-27T14:22:59.000Z</time>
      </trkpt>
      <trkpt lat="42.36229478381574153900146484375" lon="2.4042589031159877777099609375">
        <ele>1145.4000244140625</ele>
        <time>2022-07-27T14:23:00.000Z</time>
      </trkpt>
      <trkpt lat="42.3625189997255802154541015625" lon="2.40417634136974811553955078125">
        <ele>1143.800048828125</ele>
        <time>2022-07-27T14:23:02.000Z</time>
      </trkpt>
      <trkpt lat="42.36274740658700466156005859375" lon="2.40411481820046901702880859375">
        <ele>1142.800048828125</ele>
        <time>2022-07-27T14:23:04.000Z</time>
      </trkpt>
      <trkpt lat="42.36286240629851818084716796875" lon="2.40408933721482753753662109375">
        <ele>1142.4000244140625</ele>
        <time>2022-07-27T14:23:05.000Z</time>
      </trkpt>
      <trkpt lat="42.3630921542644500732421875" lon="2.40404843352735042572021484375">
        <ele>1141.4000244140625</ele>
        <time>2022-07-27T14:23:07.000Z</time>
      </trkpt>
      <trkpt lat="42.36332357861101627349853515625" lon="2.4040062725543975830078125">
        <ele>1140.4000244140625</ele>
        <time>2022-07-27T14:23:09.000Z</time>
      </trkpt>
      <trkpt lat="42.363556511700153350830078125" lon="2.404001243412494659423828125">
        <ele>1140</ele>
        <time>2022-07-27T14:23:11.000Z</time>
      </trkpt>
      <trkpt lat="42.3639013431966304779052734375" lon="2.40411146543920040130615234375">
        <ele>1139.4000244140625</ele>
        <time>2022-07-27T14:23:14.000Z</time>
      </trkpt>
      <trkpt lat="42.36401106230914592742919921875" lon="2.40416963584721088409423828125">
        <ele>1139.4000244140625</ele>
        <time>2022-07-27T14:23:15.000Z</time>
      </trkpt>
      <trkpt lat="42.36455203033983707427978515625" lon="2.40441690199077129364013671875">
        <ele>1139</ele>
        <time>2022-07-27T14:23:20.000Z</time>
      </trkpt>
      <trkpt lat="42.36465898342430591583251953125" lon="2.40444816648960113525390625">
        <ele>1139</ele>
        <time>2022-07-27T14:23:21.000Z</time>
      </trkpt>
      <trkpt lat="42.36476493068039417266845703125" lon="2.40446970798075199127197265625">
        <ele>1139</ele>
        <time>2022-07-27T14:23:22.000Z</time>
      </trkpt>
      <trkpt lat="42.36506869085133075714111328125" lon="2.4044716358184814453125">
        <ele>1139</ele>
        <time>2022-07-27T14:23:25.000Z</time>
      </trkpt>
      <trkpt lat="42.36534898169338703155517578125" lon="2.404453195631504058837890625">
        <ele>1139</ele>
        <time>2022-07-27T14:23:28.000Z</time>
      </trkpt>
      <trkpt lat="42.36543238162994384765625" lon="2.40449150092899799346923828125">
        <ele>1139</ele>
        <time>2022-07-27T14:23:29.000Z</time>
      </trkpt>
      <trkpt lat="42.3655411787331104278564453125" lon="2.40465846844017505645751953125">
        <ele>1139</ele>
        <time>2022-07-27T14:23:31.000Z</time>
      </trkpt>
      <trkpt lat="42.3655680008232593536376953125" lon="2.40499055944383144378662109375">
        <ele>1139.199951171875</ele>
        <time>2022-07-27T14:23:34.000Z</time>
      </trkpt>
      <trkpt lat="42.36560144461691379547119140625" lon="2.40554510615766048431396484375">
        <ele>1140</ele>
        <time>2022-07-27T14:23:40.000Z</time>
      </trkpt>
      <trkpt lat="42.36561552621424198150634765625" lon="2.40586680360138416290283203125">
        <ele>1140.4000244140625</ele>
        <time>2022-07-27T14:23:44.000Z</time>
      </trkpt>
      <trkpt lat="42.365622818470001220703125" lon="2.40601197816431522369384765625">
        <ele>1141.5999755859375</ele>
        <time>2022-07-27T14:23:46.000Z</time>
      </trkpt>
      <trkpt lat="42.36562608741223812103271484375" lon="2.4060824699699878692626953125">
        <ele>1142.4000244140625</ele>
        <time>2022-07-27T14:23:47.000Z</time>
      </trkpt>
      <trkpt lat="42.3656260035932064056396484375" lon="2.40615229122340679168701171875">
        <ele>1143.4000244140625</ele>
        <time>2022-07-27T14:23:48.000Z</time>
      </trkpt>
      <trkpt lat="42.36559725366532802581787109375" lon="2.40628304891288280487060546875">
        <ele>1144.5999755859375</ele>
        <time>2022-07-27T14:23:50.000Z</time>
      </trkpt>
      <trkpt lat="42.36556808464229106903076171875" lon="2.4063397943973541259765625">
        <ele>1145</ele>
        <time>2022-07-27T14:23:51.000Z</time>
      </trkpt>
      <trkpt lat="42.36553153954446315765380859375" lon="2.40638681687414646148681640625">
        <ele>1145.800048828125</ele>
        <time>2022-07-27T14:23:52.000Z</time>
      </trkpt>
      <trkpt lat="42.3654446192085742950439453125" lon="2.4064425565302371978759765625">
        <ele>1147</ele>
        <time>2022-07-27T14:23:54.000Z</time>
      </trkpt>
      <trkpt lat="42.36531025730073451995849609375" lon="2.40642839111387729644775390625">
        <ele>1147.800048828125</ele>
        <time>2022-07-27T14:23:57.000Z</time>
      </trkpt>
      <trkpt lat="42.3652729578316211700439453125" lon="2.406399138271808624267578125">
        <ele>1148.4000244140625</ele>
        <time>2022-07-27T14:23:58.000Z</time>
      </trkpt>
      <trkpt lat="42.36518268473446369171142578125" lon="2.40622940473258495330810546875">
        <ele>1149</ele>
        <time>2022-07-27T14:24:02.000Z</time>
      </trkpt>
      <trkpt lat="42.36511252820491790771484375" lon="2.40595548413693904876708984375">
        <ele>1150</ele>
        <time>2022-07-27T14:24:08.000Z</time>
      </trkpt>
      <trkpt lat="42.36509936861693859100341796875" lon="2.40591173060238361358642578125">
        <ele>1150.199951171875</ele>
        <time>2022-07-27T14:24:09.000Z</time>
      </trkpt>
      <trkpt lat="42.3650194890797138214111328125" lon="2.4057067930698394775390625">
        <ele>1151</ele>
        <time>2022-07-27T14:24:14.000Z</time>
      </trkpt>
      <trkpt lat="42.3649990372359752655029296875" lon="2.40566865541040897369384765625">
        <ele>1151.199951171875</ele>
        <time>2022-07-27T14:24:15.000Z</time>
      </trkpt>
      <trkpt lat="42.3648785054683685302734375" lon="2.4055064655840396881103515625">
        <ele>1152</ele>
        <time>2022-07-27T14:24:20.000Z</time>
      </trkpt>
      <trkpt lat="42.36482528038322925567626953125" lon="2.40545391105115413665771484375">
        <ele>1153.199951171875</ele>
        <time>2022-07-27T14:24:22.000Z</time>
      </trkpt>
      <trkpt lat="42.36459041945636272430419921875" lon="2.40530806593596935272216796875">
        <ele>1154</ele>
        <time>2022-07-27T14:24:29.000Z</time>
      </trkpt>
      <trkpt lat="42.36451783217489719390869140625" lon="2.4052865244448184967041015625">
        <ele>1154</ele>
        <time>2022-07-27T14:24:31.000Z</time>
      </trkpt>
      <trkpt lat="42.3643435724079608917236328125" lon="2.40525123663246631622314453125">
        <ele>1154.199951171875</ele>
        <time>2022-07-27T14:24:36.000Z</time>
      </trkpt>
      <trkpt lat="42.364276014268398284912109375" lon="2.4052446149289608001708984375">
        <ele>1154.4000244140625</ele>
        <time>2022-07-27T14:24:38.000Z</time>
      </trkpt>
      <trkpt lat="42.36399178393185138702392578125" lon="2.405278645455837249755859375">
        <ele>1155.199951171875</ele>
        <time>2022-07-27T14:24:46.000Z</time>
      </trkpt>
      <trkpt lat="42.363850213587284088134765625" lon="2.40532583557069301605224609375">
        <ele>1156.4000244140625</ele>
        <time>2022-07-27T14:24:50.000Z</time>
      </trkpt>
      <trkpt lat="42.36371803097426891326904296875" lon="2.40541451610624790191650390625">
        <ele>1157.199951171875</ele>
        <time>2022-07-27T14:24:54.000Z</time>
      </trkpt>
      <trkpt lat="42.3635335452854633331298828125" lon="2.405576370656490325927734375">
        <ele>1157.5999755859375</ele>
        <time>2022-07-27T14:25:00.000Z</time>
      </trkpt>
      <trkpt lat="42.3634470440447330474853515625" lon="2.40566396154463291168212890625">
        <ele>1158.199951171875</ele>
        <time>2022-07-27T14:25:03.000Z</time>
      </trkpt>
      <trkpt lat="42.3633608780801296234130859375" lon="2.40575381554663181304931640625">
        <ele>1158.5999755859375</ele>
        <time>2022-07-27T14:25:06.000Z</time>
      </trkpt>
      <trkpt lat="42.36318460665643215179443359375" lon="2.40593486465513706207275390625">
        <ele>1159.800048828125</ele>
        <time>2022-07-27T14:25:12.000Z</time>
      </trkpt>
      <trkpt lat="42.3630983568727970123291015625" lon="2.406026311218738555908203125">
        <ele>1160.4000244140625</ele>
        <time>2022-07-27T14:25:15.000Z</time>
      </trkpt>
      <trkpt lat="42.362987883388996124267578125" lon="2.40614759735763072967529296875">
        <ele>1160.800048828125</ele>
        <time>2022-07-27T14:25:19.000Z</time>
      </trkpt>
      <trkpt lat="42.3629085905849933624267578125" lon="2.4062350206077098846435546875">
        <ele>1161.4000244140625</ele>
        <time>2022-07-27T14:25:22.000Z</time>
      </trkpt>
      <trkpt lat="42.36278344877064228057861328125" lon="2.4063708074390888214111328125">
        <ele>1162</ele>
        <time>2022-07-27T14:25:27.000Z</time>
      </trkpt>
      <trkpt lat="42.3627354204654693603515625" lon="2.406423278152942657470703125">
        <ele>1162.4000244140625</ele>
        <time>2022-07-27T14:25:29.000Z</time>
      </trkpt>
      <trkpt lat="42.3626044951379299163818359375" lon="2.40656082518398761749267578125">
        <ele>1163</ele>
        <time>2022-07-27T14:25:34.000Z</time>
      </trkpt>
      <trkpt lat="42.36255235970020294189453125" lon="2.40661731921136379241943359375">
        <ele>1163.5999755859375</ele>
        <time>2022-07-27T14:25:36.000Z</time>
      </trkpt>
      <trkpt lat="42.3624542914330959320068359375" lon="2.4067238532006740570068359375">
        <ele>1164.199951171875</ele>
        <time>2022-07-27T14:25:40.000Z</time>
      </trkpt>
      <trkpt lat="42.36237759701907634735107421875" lon="2.4068070016801357269287109375">
        <ele>1165</ele>
        <time>2022-07-27T14:25:43.000Z</time>
      </trkpt>
      <trkpt lat="42.36232210882008075714111328125" lon="2.40686123259365558624267578125">
        <ele>1165.4000244140625</ele>
        <time>2022-07-27T14:25:45.000Z</time>
      </trkpt>
      <trkpt lat="42.362214736640453338623046875" lon="2.4069696106016635894775390625">
        <ele>1165.800048828125</ele>
        <time>2022-07-27T14:25:49.000Z</time>
      </trkpt>
      <trkpt lat="42.3621082864701747894287109375" lon="2.407058961689472198486328125">
        <ele>1166.4000244140625</ele>
        <time>2022-07-27T14:25:53.000Z</time>
      </trkpt>
      <trkpt lat="42.36199689097702503204345703125" lon="2.40714403800666332244873046875">
        <ele>1167.4000244140625</ele>
        <time>2022-07-27T14:25:57.000Z</time>
      </trkpt>
      <trkpt lat="42.3619413189589977264404296875" lon="2.40718158893287181854248046875">
        <ele>1167.800048828125</ele>
        <time>2022-07-27T14:25:59.000Z</time>
      </trkpt>
      <trkpt lat="42.36177862621843814849853515625" lon="2.40729172714054584503173828125">
        <ele>1168.800048828125</ele>
        <time>2022-07-27T14:26:05.000Z</time>
      </trkpt>
      <trkpt lat="42.3617538996040821075439453125" lon="2.4073055572807788848876953125">
        <ele>1169</ele>
        <time>2022-07-27T14:26:06.000Z</time>
      </trkpt>
      <trkpt lat="42.36159288324415683746337890625" lon="2.40739985369145870208740234375">
        <ele>1170</ele>
        <time>2022-07-27T14:26:12.000Z</time>
      </trkpt>
      <trkpt lat="42.361566312611103057861328125" lon="2.40741745568811893463134765625">
        <ele>1170</ele>
        <time>2022-07-27T14:26:13.000Z</time>
      </trkpt>
      <trkpt lat="42.361353747546672821044921875" lon="2.4075355567038059234619140625">
        <ele>1171.199951171875</ele>
        <time>2022-07-27T14:26:21.000Z</time>
      </trkpt>
      <trkpt lat="42.3612414300441741943359375" lon="2.4076307751238346099853515625">
        <ele>1172.4000244140625</ele>
        <time>2022-07-27T14:26:26.000Z</time>
      </trkpt>
      <trkpt lat="42.36121871508657932281494140625" lon="2.4076513946056365966796875">
        <ele>1172.5999755859375</ele>
        <time>2022-07-27T14:26:27.000Z</time>
      </trkpt>
      <trkpt lat="42.361122071743011474609375" lon="2.40775675512850284576416015625">
        <ele>1173.4000244140625</ele>
        <time>2022-07-27T14:26:31.000Z</time>
      </trkpt>
      <trkpt lat="42.361029200255870819091796875" lon="2.40785767324268817901611328125">
        <ele>1174.199951171875</ele>
        <time>2022-07-27T14:26:35.000Z</time>
      </trkpt>
      <trkpt lat="42.3609036393463611602783203125" lon="2.40802497602999210357666015625">
        <ele>1174.5999755859375</ele>
        <time>2022-07-27T14:26:41.000Z</time>
      </trkpt>
      <trkpt lat="42.36088410951197147369384765625" lon="2.4080552347004413604736328125">
        <ele>1174.800048828125</ele>
        <time>2022-07-27T14:26:42.000Z</time>
      </trkpt>
      <trkpt lat="42.3608013801276683807373046875" lon="2.4081715755164623260498046875">
        <ele>1175.800048828125</ele>
        <time>2022-07-27T14:26:46.000Z</time>
      </trkpt>
      <trkpt lat="42.36073876731097698211669921875" lon="2.40825162269175052642822265625">
        <ele>1176</ele>
        <time>2022-07-27T14:26:49.000Z</time>
      </trkpt>
      <trkpt lat="42.36059946008026599884033203125" lon="2.40845949389040470123291015625">
        <ele>1177</ele>
        <time>2022-07-27T14:26:56.000Z</time>
      </trkpt>
      <trkpt lat="42.36057783477008342742919921875" lon="2.4084882438182830810546875">
        <ele>1177.199951171875</ele>
        <time>2022-07-27T14:26:57.000Z</time>
      </trkpt>
      <trkpt lat="42.36042268574237823486328125" lon="2.4086899124085903167724609375">
        <ele>1178.199951171875</ele>
        <time>2022-07-27T14:27:04.000Z</time>
      </trkpt>
      <trkpt lat="42.360398210585117340087890625" lon="2.40871547721326351165771484375">
        <ele>1178.199951171875</ele>
        <time>2022-07-27T14:27:05.000Z</time>
      </trkpt>
      <trkpt lat="42.36019344069063663482666015625" lon="2.40891379304230213165283203125">
        <ele>1179.199951171875</ele>
        <time>2022-07-27T14:27:13.000Z</time>
      </trkpt>
      <trkpt lat="42.3601452447474002838134765625" lon="2.408964671194553375244140625">
        <ele>1179.800048828125</ele>
        <time>2022-07-27T14:27:15.000Z</time>
      </trkpt>
      <trkpt lat="42.3600852303206920623779296875" lon="2.40905310027301311492919921875">
        <ele>1180.4000244140625</ele>
        <time>2022-07-27T14:27:18.000Z</time>
      </trkpt>
      <trkpt lat="42.36002571880817413330078125" lon="2.40919726900756359100341796875">
        <ele>1180.800048828125</ele>
        <time>2022-07-27T14:27:22.000Z</time>
      </trkpt>
      <trkpt lat="42.35999830998480319976806640625" lon="2.4093141965568065643310546875">
        <ele>1181.4000244140625</ele>
        <time>2022-07-27T14:27:25.000Z</time>
      </trkpt>
      <trkpt lat="42.3599789477884769439697265625" lon="2.40948057733476161956787109375">
        <ele>1182.4000244140625</ele>
        <time>2022-07-27T14:27:29.000Z</time>
      </trkpt>
      <trkpt lat="42.3599779419600963592529296875" lon="2.4095244146883487701416015625">
        <ele>1182.5999755859375</ele>
        <time>2022-07-27T14:27:30.000Z</time>
      </trkpt>
      <trkpt lat="42.35995321534574031829833984375" lon="2.40976070053875446319580078125">
        <ele>1182.5999755859375</ele>
        <time>2022-07-27T14:27:36.000Z</time>
      </trkpt>
      <trkpt lat="42.35990862362086772918701171875" lon="2.40986363030970096588134765625">
        <ele>1182.800048828125</ele>
        <time>2022-07-27T14:27:39.000Z</time>
      </trkpt>
      <trkpt lat="42.359857745468616485595703125" lon="2.4099250696599483489990234375">
        <ele>1182.800048828125</ele>
        <time>2022-07-27T14:27:41.000Z</time>
      </trkpt>
      <trkpt lat="42.35969874076545238494873046875" lon="2.40997510962188243865966796875">
        <ele>1183.4000244140625</ele>
        <time>2022-07-27T14:27:46.000Z</time>
      </trkpt>
      <trkpt lat="42.35963168554008007049560546875" lon="2.40996505133807659149169921875">
        <ele>1183.5999755859375</ele>
        <time>2022-07-27T14:27:48.000Z</time>
      </trkpt>
      <trkpt lat="42.359397411346435546875" lon="2.40992213599383831024169921875">
        <ele>1184.5999755859375</ele>
        <time>2022-07-27T14:27:55.000Z</time>
      </trkpt>
      <trkpt lat="42.35936530865728855133056640625" lon="2.40991392172873020172119140625">
        <ele>1184.800048828125</ele>
        <time>2022-07-27T14:27:56.000Z</time>
      </trkpt>
      <trkpt lat="42.3591930605471134185791015625" lon="2.40989497862756252288818359375">
        <ele>1185.800048828125</ele>
        <time>2022-07-27T14:28:01.000Z</time>
      </trkpt>
      <trkpt lat="42.35912181437015533447265625" lon="2.4098938889801502227783203125">
        <ele>1186</ele>
        <time>2022-07-27T14:28:03.000Z</time>
      </trkpt>
      <trkpt lat="42.358928360044956207275390625" lon="2.40991945378482341766357421875">
        <ele>1186.800048828125</ele>
        <time>2022-07-27T14:28:08.000Z</time>
      </trkpt>
      <trkpt lat="42.35884688794612884521484375" lon="2.4099317751824855804443359375">
        <ele>1187.5999755859375</ele>
        <time>2022-07-27T14:28:10.000Z</time>
      </trkpt>
      <trkpt lat="42.35880539752542972564697265625" lon="2.40994024090468883514404296875">
        <ele>1188</ele>
        <time>2022-07-27T14:28:11.000Z</time>
      </trkpt>
      <trkpt lat="42.3585500009357929229736328125" lon="2.41000109352171421051025390625">
        <ele>1189</ele>
        <time>2022-07-27T14:28:17.000Z</time>
      </trkpt>
      <trkpt lat="42.35827289521694183349609375" lon="2.41004836745560169219970703125">
        <ele>1189.4000244140625</ele>
        <time>2022-07-27T14:28:24.000Z</time>
      </trkpt>
      <trkpt lat="42.35806158743798732757568359375" lon="2.4101225472986698150634765625">
        <ele>1190.199951171875</ele>
        <time>2022-07-27T14:28:30.000Z</time>
      </trkpt>
      <trkpt lat="42.3580269701778888702392578125" lon="2.4101399816572666168212890625">
        <ele>1190.199951171875</ele>
        <time>2022-07-27T14:28:31.000Z</time>
      </trkpt>
      <trkpt lat="42.357899062335491180419921875" lon="2.4102184362709522247314453125">
        <ele>1191.199951171875</ele>
        <time>2022-07-27T14:28:35.000Z</time>
      </trkpt>
      <trkpt lat="42.35781147144734859466552734375" lon="2.41028104908764362335205078125">
        <ele>1192.4000244140625</ele>
        <time>2022-07-27T14:28:38.000Z</time>
      </trkpt>
      <trkpt lat="42.35759831964969635009765625" lon="2.4104105494916439056396484375">
        <ele>1193</ele>
        <time>2022-07-27T14:28:45.000Z</time>
      </trkpt>
      <trkpt lat="42.35749782063066959381103515625" lon="2.41043929941952228546142578125">
        <ele>1193.800048828125</ele>
        <time>2022-07-27T14:28:48.000Z</time>
      </trkpt>
      <trkpt lat="42.3573131673038005828857421875" lon="2.41046293638646602630615234375">
        <ele>1194.4000244140625</ele>
        <time>2022-07-27T14:28:54.000Z</time>
      </trkpt>
      <trkpt lat="42.3571617901325225830078125" lon="2.4104745872318744659423828125">
        <ele>1194.800048828125</ele>
        <time>2022-07-27T14:28:59.000Z</time>
      </trkpt>
      <trkpt lat="42.35701736994087696075439453125" lon="2.41049428470432758331298828125">
        <ele>1195.199951171875</ele>
        <time>2022-07-27T14:29:04.000Z</time>
      </trkpt>
      <trkpt lat="42.35693170689046382904052734375" lon="2.41050182841718196868896484375">
        <ele>1195.800048828125</ele>
        <time>2022-07-27T14:29:07.000Z</time>
      </trkpt>
      <trkpt lat="42.35675971023738384246826171875" lon="2.410516999661922454833984375">
        <ele>1196.800048828125</ele>
        <time>2022-07-27T14:29:13.000Z</time>
      </trkpt>
      <trkpt lat="42.3567029647529125213623046875" lon="2.41051666438579559326171875">
        <ele>1197.199951171875</ele>
        <time>2022-07-27T14:29:15.000Z</time>
      </trkpt>
      <trkpt lat="42.35656566917896270751953125" lon="2.41052110679447650909423828125">
        <ele>1198</ele>
        <time>2022-07-27T14:29:20.000Z</time>
      </trkpt>
      <trkpt lat="42.35653557814657688140869140625" lon="2.41052563302218914031982421875">
        <ele>1198.199951171875</ele>
        <time>2022-07-27T14:29:21.000Z</time>
      </trkpt>
      <trkpt lat="42.35640817321836948394775390625" lon="2.4105285666882991790771484375">
        <ele>1198.800048828125</ele>
        <time>2022-07-27T14:29:25.000Z</time>
      </trkpt>
      <trkpt lat="42.356313206255435943603515625" lon="2.4105362780392169952392578125">
        <ele>1199.199951171875</ele>
        <time>2022-07-27T14:29:28.000Z</time>
      </trkpt>
      <trkpt lat="42.3561081849038600921630859375" lon="2.4105403013527393341064453125">
        <ele>1200.199951171875</ele>
        <time>2022-07-27T14:29:35.000Z</time>
      </trkpt>
      <trkpt lat="42.35596745274960994720458984375" lon="2.4105389602482318878173828125">
        <ele>1201.4000244140625</ele>
        <time>2022-07-27T14:29:40.000Z</time>
      </trkpt>
      <trkpt lat="42.35585815273225307464599609375" lon="2.410535775125026702880859375">
        <ele>1202.4000244140625</ele>
        <time>2022-07-27T14:29:44.000Z</time>
      </trkpt>
      <trkpt lat="42.35583342611789703369140625" lon="2.410536110401153564453125">
        <ele>1202.5999755859375</ele>
        <time>2022-07-27T14:29:45.000Z</time>
      </trkpt>
      <trkpt lat="42.35572672449052333831787109375" lon="2.4105401337146759033203125">
        <ele>1203.4000244140625</ele>
        <time>2022-07-27T14:29:49.000Z</time>
      </trkpt>
      <trkpt lat="42.35570057295262813568115234375" lon="2.41054004989564418792724609375">
        <ele>1203.5999755859375</ele>
        <time>2022-07-27T14:29:50.000Z</time>
      </trkpt>
      <trkpt lat="42.355564869940280914306640625" lon="2.41055153310298919677734375">
        <ele>1204.4000244140625</ele>
        <time>2022-07-27T14:29:55.000Z</time>
      </trkpt>
      <trkpt lat="42.35551315359771251678466796875" lon="2.4105631001293659210205078125">
        <ele>1204.800048828125</ele>
        <time>2022-07-27T14:29:57.000Z</time>
      </trkpt>
      <trkpt lat="42.35539647750556468963623046875" lon="2.41058170795440673828125">
        <ele>1205.4000244140625</ele>
        <time>2022-07-27T14:30:01.000Z</time>
      </trkpt>
      <trkpt lat="42.35533646307885646820068359375" lon="2.4105912633240222930908203125">
        <ele>1205.800048828125</ele>
        <time>2022-07-27T14:30:03.000Z</time>
      </trkpt>
      <trkpt lat="42.35523529350757598876953125" lon="2.41062931716442108154296875">
        <ele>1206.199951171875</ele>
        <time>2022-07-27T14:30:07.000Z</time>
      </trkpt>
      <trkpt lat="42.35512456856667995452880859375" lon="2.41066074930131435394287109375">
        <ele>1206.800048828125</ele>
        <time>2022-07-27T14:30:11.000Z</time>
      </trkpt>
      <trkpt lat="42.355067320168018341064453125" lon="2.41066862829029560089111328125">
        <ele>1207.199951171875</ele>
        <time>2022-07-27T14:30:13.000Z</time>
      </trkpt>
      <trkpt lat="42.35487059690058231353759765625" lon="2.41070265881717205047607421875">
        <ele>1208</ele>
        <time>2022-07-27T14:30:20.000Z</time>
      </trkpt>
      <trkpt lat="42.35470731742680072784423828125" lon="2.410756051540374755859375">
        <ele>1209.4000244140625</ele>
        <time>2022-07-27T14:30:26.000Z</time>
      </trkpt>
      <trkpt lat="42.35465115867555141448974609375" lon="2.4107760004699230194091796875">
        <ele>1209.800048828125</ele>
        <time>2022-07-27T14:30:28.000Z</time>
      </trkpt>
      <trkpt lat="42.3545112647116184234619140625" lon="2.4108222685754299163818359375">
        <ele>1210.4000244140625</ele>
        <time>2022-07-27T14:30:33.000Z</time>
      </trkpt>
      <trkpt lat="42.35440540127456188201904296875" lon="2.4108512699604034423828125">
        <ele>1211</ele>
        <time>2022-07-27T14:30:37.000Z</time>
      </trkpt>
      <trkpt lat="42.3542856238782405853271484375" lon="2.4109101109206676483154296875">
        <ele>1211.4000244140625</ele>
        <time>2022-07-27T14:30:42.000Z</time>
      </trkpt>
      <trkpt lat="42.354240529239177703857421875" lon="2.410945482552051544189453125">
        <ele>1211.5999755859375</ele>
        <time>2022-07-27T14:30:44.000Z</time>
      </trkpt>
      <trkpt lat="42.3541069217026233673095703125" lon="2.41110750474035739898681640625">
        <ele>1212</ele>
        <time>2022-07-27T14:30:50.000Z</time>
      </trkpt>
      <trkpt lat="42.35401681624352931976318359375" lon="2.411302216351032257080078125">
        <ele>1212.5999755859375</ele>
        <time>2022-07-27T14:30:56.000Z</time>
      </trkpt>
      <trkpt lat="42.3539241962134838104248046875" lon="2.41155467927455902099609375">
        <ele>1213.800048828125</ele>
        <time>2022-07-27T14:31:03.000Z</time>
      </trkpt>
      <trkpt lat="42.35391028225421905517578125" lon="2.41159047000110149383544921875">
        <ele>1213.800048828125</ele>
        <time>2022-07-27T14:31:04.000Z</time>
      </trkpt>
      <trkpt lat="42.35383895225822925567626953125" lon="2.4118589423596858978271484375">
        <ele>1214.800048828125</ele>
        <time>2022-07-27T14:31:11.000Z</time>
      </trkpt>
      <trkpt lat="42.3538299836218357086181640625" lon="2.4119407497346401214599609375">
        <ele>1215.4000244140625</ele>
        <time>2022-07-27T14:31:13.000Z</time>
      </trkpt>
      <trkpt lat="42.3538400419056415557861328125" lon="2.412237636744976043701171875">
        <ele>1216.199951171875</ele>
        <time>2022-07-27T14:31:20.000Z</time>
      </trkpt>
      <trkpt lat="42.353844903409481048583984375" lon="2.4122808873653411865234375">
        <ele>1216.199951171875</ele>
        <time>2022-07-27T14:31:21.000Z</time>
      </trkpt>
      <trkpt lat="42.3538846336305141448974609375" lon="2.41257660090923309326171875">
        <ele>1217.199951171875</ele>
        <time>2022-07-27T14:31:28.000Z</time>
      </trkpt>
      <trkpt lat="42.35389511100947856903076171875" lon="2.41270341910421848297119140625">
        <ele>1217.800048828125</ele>
        <time>2022-07-27T14:31:31.000Z</time>
      </trkpt>
      <trkpt lat="42.35388773493468761444091796875" lon="2.41286267526447772979736328125">
        <ele>1218.4000244140625</ele>
        <time>2022-07-27T14:31:35.000Z</time>
      </trkpt>
      <trkpt lat="42.35386610962450504302978515625" lon="2.412966191768646240234375">
        <ele>1218.800048828125</ele>
        <time>2022-07-27T14:31:38.000Z</time>
      </trkpt>
      <trkpt lat="42.35382202081382274627685546875" lon="2.41311949677765369415283203125">
        <ele>1219.4000244140625</ele>
        <time>2022-07-27T14:31:42.000Z</time>
      </trkpt>
      <trkpt lat="42.35377374105155467987060546875" lon="2.41328470408916473388671875">
        <ele>1220</ele>
        <time>2022-07-27T14:31:46.000Z</time>
      </trkpt>
      <trkpt lat="42.35373149625957012176513671875" lon="2.413395345211029052734375">
        <ele>1220.4000244140625</ele>
        <time>2022-07-27T14:31:49.000Z</time>
      </trkpt>
      <trkpt lat="42.35367081128060817718505859375" lon="2.413526438176631927490234375">
        <ele>1221</ele>
        <time>2022-07-27T14:31:53.000Z</time>
      </trkpt>
      <trkpt lat="42.3535917699337005615234375" lon="2.41371788084506988525390625">
        <ele>1221.5999755859375</ele>
        <time>2022-07-27T14:31:59.000Z</time>
      </trkpt>
      <trkpt lat="42.35350015573203563690185546875" lon="2.4139554239809513092041015625">
        <ele>1222.800048828125</ele>
        <time>2022-07-27T14:32:06.000Z</time>
      </trkpt>
      <trkpt lat="42.3534601740539073944091796875" lon="2.41405173204839229583740234375">
        <ele>1223</ele>
        <time>2022-07-27T14:32:09.000Z</time>
      </trkpt>
      <trkpt lat="42.3534189350903034210205078125" lon="2.414224483072757720947265625">
        <ele>1223.4000244140625</ele>
        <time>2022-07-27T14:32:14.000Z</time>
      </trkpt>
      <trkpt lat="42.3534092120826244354248046875" lon="2.4142974056303501129150390625">
        <ele>1223.800048828125</ele>
        <time>2022-07-27T14:32:16.000Z</time>
      </trkpt>
      <trkpt lat="42.353394292294979095458984375" lon="2.41441282443702220916748046875">
        <ele>1224.800048828125</ele>
        <time>2022-07-27T14:32:19.000Z</time>
      </trkpt>
      <trkpt lat="42.353385575115680694580078125" lon="2.4144885130226612091064453125">
        <ele>1225.199951171875</ele>
        <time>2022-07-27T14:32:21.000Z</time>
      </trkpt>
      <trkpt lat="42.353386580944061279296875" lon="2.41472949273884296417236328125">
        <ele>1225.800048828125</ele>
        <time>2022-07-27T14:32:27.000Z</time>
      </trkpt>
      <trkpt lat="42.35339655540883541107177734375" lon="2.41481012664735317230224609375">
        <ele>1226.199951171875</ele>
        <time>2022-07-27T14:32:29.000Z</time>
      </trkpt>
      <trkpt lat="42.3534303344786167144775390625" lon="2.41496603004634380340576171875">
        <ele>1227</ele>
        <time>2022-07-27T14:32:33.000Z</time>
      </trkpt>
      <trkpt lat="42.35350124537944793701171875" lon="2.4151466600596904754638671875">
        <ele>1228.199951171875</ele>
        <time>2022-07-27T14:32:38.000Z</time>
      </trkpt>
      <trkpt lat="42.35362823121249675750732421875" lon="2.41533969528973102569580078125">
        <ele>1229.199951171875</ele>
        <time>2022-07-27T14:32:44.000Z</time>
      </trkpt>
      <trkpt lat="42.353681288659572601318359375" lon="2.4153853766620159149169921875">
        <ele>1229.800048828125</ele>
        <time>2022-07-27T14:32:46.000Z</time>
      </trkpt>
      <trkpt lat="42.35376502387225627899169921875" lon="2.41545259952545166015625">
        <ele>1230.199951171875</ele>
        <time>2022-07-27T14:32:49.000Z</time>
      </trkpt>
      <trkpt lat="42.3538802750408649444580078125" lon="2.4155261926352977752685546875">
        <ele>1230.800048828125</ele>
        <time>2022-07-27T14:32:53.000Z</time>
      </trkpt>
      <trkpt lat="42.35406878404319286346435546875" lon="2.41562920622527599334716796875">
        <ele>1231.5999755859375</ele>
        <time>2022-07-27T14:32:59.000Z</time>
      </trkpt>
      <trkpt lat="42.354163415729999542236328125" lon="2.41568251512944698333740234375">
        <ele>1231.5999755859375</ele>
        <time>2022-07-27T14:33:02.000Z</time>
      </trkpt>
      <trkpt lat="42.35441043041646480560302734375" lon="2.41583087481558322906494140625">
        <ele>1232.4000244140625</ele>
        <time>2022-07-27T14:33:10.000Z</time>
      </trkpt>
      <trkpt lat="42.3544983565807342529296875" lon="2.41589843295514583587646484375">
        <ele>1232.5999755859375</ele>
        <time>2022-07-27T14:33:13.000Z</time>
      </trkpt>
      <trkpt lat="42.3545977659523487091064453125" lon="2.41602064110338687896728515625">
        <ele>1233</ele>
        <time>2022-07-27T14:33:17.000Z</time>
      </trkpt>
      <trkpt lat="42.3547147773206233978271484375" lon="2.4162798933684825897216796875">
        <ele>1233.5999755859375</ele>
        <time>2022-07-27T14:33:24.000Z</time>
      </trkpt>
      <trkpt lat="42.3547268472611904144287109375" lon="2.41632163524627685546875">
        <ele>1233.800048828125</ele>
        <time>2022-07-27T14:33:25.000Z</time>
      </trkpt>
      <trkpt lat="42.35477940179407596588134765625" lon="2.41659161634743213653564453125">
        <ele>1235</ele>
        <time>2022-07-27T14:33:31.000Z</time>
      </trkpt>
      <trkpt lat="42.354790382087230682373046875" lon="2.416637130081653594970703125">
        <ele>1235.199951171875</ele>
        <time>2022-07-27T14:33:32.000Z</time>
      </trkpt>
      <trkpt lat="42.3548646457493305206298828125" lon="2.4168532155454158782958984375">
        <ele>1236</ele>
        <time>2022-07-27T14:33:37.000Z</time>
      </trkpt>
      <trkpt lat="42.3549276776611804962158203125" lon="2.41696779616177082061767578125">
        <ele>1236.4000244140625</ele>
        <time>2022-07-27T14:33:40.000Z</time>
      </trkpt>
      <trkpt lat="42.35497972927987575531005859375" lon="2.4170319177210330963134765625">
        <ele>1237</ele>
        <time>2022-07-27T14:33:42.000Z</time>
      </trkpt>
      <trkpt lat="42.35511752776801586151123046875" lon="2.41717994213104248046875">
        <ele>1237.5999755859375</ele>
        <time>2022-07-27T14:33:47.000Z</time>
      </trkpt>
      <trkpt lat="42.35526739619672298431396484375" lon="2.41730391047894954681396484375">
        <ele>1238</ele>
        <time>2022-07-27T14:33:52.000Z</time>
      </trkpt>
      <trkpt lat="42.355475015938282012939453125" lon="2.4174785055220127105712890625">
        <ele>1239</ele>
        <time>2022-07-27T14:33:59.000Z</time>
      </trkpt>
      <trkpt lat="42.3555033467710018157958984375" lon="2.41750323213636875152587890625">
        <ele>1239.199951171875</ele>
        <time>2022-07-27T14:34:00.000Z</time>
      </trkpt>
      <trkpt lat="42.35572454519569873809814453125" lon="2.4176910705864429473876953125">
        <ele>1240.4000244140625</ele>
        <time>2022-07-27T14:34:08.000Z</time>
      </trkpt>
      <trkpt lat="42.35575220547616481781005859375" lon="2.4177162162959575653076171875">
        <ele>1240.4000244140625</ele>
        <time>2022-07-27T14:34:09.000Z</time>
      </trkpt>
      <trkpt lat="42.35598052851855754852294921875" lon="2.41790958680212497711181640625">
        <ele>1241.4000244140625</ele>
        <time>2022-07-27T14:34:17.000Z</time>
      </trkpt>
      <trkpt lat="42.3560099489986896514892578125" lon="2.4179344810545444488525390625">
        <ele>1241.4000244140625</ele>
        <time>2022-07-27T14:34:18.000Z</time>
      </trkpt>
      <trkpt lat="42.3563070036470890045166015625" lon="2.41817479021847248077392578125">
        <ele>1242.199951171875</ele>
        <time>2022-07-27T14:34:28.000Z</time>
      </trkpt>
      <trkpt lat="42.3563651740550994873046875" lon="2.41822876967489719390869140625">
        <ele>1242.4000244140625</ele>
        <time>2022-07-27T14:34:30.000Z</time>
      </trkpt>
      <trkpt lat="42.35652434639632701873779296875" lon="2.4183904565870761871337890625">
        <ele>1243</ele>
        <time>2022-07-27T14:34:36.000Z</time>
      </trkpt>
      <trkpt lat="42.3565852828323841094970703125" lon="2.41847737692296504974365234375">
        <ele>1243.4000244140625</ele>
        <time>2022-07-27T14:34:39.000Z</time>
      </trkpt>
      <trkpt lat="42.35666147433221340179443359375" lon="2.4185932986438274383544921875">
        <ele>1243.800048828125</ele>
        <time>2022-07-27T14:34:43.000Z</time>
      </trkpt>
      <trkpt lat="42.356739006936550140380859375" lon="2.41871056146919727325439453125">
        <ele>1244.5999755859375</ele>
        <time>2022-07-27T14:34:47.000Z</time>
      </trkpt>
      <trkpt lat="42.3568172939121723175048828125" lon="2.41883427836000919342041015625">
        <ele>1245.199951171875</ele>
        <time>2022-07-27T14:34:51.000Z</time>
      </trkpt>
      <trkpt lat="42.35685392282903194427490234375" lon="2.418901920318603515625">
        <ele>1245.800048828125</ele>
        <time>2022-07-27T14:34:53.000Z</time>
      </trkpt>
      <trkpt lat="42.35695484094321727752685546875" lon="2.419073581695556640625">
        <ele>1246.5999755859375</ele>
        <time>2022-07-27T14:34:58.000Z</time>
      </trkpt>
      <trkpt lat="42.3569742031395435333251953125" lon="2.41910685785114765167236328125">
        <ele>1246.800048828125</ele>
        <time>2022-07-27T14:34:59.000Z</time>
      </trkpt>
      <trkpt lat="42.3570781387388706207275390625" lon="2.41926996968686580657958984375">
        <ele>1247.4000244140625</ele>
        <time>2022-07-27T14:35:04.000Z</time>
      </trkpt>
      <trkpt lat="42.35712063498795032501220703125" lon="2.41933249868452548980712890625">
        <ele>1247.800048828125</ele>
        <time>2022-07-27T14:35:06.000Z</time>
      </trkpt>
      <trkpt lat="42.35724887810647487640380859375" lon="2.419517152011394500732421875">
        <ele>1248.800048828125</ele>
        <time>2022-07-27T14:35:12.000Z</time>
      </trkpt>
      <trkpt lat="42.357268743216991424560546875" lon="2.4195488356053829193115234375">
        <ele>1249</ele>
        <time>2022-07-27T14:35:13.000Z</time>
      </trkpt>
      <trkpt lat="42.35736630856990814208984375" lon="2.4197040684521198272705078125">
        <ele>1250</ele>
        <time>2022-07-27T14:35:18.000Z</time>
      </trkpt>
      <trkpt lat="42.3574033565819263458251953125" lon="2.41977137513458728790283203125">
        <ele>1250</ele>
        <time>2022-07-27T14:35:20.000Z</time>
      </trkpt>
      <trkpt lat="42.3575290851294994354248046875" lon="2.41996248252689838409423828125">
        <ele>1251</ele>
        <time>2022-07-27T14:35:26.000Z</time>
      </trkpt>
      <trkpt lat="42.35756789334118366241455078125" lon="2.42002283222973346710205078125">
        <ele>1251.199951171875</ele>
        <time>2022-07-27T14:35:28.000Z</time>
      </trkpt>
      <trkpt lat="42.35771005041897296905517578125" lon="2.4202250875532627105712890625">
        <ele>1252.199951171875</ele>
        <time>2022-07-27T14:35:35.000Z</time>
      </trkpt>
      <trkpt lat="42.357730083167552947998046875" lon="2.42025685496628284454345703125">
        <ele>1252.5999755859375</ele>
        <time>2022-07-27T14:35:36.000Z</time>
      </trkpt>
      <trkpt lat="42.3578177578747272491455078125" lon="2.4203757941722869873046875">
        <ele>1253.4000244140625</ele>
        <time>2022-07-27T14:35:40.000Z</time>
      </trkpt>
      <trkpt lat="42.35792781226336956024169921875" lon="2.42051971144974231719970703125">
        <ele>1253.800048828125</ele>
        <time>2022-07-27T14:35:45.000Z</time>
      </trkpt>
      <trkpt lat="42.357989586889743804931640625" lon="2.42060503922402858734130859375">
        <ele>1254.199951171875</ele>
        <time>2022-07-27T14:35:48.000Z</time>
      </trkpt>
      <trkpt lat="42.35807784833014011383056640625" lon="2.42070679552853107452392578125">
        <ele>1254.800048828125</ele>
        <time>2022-07-27T14:35:52.000Z</time>
      </trkpt>
      <trkpt lat="42.3581376112997531890869140625" lon="2.420787848532199859619140625">
        <ele>1255.199951171875</ele>
        <time>2022-07-27T14:35:55.000Z</time>
      </trkpt>
      <trkpt lat="42.35822034068405628204345703125" lon="2.42087803781032562255859375">
        <ele>1256.4000244140625</ele>
        <time>2022-07-27T14:35:59.000Z</time>
      </trkpt>
      <trkpt lat="42.35833483748137950897216796875" lon="2.42094635032117366790771484375">
        <ele>1257.4000244140625</ele>
        <time>2022-07-27T14:36:04.000Z</time>
      </trkpt>
      <trkpt lat="42.3583625815808773040771484375" lon="2.42095506750047206878662109375">
        <ele>1257.5999755859375</ele>
        <time>2022-07-27T14:36:05.000Z</time>
      </trkpt>
      <trkpt lat="42.358542792499065399169921875" lon="2.42094920016825199127197265625">
        <ele>1258.4000244140625</ele>
        <time>2022-07-27T14:36:11.000Z</time>
      </trkpt>
      <trkpt lat="42.358603142201900482177734375" lon="2.420932352542877197265625">
        <ele>1258.5999755859375</ele>
        <time>2022-07-27T14:36:13.000Z</time>
      </trkpt>
      <trkpt lat="42.3587421141564846038818359375" lon="2.42090159095823764801025390625">
        <ele>1259.800048828125</ele>
        <time>2022-07-27T14:36:18.000Z</time>
      </trkpt>
      <trkpt lat="42.3587689362466335296630859375" lon="2.42088817991316318511962890625">
        <ele>1259.800048828125</ele>
        <time>2022-07-27T14:36:19.000Z</time>
      </trkpt>
      <trkpt lat="42.3589097522199153900146484375" lon="2.42083688266575336456298828125">
        <ele>1261</ele>
        <time>2022-07-27T14:36:24.000Z</time>
      </trkpt>
      <trkpt lat="42.358935065567493438720703125" lon="2.4208316020667552947998046875">
        <ele>1261</ele>
        <time>2022-07-27T14:36:25.000Z</time>
      </trkpt>
      <trkpt lat="42.35902047716081142425537109375" lon="2.42085297591984272003173828125">
        <ele>1261.800048828125</ele>
        <time>2022-07-27T14:36:29.000Z</time>
      </trkpt>
      <trkpt lat="42.359044365584850311279296875" lon="2.420855574309825897216796875">
        <ele>1262</ele>
        <time>2022-07-27T14:36:30.000Z</time>
      </trkpt>
      <trkpt lat="42.35919557511806488037109375" lon="2.4208969809114933013916015625">
        <ele>1262.800048828125</ele>
        <time>2022-07-27T14:36:36.000Z</time>
      </trkpt>
      <trkpt lat="42.359222061932086944580078125" lon="2.42091014049947261810302734375">
        <ele>1262.800048828125</ele>
        <time>2022-07-27T14:36:37.000Z</time>
      </trkpt>
      <trkpt lat="42.3593707568943500518798828125" lon="2.42101659066975116729736328125">
        <ele>1264</ele>
        <time>2022-07-27T14:36:43.000Z</time>
      </trkpt>
      <trkpt lat="42.35945063643157482147216796875" lon="2.421096973121166229248046875">
        <ele>1265</ele>
        <time>2022-07-27T14:36:47.000Z</time>
      </trkpt>
      <trkpt lat="42.35954023897647857666015625" lon="2.42119445465505123138427734375">
        <ele>1266</ele>
        <time>2022-07-27T14:36:51.000Z</time>
      </trkpt>
      <trkpt lat="42.35956496559083461761474609375" lon="2.4212154932320117950439453125">
        <ele>1266</ele>
        <time>2022-07-27T14:36:52.000Z</time>
      </trkpt>
      <trkpt lat="42.35970460809767246246337890625" lon="2.42133610881865024566650390625">
        <ele>1267.199951171875</ele>
        <time>2022-07-27T14:36:58.000Z</time>
      </trkpt>
      <trkpt lat="42.35986202023923397064208984375" lon="2.42143618874251842498779296875">
        <ele>1268.199951171875</ele>
        <time>2022-07-27T14:37:04.000Z</time>
      </trkpt>
      <trkpt lat="42.35991574823856353759765625" lon="2.4214672856032848358154296875">
        <ele>1268.800048828125</ele>
        <time>2022-07-27T14:37:06.000Z</time>
      </trkpt>
      <trkpt lat="42.36007357947528362274169921875" lon="2.42155571468174457550048828125">
        <ele>1269.199951171875</ele>
        <time>2022-07-27T14:37:12.000Z</time>
      </trkpt>
      <trkpt lat="42.360099144279956817626953125" lon="2.42157164029777050018310546875">
        <ele>1269.4000244140625</ele>
        <time>2022-07-27T14:37:13.000Z</time>
      </trkpt>
      <trkpt lat="42.3602585680782794952392578125" lon="2.421686388552188873291015625">
        <ele>1270.4000244140625</ele>
        <time>2022-07-27T14:37:20.000Z</time>
      </trkpt>
      <trkpt lat="42.36028463579714298248291015625" lon="2.4217013083398342132568359375">
        <ele>1270.4000244140625</ele>
        <time>2022-07-27T14:37:21.000Z</time>
      </trkpt>
      <trkpt lat="42.3604322411119937896728515625" lon="2.4217992089688777923583984375">
        <ele>1271.4000244140625</ele>
        <time>2022-07-27T14:37:27.000Z</time>
      </trkpt>
      <trkpt lat="42.36045596189796924591064453125" lon="2.4218176491558551788330078125">
        <ele>1271.5999755859375</ele>
        <time>2022-07-27T14:37:28.000Z</time>
      </trkpt>
      <trkpt lat="42.360543049871921539306640625" lon="2.42190155200660228729248046875">
        <ele>1272.199951171875</ele>
        <time>2022-07-27T14:37:32.000Z</time>
      </trkpt>
      <trkpt lat="42.36057900823652744293212890625" lon="2.42194958031177520751953125">
        <ele>1272.4000244140625</ele>
        <time>2022-07-27T14:37:34.000Z</time>
      </trkpt>
      <trkpt lat="42.36059593968093395233154296875" lon="2.42197615094482898712158203125">
        <ele>1272.5999755859375</ele>
        <time>2022-07-27T14:37:35.000Z</time>
      </trkpt>
      <trkpt lat="42.36066333018243312835693359375" lon="2.42215401493012905120849609375">
        <ele>1273.5999755859375</ele>
        <time>2022-07-27T14:37:40.000Z</time>
      </trkpt>
      <trkpt lat="42.36069149337708950042724609375" lon="2.4223326332867145538330078125">
        <ele>1274.800048828125</ele>
        <time>2022-07-27T14:37:45.000Z</time>
      </trkpt>
      <trkpt lat="42.3606956005096435546875" lon="2.42240161634981632232666015625">
        <ele>1275</ele>
        <time>2022-07-27T14:37:47.000Z</time>
      </trkpt>
      <trkpt lat="42.3606647551059722900390625" lon="2.42258987389504909515380859375">
        <ele>1276</ele>
        <time>2022-07-27T14:37:53.000Z</time>
      </trkpt>
      <trkpt lat="42.36064421944320201873779296875" lon="2.4226531572639942169189453125">
        <ele>1276</ele>
        <time>2022-07-27T14:37:55.000Z</time>
      </trkpt>
      <trkpt lat="42.3605467379093170166015625" lon="2.42281920276582241058349609375">
        <ele>1277</ele>
        <time>2022-07-27T14:38:01.000Z</time>
      </trkpt>
      <trkpt lat="42.36047054640948772430419921875" lon="2.42299807257950305938720703125">
        <ele>1277.800048828125</ele>
        <time>2022-07-27T14:38:06.000Z</time>
      </trkpt>
      <trkpt lat="42.3604523576796054840087890625" lon="2.4230300076305866241455078125">
        <ele>1278</ele>
        <time>2022-07-27T14:38:07.000Z</time>
      </trkpt>
      <trkpt lat="42.36040818504989147186279296875" lon="2.42313603870570659637451171875">
        <ele>1279</ele>
        <time>2022-07-27T14:38:10.000Z</time>
      </trkpt>
      <trkpt lat="42.36036233603954315185546875" lon="2.42324173450469970703125">
        <ele>1279.5999755859375</ele>
        <time>2022-07-27T14:38:13.000Z</time>
      </trkpt>
      <trkpt lat="42.360322438180446624755859375" lon="2.42334910668432712554931640625">
        <ele>1280.199951171875</ele>
        <time>2022-07-27T14:38:16.000Z</time>
      </trkpt>
      <trkpt lat="42.36026468686759471893310546875" lon="2.4235815368592739105224609375">
        <ele>1280.800048828125</ele>
        <time>2022-07-27T14:38:22.000Z</time>
      </trkpt>
      <trkpt lat="42.360255718231201171875" lon="2.423779182136058807373046875">
        <ele>1281.199951171875</ele>
        <time>2022-07-27T14:38:27.000Z</time>
      </trkpt>
      <trkpt lat="42.3602589033544063568115234375" lon="2.4238544516265392303466796875">
        <ele>1281.4000244140625</ele>
        <time>2022-07-27T14:38:29.000Z</time>
      </trkpt>
      <trkpt lat="42.3602900840342044830322265625" lon="2.4240462295711040496826171875">
        <ele>1282.199951171875</ele>
        <time>2022-07-27T14:38:34.000Z</time>
      </trkpt>
      <trkpt lat="42.36031346954405307769775390625" lon="2.4241174757480621337890625">
        <ele>1283</ele>
        <time>2022-07-27T14:38:36.000Z</time>
      </trkpt>
      <trkpt lat="42.36034448258578777313232421875" lon="2.4241830222308635711669921875">
        <ele>1283.4000244140625</ele>
        <time>2022-07-27T14:38:38.000Z</time>
      </trkpt>
      <trkpt lat="42.36042461358010768890380859375" lon="2.42429248988628387451171875">
        <ele>1284.199951171875</ele>
        <time>2022-07-27T14:38:42.000Z</time>
      </trkpt>
      <trkpt lat="42.3604984581470489501953125" lon="2.4243560247123241424560546875">
        <ele>1284.5999755859375</ele>
        <time>2022-07-27T14:38:45.000Z</time>
      </trkpt>
      <trkpt lat="42.3606003820896148681640625" lon="2.42442517541348934173583984375">
        <ele>1285</ele>
        <time>2022-07-27T14:38:49.000Z</time>
      </trkpt>
      <trkpt lat="42.36074186861515045166015625" lon="2.42448854260146617889404296875">
        <ele>1285.5999755859375</ele>
        <time>2022-07-27T14:38:54.000Z</time>
      </trkpt>
      <trkpt lat="42.360771708190441131591796875" lon="2.42449893616139888763427734375">
        <ele>1285.800048828125</ele>
        <time>2022-07-27T14:38:55.000Z</time>
      </trkpt>
      <trkpt lat="42.3609973490238189697265625" lon="2.42452525533735752105712890625">
        <ele>1286.800048828125</ele>
        <time>2022-07-27T14:39:02.000Z</time>
      </trkpt>
      <trkpt lat="42.36118216998875141143798828125" lon="2.42452978156507015228271484375">
        <ele>1287.800048828125</ele>
        <time>2022-07-27T14:39:08.000Z</time>
      </trkpt>
      <trkpt lat="42.3612146079540252685546875" lon="2.4245305359363555908203125">
        <ele>1288</ele>
        <time>2022-07-27T14:39:09.000Z</time>
      </trkpt>
      <trkpt lat="42.36140646971762180328369140625" lon="2.42453229613602161407470703125">
        <ele>1289</ele>
        <time>2022-07-27T14:39:15.000Z</time>
      </trkpt>
      <trkpt lat="42.3614394105970859527587890625" lon="2.42453078739345073699951171875">
        <ele>1289</ele>
        <time>2022-07-27T14:39:16.000Z</time>
      </trkpt>
      <trkpt lat="42.3615899495780467987060546875" lon="2.424555011093616485595703125">
        <ele>1289.5999755859375</ele>
        <time>2022-07-27T14:39:21.000Z</time>
      </trkpt>
      <trkpt lat="42.3616838268935680389404296875" lon="2.4245514906942844390869140625">
        <ele>1290.199951171875</ele>
        <time>2022-07-27T14:39:24.000Z</time>
      </trkpt>
      <trkpt lat="42.36177963204681873321533203125" lon="2.42456029169261455535888671875">
        <ele>1290.4000244140625</ele>
        <time>2022-07-27T14:39:27.000Z</time>
      </trkpt>
      <trkpt lat="42.36189848743379116058349609375" lon="2.4245625548064708709716796875">
        <ele>1291</ele>
        <time>2022-07-27T14:39:31.000Z</time>
      </trkpt>
      <trkpt lat="42.361953556537628173828125" lon="2.424567751586437225341796875">
        <ele>1291.4000244140625</ele>
        <time>2022-07-27T14:39:33.000Z</time>
      </trkpt>
      <trkpt lat="42.36203092150390148162841796875" lon="2.424569427967071533203125">
        <ele>1292.199951171875</ele>
        <time>2022-07-27T14:39:36.000Z</time>
      </trkpt>
      <trkpt lat="42.36208691261708736419677734375" lon="2.42457252927124500274658203125">
        <ele>1292.5999755859375</ele>
        <time>2022-07-27T14:39:38.000Z</time>
      </trkpt>
      <trkpt lat="42.36220694147050380706787109375" lon="2.4245632253587245941162109375">
        <ele>1293.199951171875</ele>
        <time>2022-07-27T14:39:42.000Z</time>
      </trkpt>
      <trkpt lat="42.36223359592258930206298828125" lon="2.42456783540546894073486328125">
        <ele>1293.4000244140625</ele>
        <time>2022-07-27T14:39:43.000Z</time>
      </trkpt>
      <trkpt lat="42.36240492202341556549072265625" lon="2.42460094392299652099609375">
        <ele>1294.199951171875</ele>
        <time>2022-07-27T14:39:49.000Z</time>
      </trkpt>
      <trkpt lat="42.3624351806938648223876953125" lon="2.42460907436907291412353515625">
        <ele>1294.4000244140625</ele>
        <time>2022-07-27T14:39:50.000Z</time>
      </trkpt>
      <trkpt lat="42.36254976131021976470947265625" lon="2.4246735312044620513916015625">
        <ele>1295</ele>
        <time>2022-07-27T14:39:54.000Z</time>
      </trkpt>
      <trkpt lat="42.36262871883809566497802734375" lon="2.424742095172405242919921875">
        <ele>1295.199951171875</ele>
        <time>2022-07-27T14:39:57.000Z</time>
      </trkpt>
      <trkpt lat="42.362691499292850494384765625" lon="2.4248336255550384521484375">
        <ele>1295.4000244140625</ele>
        <time>2022-07-27T14:40:00.000Z</time>
      </trkpt>
      <trkpt lat="42.36275352537631988525390625" lon="2.42502599023282527923583984375">
        <ele>1296.199951171875</ele>
        <time>2022-07-27T14:40:05.000Z</time>
      </trkpt>
      <trkpt lat="42.36275930888950824737548828125" lon="2.42506572045385837554931640625">
        <ele>1296.4000244140625</ele>
        <time>2022-07-27T14:40:06.000Z</time>
      </trkpt>
      <trkpt lat="42.36277774907648563385009765625" lon="2.42522631771862506866455078125">
        <ele>1297.199951171875</ele>
        <time>2022-07-27T14:40:11.000Z</time>
      </trkpt>
      <trkpt lat="42.36277489922940731048583984375" lon="2.42526303045451641082763671875">
        <ele>1297.5999755859375</ele>
        <time>2022-07-27T14:40:12.000Z</time>
      </trkpt>
      <trkpt lat="42.36274237744510173797607421875" lon="2.42542781867086887359619140625">
        <ele>1298.4000244140625</ele>
        <time>2022-07-27T14:40:17.000Z</time>
      </trkpt>
      <trkpt lat="42.36273072659969329833984375" lon="2.4254624359309673309326171875">
        <ele>1298.4000244140625</ele>
        <time>2022-07-27T14:40:18.000Z</time>
      </trkpt>
      <trkpt lat="42.36264757812023162841796875" lon="2.42566645145416259765625">
        <ele>1299.5999755859375</ele>
        <time>2022-07-27T14:40:24.000Z</time>
      </trkpt>
      <trkpt lat="42.3626313172280788421630859375" lon="2.4257001467049121856689453125">
        <ele>1299.800048828125</ele>
        <time>2022-07-27T14:40:25.000Z</time>
      </trkpt>
      <trkpt lat="42.36258010379970073699951171875" lon="2.42579410783946514129638671875">
        <ele>1300.800048828125</ele>
        <time>2022-07-27T14:40:28.000Z</time>
      </trkpt>
      <trkpt lat="42.36250600777566432952880859375" lon="2.42591715417802333831787109375">
        <ele>1301.199951171875</ele>
        <time>2022-07-27T14:40:32.000Z</time>
      </trkpt>
      <trkpt lat="42.3624723963439464569091796875" lon="2.4259847961366176605224609375">
        <ele>1301.5999755859375</ele>
        <time>2022-07-27T14:40:34.000Z</time>
      </trkpt>
      <trkpt lat="42.36233384348452091217041015625" lon="2.4262399412691593170166015625">
        <ele>1302.5999755859375</ele>
        <time>2022-07-27T14:40:42.000Z</time>
      </trkpt>
      <trkpt lat="42.36231791786849498748779296875" lon="2.42627137340605258941650390625">
        <ele>1302.800048828125</ele>
        <time>2022-07-27T14:40:43.000Z</time>
      </trkpt>
      <trkpt lat="42.36221716739237308502197265625" lon="2.426453344523906707763671875">
        <ele>1303.4000244140625</ele>
        <time>2022-07-27T14:40:49.000Z</time>
      </trkpt>
      <trkpt lat="42.36211373470723628997802734375" lon="2.42664319463074207305908203125">
        <ele>1303.800048828125</ele>
        <time>2022-07-27T14:40:55.000Z</time>
      </trkpt>
      <trkpt lat="42.3620945401489734649658203125" lon="2.42667068727314472198486328125">
        <ele>1304</ele>
        <time>2022-07-27T14:40:56.000Z</time>
      </trkpt>
      <trkpt lat="42.362017594277858734130859375" lon="2.42681133560836315155029296875">
        <ele>1305</ele>
        <time>2022-07-27T14:41:01.000Z</time>
      </trkpt>
      <trkpt lat="42.36194978468120098114013671875" lon="2.4269416742026805877685546875">
        <ele>1305.800048828125</ele>
        <time>2022-07-27T14:41:05.000Z</time>
      </trkpt>
      <trkpt lat="42.36193218268454074859619140625" lon="2.42697008885443210601806640625">
        <ele>1306</ele>
        <time>2022-07-27T14:41:06.000Z</time>
      </trkpt>
      <trkpt lat="42.3618699051439762115478515625" lon="2.42708207108080387115478515625">
        <ele>1306.4000244140625</ele>
        <time>2022-07-27T14:41:10.000Z</time>
      </trkpt>
      <trkpt lat="42.36179958097636699676513671875" lon="2.427219115197658538818359375">
        <ele>1307</ele>
        <time>2022-07-27T14:41:15.000Z</time>
      </trkpt>
      <trkpt lat="42.36177057959139347076416015625" lon="2.42732615210115909576416015625">
        <ele>1308.199951171875</ele>
        <time>2022-07-27T14:41:18.000Z</time>
      </trkpt>
      <trkpt lat="42.361748032271862030029296875" lon="2.42738784290850162506103515625">
        <ele>1308.5999755859375</ele>
        <time>2022-07-27T14:41:20.000Z</time>
      </trkpt>
      <trkpt lat="42.3617257364094257354736328125" lon="2.427450455725193023681640625">
        <ele>1309.199951171875</ele>
        <time>2022-07-27T14:41:22.000Z</time>
      </trkpt>
      <trkpt lat="42.3616888560354709625244140625" lon="2.42768975906074047088623046875">
        <ele>1310.199951171875</ele>
        <time>2022-07-27T14:41:28.000Z</time>
      </trkpt>
      <trkpt lat="42.36168491654098033905029296875" lon="2.42773049511015415191650390625">
        <ele>1310.4000244140625</ele>
        <time>2022-07-27T14:41:29.000Z</time>
      </trkpt>
      <trkpt lat="42.36167502589523792266845703125" lon="2.4278931878507137298583984375">
        <ele>1311.5999755859375</ele>
        <time>2022-07-27T14:41:33.000Z</time>
      </trkpt>
      <trkpt lat="42.36167921684682369232177734375" lon="2.4279756657779216766357421875">
        <ele>1312</ele>
        <time>2022-07-27T14:41:35.000Z</time>
      </trkpt>
      <trkpt lat="42.36167904920876026153564453125" lon="2.428013384342193603515625">
        <ele>1312.199951171875</ele>
        <time>2022-07-27T14:41:36.000Z</time>
      </trkpt>
      <trkpt lat="42.36175616271793842315673828125" lon="2.42817104794085025787353515625">
        <ele>1326</ele>
        <time>2022-07-27T14:56:47.000Z</time>
      </trkpt>
      <trkpt lat="42.36176605336368083953857421875" lon="2.42832376621663570404052734375">
        <ele>1326</ele>
        <time>2022-07-27T14:56:52.000Z</time>
      </trkpt>
      <trkpt lat="42.36187753267586231231689453125" lon="2.42862291634082794189453125">
        <ele>1326.199951171875</ele>
        <time>2022-07-27T14:57:00.000Z</time>
      </trkpt>
      <trkpt lat="42.36207383684813976287841796875" lon="2.4288587830960750579833984375">
        <ele>1327</ele>
        <time>2022-07-27T14:57:08.000Z</time>
      </trkpt>
      <trkpt lat="42.362201325595378875732421875" lon="2.42895509116351604461669921875">
        <ele>1327.199951171875</ele>
        <time>2022-07-27T14:57:12.000Z</time>
      </trkpt>
      <trkpt lat="42.36229998059570789337158203125" lon="2.42900638841092586517333984375">
        <ele>1327.4000244140625</ele>
        <time>2022-07-27T14:57:15.000Z</time>
      </trkpt>
      <trkpt lat="42.3625850491225719451904296875" lon="2.42908769287168979644775390625">
        <ele>1328.199951171875</ele>
        <time>2022-07-27T14:57:23.000Z</time>
      </trkpt>
      <trkpt lat="42.362618409097194671630859375" lon="2.42909540422260761260986328125">
        <ele>1328.4000244140625</ele>
        <time>2022-07-27T14:57:24.000Z</time>
      </trkpt>
      <trkpt lat="42.36289274878799915313720703125" lon="2.42913479916751384735107421875">
        <ele>1329.4000244140625</ele>
        <time>2022-07-27T14:57:32.000Z</time>
      </trkpt>
      <trkpt lat="42.36308318562805652618408203125" lon="2.42919825017452239990234375">
        <ele>1329.800048828125</ele>
        <time>2022-07-27T14:57:37.000Z</time>
      </trkpt>
      <trkpt lat="42.36327932216227054595947265625" lon="2.429248206317424774169921875">
        <ele>1330.4000244140625</ele>
        <time>2022-07-27T14:57:42.000Z</time>
      </trkpt>
      <trkpt lat="42.36347814090549945831298828125" lon="2.4292990006506443023681640625">
        <ele>1331</ele>
        <time>2022-07-27T14:57:47.000Z</time>
      </trkpt>
      <trkpt lat="42.363560199737548828125" lon="2.42931358516216278076171875">
        <ele>1331.4000244140625</ele>
        <time>2022-07-27T14:57:49.000Z</time>
      </trkpt>
      <trkpt lat="42.36386404372751712799072265625" lon="2.4293502978980541229248046875">
        <ele>1332.4000244140625</ele>
        <time>2022-07-27T14:57:56.000Z</time>
      </trkpt>
      <trkpt lat="42.36390746198594570159912109375" lon="2.42935406975448131561279296875">
        <ele>1332.5999755859375</ele>
        <time>2022-07-27T14:57:57.000Z</time>
      </trkpt>
      <trkpt lat="42.36425078473985195159912109375" lon="2.42937988601624965667724609375">
        <ele>1333</ele>
        <time>2022-07-27T14:58:05.000Z</time>
      </trkpt>
      <trkpt lat="42.36454884521663188934326171875" lon="2.42939195595681667327880859375">
        <ele>1333.5999755859375</ele>
        <time>2022-07-27T14:58:12.000Z</time>
      </trkpt>
      <trkpt lat="42.36479242332279682159423828125" lon="2.42931333370506763458251953125">
        <ele>1334.4000244140625</ele>
        <time>2022-07-27T14:58:18.000Z</time>
      </trkpt>
      <trkpt lat="42.36482997424900531768798828125" lon="2.4292882718145847320556640625">
        <ele>1334.5999755859375</ele>
        <time>2022-07-27T14:58:19.000Z</time>
      </trkpt>
      <trkpt lat="42.3649698682129383087158203125" lon="2.42915608920156955718994140625">
        <ele>1335.5999755859375</ele>
        <time>2022-07-27T14:58:23.000Z</time>
      </trkpt>
      <trkpt lat="42.3650027252733707427978515625" lon="2.429118789732456207275390625">
        <ele>1336.199951171875</ele>
        <time>2022-07-27T14:58:24.000Z</time>
      </trkpt>
      <trkpt lat="42.3650335706770420074462890625" lon="2.42907796986401081085205078125">
        <ele>1336.4000244140625</ele>
        <time>2022-07-27T14:58:25.000Z</time>
      </trkpt>
      <trkpt lat="42.36508478410542011260986328125" lon="2.42898912169039249420166015625">
        <ele>1336.800048828125</ele>
        <time>2022-07-27T14:58:27.000Z</time>
      </trkpt>
      <trkpt lat="42.36513256095349788665771484375" lon="2.428896166384220123291015625">
        <ele>1337</ele>
        <time>2022-07-27T14:58:29.000Z</time>
      </trkpt>
      <trkpt lat="42.36515686847269535064697265625" lon="2.428849898278713226318359375">
        <ele>1337.199951171875</ele>
        <time>2022-07-27T14:58:30.000Z</time>
      </trkpt>
      <trkpt lat="42.36521135084331035614013671875" lon="2.4287602119147777557373046875">
        <ele>1337.5999755859375</ele>
        <time>2022-07-27T14:58:32.000Z</time>
      </trkpt>
      <trkpt lat="42.36536021344363689422607421875" lon="2.4286120198667049407958984375">
        <ele>1338</ele>
        <time>2022-07-27T14:58:36.000Z</time>
      </trkpt>
      <trkpt lat="42.365445792675018310546875" lon="2.42856147699058055877685546875">
        <ele>1338</ele>
        <time>2022-07-27T14:58:38.000Z</time>
      </trkpt>
      <trkpt lat="42.3656182922422885894775390625" lon="2.42849827744066715240478515625">
        <ele>1338.199951171875</ele>
        <time>2022-07-27T14:58:42.000Z</time>
      </trkpt>
      <trkpt lat="42.3658092319965362548828125" lon="2.42854781448841094970703125">
        <ele>1338.4000244140625</ele>
        <time>2022-07-27T14:58:47.000Z</time>
      </trkpt>
      <trkpt lat="42.3659192025661468505859375" lon="2.428627945482730865478515625">
        <ele>1339</ele>
        <time>2022-07-27T14:58:51.000Z</time>
      </trkpt>
      <trkpt lat="42.36596672795712947845458984375" lon="2.42867463268339633941650390625">
        <ele>1339.5999755859375</ele>
        <time>2022-07-27T14:58:53.000Z</time>
      </trkpt>
      <trkpt lat="42.36603596247732639312744140625" lon="2.42875727824866771697998046875">
        <ele>1340.199951171875</ele>
        <time>2022-07-27T14:58:56.000Z</time>
      </trkpt>
      <trkpt lat="42.36615280620753765106201171875" lon="2.42891552858054637908935546875">
        <ele>1341.199951171875</ele>
        <time>2022-07-27T14:59:01.000Z</time>
      </trkpt>
      <trkpt lat="42.36631910316646099090576171875" lon="2.4291171133518218994140625">
        <ele>1342.4000244140625</ele>
        <time>2022-07-27T14:59:08.000Z</time>
      </trkpt>
      <trkpt lat="42.36634173430502414703369140625" lon="2.42914502508938312530517578125">
        <ele>1342.5999755859375</ele>
        <time>2022-07-27T14:59:09.000Z</time>
      </trkpt>
      <trkpt lat="42.3664782755076885223388671875" lon="2.42932104505598545074462890625">
        <ele>1343.4000244140625</ele>
        <time>2022-07-27T14:59:15.000Z</time>
      </trkpt>
      <trkpt lat="42.36650115810334682464599609375" lon="2.42935205809772014617919921875">
        <ele>1343.5999755859375</ele>
        <time>2022-07-27T14:59:16.000Z</time>
      </trkpt>
      <trkpt lat="42.36661448143422603607177734375" lon="2.42949890904128551483154296875">
        <ele>1344.5999755859375</ele>
        <time>2022-07-27T14:59:21.000Z</time>
      </trkpt>
      <trkpt lat="42.36663677729666233062744140625" lon="2.42952656932175159454345703125">
        <ele>1344.800048828125</ele>
        <time>2022-07-27T14:59:22.000Z</time>
      </trkpt>
      <trkpt lat="42.36676099710166454315185546875" lon="2.4296911060810089111328125">
        <ele>1345.5999755859375</ele>
        <time>2022-07-27T14:59:28.000Z</time>
      </trkpt>
      <trkpt lat="42.36684213392436504364013671875" lon="2.42979009635746479034423828125">
        <ele>1346.199951171875</ele>
        <time>2022-07-27T14:59:32.000Z</time>
      </trkpt>
      <trkpt lat="42.3669303953647613525390625" lon="2.4298840574920177459716796875">
        <ele>1346.800048828125</ele>
        <time>2022-07-27T14:59:36.000Z</time>
      </trkpt>
      <trkpt lat="42.3669751547276973724365234375" lon="2.4299244582653045654296875">
        <ele>1347.199951171875</ele>
        <time>2022-07-27T14:59:38.000Z</time>
      </trkpt>
      <trkpt lat="42.3670214228332042694091796875" lon="2.42995329201221466064453125">
        <ele>1347.800048828125</ele>
        <time>2022-07-27T14:59:40.000Z</time>
      </trkpt>
      <trkpt lat="42.36712552607059478759765625" lon="2.43000584654510021209716796875">
        <ele>1348.5999755859375</ele>
        <time>2022-07-27T14:59:44.000Z</time>
      </trkpt>
      <trkpt lat="42.3671521805226802825927734375" lon="2.4300178326666355133056640625">
        <ele>1349</ele>
        <time>2022-07-27T14:59:45.000Z</time>
      </trkpt>
      <trkpt lat="42.3672795854508876800537109375" lon="2.43002931587398052215576171875">
        <ele>1349.5999755859375</ele>
        <time>2022-07-27T14:59:50.000Z</time>
      </trkpt>
      <trkpt lat="42.36733264289796352386474609375" lon="2.43002227507531642913818359375">
        <ele>1350</ele>
        <time>2022-07-27T14:59:52.000Z</time>
      </trkpt>
      <trkpt lat="42.36749726347625255584716796875" lon="2.4299973808228969573974609375">
        <ele>1351</ele>
        <time>2022-07-27T14:59:58.000Z</time>
      </trkpt>
      <trkpt lat="42.367553003132343292236328125" lon="2.42998304776847362518310546875">
        <ele>1351.4000244140625</ele>
        <time>2022-07-27T15:00:00.000Z</time>
      </trkpt>
      <trkpt lat="42.3677104152739048004150390625" lon="2.42996276356279850006103515625">
        <ele>1352</ele>
        <time>2022-07-27T15:00:06.000Z</time>
      </trkpt>
      <trkpt lat="42.36773530952632427215576171875" lon="2.4299588240683078765869140625">
        <ele>1352</ele>
        <time>2022-07-27T15:00:07.000Z</time>
      </trkpt>
      <trkpt lat="42.3678986728191375732421875" lon="2.42993208579719066619873046875">
        <ele>1353.199951171875</ele>
        <time>2022-07-27T15:00:13.000Z</time>
      </trkpt>
      <trkpt lat="42.368040494620800018310546875" lon="2.4299159087240695953369140625">
        <ele>1353.800048828125</ele>
        <time>2022-07-27T15:00:18.000Z</time>
      </trkpt>
      <trkpt lat="42.3681588470935821533203125" lon="2.42990375496447086334228515625">
        <ele>1354.199951171875</ele>
        <time>2022-07-27T15:00:22.000Z</time>
      </trkpt>
      <trkpt lat="42.36824425868690013885498046875" lon="2.4298833869397640228271484375">
        <ele>1354.800048828125</ele>
        <time>2022-07-27T15:00:25.000Z</time>
      </trkpt>
      <trkpt lat="42.36839421093463897705078125" lon="2.42984868586063385009765625">
        <ele>1355.4000244140625</ele>
        <time>2022-07-27T15:00:30.000Z</time>
      </trkpt>
      <trkpt lat="42.3684932850301265716552734375" lon="2.429806105792522430419921875">
        <ele>1355.800048828125</ele>
        <time>2022-07-27T15:00:33.000Z</time>
      </trkpt>
      <trkpt lat="42.3685502819716930389404296875" lon="2.42977567948400974273681640625">
        <ele>1356.4000244140625</ele>
        <time>2022-07-27T15:00:35.000Z</time>
      </trkpt>
      <trkpt lat="42.36865094862878322601318359375" lon="2.42970141582190990447998046875">
        <ele>1357.5999755859375</ele>
        <time>2022-07-27T15:00:39.000Z</time>
      </trkpt>
      <trkpt lat="42.3687014915049076080322265625" lon="2.4296574108302593231201171875">
        <ele>1358</ele>
        <time>2022-07-27T15:00:41.000Z</time>
      </trkpt>
      <trkpt lat="42.3687511123716831207275390625" lon="2.4296186864376068115234375">
        <ele>1358.5999755859375</ele>
        <time>2022-07-27T15:00:43.000Z</time>
      </trkpt>
      <trkpt lat="42.368835769593715667724609375" lon="2.4295380525290966033935546875">
        <ele>1359.199951171875</ele>
        <time>2022-07-27T15:00:47.000Z</time>
      </trkpt>
      <trkpt lat="42.3689029924571514129638671875" lon="2.4294874258339405059814453125">
        <ele>1359.5999755859375</ele>
        <time>2022-07-27T15:00:50.000Z</time>
      </trkpt>
      <trkpt lat="42.36900231800973415374755859375" lon="2.42937385104596614837646484375">
        <ele>1360</ele>
        <time>2022-07-27T15:00:54.000Z</time>
      </trkpt>
      <trkpt lat="42.36905663274228572845458984375" lon="2.4293345399200916290283203125">
        <ele>1360.4000244140625</ele>
        <time>2022-07-27T15:00:56.000Z</time>
      </trkpt>
      <trkpt lat="42.36920918338000774383544921875" lon="2.429281733930110931396484375">
        <ele>1361.4000244140625</ele>
        <time>2022-07-27T15:01:01.000Z</time>
      </trkpt>
      <trkpt lat="42.36926986835896968841552734375" lon="2.42929304949939250946044921875">
        <ele>1361.5999755859375</ele>
        <time>2022-07-27T15:01:03.000Z</time>
      </trkpt>
      <trkpt lat="42.3693824373185634613037109375" lon="2.42935708723962306976318359375">
        <ele>1361.800048828125</ele>
        <time>2022-07-27T15:01:07.000Z</time>
      </trkpt>
      <trkpt lat="42.36950975842773914337158203125" lon="2.429531849920749664306640625">
        <ele>1362.4000244140625</ele>
        <time>2022-07-27T15:01:13.000Z</time>
      </trkpt>
      <trkpt lat="42.369525767862796783447265625" lon="2.4296141602098941802978515625">
        <ele>1362.5999755859375</ele>
        <time>2022-07-27T15:01:15.000Z</time>
      </trkpt>
      <trkpt lat="42.3695393465459346771240234375" lon="2.4297261424362659454345703125">
        <ele>1363</ele>
        <time>2022-07-27T15:01:18.000Z</time>
      </trkpt>
      <trkpt lat="42.36952283419668674468994140625" lon="2.42987626232206821441650390625">
        <ele>1363.4000244140625</ele>
        <time>2022-07-27T15:01:22.000Z</time>
      </trkpt>
      <trkpt lat="42.36951378174126148223876953125" lon="2.42991934530436992645263671875">
        <ele>1363.5999755859375</ele>
        <time>2022-07-27T15:01:23.000Z</time>
      </trkpt>
      <trkpt lat="42.36943666823208332061767578125" lon="2.43023450486361980438232421875">
        <ele>1364.5999755859375</ele>
        <time>2022-07-27T15:01:30.000Z</time>
      </trkpt>
      <trkpt lat="42.36942543648183345794677734375" lon="2.43027892895042896270751953125">
        <ele>1364.800048828125</ele>
        <time>2022-07-27T15:01:31.000Z</time>
      </trkpt>
      <trkpt lat="42.36934262327849864959716796875" lon="2.4306300468742847442626953125">
        <ele>1365.5999755859375</ele>
        <time>2022-07-27T15:01:39.000Z</time>
      </trkpt>
      <trkpt lat="42.36932267434895038604736328125" lon="2.4307182244956493377685546875">
        <ele>1366</ele>
        <time>2022-07-27T15:01:41.000Z</time>
      </trkpt>
      <trkpt lat="42.36928244121372699737548828125" lon="2.4309019558131694793701171875">
        <ele>1366.800048828125</ele>
        <time>2022-07-27T15:01:45.000Z</time>
      </trkpt>
      <trkpt lat="42.369244806468486785888671875" lon="2.43113857693970203399658203125">
        <ele>1367.199951171875</ele>
        <time>2022-07-27T15:01:50.000Z</time>
      </trkpt>
      <trkpt lat="42.36924044787883758544921875" lon="2.4312322027981281280517578125">
        <ele>1367.800048828125</ele>
        <time>2022-07-27T15:01:52.000Z</time>
      </trkpt>
      <trkpt lat="42.3692530207335948944091796875" lon="2.43136681616306304931640625">
        <ele>1368.4000244140625</ele>
        <time>2022-07-27T15:01:55.000Z</time>
      </trkpt>
      <trkpt lat="42.3692597262561321258544921875" lon="2.43145591579377651214599609375">
        <ele>1369</ele>
        <time>2022-07-27T15:01:57.000Z</time>
      </trkpt>
      <trkpt lat="42.36930708400905132293701171875" lon="2.4316154234111309051513671875">
        <ele>1369.4000244140625</ele>
        <time>2022-07-27T15:02:01.000Z</time>
      </trkpt>
      <trkpt lat="42.36934144981205463409423828125" lon="2.43168490938842296600341796875">
        <ele>1370</ele>
        <time>2022-07-27T15:02:03.000Z</time>
      </trkpt>
      <trkpt lat="42.3694323934614658355712890625" lon="2.431811392307281494140625">
        <ele>1370.5999755859375</ele>
        <time>2022-07-27T15:02:07.000Z</time>
      </trkpt>
      <trkpt lat="42.3695373348891735076904296875" lon="2.43190015666186809539794921875">
        <ele>1371.199951171875</ele>
        <time>2022-07-27T15:02:11.000Z</time>
      </trkpt>
      <trkpt lat="42.36959257163107395172119140625" lon="2.4319359473884105682373046875">
        <ele>1371.5999755859375</ele>
        <time>2022-07-27T15:02:13.000Z</time>
      </trkpt>
      <trkpt lat="42.369793318212032318115234375" lon="2.432044409215450286865234375">
        <ele>1372.199951171875</ele>
        <time>2022-07-27T15:02:20.000Z</time>
      </trkpt>
      <trkpt lat="42.36985224299132823944091796875" lon="2.4320730753242969512939453125">
        <ele>1372.800048828125</ele>
        <time>2022-07-27T15:02:22.000Z</time>
      </trkpt>
      <trkpt lat="42.3700801469385623931884765625" lon="2.4321967922151088714599609375">
        <ele>1373.199951171875</ele>
        <time>2022-07-27T15:02:30.000Z</time>
      </trkpt>
      <trkpt lat="42.37025088630616664886474609375" lon="2.43229645304381847381591796875">
        <ele>1374.199951171875</ele>
        <time>2022-07-27T15:02:36.000Z</time>
      </trkpt>
      <trkpt lat="42.3702776245772838592529296875" lon="2.4323196709156036376953125">
        <ele>1374.4000244140625</ele>
        <time>2022-07-27T15:02:37.000Z</time>
      </trkpt>
      <trkpt lat="42.3704050295054912567138671875" lon="2.4324564635753631591796875">
        <ele>1375.4000244140625</ele>
        <time>2022-07-27T15:02:42.000Z</time>
      </trkpt>
      <trkpt lat="42.37046085298061370849609375" lon="2.4326460622251033782958984375">
        <ele>1376.199951171875</ele>
        <time>2022-07-27T15:02:47.000Z</time>
      </trkpt>
      <trkpt lat="42.370457835495471954345703125" lon="2.432812191545963287353515625">
        <ele>1376.4000244140625</ele>
        <time>2022-07-27T15:02:52.000Z</time>
      </trkpt>
      <trkpt lat="42.370449788868427276611328125" lon="2.43285016156733036041259765625">
        <ele>1376.5999755859375</ele>
        <time>2022-07-27T15:02:53.000Z</time>
      </trkpt>
      <trkpt lat="42.37040226347744464874267578125" lon="2.4329897202551364898681640625">
        <ele>1377.800048828125</ele>
        <time>2022-07-27T15:02:57.000Z</time>
      </trkpt>
      <trkpt lat="42.37036806531250476837158203125" lon="2.43305861949920654296875">
        <ele>1378.199951171875</ele>
        <time>2022-07-27T15:02:59.000Z</time>
      </trkpt>
      <trkpt lat="42.3703057877719402313232421875" lon="2.4331637285649776458740234375">
        <ele>1378.800048828125</ele>
        <time>2022-07-27T15:03:02.000Z</time>
      </trkpt>
      <trkpt lat="42.3702253215014934539794921875" lon="2.43329389952123165130615234375">
        <ele>1380</ele>
        <time>2022-07-27T15:03:06.000Z</time>
      </trkpt>
      <trkpt lat="42.370145022869110107421875" lon="2.4334658123552799224853515625">
        <ele>1381</ele>
        <time>2022-07-27T15:03:11.000Z</time>
      </trkpt>
      <trkpt lat="42.3701244033873081207275390625" lon="2.43350747041404247283935546875">
        <ele>1381.199951171875</ele>
        <time>2022-07-27T15:03:12.000Z</time>
      </trkpt>
      <trkpt lat="42.36999607644975185394287109375" lon="2.43379865773022174835205078125">
        <ele>1382.199951171875</ele>
        <time>2022-07-27T15:03:19.000Z</time>
      </trkpt>
      <trkpt lat="42.36996858380734920501708984375" lon="2.43396185338497161865234375">
        <ele>1383.4000244140625</ele>
        <time>2022-07-27T15:03:24.000Z</time>
      </trkpt>
      <trkpt lat="42.36994452774524688720703125" lon="2.43409386835992336273193359375">
        <ele>1384.4000244140625</ele>
        <time>2022-07-27T15:03:28.000Z</time>
      </trkpt>
      <trkpt lat="42.36994989216327667236328125" lon="2.4341289885342121124267578125">
        <ele>1384.5999755859375</ele>
        <time>2022-07-27T15:03:29.000Z</time>
      </trkpt>
      <trkpt lat="42.36992985941469669342041015625" lon="2.43426821194589138031005859375">
        <ele>1385</ele>
        <time>2022-07-27T15:03:33.000Z</time>
      </trkpt>
      <trkpt lat="42.36994394101202487945556640625" lon="2.4344025738537311553955078125">
        <ele>1385.5999755859375</ele>
        <time>2022-07-27T15:03:37.000Z</time>
      </trkpt>
      <trkpt lat="42.36992164514958858489990234375" lon="2.4345299787819385528564453125">
        <ele>1386.4000244140625</ele>
        <time>2022-07-27T15:03:41.000Z</time>
      </trkpt>
      <trkpt lat="42.36993606202304363250732421875" lon="2.4345915019512176513671875">
        <ele>1386.800048828125</ele>
        <time>2022-07-27T15:03:43.000Z</time>
      </trkpt>
      <trkpt lat="42.369916699826717376708984375" lon="2.4346815235912799835205078125">
        <ele>1387.4000244140625</ele>
        <time>2022-07-27T15:03:46.000Z</time>
      </trkpt>
      <trkpt lat="42.36990454606711864471435546875" lon="2.43478688411414623260498046875">
        <ele>1387.800048828125</ele>
        <time>2022-07-27T15:03:49.000Z</time>
      </trkpt>
      <trkpt lat="42.36988929100334644317626953125" lon="2.43489702232182025909423828125">
        <ele>1388.4000244140625</ele>
        <time>2022-07-27T15:03:52.000Z</time>
      </trkpt>
      <trkpt lat="42.369868420064449310302734375" lon="2.434968017041683197021484375">
        <ele>1388.800048828125</ele>
        <time>2022-07-27T15:03:54.000Z</time>
      </trkpt>
      <trkpt lat="42.3698022030293941497802734375" lon="2.43511629290878772735595703125">
        <ele>1389.5999755859375</ele>
        <time>2022-07-27T15:03:58.000Z</time>
      </trkpt>
      <trkpt lat="42.36978225409984588623046875" lon="2.4351495690643787384033203125">
        <ele>1390.199951171875</ele>
        <time>2022-07-27T15:03:59.000Z</time>
      </trkpt>
      <trkpt lat="42.3696774803102016448974609375" lon="2.435255348682403564453125">
        <ele>1391.199951171875</ele>
        <time>2022-07-27T15:04:04.000Z</time>
      </trkpt>
      <trkpt lat="42.36955066211521625518798828125" lon="2.43530337698757648468017578125">
        <ele>1392</ele>
        <time>2022-07-27T15:04:09.000Z</time>
      </trkpt>
      <trkpt lat="42.3694934137165546417236328125" lon="2.435312010347843170166015625">
        <ele>1392.5999755859375</ele>
        <time>2022-07-27T15:04:11.000Z</time>
      </trkpt>
      <trkpt lat="42.3694087564945220947265625" lon="2.435301281511783599853515625">
        <ele>1393.199951171875</ele>
        <time>2022-07-27T15:04:14.000Z</time>
      </trkpt>
      <trkpt lat="42.3693381808698177337646484375" lon="2.43530404753983020782470703125">
        <ele>1394</ele>
        <time>2022-07-27T15:04:17.000Z</time>
      </trkpt>
      <trkpt lat="42.36931446008384227752685546875" lon="2.4352991022169589996337890625">
        <ele>1394.4000244140625</ele>
        <time>2022-07-27T15:04:18.000Z</time>
      </trkpt>
      <trkpt lat="42.369212619960308074951171875" lon="2.4352793209254741668701171875">
        <ele>1394.800048828125</ele>
        <time>2022-07-27T15:04:22.000Z</time>
      </trkpt>
      <trkpt lat="42.36915771849453449249267578125" lon="2.43528594262897968292236328125">
        <ele>1395.4000244140625</ele>
        <time>2022-07-27T15:04:24.000Z</time>
      </trkpt>
      <trkpt lat="42.36907876096665859222412109375" lon="2.4352957494556903839111328125">
        <ele>1396</ele>
        <time>2022-07-27T15:04:27.000Z</time>
      </trkpt>
      <trkpt lat="42.36900801770389080047607421875" lon="2.43530270643532276153564453125">
        <ele>1396.4000244140625</ele>
        <time>2022-07-27T15:04:30.000Z</time>
      </trkpt>
      <trkpt lat="42.36895370297133922576904296875" lon="2.43529566563665866851806640625">
        <ele>1396.5999755859375</ele>
        <time>2022-07-27T15:04:32.000Z</time>
      </trkpt>
      <trkpt lat="42.36890106461942195892333984375" lon="2.4353084899485111236572265625">
        <ele>1396.800048828125</ele>
        <time>2022-07-27T15:04:34.000Z</time>
      </trkpt>
      <trkpt lat="42.36884909681975841522216796875" lon="2.43532575666904449462890625">
        <ele>1397.199951171875</ele>
        <time>2022-07-27T15:04:36.000Z</time>
      </trkpt>
      <trkpt lat="42.36879696138203144073486328125" lon="2.43531829677522182464599609375">
        <ele>1397.5999755859375</ele>
        <time>2022-07-27T15:04:38.000Z</time>
      </trkpt>
      <trkpt lat="42.3687735758721828460693359375" lon="2.435323409736156463623046875">
        <ele>1397.800048828125</ele>
        <time>2022-07-27T15:04:39.000Z</time>
      </trkpt>
      <trkpt lat="42.36870375461876392364501953125" lon="2.4353584460914134979248046875">
        <ele>1398.4000244140625</ele>
        <time>2022-07-27T15:04:42.000Z</time>
      </trkpt>
      <trkpt lat="42.36865212209522724151611328125" lon="2.4353532493114471435546875">
        <ele>1398.5999755859375</ele>
        <time>2022-07-27T15:04:44.000Z</time>
      </trkpt>
      <trkpt lat="42.36858003772795200347900390625" lon="2.4353869445621967315673828125">
        <ele>1399</ele>
        <time>2022-07-27T15:04:47.000Z</time>
      </trkpt>
      <trkpt lat="42.368457578122615814208984375" lon="2.4354583583772182464599609375">
        <ele>1399.5999755859375</ele>
        <time>2022-07-27T15:04:52.000Z</time>
      </trkpt>
      <trkpt lat="42.36831433139741420745849609375" lon="2.435582578182220458984375">
        <ele>1400.4000244140625</ele>
        <time>2022-07-27T15:04:58.000Z</time>
      </trkpt>
      <trkpt lat="42.3682948015630245208740234375" lon="2.435609735548496246337890625">
        <ele>1400.5999755859375</ele>
        <time>2022-07-27T15:04:59.000Z</time>
      </trkpt>
      <trkpt lat="42.36821358092129230499267578125" lon="2.43570386432111263275146484375">
        <ele>1400.800048828125</ele>
        <time>2022-07-27T15:05:03.000Z</time>
      </trkpt>
      <trkpt lat="42.36810679547488689422607421875" lon="2.43581148795783519744873046875">
        <ele>1401</ele>
        <time>2022-07-27T15:05:08.000Z</time>
      </trkpt>
      <trkpt lat="42.368015684187412261962890625" lon="2.4358972348272800445556640625">
        <ele>1401.800048828125</ele>
        <time>2022-07-27T15:05:12.000Z</time>
      </trkpt>
      <trkpt lat="42.36796296201646327972412109375" lon="2.43591844104230403900146484375">
        <ele>1401.800048828125</ele>
        <time>2022-07-27T15:05:14.000Z</time>
      </trkpt>
      <trkpt lat="42.36784628592431545257568359375" lon="2.4359860830008983612060546875">
        <ele>1402.4000244140625</ele>
        <time>2022-07-27T15:05:19.000Z</time>
      </trkpt>
      <trkpt lat="42.36782030202448368072509765625" lon="2.4359844066202640533447265625">
        <ele>1402.800048828125</ele>
        <time>2022-07-27T15:05:20.000Z</time>
      </trkpt>
      <trkpt lat="42.36771670170128345489501953125" lon="2.4360286630690097808837890625">
        <ele>1403.5999755859375</ele>
        <time>2022-07-27T15:05:24.000Z</time>
      </trkpt>
      <trkpt lat="42.36761033535003662109375" lon="2.43603578768670558929443359375">
        <ele>1403.800048828125</ele>
        <time>2022-07-27T15:05:28.000Z</time>
      </trkpt>
      <trkpt lat="42.3675860278308391571044921875" lon="2.4360511265695095062255859375">
        <ele>1404</ele>
        <time>2022-07-27T15:05:29.000Z</time>
      </trkpt>
      <trkpt lat="42.367421574890613555908203125" lon="2.43612010963261127471923828125">
        <ele>1405</ele>
        <time>2022-07-27T15:05:35.000Z</time>
      </trkpt>
      <trkpt lat="42.36729450523853302001953125" lon="2.43622538633644580841064453125">
        <ele>1406</ele>
        <time>2022-07-27T15:05:40.000Z</time>
      </trkpt>
      <trkpt lat="42.36727145500481128692626953125" lon="2.43624935857951641082763671875">
        <ele>1406.4000244140625</ele>
        <time>2022-07-27T15:05:41.000Z</time>
      </trkpt>
      <trkpt lat="42.367200292646884918212890625" lon="2.43629864417016506195068359375">
        <ele>1407.199951171875</ele>
        <time>2022-07-27T15:05:44.000Z</time>
      </trkpt>
      <trkpt lat="42.3671830259263515472412109375" lon="2.43632630445063114166259765625">
        <ele>1407.199951171875</ele>
        <time>2022-07-27T15:05:45.000Z</time>
      </trkpt>
      <trkpt lat="42.36705319024622440338134765625" lon="2.4364759214222431182861328125">
        <ele>1407.5999755859375</ele>
        <time>2022-07-27T15:05:51.000Z</time>
      </trkpt>
      <trkpt lat="42.3670321516692638397216796875" lon="2.43650081567466259002685546875">
        <ele>1408</ele>
        <time>2022-07-27T15:05:52.000Z</time>
      </trkpt>
      <trkpt lat="42.36701463349163532257080078125" lon="2.43652964942157268524169921875">
        <ele>1408.199951171875</ele>
        <time>2022-07-27T15:05:53.000Z</time>
      </trkpt>
      <trkpt lat="42.36692477948963642120361328125" lon="2.436669878661632537841796875">
        <ele>1408.800048828125</ele>
        <time>2022-07-27T15:05:58.000Z</time>
      </trkpt>
      <trkpt lat="42.366868369281291961669921875" lon="2.436778508126735687255859375">
        <ele>1409.199951171875</ele>
        <time>2022-07-27T15:06:02.000Z</time>
      </trkpt>
      <trkpt lat="42.3667729832231998443603515625" lon="2.43703122250735759735107421875">
        <ele>1410</ele>
        <time>2022-07-27T15:06:10.000Z</time>
      </trkpt>
      <trkpt lat="42.36675881780683994293212890625" lon="2.43706122972071170806884765625">
        <ele>1410.4000244140625</ele>
        <time>2022-07-27T15:06:11.000Z</time>
      </trkpt>
      <trkpt lat="42.3666908405721187591552734375" lon="2.43721880950033664703369140625">
        <ele>1411.4000244140625</ele>
        <time>2022-07-27T15:06:16.000Z</time>
      </trkpt>
      <trkpt lat="42.3666663654148578643798828125" lon="2.437287457287311553955078125">
        <ele>1411.800048828125</ele>
        <time>2022-07-27T15:06:18.000Z</time>
      </trkpt>
      <trkpt lat="42.36663090996444225311279296875" lon="2.4373945780098438262939453125">
        <ele>1412.5999755859375</ele>
        <time>2022-07-27T15:06:21.000Z</time>
      </trkpt>
      <trkpt lat="42.36659637652337551116943359375" lon="2.43750412948429584503173828125">
        <ele>1413</ele>
        <time>2022-07-27T15:06:24.000Z</time>
      </trkpt>
      <trkpt lat="42.36650015227496623992919921875" lon="2.43769724853336811065673828125">
        <ele>1413.5999755859375</ele>
        <time>2022-07-27T15:06:30.000Z</time>
      </trkpt>
      <trkpt lat="42.3664527945220470428466796875" lon="2.43778810836374759674072265625">
        <ele>1414</ele>
        <time>2022-07-27T15:06:33.000Z</time>
      </trkpt>
      <trkpt lat="42.3664276488125324249267578125" lon="2.43784963153302669525146484375">
        <ele>1414.199951171875</ele>
        <time>2022-07-27T15:06:35.000Z</time>
      </trkpt>
      <trkpt lat="42.3663672991096973419189453125" lon="2.4379249848425388336181640625">
        <ele>1414.5999755859375</ele>
        <time>2022-07-27T15:06:38.000Z</time>
      </trkpt>
      <trkpt lat="42.36634776927530765533447265625" lon="2.43795071728527545928955078125">
        <ele>1414.800048828125</ele>
        <time>2022-07-27T15:06:39.000Z</time>
      </trkpt>
      <trkpt lat="42.3662868328392505645751953125" lon="2.4380756914615631103515625">
        <ele>1415.199951171875</ele>
        <time>2022-07-27T15:06:43.000Z</time>
      </trkpt>
      <trkpt lat="42.36624064855277538299560546875" lon="2.4381673894822597503662109375">
        <ele>1415.800048828125</ele>
        <time>2022-07-27T15:06:46.000Z</time>
      </trkpt>
      <trkpt lat="42.3662040196359157562255859375" lon="2.43821910582482814788818359375">
        <ele>1416.5999755859375</ele>
        <time>2022-07-27T15:06:48.000Z</time>
      </trkpt>
      <trkpt lat="42.36619521863758563995361328125" lon="2.43825204670429229736328125">
        <ele>1417.199951171875</ele>
        <time>2022-07-27T15:06:49.000Z</time>
      </trkpt>
      <trkpt lat="42.366189099848270416259765625" lon="2.4382875859737396240234375">
        <ele>1417.4000244140625</ele>
        <time>2022-07-27T15:06:50.000Z</time>
      </trkpt>
      <trkpt lat="42.36615397967398166656494140625" lon="2.43838858790695667266845703125">
        <ele>1417.800048828125</ele>
        <time>2022-07-27T15:06:53.000Z</time>
      </trkpt>
      <trkpt lat="42.3661069571971893310546875" lon="2.43850149214267730712890625">
        <ele>1418.199951171875</ele>
        <time>2022-07-27T15:06:57.000Z</time>
      </trkpt>
      <trkpt lat="42.366099245846271514892578125" lon="2.43853233754634857177734375">
        <ele>1418.4000244140625</ele>
        <time>2022-07-27T15:06:58.000Z</time>
      </trkpt>
      <trkpt lat="42.36608658917248249053955078125" lon="2.43859427981078624725341796875">
        <ele>1418.4000244140625</ele>
        <time>2022-07-27T15:07:00.000Z</time>
      </trkpt>
      <trkpt lat="42.366048283874988555908203125" lon="2.43876434862613677978515625">
        <ele>1419.5999755859375</ele>
        <time>2022-07-27T15:07:04.000Z</time>
      </trkpt>
      <trkpt lat="42.36603227443993091583251953125" lon="2.43881690315902233123779296875">
        <ele>1419.5999755859375</ele>
        <time>2022-07-27T15:07:05.000Z</time>
      </trkpt>
      <trkpt lat="42.365954406559467315673828125" lon="2.43899644352495670318603515625">
        <ele>1420.4000244140625</ele>
        <time>2022-07-27T15:07:10.000Z</time>
      </trkpt>
      <trkpt lat="42.36593890003859996795654296875" lon="2.43905461393296718597412109375">
        <ele>1420.5999755859375</ele>
        <time>2022-07-27T15:07:12.000Z</time>
      </trkpt>
      <trkpt lat="42.36592381261289119720458984375" lon="2.4390786699950695037841796875">
        <ele>1420.5999755859375</ele>
        <time>2022-07-27T15:07:13.000Z</time>
      </trkpt>
      <trkpt lat="42.36590352840721607208251953125" lon="2.43909719400107860565185546875">
        <ele>1420.5999755859375</ele>
        <time>2022-07-27T15:07:14.000Z</time>
      </trkpt>
      <trkpt lat="42.36583647318184375762939453125" lon="2.43916475214064121246337890625">
        <ele>1421.4000244140625</ele>
        <time>2022-07-27T15:07:17.000Z</time>
      </trkpt>
      <trkpt lat="42.36581484787166118621826171875" lon="2.4391896463930606842041015625">
        <ele>1421.4000244140625</ele>
        <time>2022-07-27T15:07:18.000Z</time>
      </trkpt>
      <trkpt lat="42.36577478237450122833251953125" lon="2.439244799315929412841796875">
        <ele>1421.5999755859375</ele>
        <time>2022-07-27T15:07:20.000Z</time>
      </trkpt>
      <trkpt lat="42.3655921407043933868408203125" lon="2.4394813366234302520751953125">
        <ele>1422.5999755859375</ele>
        <time>2022-07-27T15:07:29.000Z</time>
      </trkpt>
      <trkpt lat="42.36548401415348052978515625" lon="2.43963464163243770599365234375">
        <ele>1423.800048828125</ele>
        <time>2022-07-27T15:07:35.000Z</time>
      </trkpt>
      <trkpt lat="42.36543799750506877899169921875" lon="2.43971510790288448333740234375">
        <ele>1424</ele>
        <time>2022-07-27T15:07:38.000Z</time>
      </trkpt>
      <trkpt lat="42.36538452096283435821533203125" lon="2.43982625193893909454345703125">
        <ele>1424.800048828125</ele>
        <time>2022-07-27T15:07:42.000Z</time>
      </trkpt>
      <trkpt lat="42.36535300500690937042236328125" lon="2.439874447882175445556640625">
        <ele>1425.199951171875</ele>
        <time>2022-07-27T15:07:44.000Z</time>
      </trkpt>
      <trkpt lat="42.36531914211809635162353515625" lon="2.43994049727916717529296875">
        <ele>1425.800048828125</ele>
        <time>2022-07-27T15:07:49.000Z</time>
      </trkpt>
      <trkpt lat="42.36531981267035007476806640625" lon="2.43994125165045261383056640625">
        <ele>1426.800048828125</ele>
        <time>2022-07-27T15:07:55.000Z</time>
      </trkpt>
      <trkpt lat="42.36532039940357208251953125" lon="2.43994141928851604461669921875">
        <ele>1427.5999755859375</ele>
        <time>2022-07-27T15:07:58.000Z</time>
      </trkpt>
      <trkpt lat="42.36532048322260379791259765625" lon="2.4399413354694843292236328125">
        <ele>1427.800048828125</ele>
        <time>2022-07-27T15:08:02.000Z</time>
      </trkpt>
      <trkpt lat="42.36522945575416088104248046875" lon="2.440260685980319976806640625">
        <ele>1427.199951171875</ele>
        <time>2022-07-27T15:08:34.000Z</time>
      </trkpt>
      <trkpt lat="42.3652230016887187957763671875" lon="2.44029832072556018829345703125">
        <ele>1427.199951171875</ele>
        <time>2022-07-27T15:08:35.000Z</time>
      </trkpt>
      <trkpt lat="42.36520045436918735504150390625" lon="2.44045145809650421142578125">
        <ele>1427.5999755859375</ele>
        <time>2022-07-27T15:08:39.000Z</time>
      </trkpt>
      <trkpt lat="42.3651894740760326385498046875" lon="2.44054223410785198211669921875">
        <ele>1427.800048828125</ele>
        <time>2022-07-27T15:08:42.000Z</time>
      </trkpt>
      <trkpt lat="42.36517564393579959869384765625" lon="2.44057693518698215484619140625">
        <ele>1428.5999755859375</ele>
        <time>2022-07-27T15:08:44.000Z</time>
      </trkpt>
      <trkpt lat="42.3652119375765323638916015625" lon="2.4406719021499156951904296875">
        <ele>1430.800048828125</ele>
        <time>2022-07-27T15:09:06.000Z</time>
      </trkpt>
      <trkpt lat="42.36521269194781780242919921875" lon="2.44070149026811122894287109375">
        <ele>1430.800048828125</ele>
        <time>2022-07-27T15:09:07.000Z</time>
      </trkpt>
      <trkpt lat="42.36522157676517963409423828125" lon="2.44091338478028774261474609375">
        <ele>1430.5999755859375</ele>
        <time>2022-07-27T15:09:12.000Z</time>
      </trkpt>
      <trkpt lat="42.36528687179088592529296875" lon="2.44123038835823535919189453125">
        <ele>1430.4000244140625</ele>
        <time>2022-07-27T15:09:19.000Z</time>
      </trkpt>
      <trkpt lat="42.3653996922075748443603515625" lon="2.44149575941264629364013671875">
        <ele>1430.800048828125</ele>
        <time>2022-07-27T15:09:26.000Z</time>
      </trkpt>
      <trkpt lat="42.3654739558696746826171875" lon="2.4416210688650608062744140625">
        <ele>1431.800048828125</ele>
        <time>2022-07-27T15:09:30.000Z</time>
      </trkpt>
      <trkpt lat="42.36555241048336029052734375" lon="2.4417518265545368194580078125">
        <ele>1432.800048828125</ele>
        <time>2022-07-27T15:09:34.000Z</time>
      </trkpt>
      <trkpt lat="42.36557411961257457733154296875" lon="2.4417823366820812225341796875">
        <ele>1433</ele>
        <time>2022-07-27T15:09:35.000Z</time>
      </trkpt>
      <trkpt lat="42.36563648097217082977294921875" lon="2.441864646971225738525390625">
        <ele>1434</ele>
        <time>2022-07-27T15:09:38.000Z</time>
      </trkpt>
      <trkpt lat="42.36569465138018131256103515625" lon="2.4419442750513553619384765625">
        <ele>1434.4000244140625</ele>
        <time>2022-07-27T15:09:41.000Z</time>
      </trkpt>
      <trkpt lat="42.36582825891673564910888671875" lon="2.44212540797889232635498046875">
        <ele>1435</ele>
        <time>2022-07-27T15:09:48.000Z</time>
      </trkpt>
      <trkpt lat="42.3658486269414424896240234375" lon="2.44214803911745548248291015625">
        <ele>1435.199951171875</ele>
        <time>2022-07-27T15:09:49.000Z</time>
      </trkpt>
      <trkpt lat="42.3659626208245754241943359375" lon="2.4422792159020900726318359375">
        <ele>1435.800048828125</ele>
        <time>2022-07-27T15:09:55.000Z</time>
      </trkpt>
      <trkpt lat="42.36605155281722545623779296875" lon="2.4423449300229549407958984375">
        <ele>1436.4000244140625</ele>
        <time>2022-07-27T15:09:59.000Z</time>
      </trkpt>
      <trkpt lat="42.3661020956933498382568359375" lon="2.44237200357019901275634765625">
        <ele>1437</ele>
        <time>2022-07-27T15:10:01.000Z</time>
      </trkpt>
      <trkpt lat="42.36612531356513500213623046875" lon="2.44238960556685924530029296875">
        <ele>1437.4000244140625</ele>
        <time>2022-07-27T15:10:02.000Z</time>
      </trkpt>
      <trkpt lat="42.3662388883531093597412109375" lon="2.4424565769731998443603515625">
        <ele>1438.199951171875</ele>
        <time>2022-07-27T15:10:07.000Z</time>
      </trkpt>
      <trkpt lat="42.3662643693387508392333984375" lon="2.44245733134448528289794921875">
        <ele>1438.5999755859375</ele>
        <time>2022-07-27T15:10:08.000Z</time>
      </trkpt>
      <trkpt lat="42.3662898503243923187255859375" lon="2.44245800189673900604248046875">
        <ele>1438.5999755859375</ele>
        <time>2022-07-27T15:10:09.000Z</time>
      </trkpt>
      <trkpt lat="42.3664289899170398712158203125" lon="2.4425236321985721588134765625">
        <ele>1439.4000244140625</ele>
        <time>2022-07-27T15:10:15.000Z</time>
      </trkpt>
      <trkpt lat="42.36647517420351505279541015625" lon="2.44253612123429775238037109375">
        <ele>1439.5999755859375</ele>
        <time>2022-07-27T15:10:17.000Z</time>
      </trkpt>
      <trkpt lat="42.36656284891068935394287109375" lon="2.44256713427603244781494140625">
        <ele>1440</ele>
        <time>2022-07-27T15:10:21.000Z</time>
      </trkpt>
      <trkpt lat="42.3666985519230365753173828125" lon="2.44260854087769985198974609375">
        <ele>1440.5999755859375</ele>
        <time>2022-07-27T15:10:27.000Z</time>
      </trkpt>
      <trkpt lat="42.36672311089932918548583984375" lon="2.44261440820991992950439453125">
        <ele>1440.800048828125</ele>
        <time>2022-07-27T15:10:28.000Z</time>
      </trkpt>
      <trkpt lat="42.36686937510967254638671875" lon="2.442674003541469573974609375">
        <ele>1441.800048828125</ele>
        <time>2022-07-27T15:10:33.000Z</time>
      </trkpt>
      <trkpt lat="42.36689812503755092620849609375" lon="2.44268397800624370574951171875">
        <ele>1442.199951171875</ele>
        <time>2022-07-27T15:10:34.000Z</time>
      </trkpt>
      <trkpt lat="42.36704095266759395599365234375" lon="2.4428009055554866790771484375">
        <ele>1442.800048828125</ele>
        <time>2022-07-27T15:10:40.000Z</time>
      </trkpt>
      <trkpt lat="42.36706157214939594268798828125" lon="2.44282311759889125823974609375">
        <ele>1443</ele>
        <time>2022-07-27T15:10:41.000Z</time>
      </trkpt>
      <trkpt lat="42.36712753772735595703125" lon="2.4429293163120746612548828125">
        <ele>1444.199951171875</ele>
        <time>2022-07-27T15:10:45.000Z</time>
      </trkpt>
      <trkpt lat="42.367141284048557281494140625" lon="2.44295923970639705657958984375">
        <ele>1444.4000244140625</ele>
        <time>2022-07-27T15:10:46.000Z</time>
      </trkpt>
      <trkpt lat="42.36717774532735347747802734375" lon="2.4430537037551403045654296875">
        <ele>1445.199951171875</ele>
        <time>2022-07-27T15:10:49.000Z</time>
      </trkpt>
      <trkpt lat="42.36721630208194255828857421875" lon="2.44326065294444561004638671875">
        <ele>1446</ele>
        <time>2022-07-27T15:10:55.000Z</time>
      </trkpt>
      <trkpt lat="42.36721538007259368896484375" lon="2.443297617137432098388671875">
        <ele>1446.4000244140625</ele>
        <time>2022-07-27T15:10:56.000Z</time>
      </trkpt>
      <trkpt lat="42.36720171757042407989501953125" lon="2.4434443004429340362548828125">
        <ele>1447.199951171875</ele>
        <time>2022-07-27T15:11:00.000Z</time>
      </trkpt>
      <trkpt lat="42.3672004602849483489990234375" lon="2.4435044825077056884765625">
        <ele>1448</ele>
        <time>2022-07-27T15:11:02.000Z</time>
      </trkpt>
      <trkpt lat="42.36719635315239429473876953125" lon="2.44352996349334716796875">
        <ele>1448.4000244140625</ele>
        <time>2022-07-27T15:11:03.000Z</time>
      </trkpt>
      <trkpt lat="42.3671632446348667144775390625" lon="2.44360783137381076812744140625">
        <ele>1449</ele>
        <time>2022-07-27T15:11:06.000Z</time>
      </trkpt>
      <trkpt lat="42.36714270897209644317626953125" lon="2.4437001161277294158935546875">
        <ele>1449.5999755859375</ele>
        <time>2022-07-27T15:11:09.000Z</time>
      </trkpt>
      <trkpt lat="42.367130219936370849609375" lon="2.44375468231737613677978515625">
        <ele>1450</ele>
        <time>2022-07-27T15:11:11.000Z</time>
      </trkpt>
      <trkpt lat="42.36711773090064525604248046875" lon="2.4437780678272247314453125">
        <ele>1450</ele>
        <time>2022-07-27T15:11:12.000Z</time>
      </trkpt>
      <trkpt lat="42.367099039256572723388671875" lon="2.443860210478305816650390625">
        <ele>1450</ele>
        <time>2022-07-27T15:11:15.000Z</time>
      </trkpt>
      <trkpt lat="42.36709275282919406890869140625" lon="2.44391393847763538360595703125">
        <ele>1450.199951171875</ele>
        <time>2022-07-27T15:11:17.000Z</time>
      </trkpt>
      <trkpt lat="42.36706207506358623504638671875" lon="2.4439619667828083038330078125">
        <ele>1450.5999755859375</ele>
        <time>2022-07-27T15:11:19.000Z</time>
      </trkpt>
      <trkpt lat="42.36703592352569103240966796875" lon="2.4440477974712848663330078125">
        <ele>1451</ele>
        <time>2022-07-27T15:11:22.000Z</time>
      </trkpt>
      <trkpt lat="42.366993762552738189697265625" lon="2.44421870447695255279541015625">
        <ele>1451.5999755859375</ele>
        <time>2022-07-27T15:11:28.000Z</time>
      </trkpt>
      <trkpt lat="42.36698462627828121185302734375" lon="2.44424418546259403228759765625">
        <ele>1452</ele>
        <time>2022-07-27T15:11:29.000Z</time>
      </trkpt>
      <trkpt lat="42.3669818602502346038818359375" lon="2.44429866783320903778076171875">
        <ele>1453.199951171875</ele>
        <time>2022-07-27T15:11:31.000Z</time>
      </trkpt>
      <trkpt lat="42.3669711314141750335693359375" lon="2.4443532340228557586669921875">
        <ele>1453.4000244140625</ele>
        <time>2022-07-27T15:11:33.000Z</time>
      </trkpt>
      <trkpt lat="42.36696098931133747100830078125" lon="2.444374524056911468505859375">
        <ele>1453.4000244140625</ele>
        <time>2022-07-27T15:11:34.000Z</time>
      </trkpt>
      <trkpt lat="42.3669332452118396759033203125" lon="2.44449757039546966552734375">
        <ele>1453.800048828125</ele>
        <time>2022-07-27T15:11:39.000Z</time>
      </trkpt>
      <trkpt lat="42.3669342510402202606201171875" lon="2.4446013383567333221435546875">
        <ele>1454</ele>
        <time>2022-07-27T15:11:43.000Z</time>
      </trkpt>
      <trkpt lat="42.36693701706826686859130859375" lon="2.444653473794460296630859375">
        <ele>1454.4000244140625</ele>
        <time>2022-07-27T15:11:45.000Z</time>
      </trkpt>
      <trkpt lat="42.3669679462909698486328125" lon="2.44479772634804248809814453125">
        <ele>1455.199951171875</ele>
        <time>2022-07-27T15:11:49.000Z</time>
      </trkpt>
      <trkpt lat="42.366974651813507080078125" lon="2.44486494921147823333740234375">
        <ele>1455.5999755859375</ele>
        <time>2022-07-27T15:11:51.000Z</time>
      </trkpt>
      <trkpt lat="42.3670217581093311309814453125" lon="2.445075251162052154541015625">
        <ele>1456.199951171875</ele>
        <time>2022-07-27T15:11:58.000Z</time>
      </trkpt>
      <trkpt lat="42.36703030765056610107421875" lon="2.44510433636605739593505859375">
        <ele>1456.4000244140625</ele>
        <time>2022-07-27T15:11:59.000Z</time>
      </trkpt>
      <trkpt lat="42.36706123687326908111572265625" lon="2.44522889144718647003173828125">
        <ele>1457.199951171875</ele>
        <time>2022-07-27T15:12:03.000Z</time>
      </trkpt>
      <trkpt lat="42.36706341616809368133544921875" lon="2.44526124559342861175537109375">
        <ele>1457.4000244140625</ele>
        <time>2022-07-27T15:12:04.000Z</time>
      </trkpt>
      <trkpt lat="42.367093674838542938232421875" lon="2.44541564024984836578369140625">
        <ele>1458.199951171875</ele>
        <time>2022-07-27T15:12:09.000Z</time>
      </trkpt>
      <trkpt lat="42.36711270175874233245849609375" lon="2.445469200611114501953125">
        <ele>1458.5999755859375</ele>
        <time>2022-07-27T15:12:11.000Z</time>
      </trkpt>
      <trkpt lat="42.36713851802051067352294921875" lon="2.44557581841945648193359375">
        <ele>1459</ele>
        <time>2022-07-27T15:12:15.000Z</time>
      </trkpt>
      <trkpt lat="42.3671401105821132659912109375" lon="2.44563080370426177978515625">
        <ele>1459.199951171875</ele>
        <time>2022-07-27T15:12:17.000Z</time>
      </trkpt>
      <trkpt lat="42.3671598918735980987548828125" lon="2.44572258554399013519287109375">
        <ele>1459.5999755859375</ele>
        <time>2022-07-27T15:12:20.000Z</time>
      </trkpt>
      <trkpt lat="42.367185540497303009033203125" lon="2.44591436348855495452880859375">
        <ele>1460.5999755859375</ele>
        <time>2022-07-27T15:12:26.000Z</time>
      </trkpt>
      <trkpt lat="42.36721261404454708099365234375" lon="2.4460802413523197174072265625">
        <ele>1461.5999755859375</ele>
        <time>2022-07-27T15:12:31.000Z</time>
      </trkpt>
      <trkpt lat="42.36721848137676715850830078125" lon="2.44611519388854503631591796875">
        <ele>1461.800048828125</ele>
        <time>2022-07-27T15:12:32.000Z</time>
      </trkpt>
      <trkpt lat="42.36727095209062099456787109375" lon="2.44639129377901554107666015625">
        <ele>1462.5999755859375</ele>
        <time>2022-07-27T15:12:40.000Z</time>
      </trkpt>
      <trkpt lat="42.367280088365077972412109375" lon="2.44642029516398906707763671875">
        <ele>1462.800048828125</ele>
        <time>2022-07-27T15:12:41.000Z</time>
      </trkpt>
      <trkpt lat="42.36730230040848255157470703125" lon="2.446547448635101318359375">
        <ele>1463.5999755859375</ele>
        <time>2022-07-27T15:12:46.000Z</time>
      </trkpt>
      <trkpt lat="42.367314957082271575927734375" lon="2.4465905316174030303955078125">
        <ele>1463.800048828125</ele>
        <time>2022-07-27T15:12:48.000Z</time>
      </trkpt>
      <trkpt lat="42.3673541843891143798828125" lon="2.44673587381839752197265625">
        <ele>1464.5999755859375</ele>
        <time>2022-07-27T15:12:53.000Z</time>
      </trkpt>
      <trkpt lat="42.36736432649195194244384765625" lon="2.44678205810487270355224609375">
        <ele>1464.800048828125</ele>
        <time>2022-07-27T15:12:54.000Z</time>
      </trkpt>
      <trkpt lat="42.3674130253493785858154296875" lon="2.44698087684810161590576171875">
        <ele>1465.5999755859375</ele>
        <time>2022-07-27T15:12:59.000Z</time>
      </trkpt>
      <trkpt lat="42.367421574890613555908203125" lon="2.447113730013370513916015625">
        <ele>1466</ele>
        <time>2022-07-27T15:13:03.000Z</time>
      </trkpt>
      <trkpt lat="42.36742937006056308746337890625" lon="2.44714180938899517059326171875">
        <ele>1466</ele>
        <time>2022-07-27T15:13:04.000Z</time>
      </trkpt>
      <trkpt lat="42.3674619756639003753662109375" lon="2.44726217351853847503662109375">
        <ele>1467</ele>
        <time>2022-07-27T15:13:08.000Z</time>
      </trkpt>
      <trkpt lat="42.36748091876506805419921875" lon="2.44732805527746677398681640625">
        <ele>1467.199951171875</ele>
        <time>2022-07-27T15:13:10.000Z</time>
      </trkpt>
      <trkpt lat="42.36754990182816982269287109375" lon="2.447477169334888458251953125">
        <ele>1468</ele>
        <time>2022-07-27T15:13:15.000Z</time>
      </trkpt>
      <trkpt lat="42.367575466632843017578125" lon="2.4475350044667720794677734375">
        <ele>1468.199951171875</ele>
        <time>2022-07-27T15:13:17.000Z</time>
      </trkpt>
      <trkpt lat="42.36765123903751373291015625" lon="2.447729967534542083740234375">
        <ele>1469</ele>
        <time>2022-07-27T15:13:24.000Z</time>
      </trkpt>
      <trkpt lat="42.36768652684986591339111328125" lon="2.44781739078462123870849609375">
        <ele>1469.5999755859375</ele>
        <time>2022-07-27T15:13:27.000Z</time>
      </trkpt>
      <trkpt lat="42.36779297702014446258544921875" lon="2.44803096167743206024169921875">
        <ele>1470.199951171875</ele>
        <time>2022-07-27T15:13:34.000Z</time>
      </trkpt>
      <trkpt lat="42.3678529076278209686279296875" lon="2.4481814168393611907958984375">
        <ele>1471</ele>
        <time>2022-07-27T15:13:39.000Z</time>
      </trkpt>
      <trkpt lat="42.36786447465419769287109375" lon="2.4482095800340175628662109375">
        <ele>1471</ele>
        <time>2022-07-27T15:13:40.000Z</time>
      </trkpt>
      <trkpt lat="42.3678827472031116485595703125" lon="2.44826565496623516082763671875">
        <ele>1471.4000244140625</ele>
        <time>2022-07-27T15:13:42.000Z</time>
      </trkpt>
      <trkpt lat="42.3679414205253124237060546875" lon="2.4483718536794185638427734375">
        <ele>1471.800048828125</ele>
        <time>2022-07-27T15:13:46.000Z</time>
      </trkpt>
      <trkpt lat="42.36797603778541088104248046875" lon="2.44845542125403881072998046875">
        <ele>1472.199951171875</ele>
        <time>2022-07-27T15:13:49.000Z</time>
      </trkpt>
      <trkpt lat="42.36798961646854877471923828125" lon="2.44851912371814250946044921875">
        <ele>1472.5999755859375</ele>
        <time>2022-07-27T15:13:51.000Z</time>
      </trkpt>
      <trkpt lat="42.368036806583404541015625" lon="2.44863948784768581390380859375">
        <ele>1473.4000244140625</ele>
        <time>2022-07-27T15:13:55.000Z</time>
      </trkpt>
      <trkpt lat="42.36806086264550685882568359375" lon="2.44870050810277462005615234375">
        <ele>1473.800048828125</ele>
        <time>2022-07-27T15:13:57.000Z</time>
      </trkpt>
      <trkpt lat="42.3680973239243030548095703125" lon="2.4487959779798984527587890625">
        <ele>1474.4000244140625</ele>
        <time>2022-07-27T15:14:00.000Z</time>
      </trkpt>
      <trkpt lat="42.36814769916236400604248046875" lon="2.44895875453948974609375">
        <ele>1475</ele>
        <time>2022-07-27T15:14:05.000Z</time>
      </trkpt>
      <trkpt lat="42.368198074400424957275390625" lon="2.44913971982896327972412109375">
        <ele>1475.5999755859375</ele>
        <time>2022-07-27T15:14:11.000Z</time>
      </trkpt>
      <trkpt lat="42.36820670776069164276123046875" lon="2.44916738010942935943603515625">
        <ele>1475.800048828125</ele>
        <time>2022-07-27T15:14:12.000Z</time>
      </trkpt>
      <trkpt lat="42.36827091313898563385009765625" lon="2.44936603121459484100341796875">
        <ele>1476.800048828125</ele>
        <time>2022-07-27T15:14:18.000Z</time>
      </trkpt>
      <trkpt lat="42.36827711574733257293701171875" lon="2.44940609671175479888916015625">
        <ele>1477</ele>
        <time>2022-07-27T15:14:19.000Z</time>
      </trkpt>
      <trkpt lat="42.36830435693264007568359375" lon="2.44951958768069744110107421875">
        <ele>1477.800048828125</ele>
        <time>2022-07-27T15:14:22.000Z</time>
      </trkpt>
      <trkpt lat="42.36832422204315662384033203125" lon="2.4496227689087390899658203125">
        <ele>1478</ele>
        <time>2022-07-27T15:14:25.000Z</time>
      </trkpt>
      <trkpt lat="42.3683658801019191741943359375" lon="2.44977707974612712860107421875">
        <ele>1478.800048828125</ele>
        <time>2022-07-27T15:14:30.000Z</time>
      </trkpt>
      <trkpt lat="42.36837468110024929046630859375" lon="2.44980566203594207763671875">
        <ele>1479</ele>
        <time>2022-07-27T15:14:31.000Z</time>
      </trkpt>
      <trkpt lat="42.3683984018862247467041015625" lon="2.4499831907451152801513671875">
        <ele>1479.800048828125</ele>
        <time>2022-07-27T15:14:36.000Z</time>
      </trkpt>
      <trkpt lat="42.36840653233230113983154296875" lon="2.45001479052007198333740234375">
        <ele>1479.800048828125</ele>
        <time>2022-07-27T15:14:37.000Z</time>
      </trkpt>
      <trkpt lat="42.368421368300914764404296875" lon="2.4501836858689785003662109375">
        <ele>1480.5999755859375</ele>
        <time>2022-07-27T15:14:42.000Z</time>
      </trkpt>
      <trkpt lat="42.3684195242822170257568359375" lon="2.45025753043591976165771484375">
        <ele>1481</ele>
        <time>2022-07-27T15:14:44.000Z</time>
      </trkpt>
      <trkpt lat="42.3684426583349704742431640625" lon="2.45035149157047271728515625">
        <ele>1481.4000244140625</ele>
        <time>2022-07-27T15:14:47.000Z</time>
      </trkpt>
      <trkpt lat="42.36844249069690704345703125" lon="2.45038057677447795867919921875">
        <ele>1481.4000244140625</ele>
        <time>2022-07-27T15:14:48.000Z</time>
      </trkpt>
      <trkpt lat="42.36843218095600605010986328125" lon="2.45047177188098430633544921875">
        <ele>1482</ele>
        <time>2022-07-27T15:14:51.000Z</time>
      </trkpt>
      <trkpt lat="42.3684297502040863037109375" lon="2.45050328783690929412841796875">
        <ele>1482</ele>
        <time>2022-07-27T15:14:52.000Z</time>
      </trkpt>
      <trkpt lat="42.36844810657203197479248046875" lon="2.45064745657145977020263671875">
        <ele>1482.800048828125</ele>
        <time>2022-07-27T15:14:57.000Z</time>
      </trkpt>
      <trkpt lat="42.36843151040375232696533203125" lon="2.4508495442569255828857421875">
        <ele>1484</ele>
        <time>2022-07-27T15:15:03.000Z</time>
      </trkpt>
      <trkpt lat="42.36842514015734195709228515625" lon="2.4511117301881313323974609375">
        <ele>1485</ele>
        <time>2022-07-27T15:15:11.000Z</time>
      </trkpt>
      <trkpt lat="42.368422709405422210693359375" lon="2.4511449225246906280517578125">
        <ele>1485.199951171875</ele>
        <time>2022-07-27T15:15:12.000Z</time>
      </trkpt>
      <trkpt lat="42.36842581070959568023681640625" lon="2.45130325667560100555419921875">
        <ele>1486</ele>
        <time>2022-07-27T15:15:17.000Z</time>
      </trkpt>
      <trkpt lat="42.3684136569499969482421875" lon="2.45136000216007232666015625">
        <ele>1486.4000244140625</ele>
        <time>2022-07-27T15:15:19.000Z</time>
      </trkpt>
      <trkpt lat="42.36839563585817813873291015625" lon="2.45154800824820995330810546875">
        <ele>1487</ele>
        <time>2022-07-27T15:15:25.000Z</time>
      </trkpt>
      <trkpt lat="42.36839194782078266143798828125" lon="2.45157734490931034088134765625">
        <ele>1487.199951171875</ele>
        <time>2022-07-27T15:15:26.000Z</time>
      </trkpt>
      <trkpt lat="42.3683625273406505584716796875" lon="2.45176543481647968292236328125">
        <ele>1487.800048828125</ele>
        <time>2022-07-27T15:15:32.000Z</time>
      </trkpt>
      <trkpt lat="42.3683412373065948486328125" lon="2.4518568813800811767578125">
        <ele>1488.199951171875</ele>
        <time>2022-07-27T15:15:35.000Z</time>
      </trkpt>
      <trkpt lat="42.3683439195156097412109375" lon="2.4519482441246509552001953125">
        <ele>1488.4000244140625</ele>
        <time>2022-07-27T15:15:38.000Z</time>
      </trkpt>
      <trkpt lat="42.36831181682646274566650390625" lon="2.45211236178874969482421875">
        <ele>1488.800048828125</ele>
        <time>2022-07-27T15:15:44.000Z</time>
      </trkpt>
      <trkpt lat="42.36830309964716434478759765625" lon="2.4521742202341556549072265625">
        <ele>1489.4000244140625</ele>
        <time>2022-07-27T15:15:46.000Z</time>
      </trkpt>
      <trkpt lat="42.36829270608723163604736328125" lon="2.4522774852812290191650390625">
        <ele>1490.4000244140625</ele>
        <time>2022-07-27T15:15:49.000Z</time>
      </trkpt>
      <trkpt lat="42.3682773672044277191162109375" lon="2.452404387295246124267578125">
        <ele>1491</ele>
        <time>2022-07-27T15:15:52.000Z</time>
      </trkpt>
      <trkpt lat="42.36825146712362766265869140625" lon="2.4525971710681915283203125">
        <ele>1491.4000244140625</ele>
        <time>2022-07-27T15:15:56.000Z</time>
      </trkpt>
      <trkpt lat="42.368237636983394622802734375" lon="2.45268342085182666778564453125">
        <ele>1491.800048828125</ele>
        <time>2022-07-27T15:15:58.000Z</time>
      </trkpt>
      <trkpt lat="42.36821207217872142791748046875" lon="2.45287301950156688690185546875">
        <ele>1492.800048828125</ele>
        <time>2022-07-27T15:16:03.000Z</time>
      </trkpt>
      <trkpt lat="42.368208132684230804443359375" lon="2.45294242165982723236083984375">
        <ele>1493.199951171875</ele>
        <time>2022-07-27T15:16:05.000Z</time>
      </trkpt>
      <trkpt lat="42.36818902194499969482421875" lon="2.4530425854027271270751953125">
        <ele>1493.800048828125</ele>
        <time>2022-07-27T15:16:08.000Z</time>
      </trkpt>
      <trkpt lat="42.36818675883114337921142578125" lon="2.453075610101222991943359375">
        <ele>1494</ele>
        <time>2022-07-27T15:16:09.000Z</time>
      </trkpt>
      <trkpt lat="42.3681291751563549041748046875" lon="2.45323754847049713134765625">
        <ele>1494.5999755859375</ele>
        <time>2022-07-27T15:16:14.000Z</time>
      </trkpt>
      <trkpt lat="42.36811987124383449554443359375" lon="2.45327174663543701171875">
        <ele>1494.800048828125</ele>
        <time>2022-07-27T15:16:15.000Z</time>
      </trkpt>
      <trkpt lat="42.36802498809993267059326171875" lon="2.4535351060330867767333984375">
        <ele>1495.5999755859375</ele>
        <time>2022-07-27T15:16:23.000Z</time>
      </trkpt>
      <trkpt lat="42.36801375634968280792236328125" lon="2.45356754399836063385009765625">
        <ele>1495.800048828125</ele>
        <time>2022-07-27T15:16:24.000Z</time>
      </trkpt>
      <trkpt lat="42.367958016693592071533203125" lon="2.45371338911354541778564453125">
        <ele>1496.800048828125</ele>
        <time>2022-07-27T15:16:29.000Z</time>
      </trkpt>
      <trkpt lat="42.3678663186728954315185546875" lon="2.4538643471896648406982421875">
        <ele>1498</ele>
        <time>2022-07-27T15:16:35.000Z</time>
      </trkpt>
      <trkpt lat="42.36779834143817424774169921875" lon="2.45404757559299468994140625">
        <ele>1498.800048828125</ele>
        <time>2022-07-27T15:16:41.000Z</time>
      </trkpt>
      <trkpt lat="42.36776112578809261322021484375" lon="2.45409660972654819488525390625">
        <ele>1499.199951171875</ele>
        <time>2022-07-27T15:16:43.000Z</time>
      </trkpt>
      <trkpt lat="42.36771351657807826995849609375" lon="2.4542267806828022003173828125">
        <ele>1500.199951171875</ele>
        <time>2022-07-27T15:16:47.000Z</time>
      </trkpt>
      <trkpt lat="42.36762634478509426116943359375" lon="2.4543588794767856597900390625">
        <ele>1500.5999755859375</ele>
        <time>2022-07-27T15:16:52.000Z</time>
      </trkpt>
      <trkpt lat="42.367507405579090118408203125" lon="2.4546321295201778411865234375">
        <ele>1501.4000244140625</ele>
        <time>2022-07-27T15:17:00.000Z</time>
      </trkpt>
      <trkpt lat="42.3674914799630641937255859375" lon="2.45466792024672031402587890625">
        <ele>1501.4000244140625</ele>
        <time>2022-07-27T15:17:01.000Z</time>
      </trkpt>
      <trkpt lat="42.3673677630722522735595703125" lon="2.4549897015094757080078125">
        <ele>1502.4000244140625</ele>
        <time>2022-07-27T15:17:09.000Z</time>
      </trkpt>
      <trkpt lat="42.367351837456226348876953125" lon="2.45503353886306285858154296875">
        <ele>1502.4000244140625</ele>
        <time>2022-07-27T15:17:10.000Z</time>
      </trkpt>
      <trkpt lat="42.367211692035198211669921875" lon="2.45541055686771869659423828125">
        <ele>1502.800048828125</ele>
        <time>2022-07-27T15:17:18.000Z</time>
      </trkpt>
      <trkpt lat="42.367066182196140289306640625" lon="2.45584725402295589447021484375">
        <ele>1502.5999755859375</ele>
        <time>2022-07-27T15:17:26.000Z</time>
      </trkpt>
      <trkpt lat="42.3669932596385478973388671875" lon="2.456248663365840911865234375">
        <ele>1502</ele>
        <time>2022-07-27T15:17:33.000Z</time>
      </trkpt>
      <trkpt lat="42.36705712974071502685546875" lon="2.4565093405544757843017578125">
        <ele>1501.800048828125</ele>
        <time>2022-07-27T15:17:38.000Z</time>
      </trkpt>
      <trkpt lat="42.36707724630832672119140625" lon="2.45654999278485774993896484375">
        <ele>1501.5999755859375</ele>
        <time>2022-07-27T15:17:39.000Z</time>
      </trkpt>
      <trkpt lat="42.36714287661015987396240234375" lon="2.4566568620502948760986328125">
        <ele>1502</ele>
        <time>2022-07-27T15:17:42.000Z</time>
      </trkpt>
      <trkpt lat="42.3669996298849582672119140625" lon="2.4562275409698486328125">
        <ele>1518</ele>
        <time>2022-07-27T15:50:53.000Z</time>
      </trkpt>
      <trkpt lat="42.367058806121349334716796875" lon="2.4565103463828563690185546875">
        <ele>1518</ele>
        <time>2022-07-27T15:50:59.000Z</time>
      </trkpt>
      <trkpt lat="42.36707967706024646759033203125" lon="2.45656072162091732025146484375">
        <ele>1518</ele>
        <time>2022-07-27T15:51:00.000Z</time>
      </trkpt>
      <trkpt lat="42.367205657064914703369140625" lon="2.45672039687633514404296875">
        <ele>1518</ele>
        <time>2022-07-27T15:51:04.000Z</time>
      </trkpt>
      <trkpt lat="42.36724496819078922271728515625" lon="2.45674897916615009307861328125">
        <ele>1517.800048828125</ele>
        <time>2022-07-27T15:51:05.000Z</time>
      </trkpt>
      <trkpt lat="42.36728721298277378082275390625" lon="2.45677362196147441864013671875">
        <ele>1517.800048828125</ele>
        <time>2022-07-27T15:51:06.000Z</time>
      </trkpt>
      <trkpt lat="42.3674224130809307098388671875" lon="2.456809580326080322265625">
        <ele>1517.800048828125</ele>
        <time>2022-07-27T15:51:09.000Z</time>
      </trkpt>
      <trkpt lat="42.36746943555772304534912109375" lon="2.45681519620120525360107421875">
        <ele>1517.5999755859375</ele>
        <time>2022-07-27T15:51:10.000Z</time>
      </trkpt>
      <trkpt lat="42.3678126744925975799560546875" lon="2.4568446166813373565673828125">
        <ele>1517.199951171875</ele>
        <time>2022-07-27T15:51:17.000Z</time>
      </trkpt>
      <trkpt lat="42.3682481981813907623291015625" lon="2.4568660743534564971923828125">
        <ele>1517</ele>
        <time>2022-07-27T15:51:26.000Z</time>
      </trkpt>
      <trkpt lat="42.3684439994394779205322265625" lon="2.45687655173242092132568359375">
        <ele>1517</ele>
        <time>2022-07-27T15:51:30.000Z</time>
      </trkpt>
      <trkpt lat="42.36859043128788471221923828125" lon="2.45689918287098407745361328125">
        <ele>1517</ele>
        <time>2022-07-27T15:51:33.000Z</time>
      </trkpt>
      <trkpt lat="42.3689988814294338226318359375" lon="2.45704226195812225341796875">
        <ele>1517</ele>
        <time>2022-07-27T15:51:41.000Z</time>
      </trkpt>
      <trkpt lat="42.3693921603262424468994140625" lon="2.4572848342359066009521484375">
        <ele>1517.4000244140625</ele>
        <time>2022-07-27T15:51:49.000Z</time>
      </trkpt>
      <trkpt lat="42.36977697350084781646728515625" lon="2.4575513787567615509033203125">
        <ele>1517.4000244140625</ele>
        <time>2022-07-27T15:51:56.000Z</time>
      </trkpt>
      <trkpt lat="42.3700395785272121429443359375" lon="2.45777525939047336578369140625">
        <ele>1517.199951171875</ele>
        <time>2022-07-27T15:52:00.000Z</time>
      </trkpt>
      <trkpt lat="42.37010520882904529571533203125" lon="2.45785622857511043548583984375">
        <ele>1517.199951171875</ele>
        <time>2022-07-27T15:52:01.000Z</time>
      </trkpt>
      <trkpt lat="42.3703339509665966033935546875" lon="2.4582772515714168548583984375">
        <ele>1516.800048828125</ele>
        <time>2022-07-27T15:52:05.000Z</time>
      </trkpt>
      <trkpt lat="42.37037963233888149261474609375" lon="2.45840306393802165985107421875">
        <ele>1516.5999755859375</ele>
        <time>2022-07-27T15:52:06.000Z</time>
      </trkpt>
      <trkpt lat="42.37047292292118072509765625" lon="2.4586608074605464935302734375">
        <ele>1514.800048828125</ele>
        <time>2022-07-27T15:52:08.000Z</time>
      </trkpt>
      <trkpt lat="42.37058247439563274383544921875" lon="2.4589199759066104888916015625">
        <ele>1512.800048828125</ele>
        <time>2022-07-27T15:52:10.000Z</time>
      </trkpt>
      <trkpt lat="42.3706454224884510040283203125" lon="2.4590473808348178863525390625">
        <ele>1511.800048828125</ele>
        <time>2022-07-27T15:52:11.000Z</time>
      </trkpt>
      <trkpt lat="42.37079319544136524200439453125" lon="2.45929121039807796478271484375">
        <ele>1510</ele>
        <time>2022-07-27T15:52:13.000Z</time>
      </trkpt>
      <trkpt lat="42.370873577892780303955078125" lon="2.4594114907085895538330078125">
        <ele>1508.800048828125</ele>
        <time>2022-07-27T15:52:14.000Z</time>
      </trkpt>
      <trkpt lat="42.37095496617257595062255859375" lon="2.45953428559005260467529296875">
        <ele>1508</ele>
        <time>2022-07-27T15:52:15.000Z</time>
      </trkpt>
      <trkpt lat="42.37103761173784732818603515625" lon="2.459659092128276824951171875">
        <ele>1507</ele>
        <time>2022-07-27T15:52:16.000Z</time>
      </trkpt>
      <trkpt lat="42.3712093569338321685791015625" lon="2.45991264469921588897705078125">
        <ele>1505.5999755859375</ele>
        <time>2022-07-27T15:52:18.000Z</time>
      </trkpt>
      <trkpt lat="42.3713882267475128173828125" lon="2.4601792730391025543212890625">
        <ele>1503.800048828125</ele>
        <time>2022-07-27T15:52:20.000Z</time>
      </trkpt>
      <trkpt lat="42.3715738020837306976318359375" lon="2.46045076288282871246337890625">
        <ele>1502</ele>
        <time>2022-07-27T15:52:22.000Z</time>
      </trkpt>
      <trkpt lat="42.37166910432279109954833984375" lon="2.4605816043913364410400390625">
        <ele>1501</ele>
        <time>2022-07-27T15:52:23.000Z</time>
      </trkpt>
      <trkpt lat="42.37176700495183467864990234375" lon="2.46070590801537036895751953125">
        <ele>1499.800048828125</ele>
        <time>2022-07-27T15:52:24.000Z</time>
      </trkpt>
      <trkpt lat="42.37187261693179607391357421875" lon="2.46081856079399585723876953125">
        <ele>1498.5999755859375</ele>
        <time>2022-07-27T15:52:25.000Z</time>
      </trkpt>
      <trkpt lat="42.3719888739287853240966796875" lon="2.4609145335853099822998046875">
        <ele>1497.5999755859375</ele>
        <time>2022-07-27T15:52:26.000Z</time>
      </trkpt>
      <trkpt lat="42.3721132613718509674072265625" lon="2.46099793352186679840087890625">
        <ele>1496.5999755859375</ele>
        <time>2022-07-27T15:52:27.000Z</time>
      </trkpt>
      <trkpt lat="42.3722423426806926727294921875" lon="2.4610774777829647064208984375">
        <ele>1495.4000244140625</ele>
        <time>2022-07-27T15:52:28.000Z</time>
      </trkpt>
      <trkpt lat="42.37237569876015186309814453125" lon="2.4611549265682697296142578125">
        <ele>1494</ele>
        <time>2022-07-27T15:52:29.000Z</time>
      </trkpt>
      <trkpt lat="42.3725120723247528076171875" lon="2.4612286873161792755126953125">
        <ele>1492.5999755859375</ele>
        <time>2022-07-27T15:52:30.000Z</time>
      </trkpt>
      <trkpt lat="42.3726503737270832061767578125" lon="2.46129968203604221343994140625">
        <ele>1491.4000244140625</ele>
        <time>2022-07-27T15:52:31.000Z</time>
      </trkpt>
      <trkpt lat="42.372926808893680572509765625" lon="2.4614432640373706817626953125">
        <ele>1490</ele>
        <time>2022-07-27T15:52:33.000Z</time>
      </trkpt>
      <trkpt lat="42.37319880165159702301025390625" lon="2.46157712303102016448974609375">
        <ele>1488.4000244140625</ele>
        <time>2022-07-27T15:52:35.000Z</time>
      </trkpt>
      <trkpt lat="42.37332788296043872833251953125" lon="2.461627162992954254150390625">
        <ele>1486</ele>
        <time>2022-07-27T15:52:36.000Z</time>
      </trkpt>
      <trkpt lat="42.37345419824123382568359375" lon="2.4616645462810993194580078125">
        <ele>1484.5999755859375</ele>
        <time>2022-07-27T15:52:37.000Z</time>
      </trkpt>
      <trkpt lat="42.373579926788806915283203125" lon="2.4616890214383602142333984375">
        <ele>1483.199951171875</ele>
        <time>2022-07-27T15:52:38.000Z</time>
      </trkpt>
      <trkpt lat="42.37370490096509456634521484375" lon="2.46169916354119777679443359375">
        <ele>1481.800048828125</ele>
        <time>2022-07-27T15:52:39.000Z</time>
      </trkpt>
      <trkpt lat="42.37382744438946247100830078125" lon="2.46169581077992916107177734375">
        <ele>1480.4000244140625</ele>
        <time>2022-07-27T15:52:40.000Z</time>
      </trkpt>
      <trkpt lat="42.37394361756742000579833984375" lon="2.46167804114520549774169921875">
        <ele>1479.199951171875</ele>
        <time>2022-07-27T15:52:41.000Z</time>
      </trkpt>
      <trkpt lat="42.37405576743185520172119140625" lon="2.46164484880864620208740234375">
        <ele>1478.199951171875</ele>
        <time>2022-07-27T15:52:42.000Z</time>
      </trkpt>
      <trkpt lat="42.37416171468794345855712890625" lon="2.4616011790931224822998046875">
        <ele>1477.199951171875</ele>
        <time>2022-07-27T15:52:43.000Z</time>
      </trkpt>
      <trkpt lat="42.374261207878589630126953125" lon="2.4615559168159961700439453125">
        <ele>1476.800048828125</ele>
        <time>2022-07-27T15:52:44.000Z</time>
      </trkpt>
      <trkpt lat="42.37444418482482433319091796875" lon="2.4614959023892879486083984375">
        <ele>1475.800048828125</ele>
        <time>2022-07-27T15:52:46.000Z</time>
      </trkpt>
      <trkpt lat="42.374530769884586334228515625" lon="2.46149145998060703277587890625">
        <ele>1475.4000244140625</ele>
        <time>2022-07-27T15:52:47.000Z</time>
      </trkpt>
      <trkpt lat="42.3746134154498577117919921875" lon="2.4615083076059818267822265625">
        <ele>1474.4000244140625</ele>
        <time>2022-07-27T15:52:48.000Z</time>
      </trkpt>
      <trkpt lat="42.37473419867455959320068359375" lon="2.46162707917392253875732421875">
        <ele>1473.4000244140625</ele>
        <time>2022-07-27T15:52:50.000Z</time>
      </trkpt>
      <trkpt lat="42.3747532255947589874267578125" lon="2.46172766201198101043701171875">
        <ele>1473.199951171875</ele>
        <time>2022-07-27T15:52:51.000Z</time>
      </trkpt>
      <trkpt lat="42.37473495304584503173828125" lon="2.46183612383902072906494140625">
        <ele>1473</ele>
        <time>2022-07-27T15:52:52.000Z</time>
      </trkpt>
      <trkpt lat="42.3746204562485218048095703125" lon="2.461986243724822998046875">
        <ele>1472.5999755859375</ele>
        <time>2022-07-27T15:52:54.000Z</time>
      </trkpt>
      <trkpt lat="42.37436003051698207855224609375" lon="2.46209059841930866241455078125">
        <ele>1472.199951171875</ele>
        <time>2022-07-27T15:52:57.000Z</time>
      </trkpt>
      <trkpt lat="42.37426632083952426910400390625" lon="2.4621228687465190887451171875">
        <ele>1472</ele>
        <time>2022-07-27T15:52:58.000Z</time>
      </trkpt>
      <trkpt lat="42.37396909855306148529052734375" lon="2.46221917681396007537841796875">
        <ele>1471</ele>
        <time>2022-07-27T15:53:01.000Z</time>
      </trkpt>
      <trkpt lat="42.3737551085650920867919921875" lon="2.4622750841081142425537109375">
        <ele>1470</ele>
        <time>2022-07-27T15:53:03.000Z</time>
      </trkpt>
      <trkpt lat="42.3736437968909740447998046875" lon="2.462301068007946014404296875">
        <ele>1468.4000244140625</ele>
        <time>2022-07-27T15:53:04.000Z</time>
      </trkpt>
      <trkpt lat="42.37352904863655567169189453125" lon="2.46232562698423862457275390625">
        <ele>1467.5999755859375</ele>
        <time>2022-07-27T15:53:05.000Z</time>
      </trkpt>
      <trkpt lat="42.373412288725376129150390625" lon="2.4623501859605312347412109375">
        <ele>1466.800048828125</ele>
        <time>2022-07-27T15:53:06.000Z</time>
      </trkpt>
      <trkpt lat="42.37317130900919437408447265625" lon="2.46239058673381805419921875">
        <ele>1465.199951171875</ele>
        <time>2022-07-27T15:53:08.000Z</time>
      </trkpt>
      <trkpt lat="42.3730459995567798614501953125" lon="2.46240223757922649383544921875">
        <ele>1464.4000244140625</ele>
        <time>2022-07-27T15:53:09.000Z</time>
      </trkpt>
      <trkpt lat="42.37292052246630191802978515625" lon="2.46240827254951000213623046875">
        <ele>1463.5999755859375</ele>
        <time>2022-07-27T15:53:10.000Z</time>
      </trkpt>
      <trkpt lat="42.3727978952229022979736328125" lon="2.4624098651111125946044921875">
        <ele>1462.199951171875</ele>
        <time>2022-07-27T15:53:11.000Z</time>
      </trkpt>
      <trkpt lat="42.37267895601689815521240234375" lon="2.4624065123498439788818359375">
        <ele>1461.199951171875</ele>
        <time>2022-07-27T15:53:12.000Z</time>
      </trkpt>
      <trkpt lat="42.3725591786205768585205078125" lon="2.46239653788506984710693359375">
        <ele>1460</ele>
        <time>2022-07-27T15:53:13.000Z</time>
      </trkpt>
      <trkpt lat="42.37243655137717723846435546875" lon="2.46237927116453647613525390625">
        <ele>1458.800048828125</ele>
        <time>2022-07-27T15:53:14.000Z</time>
      </trkpt>
      <trkpt lat="42.37231115810573101043701171875" lon="2.46235580183565616607666015625">
        <ele>1457.800048828125</ele>
        <time>2022-07-27T15:53:15.000Z</time>
      </trkpt>
      <trkpt lat="42.3720629699528217315673828125" lon="2.46229494921863079071044921875">
        <ele>1455.199951171875</ele>
        <time>2022-07-27T15:53:17.000Z</time>
      </trkpt>
      <trkpt lat="42.371950484812259674072265625" lon="2.46226578019559383392333984375">
        <ele>1454</ele>
        <time>2022-07-27T15:53:18.000Z</time>
      </trkpt>
      <trkpt lat="42.37184680067002773284912109375" lon="2.462244741618633270263671875">
        <ele>1453</ele>
        <time>2022-07-27T15:53:19.000Z</time>
      </trkpt>
      <trkpt lat="42.37175233662128448486328125" lon="2.46223677881062030792236328125">
        <ele>1452.4000244140625</ele>
        <time>2022-07-27T15:53:20.000Z</time>
      </trkpt>
      <trkpt lat="42.37166608683764934539794921875" lon="2.46224650181829929351806640625">
        <ele>1451.800048828125</ele>
        <time>2022-07-27T15:53:21.000Z</time>
      </trkpt>
      <trkpt lat="42.37153264693915843963623046875" lon="2.46234473772346973419189453125">
        <ele>1450</ele>
        <time>2022-07-27T15:53:23.000Z</time>
      </trkpt>
      <trkpt lat="42.371497191488742828369140625" lon="2.462433166801929473876953125">
        <ele>1449</ele>
        <time>2022-07-27T15:53:24.000Z</time>
      </trkpt>
      <trkpt lat="42.37148855812847614288330078125" lon="2.4625347554683685302734375">
        <ele>1448</ele>
        <time>2022-07-27T15:53:25.000Z</time>
      </trkpt>
      <trkpt lat="42.3715033940970897674560546875" lon="2.46263726614415645599365234375">
        <ele>1447.4000244140625</ele>
        <time>2022-07-27T15:53:26.000Z</time>
      </trkpt>
      <trkpt lat="42.3715392686426639556884765625" lon="2.4627273716032505035400390625">
        <ele>1447.199951171875</ele>
        <time>2022-07-27T15:53:27.000Z</time>
      </trkpt>
      <trkpt lat="42.37172392196953296661376953125" lon="2.46288905851542949676513671875">
        <ele>1446.4000244140625</ele>
        <time>2022-07-27T15:53:30.000Z</time>
      </trkpt>
      <trkpt lat="42.3721325397491455078125" lon="2.46308335103094577789306640625">
        <ele>1445.4000244140625</ele>
        <time>2022-07-27T15:53:35.000Z</time>
      </trkpt>
      <trkpt lat="42.37222650088369846343994140625" lon="2.46312727220356464385986328125">
        <ele>1445.4000244140625</ele>
        <time>2022-07-27T15:53:36.000Z</time>
      </trkpt>
      <trkpt lat="42.3726300895214080810546875" lon="2.4633191339671611785888671875">
        <ele>1444.199951171875</ele>
        <time>2022-07-27T15:53:40.000Z</time>
      </trkpt>
      <trkpt lat="42.3728501982986927032470703125" lon="2.46340605430305004119873046875">
        <ele>1442.800048828125</ele>
        <time>2022-07-27T15:53:42.000Z</time>
      </trkpt>
      <trkpt lat="42.373081035912036895751953125" lon="2.46346221305429935455322265625">
        <ele>1441.199951171875</ele>
        <time>2022-07-27T15:53:44.000Z</time>
      </trkpt>
      <trkpt lat="42.3732012324035167694091796875" lon="2.46347545646131038665771484375">
        <ele>1440.199951171875</ele>
        <time>2022-07-27T15:53:45.000Z</time>
      </trkpt>
      <trkpt lat="42.37332486547529697418212890625" lon="2.463479228317737579345703125">
        <ele>1439</ele>
        <time>2022-07-27T15:53:46.000Z</time>
      </trkpt>
      <trkpt lat="42.3735670186579227447509765625" lon="2.46346992440521717071533203125">
        <ele>1437.199951171875</ele>
        <time>2022-07-27T15:53:48.000Z</time>
      </trkpt>
      <trkpt lat="42.3736815154552459716796875" lon="2.46346539817750453948974609375">
        <ele>1436</ele>
        <time>2022-07-27T15:53:49.000Z</time>
      </trkpt>
      <trkpt lat="42.37389676272869110107421875" lon="2.463486604392528533935546875">
        <ele>1433.800048828125</ele>
        <time>2022-07-27T15:53:51.000Z</time>
      </trkpt>
      <trkpt lat="42.37399642355740070343017578125" lon="2.46352708898484706878662109375">
        <ele>1432.800048828125</ele>
        <time>2022-07-27T15:53:52.000Z</time>
      </trkpt>
      <trkpt lat="42.37408644519746303558349609375" lon="2.4635900370776653289794921875">
        <ele>1431.800048828125</ele>
        <time>2022-07-27T15:53:53.000Z</time>
      </trkpt>
      <trkpt lat="42.374161966145038604736328125" lon="2.46367343701422214508056640625">
        <ele>1430.4000244140625</ele>
        <time>2022-07-27T15:53:54.000Z</time>
      </trkpt>
      <trkpt lat="42.3742184601724147796630859375" lon="2.463776282966136932373046875">
        <ele>1428.800048828125</ele>
        <time>2022-07-27T15:53:55.000Z</time>
      </trkpt>
      <trkpt lat="42.37426414154469966888427734375" lon="2.46402614749968051910400390625">
        <ele>1427</ele>
        <time>2022-07-27T15:53:57.000Z</time>
      </trkpt>
      <trkpt lat="42.37421250902116298675537109375" lon="2.46428883634507656097412109375">
        <ele>1425.800048828125</ele>
        <time>2022-07-27T15:53:59.000Z</time>
      </trkpt>
      <trkpt lat="42.37415098585188388824462890625" lon="2.46441037394106388092041015625">
        <ele>1424.5999755859375</ele>
        <time>2022-07-27T15:54:00.000Z</time>
      </trkpt>
      <trkpt lat="42.37406842410564422607421875" lon="2.4645169079303741455078125">
        <ele>1424</ele>
        <time>2022-07-27T15:54:01.000Z</time>
      </trkpt>
      <trkpt lat="42.3739710263907909393310546875" lon="2.4646076001226902008056640625">
        <ele>1423.4000244140625</ele>
        <time>2022-07-27T15:54:02.000Z</time>
      </trkpt>
      <trkpt lat="42.37375318072736263275146484375" lon="2.46476543135941028594970703125">
        <ele>1421.4000244140625</ele>
        <time>2022-07-27T15:54:04.000Z</time>
      </trkpt>
      <trkpt lat="42.37363751046359539031982421875" lon="2.46483818627893924713134765625">
        <ele>1420.5999755859375</ele>
        <time>2022-07-27T15:54:05.000Z</time>
      </trkpt>
      <trkpt lat="42.373520247638225555419921875" lon="2.46491052210330963134765625">
        <ele>1419.5999755859375</ele>
        <time>2022-07-27T15:54:06.000Z</time>
      </trkpt>
      <trkpt lat="42.37340147607028484344482421875" lon="2.46498302556574344635009765625">
        <ele>1418.5999755859375</ele>
        <time>2022-07-27T15:54:07.000Z</time>
      </trkpt>
      <trkpt lat="42.3732790164649486541748046875" lon="2.46505133807659149169921875">
        <ele>1417.199951171875</ele>
        <time>2022-07-27T15:54:08.000Z</time>
      </trkpt>
      <trkpt lat="42.37315110862255096435546875" lon="2.4651074968278408050537109375">
        <ele>1416</ele>
        <time>2022-07-27T15:54:09.000Z</time>
      </trkpt>
      <trkpt lat="42.37301724962890148162841796875" lon="2.46514630503952503204345703125">
        <ele>1415</ele>
        <time>2022-07-27T15:54:10.000Z</time>
      </trkpt>
      <trkpt lat="42.37287995405495166778564453125" lon="2.465170361101627349853515625">
        <ele>1413.800048828125</ele>
        <time>2022-07-27T15:54:11.000Z</time>
      </trkpt>
      <trkpt lat="42.372739724814891815185546875" lon="2.465179748833179473876953125">
        <ele>1412.4000244140625</ele>
        <time>2022-07-27T15:54:12.000Z</time>
      </trkpt>
      <trkpt lat="42.37259882502257823944091796875" lon="2.4651753902435302734375">
        <ele>1410.800048828125</ele>
        <time>2022-07-27T15:54:13.000Z</time>
      </trkpt>
      <trkpt lat="42.3724572546780109405517578125" lon="2.465156279504299163818359375">
        <ele>1409.5999755859375</ele>
        <time>2022-07-27T15:54:14.000Z</time>
      </trkpt>
      <trkpt lat="42.372315265238285064697265625" lon="2.46512149460613727569580078125">
        <ele>1408.4000244140625</ele>
        <time>2022-07-27T15:54:15.000Z</time>
      </trkpt>
      <trkpt lat="42.37217478454113006591796875" lon="2.46507019735872745513916015625">
        <ele>1406.5999755859375</ele>
        <time>2022-07-27T15:54:16.000Z</time>
      </trkpt>
      <trkpt lat="42.37203799188137054443359375" lon="2.465004734694957733154296875">
        <ele>1405.4000244140625</ele>
        <time>2022-07-27T15:54:17.000Z</time>
      </trkpt>
      <trkpt lat="42.3719047196209430694580078125" lon="2.46492954902350902557373046875">
        <ele>1404.199951171875</ele>
        <time>2022-07-27T15:54:18.000Z</time>
      </trkpt>
      <trkpt lat="42.371775805950164794921875" lon="2.46484941802918910980224609375">
        <ele>1402.5999755859375</ele>
        <time>2022-07-27T15:54:19.000Z</time>
      </trkpt>
      <trkpt lat="42.37165133468806743621826171875" lon="2.4647631682455539703369140625">
        <ele>1401.4000244140625</ele>
        <time>2022-07-27T15:54:20.000Z</time>
      </trkpt>
      <trkpt lat="42.371530719101428985595703125" lon="2.46467440389096736907958984375">
        <ele>1400.199951171875</ele>
        <time>2022-07-27T15:54:21.000Z</time>
      </trkpt>
      <trkpt lat="42.37131052650511264801025390625" lon="2.4644969590008258819580078125">
        <ele>1398</ele>
        <time>2022-07-27T15:54:23.000Z</time>
      </trkpt>
      <trkpt lat="42.37121446989476680755615234375" lon="2.4644111283123493194580078125">
        <ele>1397</ele>
        <time>2022-07-27T15:54:24.000Z</time>
      </trkpt>
      <trkpt lat="42.37112604081630706787109375" lon="2.46433292515575885772705078125">
        <ele>1395.5999755859375</ele>
        <time>2022-07-27T15:54:25.000Z</time>
      </trkpt>
      <trkpt lat="42.37096368335187435150146484375" lon="2.4642149917781352996826171875">
        <ele>1394.5999755859375</ele>
        <time>2022-07-27T15:54:27.000Z</time>
      </trkpt>
      <trkpt lat="42.37073821015655994415283203125" lon="2.46420753188431262969970703125">
        <ele>1394.199951171875</ele>
        <time>2022-07-27T15:54:30.000Z</time>
      </trkpt>
      <trkpt lat="42.37065942026674747467041015625" lon="2.464354969561100006103515625">
        <ele>1393.5999755859375</ele>
        <time>2022-07-27T15:54:32.000Z</time>
      </trkpt>
      <trkpt lat="42.37065623514354228973388671875" lon="2.46445999480783939361572265625">
        <ele>1393.4000244140625</ele>
        <time>2022-07-27T15:54:33.000Z</time>
      </trkpt>
      <trkpt lat="42.37067920155823230743408203125" lon="2.46456795372068881988525390625">
        <ele>1393.4000244140625</ele>
        <time>2022-07-27T15:54:34.000Z</time>
      </trkpt>
      <trkpt lat="42.370863854885101318359375" lon="2.46485243551433086395263671875">
        <ele>1393.4000244140625</ele>
        <time>2022-07-27T15:54:37.000Z</time>
      </trkpt>
      <trkpt lat="42.37129141576588153839111328125" lon="2.46535602025687694549560546875">
        <ele>1393.4000244140625</ele>
        <time>2022-07-27T15:54:42.000Z</time>
      </trkpt>
      <trkpt lat="42.37148419953882694244384765625" lon="2.46557881124317646026611328125">
        <ele>1392</ele>
        <time>2022-07-27T15:54:44.000Z</time>
      </trkpt>
      <trkpt lat="42.3716851137578487396240234375" lon="2.46581266634166240692138671875">
        <ele>1390.4000244140625</ele>
        <time>2022-07-27T15:54:46.000Z</time>
      </trkpt>
      <trkpt lat="42.3717986047267913818359375" lon="2.46591727249324321746826171875">
        <ele>1389.4000244140625</ele>
        <time>2022-07-27T15:54:47.000Z</time>
      </trkpt>
      <trkpt lat="42.37192307598888874053955078125" lon="2.46600410901010036468505859375">
        <ele>1388.199951171875</ele>
        <time>2022-07-27T15:54:48.000Z</time>
      </trkpt>
      <trkpt lat="42.37205718643963336944580078125" lon="2.46607166714966297149658203125">
        <ele>1387.199951171875</ele>
        <time>2022-07-27T15:54:49.000Z</time>
      </trkpt>
      <trkpt lat="42.37219800241291522979736328125" lon="2.4661227129399776458740234375">
        <ele>1386.199951171875</ele>
        <time>2022-07-27T15:54:50.000Z</time>
      </trkpt>
      <trkpt lat="42.372344098985195159912109375" lon="2.466157414019107818603515625">
        <ele>1385</ele>
        <time>2022-07-27T15:54:51.000Z</time>
      </trkpt>
      <trkpt lat="42.37249287776648998260498046875" lon="2.46617526747286319732666015625">
        <ele>1383.199951171875</ele>
        <time>2022-07-27T15:54:52.000Z</time>
      </trkpt>
      <trkpt lat="42.37264341674745082855224609375" lon="2.4661783687770366668701171875">
        <ele>1381.5999755859375</ele>
        <time>2022-07-27T15:54:53.000Z</time>
      </trkpt>
      <trkpt lat="42.3727963864803314208984375" lon="2.4661790393292903900146484375">
        <ele>1380</ele>
        <time>2022-07-27T15:54:54.000Z</time>
      </trkpt>
      <trkpt lat="42.372949607670307159423828125" lon="2.466186247766017913818359375">
        <ele>1377.199951171875</ele>
        <time>2022-07-27T15:54:55.000Z</time>
      </trkpt>
      <trkpt lat="42.373106181621551513671875" lon="2.46619756333529949188232421875">
        <ele>1375.4000244140625</ele>
        <time>2022-07-27T15:54:56.000Z</time>
      </trkpt>
      <trkpt lat="42.3732630908489227294921875" lon="2.46621516533195972442626953125">
        <ele>1374.199951171875</ele>
        <time>2022-07-27T15:54:57.000Z</time>
      </trkpt>
      <trkpt lat="42.37341807223856449127197265625" lon="2.46623913757503032684326171875">
        <ele>1372.4000244140625</ele>
        <time>2022-07-27T15:54:58.000Z</time>
      </trkpt>
      <trkpt lat="42.37357179634273052215576171875" lon="2.46626646257936954498291015625">
        <ele>1370.5999755859375</ele>
        <time>2022-07-27T15:54:59.000Z</time>
      </trkpt>
      <trkpt lat="42.373723089694976806640625" lon="2.46629579924046993255615234375">
        <ele>1368.5999755859375</ele>
        <time>2022-07-27T15:55:00.000Z</time>
      </trkpt>
      <trkpt lat="42.37387287430465221405029296875" lon="2.4663242138922214508056640625">
        <ele>1367.5999755859375</ele>
        <time>2022-07-27T15:55:01.000Z</time>
      </trkpt>
      <trkpt lat="42.37402307800948619842529296875" lon="2.4663542211055755615234375">
        <ele>1366.199951171875</ele>
        <time>2022-07-27T15:55:02.000Z</time>
      </trkpt>
      <trkpt lat="42.3741718567907810211181640625" lon="2.46639286167919635772705078125">
        <ele>1365</ele>
        <time>2022-07-27T15:55:03.000Z</time>
      </trkpt>
      <trkpt lat="42.3743160255253314971923828125" lon="2.46644617058336734771728515625">
        <ele>1363.5999755859375</ele>
        <time>2022-07-27T15:55:04.000Z</time>
      </trkpt>
      <trkpt lat="42.3744531534612178802490234375" lon="2.46651238761842250823974609375">
        <ele>1361.800048828125</ele>
        <time>2022-07-27T15:55:05.000Z</time>
      </trkpt>
      <trkpt lat="42.37458768300712108612060546875" lon="2.46658799238502979278564453125">
        <ele>1360.199951171875</ele>
        <time>2022-07-27T15:55:06.000Z</time>
      </trkpt>
      <trkpt lat="42.37470922060310840606689453125" lon="2.46666979975998401641845703125">
        <ele>1358.800048828125</ele>
        <time>2022-07-27T15:55:07.000Z</time>
      </trkpt>
      <trkpt lat="42.374825812876224517822265625" lon="2.4667547084391117095947265625">
        <ele>1357.199951171875</ele>
        <time>2022-07-27T15:55:08.000Z</time>
      </trkpt>
      <trkpt lat="42.37493653781712055206298828125" lon="2.4668459035456180572509765625">
        <ele>1355.5999755859375</ele>
        <time>2022-07-27T15:55:09.000Z</time>
      </trkpt>
      <trkpt lat="42.37504533492028713226318359375" lon="2.46693852357566356658935546875">
        <ele>1354.199951171875</ele>
        <time>2022-07-27T15:55:10.000Z</time>
      </trkpt>
      <trkpt lat="42.3751498572528362274169921875" lon="2.4670346640050411224365234375">
        <ele>1353</ele>
        <time>2022-07-27T15:55:11.000Z</time>
      </trkpt>
      <trkpt lat="42.37524867989122867584228515625" lon="2.46714119799435138702392578125">
        <ele>1351.800048828125</ele>
        <time>2022-07-27T15:55:12.000Z</time>
      </trkpt>
      <trkpt lat="42.3753399588167667388916015625" lon="2.46726659126579761505126953125">
        <ele>1350.800048828125</ele>
        <time>2022-07-27T15:55:13.000Z</time>
      </trkpt>
      <trkpt lat="42.3754194192588329315185546875" lon="2.46741168200969696044921875">
        <ele>1350</ele>
        <time>2022-07-27T15:55:14.000Z</time>
      </trkpt>
      <trkpt lat="42.37553559243679046630859375" lon="2.4677489697933197021484375">
        <ele>1348.4000244140625</ele>
        <time>2022-07-27T15:55:16.000Z</time>
      </trkpt>
      <trkpt lat="42.37557808868587017059326171875" lon="2.46793194673955440521240234375">
        <ele>1347.5999755859375</ele>
        <time>2022-07-27T15:55:17.000Z</time>
      </trkpt>
      <trkpt lat="42.37561739981174468994140625" lon="2.46811400167644023895263671875">
        <ele>1346.800048828125</ele>
        <time>2022-07-27T15:55:18.000Z</time>
      </trkpt>
      <trkpt lat="42.37565604038536548614501953125" lon="2.46828817762434482574462890625">
        <ele>1345.800048828125</ele>
        <time>2022-07-27T15:55:19.000Z</time>
      </trkpt>
      <trkpt lat="42.37569560296833515167236328125" lon="2.4684525467455387115478515625">
        <ele>1344.5999755859375</ele>
        <time>2022-07-27T15:55:20.000Z</time>
      </trkpt>
      <trkpt lat="42.37574086524546146392822265625" lon="2.4686077795922756195068359375">
        <ele>1343.4000244140625</ele>
        <time>2022-07-27T15:55:21.000Z</time>
      </trkpt>
      <trkpt lat="42.37579802982509136199951171875" lon="2.46875069104135036468505859375">
        <ele>1341.800048828125</ele>
        <time>2022-07-27T15:55:22.000Z</time>
      </trkpt>
      <trkpt lat="42.3758707009255886077880859375" lon="2.4688823707401752471923828125">
        <ele>1338</ele>
        <time>2022-07-27T15:55:23.000Z</time>
      </trkpt>
      <trkpt lat="42.37595661543309688568115234375" lon="2.469004578888416290283203125">
        <ele>1336.5999755859375</ele>
        <time>2022-07-27T15:55:24.000Z</time>
      </trkpt>
      <trkpt lat="42.3760534264147281646728515625" lon="2.46911664493381977081298828125">
        <ele>1335.4000244140625</ele>
        <time>2022-07-27T15:55:25.000Z</time>
      </trkpt>
      <trkpt lat="42.3761590383946895599365234375" lon="2.46922192163765430450439453125">
        <ele>1334.199951171875</ele>
        <time>2022-07-27T15:55:26.000Z</time>
      </trkpt>
      <trkpt lat="42.37626976333558559417724609375" lon="2.46932636015117168426513671875">
        <ele>1333.4000244140625</ele>
        <time>2022-07-27T15:55:27.000Z</time>
      </trkpt>
      <trkpt lat="42.37637914717197418212890625" lon="2.46943666599690914154052734375">
        <ele>1332.4000244140625</ele>
        <time>2022-07-27T15:55:28.000Z</time>
      </trkpt>
      <trkpt lat="42.37648107111454010009765625" lon="2.46955920942127704620361328125">
        <ele>1331.5999755859375</ele>
        <time>2022-07-27T15:55:29.000Z</time>
      </trkpt>
      <trkpt lat="42.376571930944919586181640625" lon="2.46969114057719707489013671875">
        <ele>1331</ele>
        <time>2022-07-27T15:55:30.000Z</time>
      </trkpt>
      <trkpt lat="42.37670796923339366912841796875" lon="2.46999104507267475128173828125">
        <ele>1329</ele>
        <time>2022-07-27T15:55:32.000Z</time>
      </trkpt>
      <trkpt lat="42.37675038166344165802001953125" lon="2.47016069479286670684814453125">
        <ele>1327.5999755859375</ele>
        <time>2022-07-27T15:55:33.000Z</time>
      </trkpt>
      <trkpt lat="42.37677477300167083740234375" lon="2.47033839114010334014892578125">
        <ele>1326</ele>
        <time>2022-07-27T15:55:34.000Z</time>
      </trkpt>
      <trkpt lat="42.376778461039066314697265625" lon="2.47051809914410114288330078125">
        <ele>1324.5999755859375</ele>
        <time>2022-07-27T15:55:35.000Z</time>
      </trkpt>
      <trkpt lat="42.3767578415572643280029296875" lon="2.470696382224559783935546875">
        <ele>1323.199951171875</ele>
        <time>2022-07-27T15:55:36.000Z</time>
      </trkpt>
      <trkpt lat="42.3767152614891529083251953125" lon="2.47087173163890838623046875">
        <ele>1321.800048828125</ele>
        <time>2022-07-27T15:55:37.000Z</time>
      </trkpt>
      <trkpt lat="42.3766532354056835174560546875" lon="2.4710395373404026031494140625">
        <ele>1320.4000244140625</ele>
        <time>2022-07-27T15:55:38.000Z</time>
      </trkpt>
      <trkpt lat="42.3765808157622814178466796875" lon="2.47119518928229808807373046875">
        <ele>1319.4000244140625</ele>
        <time>2022-07-27T15:55:39.000Z</time>
      </trkpt>
      <trkpt lat="42.376510910689830780029296875" lon="2.47133977711200714111328125">
        <ele>1318</ele>
        <time>2022-07-27T15:55:40.000Z</time>
      </trkpt>
      <trkpt lat="42.37645416520535945892333984375" lon="2.47148000635206699371337890625">
        <ele>1316.4000244140625</ele>
        <time>2022-07-27T15:55:41.000Z</time>
      </trkpt>
      <trkpt lat="42.3764141835272312164306640625" lon="2.47162082232534885406494140625">
        <ele>1314.800048828125</ele>
        <time>2022-07-27T15:55:42.000Z</time>
      </trkpt>
      <trkpt lat="42.3763950727880001068115234375" lon="2.47176356613636016845703125">
        <ele>1313.5999755859375</ele>
        <time>2022-07-27T15:55:43.000Z</time>
      </trkpt>
      <trkpt lat="42.3764017783105373382568359375" lon="2.47190765105187892913818359375">
        <ele>1312.800048828125</ele>
        <time>2022-07-27T15:55:44.000Z</time>
      </trkpt>
      <trkpt lat="42.37643488682806491851806640625" lon="2.472048886120319366455078125">
        <ele>1311.5999755859375</ele>
        <time>2022-07-27T15:55:45.000Z</time>
      </trkpt>
      <trkpt lat="42.37649322487413883209228515625" lon="2.47218006290495395660400390625">
        <ele>1310.199951171875</ele>
        <time>2022-07-27T15:55:46.000Z</time>
      </trkpt>
      <trkpt lat="42.3765675723552703857421875" lon="2.472299672663211822509765625">
        <ele>1309.199951171875</ele>
        <time>2022-07-27T15:55:47.000Z</time>
      </trkpt>
      <trkpt lat="42.376751638948917388916015625" lon="2.472502849996089935302734375">
        <ele>1307.5999755859375</ele>
        <time>2022-07-27T15:55:49.000Z</time>
      </trkpt>
      <trkpt lat="42.3769207857549190521240234375" lon="2.4727202765643596649169921875">
        <ele>1306</ele>
        <time>2022-07-27T15:55:51.000Z</time>
      </trkpt>
      <trkpt lat="42.37698038108646869659423828125" lon="2.4728520400822162628173828125">
        <ele>1305.199951171875</ele>
        <time>2022-07-27T15:55:52.000Z</time>
      </trkpt>
      <trkpt lat="42.37701625563204288482666015625" lon="2.47299009002745151519775390625">
        <ele>1304.199951171875</ele>
        <time>2022-07-27T15:55:53.000Z</time>
      </trkpt>
      <trkpt lat="42.37703226506710052490234375" lon="2.47313283383846282958984375">
        <ele>1303</ele>
        <time>2022-07-27T15:55:54.000Z</time>
      </trkpt>
      <trkpt lat="42.3770270682871341705322265625" lon="2.4732768349349498748779296875">
        <ele>1301.5999755859375</ele>
        <time>2022-07-27T15:55:55.000Z</time>
      </trkpt>
      <trkpt lat="42.377008460462093353271484375" lon="2.4734260328114032745361328125">
        <ele>1300</ele>
        <time>2022-07-27T15:55:56.000Z</time>
      </trkpt>
      <trkpt lat="42.37698054872453212738037109375" lon="2.47357866726815700531005859375">
        <ele>1298.4000244140625</ele>
        <time>2022-07-27T15:55:57.000Z</time>
      </trkpt>
      <trkpt lat="42.3769529722630977630615234375" lon="2.47373138554394245147705078125">
        <ele>1297.4000244140625</ele>
        <time>2022-07-27T15:55:58.000Z</time>
      </trkpt>
      <trkpt lat="42.37693210132420063018798828125" lon="2.47405626811087131500244140625">
        <ele>1296</ele>
        <time>2022-07-27T15:56:00.000Z</time>
      </trkpt>
      <trkpt lat="42.37693210132420063018798828125" lon="2.4742263369262218475341796875">
        <ele>1295.5999755859375</ele>
        <time>2022-07-27T15:56:01.000Z</time>
      </trkpt>
      <trkpt lat="42.37693838775157928466796875" lon="2.47458516620099544525146484375">
        <ele>1294.4000244140625</ele>
        <time>2022-07-27T15:56:03.000Z</time>
      </trkpt>
      <trkpt lat="42.37694215960800647735595703125" lon="2.4747704900801181793212890625">
        <ele>1293.4000244140625</ele>
        <time>2022-07-27T15:56:04.000Z</time>
      </trkpt>
      <trkpt lat="42.3769449256360530853271484375" lon="2.47495598159730434417724609375">
        <ele>1292.199951171875</ele>
        <time>2022-07-27T15:56:05.000Z</time>
      </trkpt>
      <trkpt lat="42.376949787139892578125" lon="2.47514725662767887115478515625">
        <ele>1290.800048828125</ele>
        <time>2022-07-27T15:56:06.000Z</time>
      </trkpt>
      <trkpt lat="42.37695657648146152496337890625" lon="2.4753431417047977447509765625">
        <ele>1289.4000244140625</ele>
        <time>2022-07-27T15:56:07.000Z</time>
      </trkpt>
      <trkpt lat="42.3769605159759521484375" lon="2.47554355300962924957275390625">
        <ele>1288.199951171875</ele>
        <time>2022-07-27T15:56:08.000Z</time>
      </trkpt>
      <trkpt lat="42.37695925869047641754150390625" lon="2.4757481552660465240478515625">
        <ele>1286.800048828125</ele>
        <time>2022-07-27T15:56:09.000Z</time>
      </trkpt>
      <trkpt lat="42.376956157386302947998046875" lon="2.4759543500840663909912109375">
        <ele>1285.199951171875</ele>
        <time>2022-07-27T15:56:10.000Z</time>
      </trkpt>
      <trkpt lat="42.37694903276860713958740234375" lon="2.4761612154543399810791015625">
        <ele>1283.800048828125</ele>
        <time>2022-07-27T15:56:11.000Z</time>
      </trkpt>
      <trkpt lat="42.37693361006677150726318359375" lon="2.47636749409139156341552734375">
        <ele>1282.4000244140625</ele>
        <time>2022-07-27T15:56:12.000Z</time>
      </trkpt>
      <trkpt lat="42.3769055306911468505859375" lon="2.4765680730342864990234375">
        <ele>1280.800048828125</ele>
        <time>2022-07-27T15:56:13.000Z</time>
      </trkpt>
      <trkpt lat="42.37686772830784320831298828125" lon="2.47676722705364227294921875">
        <ele>1279.5999755859375</ele>
        <time>2022-07-27T15:56:14.000Z</time>
      </trkpt>
      <trkpt lat="42.376823388040065765380859375" lon="2.47696411795914173126220703125">
        <ele>1278.800048828125</ele>
        <time>2022-07-27T15:56:15.000Z</time>
      </trkpt>
      <trkpt lat="42.37677167169749736785888671875" lon="2.4771563149988651275634765625">
        <ele>1277.5999755859375</ele>
        <time>2022-07-27T15:56:16.000Z</time>
      </trkpt>
      <trkpt lat="42.37671375274658203125" lon="2.477344237267971038818359375">
        <ele>1276</ele>
        <time>2022-07-27T15:56:17.000Z</time>
      </trkpt>
      <trkpt lat="42.37665080465376377105712890625" lon="2.477528639137744903564453125">
        <ele>1275</ele>
        <time>2022-07-27T15:56:18.000Z</time>
      </trkpt>
      <trkpt lat="42.3765112459659576416015625" lon="2.47788478620350360870361328125">
        <ele>1272.199951171875</ele>
        <time>2022-07-27T15:56:20.000Z</time>
      </trkpt>
      <trkpt lat="42.37637453712522983551025390625" lon="2.478215955197811126708984375">
        <ele>1270.199951171875</ele>
        <time>2022-07-27T15:56:22.000Z</time>
      </trkpt>
      <trkpt lat="42.37627143971621990203857421875" lon="2.4785232357680797576904296875">
        <ele>1268.4000244140625</ele>
        <time>2022-07-27T15:56:24.000Z</time>
      </trkpt>
      <trkpt lat="42.37624101340770721435546875" lon="2.4786700867116451263427734375">
        <ele>1267.5999755859375</ele>
        <time>2022-07-27T15:56:25.000Z</time>
      </trkpt>
      <trkpt lat="42.376232631504535675048828125" lon="2.47880972921848297119140625">
        <ele>1267</ele>
        <time>2022-07-27T15:56:26.000Z</time>
      </trkpt>
      <trkpt lat="42.37625199370086193084716796875" lon="2.47893872670829296112060546875">
        <ele>1266.199951171875</ele>
        <time>2022-07-27T15:56:27.000Z</time>
      </trkpt>
      <trkpt lat="42.376298345625400543212890625" lon="2.479052133858203887939453125">
        <ele>1265.5999755859375</ele>
        <time>2022-07-27T15:56:28.000Z</time>
      </trkpt>
      <trkpt lat="42.376367412507534027099609375" lon="2.4791434966027736663818359375">
        <ele>1265.199951171875</ele>
        <time>2022-07-27T15:56:29.000Z</time>
      </trkpt>
      <trkpt lat="42.37654837779700756072998046875" lon="2.47924885712563991546630859375">
        <ele>1264.800048828125</ele>
        <time>2022-07-27T15:56:31.000Z</time>
      </trkpt>
      <trkpt lat="42.37674837000668048858642578125" lon="2.47930116020143032073974609375">
        <ele>1264.4000244140625</ele>
        <time>2022-07-27T15:56:33.000Z</time>
      </trkpt>
      <trkpt lat="42.37704140134155750274658203125" lon="2.479389421641826629638671875">
        <ele>1264</ele>
        <time>2022-07-27T15:56:36.000Z</time>
      </trkpt>
      <trkpt lat="42.37728162668645381927490234375" lon="2.4796095304191112518310546875">
        <ele>1264.199951171875</ele>
        <time>2022-07-27T15:56:39.000Z</time>
      </trkpt>
      <trkpt lat="42.3774404637515544891357421875" lon="2.4799342453479766845703125">
        <ele>1264.4000244140625</ele>
        <time>2022-07-27T15:56:42.000Z</time>
      </trkpt>
      <trkpt lat="42.37748622894287109375" lon="2.4800494126975536346435546875">
        <ele>1264.5999755859375</ele>
        <time>2022-07-27T15:56:43.000Z</time>
      </trkpt>
      <trkpt lat="42.3777422122657299041748046875" lon="2.48075156472623348236083984375">
        <ele>1265.199951171875</ele>
        <time>2022-07-27T15:56:49.000Z</time>
      </trkpt>
      <trkpt lat="42.3778149671852588653564453125" lon="2.4809922091662883758544921875">
        <ele>1265.4000244140625</ele>
        <time>2022-07-27T15:56:51.000Z</time>
      </trkpt>
      <trkpt lat="42.37788797356188297271728515625" lon="2.48136679641902446746826171875">
        <ele>1265.5999755859375</ele>
        <time>2022-07-27T15:56:54.000Z</time>
      </trkpt>
      <trkpt lat="42.37791932187974452972412109375" lon="2.48161992989480495452880859375">
        <ele>1265.5999755859375</ele>
        <time>2022-07-27T15:56:56.000Z</time>
      </trkpt>
      <trkpt lat="42.37802107818424701690673828125" lon="2.482359297573566436767578125">
        <ele>1265.5999755859375</ele>
        <time>2022-07-27T15:57:02.000Z</time>
      </trkpt>
      <trkpt lat="42.378055863082408905029296875" lon="2.48260078020393848419189453125">
        <ele>1265.5999755859375</ele>
        <time>2022-07-27T15:57:04.000Z</time>
      </trkpt>
      <trkpt lat="42.37816943787038326263427734375" lon="2.48341784812510013580322265625">
        <ele>1265.5999755859375</ele>
        <time>2022-07-27T15:57:11.000Z</time>
      </trkpt>
      <trkpt lat="42.3781934939324855804443359375" lon="2.48352714814245700836181640625">
        <ele>1265.5999755859375</ele>
        <time>2022-07-27T15:57:12.000Z</time>
      </trkpt>
      <trkpt lat="42.3783262632787227630615234375" lon="2.48379327356815338134765625">
        <ele>1265.800048828125</ele>
        <time>2022-07-27T15:57:15.000Z</time>
      </trkpt>
      <trkpt lat="42.37858987413346767425537109375" lon="2.484061829745769500732421875">
        <ele>1266</ele>
        <time>2022-07-27T15:57:19.000Z</time>
      </trkpt>
      <trkpt lat="42.3786625452339649200439453125" lon="2.48412276618182659149169921875">
        <ele>1266.199951171875</ele>
        <time>2022-07-27T15:57:20.000Z</time>
      </trkpt>
      <trkpt lat="42.37907946109771728515625" lon="2.48454320244491100311279296875">
        <ele>1266.199951171875</ele>
        <time>2022-07-27T15:57:26.000Z</time>
      </trkpt>
      <trkpt lat="42.3792492784559726715087890625" lon="2.48482449911534786224365234375">
        <ele>1266</ele>
        <time>2022-07-27T15:57:29.000Z</time>
      </trkpt>
      <trkpt lat="42.3792871646583080291748046875" lon="2.48493178747594356536865234375">
        <ele>1266</ele>
        <time>2022-07-27T15:57:30.000Z</time>
      </trkpt>
      <trkpt lat="42.37935413606464862823486328125" lon="2.4852860905230045318603515625">
        <ele>1265.4000244140625</ele>
        <time>2022-07-27T15:57:33.000Z</time>
      </trkpt>
      <trkpt lat="42.37937257625162601470947265625" lon="2.48541441746056079864501953125">
        <ele>1265.199951171875</ele>
        <time>2022-07-27T15:57:34.000Z</time>
      </trkpt>
      <trkpt lat="42.37938799895346164703369140625" lon="2.4855486117303371429443359375">
        <ele>1264.4000244140625</ele>
        <time>2022-07-27T15:57:35.000Z</time>
      </trkpt>
      <trkpt lat="42.379395961761474609375" lon="2.48568833805620670318603515625">
        <ele>1264</ele>
        <time>2022-07-27T15:57:36.000Z</time>
      </trkpt>
      <trkpt lat="42.37937827594578266143798828125" lon="2.4858282320201396942138671875">
        <ele>1263.4000244140625</ele>
        <time>2022-07-27T15:57:37.000Z</time>
      </trkpt>
      <trkpt lat="42.37935815937817096710205078125" lon="2.485968880355358123779296875">
        <ele>1263</ele>
        <time>2022-07-27T15:57:38.000Z</time>
      </trkpt>
      <trkpt lat="42.37931080162525177001953125" lon="2.48625830747187137603759765625">
        <ele>1262.199951171875</ele>
        <time>2022-07-27T15:57:40.000Z</time>
      </trkpt>
      <trkpt lat="42.3792791180312633514404296875" lon="2.48654714785516262054443359375">
        <ele>1261</ele>
        <time>2022-07-27T15:57:42.000Z</time>
      </trkpt>
      <trkpt lat="42.3792747594416141510009765625" lon="2.4866922385990619659423828125">
        <ele>1260.5999755859375</ele>
        <time>2022-07-27T15:57:43.000Z</time>
      </trkpt>
      <trkpt lat="42.3792740888893604278564453125" lon="2.486837916076183319091796875">
        <ele>1259.800048828125</ele>
        <time>2022-07-27T15:57:44.000Z</time>
      </trkpt>
      <trkpt lat="42.3792747594416141510009765625" lon="2.4872702546417713165283203125">
        <ele>1258.800048828125</ele>
        <time>2022-07-27T15:57:47.000Z</time>
      </trkpt>
      <trkpt lat="42.37927995622158050537109375" lon="2.48769798316061496734619140625">
        <ele>1257.5999755859375</ele>
        <time>2022-07-27T15:57:50.000Z</time>
      </trkpt>
      <trkpt lat="42.37929998897016048431396484375" lon="2.48798196204006671905517578125">
        <ele>1257.4000244140625</ele>
        <time>2022-07-27T15:57:52.000Z</time>
      </trkpt>
      <trkpt lat="42.37936872057616710662841796875" lon="2.48824766837060451507568359375">
        <ele>1256.199951171875</ele>
        <time>2022-07-27T15:57:54.000Z</time>
      </trkpt>
      <trkpt lat="42.37959553487598896026611328125" lon="2.48853919096291065216064453125">
        <ele>1255.4000244140625</ele>
        <time>2022-07-27T15:57:57.000Z</time>
      </trkpt>
      <trkpt lat="42.37969033420085906982421875" lon="2.48860222287476062774658203125">
        <ele>1255</ele>
        <time>2022-07-27T15:57:58.000Z</time>
      </trkpt>
      <trkpt lat="42.3797880671918392181396484375" lon="2.48865704052150249481201171875">
        <ele>1255</ele>
        <time>2022-07-27T15:57:59.000Z</time>
      </trkpt>
      <trkpt lat="42.37997062504291534423828125" lon="2.48878276906907558441162109375">
        <ele>1254.4000244140625</ele>
        <time>2022-07-27T15:58:01.000Z</time>
      </trkpt>
      <trkpt lat="42.3800475709140300750732421875" lon="2.48887463472783565521240234375">
        <ele>1253.4000244140625</ele>
        <time>2022-07-27T15:58:02.000Z</time>
      </trkpt>
      <trkpt lat="42.380105741322040557861328125" lon="2.48899416066706180572509765625">
        <ele>1252.4000244140625</ele>
        <time>2022-07-27T15:58:03.000Z</time>
      </trkpt>
      <trkpt lat="42.3801511712372303009033203125" lon="2.48927193693816661834716796875">
        <ele>1251.4000244140625</ele>
        <time>2022-07-27T15:58:05.000Z</time>
      </trkpt>
      <trkpt lat="42.3801444657146930694580078125" lon="2.4894158542156219482421875">
        <ele>1251</ele>
        <time>2022-07-27T15:58:06.000Z</time>
      </trkpt>
      <trkpt lat="42.3801263608038425445556640625" lon="2.49001624993979930877685546875">
        <ele>1250</ele>
        <time>2022-07-27T15:58:10.000Z</time>
      </trkpt>
      <trkpt lat="42.38012216985225677490234375" lon="2.49080901034176349639892578125">
        <ele>1249</ele>
        <time>2022-07-27T15:58:15.000Z</time>
      </trkpt>
      <trkpt lat="42.38011144101619720458984375" lon="2.4909686855971813201904296875">
        <ele>1248.4000244140625</ele>
        <time>2022-07-27T15:58:16.000Z</time>
      </trkpt>
      <trkpt lat="42.38009526394307613372802734375" lon="2.49112685211002826690673828125">
        <ele>1247.800048828125</ele>
        <time>2022-07-27T15:58:17.000Z</time>
      </trkpt>
      <trkpt lat="42.3800794221460819244384765625" lon="2.49128342606127262115478515625">
        <ele>1247.199951171875</ele>
        <time>2022-07-27T15:58:18.000Z</time>
      </trkpt>
      <trkpt lat="42.38006911240518093109130859375" lon="2.49143865890800952911376953125">
        <ele>1246.5999755859375</ele>
        <time>2022-07-27T15:58:19.000Z</time>
      </trkpt>
      <trkpt lat="42.38006944768130779266357421875" lon="2.49159422703087329864501953125">
        <ele>1246</ele>
        <time>2022-07-27T15:58:20.000Z</time>
      </trkpt>
      <trkpt lat="42.38008059561252593994140625" lon="2.4917488731443881988525390625">
        <ele>1245.199951171875</ele>
        <time>2022-07-27T15:58:21.000Z</time>
      </trkpt>
      <trkpt lat="42.380095683038234710693359375" lon="2.49190385453402996063232421875">
        <ele>1244.5999755859375</ele>
        <time>2022-07-27T15:58:22.000Z</time>
      </trkpt>
      <trkpt lat="42.38013315014541149139404296875" lon="2.4923667870461940765380859375">
        <ele>1243.5999755859375</ele>
        <time>2022-07-27T15:58:25.000Z</time>
      </trkpt>
      <trkpt lat="42.3801092617213726043701171875" lon="2.4926802702248096466064453125">
        <ele>1242.199951171875</ele>
        <time>2022-07-27T15:58:27.000Z</time>
      </trkpt>
      <trkpt lat="42.37995796836912631988525390625" lon="2.49311084859073162078857421875">
        <ele>1241</ele>
        <time>2022-07-27T15:58:30.000Z</time>
      </trkpt>
      <trkpt lat="42.37968656234443187713623046875" lon="2.49344863928854465484619140625">
        <ele>1239.4000244140625</ele>
        <time>2022-07-27T15:58:33.000Z</time>
      </trkpt>
      <trkpt lat="42.3794963769614696502685546875" lon="2.49366556294262409210205078125">
        <ele>1238.199951171875</ele>
        <time>2022-07-27T15:58:35.000Z</time>
      </trkpt>
      <trkpt lat="42.37941934727132320404052734375" lon="2.49377620406448841094970703125">
        <ele>1237.199951171875</ele>
        <time>2022-07-27T15:58:36.000Z</time>
      </trkpt>
      <trkpt lat="42.3793651163578033447265625" lon="2.49388634227216243743896484375">
        <ele>1236.199951171875</ele>
        <time>2022-07-27T15:58:37.000Z</time>
      </trkpt>
      <trkpt lat="42.37932245247066020965576171875" lon="2.4941343627870082855224609375">
        <ele>1235</ele>
        <time>2022-07-27T15:58:39.000Z</time>
      </trkpt>
      <trkpt lat="42.379337288439273834228515625" lon="2.49426922760903835296630859375">
        <ele>1233.199951171875</ele>
        <time>2022-07-27T15:58:40.000Z</time>
      </trkpt>
      <trkpt lat="42.3793683014810085296630859375" lon="2.4944119714200496673583984375">
        <ele>1232</ele>
        <time>2022-07-27T15:58:41.000Z</time>
      </trkpt>
      <trkpt lat="42.37940895371139049530029296875" lon="2.4945604987442493438720703125">
        <ele>1230.800048828125</ele>
        <time>2022-07-27T15:58:42.000Z</time>
      </trkpt>
      <trkpt lat="42.37950132228434085845947265625" lon="2.49487406574189662933349609375">
        <ele>1229.5999755859375</ele>
        <time>2022-07-27T15:58:44.000Z</time>
      </trkpt>
      <trkpt lat="42.379600144922733306884765625" lon="2.49520816840231418609619140625">
        <ele>1228.4000244140625</ele>
        <time>2022-07-27T15:58:46.000Z</time>
      </trkpt>
      <trkpt lat="42.37965353764593601226806640625" lon="2.49538041651248931884765625">
        <ele>1228.199951171875</ele>
        <time>2022-07-27T15:58:47.000Z</time>
      </trkpt>
      <trkpt lat="42.37976551987230777740478515625" lon="2.49573002569377422332763671875">
        <ele>1227</ele>
        <time>2022-07-27T15:58:49.000Z</time>
      </trkpt>
      <trkpt lat="42.3798210918903350830078125" lon="2.495906464755535125732421875">
        <ele>1224.5999755859375</ele>
        <time>2022-07-27T15:58:50.000Z</time>
      </trkpt>
      <trkpt lat="42.3798769153654575347900390625" lon="2.4960819818079471588134765625">
        <ele>1222.199951171875</ele>
        <time>2022-07-27T15:58:51.000Z</time>
      </trkpt>
      <trkpt lat="42.37993466667830944061279296875" lon="2.4962533079087734222412109375">
        <ele>1220.199951171875</ele>
        <time>2022-07-27T15:58:52.000Z</time>
      </trkpt>
      <trkpt lat="42.37999602220952510833740234375" lon="2.496418096125125885009765625">
        <ele>1219</ele>
        <time>2022-07-27T15:58:53.000Z</time>
      </trkpt>
      <trkpt lat="42.38006810657680034637451171875" lon="2.49657290987670421600341796875">
        <ele>1217.800048828125</ele>
        <time>2022-07-27T15:58:54.000Z</time>
      </trkpt>
      <trkpt lat="42.38015360198915004730224609375" lon="2.49671556986868381500244140625">
        <ele>1216.199951171875</ele>
        <time>2022-07-27T15:58:55.000Z</time>
      </trkpt>
      <trkpt lat="42.3802494071424007415771484375" lon="2.49684733338654041290283203125">
        <ele>1214.4000244140625</ele>
        <time>2022-07-27T15:58:56.000Z</time>
      </trkpt>
      <trkpt lat="42.38034890033304691314697265625" lon="2.49697088263928890228271484375">
        <ele>1212.4000244140625</ele>
        <time>2022-07-27T15:58:57.000Z</time>
      </trkpt>
      <trkpt lat="42.3804492317140102386474609375" lon="2.49708973802626132965087890625">
        <ele>1210.800048828125</ele>
        <time>2022-07-27T15:58:58.000Z</time>
      </trkpt>
      <trkpt lat="42.38054889254271984100341796875" lon="2.49720658175647258758544921875">
        <ele>1209.4000244140625</ele>
        <time>2022-07-27T15:58:59.000Z</time>
      </trkpt>
      <trkpt lat="42.38064947538077831268310546875" lon="2.497321665287017822265625">
        <ele>1208.199951171875</ele>
        <time>2022-07-27T15:59:00.000Z</time>
      </trkpt>
      <trkpt lat="42.3809440992772579193115234375" lon="2.4976594559848308563232421875">
        <ele>1207.199951171875</ele>
        <time>2022-07-27T15:59:03.000Z</time>
      </trkpt>
      <trkpt lat="42.3811326920986175537109375" lon="2.4978767149150371551513671875">
        <ele>1207</ele>
        <time>2022-07-27T15:59:05.000Z</time>
      </trkpt>
      <trkpt lat="42.381582967936992645263671875" lon="2.4983863346278667449951171875">
        <ele>1207.199951171875</ele>
        <time>2022-07-27T15:59:10.000Z</time>
      </trkpt>
      <trkpt lat="42.381768040359020233154296875" lon="2.49856662936508655548095703125">
        <ele>1207.5999755859375</ele>
        <time>2022-07-27T15:59:12.000Z</time>
      </trkpt>
      <trkpt lat="42.38224555738270282745361328125" lon="2.498952448368072509765625">
        <ele>1208</ele>
        <time>2022-07-27T15:59:17.000Z</time>
      </trkpt>
      <trkpt lat="42.38243482075631618499755859375" lon="2.49909703619778156280517578125">
        <ele>1208</ele>
        <time>2022-07-27T15:59:19.000Z</time>
      </trkpt>
      <trkpt lat="42.382975034415721893310546875" lon="2.4995168857276439666748046875">
        <ele>1208</ele>
        <time>2022-07-27T15:59:25.000Z</time>
      </trkpt>
      <trkpt lat="42.38306178711354732513427734375" lon="2.49958653934299945831298828125">
        <ele>1208</ele>
        <time>2022-07-27T15:59:26.000Z</time>
      </trkpt>
      <trkpt lat="42.38322422839701175689697265625" lon="2.49973959289491176605224609375">
        <ele>1208.199951171875</ele>
        <time>2022-07-27T15:59:28.000Z</time>
      </trkpt>
      <trkpt lat="42.383293211460113525390625" lon="2.49983129091560840606689453125">
        <ele>1208.5999755859375</ele>
        <time>2022-07-27T15:59:29.000Z</time>
      </trkpt>
      <trkpt lat="42.38335423171520233154296875" lon="2.49993053264915943145751953125">
        <ele>1208.800048828125</ele>
        <time>2022-07-27T15:59:30.000Z</time>
      </trkpt>
      <trkpt lat="42.3834556527435779571533203125" lon="2.500144354999065399169921875">
        <ele>1208.800048828125</ele>
        <time>2022-07-27T15:59:32.000Z</time>
      </trkpt>
      <trkpt lat="42.38354332745075225830078125" lon="2.50036924146115779876708984375">
        <ele>1208.800048828125</ele>
        <time>2022-07-27T15:59:34.000Z</time>
      </trkpt>
      <trkpt lat="42.383797802031040191650390625" lon="2.50103644095361232757568359375">
        <ele>1209.4000244140625</ele>
        <time>2022-07-27T15:59:40.000Z</time>
      </trkpt>
      <trkpt lat="42.38383895717561244964599609375" lon="2.50114641152322292327880859375">
        <ele>1209.4000244140625</ele>
        <time>2022-07-27T15:59:41.000Z</time>
      </trkpt>
      <trkpt lat="42.38390634767711162567138671875" lon="2.5013756565749645233154296875">
        <ele>1209.4000244140625</ele>
        <time>2022-07-27T15:59:43.000Z</time>
      </trkpt>
      <trkpt lat="42.38391707651317119598388671875" lon="2.50162166543304920196533203125">
        <ele>1209.4000244140625</ele>
        <time>2022-07-27T15:59:45.000Z</time>
      </trkpt>
      <trkpt lat="42.38386762328445911407470703125" lon="2.50186624936759471893310546875">
        <ele>1209.4000244140625</ele>
        <time>2022-07-27T15:59:47.000Z</time>
      </trkpt>
      <trkpt lat="42.38380844704806804656982421875" lon="2.5021112523972988128662109375">
        <ele>1209</ele>
        <time>2022-07-27T15:59:49.000Z</time>
      </trkpt>
      <trkpt lat="42.3838202655315399169921875" lon="2.50248081050813198089599609375">
        <ele>1208.4000244140625</ele>
        <time>2022-07-27T15:59:52.000Z</time>
      </trkpt>
      <trkpt lat="42.3839079402387142181396484375" lon="2.50267066061496734619140625">
        <ele>1207.4000244140625</ele>
        <time>2022-07-27T15:59:54.000Z</time>
      </trkpt>
      <trkpt lat="42.38396200351417064666748046875" lon="2.50273042358458042144775390625">
        <ele>1207.199951171875</ele>
        <time>2022-07-27T15:59:55.000Z</time>
      </trkpt>
      <trkpt lat="42.3840547911822795867919921875" lon="2.50279077328741550445556640625">
        <ele>1207</ele>
        <time>2022-07-27T15:59:57.000Z</time>
      </trkpt>
      <trkpt lat="42.3842948488891124725341796875" lon="2.50272338278591632843017578125">
        <ele>1180.800048828125</ele>
        <time>2022-07-27T16:14:13.000Z</time>
      </trkpt>
      <trkpt lat="42.384381182491779327392578125" lon="2.50263202004134654998779296875">
        <ele>1180.800048828125</ele>
        <time>2022-07-27T16:14:16.000Z</time>
      </trkpt>
      <trkpt lat="42.3844138719141483306884765625" lon="2.50258642248809337615966796875">
        <ele>1180.800048828125</ele>
        <time>2022-07-27T16:14:17.000Z</time>
      </trkpt>
      <trkpt lat="42.3845027200877666473388671875" lon="2.50230780802667140960693359375">
        <ele>1180.800048828125</ele>
        <time>2022-07-27T16:14:21.000Z</time>
      </trkpt>
      <trkpt lat="42.384452261030673980712890625" lon="2.50203070230782032012939453125">
        <ele>1180.199951171875</ele>
        <time>2022-07-27T16:14:24.000Z</time>
      </trkpt>
      <trkpt lat="42.38436265848577022552490234375" lon="2.50184663571417331695556640625">
        <ele>1179.5999755859375</ele>
        <time>2022-07-27T16:14:26.000Z</time>
      </trkpt>
      <trkpt lat="42.38430834375321865081787109375" lon="2.501756362617015838623046875">
        <ele>1179.199951171875</ele>
        <time>2022-07-27T16:14:27.000Z</time>
      </trkpt>
      <trkpt lat="42.3842569626867771148681640625" lon="2.50166273675858974456787109375">
        <ele>1178.800048828125</ele>
        <time>2022-07-27T16:14:28.000Z</time>
      </trkpt>
      <trkpt lat="42.384170629084110260009765625" lon="2.50144547782838344573974609375">
        <ele>1178.199951171875</ele>
        <time>2022-07-27T16:14:30.000Z</time>
      </trkpt>
      <trkpt lat="42.3841114528477191925048828125" lon="2.50121262855827808380126953125">
        <ele>1177.199951171875</ele>
        <time>2022-07-27T16:14:32.000Z</time>
      </trkpt>
      <trkpt lat="42.3840873129665851593017578125" lon="2.50109159387648105621337890625">
        <ele>1177</ele>
        <time>2022-07-27T16:14:33.000Z</time>
      </trkpt>
      <trkpt lat="42.38403953611850738525390625" lon="2.50083628110587596893310546875">
        <ele>1175.4000244140625</ele>
        <time>2022-07-27T16:14:35.000Z</time>
      </trkpt>
      <trkpt lat="42.3839847184717655181884765625" lon="2.50055439770221710205078125">
        <ele>1174.4000244140625</ele>
        <time>2022-07-27T16:14:37.000Z</time>
      </trkpt>
      <trkpt lat="42.3839248716831207275390625" lon="2.50008392147719860076904296875">
        <ele>1173.5999755859375</ele>
        <time>2022-07-27T16:14:40.000Z</time>
      </trkpt>
      <trkpt lat="42.38393501378595829010009765625" lon="2.4999188818037509918212890625">
        <ele>1173.4000244140625</ele>
        <time>2022-07-27T16:14:41.000Z</time>
      </trkpt>
      <trkpt lat="42.38396267406642436981201171875" lon="2.49976356513798236846923828125">
        <ele>1173</ele>
        <time>2022-07-27T16:14:42.000Z</time>
      </trkpt>
      <trkpt lat="42.38402604125440120697021484375" lon="2.4994890578091144561767578125">
        <ele>1170.199951171875</ele>
        <time>2022-07-27T16:14:44.000Z</time>
      </trkpt>
      <trkpt lat="42.38404096104204654693603515625" lon="2.499371208250522613525390625">
        <ele>1169</ele>
        <time>2022-07-27T16:14:45.000Z</time>
      </trkpt>
      <trkpt lat="42.383999638259410858154296875" lon="2.499168030917644500732421875">
        <ele>1166.800048828125</ele>
        <time>2022-07-27T16:14:47.000Z</time>
      </trkpt>
      <trkpt lat="42.38386795856058597564697265625" lon="2.49905143864452838897705078125">
        <ele>1165.4000244140625</ele>
        <time>2022-07-27T16:14:49.000Z</time>
      </trkpt>
      <trkpt lat="42.38367333076894283294677734375" lon="2.49898304231464862823486328125">
        <ele>1164.800048828125</ele>
        <time>2022-07-27T16:14:51.000Z</time>
      </trkpt>
      <trkpt lat="42.38345975987613201141357421875" lon="2.4989154003560543060302734375">
        <ele>1164.4000244140625</ele>
        <time>2022-07-27T16:14:53.000Z</time>
      </trkpt>
      <trkpt lat="42.383353225886821746826171875" lon="2.4988721497356891632080078125">
        <ele>1164.199951171875</ele>
        <time>2022-07-27T16:14:54.000Z</time>
      </trkpt>
      <trkpt lat="42.38314636051654815673828125" lon="2.49875354580581188201904296875">
        <ele>1163.4000244140625</ele>
        <time>2022-07-27T16:14:56.000Z</time>
      </trkpt>
      <trkpt lat="42.3830496333539485931396484375" lon="2.498667798936367034912109375">
        <ele>1163</ele>
        <time>2022-07-27T16:14:57.000Z</time>
      </trkpt>
      <trkpt lat="42.38278903998434543609619140625" lon="2.49833461828529834747314453125">
        <ele>1162.199951171875</ele>
        <time>2022-07-27T16:15:00.000Z</time>
      </trkpt>
      <trkpt lat="42.38270136527717113494873046875" lon="2.49821417033672332763671875">
        <ele>1161.199951171875</ele>
        <time>2022-07-27T16:15:01.000Z</time>
      </trkpt>
      <trkpt lat="42.3826100863516330718994140625" lon="2.4980922974646091461181640625">
        <ele>1159.800048828125</ele>
        <time>2022-07-27T16:15:02.000Z</time>
      </trkpt>
      <trkpt lat="42.3825118504464626312255859375" lon="2.49797184951603412628173828125">
        <ele>1158.4000244140625</ele>
        <time>2022-07-27T16:15:03.000Z</time>
      </trkpt>
      <trkpt lat="42.38230188377201557159423828125" lon="2.49774168245494365692138671875">
        <ele>1156.5999755859375</ele>
        <time>2022-07-27T16:15:05.000Z</time>
      </trkpt>
      <trkpt lat="42.3821983672678470611572265625" lon="2.49762316234409809112548828125">
        <ele>1155.4000244140625</ele>
        <time>2022-07-27T16:15:06.000Z</time>
      </trkpt>
      <trkpt lat="42.38209895789623260498046875" lon="2.497497685253620147705078125">
        <ele>1154.199951171875</ele>
        <time>2022-07-27T16:15:07.000Z</time>
      </trkpt>
      <trkpt lat="42.38200566731393337249755859375" lon="2.49736935831606388092041015625">
        <ele>1153</ele>
        <time>2022-07-27T16:15:08.000Z</time>
      </trkpt>
      <trkpt lat="42.38191648386418819427490234375" lon="2.49723776243627071380615234375">
        <ele>1152</ele>
        <time>2022-07-27T16:15:09.000Z</time>
      </trkpt>
      <trkpt lat="42.38183476030826568603515625" lon="2.49709996394813060760498046875">
        <ele>1151.199951171875</ele>
        <time>2022-07-27T16:15:10.000Z</time>
      </trkpt>
      <trkpt lat="42.38175907172262668609619140625" lon="2.496962249279022216796875">
        <ele>1150.199951171875</ele>
        <time>2022-07-27T16:15:11.000Z</time>
      </trkpt>
      <trkpt lat="42.38168732263147830963134765625" lon="2.49682688154280185699462890625">
        <ele>1148.5999755859375</ele>
        <time>2022-07-27T16:15:12.000Z</time>
      </trkpt>
      <trkpt lat="42.381620518863201141357421875" lon="2.4966941960155963897705078125">
        <ele>1146.5999755859375</ele>
        <time>2022-07-27T16:15:13.000Z</time>
      </trkpt>
      <trkpt lat="42.38156075589358806610107421875" lon="2.49656335450708866119384765625">
        <ele>1145.199951171875</ele>
        <time>2022-07-27T16:15:14.000Z</time>
      </trkpt>
      <trkpt lat="42.38151566125452518463134765625" lon="2.49642781913280487060546875">
        <ele>1144</ele>
        <time>2022-07-27T16:15:15.000Z</time>
      </trkpt>
      <trkpt lat="42.38148464821279048919677734375" lon="2.49628406949341297149658203125">
        <ele>1142.800048828125</ele>
        <time>2022-07-27T16:15:16.000Z</time>
      </trkpt>
      <trkpt lat="42.3815573193132877349853515625" lon="2.4960370548069477081298828125">
        <ele>1141.5999755859375</ele>
        <time>2022-07-27T16:15:18.000Z</time>
      </trkpt>
      <trkpt lat="42.38170844502747058868408203125" lon="2.49585709534585475921630859375">
        <ele>1141</ele>
        <time>2022-07-27T16:15:20.000Z</time>
      </trkpt>
      <trkpt lat="42.381902821362018585205078125" lon="2.49580713920295238494873046875">
        <ele>1140.199951171875</ele>
        <time>2022-07-27T16:15:22.000Z</time>
      </trkpt>
      <trkpt lat="42.3821085132658481597900390625" lon="2.49589196406304836273193359375">
        <ele>1139.5999755859375</ele>
        <time>2022-07-27T16:15:24.000Z</time>
      </trkpt>
      <trkpt lat="42.3822168074548244476318359375" lon="2.4959653057157993316650390625">
        <ele>1139</ele>
        <time>2022-07-27T16:15:25.000Z</time>
      </trkpt>
      <trkpt lat="42.3824442923069000244140625" lon="2.496120370924472808837890625">
        <ele>1138</ele>
        <time>2022-07-27T16:15:27.000Z</time>
      </trkpt>
      <trkpt lat="42.38256298005580902099609375" lon="2.49617837369441986083984375">
        <ele>1137.199951171875</ele>
        <time>2022-07-27T16:15:28.000Z</time>
      </trkpt>
      <trkpt lat="42.3826885409653186798095703125" lon="2.49622573144733905792236328125">
        <ele>1136.199951171875</ele>
        <time>2022-07-27T16:15:29.000Z</time>
      </trkpt>
      <trkpt lat="42.38294477574527263641357421875" lon="2.49629429541528224945068359375">
        <ele>1134.800048828125</ele>
        <time>2022-07-27T16:15:31.000Z</time>
      </trkpt>
      <trkpt lat="42.38307662308216094970703125" lon="2.496313489973545074462890625">
        <ele>1134</ele>
        <time>2022-07-27T16:15:32.000Z</time>
      </trkpt>
      <trkpt lat="42.3832068778574466705322265625" lon="2.49632455408573150634765625">
        <ele>1132.800048828125</ele>
        <time>2022-07-27T16:15:33.000Z</time>
      </trkpt>
      <trkpt lat="42.3833401501178741455078125" lon="2.49632933177053928375244140625">
        <ele>1131.5999755859375</ele>
        <time>2022-07-27T16:15:34.000Z</time>
      </trkpt>
      <trkpt lat="42.38359672017395496368408203125" lon="2.4962871707975864410400390625">
        <ele>1130.199951171875</ele>
        <time>2022-07-27T16:15:36.000Z</time>
      </trkpt>
      <trkpt lat="42.3838363587856292724609375" lon="2.49612280167639255523681640625">
        <ele>1128.4000244140625</ele>
        <time>2022-07-27T16:15:38.000Z</time>
      </trkpt>
      <trkpt lat="42.38394792191684246063232421875" lon="2.49600746668875217437744140625">
        <ele>1126.800048828125</ele>
        <time>2022-07-27T16:15:39.000Z</time>
      </trkpt>
      <trkpt lat="42.3840490914881229400634765625" lon="2.49588039703667163848876953125">
        <ele>1125.5999755859375</ele>
        <time>2022-07-27T16:15:40.000Z</time>
      </trkpt>
      <trkpt lat="42.38414347171783447265625" lon="2.49575751833617687225341796875">
        <ele>1124.4000244140625</ele>
        <time>2022-07-27T16:15:41.000Z</time>
      </trkpt>
      <trkpt lat="42.3842378519475460052490234375" lon="2.49564872123301029205322265625">
        <ele>1124</ele>
        <time>2022-07-27T16:15:42.000Z</time>
      </trkpt>
      <trkpt lat="42.3843330703675746917724609375" lon="2.4955643154680728912353515625">
        <ele>1123.199951171875</ele>
        <time>2022-07-27T16:15:43.000Z</time>
      </trkpt>
      <trkpt lat="42.38443222828209400177001953125" lon="2.49552248977124691009521484375">
        <ele>1121.800048828125</ele>
        <time>2022-07-27T16:15:44.000Z</time>
      </trkpt>
      <trkpt lat="42.384505905210971832275390625" lon="2.49551176093518733978271484375">
        <ele>1120.5999755859375</ele>
        <time>2022-07-27T16:15:45.000Z</time>
      </trkpt>
      <trkpt lat="42.3845697753131389617919921875" lon="2.49554864130914211273193359375">
        <ele>1119.5999755859375</ele>
        <time>2022-07-27T16:15:46.000Z</time>
      </trkpt>
      <trkpt lat="42.3846224136650562286376953125" lon="2.4956276826560497283935546875">
        <ele>1118.800048828125</ele>
        <time>2022-07-27T16:15:47.000Z</time>
      </trkpt>
      <trkpt lat="42.38469826988875865936279296875" lon="2.49582792632281780242919921875">
        <ele>1117.5999755859375</ele>
        <time>2022-07-27T16:15:48.000Z</time>
      </trkpt>
      <trkpt lat="42.3847689293324947357177734375" lon="2.49597595073282718658447265625">
        <ele>1116.5999755859375</ele>
        <time>2022-07-27T16:15:49.000Z</time>
      </trkpt>
      <trkpt lat="42.384839840233325958251953125" lon="2.49611307866871356964111328125">
        <ele>1115.800048828125</ele>
        <time>2022-07-27T16:15:50.000Z</time>
      </trkpt>
      <trkpt lat="42.38503689877688884735107421875" lon="2.4962871707975864410400390625">
        <ele>1114.5999755859375</ele>
        <time>2022-07-27T16:15:52.000Z</time>
      </trkpt>
      <trkpt lat="42.38527812995016574859619140625" lon="2.49631759710609912872314453125">
        <ele>1113</ele>
        <time>2022-07-27T16:15:54.000Z</time>
      </trkpt>
      <trkpt lat="42.385401427745819091796875" lon="2.496277280151844024658203125">
        <ele>1111.5999755859375</ele>
        <time>2022-07-27T16:15:55.000Z</time>
      </trkpt>
      <trkpt lat="42.38551684655249118804931640625" lon="2.4962134100496768951416015625">
        <ele>1110.5999755859375</ele>
        <time>2022-07-27T16:15:56.000Z</time>
      </trkpt>
      <trkpt lat="42.3856342770159244537353515625" lon="2.496136128902435302734375">
        <ele>1109.4000244140625</ele>
        <time>2022-07-27T16:15:57.000Z</time>
      </trkpt>
      <trkpt lat="42.38586989231407642364501953125" lon="2.49597494490444660186767578125">
        <ele>1108</ele>
        <time>2022-07-27T16:15:59.000Z</time>
      </trkpt>
      <trkpt lat="42.38608296029269695281982421875" lon="2.49586044810712337493896484375">
        <ele>1107</ele>
        <time>2022-07-27T16:16:01.000Z</time>
      </trkpt>
      <trkpt lat="42.3862853832542896270751953125" lon="2.4958436004817485809326171875">
        <ele>1105.199951171875</ele>
        <time>2022-07-27T16:16:03.000Z</time>
      </trkpt>
      <trkpt lat="42.38638655282557010650634765625" lon="2.49589028768241405487060546875">
        <ele>1104</ele>
        <time>2022-07-27T16:16:04.000Z</time>
      </trkpt>
      <trkpt lat="42.38646668381989002227783203125" lon="2.4959800578653812408447265625">
        <ele>1102.5999755859375</ele>
        <time>2022-07-27T16:16:05.000Z</time>
      </trkpt>
      <trkpt lat="42.38655100576579570770263671875" lon="2.496078796684741973876953125">
        <ele>1101</ele>
        <time>2022-07-27T16:16:06.000Z</time>
      </trkpt>
      <trkpt lat="42.38664261996746063232421875" lon="2.49617828987538814544677734375">
        <ele>1099.5999755859375</ele>
        <time>2022-07-27T16:16:07.000Z</time>
      </trkpt>
      <trkpt lat="42.3867386765778064727783203125" lon="2.49627300538122653961181640625">
        <ele>1098.4000244140625</ele>
        <time>2022-07-27T16:16:08.000Z</time>
      </trkpt>
      <trkpt lat="42.38683699630200862884521484375" lon="2.4963542260229587554931640625">
        <ele>1097.199951171875</ele>
        <time>2022-07-27T16:16:09.000Z</time>
      </trkpt>
      <trkpt lat="42.3869415186345577239990234375" lon="2.49641348607838153839111328125">
        <ele>1097</ele>
        <time>2022-07-27T16:16:10.000Z</time>
      </trkpt>
      <trkpt lat="42.38717428408563137054443359375" lon="2.4963880889117717742919921875">
        <ele>1095.800048828125</ele>
        <time>2022-07-27T16:16:12.000Z</time>
      </trkpt>
      <trkpt lat="42.387413419783115386962890625" lon="2.4962392263114452362060546875">
        <ele>1093.4000244140625</ele>
        <time>2022-07-27T16:16:14.000Z</time>
      </trkpt>
      <trkpt lat="42.387520708143711090087890625" lon="2.4961208738386631011962890625">
        <ele>1091.5999755859375</ele>
        <time>2022-07-27T16:16:15.000Z</time>
      </trkpt>
      <trkpt lat="42.387601844966411590576171875" lon="2.495977543294429779052734375">
        <ele>1090.4000244140625</ele>
        <time>2022-07-27T16:16:16.000Z</time>
      </trkpt>
      <trkpt lat="42.387692034244537353515625" lon="2.49582574702799320220947265625">
        <ele>1089.4000244140625</ele>
        <time>2022-07-27T16:16:17.000Z</time>
      </trkpt>
      <trkpt lat="42.38778381608426570892333984375" lon="2.4956662394106388092041015625">
        <ele>1088.4000244140625</ele>
        <time>2022-07-27T16:16:18.000Z</time>
      </trkpt>
      <trkpt lat="42.3878705687820911407470703125" lon="2.49550354667007923126220703125">
        <ele>1087.4000244140625</ele>
        <time>2022-07-27T16:16:19.000Z</time>
      </trkpt>
      <trkpt lat="42.38795933313667774200439453125" lon="2.4953359924256801605224609375">
        <ele>1086.199951171875</ele>
        <time>2022-07-27T16:16:20.000Z</time>
      </trkpt>
      <trkpt lat="42.3881573975086212158203125" lon="2.494982779026031494140625">
        <ele>1084.5999755859375</ele>
        <time>2022-07-27T16:16:22.000Z</time>
      </trkpt>
      <trkpt lat="42.38834716379642486572265625" lon="2.4946319125592708587646484375">
        <ele>1083</ele>
        <time>2022-07-27T16:16:24.000Z</time>
      </trkpt>
      <trkpt lat="42.38844363950192928314208984375" lon="2.494449354708194732666015625">
        <ele>1081.4000244140625</ele>
        <time>2022-07-27T16:16:25.000Z</time>
      </trkpt>
      <trkpt lat="42.388551346957683563232421875" lon="2.49426386319100856781005859375">
        <ele>1079.800048828125</ele>
        <time>2022-07-27T16:16:26.000Z</time>
      </trkpt>
      <trkpt lat="42.38865964114665985107421875" lon="2.4940780363976955413818359375">
        <ele>1078</ele>
        <time>2022-07-27T16:16:27.000Z</time>
      </trkpt>
      <trkpt lat="42.3887670971453189849853515625" lon="2.49389539472758769989013671875">
        <ele>1076.199951171875</ele>
        <time>2022-07-27T16:16:28.000Z</time>
      </trkpt>
      <trkpt lat="42.3888713680207729339599609375" lon="2.49372088350355625152587890625">
        <ele>1074.199951171875</ele>
        <time>2022-07-27T16:16:29.000Z</time>
      </trkpt>
      <trkpt lat="42.388977818191051483154296875" lon="2.493563555181026458740234375">
        <ele>1072</ele>
        <time>2022-07-27T16:16:30.000Z</time>
      </trkpt>
      <trkpt lat="42.3890961706638336181640625" lon="2.49343137256801128387451171875">
        <ele>1070</ele>
        <time>2022-07-27T16:16:31.000Z</time>
      </trkpt>
      <trkpt lat="42.38921946845948696136474609375" lon="2.49332576058804988861083984375">
        <ele>1067.800048828125</ele>
        <time>2022-07-27T16:16:32.000Z</time>
      </trkpt>
      <trkpt lat="42.38934620283544063568115234375" lon="2.4932395108044147491455078125">
        <ele>1065.4000244140625</ele>
        <time>2022-07-27T16:16:33.000Z</time>
      </trkpt>
      <trkpt lat="42.3894743621349334716796875" lon="2.49315845780074596405029296875">
        <ele>1063</ele>
        <time>2022-07-27T16:16:34.000Z</time>
      </trkpt>
      <trkpt lat="42.38959229551255702972412109375" lon="2.49307849444448947906494140625">
        <ele>1060.800048828125</ele>
        <time>2022-07-27T16:16:35.000Z</time>
      </trkpt>
      <trkpt lat="42.3897226341068744659423828125" lon="2.49299417249858379364013671875">
        <ele>1058.800048828125</ele>
        <time>2022-07-27T16:16:36.000Z</time>
      </trkpt>
      <trkpt lat="42.389860264956951141357421875" lon="2.4929112754762172698974609375">
        <ele>1055.5999755859375</ele>
        <time>2022-07-27T16:16:37.000Z</time>
      </trkpt>
      <trkpt lat="42.3901413939893245697021484375" lon="2.49275830574333667755126953125">
        <ele>1054.4000244140625</ele>
        <time>2022-07-27T16:16:39.000Z</time>
      </trkpt>
      <trkpt lat="42.3904421366751194000244140625" lon="2.492630481719970703125">
        <ele>1052.5999755859375</ele>
        <time>2022-07-27T16:16:41.000Z</time>
      </trkpt>
      <trkpt lat="42.39059485495090484619140625" lon="2.4925702996551990509033203125">
        <ele>1051.4000244140625</ele>
        <time>2022-07-27T16:16:42.000Z</time>
      </trkpt>
      <trkpt lat="42.39074547775089740753173828125" lon="2.4925143085420131683349609375">
        <ele>1050.4000244140625</ele>
        <time>2022-07-27T16:16:43.000Z</time>
      </trkpt>
      <trkpt lat="42.390902973711490631103515625" lon="2.49246829189360141754150390625">
        <ele>1049.5999755859375</ele>
        <time>2022-07-27T16:16:44.000Z</time>
      </trkpt>
      <trkpt lat="42.3912052251398563385009765625" lon="2.49238028191030025482177734375">
        <ele>1047.800048828125</ele>
        <time>2022-07-27T16:16:46.000Z</time>
      </trkpt>
      <trkpt lat="42.39134964533150196075439453125" lon="2.49234491027891635894775390625">
        <ele>1047</ele>
        <time>2022-07-27T16:16:47.000Z</time>
      </trkpt>
      <trkpt lat="42.39149473607540130615234375" lon="2.492327392101287841796875">
        <ele>1045.800048828125</ele>
        <time>2022-07-27T16:16:48.000Z</time>
      </trkpt>
      <trkpt lat="42.39160470664501190185546875" lon="2.49235547147691249847412109375">
        <ele>1044</ele>
        <time>2022-07-27T16:16:49.000Z</time>
      </trkpt>
      <trkpt lat="42.39172917790710926055908203125" lon="2.49239671044051647186279296875">
        <ele>1042.199951171875</ele>
        <time>2022-07-27T16:16:50.000Z</time>
      </trkpt>
      <trkpt lat="42.39187217317521572113037109375" lon="2.4924382008612155914306640625">
        <ele>1040.4000244140625</ele>
        <time>2022-07-27T16:16:51.000Z</time>
      </trkpt>
      <trkpt lat="42.392020784318447113037109375" lon="2.4924797751009464263916015625">
        <ele>1038.5999755859375</ele>
        <time>2022-07-27T16:16:52.000Z</time>
      </trkpt>
      <trkpt lat="42.39216260612010955810546875" lon="2.49252629466354846954345703125">
        <ele>1036.800048828125</ele>
        <time>2022-07-27T16:16:53.000Z</time>
      </trkpt>
      <trkpt lat="42.392297051846981048583984375" lon="2.4925729818642139434814453125">
        <ele>1035.4000244140625</ele>
        <time>2022-07-27T16:16:54.000Z</time>
      </trkpt>
      <trkpt lat="42.3924194276332855224609375" lon="2.4926155619323253631591796875">
        <ele>1034.199951171875</ele>
        <time>2022-07-27T16:16:55.000Z</time>
      </trkpt>
      <trkpt lat="42.3925376124680042266845703125" lon="2.49264297075569629669189453125">
        <ele>1033.4000244140625</ele>
        <time>2022-07-27T16:16:56.000Z</time>
      </trkpt>
      <trkpt lat="42.39266292192041873931884765625" lon="2.49265135265886783599853515625">
        <ele>1032.5999755859375</ele>
        <time>2022-07-27T16:16:57.000Z</time>
      </trkpt>
      <trkpt lat="42.39277222193777561187744140625" lon="2.49263651669025421142578125">
        <ele>1032.199951171875</ele>
        <time>2022-07-27T16:16:58.000Z</time>
      </trkpt>
      <trkpt lat="42.39288546144962310791015625" lon="2.4925927631556987762451171875">
        <ele>1031.5999755859375</ele>
        <time>2022-07-27T16:16:59.000Z</time>
      </trkpt>
      <trkpt lat="42.39312711171805858612060546875" lon="2.49244683422148227691650390625">
        <ele>1029.199951171875</ele>
        <time>2022-07-27T16:17:01.000Z</time>
      </trkpt>
      <trkpt lat="42.39325451664626598358154296875" lon="2.49235580675303936004638671875">
        <ele>1027</ele>
        <time>2022-07-27T16:17:02.000Z</time>
      </trkpt>
      <trkpt lat="42.39338032901287078857421875" lon="2.49226276762783527374267578125">
        <ele>1025.5999755859375</ele>
        <time>2022-07-27T16:17:03.000Z</time>
      </trkpt>
      <trkpt lat="42.39365391433238983154296875" lon="2.4920680560171604156494140625">
        <ele>1023.5999755859375</ele>
        <time>2022-07-27T16:17:05.000Z</time>
      </trkpt>
      <trkpt lat="42.39393210969865322113037109375" lon="2.4918727576732635498046875">
        <ele>1022.4000244140625</ele>
        <time>2022-07-27T16:17:07.000Z</time>
      </trkpt>
      <trkpt lat="42.394205443561077117919921875" lon="2.4916757829487323760986328125">
        <ele>1019.5999755859375</ele>
        <time>2022-07-27T16:17:09.000Z</time>
      </trkpt>
      <trkpt lat="42.39433695562183856964111328125" lon="2.49157276935875415802001953125">
        <ele>1017.5999755859375</ele>
        <time>2022-07-27T16:17:10.000Z</time>
      </trkpt>
      <trkpt lat="42.39443820901215076446533203125" lon="2.49146045185625553131103515625">
        <ele>1015.79998779296875</ele>
        <time>2022-07-27T16:17:11.000Z</time>
      </trkpt>
      <trkpt lat="42.3945410549640655517578125" lon="2.49134528450667858123779296875">
        <ele>1014</ele>
        <time>2022-07-27T16:17:12.000Z</time>
      </trkpt>
      <trkpt lat="42.39465211518108844757080078125" lon="2.4912290275096893310546875">
        <ele>1012.4000244140625</ele>
        <time>2022-07-27T16:17:13.000Z</time>
      </trkpt>
      <trkpt lat="42.39474951289594173431396484375" lon="2.4911051429808139801025390625">
        <ele>1010.79998779296875</ele>
        <time>2022-07-27T16:17:14.000Z</time>
      </trkpt>
      <trkpt lat="42.39484615623950958251953125" lon="2.49097228981554508209228515625">
        <ele>1009</ele>
        <time>2022-07-27T16:17:15.000Z</time>
      </trkpt>
      <trkpt lat="42.3949345014989376068115234375" lon="2.490834407508373260498046875">
        <ele>1007.4000244140625</ele>
        <time>2022-07-27T16:17:16.000Z</time>
      </trkpt>
      <trkpt lat="42.39501505158841609954833984375" lon="2.4906880594789981842041015625">
        <ele>1006</ele>
        <time>2022-07-27T16:17:17.000Z</time>
      </trkpt>
      <trkpt lat="42.39507950842380523681640625" lon="2.49053500592708587646484375">
        <ele>1004.5999755859375</ele>
        <time>2022-07-27T16:17:18.000Z</time>
      </trkpt>
      <trkpt lat="42.39519174210727214813232421875" lon="2.49020375311374664306640625">
        <ele>1002.79998779296875</ele>
        <time>2022-07-27T16:17:20.000Z</time>
      </trkpt>
      <trkpt lat="42.39523214288055896759033203125" lon="2.4900191836059093475341796875">
        <ele>1001.79998779296875</ele>
        <time>2022-07-27T16:17:21.000Z</time>
      </trkpt>
      <trkpt lat="42.395262904465198516845703125" lon="2.4898262321949005126953125">
        <ele>1000.79998779296875</ele>
        <time>2022-07-27T16:17:22.000Z</time>
      </trkpt>
      <trkpt lat="42.3952788300812244415283203125" lon="2.48962850309908390045166015625">
        <ele>1000</ele>
        <time>2022-07-27T16:17:23.000Z</time>
      </trkpt>
      <trkpt lat="42.3952872119843959808349609375" lon="2.4894319474697113037109375">
        <ele>998.79998779296875</ele>
        <time>2022-07-27T16:17:24.000Z</time>
      </trkpt>
      <trkpt lat="42.39528913982212543487548828125" lon="2.48924042098224163055419921875">
        <ele>997.5999755859375</ele>
        <time>2022-07-27T16:17:25.000Z</time>
      </trkpt>
      <trkpt lat="42.39528880454599857330322265625" lon="2.48906389810144901275634765625">
        <ele>996.5999755859375</ele>
        <time>2022-07-27T16:17:26.000Z</time>
      </trkpt>
      <trkpt lat="42.39531612955033779144287109375" lon="2.48876801691949367523193359375">
        <ele>995</ele>
        <time>2022-07-27T16:17:28.000Z</time>
      </trkpt>
      <trkpt lat="42.39535569213330745697021484375" lon="2.4886623211205005645751953125">
        <ele>993.79998779296875</ele>
        <time>2022-07-27T16:17:29.000Z</time>
      </trkpt>
      <trkpt lat="42.39541268907487392425537109375" lon="2.4885939247906208038330078125">
        <ele>992.5999755859375</ele>
        <time>2022-07-27T16:17:30.000Z</time>
      </trkpt>
      <trkpt lat="42.3954793252050876617431640625" lon="2.48858629725873470306396484375">
        <ele>991</ele>
        <time>2022-07-27T16:17:31.000Z</time>
      </trkpt>
      <trkpt lat="42.39563447423279285430908203125" lon="2.488744966685771942138671875">
        <ele>989.4000244140625</ele>
        <time>2022-07-27T16:17:33.000Z</time>
      </trkpt>
      <trkpt lat="42.39570454694330692291259765625" lon="2.48900606296956539154052734375">
        <ele>989</ele>
        <time>2022-07-27T16:17:35.000Z</time>
      </trkpt>
      <trkpt lat="42.395654506981372833251953125" lon="2.48927394859492778778076171875">
        <ele>988.79998779296875</ele>
        <time>2022-07-27T16:17:37.000Z</time>
      </trkpt>
      <trkpt lat="42.39560429938137531280517578125" lon="2.48955507762730121612548828125">
        <ele>988.4000244140625</ele>
        <time>2022-07-27T16:17:39.000Z</time>
      </trkpt>
      <trkpt lat="42.39558334462344646453857421875" lon="2.48985481448471546173095703125">
        <ele>987.5999755859375</ele>
        <time>2022-07-27T16:17:41.000Z</time>
      </trkpt>
      <trkpt lat="42.395588457584381103515625" lon="2.49001390300691127777099609375">
        <ele>986.79998779296875</ele>
        <time>2022-07-27T16:17:42.000Z</time>
      </trkpt>
      <trkpt lat="42.39559457637369632720947265625" lon="2.49033945612609386444091796875">
        <ele>985.5999755859375</ele>
        <time>2022-07-27T16:17:44.000Z</time>
      </trkpt>
      <trkpt lat="42.3955996893346309661865234375" lon="2.49050893820822238922119140625">
        <ele>984.4000244140625</ele>
        <time>2022-07-27T16:17:45.000Z</time>
      </trkpt>
      <trkpt lat="42.395594157278537750244140625" lon="2.49068244360387325286865234375">
        <ele>983.20001220703125</ele>
        <time>2022-07-27T16:17:46.000Z</time>
      </trkpt>
      <trkpt lat="42.3955899663269519805908203125" lon="2.49103498645126819610595703125">
        <ele>981.79998779296875</ele>
        <time>2022-07-27T16:17:48.000Z</time>
      </trkpt>
      <trkpt lat="42.39552215673029422760009765625" lon="2.49138400889933109283447265625">
        <ele>980.20001220703125</ele>
        <time>2022-07-27T16:17:50.000Z</time>
      </trkpt>
      <trkpt lat="42.39540564827620983123779296875" lon="2.49170369468629360198974609375">
        <ele>978</ele>
        <time>2022-07-27T16:17:52.000Z</time>
      </trkpt>
      <trkpt lat="42.3953499086201190948486328125" lon="2.4918484501540660858154296875">
        <ele>976.4000244140625</ele>
        <time>2022-07-27T16:17:53.000Z</time>
      </trkpt>
      <trkpt lat="42.39530405960977077484130859375" lon="2.49198080040514469146728515625">
        <ele>974.79998779296875</ele>
        <time>2022-07-27T16:17:54.000Z</time>
      </trkpt>
      <trkpt lat="42.3952738009393215179443359375" lon="2.49209378845989704132080078125">
        <ele>973.5999755859375</ele>
        <time>2022-07-27T16:17:55.000Z</time>
      </trkpt>
      <trkpt lat="42.3952732980251312255859375" lon="2.49220392666757106781005859375">
        <ele>972.4000244140625</ele>
        <time>2022-07-27T16:17:56.000Z</time>
      </trkpt>
      <trkpt lat="42.3953086696565151214599609375" lon="2.49229830689728260040283203125">
        <ele>971</ele>
        <time>2022-07-27T16:17:57.000Z</time>
      </trkpt>
      <trkpt lat="42.3953733779489994049072265625" lon="2.4923741631209850311279296875">
        <ele>969.5999755859375</ele>
        <time>2022-07-27T16:17:58.000Z</time>
      </trkpt>
      <trkpt lat="42.39552835933864116668701171875" lon="2.492397129535675048828125">
        <ele>968.20001220703125</ele>
        <time>2022-07-27T16:18:00.000Z</time>
      </trkpt>
      <trkpt lat="42.39563874900341033935546875" lon="2.49224960803985595703125">
        <ele>967.4000244140625</ele>
        <time>2022-07-27T16:18:02.000Z</time>
      </trkpt>
      <trkpt lat="42.39567303098738193511962890625" lon="2.49213318340480327606201171875">
        <ele>967.20001220703125</ele>
        <time>2022-07-27T16:18:03.000Z</time>
      </trkpt>
      <trkpt lat="42.395745702087879180908203125" lon="2.49186898581683635711669921875">
        <ele>966.5999755859375</ele>
        <time>2022-07-27T16:18:05.000Z</time>
      </trkpt>
      <trkpt lat="42.39585458301007747650146484375" lon="2.4914595298469066619873046875">
        <ele>966.20001220703125</ele>
        <time>2022-07-27T16:18:08.000Z</time>
      </trkpt>
      <trkpt lat="42.39593253470957279205322265625" lon="2.4911527521908283233642578125">
        <ele>965</ele>
        <time>2022-07-27T16:18:10.000Z</time>
      </trkpt>
      <trkpt lat="42.3959731869399547576904296875" lon="2.490985952317714691162109375">
        <ele>964.4000244140625</ele>
        <time>2022-07-27T16:18:11.000Z</time>
      </trkpt>
      <trkpt lat="42.396018616855144500732421875" lon="2.49081403948366641998291015625">
        <ele>963.4000244140625</ele>
        <time>2022-07-27T16:18:12.000Z</time>
      </trkpt>
      <trkpt lat="42.39606522023677825927734375" lon="2.49062444083392620086669921875">
        <ele>962.20001220703125</ele>
        <time>2022-07-27T16:18:13.000Z</time>
      </trkpt>
      <trkpt lat="42.39614359103143215179443359375" lon="2.49024641700088977813720703125">
        <ele>960.20001220703125</ele>
        <time>2022-07-27T16:18:15.000Z</time>
      </trkpt>
      <trkpt lat="42.396192289888858795166015625" lon="2.4898267351090908050537109375">
        <ele>958.5999755859375</ele>
        <time>2022-07-27T16:18:17.000Z</time>
      </trkpt>
      <trkpt lat="42.3962340317666530609130859375" lon="2.48964048922061920166015625">
        <ele>957.4000244140625</ele>
        <time>2022-07-27T16:18:18.000Z</time>
      </trkpt>
      <trkpt lat="42.39627317525446414947509765625" lon="2.48946941457688808441162109375">
        <ele>956.79998779296875</ele>
        <time>2022-07-27T16:18:19.000Z</time>
      </trkpt>
      <trkpt lat="42.3962933756411075592041015625" lon="2.48930227942764759063720703125">
        <ele>955.5999755859375</ele>
        <time>2022-07-27T16:18:20.000Z</time>
      </trkpt>
      <trkpt lat="42.39630661904811859130859375" lon="2.489134557545185089111328125">
        <ele>954.20001220703125</ele>
        <time>2022-07-27T16:18:21.000Z</time>
      </trkpt>
      <trkpt lat="42.39630653522908687591552734375" lon="2.48896817676723003387451171875">
        <ele>952.79998779296875</ele>
        <time>2022-07-27T16:18:22.000Z</time>
      </trkpt>
      <trkpt lat="42.396298907697200775146484375" lon="2.4888209067285060882568359375">
        <ele>951.4000244140625</ele>
        <time>2022-07-27T16:18:23.000Z</time>
      </trkpt>
      <trkpt lat="42.3962742649018764495849609375" lon="2.48866626061499118804931640625">
        <ele>949.79998779296875</ele>
        <time>2022-07-27T16:18:24.000Z</time>
      </trkpt>
      <trkpt lat="42.39624333567917346954345703125" lon="2.488527037203311920166015625">
        <ele>948.20001220703125</ele>
        <time>2022-07-27T16:18:25.000Z</time>
      </trkpt>
      <trkpt lat="42.39621802233159542083740234375" lon="2.488385550677776336669921875">
        <ele>947</ele>
        <time>2022-07-27T16:18:26.000Z</time>
      </trkpt>
      <trkpt lat="42.3962072096765041351318359375" lon="2.48825018294155597686767578125">
        <ele>946</ele>
        <time>2022-07-27T16:18:27.000Z</time>
      </trkpt>
      <trkpt lat="42.39622506313025951385498046875" lon="2.48812504112720489501953125">
        <ele>945.5999755859375</ele>
        <time>2022-07-27T16:18:28.000Z</time>
      </trkpt>
      <trkpt lat="42.3962705768644809722900390625" lon="2.48801029287278652191162109375">
        <ele>944.20001220703125</ele>
        <time>2022-07-27T16:18:29.000Z</time>
      </trkpt>
      <trkpt lat="42.39633369259536266326904296875" lon="2.48795597814023494720458984375">
        <ele>943.4000244140625</ele>
        <time>2022-07-27T16:18:30.000Z</time>
      </trkpt>
      <trkpt lat="42.39640946500003337860107421875" lon="2.48788892291486263275146484375">
        <ele>942.4000244140625</ele>
        <time>2022-07-27T16:18:31.000Z</time>
      </trkpt>
      <trkpt lat="42.39648339338600635528564453125" lon="2.4877983145415782928466796875">
        <ele>941.5999755859375</ele>
        <time>2022-07-27T16:18:32.000Z</time>
      </trkpt>
      <trkpt lat="42.39655011333525180816650390625" lon="2.48770234175026416778564453125">
        <ele>941.20001220703125</ele>
        <time>2022-07-27T16:18:33.000Z</time>
      </trkpt>
      <trkpt lat="42.3966149054467678070068359375" lon="2.4875884316861629486083984375">
        <ele>940.5999755859375</ele>
        <time>2022-07-27T16:18:34.000Z</time>
      </trkpt>
      <trkpt lat="42.39671356044709682464599609375" lon="2.4873237311840057373046875">
        <ele>940</ele>
        <time>2022-07-27T16:18:36.000Z</time>
      </trkpt>
      <trkpt lat="42.39674725569784641265869140625" lon="2.48718517832458019256591796875">
        <ele>939.5999755859375</ele>
        <time>2022-07-27T16:18:37.000Z</time>
      </trkpt>
      <trkpt lat="42.39678296260535717010498046875" lon="2.48703782446682453155517578125">
        <ele>939.20001220703125</ele>
        <time>2022-07-27T16:18:38.000Z</time>
      </trkpt>
      <trkpt lat="42.396809868514537811279296875" lon="2.48689533211290836334228515625">
        <ele>939</ele>
        <time>2022-07-27T16:18:39.000Z</time>
      </trkpt>
      <trkpt lat="42.3968442343175411224365234375" lon="2.4864659272134304046630859375">
        <ele>938.4000244140625</ele>
        <time>2022-07-27T16:18:42.000Z</time>
      </trkpt>
      <trkpt lat="42.3968236148357391357421875" lon="2.4863334931433200836181640625">
        <ele>937.79998779296875</ele>
        <time>2022-07-27T16:18:43.000Z</time>
      </trkpt>
      <trkpt lat="42.39674775861203670501708984375" lon="2.48607927002012729644775390625">
        <ele>936.79998779296875</ele>
        <time>2022-07-27T16:18:45.000Z</time>
      </trkpt>
      <trkpt lat="42.39671121351420879364013671875" lon="2.485723458230495452880859375">
        <ele>935.5999755859375</ele>
        <time>2022-07-27T16:18:48.000Z</time>
      </trkpt>
      <trkpt lat="42.3968128859996795654296875" lon="2.485561184585094451904296875">
        <ele>935.20001220703125</ele>
        <time>2022-07-27T16:18:50.000Z</time>
      </trkpt>
      <trkpt lat="42.39687717519700527191162109375" lon="2.4854845739901065826416015625">
        <ele>935</ele>
        <time>2022-07-27T16:18:51.000Z</time>
      </trkpt>
      <trkpt lat="42.39693651907145977020263671875" lon="2.48540737666189670562744140625">
        <ele>934.4000244140625</ele>
        <time>2022-07-27T16:18:52.000Z</time>
      </trkpt>
      <trkpt lat="42.39700122736394405364990234375" lon="2.485308386385440826416015625">
        <ele>933.79998779296875</ele>
        <time>2022-07-27T16:18:53.000Z</time>
      </trkpt>
      <trkpt lat="42.3970474116504192352294921875" lon="2.48520654626190662384033203125">
        <ele>933.5999755859375</ele>
        <time>2022-07-27T16:18:54.000Z</time>
      </trkpt>
      <trkpt lat="42.39708186127245426177978515625" lon="2.48509305529296398162841796875">
        <ele>933</ele>
        <time>2022-07-27T16:18:55.000Z</time>
      </trkpt>
      <trkpt lat="42.3970945179462432861328125" lon="2.48484008945524692535400390625">
        <ele>932</ele>
        <time>2022-07-27T16:18:57.000Z</time>
      </trkpt>
      <trkpt lat="42.39708085544407367706298828125" lon="2.484702877700328826904296875">
        <ele>931.79998779296875</ele>
        <time>2022-07-27T16:18:58.000Z</time>
      </trkpt>
      <trkpt lat="42.39703425206243991851806640625" lon="2.48441311530768871307373046875">
        <ele>931.4000244140625</ele>
        <time>2022-07-27T16:19:00.000Z</time>
      </trkpt>
      <trkpt lat="42.396948002278804779052734375" lon="2.48393819667398929595947265625">
        <ele>930.4000244140625</ele>
        <time>2022-07-27T16:19:03.000Z</time>
      </trkpt>
      <trkpt lat="42.396889664232730865478515625" lon="2.48361758887767791748046875">
        <ele>929</ele>
        <time>2022-07-27T16:19:05.000Z</time>
      </trkpt>
      <trkpt lat="42.3968616686761379241943359375" lon="2.48345665633678436279296875">
        <ele>928.4000244140625</ele>
        <time>2022-07-27T16:19:06.000Z</time>
      </trkpt>
      <trkpt lat="42.3968345113098621368408203125" lon="2.483294047415256500244140625">
        <ele>927.79998779296875</ele>
        <time>2022-07-27T16:19:07.000Z</time>
      </trkpt>
      <trkpt lat="42.3967812024056911468505859375" lon="2.48298215679824352264404296875">
        <ele>926</ele>
        <time>2022-07-27T16:19:09.000Z</time>
      </trkpt>
      <trkpt lat="42.39674725569784641265869140625" lon="2.48284150846302509307861328125">
        <ele>924.79998779296875</ele>
        <time>2022-07-27T16:19:10.000Z</time>
      </trkpt>
      <trkpt lat="42.3967097885906696319580078125" lon="2.4827151931822299957275390625">
        <ele>923.4000244140625</ele>
        <time>2022-07-27T16:19:11.000Z</time>
      </trkpt>
      <trkpt lat="42.39665932953357696533203125" lon="2.4826042167842388153076171875">
        <ele>922.20001220703125</ele>
        <time>2022-07-27T16:19:12.000Z</time>
      </trkpt>
      <trkpt lat="42.39658950828015804290771484375" lon="2.4825053103268146514892578125">
        <ele>921.20001220703125</ele>
        <time>2022-07-27T16:19:13.000Z</time>
      </trkpt>
      <trkpt lat="42.3965044319629669189453125" lon="2.4824030511081218719482421875">
        <ele>920</ele>
        <time>2022-07-27T16:19:14.000Z</time>
      </trkpt>
      <trkpt lat="42.39640946500003337860107421875" lon="2.48230154626071453094482421875">
        <ele>918.79998779296875</ele>
        <time>2022-07-27T16:19:15.000Z</time>
      </trkpt>
      <trkpt lat="42.39631064236164093017578125" lon="2.48220146633684635162353515625">
        <ele>917.79998779296875</ele>
        <time>2022-07-27T16:19:16.000Z</time>
      </trkpt>
      <trkpt lat="42.39620679058134555816650390625" lon="2.48209903948009014129638671875">
        <ele>916.79998779296875</ele>
        <time>2022-07-27T16:19:17.000Z</time>
      </trkpt>
      <trkpt lat="42.39610184915363788604736328125" lon="2.4819913320243358612060546875">
        <ele>915.5999755859375</ele>
        <time>2022-07-27T16:19:18.000Z</time>
      </trkpt>
      <trkpt lat="42.39589112810790538787841796875" lon="2.4817680381238460540771484375">
        <ele>914.4000244140625</ele>
        <time>2022-07-27T16:19:20.000Z</time>
      </trkpt>
      <trkpt lat="42.395672611892223358154296875" lon="2.4815454147756099700927734375">
        <ele>913</ele>
        <time>2022-07-27T16:19:22.000Z</time>
      </trkpt>
      <trkpt lat="42.395569346845149993896484375" lon="2.48144575394690036773681640625">
        <ele>911.5999755859375</ele>
        <time>2022-07-27T16:19:23.000Z</time>
      </trkpt>
      <trkpt lat="42.39546750672161579132080078125" lon="2.4813636951148509979248046875">
        <ele>910.20001220703125</ele>
        <time>2022-07-27T16:19:24.000Z</time>
      </trkpt>
      <trkpt lat="42.395366169512271881103515625" lon="2.48130225576460361480712890625">
        <ele>907.20001220703125</ele>
        <time>2022-07-27T16:19:25.000Z</time>
      </trkpt>
      <trkpt lat="42.39525544457137584686279296875" lon="2.4812802113592624664306640625">
        <ele>906</ele>
        <time>2022-07-27T16:19:26.000Z</time>
      </trkpt>
      <trkpt lat="42.39513156004250049591064453125" lon="2.48128985054790973663330078125">
        <ele>904.4000244140625</ele>
        <time>2022-07-27T16:19:27.000Z</time>
      </trkpt>
      <trkpt lat="42.39500717259943485260009765625" lon="2.48131667263805866241455078125">
        <ele>902.5999755859375</ele>
        <time>2022-07-27T16:19:28.000Z</time>
      </trkpt>
      <trkpt lat="42.39488907158374786376953125" lon="2.48134768567979335784912109375">
        <ele>901.4000244140625</ele>
        <time>2022-07-27T16:19:29.000Z</time>
      </trkpt>
      <trkpt lat="42.394779436290264129638671875" lon="2.4813667125999927520751953125">
        <ele>900.79998779296875</ele>
        <time>2022-07-27T16:19:30.000Z</time>
      </trkpt>
      <trkpt lat="42.39467273466289043426513671875" lon="2.4813693948090076446533203125">
        <ele>900.4000244140625</ele>
        <time>2022-07-27T16:19:31.000Z</time>
      </trkpt>
      <trkpt lat="42.3945710621774196624755859375" lon="2.4813449196517467498779296875">
        <ele>900</ele>
        <time>2022-07-27T16:19:32.000Z</time>
      </trkpt>
      <trkpt lat="42.39439026452600955963134765625" lon="2.48115892522037029266357421875">
        <ele>899.4000244140625</ele>
        <time>2022-07-27T16:19:34.000Z</time>
      </trkpt>
      <trkpt lat="42.39431600086390972137451171875" lon="2.48102380894124507904052734375">
        <ele>898.5999755859375</ele>
        <time>2022-07-27T16:19:35.000Z</time>
      </trkpt>
      <trkpt lat="42.39425280131399631500244140625" lon="2.48088148422539234161376953125">
        <ele>897.5999755859375</ele>
        <time>2022-07-27T16:19:36.000Z</time>
      </trkpt>
      <trkpt lat="42.39419144578278064727783203125" lon="2.4807333759963512420654296875">
        <ele>896.5999755859375</ele>
        <time>2022-07-27T16:19:37.000Z</time>
      </trkpt>
      <trkpt lat="42.39412941969931125640869140625" lon="2.48058007098734378814697265625">
        <ele>895.79998779296875</ele>
        <time>2022-07-27T16:19:38.000Z</time>
      </trkpt>
      <trkpt lat="42.39400050602853298187255859375" lon="2.48028754256665706634521484375">
        <ele>893.79998779296875</ele>
        <time>2022-07-27T16:19:40.000Z</time>
      </trkpt>
      <trkpt lat="42.3939321935176849365234375" lon="2.48015745542943477630615234375">
        <ele>893.20001220703125</ele>
        <time>2022-07-27T16:19:41.000Z</time>
      </trkpt>
      <trkpt lat="42.3938696645200252532958984375" lon="2.48003675602376461029052734375">
        <ele>892.4000244140625</ele>
        <time>2022-07-27T16:19:42.000Z</time>
      </trkpt>
      <trkpt lat="42.393785677850246429443359375" lon="2.47983508743345737457275390625">
        <ele>890.4000244140625</ele>
        <time>2022-07-27T16:19:44.000Z</time>
      </trkpt>
      <trkpt lat="42.39376723766326904296875" lon="2.4797223508358001708984375">
        <ele>888.79998779296875</ele>
        <time>2022-07-27T16:19:45.000Z</time>
      </trkpt>
      <trkpt lat="42.39377595484256744384765625" lon="2.47962067835032939910888671875">
        <ele>887.20001220703125</ele>
        <time>2022-07-27T16:19:46.000Z</time>
      </trkpt>
      <trkpt lat="42.3938478715717792510986328125" lon="2.47953568585216999053955078125">
        <ele>885.5999755859375</ele>
        <time>2022-07-27T16:19:47.000Z</time>
      </trkpt>
      <trkpt lat="42.39391752518713474273681640625" lon="2.479460500180721282958984375">
        <ele>884.4000244140625</ele>
        <time>2022-07-27T16:19:48.000Z</time>
      </trkpt>
      <trkpt lat="42.39409522153437137603759765625" lon="2.47935983352363109588623046875">
        <ele>883.20001220703125</ele>
        <time>2022-07-27T16:19:50.000Z</time>
      </trkpt>
      <trkpt lat="42.39420108497142791748046875" lon="2.47931825928390026092529296875">
        <ele>883</ele>
        <time>2022-07-27T16:19:51.000Z</time>
      </trkpt>
      <trkpt lat="42.394511215388774871826171875" lon="2.47923611663281917572021484375">
        <ele>882.20001220703125</ele>
        <time>2022-07-27T16:19:54.000Z</time>
      </trkpt>
      <trkpt lat="42.39479108713567256927490234375" lon="2.478940486907958984375">
        <ele>880.79998779296875</ele>
        <time>2022-07-27T16:19:57.000Z</time>
      </trkpt>
      <trkpt lat="42.39489116705954074859619140625" lon="2.47880931012332439422607421875">
        <ele>880</ele>
        <time>2022-07-27T16:19:58.000Z</time>
      </trkpt>
      <trkpt lat="42.3949730582535266876220703125" lon="2.47869179584085941314697265625">
        <ele>879.4000244140625</ele>
        <time>2022-07-27T16:19:59.000Z</time>
      </trkpt>
      <trkpt lat="42.3951688595116138458251953125" lon="2.47842541895806789398193359375">
        <ele>877.79998779296875</ele>
        <time>2022-07-27T16:20:01.000Z</time>
      </trkpt>
      <trkpt lat="42.39527757279574871063232421875" lon="2.47831494547426700592041015625">
        <ele>876.79998779296875</ele>
        <time>2022-07-27T16:20:02.000Z</time>
      </trkpt>
      <trkpt lat="42.39540581591427326202392578125" lon="2.47821285389363765716552734375">
        <ele>875.4000244140625</ele>
        <time>2022-07-27T16:20:03.000Z</time>
      </trkpt>
      <trkpt lat="42.39554814063012599945068359375" lon="2.4781507439911365509033203125">
        <ele>873.79998779296875</ele>
        <time>2022-07-27T16:20:04.000Z</time>
      </trkpt>
      <trkpt lat="42.395687364041805267333984375" lon="2.47811344452202320098876953125">
        <ele>871.79998779296875</ele>
        <time>2022-07-27T16:20:05.000Z</time>
      </trkpt>
      <trkpt lat="42.39583698101341724395751953125" lon="2.47807790525257587432861328125">
        <ele>869.5999755859375</ele>
        <time>2022-07-27T16:20:06.000Z</time>
      </trkpt>
      <trkpt lat="42.39599741064012050628662109375" lon="2.4780406057834625244140625">
        <ele>867.4000244140625</ele>
        <time>2022-07-27T16:20:07.000Z</time>
      </trkpt>
      <trkpt lat="42.3961545713245868682861328125" lon="2.47800045646727085113525390625">
        <ele>865.20001220703125</ele>
        <time>2022-07-27T16:20:08.000Z</time>
      </trkpt>
      <trkpt lat="42.39630259573459625244140625" lon="2.47796525247395038604736328125">
        <ele>863.5999755859375</ele>
        <time>2022-07-27T16:20:09.000Z</time>
      </trkpt>
      <trkpt lat="42.39655564539134502410888671875" lon="2.47789232991635799407958984375">
        <ele>862.20001220703125</ele>
        <time>2022-07-27T16:20:11.000Z</time>
      </trkpt>
      <trkpt lat="42.3967402987182140350341796875" lon="2.47774623334407806396484375">
        <ele>860</ele>
        <time>2022-07-27T16:20:13.000Z</time>
      </trkpt>
      <trkpt lat="42.3968090303242206573486328125" lon="2.477646656334400177001953125">
        <ele>858.4000244140625</ele>
        <time>2022-07-27T16:20:14.000Z</time>
      </trkpt>
      <trkpt lat="42.39685270003974437713623046875" lon="2.47751447372138500213623046875">
        <ele>857</ele>
        <time>2022-07-27T16:20:15.000Z</time>
      </trkpt>
      <trkpt lat="42.39688186906278133392333984375" lon="2.47720451094210147857666015625">
        <ele>855.4000244140625</ele>
        <time>2022-07-27T16:20:17.000Z</time>
      </trkpt>
      <trkpt lat="42.396818585693836212158203125" lon="2.4767157621681690216064453125">
        <ele>854.4000244140625</ele>
        <time>2022-07-27T16:20:20.000Z</time>
      </trkpt>
      <trkpt lat="42.39676125347614288330078125" lon="2.47657008469104766845703125">
        <ele>854.20001220703125</ele>
        <time>2022-07-27T16:20:21.000Z</time>
      </trkpt>
      <trkpt lat="42.3965968005359172821044921875" lon="2.476339079439640045166015625">
        <ele>853.5999755859375</ele>
        <time>2022-07-27T16:20:23.000Z</time>
      </trkpt>
      <trkpt lat="42.39638180471956729888916015625" lon="2.47620589099824428558349609375">
        <ele>853.20001220703125</ele>
        <time>2022-07-27T16:20:25.000Z</time>
      </trkpt>
      <trkpt lat="42.39625029265880584716796875" lon="2.4761925637722015380859375">
        <ele>852.79998779296875</ele>
        <time>2022-07-27T16:20:26.000Z</time>
      </trkpt>
      <trkpt lat="42.39611324854195117950439453125" lon="2.4761783145368099212646484375">
        <ele>852.79998779296875</ele>
        <time>2022-07-27T16:20:27.000Z</time>
      </trkpt>
      <trkpt lat="42.39583882503211498260498046875" lon="2.47615660540759563446044921875">
        <ele>851.5999755859375</ele>
        <time>2022-07-27T16:20:29.000Z</time>
      </trkpt>
      <trkpt lat="42.395556606352329254150390625" lon="2.47610648162662982940673828125">
        <ele>849.79998779296875</ele>
        <time>2022-07-27T16:20:31.000Z</time>
      </trkpt>
      <trkpt lat="42.39541319198906421661376953125" lon="2.47606180608272552490234375">
        <ele>848.5999755859375</ele>
        <time>2022-07-27T16:20:32.000Z</time>
      </trkpt>
      <trkpt lat="42.39513373933732509613037109375" lon="2.47593842446804046630859375">
        <ele>846.79998779296875</ele>
        <time>2022-07-27T16:20:34.000Z</time>
      </trkpt>
      <trkpt lat="42.394990660250186920166015625" lon="2.47585703618824481964111328125">
        <ele>845.79998779296875</ele>
        <time>2022-07-27T16:20:35.000Z</time>
      </trkpt>
      <trkpt lat="42.39484858699142932891845703125" lon="2.4757619015872478485107421875">
        <ele>844.5999755859375</ele>
        <time>2022-07-27T16:20:36.000Z</time>
      </trkpt>
      <trkpt lat="42.3947135545313358306884765625" lon="2.47565235011279582977294921875">
        <ele>843.4000244140625</ele>
        <time>2022-07-27T16:20:37.000Z</time>
      </trkpt>
      <trkpt lat="42.39457852207124233245849609375" lon="2.475526370108127593994140625">
        <ele>842</ele>
        <time>2022-07-27T16:20:38.000Z</time>
      </trkpt>
      <trkpt lat="42.39444575272500514984130859375" lon="2.4753914214670658111572265625">
        <ele>840.5999755859375</ele>
        <time>2022-07-27T16:20:39.000Z</time>
      </trkpt>
      <trkpt lat="42.39430443383753299713134765625" lon="2.47524716891348361968994140625">
        <ele>839.20001220703125</ele>
        <time>2022-07-27T16:20:40.000Z</time>
      </trkpt>
      <trkpt lat="42.39415909163653850555419921875" lon="2.47509218752384185791015625">
        <ele>837.5999755859375</ele>
        <time>2022-07-27T16:20:41.000Z</time>
      </trkpt>
      <trkpt lat="42.39402196370065212249755859375" lon="2.4749394692480564117431640625">
        <ele>835.5999755859375</ele>
        <time>2022-07-27T16:20:42.000Z</time>
      </trkpt>
      <trkpt lat="42.39388382993638515472412109375" lon="2.47477929107844829559326171875">
        <ele>833.79998779296875</ele>
        <time>2022-07-27T16:20:43.000Z</time>
      </trkpt>
      <trkpt lat="42.39375106059014797210693359375" lon="2.4746239744126796722412109375">
        <ele>832.20001220703125</ele>
        <time>2022-07-27T16:20:44.000Z</time>
      </trkpt>
      <trkpt lat="42.3936175368726253509521484375" lon="2.47447125613689422607421875">
        <ele>831</ele>
        <time>2022-07-27T16:20:45.000Z</time>
      </trkpt>
      <trkpt lat="42.39348636008799076080322265625" lon="2.474323399364948272705078125">
        <ele>829.4000244140625</ele>
        <time>2022-07-27T16:20:46.000Z</time>
      </trkpt>
      <trkpt lat="42.3933635652065277099609375" lon="2.47418082319200038909912109375">
        <ele>827.20001220703125</ele>
        <time>2022-07-27T16:20:47.000Z</time>
      </trkpt>
      <trkpt lat="42.39326893351972103118896484375" lon="2.4740442819893360137939453125">
        <ele>825.20001220703125</ele>
        <time>2022-07-27T16:20:48.000Z</time>
      </trkpt>
      <trkpt lat="42.3931749723851680755615234375" lon="2.473894916474819183349609375">
        <ele>821.5999755859375</ele>
        <time>2022-07-27T16:20:49.000Z</time>
      </trkpt>
      <trkpt lat="42.3931122757494449615478515625" lon="2.473754771053791046142578125">
        <ele>820.5999755859375</ele>
        <time>2022-07-27T16:20:50.000Z</time>
      </trkpt>
      <trkpt lat="42.39310062490403652191162109375" lon="2.47363164089620113372802734375">
        <ele>820</ele>
        <time>2022-07-27T16:20:51.000Z</time>
      </trkpt>
      <trkpt lat="42.39311772398650646209716796875" lon="2.47351706027984619140625">
        <ele>819.79998779296875</ele>
        <time>2022-07-27T16:20:52.000Z</time>
      </trkpt>
      <trkpt lat="42.39327329210937023162841796875" lon="2.47316409833729267120361328125">
        <ele>819.5999755859375</ele>
        <time>2022-07-27T16:20:55.000Z</time>
      </trkpt>
      <trkpt lat="42.3935270123183727264404296875" lon="2.47300769202411174774169921875">
        <ele>819.5999755859375</ele>
        <time>2022-07-27T16:20:58.000Z</time>
      </trkpt>
      <trkpt lat="42.3938049562275409698486328125" lon="2.4730465002357959747314453125">
        <ele>819.79998779296875</ele>
        <time>2022-07-27T16:21:01.000Z</time>
      </trkpt>
      <trkpt lat="42.3940835706889629364013671875" lon="2.473202235996723175048828125">
        <ele>819.79998779296875</ele>
        <time>2022-07-27T16:21:04.000Z</time>
      </trkpt>
      <trkpt lat="42.394180633127689361572265625" lon="2.47327256016433238983154296875">
        <ele>819.79998779296875</ele>
        <time>2022-07-27T16:21:05.000Z</time>
      </trkpt>
      <trkpt lat="42.3944805376231670379638671875" lon="2.47349618934094905853271484375">
        <ele>819.79998779296875</ele>
        <time>2022-07-27T16:21:08.000Z</time>
      </trkpt>
      <trkpt lat="42.3948684521019458770751953125" lon="2.47375485487282276153564453125">
        <ele>818.79998779296875</ele>
        <time>2022-07-27T16:21:12.000Z</time>
      </trkpt>
      <trkpt lat="42.3949663527309894561767578125" lon="2.4737888015806674957275390625">
        <ele>818.20001220703125</ele>
        <time>2022-07-27T16:21:13.000Z</time>
      </trkpt>
      <trkpt lat="42.39516802132129669189453125" lon="2.47381235472857952117919921875">
        <ele>817.79998779296875</ele>
        <time>2022-07-27T16:21:15.000Z</time>
      </trkpt>
      <trkpt lat="42.39539735019207000732421875" lon="2.4738203175365924835205078125">
        <ele>817.20001220703125</ele>
        <time>2022-07-27T16:21:17.000Z</time>
      </trkpt>
      <trkpt lat="42.39562005735933780670166015625" lon="2.47382325120270252227783203125">
        <ele>816.5999755859375</ele>
        <time>2022-07-27T16:21:19.000Z</time>
      </trkpt>
      <trkpt lat="42.39585223607718944549560546875" lon="2.47383917681872844696044921875">
        <ele>816</ele>
        <time>2022-07-27T16:21:21.000Z</time>
      </trkpt>
      <trkpt lat="42.3959738574922084808349609375" lon="2.4738310463726520538330078125">
        <ele>815.79998779296875</ele>
        <time>2022-07-27T16:21:22.000Z</time>
      </trkpt>
      <trkpt lat="42.39621282555162906646728515625" lon="2.4737857840955257415771484375">
        <ele>815.5999755859375</ele>
        <time>2022-07-27T16:21:24.000Z</time>
      </trkpt>
      <trkpt lat="42.39633285440504550933837890625" lon="2.47374328784644603729248046875">
        <ele>815</ele>
        <time>2022-07-27T16:21:25.000Z</time>
      </trkpt>
      <trkpt lat="42.39645774476230144500732421875" lon="2.4736912362277507781982421875">
        <ele>814.4000244140625</ele>
        <time>2022-07-27T16:21:26.000Z</time>
      </trkpt>
      <trkpt lat="42.3967248760163784027099609375" lon="2.47358118183910846710205078125">
        <ele>813</ele>
        <time>2022-07-27T16:21:28.000Z</time>
      </trkpt>
      <trkpt lat="42.396866194903850555419921875" lon="2.47351999394595623016357421875">
        <ele>812</ele>
        <time>2022-07-27T16:21:29.000Z</time>
      </trkpt>
      <trkpt lat="42.3970081843435764312744140625" lon="2.473453693091869354248046875">
        <ele>810.5999755859375</ele>
        <time>2022-07-27T16:21:30.000Z</time>
      </trkpt>
      <trkpt lat="42.39715176634490489959716796875" lon="2.47338873334228992462158203125">
        <ele>809.20001220703125</ele>
        <time>2022-07-27T16:21:31.000Z</time>
      </trkpt>
      <trkpt lat="42.39729543216526508331298828125" lon="2.4733220972120761871337890625">
        <ele>807.79998779296875</ele>
        <time>2022-07-27T16:21:32.000Z</time>
      </trkpt>
      <trkpt lat="42.39743473939597606658935546875" lon="2.47325328178703784942626953125">
        <ele>806.79998779296875</ele>
        <time>2022-07-27T16:21:33.000Z</time>
      </trkpt>
      <trkpt lat="42.3975610546767711639404296875" lon="2.47319427318871021270751953125">
        <ele>805.5999755859375</ele>
        <time>2022-07-27T16:21:34.000Z</time>
      </trkpt>
      <trkpt lat="42.39767814986407756805419921875" lon="2.47313962318003177642822265625">
        <ele>804.4000244140625</ele>
        <time>2022-07-27T16:21:35.000Z</time>
      </trkpt>
      <trkpt lat="42.39778191782534122467041015625" lon="2.473101317882537841796875">
        <ele>802.5999755859375</ele>
        <time>2022-07-27T16:21:36.000Z</time>
      </trkpt>
      <trkpt lat="42.3978896252810955047607421875" lon="2.47308681719005107879638671875">
        <ele>800.79998779296875</ele>
        <time>2022-07-27T16:21:37.000Z</time>
      </trkpt>
      <trkpt lat="42.3979955725371837615966796875" lon="2.47310601174831390380859375">
        <ele>799.20001220703125</ele>
        <time>2022-07-27T16:21:38.000Z</time>
      </trkpt>
      <trkpt lat="42.39808299578726291656494140625" lon="2.47316711582243442535400390625">
        <ele>797.5999755859375</ele>
        <time>2022-07-27T16:21:39.000Z</time>
      </trkpt>
      <trkpt lat="42.39816782064735889434814453125" lon="2.473264597356319427490234375">
        <ele>796.4000244140625</ele>
        <time>2022-07-27T16:21:40.000Z</time>
      </trkpt>
      <trkpt lat="42.39833914674818515777587890625" lon="2.47350700199604034423828125">
        <ele>795</ele>
        <time>2022-07-27T16:21:42.000Z</time>
      </trkpt>
      <trkpt lat="42.39850829355418682098388671875" lon="2.47376491315662860870361328125">
        <ele>794</ele>
        <time>2022-07-27T16:21:44.000Z</time>
      </trkpt>
      <trkpt lat="42.39859295077621936798095703125" lon="2.47389500029385089874267578125">
        <ele>793.79998779296875</ele>
        <time>2022-07-27T16:21:45.000Z</time>
      </trkpt>
      <trkpt lat="42.398950941860675811767578125" lon="2.4744008481502532958984375">
        <ele>793</ele>
        <time>2022-07-27T16:21:49.000Z</time>
      </trkpt>
      <trkpt lat="42.39903920330107212066650390625" lon="2.47452951036393642425537109375">
        <ele>792.5999755859375</ele>
        <time>2022-07-27T16:21:50.000Z</time>
      </trkpt>
      <trkpt lat="42.39920298568904399871826171875" lon="2.474795468151569366455078125">
        <ele>790.79998779296875</ele>
        <time>2022-07-27T16:21:52.000Z</time>
      </trkpt>
      <trkpt lat="42.39926853217184543609619140625" lon="2.474932260811328887939453125">
        <ele>789.79998779296875</ele>
        <time>2022-07-27T16:21:53.000Z</time>
      </trkpt>
      <trkpt lat="42.39933709613978862762451171875" lon="2.475069053471088409423828125">
        <ele>788.5999755859375</ele>
        <time>2022-07-27T16:21:54.000Z</time>
      </trkpt>
      <trkpt lat="42.39940322935581207275390625" lon="2.4752063490450382232666015625">
        <ele>787.5999755859375</ele>
        <time>2022-07-27T16:21:55.000Z</time>
      </trkpt>
      <trkpt lat="42.39952635951340198516845703125" lon="2.475499212741851806640625">
        <ele>786</ele>
        <time>2022-07-27T16:21:57.000Z</time>
      </trkpt>
      <trkpt lat="42.3996310494840145111083984375" lon="2.47579987160861492156982421875">
        <ele>784.79998779296875</ele>
        <time>2022-07-27T16:21:59.000Z</time>
      </trkpt>
      <trkpt lat="42.39975250326097011566162109375" lon="2.47626339085400104522705078125">
        <ele>783.5999755859375</ele>
        <time>2022-07-27T16:22:02.000Z</time>
      </trkpt>
      <trkpt lat="42.399787120521068572998046875" lon="2.4764234013855457305908203125">
        <ele>783</ele>
        <time>2022-07-27T16:22:03.000Z</time>
      </trkpt>
      <trkpt lat="42.3998087458312511444091796875" lon="2.47658911161124706268310546875">
        <ele>782.5999755859375</ele>
        <time>2022-07-27T16:22:04.000Z</time>
      </trkpt>
      <trkpt lat="42.39982257597148418426513671875" lon="2.4767570011317729949951171875">
        <ele>782.4000244140625</ele>
        <time>2022-07-27T16:22:05.000Z</time>
      </trkpt>
      <trkpt lat="42.399867586791515350341796875" lon="2.4772870726883411407470703125">
        <ele>781.5999755859375</ele>
        <time>2022-07-27T16:22:08.000Z</time>
      </trkpt>
      <trkpt lat="42.3998999409377574920654296875" lon="2.4774708040058612823486328125">
        <ele>781.4000244140625</ele>
        <time>2022-07-27T16:22:09.000Z</time>
      </trkpt>
      <trkpt lat="42.39994109608232975006103515625" lon="2.4776548705995082855224609375">
        <ele>781</ele>
        <time>2022-07-27T16:22:10.000Z</time>
      </trkpt>
      <trkpt lat="42.4000669084489345550537109375" lon="2.47820757329463958740234375">
        <ele>779.4000244140625</ele>
        <time>2022-07-27T16:22:13.000Z</time>
      </trkpt>
      <trkpt lat="42.40011879242956638336181640625" lon="2.47838015668094158172607421875">
        <ele>778.4000244140625</ele>
        <time>2022-07-27T16:22:14.000Z</time>
      </trkpt>
      <trkpt lat="42.4001879431307315826416015625" lon="2.47854259796440601348876953125">
        <ele>776.4000244140625</ele>
        <time>2022-07-27T16:22:15.000Z</time>
      </trkpt>
      <trkpt lat="42.40026849322021007537841796875" lon="2.47869766317307949066162109375">
        <ele>774.4000244140625</ele>
        <time>2022-07-27T16:22:16.000Z</time>
      </trkpt>
      <trkpt lat="42.40035415627062320709228515625" lon="2.47885222546756267547607421875">
        <ele>772.5999755859375</ele>
        <time>2022-07-27T16:22:17.000Z</time>
      </trkpt>
      <trkpt lat="42.4004420824348926544189453125" lon="2.479007542133331298828125">
        <ele>771.20001220703125</ele>
        <time>2022-07-27T16:22:18.000Z</time>
      </trkpt>
      <trkpt lat="42.4005312658846378326416015625" lon="2.47916135005652904510498046875">
        <ele>770</ele>
        <time>2022-07-27T16:22:19.000Z</time>
      </trkpt>
      <trkpt lat="42.40061701275408267974853515625" lon="2.47931406833231449127197265625">
        <ele>768.79998779296875</ele>
        <time>2022-07-27T16:22:20.000Z</time>
      </trkpt>
      <trkpt lat="42.40069664083421230316162109375" lon="2.47945622541010379791259765625">
        <ele>767.20001220703125</ele>
        <time>2022-07-27T16:22:21.000Z</time>
      </trkpt>
      <trkpt lat="42.400773502886295318603515625" lon="2.47958849184215068817138671875">
        <ele>766</ele>
        <time>2022-07-27T16:22:22.000Z</time>
      </trkpt>
      <trkpt lat="42.40085355006158351898193359375" lon="2.47969661839306354522705078125">
        <ele>764.79998779296875</ele>
        <time>2022-07-27T16:22:23.000Z</time>
      </trkpt>
      <trkpt lat="42.40094072185456752777099609375" lon="2.4797868914902210235595703125">
        <ele>763.5999755859375</ele>
        <time>2022-07-27T16:22:24.000Z</time>
      </trkpt>
      <trkpt lat="42.401043735444545745849609375" lon="2.4798455648124217987060546875">
        <ele>762.4000244140625</ele>
        <time>2022-07-27T16:22:25.000Z</time>
      </trkpt>
      <trkpt lat="42.40114909596741199493408203125" lon="2.47988571412861347198486328125">
        <ele>761.20001220703125</ele>
        <time>2022-07-27T16:22:26.000Z</time>
      </trkpt>
      <trkpt lat="42.4012608267366886138916015625" lon="2.47989459894597530364990234375">
        <ele>760</ele>
        <time>2022-07-27T16:22:27.000Z</time>
      </trkpt>
      <trkpt lat="42.4014834500849246978759765625" lon="2.47979351319372653961181640625">
        <ele>758.5999755859375</ele>
        <time>2022-07-27T16:22:29.000Z</time>
      </trkpt>
      <trkpt lat="42.40158881060779094696044921875" lon="2.47971371747553348541259765625">
        <ele>758.20001220703125</ele>
        <time>2022-07-27T16:22:30.000Z</time>
      </trkpt>
      <trkpt lat="42.40178075619041919708251953125" lon="2.47957189567387104034423828125">
        <ele>757.5999755859375</ele>
        <time>2022-07-27T16:22:32.000Z</time>
      </trkpt>
      <trkpt lat="42.40186641924083232879638671875" lon="2.47952730394899845123291015625">
        <ele>757</ele>
        <time>2022-07-27T16:22:33.000Z</time>
      </trkpt>
      <trkpt lat="42.40200228989124298095703125" lon="2.47948908247053623199462890625">
        <ele>755.5999755859375</ele>
        <time>2022-07-27T16:22:35.000Z</time>
      </trkpt>
      <trkpt lat="42.4020561017096042633056640625" lon="2.47948606498539447784423828125">
        <ele>755</ele>
        <time>2022-07-27T16:22:36.000Z</time>
      </trkpt>
      <trkpt lat="42.4021040461957454681396484375" lon="2.479486651718616485595703125">
        <ele>754.4000244140625</ele>
        <time>2022-07-27T16:22:37.000Z</time>
      </trkpt>
      <trkpt lat="42.40219834260642528533935546875" lon="2.47949377633631229400634765625">
        <ele>753</ele>
        <time>2022-07-27T16:22:39.000Z</time>
      </trkpt>
      <trkpt lat="42.4023367278277873992919921875" lon="2.4795216880738735198974609375">
        <ele>752.20001220703125</ele>
        <time>2022-07-27T16:22:42.000Z</time>
      </trkpt>
      <trkpt lat="42.40238995291292667388916015625" lon="2.479537613689899444580078125">
        <ele>751.79998779296875</ele>
        <time>2022-07-27T16:22:43.000Z</time>
      </trkpt>
      <trkpt lat="42.4027727544307708740234375" lon="2.47963543049991130828857421875">
        <ele>751.20001220703125</ele>
        <time>2022-07-27T16:22:50.000Z</time>
      </trkpt>
      <trkpt lat="42.402825392782688140869140625" lon="2.4796500988304615020751953125">
        <ele>751</ele>
        <time>2022-07-27T16:22:51.000Z</time>
      </trkpt>
      <trkpt lat="42.40323233418166637420654296875" lon="2.4797533638775348663330078125">
        <ele>751.20001220703125</ele>
        <time>2022-07-27T16:22:59.000Z</time>
      </trkpt>
      <trkpt lat="42.4035242758691310882568359375" lon="2.47982486151158809661865234375">
        <ele>752.20001220703125</ele>
        <time>2022-07-27T16:23:05.000Z</time>
      </trkpt>
      <trkpt lat="42.4035658501088619232177734375" lon="2.4798402003943920135498046875">
        <ele>752.20001220703125</ele>
        <time>2022-07-27T16:23:06.000Z</time>
      </trkpt>
      <trkpt lat="42.40365813486278057098388671875" lon="2.479943968355655670166015625">
        <ele>752.4000244140625</ele>
        <time>2022-07-27T16:23:09.000Z</time>
      </trkpt>
      <trkpt lat="42.4036245234310626983642578125" lon="2.4800812639296054840087890625">
        <ele>752.79998779296875</ele>
        <time>2022-07-27T16:23:12.000Z</time>
      </trkpt>
      <trkpt lat="42.403583116829395294189453125" lon="2.48032844625413417816162109375">
        <ele>753.20001220703125</ele>
        <time>2022-07-27T16:23:17.000Z</time>
      </trkpt>
      <trkpt lat="42.4035854637622833251953125" lon="2.48043154366314411163330078125">
        <ele>753.4000244140625</ele>
        <time>2022-07-27T16:23:19.000Z</time>
      </trkpt>
      <trkpt lat="42.40360063500702381134033203125" lon="2.48052039183676242828369140625">
        <ele>753.5999755859375</ele>
        <time>2022-07-27T16:23:22.000Z</time>
      </trkpt>
      <trkpt lat="42.40359711460769176483154296875" lon="2.48052709735929965972900390625">
        <ele>753.5999755859375</ele>
        <time>2022-07-27T16:23:23.000Z</time>
      </trkpt>
      <trkpt lat="42.40352268330752849578857421875" lon="2.480730526149272918701171875">
        <ele>754.20001220703125</ele>
        <time>2022-07-27T16:25:16.000Z</time>
      </trkpt>
      <trkpt lat="42.40351195447146892547607421875" lon="2.48075567185878753662109375">
        <ele>754.20001220703125</ele>
        <time>2022-07-27T16:25:17.000Z</time>
      </trkpt>
      <trkpt lat="42.40349217317998409271240234375" lon="2.48096211813390254974365234375">
        <ele>754.20001220703125</ele>
        <time>2022-07-27T16:25:21.000Z</time>
      </trkpt>
      <trkpt lat="42.40348421037197113037109375" lon="2.4810210429131984710693359375">
        <ele>754.20001220703125</ele>
        <time>2022-07-27T16:25:22.000Z</time>
      </trkpt>
      <trkpt lat="42.40344624035060405731201171875" lon="2.48130057938396930694580078125">
        <ele>754</ele>
        <time>2022-07-27T16:25:26.000Z</time>
      </trkpt>
      <trkpt lat="42.40339913405478000640869140625" lon="2.48145966790616512298583984375">
        <ele>753.20001220703125</ele>
        <time>2022-07-27T16:25:28.000Z</time>
      </trkpt>
      <trkpt lat="42.4033412151038646697998046875" lon="2.4816272221505641937255859375">
        <ele>752.4000244140625</ele>
        <time>2022-07-27T16:25:30.000Z</time>
      </trkpt>
      <trkpt lat="42.40331380628049373626708984375" lon="2.481718249619007110595703125">
        <ele>752</ele>
        <time>2022-07-27T16:25:31.000Z</time>
      </trkpt>
      <trkpt lat="42.4032905884087085723876953125" lon="2.48181204311549663543701171875">
        <ele>751.79998779296875</ele>
        <time>2022-07-27T16:25:32.000Z</time>
      </trkpt>
      <trkpt lat="42.403271310031414031982421875" lon="2.482011951506137847900390625">
        <ele>751.4000244140625</ele>
        <time>2022-07-27T16:25:34.000Z</time>
      </trkpt>
      <trkpt lat="42.40327122621238231658935546875" lon="2.48211010359227657318115234375">
        <ele>751.20001220703125</ele>
        <time>2022-07-27T16:25:35.000Z</time>
      </trkpt>
      <trkpt lat="42.40328933112323284149169921875" lon="2.4823028035461902618408203125">
        <ele>750.20001220703125</ele>
        <time>2022-07-27T16:25:37.000Z</time>
      </trkpt>
      <trkpt lat="42.4033267982304096221923828125" lon="2.48258183710277080535888671875">
        <ele>749</ele>
        <time>2022-07-27T16:25:40.000Z</time>
      </trkpt>
      <trkpt lat="42.40334096364676952362060546875" lon="2.48267923481762409210205078125">
        <ele>748.5999755859375</ele>
        <time>2022-07-27T16:25:41.000Z</time>
      </trkpt>
      <trkpt lat="42.4034092761576175689697265625" lon="2.48303881846368312835693359375">
        <ele>748</ele>
        <time>2022-07-27T16:25:45.000Z</time>
      </trkpt>
      <trkpt lat="42.4034153111279010772705078125" lon="2.48322808183729648590087890625">
        <ele>748</ele>
        <time>2022-07-27T16:25:47.000Z</time>
      </trkpt>
      <trkpt lat="42.403412796556949615478515625" lon="2.48332120478153228759765625">
        <ele>748.20001220703125</ele>
        <time>2022-07-27T16:25:48.000Z</time>
      </trkpt>
      <trkpt lat="42.4033975414931774139404296875" lon="2.48350870795547962188720703125">
        <ele>748</ele>
        <time>2022-07-27T16:25:50.000Z</time>
      </trkpt>
      <trkpt lat="42.4032877385616302490234375" lon="2.4839805252850055694580078125">
        <ele>747.5999755859375</ele>
        <time>2022-07-27T16:25:55.000Z</time>
      </trkpt>
      <trkpt lat="42.40318053402006626129150390625" lon="2.48445502482354640960693359375">
        <ele>747.5999755859375</ele>
        <time>2022-07-27T16:26:00.000Z</time>
      </trkpt>
      <trkpt lat="42.40317701362073421478271484375" lon="2.48455544002354145050048828125">
        <ele>747.5999755859375</ele>
        <time>2022-07-27T16:26:01.000Z</time>
      </trkpt>
      <trkpt lat="42.403198219835758209228515625" lon="2.48474721796810626983642578125">
        <ele>747</ele>
        <time>2022-07-27T16:26:03.000Z</time>
      </trkpt>
      <trkpt lat="42.40322210825979709625244140625" lon="2.48491904698312282562255859375">
        <ele>746.79998779296875</ele>
        <time>2022-07-27T16:26:05.000Z</time>
      </trkpt>
      <trkpt lat="42.40324507467448711395263671875" lon="2.4850745312869548797607421875">
        <ele>746.79998779296875</ele>
        <time>2022-07-27T16:26:07.000Z</time>
      </trkpt>
      <trkpt lat="42.4032825417816638946533203125" lon="2.48529824428260326385498046875">
        <ele>746.79998779296875</ele>
        <time>2022-07-27T16:26:10.000Z</time>
      </trkpt>
      <trkpt lat="42.4032949469983577728271484375" lon="2.4853722564876079559326171875">
        <ele>746.79998779296875</ele>
        <time>2022-07-27T16:26:11.000Z</time>
      </trkpt>
      <trkpt lat="42.40334532223641872406005859375" lon="2.48566922731697559356689453125">
        <ele>747.5999755859375</ele>
        <time>2022-07-27T16:26:15.000Z</time>
      </trkpt>
      <trkpt lat="42.40336225368082523345947265625" lon="2.4857440777122974395751953125">
        <ele>748.20001220703125</ele>
        <time>2022-07-27T16:26:16.000Z</time>
      </trkpt>
      <trkpt lat="42.403414808213710784912109375" lon="2.48607843182981014251708984375">
        <ele>749.4000244140625</ele>
        <time>2022-07-27T16:26:20.000Z</time>
      </trkpt>
      <trkpt lat="42.40343098528683185577392578125" lon="2.48616258613765239715576171875">
        <ele>749.4000244140625</ele>
        <time>2022-07-27T16:26:21.000Z</time>
      </trkpt>
      <trkpt lat="42.40353575907647609710693359375" lon="2.486574389040470123291015625">
        <ele>749.4000244140625</ele>
        <time>2022-07-27T16:26:26.000Z</time>
      </trkpt>
      <trkpt lat="42.40355034358799457550048828125" lon="2.4866593815386295318603515625">
        <ele>749.4000244140625</ele>
        <time>2022-07-27T16:26:27.000Z</time>
      </trkpt>
      <trkpt lat="42.40356761030852794647216796875" lon="2.48674613423645496368408203125">
        <ele>749.4000244140625</ele>
        <time>2022-07-27T16:26:28.000Z</time>
      </trkpt>
      <trkpt lat="42.40362896583974361419677734375" lon="2.48702525161206722259521484375">
        <ele>749.20001220703125</ele>
        <time>2022-07-27T16:26:31.000Z</time>
      </trkpt>
      <trkpt lat="42.40363516844809055328369140625" lon="2.487126924097537994384765625">
        <ele>749</ele>
        <time>2022-07-27T16:26:32.000Z</time>
      </trkpt>
      <trkpt lat="42.40357414819300174713134765625" lon="2.48753218911588191986083984375">
        <ele>748.5999755859375</ele>
        <time>2022-07-27T16:26:36.000Z</time>
      </trkpt>
      <trkpt lat="42.40353542380034923553466796875" lon="2.487727738916873931884765625">
        <ele>748.20001220703125</ele>
        <time>2022-07-27T16:26:38.000Z</time>
      </trkpt>
      <trkpt lat="42.40353114902973175048828125" lon="2.4879280664026737213134765625">
        <ele>747.79998779296875</ele>
        <time>2022-07-27T16:26:40.000Z</time>
      </trkpt>
      <trkpt lat="42.4035534448921680450439453125" lon="2.488137781620025634765625">
        <ele>747.20001220703125</ele>
        <time>2022-07-27T16:26:42.000Z</time>
      </trkpt>
      <trkpt lat="42.40360398776829242706298828125" lon="2.488465011119842529296875">
        <ele>746.20001220703125</ele>
        <time>2022-07-27T16:26:45.000Z</time>
      </trkpt>
      <trkpt lat="42.4036221764981746673583984375" lon="2.48857833445072174072265625">
        <ele>745.79998779296875</ele>
        <time>2022-07-27T16:26:46.000Z</time>
      </trkpt>
      <trkpt lat="42.40367062389850616455078125" lon="2.4889345653355121612548828125">
        <ele>744.79998779296875</ele>
        <time>2022-07-27T16:26:49.000Z</time>
      </trkpt>
      <trkpt lat="42.4037090130150318145751953125" lon="2.48917789198458194732666015625">
        <ele>744.20001220703125</ele>
        <time>2022-07-27T16:26:51.000Z</time>
      </trkpt>
      <trkpt lat="42.40376525558531284332275390625" lon="2.4895511381328105926513671875">
        <ele>743.5999755859375</ele>
        <time>2022-07-27T16:26:54.000Z</time>
      </trkpt>
      <trkpt lat="42.40379626862704753875732421875" lon="2.48993645422160625457763671875">
        <ele>742.79998779296875</ele>
        <time>2022-07-27T16:26:57.000Z</time>
      </trkpt>
      <trkpt lat="42.4037971906363964080810546875" lon="2.49006687663495540618896484375">
        <ele>742.4000244140625</ele>
        <time>2022-07-27T16:26:58.000Z</time>
      </trkpt>
      <trkpt lat="42.403800375759601593017578125" lon="2.49032805673778057098388671875">
        <ele>741.4000244140625</ele>
        <time>2022-07-27T16:27:00.000Z</time>
      </trkpt>
      <trkpt lat="42.4038080871105194091796875" lon="2.4907194077968597412109375">
        <ele>740.20001220703125</ele>
        <time>2022-07-27T16:27:03.000Z</time>
      </trkpt>
      <trkpt lat="42.4038169719278812408447265625" lon="2.4908476509153842926025390625">
        <ele>739.79998779296875</ele>
        <time>2022-07-27T16:27:04.000Z</time>
      </trkpt>
      <trkpt lat="42.4038563668727874755859375" lon="2.491098605096340179443359375">
        <ele>739.4000244140625</ele>
        <time>2022-07-27T16:27:06.000Z</time>
      </trkpt>
      <trkpt lat="42.4039416946470737457275390625" lon="2.491330616176128387451171875">
        <ele>738.79998779296875</ele>
        <time>2022-07-27T16:27:08.000Z</time>
      </trkpt>
      <trkpt lat="42.4040794931352138519287109375" lon="2.491661198437213897705078125">
        <ele>738.20001220703125</ele>
        <time>2022-07-27T16:27:11.000Z</time>
      </trkpt>
      <trkpt lat="42.40414939820766448974609375" lon="2.491905279457569122314453125">
        <ele>738</ele>
        <time>2022-07-27T16:27:13.000Z</time>
      </trkpt>
      <trkpt lat="42.40416842512786388397216796875" lon="2.49203628860414028167724609375">
        <ele>738</ele>
        <time>2022-07-27T16:27:14.000Z</time>
      </trkpt>
      <trkpt lat="42.40418971516191959381103515625" lon="2.492582537233829498291015625">
        <ele>737.20001220703125</ele>
        <time>2022-07-27T16:27:18.000Z</time>
      </trkpt>
      <trkpt lat="42.4041897989809513092041015625" lon="2.4927265383303165435791015625">
        <ele>737.20001220703125</ele>
        <time>2022-07-27T16:27:19.000Z</time>
      </trkpt>
      <trkpt lat="42.4041871167719364166259765625" lon="2.49301998876035213470458984375">
        <ele>736.20001220703125</ele>
        <time>2022-07-27T16:27:21.000Z</time>
      </trkpt>
      <trkpt lat="42.40418401546776294708251953125" lon="2.4934688396751880645751953125">
        <ele>735.20001220703125</ele>
        <time>2022-07-27T16:27:24.000Z</time>
      </trkpt>
      <trkpt lat="42.40418535657227039337158203125" lon="2.49392573721706867218017578125">
        <ele>734</ele>
        <time>2022-07-27T16:27:27.000Z</time>
      </trkpt>
      <trkpt lat="42.40420036017894744873046875" lon="2.49407686293125152587890625">
        <ele>733.5999755859375</ele>
        <time>2022-07-27T16:27:28.000Z</time>
      </trkpt>
      <trkpt lat="42.40426800213754177093505859375" lon="2.49437416903674602508544921875">
        <ele>732.79998779296875</ele>
        <time>2022-07-27T16:27:30.000Z</time>
      </trkpt>
      <trkpt lat="42.40435852669179439544677734375" lon="2.4946614168584346771240234375">
        <ele>731.5999755859375</ele>
        <time>2022-07-27T16:27:32.000Z</time>
      </trkpt>
      <trkpt lat="42.4044590257108211517333984375" lon="2.49494531191885471343994140625">
        <ele>730.20001220703125</ele>
        <time>2022-07-27T16:27:34.000Z</time>
      </trkpt>
      <trkpt lat="42.4045733548700809478759765625" lon="2.49521621502935886383056640625">
        <ele>729</ele>
        <time>2022-07-27T16:27:36.000Z</time>
      </trkpt>
      <trkpt lat="42.40464116446673870086669921875" lon="2.4953420273959636688232421875">
        <ele>728.4000244140625</ele>
        <time>2022-07-27T16:27:37.000Z</time>
      </trkpt>
      <trkpt lat="42.404716014862060546875" lon="2.49545929022133350372314453125">
        <ele>727.79998779296875</ele>
        <time>2022-07-27T16:27:38.000Z</time>
      </trkpt>
      <trkpt lat="42.40488641895353794097900390625" lon="2.49565928243100643157958984375">
        <ele>726.79998779296875</ele>
        <time>2022-07-27T16:27:40.000Z</time>
      </trkpt>
      <trkpt lat="42.40495942533016204833984375" lon="2.49576103873550891876220703125">
        <ele>726.20001220703125</ele>
        <time>2022-07-27T16:27:41.000Z</time>
      </trkpt>
      <trkpt lat="42.4050070345401763916015625" lon="2.495895065367221832275390625">
        <ele>725.4000244140625</ele>
        <time>2022-07-27T16:27:42.000Z</time>
      </trkpt>
      <trkpt lat="42.40504131652414798736572265625" lon="2.49603898264467716217041015625">
        <ele>725</ele>
        <time>2022-07-27T16:27:43.000Z</time>
      </trkpt>
      <trkpt lat="42.405145168304443359375" lon="2.49647668562829494476318359375">
        <ele>724</ele>
        <time>2022-07-27T16:27:46.000Z</time>
      </trkpt>
      <trkpt lat="42.40529461763799190521240234375" lon="2.49689695425331592559814453125">
        <ele>722.79998779296875</ele>
        <time>2022-07-27T16:27:49.000Z</time>
      </trkpt>
      <trkpt lat="42.405402995645999908447265625" lon="2.49717623926699161529541015625">
        <ele>721.20001220703125</ele>
        <time>2022-07-27T16:27:51.000Z</time>
      </trkpt>
      <trkpt lat="42.40544649772346019744873046875" lon="2.4973261915147304534912109375">
        <ele>720.20001220703125</ele>
        <time>2022-07-27T16:27:52.000Z</time>
      </trkpt>
      <trkpt lat="42.40547533147037029266357421875" lon="2.49747999943792819976806640625">
        <ele>719.4000244140625</ele>
        <time>2022-07-27T16:27:53.000Z</time>
      </trkpt>
      <trkpt lat="42.405543141067028045654296875" lon="2.4979511462152004241943359375">
        <ele>718.5999755859375</ele>
        <time>2022-07-27T16:27:56.000Z</time>
      </trkpt>
      <trkpt lat="42.40562553517520427703857421875" lon="2.49840837903320789337158203125">
        <ele>717.20001220703125</ele>
        <time>2022-07-27T16:27:59.000Z</time>
      </trkpt>
      <trkpt lat="42.4056480824947357177734375" lon="2.49856411479413509368896484375">
        <ele>716.79998779296875</ele>
        <time>2022-07-27T16:28:00.000Z</time>
      </trkpt>
      <trkpt lat="42.40566861815750598907470703125" lon="2.4987231194972991943359375">
        <ele>716</ele>
        <time>2022-07-27T16:28:01.000Z</time>
      </trkpt>
      <trkpt lat="42.40568437613546848297119140625" lon="2.49905009754002094268798828125">
        <ele>715</ele>
        <time>2022-07-27T16:28:03.000Z</time>
      </trkpt>
      <trkpt lat="42.405665181577205657958984375" lon="2.49921103008091449737548828125">
        <ele>714.79998779296875</ele>
        <time>2022-07-27T16:28:04.000Z</time>
      </trkpt>
      <trkpt lat="42.40555847994983196258544921875" lon="2.49966365285217761993408203125">
        <ele>713.4000244140625</ele>
        <time>2022-07-27T16:28:07.000Z</time>
      </trkpt>
      <trkpt lat="42.405527718365192413330078125" lon="2.499809078872203826904296875">
        <ele>713</ele>
        <time>2022-07-27T16:28:08.000Z</time>
      </trkpt>
      <trkpt lat="42.40551455877721309661865234375" lon="2.4999611265957355499267578125">
        <ele>712.4000244140625</ele>
        <time>2022-07-27T16:28:09.000Z</time>
      </trkpt>
      <trkpt lat="42.40557490848004817962646484375" lon="2.50041517429053783416748046875">
        <ele>710.5999755859375</ele>
        <time>2022-07-27T16:28:12.000Z</time>
      </trkpt>
      <trkpt lat="42.40562670864164829254150390625" lon="2.5005575828254222869873046875">
        <ele>709.5999755859375</ele>
        <time>2022-07-27T16:28:13.000Z</time>
      </trkpt>
      <trkpt lat="42.40569627843797206878662109375" lon="2.50068624503910541534423828125">
        <ele>708.5999755859375</ele>
        <time>2022-07-27T16:28:14.000Z</time>
      </trkpt>
      <trkpt lat="42.40577884018421173095703125" lon="2.50080727972090244293212890625">
        <ele>707.79998779296875</ele>
        <time>2022-07-27T16:28:15.000Z</time>
      </trkpt>
      <trkpt lat="42.4058675207197666168212890625" lon="2.5009183399379253387451171875">
        <ele>706.79998779296875</ele>
        <time>2022-07-27T16:28:16.000Z</time>
      </trkpt>
      <trkpt lat="42.40615175105631351470947265625" lon="2.50123106874525547027587890625">
        <ele>705.4000244140625</ele>
        <time>2022-07-27T16:28:19.000Z</time>
      </trkpt>
      <trkpt lat="42.4062380008399486541748046875" lon="2.50134975649416446685791015625">
        <ele>705</ele>
        <time>2022-07-27T16:28:20.000Z</time>
      </trkpt>
      <trkpt lat="42.40640857256948947906494140625" lon="2.50157875008881092071533203125">
        <ele>704.4000244140625</ele>
        <time>2022-07-27T16:28:22.000Z</time>
      </trkpt>
      <trkpt lat="42.4064864404499530792236328125" lon="2.501699365675449371337890625">
        <ele>703.5999755859375</ele>
        <time>2022-07-27T16:28:23.000Z</time>
      </trkpt>
      <trkpt lat="42.4065390788018703460693359375" lon="2.50183339230716228485107421875">
        <ele>702.79998779296875</ele>
        <time>2022-07-27T16:28:24.000Z</time>
      </trkpt>
      <trkpt lat="42.4066399969160556793212890625" lon="2.5022770464420318603515625">
        <ele>702</ele>
        <time>2022-07-27T16:28:27.000Z</time>
      </trkpt>
      <trkpt lat="42.40667193196713924407958984375" lon="2.50243454240262508392333984375">
        <ele>701.4000244140625</ele>
        <time>2022-07-27T16:28:28.000Z</time>
      </trkpt>
      <trkpt lat="42.4067526496946811676025390625" lon="2.50290996395051479339599609375">
        <ele>700.20001220703125</ele>
        <time>2022-07-27T16:28:31.000Z</time>
      </trkpt>
      <trkpt lat="42.4067767895758152008056640625" lon="2.5030696392059326171875">
        <ele>699.5999755859375</ele>
        <time>2022-07-27T16:28:32.000Z</time>
      </trkpt>
      <trkpt lat="42.406803108751773834228515625" lon="2.50322244130074977874755859375">
        <ele>698.5999755859375</ele>
        <time>2022-07-27T16:28:33.000Z</time>
      </trkpt>
      <trkpt lat="42.406869828701019287109375" lon="2.50352972187101840972900390625">
        <ele>697.20001220703125</ele>
        <time>2022-07-27T16:28:35.000Z</time>
      </trkpt>
      <trkpt lat="42.40695289336144924163818359375" lon="2.50381973572075366973876953125">
        <ele>696.4000244140625</ele>
        <time>2022-07-27T16:28:37.000Z</time>
      </trkpt>
      <trkpt lat="42.40700251422822475433349609375" lon="2.50395552255213260650634765625">
        <ele>696</ele>
        <time>2022-07-27T16:28:38.000Z</time>
      </trkpt>
      <trkpt lat="42.40722161717712879180908203125" lon="2.50446950085461139678955078125">
        <ele>695.5999755859375</ele>
        <time>2022-07-27T16:28:42.000Z</time>
      </trkpt>
      <trkpt lat="42.40731750614941120147705078125" lon="2.50467284582555294036865234375">
        <ele>695.4000244140625</ele>
        <time>2022-07-27T16:28:44.000Z</time>
      </trkpt>
      <trkpt lat="42.4073700606822967529296875" lon="2.50476219691336154937744140625">
        <ele>695.4000244140625</ele>
        <time>2022-07-27T16:28:45.000Z</time>
      </trkpt>
      <trkpt lat="42.40767675451934337615966796875" lon="2.50530081801116466522216796875">
        <ele>695.4000244140625</ele>
        <time>2022-07-27T16:28:51.000Z</time>
      </trkpt>
      <trkpt lat="42.40777230821549892425537109375" lon="2.50551556237041950225830078125">
        <ele>695.4000244140625</ele>
        <time>2022-07-27T16:28:53.000Z</time>
      </trkpt>
      <trkpt lat="42.4078600667417049407958984375" lon="2.5057600624859333038330078125">
        <ele>695</ele>
        <time>2022-07-27T16:28:55.000Z</time>
      </trkpt>
      <trkpt lat="42.40803583525121212005615234375" lon="2.5064373202621936798095703125">
        <ele>694</ele>
        <time>2022-07-27T16:29:00.000Z</time>
      </trkpt>
      <trkpt lat="42.40806064568459987640380859375" lon="2.50657067634165287017822265625">
        <ele>693.4000244140625</ele>
        <time>2022-07-27T16:29:01.000Z</time>
      </trkpt>
      <trkpt lat="42.40811998955905437469482421875" lon="2.5069512985646724700927734375">
        <ele>693</ele>
        <time>2022-07-27T16:29:04.000Z</time>
      </trkpt>
      <trkpt lat="42.4081437103450298309326171875" lon="2.50718750059604644775390625">
        <ele>692.79998779296875</ele>
        <time>2022-07-27T16:29:06.000Z</time>
      </trkpt>
      <trkpt lat="42.408231385052204132080078125" lon="2.507706843316555023193359375">
        <ele>693</ele>
        <time>2022-07-27T16:29:11.000Z</time>
      </trkpt>
      <trkpt lat="42.40825443528592586517333984375" lon="2.507899291813373565673828125">
        <ele>694</ele>
        <time>2022-07-27T16:29:13.000Z</time>
      </trkpt>
      <trkpt lat="42.40827220492064952850341796875" lon="2.50808411277830600738525390625">
        <ele>695</ele>
        <time>2022-07-27T16:29:15.000Z</time>
      </trkpt>
      <trkpt lat="42.4082825146615505218505859375" lon="2.508261390030384063720703125">
        <ele>696.20001220703125</ele>
        <time>2022-07-27T16:29:17.000Z</time>
      </trkpt>
      <trkpt lat="42.40829064510762691497802734375" lon="2.5084335543215274810791015625">
        <ele>697.4000244140625</ele>
        <time>2022-07-27T16:29:19.000Z</time>
      </trkpt>
      <trkpt lat="42.408289052546024322509765625" lon="2.5086913816630840301513671875">
        <ele>698.79998779296875</ele>
        <time>2022-07-27T16:29:22.000Z</time>
      </trkpt>
      <trkpt lat="42.40828561596572399139404296875" lon="2.50886564143002033233642578125">
        <ele>699.79998779296875</ele>
        <time>2022-07-27T16:29:24.000Z</time>
      </trkpt>
      <trkpt lat="42.40828192792832851409912109375" lon="2.5089535675942897796630859375">
        <ele>700</ele>
        <time>2022-07-27T16:29:25.000Z</time>
      </trkpt>
      <trkpt lat="42.408269941806793212890625" lon="2.50930720008909702301025390625">
        <ele>700.4000244140625</ele>
        <time>2022-07-27T16:29:29.000Z</time>
      </trkpt>
      <trkpt lat="42.4082939140498638153076171875" lon="2.509481124579906463623046875">
        <ele>700.5999755859375</ele>
        <time>2022-07-27T16:29:31.000Z</time>
      </trkpt>
      <trkpt lat="42.408437915146350860595703125" lon="2.51017539761960506439208984375">
        <ele>700.5999755859375</ele>
        <time>2022-07-27T16:29:39.000Z</time>
      </trkpt>
      <trkpt lat="42.40859306417405605316162109375" lon="2.51096078194677829742431640625">
        <ele>700.4000244140625</ele>
        <time>2022-07-27T16:29:48.000Z</time>
      </trkpt>
      <trkpt lat="42.40874276496469974517822265625" lon="2.51169134862720966339111328125">
        <ele>700.5999755859375</ele>
        <time>2022-07-27T16:29:56.000Z</time>
      </trkpt>
      <trkpt lat="42.40880412049591541290283203125" lon="2.51197331584990024566650390625">
        <ele>701</ele>
        <time>2022-07-27T16:29:59.000Z</time>
      </trkpt>
      <trkpt lat="42.4088575132191181182861328125" lon="2.512159310281276702880859375">
        <ele>701</ele>
        <time>2022-07-27T16:30:01.000Z</time>
      </trkpt>
      <trkpt lat="42.40894460119307041168212890625" lon="2.5123180635273456573486328125">
        <ele>700.79998779296875</ele>
        <time>2022-07-27T16:30:03.000Z</time>
      </trkpt>
      <trkpt lat="42.409142665565013885498046875" lon="2.5124518387019634246826171875">
        <ele>700.79998779296875</ele>
        <time>2022-07-27T16:30:06.000Z</time>
      </trkpt>
      <trkpt lat="42.409215755760669708251953125" lon="2.51247388310730457305908203125">
        <ele>700.5999755859375</ele>
        <time>2022-07-27T16:30:07.000Z</time>
      </trkpt>
      <trkpt lat="42.4096910096704959869384765625" lon="2.51258318312466144561767578125">
        <ele>699</ele>
        <time>2022-07-27T16:30:13.000Z</time>
      </trkpt>
      <trkpt lat="42.40977105684578418731689453125" lon="2.51260631717741489410400390625">
        <ele>698.4000244140625</ele>
        <time>2022-07-27T16:30:14.000Z</time>
      </trkpt>
      <trkpt lat="42.4098438955843448638916015625" lon="2.51264956779778003692626953125">
        <ele>698</ele>
        <time>2022-07-27T16:30:15.000Z</time>
      </trkpt>
      <trkpt lat="42.4099099449813365936279296875" lon="2.51271494664251804351806640625">
        <ele>697.4000244140625</ele>
        <time>2022-07-27T16:30:16.000Z</time>
      </trkpt>
      <trkpt lat="42.4099838733673095703125" lon="2.51291208900511264801025390625">
        <ele>696.79998779296875</ele>
        <time>2022-07-27T16:30:18.000Z</time>
      </trkpt>
      <trkpt lat="42.40995663218200206756591796875" lon="2.5132585130631923675537109375">
        <ele>696.4000244140625</ele>
        <time>2022-07-27T16:30:21.000Z</time>
      </trkpt>
      <trkpt lat="42.40986174903810024261474609375" lon="2.51347300596535205841064453125">
        <ele>696</ele>
        <time>2022-07-27T16:30:23.000Z</time>
      </trkpt>
      <trkpt lat="42.40980751812458038330078125" lon="2.51358046196401119232177734375">
        <ele>695.79998779296875</ele>
        <time>2022-07-27T16:30:24.000Z</time>
      </trkpt>
      <trkpt lat="42.409752197563648223876953125" lon="2.51368825323879718780517578125">
        <ele>695.5999755859375</ele>
        <time>2022-07-27T16:30:25.000Z</time>
      </trkpt>
      <trkpt lat="42.40946629084646701812744140625" lon="2.514258138835430145263671875">
        <ele>694.5999755859375</ele>
        <time>2022-07-27T16:30:30.000Z</time>
      </trkpt>
      <trkpt lat="42.409418262541294097900390625" lon="2.51438562758266925811767578125">
        <ele>694.20001220703125</ele>
        <time>2022-07-27T16:30:31.000Z</time>
      </trkpt>
      <trkpt lat="42.40934341214597225189208984375" lon="2.51466642133891582489013671875">
        <ele>693.20001220703125</ele>
        <time>2022-07-27T16:30:33.000Z</time>
      </trkpt>
      <trkpt lat="42.40931273438036441802978515625" lon="2.5148158706724643707275390625">
        <ele>692.79998779296875</ele>
        <time>2022-07-27T16:30:34.000Z</time>
      </trkpt>
      <trkpt lat="42.40928038023412227630615234375" lon="2.51496724784374237060546875">
        <ele>692.5999755859375</ele>
        <time>2022-07-27T16:30:35.000Z</time>
      </trkpt>
      <trkpt lat="42.40923679433763027191162109375" lon="2.51511284150183200836181640625">
        <ele>691.79998779296875</ele>
        <time>2022-07-27T16:30:36.000Z</time>
      </trkpt>
      <trkpt lat="42.40917191840708255767822265625" lon="2.51524443738162517547607421875">
        <ele>691.20001220703125</ele>
        <time>2022-07-27T16:30:37.000Z</time>
      </trkpt>
      <trkpt lat="42.40908491425216197967529296875" lon="2.515354156494140625">
        <ele>690.4000244140625</ele>
        <time>2022-07-27T16:30:38.000Z</time>
      </trkpt>
      <trkpt lat="42.40887813270092010498046875" lon="2.5155410729348659515380859375">
        <ele>688.5999755859375</ele>
        <time>2022-07-27T16:30:40.000Z</time>
      </trkpt>
      <trkpt lat="42.4086496420204639434814453125" lon="2.51570351421833038330078125">
        <ele>686.79998779296875</ele>
        <time>2022-07-27T16:30:42.000Z</time>
      </trkpt>
      <trkpt lat="42.4085245840251445770263671875" lon="2.5157626904547214508056640625">
        <ele>685.20001220703125</ele>
        <time>2022-07-27T16:30:43.000Z</time>
      </trkpt>
      <trkpt lat="42.4083991907536983489990234375" lon="2.51581088639795780181884765625">
        <ele>683.79998779296875</ele>
        <time>2022-07-27T16:30:44.000Z</time>
      </trkpt>
      <trkpt lat="42.4082766473293304443359375" lon="2.51585698686540126800537109375">
        <ele>682.79998779296875</ele>
        <time>2022-07-27T16:30:45.000Z</time>
      </trkpt>
      <trkpt lat="42.408162318170070648193359375" lon="2.51591046340763568878173828125">
        <ele>681.79998779296875</ele>
        <time>2022-07-27T16:30:46.000Z</time>
      </trkpt>
      <trkpt lat="42.4080647528171539306640625" lon="2.51598992384970188140869140625">
        <ele>681</ele>
        <time>2022-07-27T16:30:47.000Z</time>
      </trkpt>
      <trkpt lat="42.4078635871410369873046875" lon="2.51620198599994182586669921875">
        <ele>679</ele>
        <time>2022-07-27T16:30:49.000Z</time>
      </trkpt>
      <trkpt lat="42.40779862739145755767822265625" lon="2.5163480825722217559814453125">
        <ele>677.5999755859375</ele>
        <time>2022-07-27T16:30:50.000Z</time>
      </trkpt>
      <trkpt lat="42.40773341618478298187255859375" lon="2.5164949335157871246337890625">
        <ele>676.5999755859375</ele>
        <time>2022-07-27T16:30:51.000Z</time>
      </trkpt>
      <trkpt lat="42.40767516195774078369140625" lon="2.51664505340158939361572265625">
        <ele>675.4000244140625</ele>
        <time>2022-07-27T16:30:52.000Z</time>
      </trkpt>
      <trkpt lat="42.40762897767126560211181640625" lon="2.51680321991443634033203125">
        <ele>675</ele>
        <time>2022-07-27T16:30:53.000Z</time>
      </trkpt>
      <trkpt lat="42.407584972679615020751953125" lon="2.5169540941715240478515625">
        <ele>674.5999755859375</ele>
        <time>2022-07-27T16:30:54.000Z</time>
      </trkpt>
      <trkpt lat="42.407458908855915069580078125" lon="2.51736355014145374298095703125">
        <ele>673.4000244140625</ele>
        <time>2022-07-27T16:30:57.000Z</time>
      </trkpt>
      <trkpt lat="42.40745262242853641510009765625" lon="2.51766395755112171173095703125">
        <ele>672.20001220703125</ele>
        <time>2022-07-27T16:30:59.000Z</time>
      </trkpt>
      <trkpt lat="42.4075873196125030517578125" lon="2.51814122311770915985107421875">
        <ele>671</ele>
        <time>2022-07-27T16:31:02.000Z</time>
      </trkpt>
      <trkpt lat="42.407677173614501953125" lon="2.51870029605925083160400390625">
        <ele>669.79998779296875</ele>
        <time>2022-07-27T16:31:05.000Z</time>
      </trkpt>
      <trkpt lat="42.40772805176675319671630859375" lon="2.5190554372966289520263671875">
        <ele>668.5999755859375</ele>
        <time>2022-07-27T16:31:07.000Z</time>
      </trkpt>
      <trkpt lat="42.4078044109046459197998046875" lon="2.51941661350429058074951171875">
        <ele>667</ele>
        <time>2022-07-27T16:31:09.000Z</time>
      </trkpt>
      <trkpt lat="42.40784925408661365509033203125" lon="2.5195891968905925750732421875">
        <ele>665.5999755859375</ele>
        <time>2022-07-27T16:31:10.000Z</time>
      </trkpt>
      <trkpt lat="42.40789636038243770599365234375" lon="2.5197608582675457000732421875">
        <ele>664</ele>
        <time>2022-07-27T16:31:11.000Z</time>
      </trkpt>
      <trkpt lat="42.40792469121515750885009765625" lon="2.5199348665773868560791015625">
        <ele>661.5999755859375</ele>
        <time>2022-07-27T16:31:12.000Z</time>
      </trkpt>
      <trkpt lat="42.407918237149715423583984375" lon="2.52010795287787914276123046875">
        <ele>659.5999755859375</ele>
        <time>2022-07-27T16:31:13.000Z</time>
      </trkpt>
      <trkpt lat="42.40787657909095287322998046875" lon="2.5202693045139312744140625">
        <ele>657.5999755859375</ele>
        <time>2022-07-27T16:31:14.000Z</time>
      </trkpt>
      <trkpt lat="42.40780751220881938934326171875" lon="2.52041305415332317352294921875">
        <ele>655.79998779296875</ele>
        <time>2022-07-27T16:31:15.000Z</time>
      </trkpt>
      <trkpt lat="42.40773190744221210479736328125" lon="2.52054624259471893310546875">
        <ele>654.4000244140625</ele>
        <time>2022-07-27T16:31:16.000Z</time>
      </trkpt>
      <trkpt lat="42.4076570570468902587890625" lon="2.5206778384745121002197265625">
        <ele>653.4000244140625</ele>
        <time>2022-07-27T16:31:17.000Z</time>
      </trkpt>
      <trkpt lat="42.40758690051734447479248046875" lon="2.52081186510622501373291015625">
        <ele>652.20001220703125</ele>
        <time>2022-07-27T16:31:18.000Z</time>
      </trkpt>
      <trkpt lat="42.40744608454406261444091796875" lon="2.52108226530253887176513671875">
        <ele>650.5999755859375</ele>
        <time>2022-07-27T16:31:20.000Z</time>
      </trkpt>
      <trkpt lat="42.407304346561431884765625" lon="2.52134595997631549835205078125">
        <ele>649.20001220703125</ele>
        <time>2022-07-27T16:31:22.000Z</time>
      </trkpt>
      <trkpt lat="42.40704325027763843536376953125" lon="2.5218606926500797271728515625">
        <ele>648.4000244140625</ele>
        <time>2022-07-27T16:31:26.000Z</time>
      </trkpt>
      <trkpt lat="42.40700603462755680084228515625" lon="2.5220020115375518798828125">
        <ele>648.20001220703125</ele>
        <time>2022-07-27T16:31:27.000Z</time>
      </trkpt>
      <trkpt lat="42.40697133354842662811279296875" lon="2.52246159128844738006591796875">
        <ele>647.5999755859375</ele>
        <time>2022-07-27T16:31:30.000Z</time>
      </trkpt>
      <trkpt lat="42.40696647204458713531494140625" lon="2.52262621186673641204833984375">
        <ele>647</ele>
        <time>2022-07-27T16:31:31.000Z</time>
      </trkpt>
      <trkpt lat="42.40695037879049777984619140625" lon="2.5227959454059600830078125">
        <ele>644.5999755859375</ele>
        <time>2022-07-27T16:31:32.000Z</time>
      </trkpt>
      <trkpt lat="42.4069219641387462615966796875" lon="2.522969953715801239013671875">
        <ele>644.20001220703125</ele>
        <time>2022-07-27T16:31:33.000Z</time>
      </trkpt>
      <trkpt lat="42.406885586678981781005859375" lon="2.523146979510784149169921875">
        <ele>643.5999755859375</ele>
        <time>2022-07-27T16:31:34.000Z</time>
      </trkpt>
      <trkpt lat="42.40676798857748508453369140625" lon="2.52369641326367855072021484375">
        <ele>642.5999755859375</ele>
        <time>2022-07-27T16:31:37.000Z</time>
      </trkpt>
      <trkpt lat="42.4067315272986888885498046875" lon="2.52387846820056438446044921875">
        <ele>642</ele>
        <time>2022-07-27T16:31:38.000Z</time>
      </trkpt>
      <trkpt lat="42.40670294500887393951416015625" lon="2.52406102605164051055908203125">
        <ele>641</ele>
        <time>2022-07-27T16:31:39.000Z</time>
      </trkpt>
      <trkpt lat="42.4066782183945178985595703125" lon="2.52424727194011211395263671875">
        <ele>639.5999755859375</ele>
        <time>2022-07-27T16:31:40.000Z</time>
      </trkpt>
      <trkpt lat="42.40664653480052947998046875" lon="2.5244346074759960174560546875">
        <ele>638.4000244140625</ele>
        <time>2022-07-27T16:31:41.000Z</time>
      </trkpt>
      <trkpt lat="42.40660320036113262176513671875" lon="2.5246210210025310516357421875">
        <ele>637.20001220703125</ele>
        <time>2022-07-27T16:31:42.000Z</time>
      </trkpt>
      <trkpt lat="42.40655190311372280120849609375" lon="2.524806596338748931884765625">
        <ele>636.20001220703125</ele>
        <time>2022-07-27T16:31:43.000Z</time>
      </trkpt>
      <trkpt lat="42.40650278516113758087158203125" lon="2.5249908305704593658447265625">
        <ele>635</ele>
        <time>2022-07-27T16:31:44.000Z</time>
      </trkpt>
      <trkpt lat="42.40646271966397762298583984375" lon="2.52517481334507465362548828125">
        <ele>633.5999755859375</ele>
        <time>2022-07-27T16:31:45.000Z</time>
      </trkpt>
      <trkpt lat="42.40643170662224292755126953125" lon="2.52535678446292877197265625">
        <ele>632.20001220703125</ele>
        <time>2022-07-27T16:31:46.000Z</time>
      </trkpt>
      <trkpt lat="42.40640505217015743255615234375" lon="2.5255349837243556976318359375">
        <ele>631</ele>
        <time>2022-07-27T16:31:47.000Z</time>
      </trkpt>
      <trkpt lat="42.4063747934997081756591796875" lon="2.52570522017776966094970703125">
        <ele>630.20001220703125</ele>
        <time>2022-07-27T16:31:48.000Z</time>
      </trkpt>
      <trkpt lat="42.40632240660488605499267578125" lon="2.5258751213550567626953125">
        <ele>628.79998779296875</ele>
        <time>2022-07-27T16:31:49.000Z</time>
      </trkpt>
      <trkpt lat="42.40624713711440563201904296875" lon="2.5260325334966182708740234375">
        <ele>627.79998779296875</ele>
        <time>2022-07-27T16:31:50.000Z</time>
      </trkpt>
      <trkpt lat="42.4061592109501361846923828125" lon="2.52617879770696163177490234375">
        <ele>626.5999755859375</ele>
        <time>2022-07-27T16:31:51.000Z</time>
      </trkpt>
      <trkpt lat="42.40606248378753662109375" lon="2.52632103860378265380859375">
        <ele>625.4000244140625</ele>
        <time>2022-07-27T16:31:52.000Z</time>
      </trkpt>
      <trkpt lat="42.405955530703067779541015625" lon="2.52645674161612987518310546875">
        <ele>623.79998779296875</ele>
        <time>2022-07-27T16:31:53.000Z</time>
      </trkpt>
      <trkpt lat="42.4058353342115879058837890625" lon="2.5265756808221340179443359375">
        <ele>622.5999755859375</ele>
        <time>2022-07-27T16:31:54.000Z</time>
      </trkpt>
      <trkpt lat="42.40556200034916400909423828125" lon="2.5267567299306392669677734375">
        <ele>621.20001220703125</ele>
        <time>2022-07-27T16:31:56.000Z</time>
      </trkpt>
      <trkpt lat="42.405422441661357879638671875" lon="2.52682604826986789703369140625">
        <ele>620.4000244140625</ele>
        <time>2022-07-27T16:31:57.000Z</time>
      </trkpt>
      <trkpt lat="42.40529000759124755859375" lon="2.52688690088689327239990234375">
        <ele>619.4000244140625</ele>
        <time>2022-07-27T16:31:58.000Z</time>
      </trkpt>
      <trkpt lat="42.40516126155853271484375" lon="2.52694155089557170867919921875">
        <ele>618.20001220703125</ele>
        <time>2022-07-27T16:31:59.000Z</time>
      </trkpt>
      <trkpt lat="42.405034862458705902099609375" lon="2.52697608433663845062255859375">
        <ele>614.5999755859375</ele>
        <time>2022-07-27T16:32:00.000Z</time>
      </trkpt>
      <trkpt lat="42.4049119837582111358642578125" lon="2.5269971229135990142822265625">
        <ele>613</ele>
        <time>2022-07-27T16:32:01.000Z</time>
      </trkpt>
      <trkpt lat="42.40479446947574615478515625" lon="2.52700944431126117706298828125">
        <ele>611.79998779296875</ele>
        <time>2022-07-27T16:32:02.000Z</time>
      </trkpt>
      <trkpt lat="42.40457310341298580169677734375" lon="2.5270418822765350341796875">
        <ele>609.4000244140625</ele>
        <time>2022-07-27T16:32:04.000Z</time>
      </trkpt>
      <trkpt lat="42.404466234147548675537109375" lon="2.52708672545850276947021484375">
        <ele>608.20001220703125</ele>
        <time>2022-07-27T16:32:05.000Z</time>
      </trkpt>
      <trkpt lat="42.40437914617359638214111328125" lon="2.5271788425743579864501953125">
        <ele>607</ele>
        <time>2022-07-27T16:32:06.000Z</time>
      </trkpt>
      <trkpt lat="42.40430873818695545196533203125" lon="2.52728772349655628204345703125">
        <ele>606.4000244140625</ele>
        <time>2022-07-27T16:32:07.000Z</time>
      </trkpt>
      <trkpt lat="42.40426364354789257049560546875" lon="2.5274105183780193328857421875">
        <ele>606</ele>
        <time>2022-07-27T16:32:08.000Z</time>
      </trkpt>
      <trkpt lat="42.4042558483779430389404296875" lon="2.527558542788028717041015625">
        <ele>605.20001220703125</ele>
        <time>2022-07-27T16:32:09.000Z</time>
      </trkpt>
      <trkpt lat="42.40430630743503570556640625" lon="2.52768150530755519866943359375">
        <ele>604.5999755859375</ele>
        <time>2022-07-27T16:32:10.000Z</time>
      </trkpt>
      <trkpt lat="42.4043738655745983123779296875" lon="2.52777974121272563934326171875">
        <ele>604</ele>
        <time>2022-07-27T16:32:11.000Z</time>
      </trkpt>
      <trkpt lat="42.40446028299629688262939453125" lon="2.527845203876495361328125">
        <ele>603.20001220703125</ele>
        <time>2022-07-27T16:32:12.000Z</time>
      </trkpt>
      <trkpt lat="42.40455441176891326904296875" lon="2.52789205871522426605224609375">
        <ele>601.79998779296875</ele>
        <time>2022-07-27T16:32:13.000Z</time>
      </trkpt>
      <trkpt lat="42.4046558327972888946533203125" lon="2.52793396823108196258544921875">
        <ele>600.79998779296875</ele>
        <time>2022-07-27T16:32:14.000Z</time>
      </trkpt>
      <trkpt lat="42.404760606586933135986328125" lon="2.52798593603074550628662109375">
        <ele>600</ele>
        <time>2022-07-27T16:32:15.000Z</time>
      </trkpt>
      <trkpt lat="42.404969148337841033935546875" lon="2.52812222577631473541259765625">
        <ele>598.4000244140625</ele>
        <time>2022-07-27T16:32:17.000Z</time>
      </trkpt>
      <trkpt lat="42.40528036840260028839111328125" lon="2.5283908657729625701904296875">
        <ele>597.20001220703125</ele>
        <time>2022-07-27T16:32:20.000Z</time>
      </trkpt>
      <trkpt lat="42.4053817056119441986083984375" lon="2.52849438227713108062744140625">
        <ele>597</ele>
        <time>2022-07-27T16:32:21.000Z</time>
      </trkpt>
      <trkpt lat="42.40548312664031982421875" lon="2.5286007486283779144287109375">
        <ele>596</ele>
        <time>2022-07-27T16:32:22.000Z</time>
      </trkpt>
      <trkpt lat="42.4055838771164417266845703125" lon="2.52869269810616970062255859375">
        <ele>594.79998779296875</ele>
        <time>2022-07-27T16:32:23.000Z</time>
      </trkpt>
      <trkpt lat="42.4056908302009105682373046875" lon="2.5287760980427265167236328125">
        <ele>594</ele>
        <time>2022-07-27T16:32:24.000Z</time>
      </trkpt>
      <trkpt lat="42.40580071695148944854736328125" lon="2.52885212190449237823486328125">
        <ele>593</ele>
        <time>2022-07-27T16:32:25.000Z</time>
      </trkpt>
      <trkpt lat="42.40591429173946380615234375" lon="2.5289209373295307159423828125">
        <ele>592.20001220703125</ele>
        <time>2022-07-27T16:32:26.000Z</time>
      </trkpt>
      <trkpt lat="42.40614437498152256011962890625" lon="2.52905194647610187530517578125">
        <ele>590</ele>
        <time>2022-07-27T16:32:28.000Z</time>
      </trkpt>
      <trkpt lat="42.406260631978511810302734375" lon="2.52911279909312725067138671875">
        <ele>588.5999755859375</ele>
        <time>2022-07-27T16:32:29.000Z</time>
      </trkpt>
      <trkpt lat="42.4065008573234081268310546875" lon="2.52922327257692813873291015625">
        <ele>587.20001220703125</ele>
        <time>2022-07-27T16:32:31.000Z</time>
      </trkpt>
      <trkpt lat="42.4067285098135471343994140625" lon="2.52936643548309803009033203125">
        <ele>586.79998779296875</ele>
        <time>2022-07-27T16:32:33.000Z</time>
      </trkpt>
      <trkpt lat="42.40682892501354217529296875" lon="2.529471628367900848388671875">
        <ele>586.5999755859375</ele>
        <time>2022-07-27T16:32:34.000Z</time>
      </trkpt>
      <trkpt lat="42.40707962773740291595458984375" lon="2.529862560331821441650390625">
        <ele>586.20001220703125</ele>
        <time>2022-07-27T16:32:37.000Z</time>
      </trkpt>
      <trkpt lat="42.40715749561786651611328125" lon="2.53000496886670589447021484375">
        <ele>586.20001220703125</ele>
        <time>2022-07-27T16:32:38.000Z</time>
      </trkpt>
      <trkpt lat="42.4072864092886447906494140625" lon="2.53031861968338489532470703125">
        <ele>586</ele>
        <time>2022-07-27T16:32:40.000Z</time>
      </trkpt>
      <trkpt lat="42.40732689388096332550048828125" lon="2.53048575483262538909912109375">
        <ele>586</ele>
        <time>2022-07-27T16:32:41.000Z</time>
      </trkpt>
      <trkpt lat="42.40734298713505268096923828125" lon="2.53082673065364360809326171875">
        <ele>585.4000244140625</ele>
        <time>2022-07-27T16:32:43.000Z</time>
      </trkpt>
      <trkpt lat="42.407315410673618316650390625" lon="2.53099235706031322479248046875">
        <ele>584.79998779296875</ele>
        <time>2022-07-27T16:32:44.000Z</time>
      </trkpt>
      <trkpt lat="42.407219521701335906982421875" lon="2.5312960334122180938720703125">
        <ele>582.4000244140625</ele>
        <time>2022-07-27T16:32:46.000Z</time>
      </trkpt>
      <trkpt lat="42.407171912491321563720703125" lon="2.531445063650608062744140625">
        <ele>581.20001220703125</ele>
        <time>2022-07-27T16:32:47.000Z</time>
      </trkpt>
      <trkpt lat="42.4071351997554302215576171875" lon="2.531594596803188323974609375">
        <ele>580.20001220703125</ele>
        <time>2022-07-27T16:32:48.000Z</time>
      </trkpt>
      <trkpt lat="42.40708239376544952392578125" lon="2.5318941660225391387939453125">
        <ele>579</ele>
        <time>2022-07-27T16:32:50.000Z</time>
      </trkpt>
      <trkpt lat="42.40704274736344814300537109375" lon="2.5321935676038265228271484375">
        <ele>578.20001220703125</ele>
        <time>2022-07-27T16:32:52.000Z</time>
      </trkpt>
      <trkpt lat="42.40703453309834003448486328125" lon="2.532485090196132659912109375">
        <ele>578</ele>
        <time>2022-07-27T16:32:54.000Z</time>
      </trkpt>
      <trkpt lat="42.40703009068965911865234375" lon="2.5329040177166461944580078125">
        <ele>577.79998779296875</ele>
        <time>2022-07-27T16:32:57.000Z</time>
      </trkpt>
      <trkpt lat="42.40699832327663898468017578125" lon="2.5335856340825557708740234375">
        <ele>578.20001220703125</ele>
        <time>2022-07-27T16:33:02.000Z</time>
      </trkpt>
      <trkpt lat="42.40697376430034637451171875" lon="2.533719241619110107421875">
        <ele>578.4000244140625</ele>
        <time>2022-07-27T16:33:03.000Z</time>
      </trkpt>
      <trkpt lat="42.40686119534075260162353515625" lon="2.53393088467419147491455078125">
        <ele>579</ele>
        <time>2022-07-27T16:33:05.000Z</time>
      </trkpt>
      <trkpt lat="42.406692467629909515380859375" lon="2.5340667553246021270751953125">
        <ele>579.20001220703125</ele>
        <time>2022-07-27T16:33:07.000Z</time>
      </trkpt>
      <trkpt lat="42.40661074407398700714111328125" lon="2.5341403484344482421875">
        <ele>579.20001220703125</ele>
        <time>2022-07-27T16:33:08.000Z</time>
      </trkpt>
      <trkpt lat="42.40641460753977298736572265625" lon="2.53439909778535366058349609375">
        <ele>580.20001220703125</ele>
        <time>2022-07-27T16:33:11.000Z</time>
      </trkpt>
      <trkpt lat="42.4063694290816783905029296875" lon="2.53450135700404644012451171875">
        <ele>580.5999755859375</ele>
        <time>2022-07-27T16:33:12.000Z</time>
      </trkpt>
      <trkpt lat="42.40629642270505428314208984375" lon="2.5348363816738128662109375">
        <ele>581.20001220703125</ele>
        <time>2022-07-27T16:33:15.000Z</time>
      </trkpt>
      <trkpt lat="42.406300194561481475830078125" lon="2.53495515324175357818603515625">
        <ele>581.20001220703125</ele>
        <time>2022-07-27T16:33:16.000Z</time>
      </trkpt>
      <trkpt lat="42.40634269081056118011474609375" lon="2.53519051708281040191650390625">
        <ele>581.20001220703125</ele>
        <time>2022-07-27T16:33:18.000Z</time>
      </trkpt>
      <trkpt lat="42.40651217289268970489501953125" lon="2.535831816494464874267578125">
        <ele>580.4000244140625</ele>
        <time>2022-07-27T16:33:24.000Z</time>
      </trkpt>
      <trkpt lat="42.40662214346230030059814453125" lon="2.53628368489444255828857421875">
        <ele>580.20001220703125</ele>
        <time>2022-07-27T16:33:28.000Z</time>
      </trkpt>
      <trkpt lat="42.40664091892540454864501953125" lon="2.53639885224401950836181640625">
        <ele>580.20001220703125</ele>
        <time>2022-07-27T16:33:29.000Z</time>
      </trkpt>
      <trkpt lat="42.406760193407535552978515625" lon="2.53708801232278347015380859375">
        <ele>580.20001220703125</ele>
        <time>2022-07-27T16:33:35.000Z</time>
      </trkpt>
      <trkpt lat="42.40679900161921977996826171875" lon="2.537200413644313812255859375">
        <ele>580.20001220703125</ele>
        <time>2022-07-27T16:33:36.000Z</time>
      </trkpt>
      <trkpt lat="42.40695792250335216522216796875" lon="2.5375224463641643524169921875">
        <ele>580</ele>
        <time>2022-07-27T16:33:39.000Z</time>
      </trkpt>
      <trkpt lat="42.40702807903289794921875" lon="2.53761959262192249298095703125">
        <ele>579.79998779296875</ele>
        <time>2022-07-27T16:33:40.000Z</time>
      </trkpt>
      <trkpt lat="42.4072770215570926666259765625" lon="2.53786803223192691802978515625">
        <ele>579.4000244140625</ele>
        <time>2022-07-27T16:33:43.000Z</time>
      </trkpt>
      <trkpt lat="42.40735195577144622802734375" lon="2.53796358592808246612548828125">
        <ele>579.20001220703125</ele>
        <time>2022-07-27T16:33:44.000Z</time>
      </trkpt>
      <trkpt lat="42.407485730946063995361328125" lon="2.53818905912339687347412109375">
        <ele>578.4000244140625</ele>
        <time>2022-07-27T16:33:46.000Z</time>
      </trkpt>
      <trkpt lat="42.40755102597177028656005859375" lon="2.53830724395811557769775390625">
        <ele>577.79998779296875</ele>
        <time>2022-07-27T16:33:47.000Z</time>
      </trkpt>
      <trkpt lat="42.40766703151166439056396484375" lon="2.53856129944324493408203125">
        <ele>576.79998779296875</ele>
        <time>2022-07-27T16:33:49.000Z</time>
      </trkpt>
      <trkpt lat="42.4076961167156696319580078125" lon="2.53870639018714427947998046875">
        <ele>576.4000244140625</ele>
        <time>2022-07-27T16:33:50.000Z</time>
      </trkpt>
      <trkpt lat="42.407705001533031463623046875" lon="2.5390057079493999481201171875">
        <ele>575.4000244140625</ele>
        <time>2022-07-27T16:33:52.000Z</time>
      </trkpt>
      <trkpt lat="42.407719083130359649658203125" lon="2.53915398381650447845458984375">
        <ele>575</ele>
        <time>2022-07-27T16:33:53.000Z</time>
      </trkpt>
      <trkpt lat="42.40780583582818508148193359375" lon="2.53942723385989665985107421875">
        <ele>574.20001220703125</ele>
        <time>2022-07-27T16:33:55.000Z</time>
      </trkpt>
      <trkpt lat="42.40805192850530147552490234375" lon="2.53973853774368762969970703125">
        <ele>573.20001220703125</ele>
        <time>2022-07-27T16:33:58.000Z</time>
      </trkpt>
      <trkpt lat="42.4082506634294986724853515625" lon="2.53988991491496562957763671875">
        <ele>572</ele>
        <time>2022-07-27T16:34:00.000Z</time>
      </trkpt>
      <trkpt lat="42.40835568867623805999755859375" lon="2.53995202481746673583984375">
        <ele>570.5999755859375</ele>
        <time>2022-07-27T16:34:01.000Z</time>
      </trkpt>
      <trkpt lat="42.4084561876952648162841796875" lon="2.540014721453189849853515625">
        <ele>569.4000244140625</ele>
        <time>2022-07-27T16:34:02.000Z</time>
      </trkpt>
      <trkpt lat="42.40855651907622814178466796875" lon="2.54008353687822818756103515625">
        <ele>568</ele>
        <time>2022-07-27T16:34:03.000Z</time>
      </trkpt>
      <trkpt lat="42.40875064395368099212646484375" lon="2.54023860208690166473388671875">
        <ele>566.20001220703125</ele>
        <time>2022-07-27T16:34:05.000Z</time>
      </trkpt>
      <trkpt lat="42.40894225426018238067626953125" lon="2.5404074974358081817626953125">
        <ele>565.4000244140625</ele>
        <time>2022-07-27T16:34:07.000Z</time>
      </trkpt>
      <trkpt lat="42.40903629921376705169677734375" lon="2.54049542360007762908935546875">
        <ele>565.20001220703125</ele>
        <time>2022-07-27T16:34:08.000Z</time>
      </trkpt>
      <trkpt lat="42.40920980460941791534423828125" lon="2.5406971760094165802001953125">
        <ele>564.5999755859375</ele>
        <time>2022-07-27T16:34:10.000Z</time>
      </trkpt>
      <trkpt lat="42.40929177962243556976318359375" lon="2.5408078171312808990478515625">
        <ele>564.20001220703125</ele>
        <time>2022-07-27T16:34:11.000Z</time>
      </trkpt>
      <trkpt lat="42.40937241353094577789306640625" lon="2.5409224815666675567626953125">
        <ele>564</ele>
        <time>2022-07-27T16:34:12.000Z</time>
      </trkpt>
      <trkpt lat="42.409519851207733154296875" lon="2.54116765223443508148193359375">
        <ele>563.5999755859375</ele>
        <time>2022-07-27T16:34:14.000Z</time>
      </trkpt>
      <trkpt lat="42.40958196111023426055908203125" lon="2.54130251705646514892578125">
        <ele>563.20001220703125</ele>
        <time>2022-07-27T16:34:15.000Z</time>
      </trkpt>
      <trkpt lat="42.4096377007663249969482421875" lon="2.5414414890110492706298828125">
        <ele>562.79998779296875</ele>
        <time>2022-07-27T16:34:16.000Z</time>
      </trkpt>
      <trkpt lat="42.40978471934795379638671875" lon="2.54186804406344890594482421875">
        <ele>561.4000244140625</ele>
        <time>2022-07-27T16:34:19.000Z</time>
      </trkpt>
      <trkpt lat="42.4098412133753299713134765625" lon="2.5420034117996692657470703125">
        <ele>561</ele>
        <time>2022-07-27T16:34:20.000Z</time>
      </trkpt>
      <trkpt lat="42.40996434353291988372802734375" lon="2.54226618446409702301025390625">
        <ele>559.5999755859375</ele>
        <time>2022-07-27T16:34:22.000Z</time>
      </trkpt>
      <trkpt lat="42.410059310495853424072265625" lon="2.5425517559051513671875">
        <ele>558</ele>
        <time>2022-07-27T16:34:24.000Z</time>
      </trkpt>
      <trkpt lat="42.410169951617717742919921875" lon="2.54300077445805072784423828125">
        <ele>556.79998779296875</ele>
        <time>2022-07-27T16:34:27.000Z</time>
      </trkpt>
      <trkpt lat="42.41018076427280902862548828125" lon="2.5431567616760730743408203125">
        <ele>556.4000244140625</ele>
        <time>2022-07-27T16:34:28.000Z</time>
      </trkpt>
      <trkpt lat="42.41017741151154041290283203125" lon="2.543313167989253997802734375">
        <ele>555.79998779296875</ele>
        <time>2022-07-27T16:34:29.000Z</time>
      </trkpt>
      <trkpt lat="42.41016584448516368865966796875" lon="2.54361265338957309722900390625">
        <ele>555</ele>
        <time>2022-07-27T16:34:31.000Z</time>
      </trkpt>
      <trkpt lat="42.41017363965511322021484375" lon="2.543747015297412872314453125">
        <ele>554.5999755859375</ele>
        <time>2022-07-27T16:34:32.000Z</time>
      </trkpt>
      <trkpt lat="42.41019685752689838409423828125" lon="2.54386939108371734619140625">
        <ele>553.5999755859375</ele>
        <time>2022-07-27T16:34:33.000Z</time>
      </trkpt>
      <trkpt lat="42.410241030156612396240234375" lon="2.5439771823585033416748046875">
        <ele>552.79998779296875</ele>
        <time>2022-07-27T16:34:34.000Z</time>
      </trkpt>
      <trkpt lat="42.41037908010184764862060546875" lon="2.54414473660290241241455078125">
        <ele>552.4000244140625</ele>
        <time>2022-07-27T16:34:36.000Z</time>
      </trkpt>
      <trkpt lat="42.41045719943940639495849609375" lon="2.54421715624630451202392578125">
        <ele>552.20001220703125</ele>
        <time>2022-07-27T16:34:37.000Z</time>
      </trkpt>
      <trkpt lat="42.41075836122035980224609375" lon="2.544503398239612579345703125">
        <ele>552</ele>
        <time>2022-07-27T16:34:41.000Z</time>
      </trkpt>
      <trkpt lat="42.41078929044306278228759765625" lon="2.54460087977349758148193359375">
        <ele>551.79998779296875</ele>
        <time>2022-07-27T16:34:42.000Z</time>
      </trkpt>
      <trkpt lat="42.41076598875224590301513671875" lon="2.5448059849441051483154296875">
        <ele>551.79998779296875</ele>
        <time>2022-07-27T16:34:44.000Z</time>
      </trkpt>
      <trkpt lat="42.410599105060100555419921875" lon="2.54503925330936908721923828125">
        <ele>552</ele>
        <time>2022-07-27T16:34:47.000Z</time>
      </trkpt>
      <trkpt lat="42.41031889803707599639892578125" lon="2.54543253220617771148681640625">
        <ele>552</ele>
        <time>2022-07-27T16:34:52.000Z</time>
      </trkpt>
      <trkpt lat="42.41026709787547588348388671875" lon="2.54551400430500507354736328125">
        <ele>552</ele>
        <time>2022-07-27T16:34:53.000Z</time>
      </trkpt>
      <trkpt lat="42.41007783450186252593994140625" lon="2.5457383878529071807861328125">
        <ele>551.5999755859375</ele>
        <time>2022-07-27T16:34:56.000Z</time>
      </trkpt>
      <trkpt lat="42.41001480259001255035400390625" lon="2.545783817768096923828125">
        <ele>551.4000244140625</ele>
        <time>2022-07-27T16:34:57.000Z</time>
      </trkpt>
      <trkpt lat="42.409860827028751373291015625" lon="2.545882724225521087646484375">
        <ele>551</ele>
        <time>2022-07-27T16:35:00.000Z</time>
      </trkpt>
      <trkpt lat="42.409825287759304046630859375" lon="2.54590518772602081298828125">
        <ele>551</ele>
        <time>2022-07-27T16:35:01.000Z</time>
      </trkpt>
      <trkpt lat="42.40967877209186553955078125" lon="2.5464391149580478668212890625">
        <ele>552.20001220703125</ele>
        <time>2022-07-27T16:36:24.000Z</time>
      </trkpt>
      <trkpt lat="42.4096769280731678009033203125" lon="2.54649921320378780364990234375">
        <ele>552</ele>
        <time>2022-07-27T16:36:25.000Z</time>
      </trkpt>
      <trkpt lat="42.40967298857867717742919921875" lon="2.5466285459697246551513671875">
        <ele>551.4000244140625</ele>
        <time>2022-07-27T16:36:27.000Z</time>
      </trkpt>
      <trkpt lat="42.40969729609787464141845703125" lon="2.546947561204433441162109375">
        <ele>550.5999755859375</ele>
        <time>2022-07-27T16:36:31.000Z</time>
      </trkpt>
      <trkpt lat="42.4097225256264209747314453125" lon="2.5470224954187870025634765625">
        <ele>550.20001220703125</ele>
        <time>2022-07-27T16:36:32.000Z</time>
      </trkpt>
      <trkpt lat="42.40984917618334293365478515625" lon="2.547337152063846588134765625">
        <ele>550</ele>
        <time>2022-07-27T16:36:36.000Z</time>
      </trkpt>
      <trkpt lat="42.41002536378800868988037109375" lon="2.54792355000972747802734375">
        <ele>549.5999755859375</ele>
        <time>2022-07-27T16:36:42.000Z</time>
      </trkpt>
      <trkpt lat="42.41005905903875827789306640625" lon="2.548137120902538299560546875">
        <ele>549.4000244140625</ele>
        <time>2022-07-27T16:36:44.000Z</time>
      </trkpt>
      <trkpt lat="42.410071380436420440673828125" lon="2.54835136234760284423828125">
        <ele>549.20001220703125</ele>
        <time>2022-07-27T16:36:46.000Z</time>
      </trkpt>
      <trkpt lat="42.41007565520703792572021484375" lon="2.5484581477940082550048828125">
        <ele>549.20001220703125</ele>
        <time>2022-07-27T16:36:47.000Z</time>
      </trkpt>
      <trkpt lat="42.41008252836763858795166015625" lon="2.54867012612521648406982421875">
        <ele>548.4000244140625</ele>
        <time>2022-07-27T16:36:49.000Z</time>
      </trkpt>
      <trkpt lat="42.410147488117218017578125" lon="2.549431622028350830078125">
        <ele>547.4000244140625</ele>
        <time>2022-07-27T16:36:56.000Z</time>
      </trkpt>
      <trkpt lat="42.4101748131215572357177734375" lon="2.54986622370779514312744140625">
        <ele>547.20001220703125</ele>
        <time>2022-07-27T16:37:00.000Z</time>
      </trkpt>
      <trkpt lat="42.41015058942139148712158203125" lon="2.5500765256583690643310546875">
        <ele>547.20001220703125</ele>
        <time>2022-07-27T16:37:02.000Z</time>
      </trkpt>
      <trkpt lat="42.4100953526794910430908203125" lon="2.55070273764431476593017578125">
        <ele>547</ele>
        <time>2022-07-27T16:37:08.000Z</time>
      </trkpt>
      <trkpt lat="42.4101795069873332977294921875" lon="2.55099006928503513336181640625">
        <ele>546.20001220703125</ele>
        <time>2022-07-27T16:37:11.000Z</time>
      </trkpt>
      <trkpt lat="42.4103454686701297760009765625" lon="2.5511883012950420379638671875">
        <ele>545.5999755859375</ele>
        <time>2022-07-27T16:37:14.000Z</time>
      </trkpt>
      <trkpt lat="42.41059432737529277801513671875" lon="2.551300115883350372314453125">
        <ele>545.4000244140625</ele>
        <time>2022-07-27T16:37:18.000Z</time>
      </trkpt>
      <trkpt lat="42.411043681204319000244140625" lon="2.5514293648302555084228515625">
        <ele>545.5999755859375</ele>
        <time>2022-07-27T16:37:25.000Z</time>
      </trkpt>
      <trkpt lat="42.41128717549145221710205078125" lon="2.55162122659385204315185546875">
        <ele>546</ele>
        <time>2022-07-27T16:37:29.000Z</time>
      </trkpt>
      <trkpt lat="42.41134702228009700775146484375" lon="2.55167470313608646392822265625">
        <ele>546</ele>
        <time>2022-07-27T16:37:30.000Z</time>
      </trkpt>
      <trkpt lat="42.41146286018192768096923828125" lon="2.55179339088499546051025390625">
        <ele>546.20001220703125</ele>
        <time>2022-07-27T16:37:32.000Z</time>
      </trkpt>
      <trkpt lat="42.4115543067455291748046875" lon="2.55195164121687412261962890625">
        <ele>546.5999755859375</ele>
        <time>2022-07-27T16:37:34.000Z</time>
      </trkpt>
      <trkpt lat="42.4115960486233234405517578125" lon="2.5521500408649444580078125">
        <ele>546.5999755859375</ele>
        <time>2022-07-27T16:37:36.000Z</time>
      </trkpt>
      <trkpt lat="42.4116097949445247650146484375" lon="2.55225188098847866058349609375">
        <ele>546.5999755859375</ele>
        <time>2022-07-27T16:37:37.000Z</time>
      </trkpt>
      <trkpt lat="42.4117422290146350860595703125" lon="2.55294598639011383056640625">
        <ele>546.5999755859375</ele>
        <time>2022-07-27T16:37:44.000Z</time>
      </trkpt>
      <trkpt lat="42.4117965437471866607666015625" lon="2.5531349144876003265380859375">
        <ele>545.79998779296875</ele>
        <time>2022-07-27T16:37:46.000Z</time>
      </trkpt>
      <trkpt lat="42.4118126370012760162353515625" lon="2.55323306657373905181884765625">
        <ele>545.4000244140625</ele>
        <time>2022-07-27T16:37:47.000Z</time>
      </trkpt>
      <trkpt lat="42.4118213541805744171142578125" lon="2.5533328950405120849609375">
        <ele>545</ele>
        <time>2022-07-27T16:37:48.000Z</time>
      </trkpt>
      <trkpt lat="42.41178405471146106719970703125" lon="2.55363020114600658416748046875">
        <ele>544.5999755859375</ele>
        <time>2022-07-27T16:37:51.000Z</time>
      </trkpt>
      <trkpt lat="42.411718256771564483642578125" lon="2.55393580533564090728759765625">
        <ele>544.4000244140625</ele>
        <time>2022-07-27T16:37:54.000Z</time>
      </trkpt>
      <trkpt lat="42.41166452877223491668701171875" lon="2.5542460195720195770263671875">
        <ele>544</ele>
        <time>2022-07-27T16:37:57.000Z</time>
      </trkpt>
      <trkpt lat="42.4116436578333377838134765625" lon="2.55465187132358551025390625">
        <ele>543.4000244140625</ele>
        <time>2022-07-27T16:38:01.000Z</time>
      </trkpt>
      <trkpt lat="42.41165497340261936187744140625" lon="2.5547499395906925201416015625">
        <ele>542.5999755859375</ele>
        <time>2022-07-27T16:38:02.000Z</time>
      </trkpt>
      <trkpt lat="42.41167810745537281036376953125" lon="2.55484356544911861419677734375">
        <ele>542.20001220703125</ele>
        <time>2022-07-27T16:38:03.000Z</time>
      </trkpt>
      <trkpt lat="42.4117616750299930572509765625" lon="2.55500483326613903045654296875">
        <ele>541.4000244140625</ele>
        <time>2022-07-27T16:38:05.000Z</time>
      </trkpt>
      <trkpt lat="42.41181573830544948577880859375" lon="2.555073983967304229736328125">
        <ele>541</ele>
        <time>2022-07-27T16:38:06.000Z</time>
      </trkpt>
      <trkpt lat="42.41213073022663593292236328125" lon="2.5554084219038486480712890625">
        <ele>540.4000244140625</ele>
        <time>2022-07-27T16:38:11.000Z</time>
      </trkpt>
      <trkpt lat="42.41233550012111663818359375" lon="2.55557647906243801116943359375">
        <ele>540.20001220703125</ele>
        <time>2022-07-27T16:38:14.000Z</time>
      </trkpt>
      <trkpt lat="42.412538342177867889404296875" lon="2.5557634793221950531005859375">
        <ele>539.79998779296875</ele>
        <time>2022-07-27T16:38:17.000Z</time>
      </trkpt>
      <trkpt lat="42.4127049744129180908203125" lon="2.55603731609880924224853515625">
        <ele>538.79998779296875</ele>
        <time>2022-07-27T16:38:20.000Z</time>
      </trkpt>
      <trkpt lat="42.41290924139320850372314453125" lon="2.55639974959194660186767578125">
        <ele>538.4000244140625</ele>
        <time>2022-07-27T16:38:24.000Z</time>
      </trkpt>
      <trkpt lat="42.41298853419721126556396484375" lon="2.55658172070980072021484375">
        <ele>537.79998779296875</ele>
        <time>2022-07-27T16:38:26.000Z</time>
      </trkpt>
      <trkpt lat="42.41303463466465473175048828125" lon="2.55667048506438732147216796875">
        <ele>537.5999755859375</ele>
        <time>2022-07-27T16:38:27.000Z</time>
      </trkpt>
      <trkpt lat="42.41316287778317928314208984375" lon="2.55681532435119152069091796875">
        <ele>536.79998779296875</ele>
        <time>2022-07-27T16:38:29.000Z</time>
      </trkpt>
      <trkpt lat="42.41323806345462799072265625" lon="2.556871064007282257080078125">
        <ele>536.5999755859375</ele>
        <time>2022-07-27T16:38:30.000Z</time>
      </trkpt>
      <trkpt lat="42.41331257857382297515869140625" lon="2.55693183280527591705322265625">
        <ele>536.5999755859375</ele>
        <time>2022-07-27T16:38:31.000Z</time>
      </trkpt>
      <trkpt lat="42.41344065405428409576416015625" lon="2.55709947086870670318603515625">
        <ele>536</ele>
        <time>2022-07-27T16:38:33.000Z</time>
      </trkpt>
      <trkpt lat="42.41348172537982463836669921875" lon="2.5573510117828845977783203125">
        <ele>535.4000244140625</ele>
        <time>2022-07-27T16:38:35.000Z</time>
      </trkpt>
      <trkpt lat="42.41343126632273197174072265625" lon="2.5576165504753589630126953125">
        <ele>535</ele>
        <time>2022-07-27T16:38:37.000Z</time>
      </trkpt>
      <trkpt lat="42.4134122394025325775146484375" lon="2.55775124765932559967041015625">
        <ele>534.5999755859375</ele>
        <time>2022-07-27T16:38:38.000Z</time>
      </trkpt>
      <trkpt lat="42.41342171095311641693115234375" lon="2.55828517489135265350341796875">
        <ele>533.5999755859375</ele>
        <time>2022-07-27T16:38:42.000Z</time>
      </trkpt>
      <trkpt lat="42.41343696601688861846923828125" lon="2.55841241218149662017822265625">
        <ele>533.4000244140625</ele>
        <time>2022-07-27T16:38:43.000Z</time>
      </trkpt>
      <trkpt lat="42.4134747684001922607421875" lon="2.55865599028766155242919921875">
        <ele>532.20001220703125</ele>
        <time>2022-07-27T16:38:45.000Z</time>
      </trkpt>
      <trkpt lat="42.4135369621217250823974609375" lon="2.55900819785892963409423828125">
        <ele>531.5999755859375</ele>
        <time>2022-07-27T16:38:48.000Z</time>
      </trkpt>
      <trkpt lat="42.41364215500652790069580078125" lon="2.5598414428532123565673828125">
        <ele>531</ele>
        <time>2022-07-27T16:38:55.000Z</time>
      </trkpt>
      <trkpt lat="42.41365556605160236358642578125" lon="2.55996222607791423797607421875">
        <ele>531</ele>
        <time>2022-07-27T16:38:56.000Z</time>
      </trkpt>
      <trkpt lat="42.413754053413867950439453125" lon="2.56031133234500885009765625">
        <ele>530.79998779296875</ele>
        <time>2022-07-27T16:38:59.000Z</time>
      </trkpt>
      <trkpt lat="42.41395362652838230133056640625" lon="2.56088792346417903900146484375">
        <ele>530.4000244140625</ele>
        <time>2022-07-27T16:39:04.000Z</time>
      </trkpt>
      <trkpt lat="42.414003498852252960205078125" lon="2.5609927810728549957275390625">
        <ele>530.4000244140625</ele>
        <time>2022-07-27T16:39:05.000Z</time>
      </trkpt>
      <trkpt lat="42.4141739867627620697021484375" lon="2.56127365864813327789306640625">
        <ele>530.4000244140625</ele>
        <time>2022-07-27T16:39:08.000Z</time>
      </trkpt>
      <trkpt lat="42.41419292986392974853515625" lon="2.56150885485112667083740234375">
        <ele>530.4000244140625</ele>
        <time>2022-07-27T16:39:10.000Z</time>
      </trkpt>
      <trkpt lat="42.414119504392147064208984375" lon="2.56171789951622486114501953125">
        <ele>530.4000244140625</ele>
        <time>2022-07-27T16:39:12.000Z</time>
      </trkpt>
      <trkpt lat="42.41408907808363437652587890625" lon="2.56182317622005939483642578125">
        <ele>530.4000244140625</ele>
        <time>2022-07-27T16:39:13.000Z</time>
      </trkpt>
      <trkpt lat="42.4140868149697780609130859375" lon="2.5621645711362361907958984375">
        <ele>530.20001220703125</ele>
        <time>2022-07-27T16:39:16.000Z</time>
      </trkpt>
      <trkpt lat="42.41409393958747386932373046875" lon="2.56227873265743255615234375">
        <ele>530.20001220703125</ele>
        <time>2022-07-27T16:39:17.000Z</time>
      </trkpt>
      <trkpt lat="42.41418899036943912506103515625" lon="2.56308414973318576812744140625">
        <ele>530</ele>
        <time>2022-07-27T16:39:24.000Z</time>
      </trkpt>
      <trkpt lat="42.41441211663186550140380859375" lon="2.56384287960827350616455078125">
        <ele>529.79998779296875</ele>
        <time>2022-07-27T16:39:31.000Z</time>
      </trkpt>
      <trkpt lat="42.41467145271599292755126953125" lon="2.56457026116549968719482421875">
        <ele>530.20001220703125</ele>
        <time>2022-07-27T16:39:38.000Z</time>
      </trkpt>
      <trkpt lat="42.41473984904587268829345703125" lon="2.56477712653577327728271484375">
        <ele>530.20001220703125</ele>
        <time>2022-07-27T16:39:40.000Z</time>
      </trkpt>
      <trkpt lat="42.41475024260580539703369140625" lon="2.56511810235679149627685546875">
        <ele>530.4000244140625</ele>
        <time>2022-07-27T16:39:43.000Z</time>
      </trkpt>
      <trkpt lat="42.41473632864654064178466796875" lon="2.56522522307932376861572265625">
        <ele>530.4000244140625</ele>
        <time>2022-07-27T16:39:44.000Z</time>
      </trkpt>
      <trkpt lat="42.4147271923720836639404296875" lon="2.56533368490636348724365234375">
        <ele>530.4000244140625</ele>
        <time>2022-07-27T16:39:45.000Z</time>
      </trkpt>
      <trkpt lat="42.41474873386323451995849609375" lon="2.5655475072562694549560546875">
        <ele>530.4000244140625</ele>
        <time>2022-07-27T16:39:47.000Z</time>
      </trkpt>
      <trkpt lat="42.41487496532499790191650390625" lon="2.5658398680388927459716796875">
        <ele>530.5999755859375</ele>
        <time>2022-07-27T16:39:50.000Z</time>
      </trkpt>
      <trkpt lat="42.41491938941180706024169921875" lon="2.56593768484890460968017578125">
        <ele>530.5999755859375</ele>
        <time>2022-07-27T16:39:51.000Z</time>
      </trkpt>
      <trkpt lat="42.41497605107724666595458984375" lon="2.56626315414905548095703125">
        <ele>530.5999755859375</ele>
        <time>2022-07-27T16:39:54.000Z</time>
      </trkpt>
      <trkpt lat="42.4149607121944427490234375" lon="2.56647949106991291046142578125">
        <ele>530.4000244140625</ele>
        <time>2022-07-27T16:39:56.000Z</time>
      </trkpt>
      <trkpt lat="42.41495911963284015655517578125" lon="2.56658812053501605987548828125">
        <ele>530.20001220703125</ele>
        <time>2022-07-27T16:39:57.000Z</time>
      </trkpt>
      <trkpt lat="42.414970099925994873046875" lon="2.5666958279907703399658203125">
        <ele>530.20001220703125</ele>
        <time>2022-07-27T16:39:58.000Z</time>
      </trkpt>
      <trkpt lat="42.41507478989660739898681640625" lon="2.5669985823333263397216796875">
        <ele>530.20001220703125</ele>
        <time>2022-07-27T16:40:01.000Z</time>
      </trkpt>
      <trkpt lat="42.41517034359276294708251953125" lon="2.56718725897371768951416015625">
        <ele>530.4000244140625</ele>
        <time>2022-07-27T16:40:03.000Z</time>
      </trkpt>
      <trkpt lat="42.415275536477565765380859375" lon="2.56737115792930126190185546875">
        <ele>530.20001220703125</ele>
        <time>2022-07-27T16:40:05.000Z</time>
      </trkpt>
      <trkpt lat="42.41547477431595325469970703125" lon="2.5677472539246082305908203125">
        <ele>529.79998779296875</ele>
        <time>2022-07-27T16:40:09.000Z</time>
      </trkpt>
      <trkpt lat="42.4155803024768829345703125" lon="2.56805218756198883056640625">
        <ele>529.4000244140625</ele>
        <time>2022-07-27T16:40:12.000Z</time>
      </trkpt>
      <trkpt lat="42.41562313400208950042724609375" lon="2.56814681924879550933837890625">
        <ele>529.4000244140625</ele>
        <time>2022-07-27T16:40:13.000Z</time>
      </trkpt>
      <trkpt lat="42.4157465994358062744140625" lon="2.56828679703176021575927734375">
        <ele>529.20001220703125</ele>
        <time>2022-07-27T16:40:15.000Z</time>
      </trkpt>
      <trkpt lat="42.41590426303446292877197265625" lon="2.56837614811956882476806640625">
        <ele>528.79998779296875</ele>
        <time>2022-07-27T16:40:17.000Z</time>
      </trkpt>
      <trkpt lat="42.4160736612975597381591796875" lon="2.5684623979032039642333984375">
        <ele>528.5999755859375</ele>
        <time>2022-07-27T16:40:19.000Z</time>
      </trkpt>
      <trkpt lat="42.416331656277179718017578125" lon="2.56859860382974147796630859375">
        <ele>528.20001220703125</ele>
        <time>2022-07-27T16:40:22.000Z</time>
      </trkpt>
      <trkpt lat="42.41641170345246791839599609375" lon="2.56866079755127429962158203125">
        <ele>528</ele>
        <time>2022-07-27T16:40:23.000Z</time>
      </trkpt>
      <trkpt lat="42.416488565504550933837890625" lon="2.56873439066112041473388671875">
        <ele>527.5999755859375</ele>
        <time>2022-07-27T16:40:24.000Z</time>
      </trkpt>
      <trkpt lat="42.41664572618901729583740234375" lon="2.5688925571739673614501953125">
        <ele>526.5999755859375</ele>
        <time>2022-07-27T16:40:26.000Z</time>
      </trkpt>
      <trkpt lat="42.4167361669242382049560546875" lon="2.56895567290484905242919921875">
        <ele>525.79998779296875</ele>
        <time>2022-07-27T16:40:27.000Z</time>
      </trkpt>
      <trkpt lat="42.41693817079067230224609375" lon="2.56900797598063945770263671875">
        <ele>525.20001220703125</ele>
        <time>2022-07-27T16:40:29.000Z</time>
      </trkpt>
      <trkpt lat="42.4170419387519359588623046875" lon="2.56899976171553134918212890625">
        <ele>525</ele>
        <time>2022-07-27T16:40:30.000Z</time>
      </trkpt>
      <trkpt lat="42.41724335588514804840087890625" lon="2.56899724714457988739013671875">
        <ele>524.20001220703125</ele>
        <time>2022-07-27T16:40:32.000Z</time>
      </trkpt>
      <trkpt lat="42.4173410050570964813232421875" lon="2.569032870233058929443359375">
        <ele>523.79998779296875</ele>
        <time>2022-07-27T16:40:33.000Z</time>
      </trkpt>
      <trkpt lat="42.4175170250236988067626953125" lon="2.569190450012683868408203125">
        <ele>523.20001220703125</ele>
        <time>2022-07-27T16:40:35.000Z</time>
      </trkpt>
      <trkpt lat="42.41759019903838634490966796875" lon="2.5693056173622608184814453125">
        <ele>523</ele>
        <time>2022-07-27T16:40:36.000Z</time>
      </trkpt>
      <trkpt lat="42.4177024327218532562255859375" lon="2.5695709884166717529296875">
        <ele>523</ele>
        <time>2022-07-27T16:40:38.000Z</time>
      </trkpt>
      <trkpt lat="42.4177882634103298187255859375" lon="2.56985471583902835845947265625">
        <ele>522.5999755859375</ele>
        <time>2022-07-27T16:40:40.000Z</time>
      </trkpt>
      <trkpt lat="42.41781332530081272125244140625" lon="2.5701592303812503814697265625">
        <ele>522.20001220703125</ele>
        <time>2022-07-27T16:40:42.000Z</time>
      </trkpt>
      <trkpt lat="42.41780879907310009002685546875" lon="2.57031463086605072021484375">
        <ele>521.4000244140625</ele>
        <time>2022-07-27T16:40:43.000Z</time>
      </trkpt>
      <trkpt lat="42.41781215183436870574951171875" lon="2.5704673491418361663818359375">
        <ele>520.20001220703125</ele>
        <time>2022-07-27T16:40:44.000Z</time>
      </trkpt>
      <trkpt lat="42.41787702776491641998291015625" lon="2.570764906704425811767578125">
        <ele>519</ele>
        <time>2022-07-27T16:40:46.000Z</time>
      </trkpt>
      <trkpt lat="42.41809579543769359588623046875" lon="2.57113781757652759552001953125">
        <ele>518</ele>
        <time>2022-07-27T16:40:49.000Z</time>
      </trkpt>
      <trkpt lat="42.41817735135555267333984375" lon="2.5712518952786922454833984375">
        <ele>517.4000244140625</ele>
        <time>2022-07-27T16:40:50.000Z</time>
      </trkpt>
      <trkpt lat="42.41825454868376255035400390625" lon="2.5713689066469669342041015625">
        <ele>516.79998779296875</ele>
        <time>2022-07-27T16:40:51.000Z</time>
      </trkpt>
      <trkpt lat="42.4183280579745769500732421875" lon="2.57148818112909793853759765625">
        <ele>516.4000244140625</ele>
        <time>2022-07-27T16:40:52.000Z</time>
      </trkpt>
      <trkpt lat="42.41840399801731109619140625" lon="2.571604438126087188720703125">
        <ele>515.5999755859375</ele>
        <time>2022-07-27T16:40:53.000Z</time>
      </trkpt>
      <trkpt lat="42.41848555393517017364501953125" lon="2.571709714829921722412109375">
        <ele>514.79998779296875</ele>
        <time>2022-07-27T16:40:54.000Z</time>
      </trkpt>
      <trkpt lat="42.41866827942430973052978515625" lon="2.57186352275311946868896484375">
        <ele>513.4000244140625</ele>
        <time>2022-07-27T16:40:56.000Z</time>
      </trkpt>
      <trkpt lat="42.41887564770877361297607421875" lon="2.57189403288066387176513671875">
        <ele>512.5999755859375</ele>
        <time>2022-07-27T16:40:58.000Z</time>
      </trkpt>
      <trkpt lat="42.418985702097415924072265625" lon="2.5718547217547893524169921875">
        <ele>512.4000244140625</ele>
        <time>2022-07-27T16:40:59.000Z</time>
      </trkpt>
      <trkpt lat="42.4191917292773723602294921875" lon="2.5717236287891864776611328125">
        <ele>511.79998779296875</ele>
        <time>2022-07-27T16:41:01.000Z</time>
      </trkpt>
      <trkpt lat="42.41940320469439029693603515625" lon="2.5715995766222476959228515625">
        <ele>511.399993896484375</ele>
        <time>2022-07-27T16:41:03.000Z</time>
      </trkpt>
      <trkpt lat="42.41951418109238147735595703125" lon="2.57158054970204830169677734375">
        <ele>511.20001220703125</ele>
        <time>2022-07-27T16:41:04.000Z</time>
      </trkpt>
      <trkpt lat="42.419733367860317230224609375" lon="2.57165431044995784759521484375">
        <ele>510.79998779296875</ele>
        <time>2022-07-27T16:41:06.000Z</time>
      </trkpt>
      <trkpt lat="42.41989706642925739288330078125" lon="2.5718698091804981231689453125">
        <ele>510.20001220703125</ele>
        <time>2022-07-27T16:41:08.000Z</time>
      </trkpt>
      <trkpt lat="42.41995875723659992218017578125" lon="2.57200048305094242095947265625">
        <ele>510</ele>
        <time>2022-07-27T16:41:09.000Z</time>
      </trkpt>
      <trkpt lat="42.42002346552908420562744140625" lon="2.57212704978883266448974609375">
        <ele>509.79998779296875</ele>
        <time>2022-07-27T16:41:10.000Z</time>
      </trkpt>
      <trkpt lat="42.4201883375644683837890625" lon="2.57233458571135997772216796875">
        <ele>508.79998779296875</ele>
        <time>2022-07-27T16:41:12.000Z</time>
      </trkpt>
      <trkpt lat="42.42038489319384098052978515625" lon="2.57247087545692920684814453125">
        <ele>507.79998779296875</ele>
        <time>2022-07-27T16:41:14.000Z</time>
      </trkpt>
      <trkpt lat="42.4204848892986774444580078125" lon="2.57254010997712612152099609375">
        <ele>507.399993896484375</ele>
        <time>2022-07-27T16:41:15.000Z</time>
      </trkpt>
      <trkpt lat="42.42058220319449901580810546875" lon="2.5726248510181903839111328125">
        <ele>507</ele>
        <time>2022-07-27T16:41:16.000Z</time>
      </trkpt>
      <trkpt lat="42.42073844186961650848388671875" lon="2.5728501565754413604736328125">
        <ele>506.600006103515625</ele>
        <time>2022-07-27T16:41:18.000Z</time>
      </trkpt>
      <trkpt lat="42.42079812102019786834716796875" lon="2.572985775768756866455078125">
        <ele>506.20001220703125</ele>
        <time>2022-07-27T16:41:19.000Z</time>
      </trkpt>
      <trkpt lat="42.42085277102887630462646484375" lon="2.573125921189785003662109375">
        <ele>505.79998779296875</ele>
        <time>2022-07-27T16:41:20.000Z</time>
      </trkpt>
      <trkpt lat="42.42090255953371524810791015625" lon="2.57327101193368434906005859375">
        <ele>505.20001220703125</ele>
        <time>2022-07-27T16:41:21.000Z</time>
      </trkpt>
      <trkpt lat="42.420949079096317291259765625" lon="2.573419623076915740966796875">
        <ele>505</ele>
        <time>2022-07-27T16:41:22.000Z</time>
      </trkpt>
      <trkpt lat="42.42111244238913059234619140625" lon="2.5740276463329792022705078125">
        <ele>504</ele>
        <time>2022-07-27T16:41:26.000Z</time>
      </trkpt>
      <trkpt lat="42.421158961951732635498046875" lon="2.57417407818138599395751953125">
        <ele>503.79998779296875</ele>
        <time>2022-07-27T16:41:27.000Z</time>
      </trkpt>
      <trkpt lat="42.4212302081286907196044921875" lon="2.574301399290561676025390625">
        <ele>503.399993896484375</ele>
        <time>2022-07-27T16:41:28.000Z</time>
      </trkpt>
      <trkpt lat="42.42131955921649932861328125" lon="2.57440231740474700927734375">
        <ele>502.79998779296875</ele>
        <time>2022-07-27T16:41:29.000Z</time>
      </trkpt>
      <trkpt lat="42.4214213155210018157958984375" lon="2.5744668580591678619384765625">
        <ele>502.399993896484375</ele>
        <time>2022-07-27T16:41:30.000Z</time>
      </trkpt>
      <trkpt lat="42.4216372333467006683349609375" lon="2.57450331933796405792236328125">
        <ele>501.399993896484375</ele>
        <time>2022-07-27T16:41:32.000Z</time>
      </trkpt>
      <trkpt lat="42.42174779064953327178955078125" lon="2.57450097240507602691650390625">
        <ele>501</ele>
        <time>2022-07-27T16:41:33.000Z</time>
      </trkpt>
      <trkpt lat="42.42186605930328369140625" lon="2.57449351251125335693359375">
        <ele>500.399993896484375</ele>
        <time>2022-07-27T16:41:34.000Z</time>
      </trkpt>
      <trkpt lat="42.42211424745619297027587890625" lon="2.57449108175933361053466796875">
        <ele>499.399993896484375</ele>
        <time>2022-07-27T16:41:36.000Z</time>
      </trkpt>
      <trkpt lat="42.42223947308957576751708984375" lon="2.5745080970227718353271484375">
        <ele>499</ele>
        <time>2022-07-27T16:41:37.000Z</time>
      </trkpt>
      <trkpt lat="42.422360591590404510498046875" lon="2.57455386221408843994140625">
        <ele>498</ele>
        <time>2022-07-27T16:41:38.000Z</time>
      </trkpt>
      <trkpt lat="42.42247718386352062225341796875" lon="2.57462686859071254730224609375">
        <ele>497.20001220703125</ele>
        <time>2022-07-27T16:41:39.000Z</time>
      </trkpt>
      <trkpt lat="42.42258430458605289459228515625" lon="2.574719823896884918212890625">
        <ele>496.600006103515625</ele>
        <time>2022-07-27T16:41:40.000Z</time>
      </trkpt>
      <trkpt lat="42.42288865149021148681640625" lon="2.57500581443309783935546875">
        <ele>495.399993896484375</ele>
        <time>2022-07-27T16:41:43.000Z</time>
      </trkpt>
      <trkpt lat="42.422985546290874481201171875" lon="2.575096674263477325439453125">
        <ele>494.600006103515625</ele>
        <time>2022-07-27T16:41:44.000Z</time>
      </trkpt>
      <trkpt lat="42.42307850159704685211181640625" lon="2.57518820464611053466796875">
        <ele>493.20001220703125</ele>
        <time>2022-07-27T16:41:45.000Z</time>
      </trkpt>
      <trkpt lat="42.4232586286962032318115234375" lon="2.5753721036016941070556640625">
        <ele>492.20001220703125</ele>
        <time>2022-07-27T16:41:47.000Z</time>
      </trkpt>
      <trkpt lat="42.42343774996697902679443359375" lon="2.5755384005606174468994140625">
        <ele>491</ele>
        <time>2022-07-27T16:41:49.000Z</time>
      </trkpt>
      <trkpt lat="42.42353104054927825927734375" lon="2.57559799589216709136962890625">
        <ele>490.399993896484375</ele>
        <time>2022-07-27T16:41:50.000Z</time>
      </trkpt>
      <trkpt lat="42.42363036610186100006103515625" lon="2.575631774961948394775390625">
        <ele>490</ele>
        <time>2022-07-27T16:41:51.000Z</time>
      </trkpt>
      <trkpt lat="42.42383035831153392791748046875" lon="2.57564376108348369598388671875">
        <ele>489.600006103515625</ele>
        <time>2022-07-27T16:41:53.000Z</time>
      </trkpt>
      <trkpt lat="42.4239278398454189300537109375" lon="2.575631104409694671630859375">
        <ele>489.399993896484375</ele>
        <time>2022-07-27T16:41:54.000Z</time>
      </trkpt>
      <trkpt lat="42.42432589642703533172607421875" lon="2.57558307610452175140380859375">
        <ele>489.600006103515625</ele>
        <time>2022-07-27T16:41:58.000Z</time>
      </trkpt>
      <trkpt lat="42.42442513816058635711669921875" lon="2.57559120655059814453125">
        <ele>489.600006103515625</ele>
        <time>2022-07-27T16:41:59.000Z</time>
      </trkpt>
      <trkpt lat="42.42462965659797191619873046875" lon="2.57562599144876003265380859375">
        <ele>489.600006103515625</ele>
        <time>2022-07-27T16:42:01.000Z</time>
      </trkpt>
      <trkpt lat="42.4247185885906219482421875" lon="2.57568416185677051544189453125">
        <ele>489.600006103515625</ele>
        <time>2022-07-27T16:42:02.000Z</time>
      </trkpt>
      <trkpt lat="42.42483794689178466796875" lon="2.575894631445407867431640625">
        <ele>489.79998779296875</ele>
        <time>2022-07-27T16:42:04.000Z</time>
      </trkpt>
      <trkpt lat="42.424876503646373748779296875" lon="2.5763045065104961395263671875">
        <ele>490.399993896484375</ele>
        <time>2022-07-27T16:42:07.000Z</time>
      </trkpt>
      <trkpt lat="42.4248367734253406524658203125" lon="2.57658169604837894439697265625">
        <ele>490.399993896484375</ele>
        <time>2022-07-27T16:42:09.000Z</time>
      </trkpt>
      <trkpt lat="42.42479008622467517852783203125" lon="2.5768531858921051025390625">
        <ele>490.399993896484375</ele>
        <time>2022-07-27T16:42:11.000Z</time>
      </trkpt>
      <trkpt lat="42.4246674589812755584716796875" lon="2.57754611782729625701904296875">
        <ele>489.79998779296875</ele>
        <time>2022-07-27T16:42:16.000Z</time>
      </trkpt>
      <trkpt lat="42.42458724416792392730712890625" lon="2.57781920023262500762939453125">
        <ele>488.600006103515625</ele>
        <time>2022-07-27T16:42:18.000Z</time>
      </trkpt>
      <trkpt lat="42.42447526194155216217041015625" lon="2.5780761055648326873779296875">
        <ele>487.79998779296875</ele>
        <time>2022-07-27T16:42:20.000Z</time>
      </trkpt>
      <trkpt lat="42.4244082905352115631103515625" lon="2.5781937874853610992431640625">
        <ele>487.600006103515625</ele>
        <time>2022-07-27T16:42:21.000Z</time>
      </trkpt>
      <trkpt lat="42.4241821467876434326171875" lon="2.5785169936716556549072265625">
        <ele>486.399993896484375</ele>
        <time>2022-07-27T16:42:24.000Z</time>
      </trkpt>
      <trkpt lat="42.42402867414057254791259765625" lon="2.57873534224927425384521484375">
        <ele>485.20001220703125</ele>
        <time>2022-07-27T16:42:26.000Z</time>
      </trkpt>
      <trkpt lat="42.42388769052922725677490234375" lon="2.57897724397480487823486328125">
        <ele>484.20001220703125</ele>
        <time>2022-07-27T16:42:28.000Z</time>
      </trkpt>
      <trkpt lat="42.4238289333879947662353515625" lon="2.57911152206361293792724609375">
        <ele>483.600006103515625</ele>
        <time>2022-07-27T16:42:29.000Z</time>
      </trkpt>
      <trkpt lat="42.42378107272088527679443359375" lon="2.57925418205559253692626953125">
        <ele>482.79998779296875</ele>
        <time>2022-07-27T16:42:30.000Z</time>
      </trkpt>
      <trkpt lat="42.4237253330647945404052734375" lon="2.579562552273273468017578125">
        <ele>482</ele>
        <time>2022-07-27T16:42:32.000Z</time>
      </trkpt>
      <trkpt lat="42.42372457869350910186767578125" lon="2.57972122170031070709228515625">
        <ele>481.79998779296875</ele>
        <time>2022-07-27T16:42:33.000Z</time>
      </trkpt>
      <trkpt lat="42.4237917177379131317138671875" lon="2.5800213776528835296630859375">
        <ele>481</ele>
        <time>2022-07-27T16:42:35.000Z</time>
      </trkpt>
      <trkpt lat="42.42384829558432102203369140625" lon="2.58016982115805149078369140625">
        <ele>480.79998779296875</ele>
        <time>2022-07-27T16:42:36.000Z</time>
      </trkpt>
      <trkpt lat="42.42390428669750690460205078125" lon="2.58031767792999744415283203125">
        <ele>480.600006103515625</ele>
        <time>2022-07-27T16:42:37.000Z</time>
      </trkpt>
      <trkpt lat="42.4239476211369037628173828125" lon="2.5804679654538631439208984375">
        <ele>480.20001220703125</ele>
        <time>2022-07-27T16:42:38.000Z</time>
      </trkpt>
      <trkpt lat="42.42396958172321319580078125" lon="2.58062370121479034423828125">
        <ele>480</ele>
        <time>2022-07-27T16:42:39.000Z</time>
      </trkpt>
      <trkpt lat="42.4239680729806423187255859375" lon="2.58078237064182758331298828125">
        <ele>479.399993896484375</ele>
        <time>2022-07-27T16:42:40.000Z</time>
      </trkpt>
      <trkpt lat="42.42395424284040927886962890625" lon="2.58110381662845611572265625">
        <ele>477.79998779296875</ele>
        <time>2022-07-27T16:42:42.000Z</time>
      </trkpt>
      <trkpt lat="42.423960529267787933349609375" lon="2.581261731684207916259765625">
        <ele>477.399993896484375</ele>
        <time>2022-07-27T16:42:43.000Z</time>
      </trkpt>
      <trkpt lat="42.42401249706745147705078125" lon="2.58156456984579563140869140625">
        <ele>476.79998779296875</ele>
        <time>2022-07-27T16:42:45.000Z</time>
      </trkpt>
      <trkpt lat="42.42405683733522891998291015625" lon="2.58170689456164836883544921875">
        <ele>476.600006103515625</ele>
        <time>2022-07-27T16:42:46.000Z</time>
      </trkpt>
      <trkpt lat="42.4241216294467449188232421875" lon="2.58200596086680889129638671875">
        <ele>476.600006103515625</ele>
        <time>2022-07-27T16:42:48.000Z</time>
      </trkpt>
      <trkpt lat="42.42408231832087039947509765625" lon="2.58228935301303863525390625">
        <ele>476.20001220703125</ele>
        <time>2022-07-27T16:42:50.000Z</time>
      </trkpt>
      <trkpt lat="42.4240190349519252777099609375" lon="2.58240024559199810028076171875">
        <ele>475.399993896484375</ele>
        <time>2022-07-27T16:42:51.000Z</time>
      </trkpt>
      <trkpt lat="42.4239315278828144073486328125" lon="2.5824724137783050537109375">
        <ele>474.399993896484375</ele>
        <time>2022-07-27T16:42:52.000Z</time>
      </trkpt>
      <trkpt lat="42.4238359741866588592529296875" lon="2.5825233757495880126953125">
        <ele>473.79998779296875</ele>
        <time>2022-07-27T16:42:53.000Z</time>
      </trkpt>
      <trkpt lat="42.42374368943274021148681640625" lon="2.58258766494691371917724609375">
        <ele>473.600006103515625</ele>
        <time>2022-07-27T16:42:54.000Z</time>
      </trkpt>
      <trkpt lat="42.4235630594193935394287109375" lon="2.58275547064840793609619140625">
        <ele>473.20001220703125</ele>
        <time>2022-07-27T16:42:56.000Z</time>
      </trkpt>
      <trkpt lat="42.42348049767315387725830078125" lon="2.58284867741167545318603515625">
        <ele>473</ele>
        <time>2022-07-27T16:42:57.000Z</time>
      </trkpt>
      <trkpt lat="42.4234069883823394775390625" lon="2.58295361883938312530517578125">
        <ele>472.79998779296875</ele>
        <time>2022-07-27T16:42:58.000Z</time>
      </trkpt>
      <trkpt lat="42.42333926260471343994140625" lon="2.58306442759931087493896484375">
        <ele>472.79998779296875</ele>
        <time>2022-07-27T16:42:59.000Z</time>
      </trkpt>
      <trkpt lat="42.423142455518245697021484375" lon="2.583404816687107086181640625">
        <ele>472.399993896484375</ele>
        <time>2022-07-27T16:43:02.000Z</time>
      </trkpt>
      <trkpt lat="42.4230648390948772430419921875" lon="2.58350850082933902740478515625">
        <ele>472.20001220703125</ele>
        <time>2022-07-27T16:43:03.000Z</time>
      </trkpt>
      <trkpt lat="42.42290608584880828857421875" lon="2.58370220661163330078125">
        <ele>472</ele>
        <time>2022-07-27T16:43:05.000Z</time>
      </trkpt>
      <trkpt lat="42.42278245277702808380126953125" lon="2.5839288532733917236328125">
        <ele>471.79998779296875</ele>
        <time>2022-07-27T16:43:07.000Z</time>
      </trkpt>
      <trkpt lat="42.42269310168921947479248046875" lon="2.5843377225100994110107421875">
        <ele>471.20001220703125</ele>
        <time>2022-07-27T16:43:10.000Z</time>
      </trkpt>
      <trkpt lat="42.42264163680374622344970703125" lon="2.5846181809902191162109375">
        <ele>470.79998779296875</ele>
        <time>2022-07-27T16:43:12.000Z</time>
      </trkpt>
      <trkpt lat="42.422583885490894317626953125" lon="2.5850411318242549896240234375">
        <ele>469.600006103515625</ele>
        <time>2022-07-27T16:43:15.000Z</time>
      </trkpt>
      <trkpt lat="42.42259897291660308837890625" lon="2.58517918176949024200439453125">
        <ele>469.20001220703125</ele>
        <time>2022-07-27T16:43:16.000Z</time>
      </trkpt>
      <trkpt lat="42.42269955575466156005859375" lon="2.585427202284336090087890625">
        <ele>468.399993896484375</ele>
        <time>2022-07-27T16:43:18.000Z</time>
      </trkpt>
      <trkpt lat="42.42296467535197734832763671875" lon="2.585670612752437591552734375">
        <ele>467.79998779296875</ele>
        <time>2022-07-27T16:43:21.000Z</time>
      </trkpt>
      <trkpt lat="42.4230577982962131500244140625" lon="2.585747726261615753173828125">
        <ele>467.600006103515625</ele>
        <time>2022-07-27T16:43:22.000Z</time>
      </trkpt>
      <trkpt lat="42.4232244305312633514404296875" lon="2.5859490595757961273193359375">
        <ele>467.20001220703125</ele>
        <time>2022-07-27T16:43:24.000Z</time>
      </trkpt>
      <trkpt lat="42.42353648878633975982666015625" lon="2.58638030849397182464599609375">
        <ele>466.20001220703125</ele>
        <time>2022-07-27T16:43:28.000Z</time>
      </trkpt>
      <trkpt lat="42.42362952791154384613037109375" lon="2.5864506326615810394287109375">
        <ele>465.600006103515625</ele>
        <time>2022-07-27T16:43:29.000Z</time>
      </trkpt>
      <trkpt lat="42.42372893728315830230712890625" lon="2.586503438651561737060546875">
        <ele>465.20001220703125</ele>
        <time>2022-07-27T16:43:30.000Z</time>
      </trkpt>
      <trkpt lat="42.4238255806267261505126953125" lon="2.5865666382014751434326171875">
        <ele>464.399993896484375</ele>
        <time>2022-07-27T16:43:31.000Z</time>
      </trkpt>
      <trkpt lat="42.4239147640764713287353515625" lon="2.586652971804141998291015625">
        <ele>464</ele>
        <time>2022-07-27T16:43:32.000Z</time>
      </trkpt>
      <trkpt lat="42.4239965714514255523681640625" lon="2.586757242679595947265625">
        <ele>463.600006103515625</ele>
        <time>2022-07-27T16:43:33.000Z</time>
      </trkpt>
      <trkpt lat="42.42415775544941425323486328125" lon="2.58697726763784885406494140625">
        <ele>462.79998779296875</ele>
        <time>2022-07-27T16:43:35.000Z</time>
      </trkpt>
      <trkpt lat="42.42434198968112468719482421875" lon="2.58716787211596965789794921875">
        <ele>462.20001220703125</ele>
        <time>2022-07-27T16:43:37.000Z</time>
      </trkpt>
      <trkpt lat="42.42442882619798183441162109375" lon="2.5872727297246456146240234375">
        <ele>462</ele>
        <time>2022-07-27T16:43:38.000Z</time>
      </trkpt>
      <trkpt lat="42.42449663579463958740234375" lon="2.58740164339542388916015625">
        <ele>461.79998779296875</ele>
        <time>2022-07-27T16:43:39.000Z</time>
      </trkpt>
      <trkpt lat="42.4245517887175083160400390625" lon="2.58754455484449863433837890625">
        <ele>461.600006103515625</ele>
        <time>2022-07-27T16:43:40.000Z</time>
      </trkpt>
      <trkpt lat="42.42470459081232547760009765625" lon="2.58798544295132160186767578125">
        <ele>460.79998779296875</ele>
        <time>2022-07-27T16:43:43.000Z</time>
      </trkpt>
      <trkpt lat="42.4247452430427074432373046875" lon="2.58813899941742420196533203125">
        <ele>460.600006103515625</ele>
        <time>2022-07-27T16:43:44.000Z</time>
      </trkpt>
      <trkpt lat="42.42477416060864925384521484375" lon="2.588297836482524871826171875">
        <ele>460.20001220703125</ele>
        <time>2022-07-27T16:43:45.000Z</time>
      </trkpt>
      <trkpt lat="42.42482529021799564361572265625" lon="2.58861559443175792694091796875">
        <ele>459.399993896484375</ele>
        <time>2022-07-27T16:43:47.000Z</time>
      </trkpt>
      <trkpt lat="42.42492168210446834564208984375" lon="2.58906721137464046478271484375">
        <ele>458.399993896484375</ele>
        <time>2022-07-27T16:43:50.000Z</time>
      </trkpt>
      <trkpt lat="42.424967698752880096435546875" lon="2.5892052613198757171630859375">
        <ele>458.20001220703125</ele>
        <time>2022-07-27T16:43:51.000Z</time>
      </trkpt>
      <trkpt lat="42.425094433128833770751953125" lon="2.58944909088313579559326171875">
        <ele>457.20001220703125</ele>
        <time>2022-07-27T16:43:53.000Z</time>
      </trkpt>
      <trkpt lat="42.42527875117957592010498046875" lon="2.5895963609218597412109375">
        <ele>455.79998779296875</ele>
        <time>2022-07-27T16:43:55.000Z</time>
      </trkpt>
      <trkpt lat="42.4254764802753925323486328125" lon="2.58961589075624942779541015625">
        <ele>454.399993896484375</ele>
        <time>2022-07-27T16:43:57.000Z</time>
      </trkpt>
      <trkpt lat="42.42558049969375133514404296875" lon="2.58960180915892124176025390625">
        <ele>454</ele>
        <time>2022-07-27T16:43:58.000Z</time>
      </trkpt>
      <trkpt lat="42.42589540779590606689453125" lon="2.58955956436693668365478515625">
        <ele>453.20001220703125</ele>
        <time>2022-07-27T16:44:01.000Z</time>
      </trkpt>
      <trkpt lat="42.42600403726100921630859375" lon="2.58955822326242923736572265625">
        <ele>452.79998779296875</ele>
        <time>2022-07-27T16:44:02.000Z</time>
      </trkpt>
      <trkpt lat="42.426330931484699249267578125" lon="2.58965478278696537017822265625">
        <ele>452.399993896484375</ele>
        <time>2022-07-27T16:44:05.000Z</time>
      </trkpt>
      <trkpt lat="42.42643855512142181396484375" lon="2.58967657573521137237548828125">
        <ele>451.79998779296875</ele>
        <time>2022-07-27T16:44:06.000Z</time>
      </trkpt>
      <trkpt lat="42.42665371857583522796630859375" lon="2.58967322297394275665283203125">
        <ele>451.399993896484375</ele>
        <time>2022-07-27T16:44:08.000Z</time>
      </trkpt>
      <trkpt lat="42.42676804773509502410888671875" lon="2.58965562097728252410888671875">
        <ele>451</ele>
        <time>2022-07-27T16:44:09.000Z</time>
      </trkpt>
      <trkpt lat="42.42688019759953022003173828125" lon="2.58963567204773426055908203125">
        <ele>450.79998779296875</ele>
        <time>2022-07-27T16:44:10.000Z</time>
      </trkpt>
      <trkpt lat="42.42720969021320343017578125" lon="2.58958286605775356292724609375">
        <ele>449.600006103515625</ele>
        <time>2022-07-27T16:44:13.000Z</time>
      </trkpt>
      <trkpt lat="42.427445389330387115478515625" lon="2.589540369808673858642578125">
        <ele>448.20001220703125</ele>
        <time>2022-07-27T16:44:15.000Z</time>
      </trkpt>
      <trkpt lat="42.42769139818847179412841796875" lon="2.589502148330211639404296875">
        <ele>447.20001220703125</ele>
        <time>2022-07-27T16:44:17.000Z</time>
      </trkpt>
      <trkpt lat="42.427814193069934844970703125" lon="2.58948463015258312225341796875">
        <ele>447</ele>
        <time>2022-07-27T16:44:18.000Z</time>
      </trkpt>
      <trkpt lat="42.4281788058578968048095703125" lon="2.58944825269281864166259765625">
        <ele>446.20001220703125</ele>
        <time>2022-07-27T16:44:21.000Z</time>
      </trkpt>
      <trkpt lat="42.42842607200145721435546875" lon="2.589457891881465911865234375">
        <ele>445.79998779296875</ele>
        <time>2022-07-27T16:44:23.000Z</time>
      </trkpt>
      <trkpt lat="42.428551129996776580810546875" lon="2.58948161266744136810302734375">
        <ele>445.600006103515625</ele>
        <time>2022-07-27T16:44:24.000Z</time>
      </trkpt>
      <trkpt lat="42.42875187657773494720458984375" lon="2.58962745778262615203857421875">
        <ele>445.399993896484375</ele>
        <time>2022-07-27T16:44:26.000Z</time>
      </trkpt>
      <trkpt lat="42.4288880825042724609375" lon="2.58988142944872379302978515625">
        <ele>444.399993896484375</ele>
        <time>2022-07-27T16:44:28.000Z</time>
      </trkpt>
      <trkpt lat="42.428918592631816864013671875" lon="2.59003867395222187042236328125">
        <ele>443.79998779296875</ele>
        <time>2022-07-27T16:44:29.000Z</time>
      </trkpt>
      <trkpt lat="42.42893007583916187286376953125" lon="2.59020446799695491790771484375">
        <ele>443.399993896484375</ele>
        <time>2022-07-27T16:44:30.000Z</time>
      </trkpt>
      <trkpt lat="42.42893845774233341217041015625" lon="2.5903720222413539886474609375">
        <ele>443</ele>
        <time>2022-07-27T16:44:31.000Z</time>
      </trkpt>
      <trkpt lat="42.42895220406353473663330078125" lon="2.59053957648575305938720703125">
        <ele>442.600006103515625</ele>
        <time>2022-07-27T16:44:32.000Z</time>
      </trkpt>
      <trkpt lat="42.42896410636603832244873046875" lon="2.59071039967238903045654296875">
        <ele>442.20001220703125</ele>
        <time>2022-07-27T16:44:33.000Z</time>
      </trkpt>
      <trkpt lat="42.428960502147674560546875" lon="2.59088306687772274017333984375">
        <ele>441.20001220703125</ele>
        <time>2022-07-27T16:44:34.000Z</time>
      </trkpt>
      <trkpt lat="42.4289301596581935882568359375" lon="2.5911860726773738861083984375">
        <ele>440.20001220703125</ele>
        <time>2022-07-27T16:44:36.000Z</time>
      </trkpt>
      <trkpt lat="42.42893845774233341217041015625" lon="2.591311633586883544921875">
        <ele>439.79998779296875</ele>
        <time>2022-07-27T16:44:37.000Z</time>
      </trkpt>
      <trkpt lat="42.42902688682079315185546875" lon="2.5915267132222652435302734375">
        <ele>438.600006103515625</ele>
        <time>2022-07-27T16:44:39.000Z</time>
      </trkpt>
      <trkpt lat="42.4290931038558483123779296875" lon="2.59160826914012432098388671875">
        <ele>437.600006103515625</ele>
        <time>2022-07-27T16:44:40.000Z</time>
      </trkpt>
      <trkpt lat="42.42917700670659542083740234375" lon="2.59164330549538135528564453125">
        <ele>436.79998779296875</ele>
        <time>2022-07-27T16:44:41.000Z</time>
      </trkpt>
      <trkpt lat="42.4292702972888946533203125" lon="2.5916286371648311614990234375">
        <ele>435.600006103515625</ele>
        <time>2022-07-27T16:44:42.000Z</time>
      </trkpt>
      <trkpt lat="42.429371215403079986572265625" lon="2.5915672816336154937744140625">
        <ele>434.20001220703125</ele>
        <time>2022-07-27T16:44:43.000Z</time>
      </trkpt>
      <trkpt lat="42.42946567945182323455810546875" lon="2.591469548642635345458984375">
        <ele>433</ele>
        <time>2022-07-27T16:44:44.000Z</time>
      </trkpt>
      <trkpt lat="42.42954664863646030426025390625" lon="2.59135580621659755706787109375">
        <ele>432</ele>
        <time>2022-07-27T16:44:45.000Z</time>
      </trkpt>
      <trkpt lat="42.4298209883272647857666015625" lon="2.591060511767864227294921875">
        <ele>431</ele>
        <time>2022-07-27T16:44:48.000Z</time>
      </trkpt>
      <trkpt lat="42.43015475571155548095703125" lon="2.59086496196687221527099609375">
        <ele>430.79998779296875</ele>
        <time>2022-07-27T16:44:51.000Z</time>
      </trkpt>
      <trkpt lat="42.43051283061504364013671875" lon="2.59079908020794391632080078125">
        <ele>430.399993896484375</ele>
        <time>2022-07-27T16:44:54.000Z</time>
      </trkpt>
      <trkpt lat="42.43063679896295070648193359375" lon="2.59079690091311931610107421875">
        <ele>430.20001220703125</ele>
        <time>2022-07-27T16:44:55.000Z</time>
      </trkpt>
      <trkpt lat="42.43101247586309909820556640625" lon="2.5907679833471775054931640625">
        <ele>428.79998779296875</ele>
        <time>2022-07-27T16:44:58.000Z</time>
      </trkpt>
      <trkpt lat="42.431136108934879302978515625" lon="2.59073805995285511016845703125">
        <ele>427.79998779296875</ele>
        <time>2022-07-27T16:44:59.000Z</time>
      </trkpt>
      <trkpt lat="42.43138580583035945892333984375" lon="2.59068257175385951995849609375">
        <ele>426.399993896484375</ele>
        <time>2022-07-27T16:45:01.000Z</time>
      </trkpt>
      <trkpt lat="42.43164128623902797698974609375" lon="2.5906586833298206329345703125">
        <ele>425</ele>
        <time>2022-07-27T16:45:03.000Z</time>
      </trkpt>
      <trkpt lat="42.4319040589034557342529296875" lon="2.5906638801097869873046875">
        <ele>423.399993896484375</ele>
        <time>2022-07-27T16:45:05.000Z</time>
      </trkpt>
      <trkpt lat="42.43217672221362590789794921875" lon="2.5906972400844097137451171875">
        <ele>421.600006103515625</ele>
        <time>2022-07-27T16:45:07.000Z</time>
      </trkpt>
      <trkpt lat="42.43258458562195301055908203125" lon="2.5907113216817378997802734375">
        <ele>420.600006103515625</ele>
        <time>2022-07-27T16:45:10.000Z</time>
      </trkpt>
      <trkpt lat="42.4327241443097591400146484375" lon="2.59069330058991909027099609375">
        <ele>420.399993896484375</ele>
        <time>2022-07-27T16:45:11.000Z</time>
      </trkpt>
      <trkpt lat="42.432989180088043212890625" lon="2.59068542160093784332275390625">
        <ele>419.399993896484375</ele>
        <time>2022-07-27T16:45:13.000Z</time>
      </trkpt>
      <trkpt lat="42.43310862220823764801025390625" lon="2.59071492590010166168212890625">
        <ele>418.79998779296875</ele>
        <time>2022-07-27T16:45:14.000Z</time>
      </trkpt>
      <trkpt lat="42.43321381509304046630859375" lon="2.59078315459191799163818359375">
        <ele>417.79998779296875</ele>
        <time>2022-07-27T16:45:15.000Z</time>
      </trkpt>
      <trkpt lat="42.43329486809670925140380859375" lon="2.5908930413424968719482421875">
        <ele>417.20001220703125</ele>
        <time>2022-07-27T16:45:16.000Z</time>
      </trkpt>
      <trkpt lat="42.43334700353443622589111328125" lon="2.59103737771511077880859375">
        <ele>416.79998779296875</ele>
        <time>2022-07-27T16:45:17.000Z</time>
      </trkpt>
      <trkpt lat="42.433379106223583221435546875" lon="2.59119638241827487945556640625">
        <ele>416.399993896484375</ele>
        <time>2022-07-27T16:45:18.000Z</time>
      </trkpt>
      <trkpt lat="42.4333668686449527740478515625" lon="2.5915307365357875823974609375">
        <ele>416</ele>
        <time>2022-07-27T16:45:20.000Z</time>
      </trkpt>
      <trkpt lat="42.4332927726209163665771484375" lon="2.59184882976114749908447265625">
        <ele>415.79998779296875</ele>
        <time>2022-07-27T16:45:22.000Z</time>
      </trkpt>
      <trkpt lat="42.43320635519921779632568359375" lon="2.5921590439975261688232421875">
        <ele>415.399993896484375</ele>
        <time>2022-07-27T16:45:24.000Z</time>
      </trkpt>
      <trkpt lat="42.43312890641391277313232421875" lon="2.59245970286428928375244140625">
        <ele>414.79998779296875</ele>
        <time>2022-07-27T16:45:26.000Z</time>
      </trkpt>
      <trkpt lat="42.433119602501392364501953125" lon="2.5927689112722873687744140625">
        <ele>413.600006103515625</ele>
        <time>2022-07-27T16:45:28.000Z</time>
      </trkpt>
      <trkpt lat="42.43315187282860279083251953125" lon="2.59291970171034336090087890625">
        <ele>411</ele>
        <time>2022-07-27T16:45:29.000Z</time>
      </trkpt>
      <trkpt lat="42.43319830857217311859130859375" lon="2.59306504391133785247802734375">
        <ele>409.79998779296875</ele>
        <time>2022-07-27T16:45:30.000Z</time>
      </trkpt>
      <trkpt lat="42.43325270712375640869140625" lon="2.59320552460849285125732421875">
        <ele>409.20001220703125</ele>
        <time>2022-07-27T16:45:31.000Z</time>
      </trkpt>
      <trkpt lat="42.4333071894943714141845703125" lon="2.5933556444942951202392578125">
        <ele>408.79998779296875</ele>
        <time>2022-07-27T16:45:32.000Z</time>
      </trkpt>
      <trkpt lat="42.43342679925262928009033203125" lon="2.59364205412566661834716796875">
        <ele>408.399993896484375</ele>
        <time>2022-07-27T16:45:34.000Z</time>
      </trkpt>
      <trkpt lat="42.4335687048733234405517578125" lon="2.59391128085553646087646484375">
        <ele>408.399993896484375</ele>
        <time>2022-07-27T16:45:36.000Z</time>
      </trkpt>
      <trkpt lat="42.43371329270303249359130859375" lon="2.59418134577572345733642578125">
        <ele>407.399993896484375</ele>
        <time>2022-07-27T16:45:38.000Z</time>
      </trkpt>
      <trkpt lat="42.43378512561321258544921875" lon="2.594316713511943817138671875">
        <ele>406.20001220703125</ele>
        <time>2022-07-27T16:45:39.000Z</time>
      </trkpt>
      <trkpt lat="42.4339294619858264923095703125" lon="2.5945924781262874603271484375">
        <ele>405</ele>
        <time>2022-07-27T16:45:41.000Z</time>
      </trkpt>
      <trkpt lat="42.4341540969908237457275390625" lon="2.5950052030384540557861328125">
        <ele>404</ele>
        <time>2022-07-27T16:45:44.000Z</time>
      </trkpt>
      <trkpt lat="42.4343089945614337921142578125" lon="2.59525439701974391937255859375">
        <ele>403</ele>
        <time>2022-07-27T16:45:46.000Z</time>
      </trkpt>
      <trkpt lat="42.43440228514373302459716796875" lon="2.5953421555459499359130859375">
        <ele>402.399993896484375</ele>
        <time>2022-07-27T16:45:47.000Z</time>
      </trkpt>
      <trkpt lat="42.4345027841627597808837890625" lon="2.5953941233456134796142578125">
        <ele>401.79998779296875</ele>
        <time>2022-07-27T16:45:48.000Z</time>
      </trkpt>
      <trkpt lat="42.4346067197620868682861328125" lon="2.59539890103042125701904296875">
        <ele>401.20001220703125</ele>
        <time>2022-07-27T16:45:49.000Z</time>
      </trkpt>
      <trkpt lat="42.4347867630422115325927734375" lon="2.595282979309558868408203125">
        <ele>400.600006103515625</ele>
        <time>2022-07-27T16:45:51.000Z</time>
      </trkpt>
      <trkpt lat="42.43494912050664424896240234375" lon="2.595088183879852294921875">
        <ele>399.600006103515625</ele>
        <time>2022-07-27T16:45:53.000Z</time>
      </trkpt>
      <trkpt lat="42.4350338615477085113525390625" lon="2.59499807842075824737548828125">
        <ele>399.20001220703125</ele>
        <time>2022-07-27T16:45:54.000Z</time>
      </trkpt>
      <trkpt lat="42.43511977605521678924560546875" lon="2.59491576813161373138427734375">
        <ele>398.79998779296875</ele>
        <time>2022-07-27T16:45:55.000Z</time>
      </trkpt>
      <trkpt lat="42.4352784454822540283203125" lon="2.59474980644881725311279296875">
        <ele>398</ele>
        <time>2022-07-27T16:45:57.000Z</time>
      </trkpt>
      <trkpt lat="42.43541616015136241912841796875" lon="2.59455434046685695648193359375">
        <ele>397.20001220703125</ele>
        <time>2022-07-27T16:45:59.000Z</time>
      </trkpt>
      <trkpt lat="42.43560659699141979217529296875" lon="2.59428712539374828338623046875">
        <ele>397</ele>
        <time>2022-07-27T16:46:02.000Z</time>
      </trkpt>
      <trkpt lat="42.4356792680919170379638671875" lon="2.59421571157872676849365234375">
        <ele>397</ele>
        <time>2022-07-27T16:46:03.000Z</time>
      </trkpt>
      <trkpt lat="42.43592427112162113189697265625" lon="2.59406425058841705322265625">
        <ele>397</ele>
        <time>2022-07-27T16:46:06.000Z</time>
      </trkpt>
      <trkpt lat="42.43601043708622455596923828125" lon="2.59402192197740077972412109375">
        <ele>397</ele>
        <time>2022-07-27T16:46:07.000Z</time>
      </trkpt>
      <trkpt lat="42.43652039207518100738525390625" lon="2.593755461275577545166015625">
        <ele>397</ele>
        <time>2022-07-27T16:46:13.000Z</time>
      </trkpt>
      <trkpt lat="42.43668870069086551666259765625" lon="2.59367055259644985198974609375">
        <ele>396.79998779296875</ele>
        <time>2022-07-27T16:46:15.000Z</time>
      </trkpt>
      <trkpt lat="42.4371497891843318939208984375" lon="2.593441307544708251953125">
        <ele>396.20001220703125</ele>
        <time>2022-07-27T16:46:20.000Z</time>
      </trkpt>
      <trkpt lat="42.43762881495058536529541015625" lon="2.59323217906057834625244140625">
        <ele>394.600006103515625</ele>
        <time>2022-07-27T16:46:25.000Z</time>
      </trkpt>
      <trkpt lat="42.4377326667308807373046875" lon="2.5932131521403789520263671875">
        <ele>394</ele>
        <time>2022-07-27T16:46:26.000Z</time>
      </trkpt>
      <trkpt lat="42.43793341331183910369873046875" lon="2.59321340359747409820556640625">
        <ele>393.20001220703125</ele>
        <time>2022-07-27T16:46:28.000Z</time>
      </trkpt>
      <trkpt lat="42.4380372650921344757080078125" lon="2.5932238809764385223388671875">
        <ele>392.79998779296875</ele>
        <time>2022-07-27T16:46:29.000Z</time>
      </trkpt>
      <trkpt lat="42.4381391890347003936767578125" lon="2.59323737584054470062255859375">
        <ele>392.399993896484375</ele>
        <time>2022-07-27T16:46:30.000Z</time>
      </trkpt>
      <trkpt lat="42.43865677155554294586181640625" lon="2.5933382101356983184814453125">
        <ele>391.399993896484375</ele>
        <time>2022-07-27T16:46:35.000Z</time>
      </trkpt>
      <trkpt lat="42.4387617968022823333740234375" lon="2.59337768889963626861572265625">
        <ele>391.399993896484375</ele>
        <time>2022-07-27T16:46:36.000Z</time>
      </trkpt>
      <trkpt lat="42.43904518894851207733154296875" lon="2.593622021377086639404296875">
        <ele>390.399993896484375</ele>
        <time>2022-07-27T16:46:39.000Z</time>
      </trkpt>
      <trkpt lat="42.439125068485736846923828125" lon="2.5937392003834247589111328125">
        <ele>390.20001220703125</ele>
        <time>2022-07-27T16:46:40.000Z</time>
      </trkpt>
      <trkpt lat="42.43924434296786785125732421875" lon="2.594017647206783294677734375">
        <ele>390</ele>
        <time>2022-07-27T16:46:42.000Z</time>
      </trkpt>
      <trkpt lat="42.4393393099308013916015625" lon="2.59448845870792865753173828125">
        <ele>389.399993896484375</ele>
        <time>2022-07-27T16:46:45.000Z</time>
      </trkpt>
      <trkpt lat="42.43936546146869659423828125" lon="2.59465039707720279693603515625">
        <ele>388.79998779296875</ele>
        <time>2022-07-27T16:46:46.000Z</time>
      </trkpt>
      <trkpt lat="42.43943377397954463958740234375" lon="2.59496212005615234375">
        <ele>386.600006103515625</ele>
        <time>2022-07-27T16:46:48.000Z</time>
      </trkpt>
      <trkpt lat="42.43951742537319660186767578125" lon="2.5952647067606449127197265625">
        <ele>385.20001220703125</ele>
        <time>2022-07-27T16:46:50.000Z</time>
      </trkpt>
      <trkpt lat="42.4395610950887203216552734375" lon="2.5954152457416057586669921875">
        <ele>384.79998779296875</ele>
        <time>2022-07-27T16:46:51.000Z</time>
      </trkpt>
      <trkpt lat="42.43964868597686290740966796875" lon="2.5957136414945125579833984375">
        <ele>383.79998779296875</ele>
        <time>2022-07-27T16:46:53.000Z</time>
      </trkpt>
      <trkpt lat="42.43977491743862628936767578125" lon="2.59615159593522548675537109375">
        <ele>382.79998779296875</ele>
        <time>2022-07-27T16:46:56.000Z</time>
      </trkpt>
      <trkpt lat="42.43984448723495006561279296875" lon="2.59644412435591220855712890625">
        <ele>382.600006103515625</ele>
        <time>2022-07-27T16:46:58.000Z</time>
      </trkpt>
      <trkpt lat="42.43989519774913787841796875" lon="2.59673933498561382293701171875">
        <ele>381.399993896484375</ele>
        <time>2022-07-27T16:47:00.000Z</time>
      </trkpt>
      <trkpt lat="42.43995445780456066131591796875" lon="2.5971727631986141204833984375">
        <ele>380.399993896484375</ele>
        <time>2022-07-27T16:47:03.000Z</time>
      </trkpt>
      <trkpt lat="42.4399852193892002105712890625" lon="2.59730896912515163421630859375">
        <ele>380.399993896484375</ele>
        <time>2022-07-27T16:47:04.000Z</time>
      </trkpt>
      <trkpt lat="42.4401119537651538848876953125" lon="2.5976924411952495574951171875">
        <ele>380.20001220703125</ele>
        <time>2022-07-27T16:47:07.000Z</time>
      </trkpt>
      <trkpt lat="42.44029476307332515716552734375" lon="2.5981839559972286224365234375">
        <ele>379.399993896484375</ele>
        <time>2022-07-27T16:47:11.000Z</time>
      </trkpt>
      <trkpt lat="42.4404710344970226287841796875" lon="2.59865527041256427764892578125">
        <ele>379.20001220703125</ele>
        <time>2022-07-27T16:47:15.000Z</time>
      </trkpt>
      <trkpt lat="42.44067748077213764190673828125" lon="2.59920327924191951751708984375">
        <ele>377.79998779296875</ele>
        <time>2022-07-27T16:47:20.000Z</time>
      </trkpt>
      <trkpt lat="42.4407536722719669342041015625" lon="2.59939589537680149078369140625">
        <ele>377.399993896484375</ele>
        <time>2022-07-27T16:47:22.000Z</time>
      </trkpt>
      <trkpt lat="42.44093631394207477569580078125" lon="2.5998650304973125457763671875">
        <ele>377.399993896484375</ele>
        <time>2022-07-27T16:47:27.000Z</time>
      </trkpt>
      <trkpt lat="42.44119472801685333251953125" lon="2.60056458413600921630859375">
        <ele>377.600006103515625</ele>
        <time>2022-07-27T16:47:34.000Z</time>
      </trkpt>
      <trkpt lat="42.44131618179380893707275390625" lon="2.60086004622280597686767578125">
        <ele>378</ele>
        <time>2022-07-27T16:47:37.000Z</time>
      </trkpt>
      <trkpt lat="42.44146102108061313629150390625" lon="2.60113832540810108184814453125">
        <ele>378</ele>
        <time>2022-07-27T16:47:40.000Z</time>
      </trkpt>
      <trkpt lat="42.44180099107325077056884765625" lon="2.60167158208787441253662109375">
        <ele>377.600006103515625</ele>
        <time>2022-07-27T16:47:46.000Z</time>
      </trkpt>
      <trkpt lat="42.44214381091296672821044921875" lon="2.6020389609038829803466796875">
        <ele>377</ele>
        <time>2022-07-27T16:47:51.000Z</time>
      </trkpt>
      <trkpt lat="42.44250087998807430267333984375" lon="2.602382786571979522705078125">
        <ele>376</ele>
        <time>2022-07-27T16:47:56.000Z</time>
      </trkpt>
      <trkpt lat="42.44263918139040470123291015625" lon="2.60251513682305812835693359375">
        <ele>375.79998779296875</ele>
        <time>2022-07-27T16:47:58.000Z</time>
      </trkpt>
      <trkpt lat="42.4429902993142604827880859375" lon="2.60276877321302890777587890625">
        <ele>375.600006103515625</ele>
        <time>2022-07-27T16:48:03.000Z</time>
      </trkpt>
      <trkpt lat="42.44336756877601146697998046875" lon="2.60309399105608463287353515625">
        <ele>375.79998779296875</ele>
        <time>2022-07-27T16:48:09.000Z</time>
      </trkpt>
      <trkpt lat="42.44350008666515350341796875" lon="2.603311836719512939453125">
        <ele>376.20001220703125</ele>
        <time>2022-07-27T16:48:12.000Z</time>
      </trkpt>
      <trkpt lat="42.4435666389763355255126953125" lon="2.60347251780331134796142578125">
        <ele>376.600006103515625</ele>
        <time>2022-07-27T16:48:14.000Z</time>
      </trkpt>
      <trkpt lat="42.443727739155292510986328125" lon="2.6038528047502040863037109375">
        <ele>377.20001220703125</ele>
        <time>2022-07-27T16:48:19.000Z</time>
      </trkpt>
      <trkpt lat="42.44375430978834629058837890625" lon="2.603931091725826263427734375">
        <ele>377.20001220703125</ele>
        <time>2022-07-27T16:48:20.000Z</time>
      </trkpt>
      <trkpt lat="42.44381549768149852752685546875" lon="2.60416301898658275604248046875">
        <ele>377.399993896484375</ele>
        <time>2022-07-27T16:48:23.000Z</time>
      </trkpt>
      <trkpt lat="42.4439609237015247344970703125" lon="2.60456643998622894287109375">
        <ele>378.20001220703125</ele>
        <time>2022-07-27T16:48:29.000Z</time>
      </trkpt>
      <trkpt lat="42.44399151764810085296630859375" lon="2.60462519712746143341064453125">
        <ele>378.399993896484375</ele>
        <time>2022-07-27T16:48:30.000Z</time>
      </trkpt>
      <trkpt lat="42.444111965596675872802734375" lon="2.6048569567501544952392578125">
        <ele>379.399993896484375</ele>
        <time>2022-07-27T16:48:34.000Z</time>
      </trkpt>
      <trkpt lat="42.44421112351119518280029296875" lon="2.60502467863261699676513671875">
        <ele>380.399993896484375</ele>
        <time>2022-07-27T16:48:37.000Z</time>
      </trkpt>
      <trkpt lat="42.4442879855632781982421875" lon="2.6051315478980541229248046875">
        <ele>380.600006103515625</ele>
        <time>2022-07-27T16:48:39.000Z</time>
      </trkpt>
      <trkpt lat="42.4444708786904811859130859375" lon="2.6053219847381114959716796875">
        <ele>381.20001220703125</ele>
        <time>2022-07-27T16:48:43.000Z</time>
      </trkpt>
      <trkpt lat="42.4446351639926433563232421875" lon="2.60544092394411563873291015625">
        <ele>381.20001220703125</ele>
        <time>2022-07-27T16:48:46.000Z</time>
      </trkpt>
      <trkpt lat="42.44476013816893100738525390625" lon="2.60548417456448078155517578125">
        <ele>381.20001220703125</ele>
        <time>2022-07-27T16:48:48.000Z</time>
      </trkpt>
      <trkpt lat="42.44502701796591281890869140625" lon="2.6054695062339305877685546875">
        <ele>381.20001220703125</ele>
        <time>2022-07-27T16:48:52.000Z</time>
      </trkpt>
      <trkpt lat="42.4452173709869384765625" lon="2.60536783374845981597900390625">
        <ele>381.399993896484375</ele>
        <time>2022-07-27T16:48:55.000Z</time>
      </trkpt>
      <trkpt lat="42.44527637958526611328125" lon="2.60532089509069919586181640625">
        <ele>381.20001220703125</ele>
        <time>2022-07-27T16:48:56.000Z</time>
      </trkpt>
      <trkpt lat="42.44547327049076557159423828125" lon="2.60506977327167987823486328125">
        <ele>380.600006103515625</ele>
        <time>2022-07-27T16:49:00.000Z</time>
      </trkpt>
      <trkpt lat="42.4455155991017818450927734375" lon="2.60499768890440464019775390625">
        <ele>380.20001220703125</ele>
        <time>2022-07-27T16:49:01.000Z</time>
      </trkpt>
      <trkpt lat="42.44560386054217815399169921875" lon="2.60484832338988780975341796875">
        <ele>379.79998779296875</ele>
        <time>2022-07-27T16:49:03.000Z</time>
      </trkpt>
      <trkpt lat="42.445740066468715667724609375" lon="2.60463341139256954193115234375">
        <ele>379.600006103515625</ele>
        <time>2022-07-27T16:49:06.000Z</time>
      </trkpt>
      <trkpt lat="42.44585447944700717926025390625" lon="2.60452059097588062286376953125">
        <ele>379.600006103515625</ele>
        <time>2022-07-27T16:49:08.000Z</time>
      </trkpt>
      <trkpt lat="42.44610191322863101959228515625" lon="2.60439637117087841033935546875">
        <ele>379.600006103515625</ele>
        <time>2022-07-27T16:49:12.000Z</time>
      </trkpt>
      <trkpt lat="42.44644909165799617767333984375" lon="2.60429645888507366180419921875">
        <ele>380.20001220703125</ele>
        <time>2022-07-27T16:49:18.000Z</time>
      </trkpt>
      <trkpt lat="42.44666383601725101470947265625" lon="2.60425656102597713470458984375">
        <ele>380.79998779296875</ele>
        <time>2022-07-27T16:49:22.000Z</time>
      </trkpt>
      <trkpt lat="42.44671798311173915863037109375" lon="2.6042599976062774658203125">
        <ele>381</ele>
        <time>2022-07-27T16:49:23.000Z</time>
      </trkpt>
      <trkpt lat="42.446960471570491790771484375" lon="2.604288496077060699462890625">
        <ele>382.20001220703125</ele>
        <time>2022-07-27T16:49:27.000Z</time>
      </trkpt>
      <trkpt lat="42.44709961116313934326171875" lon="2.60429914109408855438232421875">
        <ele>382.399993896484375</ele>
        <time>2022-07-27T16:49:29.000Z</time>
      </trkpt>
      <trkpt lat="42.44750856421887874603271484375" lon="2.6043117977678775787353515625">
        <ele>382.399993896484375</ele>
        <time>2022-07-27T16:49:34.000Z</time>
      </trkpt>
      <trkpt lat="42.4479825608432292938232421875" lon="2.60422982275485992431640625">
        <ele>380.79998779296875</ele>
        <time>2022-07-27T16:49:39.000Z</time>
      </trkpt>
      <trkpt lat="42.44818213395774364471435546875" lon="2.604170478880405426025390625">
        <ele>379</ele>
        <time>2022-07-27T16:49:41.000Z</time>
      </trkpt>
      <trkpt lat="42.4483932740986347198486328125" lon="2.60412194766104221343994140625">
        <ele>377.399993896484375</ele>
        <time>2022-07-27T16:49:43.000Z</time>
      </trkpt>
      <trkpt lat="42.4485025741159915924072265625" lon="2.6041092909872531890869140625">
        <ele>376.399993896484375</ele>
        <time>2022-07-27T16:49:44.000Z</time>
      </trkpt>
      <trkpt lat="42.44861237704753875732421875" lon="2.60410736314952373504638671875">
        <ele>375.600006103515625</ele>
        <time>2022-07-27T16:49:45.000Z</time>
      </trkpt>
      <trkpt lat="42.44871974922716617584228515625" lon="2.60411976836621761322021484375">
        <ele>374.600006103515625</ele>
        <time>2022-07-27T16:49:46.000Z</time>
      </trkpt>
      <trkpt lat="42.4488257803022861480712890625" lon="2.60414374060928821563720703125">
        <ele>374.20001220703125</ele>
        <time>2022-07-27T16:49:47.000Z</time>
      </trkpt>
      <trkpt lat="42.4489317275583744049072265625" lon="2.60417492128908634185791015625">
        <ele>373.79998779296875</ele>
        <time>2022-07-27T16:49:48.000Z</time>
      </trkpt>
      <trkpt lat="42.44914085604250431060791015625" lon="2.60424918495118618011474609375">
        <ele>373</ele>
        <time>2022-07-27T16:49:50.000Z</time>
      </trkpt>
      <trkpt lat="42.44964963756501674652099609375" lon="2.6044640131294727325439453125">
        <ele>372.600006103515625</ele>
        <time>2022-07-27T16:49:55.000Z</time>
      </trkpt>
      <trkpt lat="42.4497451074421405792236328125" lon="2.60452880524098873138427734375">
        <ele>372.600006103515625</ele>
        <time>2022-07-27T16:49:56.000Z</time>
      </trkpt>
      <trkpt lat="42.450007461011409759521484375" lon="2.60477724485099315643310546875">
        <ele>372.20001220703125</ele>
        <time>2022-07-27T16:49:59.000Z</time>
      </trkpt>
      <trkpt lat="42.45031834580004215240478515625" lon="2.60517136193811893463134765625">
        <ele>372</ele>
        <time>2022-07-27T16:50:03.000Z</time>
      </trkpt>
      <trkpt lat="42.45037903077900409698486328125" lon="2.60528837330639362335205078125">
        <ele>372</ele>
        <time>2022-07-27T16:50:04.000Z</time>
      </trkpt>
      <trkpt lat="42.45048665441572666168212890625" lon="2.60569103993475437164306640625">
        <ele>371.600006103515625</ele>
        <time>2022-07-27T16:50:07.000Z</time>
      </trkpt>
      <trkpt lat="42.45048866607248783111572265625" lon="2.60598038323223590850830078125">
        <ele>370.600006103515625</ele>
        <time>2022-07-27T16:50:09.000Z</time>
      </trkpt>
      <trkpt lat="42.4504689686000347137451171875" lon="2.60612287558615207672119140625">
        <ele>370.20001220703125</ele>
        <time>2022-07-27T16:50:10.000Z</time>
      </trkpt>
      <trkpt lat="42.45033108629286289215087890625" lon="2.6065061800181865692138671875">
        <ele>369.399993896484375</ele>
        <time>2022-07-27T16:50:13.000Z</time>
      </trkpt>
      <trkpt lat="42.45015154592692852020263671875" lon="2.60701135732233524322509765625">
        <ele>369</ele>
        <time>2022-07-27T16:50:17.000Z</time>
      </trkpt>
      <trkpt lat="42.45012782514095306396484375" lon="2.60728913359344005584716796875">
        <ele>368.399993896484375</ele>
        <time>2022-07-27T16:50:19.000Z</time>
      </trkpt>
      <trkpt lat="42.45013260282576084136962890625" lon="2.6075817458331584930419921875">
        <ele>368</ele>
        <time>2022-07-27T16:50:21.000Z</time>
      </trkpt>
      <trkpt lat="42.45012388564646244049072265625" lon="2.6077306084334850311279296875">
        <ele>367.79998779296875</ele>
        <time>2022-07-27T16:50:22.000Z</time>
      </trkpt>
      <trkpt lat="42.4500870890915393829345703125" lon="2.60786932893097400665283203125">
        <ele>367.79998779296875</ele>
        <time>2022-07-27T16:50:23.000Z</time>
      </trkpt>
      <trkpt lat="42.4498929642140865325927734375" lon="2.608219273388385772705078125">
        <ele>367.600006103515625</ele>
        <time>2022-07-27T16:50:26.000Z</time>
      </trkpt>
      <trkpt lat="42.4498349614441394805908203125" lon="2.60833988897502422332763671875">
        <ele>367.399993896484375</ele>
        <time>2022-07-27T16:50:27.000Z</time>
      </trkpt>
      <trkpt lat="42.4497860111296176910400390625" lon="2.60846679098904132843017578125">
        <ele>367.399993896484375</ele>
        <time>2022-07-27T16:50:28.000Z</time>
      </trkpt>
      <trkpt lat="42.44968903250992298126220703125" lon="2.60872344486415386199951171875">
        <ele>367</ele>
        <time>2022-07-27T16:50:30.000Z</time>
      </trkpt>
      <trkpt lat="42.44956816546618938446044921875" lon="2.60894590057432651519775390625">
        <ele>366.20001220703125</ele>
        <time>2022-07-27T16:50:32.000Z</time>
      </trkpt>
      <trkpt lat="42.44945014826953411102294921875" lon="2.6091595552861690521240234375">
        <ele>365.20001220703125</ele>
        <time>2022-07-27T16:50:34.000Z</time>
      </trkpt>
      <trkpt lat="42.44936046190559864044189453125" lon="2.60937723331153392791748046875">
        <ele>364.600006103515625</ele>
        <time>2022-07-27T16:50:36.000Z</time>
      </trkpt>
      <trkpt lat="42.44934185408055782318115234375" lon="2.6094955019652843475341796875">
        <ele>364.399993896484375</ele>
        <time>2022-07-27T16:50:37.000Z</time>
      </trkpt>
      <trkpt lat="42.44935576803982257843017578125" lon="2.60961167514324188232421875">
        <ele>363.600006103515625</ele>
        <time>2022-07-27T16:50:38.000Z</time>
      </trkpt>
      <trkpt lat="42.4494021199643611907958984375" lon="2.6097151078283786773681640625">
        <ele>363.20001220703125</ele>
        <time>2022-07-27T16:50:39.000Z</time>
      </trkpt>
      <trkpt lat="42.44954553432762622833251953125" lon="2.609859444200992584228515625">
        <ele>362.79998779296875</ele>
        <time>2022-07-27T16:50:41.000Z</time>
      </trkpt>
      <trkpt lat="42.44973597116768360137939453125" lon="2.60989909060299396514892578125">
        <ele>362.399993896484375</ele>
        <time>2022-07-27T16:50:43.000Z</time>
      </trkpt>
      <trkpt lat="42.44983454234898090362548828125" lon="2.60990948416292667388916015625">
        <ele>362.20001220703125</ele>
        <time>2022-07-27T16:50:44.000Z</time>
      </trkpt>
      <trkpt lat="42.449932359158992767333984375" lon="2.6099192909896373748779296875">
        <ele>361.79998779296875</ele>
        <time>2022-07-27T16:50:45.000Z</time>
      </trkpt>
      <trkpt lat="42.4500334449112415313720703125" lon="2.60992172174155712127685546875">
        <ele>361.600006103515625</ele>
        <time>2022-07-27T16:50:46.000Z</time>
      </trkpt>
      <trkpt lat="42.45033075101673603057861328125" lon="2.60988953523337841033935546875">
        <ele>360.79998779296875</ele>
        <time>2022-07-27T16:50:49.000Z</time>
      </trkpt>
      <trkpt lat="42.45043083094060420989990234375" lon="2.609880901873111724853515625">
        <ele>360.600006103515625</ele>
        <time>2022-07-27T16:50:50.000Z</time>
      </trkpt>
      <trkpt lat="42.45053426362574100494384765625" lon="2.609882913529872894287109375">
        <ele>360.600006103515625</ele>
        <time>2022-07-27T16:50:51.000Z</time>
      </trkpt>
      <trkpt lat="42.45074632577598094940185546875" lon="2.60992549359798431396484375">
        <ele>360.399993896484375</ele>
        <time>2022-07-27T16:50:53.000Z</time>
      </trkpt>
      <trkpt lat="42.451178915798664093017578125" lon="2.6100218854844570159912109375">
        <ele>359.79998779296875</ele>
        <time>2022-07-27T16:50:57.000Z</time>
      </trkpt>
      <trkpt lat="42.45128653943538665771484375" lon="2.6100329495966434478759765625">
        <ele>359.399993896484375</ele>
        <time>2022-07-27T16:50:58.000Z</time>
      </trkpt>
      <trkpt lat="42.45149977505207061767578125" lon="2.61007360182702541351318359375">
        <ele>358.600006103515625</ele>
        <time>2022-07-27T16:51:00.000Z</time>
      </trkpt>
      <trkpt lat="42.45169985108077526092529296875" lon="2.6101586781442165374755859375">
        <ele>358.600006103515625</ele>
        <time>2022-07-27T16:51:02.000Z</time>
      </trkpt>
      <trkpt lat="42.45179926045238971710205078125" lon="2.6102059520781040191650390625">
        <ele>358.600006103515625</ele>
        <time>2022-07-27T16:51:03.000Z</time>
      </trkpt>
      <trkpt lat="42.4519988335669040679931640625" lon="2.6102783717215061187744140625">
        <ele>358</ele>
        <time>2022-07-27T16:51:05.000Z</time>
      </trkpt>
      <trkpt lat="42.45219438336789608001708984375" lon="2.6103172637522220611572265625">
        <ele>357.600006103515625</ele>
        <time>2022-07-27T16:51:07.000Z</time>
      </trkpt>
      <trkpt lat="42.452289350330829620361328125" lon="2.6103447563946247100830078125">
        <ele>357.600006103515625</ele>
        <time>2022-07-27T16:51:08.000Z</time>
      </trkpt>
      <trkpt lat="42.4524638615548610687255859375" lon="2.61045598424971103668212890625">
        <ele>357.20001220703125</ele>
        <time>2022-07-27T16:51:10.000Z</time>
      </trkpt>
      <trkpt lat="42.45290198363363742828369140625" lon="2.61077315546572208404541015625">
        <ele>356.79998779296875</ele>
        <time>2022-07-27T16:51:15.000Z</time>
      </trkpt>
      <trkpt lat="42.453466169536113739013671875" lon="2.611101306974887847900390625">
        <ele>356.600006103515625</ele>
        <time>2022-07-27T16:51:21.000Z</time>
      </trkpt>
      <trkpt lat="42.45358024723827838897705078125" lon="2.61132133193314075469970703125">
        <ele>356.399993896484375</ele>
        <time>2022-07-27T16:51:23.000Z</time>
      </trkpt>
      <trkpt lat="42.4536081589758396148681640625" lon="2.6117214001715183258056640625">
        <ele>355.79998779296875</ele>
        <time>2022-07-27T16:51:26.000Z</time>
      </trkpt>
      <trkpt lat="42.45357790030539035797119140625" lon="2.6118548400700092315673828125">
        <ele>355.399993896484375</ele>
        <time>2022-07-27T16:51:27.000Z</time>
      </trkpt>
      <trkpt lat="42.45346248149871826171875" lon="2.61208626441657543182373046875">
        <ele>355.20001220703125</ele>
        <time>2022-07-27T16:51:29.000Z</time>
      </trkpt>
      <trkpt lat="42.4533952586352825164794921875" lon="2.612192295491695404052734375">
        <ele>355.20001220703125</ele>
        <time>2022-07-27T16:51:30.000Z</time>
      </trkpt>
      <trkpt lat="42.45333616621792316436767578125" lon="2.61230117641389369964599609375">
        <ele>355</ele>
        <time>2022-07-27T16:51:31.000Z</time>
      </trkpt>
      <trkpt lat="42.45325419120490550994873046875" lon="2.61255296878516674041748046875">
        <ele>354.79998779296875</ele>
        <time>2022-07-27T16:51:33.000Z</time>
      </trkpt>
      <trkpt lat="42.45323088951408863067626953125" lon="2.612694203853607177734375">
        <ele>354.399993896484375</ele>
        <time>2022-07-27T16:51:34.000Z</time>
      </trkpt>
      <trkpt lat="42.45321110822260379791259765625" lon="2.61296845972537994384765625">
        <ele>353.600006103515625</ele>
        <time>2022-07-27T16:51:36.000Z</time>
      </trkpt>
      <trkpt lat="42.4531964398920536041259765625" lon="2.6131060905754566192626953125">
        <ele>353</ele>
        <time>2022-07-27T16:51:37.000Z</time>
      </trkpt>
      <trkpt lat="42.4530767463147640228271484375" lon="2.6136495731770992279052734375">
        <ele>352.20001220703125</ele>
        <time>2022-07-27T16:51:41.000Z</time>
      </trkpt>
      <trkpt lat="42.45303173549473285675048828125" lon="2.613779492676258087158203125">
        <ele>352</ele>
        <time>2022-07-27T16:51:42.000Z</time>
      </trkpt>
      <trkpt lat="42.452853955328464508056640625" lon="2.6141360588371753692626953125">
        <ele>351.79998779296875</ele>
        <time>2022-07-27T16:51:45.000Z</time>
      </trkpt>
      <trkpt lat="42.4525563977658748626708984375" lon="2.61451542377471923828125">
        <ele>350.79998779296875</ele>
        <time>2022-07-27T16:51:49.000Z</time>
      </trkpt>
      <trkpt lat="42.452310808002948760986328125" lon="2.6147499494254589080810546875">
        <ele>350.20001220703125</ele>
        <time>2022-07-27T16:51:52.000Z</time>
      </trkpt>
      <trkpt lat="42.45221952907741069793701171875" lon="2.61480770073831081390380859375">
        <ele>350.20001220703125</ele>
        <time>2022-07-27T16:51:53.000Z</time>
      </trkpt>
      <trkpt lat="42.4519443511962890625" lon="2.614916078746318817138671875">
        <ele>349.79998779296875</ele>
        <time>2022-07-27T16:51:56.000Z</time>
      </trkpt>
      <trkpt lat="42.45185441337525844573974609375" lon="2.6149514503777027130126953125">
        <ele>349.600006103515625</ele>
        <time>2022-07-27T16:51:57.000Z</time>
      </trkpt>
      <trkpt lat="42.45132283307611942291259765625" lon="2.61518061161041259765625">
        <ele>349.600006103515625</ele>
        <time>2022-07-27T16:52:03.000Z</time>
      </trkpt>
      <trkpt lat="42.4512310512363910675048828125" lon="2.6151988841593265533447265625">
        <ele>349.600006103515625</ele>
        <time>2022-07-27T16:52:04.000Z</time>
      </trkpt>
      <trkpt lat="42.45096023194491863250732421875" lon="2.61520181782543659210205078125">
        <ele>349.600006103515625</ele>
        <time>2022-07-27T16:52:07.000Z</time>
      </trkpt>
      <trkpt lat="42.45042663998901844024658203125" lon="2.615164853632450103759765625">
        <ele>349.79998779296875</ele>
        <time>2022-07-27T16:52:13.000Z</time>
      </trkpt>
      <trkpt lat="42.450075857341289520263671875" lon="2.615145742893218994140625">
        <ele>349.600006103515625</ele>
        <time>2022-07-27T16:52:17.000Z</time>
      </trkpt>
      <trkpt lat="42.44999782182276248931884765625" lon="2.6151640154421329498291015625">
        <ele>349</ele>
        <time>2022-07-27T16:52:18.000Z</time>
      </trkpt>
      <trkpt lat="42.44992196559906005859375" lon="2.615197710692882537841796875">
        <ele>348.600006103515625</ele>
        <time>2022-07-27T16:52:19.000Z</time>
      </trkpt>
      <trkpt lat="42.4497669003903865814208984375" lon="2.615325115621089935302734375">
        <ele>347.20001220703125</ele>
        <time>2022-07-27T16:52:21.000Z</time>
      </trkpt>
      <trkpt lat="42.4496834166347980499267578125" lon="2.6154124550521373748779296875">
        <ele>346.399993896484375</ele>
        <time>2022-07-27T16:52:22.000Z</time>
      </trkpt>
      <trkpt lat="42.44960672222077846527099609375" lon="2.615502811968326568603515625">
        <ele>345.79998779296875</ele>
        <time>2022-07-27T16:52:23.000Z</time>
      </trkpt>
      <trkpt lat="42.44938577525317668914794921875" lon="2.61577161960303783416748046875">
        <ele>344.600006103515625</ele>
        <time>2022-07-27T16:52:26.000Z</time>
      </trkpt>
      <trkpt lat="42.44931285269558429718017578125" lon="2.61586256325244903564453125">
        <ele>344</ele>
        <time>2022-07-27T16:52:27.000Z</time>
      </trkpt>
      <trkpt lat="42.44917036034166812896728515625" lon="2.61606196872889995574951171875">
        <ele>343.600006103515625</ele>
        <time>2022-07-27T16:52:29.000Z</time>
      </trkpt>
      <trkpt lat="42.44910414330661296844482421875" lon="2.61616473086178302764892578125">
        <ele>343.600006103515625</ele>
        <time>2022-07-27T16:52:30.000Z</time>
      </trkpt>
      <trkpt lat="42.4489803425967693328857421875" lon="2.61636572889983654022216796875">
        <ele>343.399993896484375</ele>
        <time>2022-07-27T16:52:32.000Z</time>
      </trkpt>
      <trkpt lat="42.44881899096071720123291015625" lon="2.61669999919831752777099609375">
        <ele>342.79998779296875</ele>
        <time>2022-07-27T16:52:35.000Z</time>
      </trkpt>
      <trkpt lat="42.4487842060625553131103515625" lon="2.61682413518428802490234375">
        <ele>342.79998779296875</ele>
        <time>2022-07-27T16:52:36.000Z</time>
      </trkpt>
      <trkpt lat="42.448767609894275665283203125" lon="2.6169513724744319915771484375">
        <ele>342.399993896484375</ele>
        <time>2022-07-27T16:52:37.000Z</time>
      </trkpt>
      <trkpt lat="42.44881111197173595428466796875" lon="2.61720475740730762481689453125">
        <ele>341.79998779296875</ele>
        <time>2022-07-27T16:52:39.000Z</time>
      </trkpt>
      <trkpt lat="42.44891806505620479583740234375" lon="2.61742553673684597015380859375">
        <ele>341.399993896484375</ele>
        <time>2022-07-27T16:52:41.000Z</time>
      </trkpt>
      <trkpt lat="42.448987551033496856689453125" lon="2.6175179891288280487060546875">
        <ele>341.20001220703125</ele>
        <time>2022-07-27T16:52:42.000Z</time>
      </trkpt>
      <trkpt lat="42.44906173087656497955322265625" lon="2.61760289780795574188232421875">
        <ele>341</ele>
        <time>2022-07-27T16:52:43.000Z</time>
      </trkpt>
      <trkpt lat="42.4492160417139530181884765625" lon="2.61776693165302276611328125">
        <ele>340</ele>
        <time>2022-07-27T16:52:45.000Z</time>
      </trkpt>
      <trkpt lat="42.44937286712229251861572265625" lon="2.61792995966970920562744140625">
        <ele>339.79998779296875</ele>
        <time>2022-07-27T16:52:47.000Z</time>
      </trkpt>
      <trkpt lat="42.44977871887385845184326171875" lon="2.61832944117486476898193359375">
        <ele>339.20001220703125</ele>
        <time>2022-07-27T16:52:52.000Z</time>
      </trkpt>
      <trkpt lat="42.44994350709021091461181640625" lon="2.61848534457385540008544921875">
        <ele>338.79998779296875</ele>
        <time>2022-07-27T16:52:54.000Z</time>
      </trkpt>
      <trkpt lat="42.45026872493326663970947265625" lon="2.61879698373377323150634765625">
        <ele>338</ele>
        <time>2022-07-27T16:52:58.000Z</time>
      </trkpt>
      <trkpt lat="42.45051280595362186431884765625" lon="2.61902882717549800872802734375">
        <ele>337</ele>
        <time>2022-07-27T16:53:01.000Z</time>
      </trkpt>
      <trkpt lat="42.45091773569583892822265625" lon="2.619418837130069732666015625">
        <ele>335.79998779296875</ele>
        <time>2022-07-27T16:53:06.000Z</time>
      </trkpt>
      <trkpt lat="42.45124303735792636871337890625" lon="2.6197287999093532562255859375">
        <ele>335.399993896484375</ele>
        <time>2022-07-27T16:53:10.000Z</time>
      </trkpt>
      <trkpt lat="42.4514908902347087860107421875" lon="2.61995485983788967132568359375">
        <ele>335</ele>
        <time>2022-07-27T16:53:13.000Z</time>
      </trkpt>
      <trkpt lat="42.45197226293385028839111328125" lon="2.62042558752000331878662109375">
        <ele>334.399993896484375</ele>
        <time>2022-07-27T16:53:19.000Z</time>
      </trkpt>
      <trkpt lat="42.45235271751880645751953125" lon="2.62080629356205463409423828125">
        <ele>333.79998779296875</ele>
        <time>2022-07-27T16:53:24.000Z</time>
      </trkpt>
      <trkpt lat="42.45250149630010128021240234375" lon="2.6209538988769054412841796875">
        <ele>333</ele>
        <time>2022-07-27T16:53:26.000Z</time>
      </trkpt>
      <trkpt lat="42.4527119658887386322021484375" lon="2.621185742318630218505859375">
        <ele>332.79998779296875</ele>
        <time>2022-07-27T16:53:29.000Z</time>
      </trkpt>
      <trkpt lat="42.45289511047303676605224609375" lon="2.62145119719207286834716796875">
        <ele>332.600006103515625</ele>
        <time>2022-07-27T16:53:32.000Z</time>
      </trkpt>
      <trkpt lat="42.4532326497137546539306640625" lon="2.622008509933948516845703125">
        <ele>333</ele>
        <time>2022-07-27T16:53:38.000Z</time>
      </trkpt>
      <trkpt lat="42.4535417743027210235595703125" lon="2.6223885454237461090087890625">
        <ele>333.20001220703125</ele>
        <time>2022-07-27T16:53:43.000Z</time>
      </trkpt>
      <trkpt lat="42.453824579715728759765625" lon="2.62271485291421413421630859375">
        <ele>333.20001220703125</ele>
        <time>2022-07-27T16:53:48.000Z</time>
      </trkpt>
      <trkpt lat="42.45386925525963306427001953125" lon="2.62278542853891849517822265625">
        <ele>333.399993896484375</ele>
        <time>2022-07-27T16:53:49.000Z</time>
      </trkpt>
      <trkpt lat="42.45393865741789340972900390625" lon="2.62293420732021331787109375">
        <ele>334.399993896484375</ele>
        <time>2022-07-27T16:53:51.000Z</time>
      </trkpt>
      <trkpt lat="42.45398241095244884490966796875" lon="2.62309354729950428009033203125">
        <ele>335</ele>
        <time>2022-07-27T16:53:53.000Z</time>
      </trkpt>
      <trkpt lat="42.45401795022189617156982421875" lon="2.62325095944106578826904296875">
        <ele>335.399993896484375</ele>
        <time>2022-07-27T16:53:55.000Z</time>
      </trkpt>
      <trkpt lat="42.45412490330636501312255859375" lon="2.623707689344882965087890625">
        <ele>336.399993896484375</ele>
        <time>2022-07-27T16:54:01.000Z</time>
      </trkpt>
      <trkpt lat="42.4541437625885009765625" lon="2.62378136627376079559326171875">
        <ele>336.79998779296875</ele>
        <time>2022-07-27T16:54:02.000Z</time>
      </trkpt>
      <trkpt lat="42.4541979096829891204833984375" lon="2.62400298379361629486083984375">
        <ele>338</ele>
        <time>2022-07-27T16:54:05.000Z</time>
      </trkpt>
      <trkpt lat="42.454307042062282562255859375" lon="2.624438591301441192626953125">
        <ele>338.600006103515625</ele>
        <time>2022-07-27T16:54:11.000Z</time>
      </trkpt>
      <trkpt lat="42.45435708202421665191650390625" lon="2.624649815261363983154296875">
        <ele>339</ele>
        <time>2022-07-27T16:54:14.000Z</time>
      </trkpt>
      <trkpt lat="42.45444308035075664520263671875" lon="2.62505239807069301605224609375">
        <ele>339.79998779296875</ele>
        <time>2022-07-27T16:54:20.000Z</time>
      </trkpt>
      <trkpt lat="42.45445347391068935394287109375" lon="2.62512146495282649993896484375">
        <ele>340.20001220703125</ele>
        <time>2022-07-27T16:54:21.000Z</time>
      </trkpt>
      <trkpt lat="42.45446026325225830078125" lon="2.6251934655010700225830078125">
        <ele>340.399993896484375</ele>
        <time>2022-07-27T16:54:22.000Z</time>
      </trkpt>
      <trkpt lat="42.45445984415709972381591796875" lon="2.6254258118569850921630859375">
        <ele>340.600006103515625</ele>
        <time>2022-07-27T16:54:25.000Z</time>
      </trkpt>
      <trkpt lat="42.4544282443821430206298828125" lon="2.62603844515979290008544921875">
        <ele>340.600006103515625</ele>
        <time>2022-07-27T16:54:32.000Z</time>
      </trkpt>
      <trkpt lat="42.454395554959774017333984375" lon="2.62681578285992145538330078125">
        <ele>340</ele>
        <time>2022-07-27T16:54:40.000Z</time>
      </trkpt>
      <trkpt lat="42.4543843232095241546630859375" lon="2.6270109973847866058349609375">
        <ele>339.79998779296875</ele>
        <time>2022-07-27T16:54:42.000Z</time>
      </trkpt>
      <trkpt lat="42.45439262129366397857666015625" lon="2.62730428017675876617431640625">
        <ele>339.600006103515625</ele>
        <time>2022-07-27T16:54:45.000Z</time>
      </trkpt>
      <trkpt lat="42.454434446990489959716796875" lon="2.62771097011864185333251953125">
        <ele>339.20001220703125</ele>
        <time>2022-07-27T16:54:49.000Z</time>
      </trkpt>
      <trkpt lat="42.45451214723289012908935546875" lon="2.62812562286853790283203125">
        <ele>338.600006103515625</ele>
        <time>2022-07-27T16:54:53.000Z</time>
      </trkpt>
      <trkpt lat="42.45456956326961517333984375" lon="2.628332488238811492919921875">
        <ele>338</ele>
        <time>2022-07-27T16:54:55.000Z</time>
      </trkpt>
      <trkpt lat="42.4547601677477359771728515625" lon="2.62883766554296016693115234375">
        <ele>337.600006103515625</ele>
        <time>2022-07-27T16:55:00.000Z</time>
      </trkpt>
      <trkpt lat="42.45485060848295688629150390625" lon="2.62903631664812564849853515625">
        <ele>337.20001220703125</ele>
        <time>2022-07-27T16:55:02.000Z</time>
      </trkpt>
      <trkpt lat="42.45493912138044834136962890625" lon="2.62923446483910083770751953125">
        <ele>336.20001220703125</ele>
        <time>2022-07-27T16:55:04.000Z</time>
      </trkpt>
      <trkpt lat="42.4551648460328578948974609375" lon="2.6297007501125335693359375">
        <ele>335.399993896484375</ele>
        <time>2022-07-27T16:55:09.000Z</time>
      </trkpt>
      <trkpt lat="42.45525260455906391143798828125" lon="2.629884146153926849365234375">
        <ele>335.20001220703125</ele>
        <time>2022-07-27T16:55:11.000Z</time>
      </trkpt>
      <trkpt lat="42.455296777188777923583984375" lon="2.629976011812686920166015625">
        <ele>335</ele>
        <time>2022-07-27T16:55:12.000Z</time>
      </trkpt>
      <trkpt lat="42.455500625073909759521484375" lon="2.6304428838193416595458984375">
        <ele>334.20001220703125</ele>
        <time>2022-07-27T16:55:17.000Z</time>
      </trkpt>
      <trkpt lat="42.4557981826364994049072265625" lon="2.63109616935253143310546875">
        <ele>333.399993896484375</ele>
        <time>2022-07-27T16:55:24.000Z</time>
      </trkpt>
      <trkpt lat="42.45583699084818363189697265625" lon="2.6311969198286533355712890625">
        <ele>333.399993896484375</ele>
        <time>2022-07-27T16:55:25.000Z</time>
      </trkpt>
      <trkpt lat="42.45590865612030029296875" lon="2.6314041204750537872314453125">
        <ele>332.79998779296875</ele>
        <time>2022-07-27T16:55:27.000Z</time>
      </trkpt>
      <trkpt lat="42.4560105800628662109375" lon="2.6317082159221172332763671875">
        <ele>332</ele>
        <time>2022-07-27T16:55:30.000Z</time>
      </trkpt>
      <trkpt lat="42.4560402520000934600830078125" lon="2.63180905021727085113525390625">
        <ele>331.79998779296875</ele>
        <time>2022-07-27T16:55:31.000Z</time>
      </trkpt>
      <trkpt lat="42.4562213011085987091064453125" lon="2.6325014792382717132568359375">
        <ele>331.600006103515625</ele>
        <time>2022-07-27T16:55:38.000Z</time>
      </trkpt>
      <trkpt lat="42.45629413984715938568115234375" lon="2.63280741870403289794921875">
        <ele>331.600006103515625</ele>
        <time>2022-07-27T16:55:42.000Z</time>
      </trkpt>
      <trkpt lat="42.45633135549724102020263671875" lon="2.63298721052706241607666015625">
        <ele>331.600006103515625</ele>
        <time>2022-07-27T16:55:46.000Z</time>
      </trkpt>
      <trkpt lat="42.45639891363680362701416015625" lon="2.63319910503923892974853515625">
        <ele>331.79998779296875</ele>
        <time>2022-07-27T16:55:53.000Z</time>
      </trkpt>
      <trkpt lat="42.4564529769122600555419921875" lon="2.63330228626728057861328125">
        <ele>331.79998779296875</ele>
        <time>2022-07-27T16:55:57.000Z</time>
      </trkpt>
      <trkpt lat="42.45643931441009044647216796875" lon="2.63330605812370777130126953125">
        <ele>331.79998779296875</ele>
        <time>2022-07-27T16:55:58.000Z</time>
      </trkpt>
      <trkpt lat="42.4563758634030818939208984375" lon="2.63330287300050258636474609375">
        <ele>331.79998779296875</ele>
        <time>2022-07-27T16:56:00.000Z</time>
      </trkpt>
      <trkpt lat="42.4561974965035915374755859375" lon="2.6333661563694477081298828125">
        <ele>331.600006103515625</ele>
        <time>2022-07-27T16:56:05.000Z</time>
      </trkpt>
      <trkpt lat="42.45612264610826969146728515625" lon="2.63355164788663387298583984375">
        <ele>331.399993896484375</ele>
        <time>2022-07-27T16:56:08.000Z</time>
      </trkpt>
      <trkpt lat="42.456094063818454742431640625" lon="2.63360671699047088623046875">
        <ele>331.399993896484375</ele>
        <time>2022-07-27T16:56:09.000Z</time>
      </trkpt>
      <trkpt lat="42.45603865943849086761474609375" lon="2.63373923487961292266845703125">
        <ele>331.399993896484375</ele>
        <time>2022-07-27T16:56:11.000Z</time>
      </trkpt>
      <trkpt lat="42.45600932277739048004150390625" lon="2.63380997814238071441650390625">
        <ele>331.399993896484375</ele>
        <time>2022-07-27T16:56:12.000Z</time>
      </trkpt>
      <trkpt lat="42.45583263225853443145751953125" lon="2.63415925204753875732421875">
        <ele>330.79998779296875</ele>
        <time>2022-07-27T16:56:17.000Z</time>
      </trkpt>
      <trkpt lat="42.4557919800281524658203125" lon="2.63421465642750263214111328125">
        <ele>330.399993896484375</ele>
        <time>2022-07-27T16:56:18.000Z</time>
      </trkpt>
      <trkpt lat="42.4556949175894260406494140625" lon="2.63440459035336971282958984375">
        <ele>329.399993896484375</ele>
        <time>2022-07-27T16:56:21.000Z</time>
      </trkpt>
      <trkpt lat="42.45566817931830883026123046875" lon="2.634482122957706451416015625">
        <ele>329.20001220703125</ele>
        <time>2022-07-27T16:56:22.000Z</time>
      </trkpt>
      <trkpt lat="42.4556204862892627716064453125" lon="2.63465068303048610687255859375">
        <ele>328</ele>
        <time>2022-07-27T16:56:24.000Z</time>
      </trkpt>
      <trkpt lat="42.45559458620846271514892578125" lon="2.6347481645643711090087890625">
        <ele>327.600006103515625</ele>
        <time>2022-07-27T16:56:25.000Z</time>
      </trkpt>
      <trkpt lat="42.45557363145053386688232421875" lon="2.6348460651934146881103515625">
        <ele>327.399993896484375</ele>
        <time>2022-07-27T16:56:26.000Z</time>
      </trkpt>
      <trkpt lat="42.45559911243617534637451171875" lon="2.63504630886018276214599609375">
        <ele>326.399993896484375</ele>
        <time>2022-07-27T16:56:28.000Z</time>
      </trkpt>
      <trkpt lat="42.45566583238542079925537109375" lon="2.6352219097316265106201171875">
        <ele>324.79998779296875</ele>
        <time>2022-07-27T16:56:30.000Z</time>
      </trkpt>
      <trkpt lat="42.45575384236872196197509765625" lon="2.6353536732494831085205078125">
        <ele>324</ele>
        <time>2022-07-27T16:56:32.000Z</time>
      </trkpt>
      <trkpt lat="42.4558062292635440826416015625" lon="2.63539264909923076629638671875">
        <ele>323.20001220703125</ele>
        <time>2022-07-27T16:56:33.000Z</time>
      </trkpt>
      <trkpt lat="42.45585140772163867950439453125" lon="2.635420896112918853759765625">
        <ele>322.600006103515625</ele>
        <time>2022-07-27T16:56:34.000Z</time>
      </trkpt>
      <trkpt lat="42.45589348487555980682373046875" lon="2.6354468800127506256103515625">
        <ele>322.20001220703125</ele>
        <time>2022-07-27T16:56:35.000Z</time>
      </trkpt>
      <trkpt lat="42.455999515950679779052734375" lon="2.635514438152313232421875">
        <ele>321</ele>
        <time>2022-07-27T16:56:38.000Z</time>
      </trkpt>
      <trkpt lat="42.4560566805303096771240234375" lon="2.63555726967751979827880859375">
        <ele>320.79998779296875</ele>
        <time>2022-07-27T16:56:40.000Z</time>
      </trkpt>
      <trkpt lat="42.4561854265630245208740234375" lon="2.63564251363277435302734375">
        <ele>320</ele>
        <time>2022-07-27T16:56:44.000Z</time>
      </trkpt>
      <trkpt lat="42.45625306852161884307861328125" lon="2.6356681622564792633056640625">
        <ele>319.20001220703125</ele>
        <time>2022-07-27T16:56:46.000Z</time>
      </trkpt>
      <trkpt lat="42.45627201162278652191162109375" lon="2.635701186954975128173828125">
        <ele>319.20001220703125</ele>
        <time>2022-07-27T16:56:47.000Z</time>
      </trkpt>
      <trkpt lat="42.45629212819039821624755859375" lon="2.63573236763477325439453125">
        <ele>319</ele>
        <time>2022-07-27T16:56:48.000Z</time>
      </trkpt>
      <trkpt lat="42.45629816316068172454833984375" lon="2.635928504168987274169921875">
        <ele>318.20001220703125</ele>
        <time>2022-07-27T17:06:22.000Z</time>
      </trkpt>
      <trkpt lat="42.4562997557222843170166015625" lon="2.63596278615295886993408203125">
        <ele>318.20001220703125</ele>
        <time>2022-07-27T17:06:23.000Z</time>
      </trkpt>
      <trkpt lat="42.45628844015300273895263671875" lon="2.636126987636089324951171875">
        <ele>317.399993896484375</ele>
        <time>2022-07-27T17:06:28.000Z</time>
      </trkpt>
      <trkpt lat="42.45628374628722667694091796875" lon="2.63616495765745639801025390625">
        <ele>317.20001220703125</ele>
        <time>2022-07-27T17:06:30.000Z</time>
      </trkpt>
      <trkpt lat="42.4563109874725341796875" lon="2.63630912639200687408447265625">
        <ele>316.600006103515625</ele>
        <time>2022-07-27T17:07:18.000Z</time>
      </trkpt>
      <trkpt lat="42.45633387006819248199462890625" lon="2.63633360154926776885986328125">
        <ele>316.600006103515625</ele>
        <time>2022-07-27T17:07:19.000Z</time>
      </trkpt>
      <trkpt lat="42.45645859278738498687744140625" lon="2.63635195791721343994140625">
        <ele>316.79998779296875</ele>
        <time>2022-07-27T17:07:22.000Z</time>
      </trkpt>
      <trkpt lat="42.45661566965281963348388671875" lon="2.6363239623606204986572265625">
        <ele>316.399993896484375</ele>
        <time>2022-07-27T17:07:25.000Z</time>
      </trkpt>
      <trkpt lat="42.45672999881207942962646484375" lon="2.636312730610370635986328125">
        <ele>316.20001220703125</ele>
        <time>2022-07-27T17:07:27.000Z</time>
      </trkpt>
      <trkpt lat="42.45678951032459735870361328125" lon="2.63630476780235767364501953125">
        <ele>315.399993896484375</ele>
        <time>2022-07-27T17:07:28.000Z</time>
      </trkpt>
      <trkpt lat="42.456905432045459747314453125" lon="2.6362828910350799560546875">
        <ele>314.399993896484375</ele>
        <time>2022-07-27T17:07:30.000Z</time>
      </trkpt>
      <trkpt lat="42.45706477202475070953369140625" lon="2.6362455077469348907470703125">
        <ele>313.20001220703125</ele>
        <time>2022-07-27T17:07:33.000Z</time>
      </trkpt>
      <trkpt lat="42.457114644348621368408203125" lon="2.63623268343508243560791015625">
        <ele>313.20001220703125</ele>
        <time>2022-07-27T17:07:34.000Z</time>
      </trkpt>
      <trkpt lat="42.45716518722474575042724609375" lon="2.63622631318867206573486328125">
        <ele>313</ele>
        <time>2022-07-27T17:07:35.000Z</time>
      </trkpt>
      <trkpt lat="42.45732880197465419769287109375" lon="2.63626637868583202362060546875">
        <ele>313</ele>
        <time>2022-07-27T17:07:38.000Z</time>
      </trkpt>
      <trkpt lat="42.45768587104976177215576171875" lon="2.63636746443808078765869140625">
        <ele>312.600006103515625</ele>
        <time>2022-07-27T17:07:44.000Z</time>
      </trkpt>
      <trkpt lat="42.45791285298764705657958984375" lon="2.63641440309584140777587890625">
        <ele>312.399993896484375</ele>
        <time>2022-07-27T17:07:48.000Z</time>
      </trkpt>
      <trkpt lat="42.45803103782236576080322265625" lon="2.63643468730151653289794921875">
        <ele>312.399993896484375</ele>
        <time>2022-07-27T17:07:50.000Z</time>
      </trkpt>
      <trkpt lat="42.45851836167275905609130859375" lon="2.63651959598064422607421875">
        <ele>311.399993896484375</ele>
        <time>2022-07-27T17:07:58.000Z</time>
      </trkpt>
      <trkpt lat="42.458582483232021331787109375" lon="2.63652940280735492706298828125">
        <ele>311.20001220703125</ele>
        <time>2022-07-27T17:07:59.000Z</time>
      </trkpt>
      <trkpt lat="42.4590570665895938873291015625" lon="2.6366179995238780975341796875">
        <ele>310.600006103515625</ele>
        <time>2022-07-27T17:08:06.000Z</time>
      </trkpt>
      <trkpt lat="42.4594557099044322967529296875" lon="2.636692263185977935791015625">
        <ele>310.79998779296875</ele>
        <time>2022-07-27T17:08:12.000Z</time>
      </trkpt>
      <trkpt lat="42.45983482338488101959228515625" lon="2.63689887709915637969970703125">
        <ele>310.79998779296875</ele>
        <time>2022-07-27T17:08:18.000Z</time>
      </trkpt>
      <trkpt lat="42.4602352268993854522705078125" lon="2.63710431754589080810546875">
        <ele>310.600006103515625</ele>
        <time>2022-07-27T17:08:24.000Z</time>
      </trkpt>
      <trkpt lat="42.4603009410202503204345703125" lon="2.63711412437260150909423828125">
        <ele>310.600006103515625</ele>
        <time>2022-07-27T17:08:25.000Z</time>
      </trkpt>
      <trkpt lat="42.46064770035445690155029296875" lon="2.63706366531550884246826171875">
        <ele>310.600006103515625</ele>
        <time>2022-07-27T17:08:30.000Z</time>
      </trkpt>
      <trkpt lat="42.46090955100953578948974609375" lon="2.63697431422770023345947265625">
        <ele>310.600006103515625</ele>
        <time>2022-07-27T17:08:34.000Z</time>
      </trkpt>
      <trkpt lat="42.46096889488399028778076171875" lon="2.6369636692106723785400390625">
        <ele>311</ele>
        <time>2022-07-27T17:08:35.000Z</time>
      </trkpt>
      <trkpt lat="42.4611508660018444061279296875" lon="2.636944390833377838134765625">
        <ele>311</ele>
        <time>2022-07-27T17:08:38.000Z</time>
      </trkpt>
      <trkpt lat="42.46127433143556118011474609375" lon="2.63699007220566272735595703125">
        <ele>311</ele>
        <time>2022-07-27T17:08:40.000Z</time>
      </trkpt>
      <trkpt lat="42.46143928728997707366943359375" lon="2.63714932836592197418212890625">
        <ele>310.79998779296875</ele>
        <time>2022-07-27T17:08:43.000Z</time>
      </trkpt>
      <trkpt lat="42.46149477548897266387939453125" lon="2.63720816932618618011474609375">
        <ele>311</ele>
        <time>2022-07-27T17:08:44.000Z</time>
      </trkpt>
      <trkpt lat="42.4618358351290225982666015625" lon="2.63757781125605106353759765625">
        <ele>310.600006103515625</ele>
        <time>2022-07-27T17:08:50.000Z</time>
      </trkpt>
      <trkpt lat="42.46219717897474765777587890625" lon="2.637924067676067352294921875">
        <ele>309.600006103515625</ele>
        <time>2022-07-27T17:08:56.000Z</time>
      </trkpt>
      <trkpt lat="42.46231251396238803863525390625" lon="2.63804535381495952606201171875">
        <ele>309.399993896484375</ele>
        <time>2022-07-27T17:08:58.000Z</time>
      </trkpt>
      <trkpt lat="42.46260948479175567626953125" lon="2.63837912119925022125244140625">
        <ele>308.600006103515625</ele>
        <time>2022-07-27T17:09:03.000Z</time>
      </trkpt>
      <trkpt lat="42.462729513645172119140625" lon="2.63851792551577091217041015625">
        <ele>308.399993896484375</ele>
        <time>2022-07-27T17:09:05.000Z</time>
      </trkpt>
      <trkpt lat="42.463058419525623321533203125" lon="2.63893785886466503143310546875">
        <ele>307.600006103515625</ele>
        <time>2022-07-27T17:09:11.000Z</time>
      </trkpt>
      <trkpt lat="42.46315908618271350860595703125" lon="2.63909124769270420074462890625">
        <ele>307.20001220703125</ele>
        <time>2022-07-27T17:09:13.000Z</time>
      </trkpt>
      <trkpt lat="42.46340484358370304107666015625" lon="2.6396291144192218780517578125">
        <ele>307</ele>
        <time>2022-07-27T17:09:19.000Z</time>
      </trkpt>
      <trkpt lat="42.46358639560639858245849609375" lon="2.64023839496076107025146484375">
        <ele>306.79998779296875</ele>
        <time>2022-07-27T17:09:25.000Z</time>
      </trkpt>
      <trkpt lat="42.46379435062408447265625" lon="2.6409789361059665679931640625">
        <ele>306.600006103515625</ele>
        <time>2022-07-27T17:09:32.000Z</time>
      </trkpt>
      <trkpt lat="42.4639702029526233673095703125" lon="2.641726434230804443359375">
        <ele>306</ele>
        <time>2022-07-27T17:09:38.000Z</time>
      </trkpt>
      <trkpt lat="42.4639577977359294891357421875" lon="2.6421487145125865936279296875">
        <ele>305.600006103515625</ele>
        <time>2022-07-27T17:09:41.000Z</time>
      </trkpt>
      <trkpt lat="42.46387858875095844268798828125" lon="2.64241509139537811279296875">
        <ele>304.600006103515625</ele>
        <time>2022-07-27T17:09:43.000Z</time>
      </trkpt>
      <trkpt lat="42.46383751742541790008544921875" lon="2.64254425652325153350830078125">
        <ele>304.20001220703125</ele>
        <time>2022-07-27T17:09:44.000Z</time>
      </trkpt>
      <trkpt lat="42.4637995474040508270263671875" lon="2.64267199672758579254150390625">
        <ele>303.79998779296875</ele>
        <time>2022-07-27T17:09:45.000Z</time>
      </trkpt>
      <trkpt lat="42.46376643888652324676513671875" lon="2.6427994854748249053955078125">
        <ele>302.79998779296875</ele>
        <time>2022-07-27T17:09:46.000Z</time>
      </trkpt>
      <trkpt lat="42.4637418799102306365966796875" lon="2.64292865060269832611083984375">
        <ele>302.399993896484375</ele>
        <time>2022-07-27T17:09:47.000Z</time>
      </trkpt>
      <trkpt lat="42.46372637338936328887939453125" lon="2.643184550106525421142578125">
        <ele>301.600006103515625</ele>
        <time>2022-07-27T17:09:49.000Z</time>
      </trkpt>
      <trkpt lat="42.463746406137943267822265625" lon="2.64343676157295703887939453125">
        <ele>300.399993896484375</ele>
        <time>2022-07-27T17:09:51.000Z</time>
      </trkpt>
      <trkpt lat="42.46379527263343334197998046875" lon="2.6436804234981536865234375">
        <ele>300</ele>
        <time>2022-07-27T17:09:53.000Z</time>
      </trkpt>
      <trkpt lat="42.46382779441773891448974609375" lon="2.6437962613999843597412109375">
        <ele>300</ele>
        <time>2022-07-27T17:09:54.000Z</time>
      </trkpt>
      <trkpt lat="42.4639244377613067626953125" lon="2.64413732104003429412841796875">
        <ele>299.399993896484375</ele>
        <time>2022-07-27T17:09:57.000Z</time>
      </trkpt>
      <trkpt lat="42.46393877081573009490966796875" lon="2.64425483532249927520751953125">
        <ele>299.399993896484375</ele>
        <time>2022-07-27T17:09:58.000Z</time>
      </trkpt>
      <trkpt lat="42.46390256099402904510498046875" lon="2.6447152532637119293212890625">
        <ele>299.399993896484375</ele>
        <time>2022-07-27T17:10:02.000Z</time>
      </trkpt>
      <trkpt lat="42.4638193286955356597900390625" lon="2.64538169838488101959228515625">
        <ele>300.20001220703125</ele>
        <time>2022-07-27T17:10:08.000Z</time>
      </trkpt>
      <trkpt lat="42.46382452547550201416015625" lon="2.64549921266734600067138671875">
        <ele>300.600006103515625</ele>
        <time>2022-07-27T17:10:09.000Z</time>
      </trkpt>
      <trkpt lat="42.46395821683108806610107421875" lon="2.6458015479147434234619140625">
        <ele>300.79998779296875</ele>
        <time>2022-07-27T17:10:12.000Z</time>
      </trkpt>
      <trkpt lat="42.4641163833439350128173828125" lon="2.64593943022191524505615234375">
        <ele>301</ele>
        <time>2022-07-27T17:10:14.000Z</time>
      </trkpt>
      <trkpt lat="42.464288212358951568603515625" lon="2.6460737921297550201416015625">
        <ele>301</ele>
        <time>2022-07-27T17:10:16.000Z</time>
      </trkpt>
      <trkpt lat="42.46454377658665180206298828125" lon="2.64630429446697235107421875">
        <ele>300.399993896484375</ele>
        <time>2022-07-27T17:10:19.000Z</time>
      </trkpt>
      <trkpt lat="42.4646162800490856170654296875" lon="2.646403200924396514892578125">
        <ele>299.79998779296875</ele>
        <time>2022-07-27T17:10:20.000Z</time>
      </trkpt>
      <trkpt lat="42.4646766297519207000732421875" lon="2.64651375822722911834716796875">
        <ele>299.20001220703125</ele>
        <time>2022-07-27T17:10:21.000Z</time>
      </trkpt>
      <trkpt lat="42.46477629058063030242919921875" lon="2.64674610458314418792724609375">
        <ele>297.600006103515625</ele>
        <time>2022-07-27T17:10:23.000Z</time>
      </trkpt>
      <trkpt lat="42.464817948639392852783203125" lon="2.64686345122754573822021484375">
        <ele>297</ele>
        <time>2022-07-27T17:10:24.000Z</time>
      </trkpt>
      <trkpt lat="42.4648583494126796722412109375" lon="2.64697861857712268829345703125">
        <ele>296.20001220703125</ele>
        <time>2022-07-27T17:10:25.000Z</time>
      </trkpt>
      <trkpt lat="42.4649458564817905426025390625" lon="2.6471994817256927490234375">
        <ele>294.79998779296875</ele>
        <time>2022-07-27T17:10:27.000Z</time>
      </trkpt>
      <trkpt lat="42.465090863406658172607421875" lon="2.6475091092288494110107421875">
        <ele>293.79998779296875</ele>
        <time>2022-07-27T17:10:30.000Z</time>
      </trkpt>
      <trkpt lat="42.4653401412069797515869140625" lon="2.64807547442615032196044921875">
        <ele>293.600006103515625</ele>
        <time>2022-07-27T17:10:36.000Z</time>
      </trkpt>
      <trkpt lat="42.465583719313144683837890625" lon="2.6486017741262912750244140625">
        <ele>294.79998779296875</ele>
        <time>2022-07-27T17:10:42.000Z</time>
      </trkpt>
      <trkpt lat="42.4659025669097900390625" lon="2.6492817141115665435791015625">
        <ele>295</ele>
        <time>2022-07-27T17:10:49.000Z</time>
      </trkpt>
      <trkpt lat="42.465949170291423797607421875" lon="2.64938414096832275390625">
        <ele>295</ele>
        <time>2022-07-27T17:10:50.000Z</time>
      </trkpt>
      <trkpt lat="42.46614404954016208648681640625" lon="2.64994950033724308013916015625">
        <ele>294.399993896484375</ele>
        <time>2022-07-27T17:10:55.000Z</time>
      </trkpt>
      <trkpt lat="42.4662296287715435028076171875" lon="2.65031193383038043975830078125">
        <ele>293.399993896484375</ele>
        <time>2022-07-27T17:10:58.000Z</time>
      </trkpt>
      <trkpt lat="42.466334067285060882568359375" lon="2.65079204924404621124267578125">
        <ele>292.20001220703125</ele>
        <time>2022-07-27T17:11:02.000Z</time>
      </trkpt>
      <trkpt lat="42.46635912917554378509521484375" lon="2.6509081386029720306396484375">
        <ele>292</ele>
        <time>2022-07-27T17:11:03.000Z</time>
      </trkpt>
      <trkpt lat="42.4664887972176074981689453125" lon="2.65156066976487636566162109375">
        <ele>291.600006103515625</ele>
        <time>2022-07-27T17:11:09.000Z</time>
      </trkpt>
      <trkpt lat="42.46665098704397678375244140625" lon="2.6522663421928882598876953125">
        <ele>291.600006103515625</ele>
        <time>2022-07-27T17:11:16.000Z</time>
      </trkpt>
      <trkpt lat="42.4666986800730228424072265625" lon="2.6524805836379528045654296875">
        <ele>291.399993896484375</ele>
        <time>2022-07-27T17:11:18.000Z</time>
      </trkpt>
      <trkpt lat="42.46678794734179973602294921875" lon="2.6529379002749919891357421875">
        <ele>291.399993896484375</ele>
        <time>2022-07-27T17:11:22.000Z</time>
      </trkpt>
      <trkpt lat="42.466954998672008514404296875" lon="2.65368011780083179473876953125">
        <ele>290</ele>
        <time>2022-07-27T17:11:28.000Z</time>
      </trkpt>
      <trkpt lat="42.46700587682425975799560546875" lon="2.65393056906759738922119140625">
        <ele>288.79998779296875</ele>
        <time>2022-07-27T17:11:30.000Z</time>
      </trkpt>
      <trkpt lat="42.46706069447100162506103515625" lon="2.65417666174471378326416015625">
        <ele>287.600006103515625</ele>
        <time>2022-07-27T17:11:32.000Z</time>
      </trkpt>
      <trkpt lat="42.4671627022325992584228515625" lon="2.65466482378542423248291015625">
        <ele>286.79998779296875</ele>
        <time>2022-07-27T17:11:36.000Z</time>
      </trkpt>
      <trkpt lat="42.46721408329904079437255859375" lon="2.65491276048123836517333984375">
        <ele>286.600006103515625</ele>
        <time>2022-07-27T17:11:38.000Z</time>
      </trkpt>
      <trkpt lat="42.4673678912222385406494140625" lon="2.6556472666561603546142578125">
        <ele>286</ele>
        <time>2022-07-27T17:11:44.000Z</time>
      </trkpt>
      <trkpt lat="42.4673925340175628662109375" lon="2.65576570294797420501708984375">
        <ele>286</ele>
        <time>2022-07-27T17:11:45.000Z</time>
      </trkpt>
      <trkpt lat="42.46749018318951129913330078125" lon="2.6562343351542949676513671875">
        <ele>285.79998779296875</ele>
        <time>2022-07-27T17:11:49.000Z</time>
      </trkpt>
      <trkpt lat="42.46762043796479701995849609375" lon="2.656850405037403106689453125">
        <ele>285.399993896484375</ele>
        <time>2022-07-27T17:11:54.000Z</time>
      </trkpt>
      <trkpt lat="42.46779017150402069091796875" lon="2.65762631781399250030517578125">
        <ele>284.600006103515625</ele>
        <time>2022-07-27T17:12:00.000Z</time>
      </trkpt>
      <trkpt lat="42.4678459949791431427001953125" lon="2.65788833610713481903076171875">
        <ele>284</ele>
        <time>2022-07-27T17:12:02.000Z</time>
      </trkpt>
      <trkpt lat="42.4678731523454189300537109375" lon="2.658017836511135101318359375">
        <ele>283.399993896484375</ele>
        <time>2022-07-27T17:12:03.000Z</time>
      </trkpt>
      <trkpt lat="42.46795990504324436187744140625" lon="2.65840415842831134796142578125">
        <ele>282.600006103515625</ele>
        <time>2022-07-27T17:12:06.000Z</time>
      </trkpt>
      <trkpt lat="42.46803224086761474609375" lon="2.6586650870740413665771484375">
        <ele>281.600006103515625</ele>
        <time>2022-07-27T17:12:08.000Z</time>
      </trkpt>
      <trkpt lat="42.468245811760425567626953125" lon="2.65916959382593631744384765625">
        <ele>280.399993896484375</ele>
        <time>2022-07-27T17:12:12.000Z</time>
      </trkpt>
      <trkpt lat="42.468556948006153106689453125" lon="2.659757249057292938232421875">
        <ele>279.20001220703125</ele>
        <time>2022-07-27T17:12:17.000Z</time>
      </trkpt>
      <trkpt lat="42.46868066489696502685546875" lon="2.65997827984392642974853515625">
        <ele>278</ele>
        <time>2022-07-27T17:12:19.000Z</time>
      </trkpt>
      <trkpt lat="42.46888308785855770111083984375" lon="2.6604199223220348358154296875">
        <ele>276.79998779296875</ele>
        <time>2022-07-27T17:12:23.000Z</time>
      </trkpt>
      <trkpt lat="42.468921057879924774169921875" lon="2.66053341329097747802734375">
        <ele>276.20001220703125</ele>
        <time>2022-07-27T17:12:24.000Z</time>
      </trkpt>
      <trkpt lat="42.46895668096840381622314453125" lon="2.66064749099314212799072265625">
        <ele>275.600006103515625</ele>
        <time>2022-07-27T17:12:25.000Z</time>
      </trkpt>
      <trkpt lat="42.46905843727290630340576171875" lon="2.66098000109195709228515625">
        <ele>275.20001220703125</ele>
        <time>2022-07-27T17:12:28.000Z</time>
      </trkpt>
      <trkpt lat="42.4691036157310009002685546875" lon="2.6610810868442058563232421875">
        <ele>275</ele>
        <time>2022-07-27T17:12:29.000Z</time>
      </trkpt>
      <trkpt lat="42.4692806415259838104248046875" lon="2.66136196441948413848876953125">
        <ele>275</ele>
        <time>2022-07-27T17:12:32.000Z</time>
      </trkpt>
      <trkpt lat="42.46934778057038784027099609375" lon="2.66145332716405391693115234375">
        <ele>275</ele>
        <time>2022-07-27T17:12:33.000Z</time>
      </trkpt>
      <trkpt lat="42.46976955793797969818115234375" lon="2.66199278645217418670654296875">
        <ele>274.600006103515625</ele>
        <time>2022-07-27T17:12:39.000Z</time>
      </trkpt>
      <trkpt lat="42.46985086239874362945556640625" lon="2.662065960466861724853515625">
        <ele>274.399993896484375</ele>
        <time>2022-07-27T17:12:40.000Z</time>
      </trkpt>
      <trkpt lat="42.47029401361942291259765625" lon="2.662365026772022247314453125">
        <ele>274</ele>
        <time>2022-07-27T17:12:45.000Z</time>
      </trkpt>
      <trkpt lat="42.47038143686950206756591796875" lon="2.66241406090557575225830078125">
        <ele>273.600006103515625</ele>
        <time>2022-07-27T17:12:46.000Z</time>
      </trkpt>
      <trkpt lat="42.4707934074103832244873046875" lon="2.66264162957668304443359375">
        <ele>272.600006103515625</ele>
        <time>2022-07-27T17:12:51.000Z</time>
      </trkpt>
      <trkpt lat="42.47087513096630573272705078125" lon="2.662674821913242340087890625">
        <ele>272.399993896484375</ele>
        <time>2022-07-27T17:12:52.000Z</time>
      </trkpt>
      <trkpt lat="42.47112474404275417327880859375" lon="2.66270156018435955047607421875">
        <ele>272.600006103515625</ele>
        <time>2022-07-27T17:12:55.000Z</time>
      </trkpt>
      <trkpt lat="42.4712815694510936737060546875" lon="2.66266903840005397796630859375">
        <ele>272.600006103515625</ele>
        <time>2022-07-27T17:12:57.000Z</time>
      </trkpt>
      <trkpt lat="42.47157610952854156494140625" lon="2.66259066760540008544921875">
        <ele>272.399993896484375</ele>
        <time>2022-07-27T17:13:01.000Z</time>
      </trkpt>
      <trkpt lat="42.47218891046941280364990234375" lon="2.66248061321675777435302734375">
        <ele>272.600006103515625</ele>
        <time>2022-07-27T17:13:09.000Z</time>
      </trkpt>
      <trkpt lat="42.4722716398537158966064453125" lon="2.662483714520931243896484375">
        <ele>272.399993896484375</ele>
        <time>2022-07-27T17:13:10.000Z</time>
      </trkpt>
      <trkpt lat="42.472514212131500244140625" lon="2.6625294797122478485107421875">
        <ele>272.20001220703125</ele>
        <time>2022-07-27T17:13:13.000Z</time>
      </trkpt>
      <trkpt lat="42.47265913523733615875244140625" lon="2.662608437240123748779296875">
        <ele>272</ele>
        <time>2022-07-27T17:13:15.000Z</time>
      </trkpt>
      <trkpt lat="42.47279458679258823394775390625" lon="2.66270055435597896575927734375">
        <ele>271.399993896484375</ele>
        <time>2022-07-27T17:13:17.000Z</time>
      </trkpt>
      <trkpt lat="42.4730548448860645294189453125" lon="2.66286785714328289031982421875">
        <ele>270.79998779296875</ele>
        <time>2022-07-27T17:13:21.000Z</time>
      </trkpt>
      <trkpt lat="42.4734221398830413818359375" lon="2.66311177052557468414306640625">
        <ele>270.600006103515625</ele>
        <time>2022-07-27T17:13:27.000Z</time>
      </trkpt>
      <trkpt lat="42.4736013449728488922119140625" lon="2.66323498450219631195068359375">
        <ele>270.600006103515625</ele>
        <time>2022-07-27T17:13:30.000Z</time>
      </trkpt>
      <trkpt lat="42.4736715853214263916015625" lon="2.66325208358466625213623046875">
        <ele>270.600006103515625</ele>
        <time>2022-07-27T17:13:31.000Z</time>
      </trkpt>
      <trkpt lat="42.4738859944045543670654296875" lon="2.66324286349117755889892578125">
        <ele>270.600006103515625</ele>
        <time>2022-07-27T17:13:34.000Z</time>
      </trkpt>
      <trkpt lat="42.47407081536948680877685546875" lon="2.663404047489166259765625">
        <ele>270.600006103515625</ele>
        <time>2022-07-27T17:13:37.000Z</time>
      </trkpt>
      <trkpt lat="42.47419126331806182861328125" lon="2.6635423488914966583251953125">
        <ele>270.399993896484375</ele>
        <time>2022-07-27T17:13:39.000Z</time>
      </trkpt>
      <trkpt lat="42.47435982339084148406982421875" lon="2.66378953121602535247802734375">
        <ele>270</ele>
        <time>2022-07-27T17:13:42.000Z</time>
      </trkpt>
      <trkpt lat="42.47460071928799152374267578125" lon="2.6642382144927978515625">
        <ele>269.399993896484375</ele>
        <time>2022-07-27T17:13:47.000Z</time>
      </trkpt>
      <trkpt lat="42.47469727881252765655517578125" lon="2.6644093729555606842041015625">
        <ele>269.20001220703125</ele>
        <time>2022-07-27T17:13:49.000Z</time>
      </trkpt>
      <trkpt lat="42.47494856826961040496826171875" lon="2.664821259677410125732421875">
        <ele>268.600006103515625</ele>
        <time>2022-07-27T17:13:54.000Z</time>
      </trkpt>
      <trkpt lat="42.475104220211505889892578125" lon="2.66521126963198184967041015625">
        <ele>268.399993896484375</ele>
        <time>2022-07-27T17:13:58.000Z</time>
      </trkpt>
      <trkpt lat="42.47518158517777919769287109375" lon="2.66552768647670745849609375">
        <ele>268</ele>
        <time>2022-07-27T17:14:01.000Z</time>
      </trkpt>
      <trkpt lat="42.475216872990131378173828125" lon="2.6660840772092342376708984375">
        <ele>267.20001220703125</ele>
        <time>2022-07-27T17:14:06.000Z</time>
      </trkpt>
      <trkpt lat="42.4752016179263591766357421875" lon="2.66644240356981754302978515625">
        <ele>266.20001220703125</ele>
        <time>2022-07-27T17:14:09.000Z</time>
      </trkpt>
      <trkpt lat="42.4751523323357105255126953125" lon="2.6667938567698001861572265625">
        <ele>265.79998779296875</ele>
        <time>2022-07-27T17:14:12.000Z</time>
      </trkpt>
      <trkpt lat="42.47510447166860103607177734375" lon="2.66702243126928806304931640625">
        <ele>265.20001220703125</ele>
        <time>2022-07-27T17:14:14.000Z</time>
      </trkpt>
      <trkpt lat="42.474992573261260986328125" lon="2.6673628203570842742919921875">
        <ele>264.399993896484375</ele>
        <time>2022-07-27T17:14:17.000Z</time>
      </trkpt>
      <trkpt lat="42.47484547086060047149658203125" lon="2.66769130714237689971923828125">
        <ele>264</ele>
        <time>2022-07-27T17:14:20.000Z</time>
      </trkpt>
      <trkpt lat="42.47473348863422870635986328125" lon="2.66790420748293399810791015625">
        <ele>263.600006103515625</ele>
        <time>2022-07-27T17:14:22.000Z</time>
      </trkpt>
      <trkpt lat="42.4746132083237171173095703125" lon="2.66811375506222248077392578125">
        <ele>262.79998779296875</ele>
        <time>2022-07-27T17:14:24.000Z</time>
      </trkpt>
      <trkpt lat="42.47449477203190326690673828125" lon="2.6683245599269866943359375">
        <ele>261.600006103515625</ele>
        <time>2022-07-27T17:14:26.000Z</time>
      </trkpt>
      <trkpt lat="42.47426812537014484405517578125" lon="2.6687537133693695068359375">
        <ele>260.79998779296875</ele>
        <time>2022-07-27T17:14:30.000Z</time>
      </trkpt>
      <trkpt lat="42.4742107093334197998046875" lon="2.66885706223547458648681640625">
        <ele>260.20001220703125</ele>
        <time>2022-07-27T17:14:31.000Z</time>
      </trkpt>
      <trkpt lat="42.47404214926064014434814453125" lon="2.66917280852794647216796875">
        <ele>258.600006103515625</ele>
        <time>2022-07-27T17:14:34.000Z</time>
      </trkpt>
      <trkpt lat="42.47387534938752651214599609375" lon="2.6694861240684986114501953125">
        <ele>257.399993896484375</ele>
        <time>2022-07-27T17:14:37.000Z</time>
      </trkpt>
      <trkpt lat="42.47377124615013599395751953125" lon="2.66968603245913982391357421875">
        <ele>257.399993896484375</ele>
        <time>2022-07-27T17:14:39.000Z</time>
      </trkpt>
      <trkpt lat="42.4736171029508113861083984375" lon="2.66999716870486736297607421875">
        <ele>257.399993896484375</ele>
        <time>2022-07-27T17:14:43.000Z</time>
      </trkpt>
      <trkpt lat="42.47353051789104938507080078125" lon="2.67021141014993190765380859375">
        <ele>257.600006103515625</ele>
        <time>2022-07-27T17:14:47.000Z</time>
      </trkpt>
      <trkpt lat="42.47351610101759433746337890625" lon="2.67026907764375209808349609375">
        <ele>257.600006103515625</ele>
        <time>2022-07-27T17:14:48.000Z</time>
      </trkpt>
      <trkpt lat="42.47348181903362274169921875" lon="2.67040218226611614227294921875">
        <ele>258.600006103515625</ele>
        <time>2022-07-27T17:14:50.000Z</time>
      </trkpt>
      <trkpt lat="42.47346228919923305511474609375" lon="2.67048398964107036590576171875">
        <ele>259.600006103515625</ele>
        <time>2022-07-27T17:14:51.000Z</time>
      </trkpt>
      <trkpt lat="42.473439238965511322021484375" lon="2.67057635821402072906494140625">
        <ele>260.20001220703125</ele>
        <time>2022-07-27T17:14:52.000Z</time>
      </trkpt>
      <trkpt lat="42.47335952706634998321533203125" lon="2.67090819776058197021484375">
        <ele>260.600006103515625</ele>
        <time>2022-07-27T17:14:55.000Z</time>
      </trkpt>
      <trkpt lat="42.473333291709423065185546875" lon="2.67103032208979129791259765625">
        <ele>260.600006103515625</ele>
        <time>2022-07-27T17:14:56.000Z</time>
      </trkpt>
      <trkpt lat="42.47320312075316905975341796875" lon="2.67176927067339420318603515625">
        <ele>259.20001220703125</ele>
        <time>2022-07-27T17:15:02.000Z</time>
      </trkpt>
      <trkpt lat="42.473197169601917266845703125" lon="2.67188854515552520751953125">
        <ele>257.79998779296875</ele>
        <time>2022-07-27T17:15:03.000Z</time>
      </trkpt>
      <trkpt lat="42.473195828497409820556640625" lon="2.6720067299902439117431640625">
        <ele>256.399993896484375</ele>
        <time>2022-07-27T17:15:04.000Z</time>
      </trkpt>
      <trkpt lat="42.47320949099957942962646484375" lon="2.67223949544131755828857421875">
        <ele>255</ele>
        <time>2022-07-27T17:15:06.000Z</time>
      </trkpt>
      <trkpt lat="42.47322776354849338531494140625" lon="2.6724640466272830963134765625">
        <ele>254.8000030517578125</ele>
        <time>2022-07-27T17:15:08.000Z</time>
      </trkpt>
      <trkpt lat="42.47322742827236652374267578125" lon="2.67295514233410358428955078125">
        <ele>254.600006103515625</ele>
        <time>2022-07-27T17:15:13.000Z</time>
      </trkpt>
      <trkpt lat="42.47319725342094898223876953125" lon="2.67333551310002803802490234375">
        <ele>254.8000030517578125</ele>
        <time>2022-07-27T17:15:18.000Z</time>
      </trkpt>
      <trkpt lat="42.47318317182362079620361328125" lon="2.67346928827464580535888671875">
        <ele>255.399993896484375</ele>
        <time>2022-07-27T17:15:20.000Z</time>
      </trkpt>
      <trkpt lat="42.4731430225074291229248046875" lon="2.6735977828502655029296875">
        <ele>257</ele>
        <time>2022-07-27T17:15:22.000Z</time>
      </trkpt>
      <trkpt lat="42.4731302820146083831787109375" lon="2.673662491142749786376953125">
        <ele>257.79998779296875</ele>
        <time>2022-07-27T17:15:23.000Z</time>
      </trkpt>
      <trkpt lat="42.47313891537487506866455078125" lon="2.6737238466739654541015625">
        <ele>258.399993896484375</ele>
        <time>2022-07-27T17:15:24.000Z</time>
      </trkpt>
      <trkpt lat="42.4731661565601825714111328125" lon="2.6737801730632781982421875">
        <ele>258.79998779296875</ele>
        <time>2022-07-27T17:15:25.000Z</time>
      </trkpt>
      <trkpt lat="42.4732746183872222900390625" lon="2.67396449111402034759521484375">
        <ele>259</ele>
        <time>2022-07-27T17:15:28.000Z</time>
      </trkpt>
      <trkpt lat="42.4733569286763668060302734375" lon="2.6741068996489048004150390625">
        <ele>259.20001220703125</ele>
        <time>2022-07-27T17:15:30.000Z</time>
      </trkpt>
      <trkpt lat="42.47361836023628711700439453125" lon="2.6745440997183322906494140625">
        <ele>259.20001220703125</ele>
        <time>2022-07-27T17:15:36.000Z</time>
      </trkpt>
      <trkpt lat="42.47391172684729099273681640625" lon="2.675007283687591552734375">
        <ele>257.79998779296875</ele>
        <time>2022-07-27T17:15:42.000Z</time>
      </trkpt>
      <trkpt lat="42.47408472932875156402587890625" lon="2.67523300834000110626220703125">
        <ele>257.600006103515625</ele>
        <time>2022-07-27T17:15:45.000Z</time>
      </trkpt>
      <trkpt lat="42.4742269702255725860595703125" lon="2.67534364946186542510986328125">
        <ele>257.399993896484375</ele>
        <time>2022-07-27T17:15:47.000Z</time>
      </trkpt>
      <trkpt lat="42.4745500087738037109375" lon="2.67544071190059185028076171875">
        <ele>257</ele>
        <time>2022-07-27T17:15:51.000Z</time>
      </trkpt>
      <trkpt lat="42.4746403656899929046630859375" lon="2.67544724978506565093994140625">
        <ele>257</ele>
        <time>2022-07-27T17:15:52.000Z</time>
      </trkpt>
      <trkpt lat="42.47490900568664073944091796875" lon="2.6754423044621944427490234375">
        <ele>256.600006103515625</ele>
        <time>2022-07-27T17:15:55.000Z</time>
      </trkpt>
      <trkpt lat="42.47499684803187847137451171875" lon="2.67541623674333095550537109375">
        <ele>256.600006103515625</ele>
        <time>2022-07-27T17:15:56.000Z</time>
      </trkpt>
      <trkpt lat="42.4754259176552295684814453125" lon="2.6751891709864139556884765625">
        <ele>256</ele>
        <time>2022-07-27T17:16:01.000Z</time>
      </trkpt>
      <trkpt lat="42.475596405565738677978515625" lon="2.6750944554805755615234375">
        <ele>255.399993896484375</ele>
        <time>2022-07-27T17:16:03.000Z</time>
      </trkpt>
      <trkpt lat="42.47576530091464519500732421875" lon="2.67500233836472034454345703125">
        <ele>254.399993896484375</ele>
        <time>2022-07-27T17:16:05.000Z</time>
      </trkpt>
      <trkpt lat="42.47609026730060577392578125" lon="2.67483218573033809661865234375">
        <ele>253.1999969482421875</ele>
        <time>2022-07-27T17:16:09.000Z</time>
      </trkpt>
      <trkpt lat="42.4766241945326328277587890625" lon="2.67450981773436069488525390625">
        <ele>252.600006103515625</ele>
        <time>2022-07-27T17:16:16.000Z</time>
      </trkpt>
      <trkpt lat="42.47669686563313007354736328125" lon="2.67444997094571590423583984375">
        <ele>252.399993896484375</ele>
        <time>2022-07-27T17:16:17.000Z</time>
      </trkpt>
      <trkpt lat="42.47684304602444171905517578125" lon="2.67433413304388523101806640625">
        <ele>252.1999969482421875</ele>
        <time>2022-07-27T17:16:19.000Z</time>
      </trkpt>
      <trkpt lat="42.4769199080765247344970703125" lon="2.67428333871066570281982421875">
        <ele>252</ele>
        <time>2022-07-27T17:16:20.000Z</time>
      </trkpt>
      <trkpt lat="42.47707807458937168121337890625" lon="2.67421511001884937286376953125">
        <ele>251.600006103515625</ele>
        <time>2022-07-27T17:16:22.000Z</time>
      </trkpt>
      <trkpt lat="42.4772380851209163665771484375" lon="2.67414386384189128875732421875">
        <ele>251.399993896484375</ele>
        <time>2022-07-27T17:16:24.000Z</time>
      </trkpt>
      <trkpt lat="42.47731545008718967437744140625" lon="2.6740988530218601226806640625">
        <ele>251.1999969482421875</ele>
        <time>2022-07-27T17:16:25.000Z</time>
      </trkpt>
      <trkpt lat="42.47746800072491168975830078125" lon="2.67400355078279972076416015625">
        <ele>251</ele>
        <time>2022-07-27T17:16:27.000Z</time>
      </trkpt>
      <trkpt lat="42.477842085063457489013671875" lon="2.67378729768097400665283203125">
        <ele>250.1999969482421875</ele>
        <time>2022-07-27T17:16:32.000Z</time>
      </trkpt>
      <trkpt lat="42.4779260717332363128662109375" lon="2.67376701347529888153076171875">
        <ele>250</ele>
        <time>2022-07-27T17:16:33.000Z</time>
      </trkpt>
      <trkpt lat="42.47816068120300769805908203125" lon="2.67381546087563037872314453125">
        <ele>249.8000030517578125</ele>
        <time>2022-07-27T17:16:36.000Z</time>
      </trkpt>
      <trkpt lat="42.47836017049849033355712890625" lon="2.67394839785993099212646484375">
        <ele>249.600006103515625</ele>
        <time>2022-07-27T17:16:39.000Z</time>
      </trkpt>
      <trkpt lat="42.47842370532453060150146484375" lon="2.67399634234607219696044921875">
        <ele>249.600006103515625</ele>
        <time>2022-07-27T17:16:40.000Z</time>
      </trkpt>
      <trkpt lat="42.47892393730580806732177734375" lon="2.674363553524017333984375">
        <ele>251</ele>
        <time>2022-07-27T17:16:48.000Z</time>
      </trkpt>
      <trkpt lat="42.478987388312816619873046875" lon="2.6744083128869533538818359375">
        <ele>251.1999969482421875</ele>
        <time>2022-07-27T17:16:49.000Z</time>
      </trkpt>
      <trkpt lat="42.4794254265725612640380859375" lon="2.6747399009764194488525390625">
        <ele>251.600006103515625</ele>
        <time>2022-07-27T17:16:56.000Z</time>
      </trkpt>
      <trkpt lat="42.47985231690108776092529296875" lon="2.675055563449859619140625">
        <ele>252.1999969482421875</ele>
        <time>2022-07-27T17:17:03.000Z</time>
      </trkpt>
      <trkpt lat="42.4799109064042568206787109375" lon="2.675106860697269439697265625">
        <ele>252.1999969482421875</ele>
        <time>2022-07-27T17:17:04.000Z</time>
      </trkpt>
      <trkpt lat="42.480060271918773651123046875" lon="2.675309367477893829345703125">
        <ele>252.1999969482421875</ele>
        <time>2022-07-27T17:17:07.000Z</time>
      </trkpt>
      <trkpt lat="42.48043469153344631195068359375" lon="2.67596022225916385650634765625">
        <ele>252.1999969482421875</ele>
        <time>2022-07-27T17:17:15.000Z</time>
      </trkpt>
      <trkpt lat="42.48076862655580043792724609375" lon="2.6765406690537929534912109375">
        <ele>251.600006103515625</ele>
        <time>2022-07-27T17:17:22.000Z</time>
      </trkpt>
      <trkpt lat="42.4808134697377681732177734375" lon="2.67662373371422290802001953125">
        <ele>251.600006103515625</ele>
        <time>2022-07-27T17:17:23.000Z</time>
      </trkpt>
      <trkpt lat="42.48096878640353679656982421875" lon="2.67707350663840770721435546875">
        <ele>251.399993896484375</ele>
        <time>2022-07-27T17:17:28.000Z</time>
      </trkpt>
      <trkpt lat="42.48109954409301280975341796875" lon="2.67771438695490360260009765625">
        <ele>251</ele>
        <time>2022-07-27T17:17:35.000Z</time>
      </trkpt>
      <trkpt lat="42.48115670867264270782470703125" lon="2.67810992896556854248046875">
        <ele>250.600006103515625</ele>
        <time>2022-07-27T17:17:40.000Z</time>
      </trkpt>
      <trkpt lat="42.48124287463724613189697265625" lon="2.67840840853750705718994140625">
        <ele>250.8000030517578125</ele>
        <time>2022-07-27T17:17:44.000Z</time>
      </trkpt>
      <trkpt lat="42.4812768213450908660888671875" lon="2.67848870716989040374755859375">
        <ele>250.8000030517578125</ele>
        <time>2022-07-27T17:17:45.000Z</time>
      </trkpt>
      <trkpt lat="42.4814002029597759246826171875" lon="2.67884376458823680877685546875">
        <ele>250.600006103515625</ele>
        <time>2022-07-27T17:17:49.000Z</time>
      </trkpt>
      <trkpt lat="42.481531463563442230224609375" lon="2.6792265661060810089111328125">
        <ele>250.399993896484375</ele>
        <time>2022-07-27T17:17:53.000Z</time>
      </trkpt>
      <trkpt lat="42.48165425844490528106689453125" lon="2.67961892299354076385498046875">
        <ele>250.1999969482421875</ele>
        <time>2022-07-27T17:17:57.000Z</time>
      </trkpt>
      <trkpt lat="42.48173573054373264312744140625" lon="2.67991430126130580902099609375">
        <ele>249.600006103515625</ele>
        <time>2022-07-27T17:18:00.000Z</time>
      </trkpt>
      <trkpt lat="42.4818451143801212310791015625" lon="2.68033440224826335906982421875">
        <ele>249.1999969482421875</ele>
        <time>2022-07-27T17:18:04.000Z</time>
      </trkpt>
      <trkpt lat="42.48203278519213199615478515625" lon="2.68100998364388942718505859375">
        <ele>248.1999969482421875</ele>
        <time>2022-07-27T17:18:10.000Z</time>
      </trkpt>
      <trkpt lat="42.4820990860462188720703125" lon="2.681243084371089935302734375">
        <ele>247.8000030517578125</ele>
        <time>2022-07-27T17:18:12.000Z</time>
      </trkpt>
      <trkpt lat="42.482128925621509552001953125" lon="2.6813619397580623626708984375">
        <ele>247.600006103515625</ele>
        <time>2022-07-27T17:18:13.000Z</time>
      </trkpt>
      <trkpt lat="42.4821592681109905242919921875" lon="2.681607864797115325927734375">
        <ele>247</ele>
        <time>2022-07-27T17:18:15.000Z</time>
      </trkpt>
      <trkpt lat="42.4821607768535614013671875" lon="2.6817327551543712615966796875">
        <ele>246.600006103515625</ele>
        <time>2022-07-27T17:18:16.000Z</time>
      </trkpt>
      <trkpt lat="42.48214560560882091522216796875" lon="2.68198513425886631011962890625">
        <ele>246.1999969482421875</ele>
        <time>2022-07-27T17:18:18.000Z</time>
      </trkpt>
      <trkpt lat="42.48213370330631732940673828125" lon="2.682110108435153961181640625">
        <ele>246</ele>
        <time>2022-07-27T17:18:19.000Z</time>
      </trkpt>
      <trkpt lat="42.48210654594004154205322265625" lon="2.68235452473163604736328125">
        <ele>245.600006103515625</ele>
        <time>2022-07-27T17:18:21.000Z</time>
      </trkpt>
      <trkpt lat="42.4820590205490589141845703125" lon="2.68283287994563579559326171875">
        <ele>244.8000030517578125</ele>
        <time>2022-07-27T17:18:25.000Z</time>
      </trkpt>
      <trkpt lat="42.48201115988194942474365234375" lon="2.68329195678234100341796875">
        <ele>243.600006103515625</ele>
        <time>2022-07-27T17:18:29.000Z</time>
      </trkpt>
      <trkpt lat="42.48199556954205036163330078125" lon="2.68340251408517360687255859375">
        <ele>243.600006103515625</ele>
        <time>2022-07-27T17:18:30.000Z</time>
      </trkpt>
      <trkpt lat="42.48189196921885013580322265625" lon="2.68422259949147701263427734375">
        <ele>243</ele>
        <time>2022-07-27T17:18:37.000Z</time>
      </trkpt>
      <trkpt lat="42.48187185265123844146728515625" lon="2.684474475681781768798828125">
        <ele>242.8000030517578125</ele>
        <time>2022-07-27T17:18:39.000Z</time>
      </trkpt>
      <trkpt lat="42.481899596750736236572265625" lon="2.68473171629011631011962890625">
        <ele>242.600006103515625</ele>
        <time>2022-07-27T17:18:41.000Z</time>
      </trkpt>
      <trkpt lat="42.4819684959948062896728515625" lon="2.684990800917148590087890625">
        <ele>242.1999969482421875</ele>
        <time>2022-07-27T17:18:43.000Z</time>
      </trkpt>
      <trkpt lat="42.4820073880255222320556640625" lon="2.6851244084537029266357421875">
        <ele>241.600006103515625</ele>
        <time>2022-07-27T17:18:44.000Z</time>
      </trkpt>
      <trkpt lat="42.48208508826792240142822265625" lon="2.685397155582904815673828125">
        <ele>240.399993896484375</ele>
        <time>2022-07-27T17:18:46.000Z</time>
      </trkpt>
      <trkpt lat="42.482162453234195709228515625" lon="2.68567367456853389739990234375">
        <ele>238.8000030517578125</ele>
        <time>2022-07-27T17:18:48.000Z</time>
      </trkpt>
      <trkpt lat="42.4822759442031383514404296875" lon="2.68608405254781246185302734375">
        <ele>237.399993896484375</ele>
        <time>2022-07-27T17:18:51.000Z</time>
      </trkpt>
      <trkpt lat="42.48238314874470233917236328125" lon="2.68648202531039714813232421875">
        <ele>236.1999969482421875</ele>
        <time>2022-07-27T17:18:54.000Z</time>
      </trkpt>
      <trkpt lat="42.4824405647814273834228515625" lon="2.6867352426052093505859375">
        <ele>235.1999969482421875</ele>
        <time>2022-07-27T17:18:56.000Z</time>
      </trkpt>
      <trkpt lat="42.48248188756406307220458984375" lon="2.68695862032473087310791015625">
        <ele>234.600006103515625</ele>
        <time>2022-07-27T17:18:58.000Z</time>
      </trkpt>
      <trkpt lat="42.482490353286266326904296875" lon="2.68706180155277252197265625">
        <ele>234.399993896484375</ele>
        <time>2022-07-27T17:18:59.000Z</time>
      </trkpt>
      <trkpt lat="42.482491694390773773193359375" lon="2.68716037273406982421875">
        <ele>234.399993896484375</ele>
        <time>2022-07-27T17:19:00.000Z</time>
      </trkpt>
      <trkpt lat="42.48250468634068965911865234375" lon="2.68724695779383182525634765625">
        <ele>234.1999969482421875</ele>
        <time>2022-07-27T17:19:01.000Z</time>
      </trkpt>
      <trkpt lat="42.48263913206756114959716796875" lon="2.68744376488029956817626953125">
        <ele>234.1999969482421875</ele>
        <time>2022-07-27T17:19:04.000Z</time>
      </trkpt>
      <trkpt lat="42.48297826386988162994384765625" lon="2.68792438320815563201904296875">
        <ele>233.8000030517578125</ele>
        <time>2022-07-27T17:19:10.000Z</time>
      </trkpt>
      <trkpt lat="42.4833313934504985809326171875" lon="2.68854883499443531036376953125">
        <ele>233.1999969482421875</ele>
        <time>2022-07-27T17:19:17.000Z</time>
      </trkpt>
      <trkpt lat="42.483393587172031402587890625" lon="2.6887437142431735992431640625">
        <ele>232.8000030517578125</ele>
        <time>2022-07-27T17:19:19.000Z</time>
      </trkpt>
      <trkpt lat="42.48343708924949169158935546875" lon="2.6889408566057682037353515625">
        <ele>232.1999969482421875</ele>
        <time>2022-07-27T17:19:21.000Z</time>
      </trkpt>
      <trkpt lat="42.483454607427120208740234375" lon="2.6890387572348117828369140625">
        <ele>232</ele>
        <time>2022-07-27T17:19:22.000Z</time>
      </trkpt>
      <trkpt lat="42.4835339002311229705810546875" lon="2.68956086598336696624755859375">
        <ele>231.399993896484375</ele>
        <time>2022-07-27T17:19:27.000Z</time>
      </trkpt>
      <trkpt lat="42.48358394019305706024169921875" lon="2.68978650681674480438232421875">
        <ele>231</ele>
        <time>2022-07-27T17:19:29.000Z</time>
      </trkpt>
      <trkpt lat="42.48368334956467151641845703125" lon="2.69026167690753936767578125">
        <ele>230.399993896484375</ele>
        <time>2022-07-27T17:19:33.000Z</time>
      </trkpt>
      <trkpt lat="42.4837293662130832672119140625" lon="2.69050466828048229217529296875">
        <ele>230</ele>
        <time>2022-07-27T17:19:35.000Z</time>
      </trkpt>
      <trkpt lat="42.48382383026182651519775390625" lon="2.69108721055090427398681640625">
        <ele>229.1999969482421875</ele>
        <time>2022-07-27T17:19:40.000Z</time>
      </trkpt>
      <trkpt lat="42.4838447012007236480712890625" lon="2.69120271317660808563232421875">
        <ele>228.8000030517578125</ele>
        <time>2022-07-27T17:19:41.000Z</time>
      </trkpt>
      <trkpt lat="42.4839781410992145538330078125" lon="2.69203000701963901519775390625">
        <ele>228.1999969482421875</ele>
        <time>2022-07-27T17:19:48.000Z</time>
      </trkpt>
      <trkpt lat="42.48399834148585796356201171875" lon="2.692149616777896881103515625">
        <ele>227.8000030517578125</ele>
        <time>2022-07-27T17:19:49.000Z</time>
      </trkpt>
      <trkpt lat="42.484085261821746826171875" lon="2.692754454910755157470703125">
        <ele>226.8000030517578125</ele>
        <time>2022-07-27T17:19:54.000Z</time>
      </trkpt>
      <trkpt lat="42.48411887325346469879150390625" lon="2.69311680458486080169677734375">
        <ele>226.399993896484375</ele>
        <time>2022-07-27T17:19:57.000Z</time>
      </trkpt>
      <trkpt lat="42.4841612018644809722900390625" lon="2.69384586252272129058837890625">
        <ele>225.8000030517578125</ele>
        <time>2022-07-27T17:20:03.000Z</time>
      </trkpt>
      <trkpt lat="42.4841960705816745758056640625" lon="2.69445707090198993682861328125">
        <ele>225.1999969482421875</ele>
        <time>2022-07-27T17:20:08.000Z</time>
      </trkpt>
      <trkpt lat="42.4842295981943607330322265625" lon="2.69518327899277210235595703125">
        <ele>225</ele>
        <time>2022-07-27T17:20:14.000Z</time>
      </trkpt>
      <trkpt lat="42.4842601083219051361083984375" lon="2.69578325562179088592529296875">
        <ele>224.600006103515625</ele>
        <time>2022-07-27T17:20:19.000Z</time>
      </trkpt>
      <trkpt lat="42.4842876009643077850341796875" lon="2.69657827913761138916015625">
        <ele>224.1999969482421875</ele>
        <time>2022-07-27T17:20:26.000Z</time>
      </trkpt>
      <trkpt lat="42.484331019222736358642578125" lon="2.6968134753406047821044921875">
        <ele>224.1999969482421875</ele>
        <time>2022-07-27T17:20:28.000Z</time>
      </trkpt>
      <trkpt lat="42.48441861011087894439697265625" lon="2.69703551195561885833740234375">
        <ele>224.1999969482421875</ele>
        <time>2022-07-27T17:20:30.000Z</time>
      </trkpt>
      <trkpt lat="42.4845957197248935699462890625" lon="2.69732971675693988800048828125">
        <ele>224</ele>
        <time>2022-07-27T17:20:33.000Z</time>
      </trkpt>
      <trkpt lat="42.48471901752054691314697265625" lon="2.69751981832087039947509765625">
        <ele>222.600006103515625</ele>
        <time>2022-07-27T17:20:35.000Z</time>
      </trkpt>
      <trkpt lat="42.4849014915525913238525390625" lon="2.69779893569648265838623046875">
        <ele>221.399993896484375</ele>
        <time>2022-07-27T17:20:38.000Z</time>
      </trkpt>
      <trkpt lat="42.48519779182970523834228515625" lon="2.6982233114540576934814453125">
        <ele>220.8000030517578125</ele>
        <time>2022-07-27T17:20:43.000Z</time>
      </trkpt>
      <trkpt lat="42.48565896414220333099365234375" lon="2.6987738348543643951416015625">
        <ele>220.600006103515625</ele>
        <time>2022-07-27T17:20:50.000Z</time>
      </trkpt>
      <trkpt lat="42.48585711233317852020263671875" lon="2.6990189217031002044677734375">
        <ele>220.1999969482421875</ele>
        <time>2022-07-27T17:20:53.000Z</time>
      </trkpt>
      <trkpt lat="42.485989294946193695068359375" lon="2.69916803576052188873291015625">
        <ele>219.8000030517578125</ele>
        <time>2022-07-27T17:20:55.000Z</time>
      </trkpt>
      <trkpt lat="42.48641065321862697601318359375" lon="2.69954941235482692718505859375">
        <ele>219.600006103515625</ele>
        <time>2022-07-27T17:21:01.000Z</time>
      </trkpt>
      <trkpt lat="42.48691163957118988037109375" lon="2.69996549002826213836669921875">
        <ele>219.600006103515625</ele>
        <time>2022-07-27T17:21:08.000Z</time>
      </trkpt>
      <trkpt lat="42.48697869479656219482421875" lon="2.700033970177173614501953125">
        <ele>219.600006103515625</ele>
        <time>2022-07-27T17:21:09.000Z</time>
      </trkpt>
      <trkpt lat="42.48723627068102359771728515625" lon="2.70031736232340335845947265625">
        <ele>219.399993896484375</ele>
        <time>2022-07-27T17:21:13.000Z</time>
      </trkpt>
      <trkpt lat="42.48742301948368549346923828125" lon="2.7005176059901714324951171875">
        <ele>219.1999969482421875</ele>
        <time>2022-07-27T17:21:16.000Z</time>
      </trkpt>
      <trkpt lat="42.48781579546630382537841796875" lon="2.70092370919883251190185546875">
        <ele>218.399993896484375</ele>
        <time>2022-07-27T17:21:22.000Z</time>
      </trkpt>
      <trkpt lat="42.487877570092678070068359375" lon="2.7009953744709491729736328125">
        <ele>218</ele>
        <time>2022-07-27T17:21:23.000Z</time>
      </trkpt>
      <trkpt lat="42.48830747790634632110595703125" lon="2.70148311741650104522705078125">
        <ele>217.399993896484375</ele>
        <time>2022-07-27T17:21:30.000Z</time>
      </trkpt>
      <trkpt lat="42.4883675761520862579345703125" lon="2.70155218429863452911376953125">
        <ele>217.1999969482421875</ele>
        <time>2022-07-27T17:21:31.000Z</time>
      </trkpt>
      <trkpt lat="42.4884279258549213409423828125" lon="2.70161991007626056671142578125">
        <ele>217</ele>
        <time>2022-07-27T17:21:32.000Z</time>
      </trkpt>
      <trkpt lat="42.4889053590595722198486328125" lon="2.70214654505252838134765625">
        <ele>216.1999969482421875</ele>
        <time>2022-07-27T17:21:40.000Z</time>
      </trkpt>
      <trkpt lat="42.48896461911499500274658203125" lon="2.7022115886211395263671875">
        <ele>216.1999969482421875</ele>
        <time>2022-07-27T17:21:41.000Z</time>
      </trkpt>
      <trkpt lat="42.48934800736606121063232421875" lon="2.70263428799808025360107421875">
        <ele>217</ele>
        <time>2022-07-27T17:21:48.000Z</time>
      </trkpt>
      <trkpt lat="42.489730976521968841552734375" lon="2.703067548573017120361328125">
        <ele>218.1999969482421875</ele>
        <time>2022-07-27T17:21:56.000Z</time>
      </trkpt>
      <trkpt lat="42.49003130011260509490966796875" lon="2.7033986337482929229736328125">
        <ele>219.399993896484375</ele>
        <time>2022-07-27T17:22:03.000Z</time>
      </trkpt>
      <trkpt lat="42.4900786578655242919921875" lon="2.703443728387355804443359375">
        <ele>219.8000030517578125</ele>
        <time>2022-07-27T17:22:04.000Z</time>
      </trkpt>
      <trkpt lat="42.49017680995166301727294921875" lon="2.703529894351959228515625">
        <ele>220.399993896484375</ele>
        <time>2022-07-27T17:22:06.000Z</time>
      </trkpt>
      <trkpt lat="42.49032181687653064727783203125" lon="2.703656964004039764404296875">
        <ele>221.600006103515625</ele>
        <time>2022-07-27T17:22:09.000Z</time>
      </trkpt>
      <trkpt lat="42.49047621153295040130615234375" lon="2.70379216410219669342041015625">
        <ele>222.600006103515625</ele>
        <time>2022-07-27T17:22:12.000Z</time>
      </trkpt>
      <trkpt lat="42.49068173579871654510498046875" lon="2.7039702795445919036865234375">
        <ele>223.1999969482421875</ele>
        <time>2022-07-27T17:22:16.000Z</time>
      </trkpt>
      <trkpt lat="42.4908372201025485992431640625" lon="2.7041105926036834716796875">
        <ele>223.600006103515625</ele>
        <time>2022-07-27T17:22:19.000Z</time>
      </trkpt>
      <trkpt lat="42.491051293909549713134765625" lon="2.7043498121201992034912109375">
        <ele>223.600006103515625</ele>
        <time>2022-07-27T17:22:23.000Z</time>
      </trkpt>
      <trkpt lat="42.49138615094125270843505859375" lon="2.704649381339550018310546875">
        <ele>223.399993896484375</ele>
        <time>2022-07-27T17:22:28.000Z</time>
      </trkpt>
      <trkpt lat="42.4915366061031818389892578125" lon="2.70478005520999431610107421875">
        <ele>222.8000030517578125</ele>
        <time>2022-07-27T17:22:30.000Z</time>
      </trkpt>
      <trkpt lat="42.4916640110313892364501953125" lon="2.7049626968801021575927734375">
        <ele>222.399993896484375</ele>
        <time>2022-07-27T17:22:32.000Z</time>
      </trkpt>
      <trkpt lat="42.49179418198764324188232421875" lon="2.70514517091214656829833984375">
        <ele>221.399993896484375</ele>
        <time>2022-07-27T17:22:34.000Z</time>
      </trkpt>
      <trkpt lat="42.49186567962169647216796875" lon="2.705226726830005645751953125">
        <ele>220.8000030517578125</ele>
        <time>2022-07-27T17:22:35.000Z</time>
      </trkpt>
      <trkpt lat="42.4919436313211917877197265625" lon="2.7052966319024562835693359375">
        <ele>220.600006103515625</ele>
        <time>2022-07-27T17:22:36.000Z</time>
      </trkpt>
      <trkpt lat="42.49202736653387546539306640625" lon="2.70535488612949848175048828125">
        <ele>220.399993896484375</ele>
        <time>2022-07-27T17:22:37.000Z</time>
      </trkpt>
      <trkpt lat="42.4922869540750980377197265625" lon="2.70550827495753765106201171875">
        <ele>220</ele>
        <time>2022-07-27T17:22:40.000Z</time>
      </trkpt>
      <trkpt lat="42.49237873591482639312744140625" lon="2.70554297603666782379150390625">
        <ele>220</ele>
        <time>2022-07-27T17:22:41.000Z</time>
      </trkpt>
      <trkpt lat="42.49267168343067169189453125" lon="2.7055460773408412933349609375">
        <ele>220</ele>
        <time>2022-07-27T17:22:44.000Z</time>
      </trkpt>
      <trkpt lat="42.493266798555850982666015625" lon="2.7054421417415142059326171875">
        <ele>219.399993896484375</ele>
        <time>2022-07-27T17:22:50.000Z</time>
      </trkpt>
      <trkpt lat="42.4933702312409877777099609375" lon="2.70542160607874393463134765625">
        <ele>219.399993896484375</ele>
        <time>2022-07-27T17:22:51.000Z</time>
      </trkpt>
      <trkpt lat="42.49389753676950931549072265625" lon="2.7053076960146427154541015625">
        <ele>218.1999969482421875</ele>
        <time>2022-07-27T17:22:56.000Z</time>
      </trkpt>
      <trkpt lat="42.49430892057716846466064453125" lon="2.7052211947739124298095703125">
        <ele>217</ele>
        <time>2022-07-27T17:23:00.000Z</time>
      </trkpt>
      <trkpt lat="42.49440732412040233612060546875" lon="2.70521172322332859039306640625">
        <ele>216.8000030517578125</ele>
        <time>2022-07-27T17:23:01.000Z</time>
      </trkpt>
      <trkpt lat="42.49459348618984222412109375" lon="2.7052371203899383544921875">
        <ele>216.1999969482421875</ele>
        <time>2022-07-27T17:23:03.000Z</time>
      </trkpt>
      <trkpt lat="42.49468023888766765594482421875" lon="2.705266959965229034423828125">
        <ele>215.8000030517578125</ele>
        <time>2022-07-27T17:23:04.000Z</time>
      </trkpt>
      <trkpt lat="42.49498936347663402557373046875" lon="2.70543853752315044403076171875">
        <ele>215.399993896484375</ele>
        <time>2022-07-27T17:23:08.000Z</time>
      </trkpt>
      <trkpt lat="42.4951988272368907928466796875" lon="2.70557197742164134979248046875">
        <ele>215.399993896484375</ele>
        <time>2022-07-27T17:23:11.000Z</time>
      </trkpt>
      <trkpt lat="42.49532916583120822906494140625" lon="2.70566761493682861328125">
        <ele>215.399993896484375</ele>
        <time>2022-07-27T17:23:13.000Z</time>
      </trkpt>
      <trkpt lat="42.49538465403020381927490234375" lon="2.70571614615619182586669921875">
        <ele>215.600006103515625</ele>
        <time>2022-07-27T17:23:14.000Z</time>
      </trkpt>
      <trkpt lat="42.4955562315881252288818359375" lon="2.70586852915585041046142578125">
        <ele>217.1999969482421875</ele>
        <time>2022-07-27T17:23:17.000Z</time>
      </trkpt>
      <trkpt lat="42.49560761265456676483154296875" lon="2.70592820830643177032470703125">
        <ele>217.600006103515625</ele>
        <time>2022-07-27T17:23:18.000Z</time>
      </trkpt>
      <trkpt lat="42.49574574641883373260498046875" lon="2.70612400956451892852783203125">
        <ele>218.600006103515625</ele>
        <time>2022-07-27T17:23:21.000Z</time>
      </trkpt>
      <trkpt lat="42.495822273194789886474609375" lon="2.70626130513846874237060546875">
        <ele>219.1999969482421875</ele>
        <time>2022-07-27T17:23:23.000Z</time>
      </trkpt>
      <trkpt lat="42.49585135839879512786865234375" lon="2.70633674226701259613037109375">
        <ele>219.600006103515625</ele>
        <time>2022-07-27T17:23:24.000Z</time>
      </trkpt>
      <trkpt lat="42.49596149660646915435791015625" lon="2.7068526484072208404541015625">
        <ele>220</ele>
        <time>2022-07-27T17:23:30.000Z</time>
      </trkpt>
      <trkpt lat="42.4959687888622283935546875" lon="2.70714576356112957000732421875">
        <ele>220</ele>
        <time>2022-07-27T17:23:33.000Z</time>
      </trkpt>
      <trkpt lat="42.49595076777040958404541015625" lon="2.70735514350235462188720703125">
        <ele>220</ele>
        <time>2022-07-27T17:23:35.000Z</time>
      </trkpt>
      <trkpt lat="42.49584733508527278900146484375" lon="2.7078987099230289459228515625">
        <ele>219.1999969482421875</ele>
        <time>2022-07-27T17:23:40.000Z</time>
      </trkpt>
      <trkpt lat="42.49578245915472507476806640625" lon="2.70813214592635631561279296875">
        <ele>217.8000030517578125</ele>
        <time>2022-07-27T17:23:42.000Z</time>
      </trkpt>
      <trkpt lat="42.49571490101516246795654296875" lon="2.7083778195083141326904296875">
        <ele>216.399993896484375</ele>
        <time>2022-07-27T17:23:44.000Z</time>
      </trkpt>
      <trkpt lat="42.4956491030752658843994140625" lon="2.7086235769093036651611328125">
        <ele>215.8000030517578125</ele>
        <time>2022-07-27T17:23:46.000Z</time>
      </trkpt>
      <trkpt lat="42.495549023151397705078125" lon="2.709001600742340087890625">
        <ele>215</ele>
        <time>2022-07-27T17:23:49.000Z</time>
      </trkpt>
      <trkpt lat="42.49548020772635936737060546875" lon="2.70925574004650115966796875">
        <ele>213.600006103515625</ele>
        <time>2022-07-27T17:23:51.000Z</time>
      </trkpt>
      <trkpt lat="42.4954140745103359222412109375" lon="2.70951700396835803985595703125">
        <ele>212.1999969482421875</ele>
        <time>2022-07-27T17:23:53.000Z</time>
      </trkpt>
      <trkpt lat="42.49535213224589824676513671875" lon="2.70978002808988094329833984375">
        <ele>211.1999969482421875</ele>
        <time>2022-07-27T17:23:55.000Z</time>
      </trkpt>
      <trkpt lat="42.4951493740081787109375" lon="2.7105520851910114288330078125">
        <ele>210.399993896484375</ele>
        <time>2022-07-27T17:24:01.000Z</time>
      </trkpt>
      <trkpt lat="42.49511517584323883056640625" lon="2.71067622117698192596435546875">
        <ele>210.399993896484375</ele>
        <time>2022-07-27T17:24:02.000Z</time>
      </trkpt>
      <trkpt lat="42.494910992681980133056640625" lon="2.71139991469681262969970703125">
        <ele>210.1999969482421875</ele>
        <time>2022-07-27T17:24:08.000Z</time>
      </trkpt>
      <trkpt lat="42.49483094550669193267822265625" lon="2.711763940751552581787109375">
        <ele>210.600006103515625</ele>
        <time>2022-07-27T17:24:11.000Z</time>
      </trkpt>
      <trkpt lat="42.49480311758816242218017578125" lon="2.71241127513349056243896484375">
        <ele>210.8000030517578125</ele>
        <time>2022-07-27T17:24:16.000Z</time>
      </trkpt>
      <trkpt lat="42.494879476726055145263671875" lon="2.71320604719221591949462890625">
        <ele>210.8000030517578125</ele>
        <time>2022-07-27T17:24:22.000Z</time>
      </trkpt>
      <trkpt lat="42.49490101821720600128173828125" lon="2.713451720774173736572265625">
        <ele>210.1999969482421875</ele>
        <time>2022-07-27T17:24:24.000Z</time>
      </trkpt>
      <trkpt lat="42.49492364935576915740966796875" lon="2.7138022519648075103759765625">
        <ele>209.1999969482421875</ele>
        <time>2022-07-27T17:24:27.000Z</time>
      </trkpt>
      <trkpt lat="42.49493010342121124267578125" lon="2.71391364745795726776123046875">
        <ele>209</ele>
        <time>2022-07-27T17:24:28.000Z</time>
      </trkpt>
      <trkpt lat="42.49493923969566822052001953125" lon="2.7141308225691318511962890625">
        <ele>208.399993896484375</ele>
        <time>2022-07-27T17:24:30.000Z</time>
      </trkpt>
      <trkpt lat="42.494922392070293426513671875" lon="2.71435084752738475799560546875">
        <ele>208.1999969482421875</ele>
        <time>2022-07-27T17:24:32.000Z</time>
      </trkpt>
      <trkpt lat="42.49488811008632183074951171875" lon="2.7145676873624324798583984375">
        <ele>208.1999969482421875</ele>
        <time>2022-07-27T17:24:34.000Z</time>
      </trkpt>
      <trkpt lat="42.49482055194675922393798828125" lon="2.714879997074604034423828125">
        <ele>208.1999969482421875</ele>
        <time>2022-07-27T17:24:37.000Z</time>
      </trkpt>
      <trkpt lat="42.494674623012542724609375" lon="2.71557862870395183563232421875">
        <ele>208.399993896484375</ele>
        <time>2022-07-27T17:24:44.000Z</time>
      </trkpt>
      <trkpt lat="42.4945311248302459716796875" lon="2.716266028583049774169921875">
        <ele>207.8000030517578125</ele>
        <time>2022-07-27T17:24:51.000Z</time>
      </trkpt>
      <trkpt lat="42.49451142735779285430908203125" lon="2.71636761724948883056640625">
        <ele>207.600006103515625</ele>
        <time>2022-07-27T17:24:52.000Z</time>
      </trkpt>
      <trkpt lat="42.4943817593157291412353515625" lon="2.71691604517400264739990234375">
        <ele>206.8000030517578125</ele>
        <time>2022-07-27T17:24:57.000Z</time>
      </trkpt>
      <trkpt lat="42.494349069893360137939453125" lon="2.7170292846858501434326171875">
        <ele>206.8000030517578125</ele>
        <time>2022-07-27T17:24:58.000Z</time>
      </trkpt>
      <trkpt lat="42.49429299496114253997802734375" lon="2.717267163097858428955078125">
        <ele>206.1999969482421875</ele>
        <time>2022-07-27T17:25:00.000Z</time>
      </trkpt>
      <trkpt lat="42.49428679235279560089111328125" lon="2.7173860184848308563232421875">
        <ele>206</ele>
        <time>2022-07-27T17:25:01.000Z</time>
      </trkpt>
      <trkpt lat="42.4943036399781703948974609375" lon="2.7174936421215534210205078125">
        <ele>205.600006103515625</ele>
        <time>2022-07-27T17:25:02.000Z</time>
      </trkpt>
      <trkpt lat="42.4943375028669834136962890625" lon="2.71758894436061382293701171875">
        <ele>205.1999969482421875</ele>
        <time>2022-07-27T17:25:03.000Z</time>
      </trkpt>
      <trkpt lat="42.49437463469803333282470703125" lon="2.7176797203719615936279296875">
        <ele>205</ele>
        <time>2022-07-27T17:25:04.000Z</time>
      </trkpt>
      <trkpt lat="42.49440581537783145904541015625" lon="2.7177737653255462646484375">
        <ele>204.600006103515625</ele>
        <time>2022-07-27T17:25:05.000Z</time>
      </trkpt>
      <trkpt lat="42.49442517757415771484375" lon="2.7178731746971607208251953125">
        <ele>204.399993896484375</ele>
        <time>2022-07-27T17:25:06.000Z</time>
      </trkpt>
      <trkpt lat="42.4944345653057098388671875" lon="2.7179754339158535003662109375">
        <ele>204</ele>
        <time>2022-07-27T17:25:07.000Z</time>
      </trkpt>
      <trkpt lat="42.49443314038217067718505859375" lon="2.718180455267429351806640625">
        <ele>202.8000030517578125</ele>
        <time>2022-07-27T17:25:09.000Z</time>
      </trkpt>
      <trkpt lat="42.494427524507045745849609375" lon="2.7182822115719318389892578125">
        <ele>202.1999969482421875</ele>
        <time>2022-07-27T17:25:10.000Z</time>
      </trkpt>
      <trkpt lat="42.49441268853843212127685546875" lon="2.71848312579095363616943359375">
        <ele>201.8000030517578125</ele>
        <time>2022-07-27T17:25:12.000Z</time>
      </trkpt>
      <trkpt lat="42.4943153746426105499267578125" lon="2.71885695867240428924560546875">
        <ele>201.399993896484375</ele>
        <time>2022-07-27T17:25:16.000Z</time>
      </trkpt>
      <trkpt lat="42.49410641379654407501220703125" lon="2.71950119175016880035400390625">
        <ele>201.600006103515625</ele>
        <time>2022-07-27T17:25:23.000Z</time>
      </trkpt>
      <trkpt lat="42.49400516040623188018798828125" lon="2.71990184672176837921142578125">
        <ele>203</ele>
        <time>2022-07-27T17:25:27.000Z</time>
      </trkpt>
      <trkpt lat="42.49396174214780330657958984375" lon="2.7201047725975513458251953125">
        <ele>203.600006103515625</ele>
        <time>2022-07-27T17:25:29.000Z</time>
      </trkpt>
      <trkpt lat="42.49388898722827434539794921875" lon="2.72065320052206516265869140625">
        <ele>204</ele>
        <time>2022-07-27T17:25:34.000Z</time>
      </trkpt>
      <trkpt lat="42.49388261698186397552490234375" lon="2.72077105008065700531005859375">
        <ele>204</ele>
        <time>2022-07-27T17:25:35.000Z</time>
      </trkpt>
      <trkpt lat="42.49389418400824069976806640625" lon="2.72139265201985836029052734375">
        <ele>203.8000030517578125</ele>
        <time>2022-07-27T17:25:40.000Z</time>
      </trkpt>
      <trkpt lat="42.49393944628536701202392578125" lon="2.72163891233503818511962890625">
        <ele>202.8000030517578125</ele>
        <time>2022-07-27T17:25:42.000Z</time>
      </trkpt>
      <trkpt lat="42.49397884123027324676513671875" lon="2.72188986651599407196044921875">
        <ele>201.600006103515625</ele>
        <time>2022-07-27T17:25:44.000Z</time>
      </trkpt>
      <trkpt lat="42.4939893186092376708984375" lon="2.7221506275236606597900390625">
        <ele>200.399993896484375</ele>
        <time>2022-07-27T17:25:46.000Z</time>
      </trkpt>
      <trkpt lat="42.4939723871648311614990234375" lon="2.72241055034101009368896484375">
        <ele>199.600006103515625</ele>
        <time>2022-07-27T17:25:48.000Z</time>
      </trkpt>
      <trkpt lat="42.49396316707134246826171875" lon="2.7225375361740589141845703125">
        <ele>199.1999969482421875</ele>
        <time>2022-07-27T17:25:49.000Z</time>
      </trkpt>
      <trkpt lat="42.49396291561424732208251953125" lon="2.72290022112429141998291015625">
        <ele>198.600006103515625</ele>
        <time>2022-07-27T17:25:52.000Z</time>
      </trkpt>
      <trkpt lat="42.49397817067801952362060546875" lon="2.723013125360012054443359375">
        <ele>198.600006103515625</ele>
        <time>2022-07-27T17:25:53.000Z</time>
      </trkpt>
      <trkpt lat="42.494145892560482025146484375" lon="2.723621986806392669677734375">
        <ele>198.600006103515625</ele>
        <time>2022-07-27T17:25:59.000Z</time>
      </trkpt>
      <trkpt lat="42.49428193084895610809326171875" lon="2.72421601228415966033935546875">
        <ele>199.8000030517578125</ele>
        <time>2022-07-27T17:26:05.000Z</time>
      </trkpt>
      <trkpt lat="42.4942919053137302398681640625" lon="2.72431827150285243988037109375">
        <ele>199.600006103515625</ele>
        <time>2022-07-27T17:26:06.000Z</time>
      </trkpt>
      <trkpt lat="42.49431998468935489654541015625" lon="2.7250105328857898712158203125">
        <ele>200.1999969482421875</ele>
        <time>2022-07-27T17:26:13.000Z</time>
      </trkpt>
      <trkpt lat="42.49433021061122417449951171875" lon="2.72509963251650333404541015625">
        <ele>200.1999969482421875</ele>
        <time>2022-07-27T17:26:14.000Z</time>
      </trkpt>
      <trkpt lat="42.49437647871673107147216796875" lon="2.72535410709679126739501953125">
        <ele>200.1999969482421875</ele>
        <time>2022-07-27T17:26:17.000Z</time>
      </trkpt>
      <trkpt lat="42.49440631829202175140380859375" lon="2.72542803548276424407958984375">
        <ele>200.399993896484375</ele>
        <time>2022-07-27T17:26:18.000Z</time>
      </trkpt>
      <trkpt lat="42.49447144567966461181640625" lon="2.72556893527507781982421875">
        <ele>201</ele>
        <time>2022-07-27T17:26:20.000Z</time>
      </trkpt>
      <trkpt lat="42.49454545788466930389404296875" lon="2.72578879259526729583740234375">
        <ele>201</ele>
        <time>2022-07-27T17:26:23.000Z</time>
      </trkpt>
      <trkpt lat="42.49464084394276142120361328125" lon="2.7259831689298152923583984375">
        <ele>201</ele>
        <time>2022-07-27T17:26:26.000Z</time>
      </trkpt>
      <trkpt lat="42.4947416782379150390625" lon="2.726168073713779449462890625">
        <ele>201</ele>
        <time>2022-07-27T17:26:29.000Z</time>
      </trkpt>
      <trkpt lat="42.49486950226128101348876953125" lon="2.72641492076218128204345703125">
        <ele>200.8000030517578125</ele>
        <time>2022-07-27T17:26:33.000Z</time>
      </trkpt>
      <trkpt lat="42.4949205480515956878662109375" lon="2.72657266817986965179443359375">
        <ele>200.600006103515625</ele>
        <time>2022-07-27T17:26:35.000Z</time>
      </trkpt>
      <trkpt lat="42.49503672122955322265625" lon="2.7271546237170696258544921875">
        <ele>199.8000030517578125</ele>
        <time>2022-07-27T17:26:41.000Z</time>
      </trkpt>
      <trkpt lat="42.49505843035876750946044921875" lon="2.72736593149602413177490234375">
        <ele>199.399993896484375</ele>
        <time>2022-07-27T17:26:43.000Z</time>
      </trkpt>
      <trkpt lat="42.49510847032070159912109375" lon="2.72789902053773403167724609375">
        <ele>198.600006103515625</ele>
        <time>2022-07-27T17:26:48.000Z</time>
      </trkpt>
      <trkpt lat="42.4951344542205333709716796875" lon="2.72811259143054485321044921875">
        <ele>198.600006103515625</ele>
        <time>2022-07-27T17:26:50.000Z</time>
      </trkpt>
      <trkpt lat="42.4952132441103458404541015625" lon="2.72876420058310031890869140625">
        <ele>198</ele>
        <time>2022-07-27T17:26:56.000Z</time>
      </trkpt>
      <trkpt lat="42.4952534772455692291259765625" lon="2.7290935255587100982666015625">
        <ele>197.399993896484375</ele>
        <time>2022-07-27T17:26:59.000Z</time>
      </trkpt>
      <trkpt lat="42.4953084625303745269775390625" lon="2.72965318523347377777099609375">
        <ele>196.8000030517578125</ele>
        <time>2022-07-27T17:27:04.000Z</time>
      </trkpt>
      <trkpt lat="42.49529111199080944061279296875" lon="2.730451561510562896728515625">
        <ele>196.8000030517578125</ele>
        <time>2022-07-27T17:27:11.000Z</time>
      </trkpt>
      <trkpt lat="42.4952028505504131317138671875" lon="2.7309526316821575164794921875">
        <ele>196.8000030517578125</ele>
        <time>2022-07-27T17:27:16.000Z</time>
      </trkpt>
      <trkpt lat="42.4951448477804660797119140625" lon="2.7312168292701244354248046875">
        <ele>196.8000030517578125</ele>
        <time>2022-07-27T17:27:19.000Z</time>
      </trkpt>
      <trkpt lat="42.49507552944123744964599609375" lon="2.7313578128814697265625">
        <ele>197</ele>
        <time>2022-07-27T17:27:21.000Z</time>
      </trkpt>
      <trkpt lat="42.4949155189096927642822265625" lon="2.73144272156059741973876953125">
        <ele>197.1999969482421875</ele>
        <time>2022-07-27T17:27:24.000Z</time>
      </trkpt>
      <trkpt lat="42.49486229382455348968505859375" lon="2.73144925944507122039794921875">
        <ele>197.399993896484375</ele>
        <time>2022-07-27T17:27:25.000Z</time>
      </trkpt>
      <trkpt lat="42.49471141956746578216552734375" lon="2.7314981259405612945556640625">
        <ele>197.8000030517578125</ele>
        <time>2022-07-27T17:27:28.000Z</time>
      </trkpt>
      <trkpt lat="42.49466666020452976226806640625" lon="2.731540203094482421875">
        <ele>198</ele>
        <time>2022-07-27T17:27:29.000Z</time>
      </trkpt>
      <trkpt lat="42.49457429163157939910888671875" lon="2.73173524998128414154052734375">
        <ele>198.8000030517578125</ele>
        <time>2022-07-27T17:27:32.000Z</time>
      </trkpt>
      <trkpt lat="42.4945530854165554046630859375" lon="2.73181236349046230316162109375">
        <ele>198.8000030517578125</ele>
        <time>2022-07-27T17:27:33.000Z</time>
      </trkpt>
      <trkpt lat="42.49448192305862903594970703125" lon="2.73224629461765289306640625">
        <ele>199</ele>
        <time>2022-07-27T17:27:38.000Z</time>
      </trkpt>
      <trkpt lat="42.49438284896314144134521484375" lon="2.732866890728473663330078125">
        <ele>198.600006103515625</ele>
        <time>2022-07-27T17:27:45.000Z</time>
      </trkpt>
      <trkpt lat="42.4943012930452823638916015625" lon="2.73309529758989810943603515625">
        <ele>198.600006103515625</ele>
        <time>2022-07-27T17:27:48.000Z</time>
      </trkpt>
      <trkpt lat="42.49423717148602008819580078125" lon="2.7332452498376369476318359375">
        <ele>198.399993896484375</ele>
        <time>2022-07-27T17:27:50.000Z</time>
      </trkpt>
      <trkpt lat="42.4940407834947109222412109375" lon="2.73384489119052886962890625">
        <ele>198.399993896484375</ele>
        <time>2022-07-27T17:27:57.000Z</time>
      </trkpt>
      <trkpt lat="42.49397029168903827667236328125" lon="2.73431084118783473968505859375">
        <ele>198.1999969482421875</ele>
        <time>2022-07-27T17:28:02.000Z</time>
      </trkpt>
      <trkpt lat="42.4939462356269359588623046875" lon="2.7347586862742900848388671875">
        <ele>198</ele>
        <time>2022-07-27T17:28:07.000Z</time>
      </trkpt>
      <trkpt lat="42.4939412064850330352783203125" lon="2.73484208621084690093994140625">
        <ele>198</ele>
        <time>2022-07-27T17:28:08.000Z</time>
      </trkpt>
      <trkpt lat="42.4938949383795261383056640625" lon="2.735369391739368438720703125">
        <ele>198</ele>
        <time>2022-07-27T17:28:14.000Z</time>
      </trkpt>
      <trkpt lat="42.4938624165952205657958984375" lon="2.73577633313834667205810546875">
        <ele>198</ele>
        <time>2022-07-27T17:28:19.000Z</time>
      </trkpt>
      <trkpt lat="42.49380785040557384490966796875" lon="2.7363078296184539794921875">
        <ele>198</ele>
        <time>2022-07-27T17:28:25.000Z</time>
      </trkpt>
      <trkpt lat="42.4937584809958934783935546875" lon="2.73696295917034149169921875">
        <ele>198</ele>
        <time>2022-07-27T17:28:32.000Z</time>
      </trkpt>
      <trkpt lat="42.49374456703662872314453125" lon="2.73764248006045818328857421875">
        <ele>197.8000030517578125</ele>
        <time>2022-07-27T17:28:39.000Z</time>
      </trkpt>
      <trkpt lat="42.4937695451080799102783203125" lon="2.7380537800490856170654296875">
        <ele>197.8000030517578125</ele>
        <time>2022-07-27T17:28:44.000Z</time>
      </trkpt>
      <trkpt lat="42.49378773383796215057373046875" lon="2.73852576501667499542236328125">
        <ele>198.1999969482421875</ele>
        <time>2022-07-27T17:28:49.000Z</time>
      </trkpt>
      <trkpt lat="42.49379779212176799774169921875" lon="2.73890982381999492645263671875">
        <ele>198.1999969482421875</ele>
        <time>2022-07-27T17:28:53.000Z</time>
      </trkpt>
      <trkpt lat="42.49378890730440616607666015625" lon="2.7390042878687381744384765625">
        <ele>198.1999969482421875</ele>
        <time>2022-07-27T17:28:54.000Z</time>
      </trkpt>
      <trkpt lat="42.49373978935182094573974609375" lon="2.73927762173116207122802734375">
        <ele>198</ele>
        <time>2022-07-27T17:28:57.000Z</time>
      </trkpt>
      <trkpt lat="42.49373358674347400665283203125" lon="2.739454396069049835205078125">
        <ele>197.399993896484375</ele>
        <time>2022-07-27T17:28:59.000Z</time>
      </trkpt>
      <trkpt lat="42.493744231760501861572265625" lon="2.7395424060523509979248046875">
        <ele>197.1999969482421875</ele>
        <time>2022-07-27T17:29:00.000Z</time>
      </trkpt>
      <trkpt lat="42.4937896616756916046142578125" lon="2.7397271431982517242431640625">
        <ele>196.8000030517578125</ele>
        <time>2022-07-27T17:29:02.000Z</time>
      </trkpt>
      <trkpt lat="42.493806593120098114013671875" lon="2.739823199808597564697265625">
        <ele>196.8000030517578125</ele>
        <time>2022-07-27T17:29:03.000Z</time>
      </trkpt>
      <trkpt lat="42.493933998048305511474609375" lon="2.740480341017246246337890625">
        <ele>196.1999969482421875</ele>
        <time>2022-07-27T17:29:10.000Z</time>
      </trkpt>
      <trkpt lat="42.4939556233584880828857421875" lon="2.7405750565230846405029296875">
        <ele>196</ele>
        <time>2022-07-27T17:29:11.000Z</time>
      </trkpt>
      <trkpt lat="42.49407506547868251800537109375" lon="2.74104595184326171875">
        <ele>194.399993896484375</ele>
        <time>2022-07-27T17:29:16.000Z</time>
      </trkpt>
      <trkpt lat="42.49410373158752918243408203125" lon="2.74113572202622890472412109375">
        <ele>194.1999969482421875</ele>
        <time>2022-07-27T17:29:17.000Z</time>
      </trkpt>
      <trkpt lat="42.49421521089971065521240234375" lon="2.7415034361183643341064453125">
        <ele>193.399993896484375</ele>
        <time>2022-07-27T17:29:21.000Z</time>
      </trkpt>
      <trkpt lat="42.4942791648209095001220703125" lon="2.7416958846151828765869140625">
        <ele>193</ele>
        <time>2022-07-27T17:29:23.000Z</time>
      </trkpt>
      <trkpt lat="42.49432794749736785888671875" lon="2.74190224707126617431640625">
        <ele>192.600006103515625</ele>
        <time>2022-07-27T17:29:25.000Z</time>
      </trkpt>
      <trkpt lat="42.49432526528835296630859375" lon="2.7420003153383731842041015625">
        <ele>192.600006103515625</ele>
        <time>2022-07-27T17:29:26.000Z</time>
      </trkpt>
      <trkpt lat="42.49430271796882152557373046875" lon="2.74207885377109050750732421875">
        <ele>192.399993896484375</ele>
        <time>2022-07-27T17:29:27.000Z</time>
      </trkpt>
      <trkpt lat="42.49421655200421810150146484375" lon="2.74212419986724853515625">
        <ele>192.1999969482421875</ele>
        <time>2022-07-27T17:29:29.000Z</time>
      </trkpt>
      <trkpt lat="42.4941645003855228424072265625" lon="2.74211238138377666473388671875">
        <ele>192.1999969482421875</ele>
        <time>2022-07-27T17:29:30.000Z</time>
      </trkpt>
      <trkpt lat="42.4941101856529712677001953125" lon="2.74210835807025432586669921875">
        <ele>192.1999969482421875</ele>
        <time>2022-07-27T17:29:31.000Z</time>
      </trkpt>
      <trkpt lat="42.49399811960756778717041015625" lon="2.74213786236941814422607421875">
        <ele>192.1999969482421875</ele>
        <time>2022-07-27T17:29:33.000Z</time>
      </trkpt>
      <trkpt lat="42.49362043105065822601318359375" lon="2.74231128394603729248046875">
        <ele>193</ele>
        <time>2022-07-27T17:29:40.000Z</time>
      </trkpt>
      <trkpt lat="42.49331164173781871795654296875" lon="2.74246039800345897674560546875">
        <ele>193.8000030517578125</ele>
        <time>2022-07-27T17:29:46.000Z</time>
      </trkpt>
      <trkpt lat="42.493231929838657379150390625" lon="2.74246777407824993133544921875">
        <ele>194.1999969482421875</ele>
        <time>2022-07-27T17:29:48.000Z</time>
      </trkpt>
      <trkpt lat="42.49312774278223514556884765625" lon="2.74238060228526592254638671875">
        <ele>194.8000030517578125</ele>
        <time>2022-07-27T17:29:52.000Z</time>
      </trkpt>
      <trkpt lat="42.49303973279893398284912109375" lon="2.74234472773969173431396484375">
        <ele>195.399993896484375</ele>
        <time>2022-07-27T17:29:55.000Z</time>
      </trkpt>
      <trkpt lat="42.49296379275619983673095703125" lon="2.74243877269327640533447265625">
        <ele>195.8000030517578125</ele>
        <time>2022-07-27T17:29:58.000Z</time>
      </trkpt>
      <trkpt lat="42.4929437600076198577880859375" lon="2.742489986121654510498046875">
        <ele>196</ele>
        <time>2022-07-27T17:29:59.000Z</time>
      </trkpt>
      <trkpt lat="42.4928976595401763916015625" lon="2.74259283207356929779052734375">
        <ele>196.1999969482421875</ele>
        <time>2022-07-27T17:30:01.000Z</time>
      </trkpt>
      <trkpt lat="42.49284845776855945587158203125" lon="2.7426738850772380828857421875">
        <ele>196.1999969482421875</ele>
        <time>2022-07-27T17:30:03.000Z</time>
      </trkpt>
      <trkpt lat="42.49272792600095272064208984375" lon="2.74284772574901580810546875">
        <ele>196.600006103515625</ele>
        <time>2022-07-27T17:30:09.000Z</time>
      </trkpt>
      <trkpt lat="42.49258912168443202972412109375" lon="2.74304679594933986663818359375">
        <ele>196.8000030517578125</ele>
        <time>2022-07-27T17:30:15.000Z</time>
      </trkpt>
      <trkpt lat="42.49239985831081867218017578125" lon="2.7431742846965789794921875">
        <ele>197.1999969482421875</ele>
        <time>2022-07-27T17:30:20.000Z</time>
      </trkpt>
      <trkpt lat="42.492356188595294952392578125" lon="2.743190042674541473388671875">
        <ele>197.1999969482421875</ele>
        <time>2022-07-27T17:30:21.000Z</time>
      </trkpt>
      <trkpt lat="42.49215745367109775543212890625" lon="2.74326371960341930389404296875">
        <ele>197.399993896484375</ele>
        <time>2022-07-27T17:30:25.000Z</time>
      </trkpt>
      <trkpt lat="42.4918987043201923370361328125" lon="2.74335240013897418975830078125">
        <ele>198.1999969482421875</ele>
        <time>2022-07-27T17:30:30.000Z</time>
      </trkpt>
      <trkpt lat="42.49168605543673038482666015625" lon="2.74342414923012256622314453125">
        <ele>198.399993896484375</ele>
        <time>2022-07-27T17:30:34.000Z</time>
      </trkpt>
      <trkpt lat="42.49152445234358310699462890625" lon="2.74348533712327480316162109375">
        <ele>198.600006103515625</ele>
        <time>2022-07-27T17:30:37.000Z</time>
      </trkpt>
      <trkpt lat="42.49141531996428966522216796875" lon="2.74354183115065097808837890625">
        <ele>198.8000030517578125</ele>
        <time>2022-07-27T17:30:39.000Z</time>
      </trkpt>
      <trkpt lat="42.49104626476764678955078125" lon="2.74374718777835369110107421875">
        <ele>199.1999969482421875</ele>
        <time>2022-07-27T17:30:46.000Z</time>
      </trkpt>
      <trkpt lat="42.49094375409185886383056640625" lon="2.743812315165996551513671875">
        <ele>199.1999969482421875</ele>
        <time>2022-07-27T17:30:48.000Z</time>
      </trkpt>
      <trkpt lat="42.49084652401506900787353515625" lon="2.7439191006124019622802734375">
        <ele>199.1999969482421875</ele>
        <time>2022-07-27T17:30:50.000Z</time>
      </trkpt>
      <trkpt lat="42.4906216375529766082763671875" lon="2.744303159415721893310546875">
        <ele>198.8000030517578125</ele>
        <time>2022-07-27T17:30:56.000Z</time>
      </trkpt>
      <trkpt lat="42.49052046798169612884521484375" lon="2.74453424848616123199462890625">
        <ele>198.399993896484375</ele>
        <time>2022-07-27T17:30:59.000Z</time>
      </trkpt>
      <trkpt lat="42.49044620431959629058837890625" lon="2.74467925541102886199951171875">
        <ele>198.1999969482421875</ele>
        <time>2022-07-27T17:31:01.000Z</time>
      </trkpt>
      <trkpt lat="42.49022819101810455322265625" lon="2.74506834335625171661376953125">
        <ele>197.8000030517578125</ele>
        <time>2022-07-27T17:31:07.000Z</time>
      </trkpt>
      <trkpt lat="42.49010472558438777923583984375" lon="2.7453091554343700408935546875">
        <ele>197.600006103515625</ele>
        <time>2022-07-27T17:31:11.000Z</time>
      </trkpt>
      <trkpt lat="42.48989517800509929656982421875" lon="2.745758593082427978515625">
        <ele>198</ele>
        <time>2022-07-27T17:31:18.000Z</time>
      </trkpt>
      <trkpt lat="42.48969971202313899993896484375" lon="2.74625756777822971343994140625">
        <ele>198.1999969482421875</ele>
        <time>2022-07-27T17:31:24.000Z</time>
      </trkpt>
      <trkpt lat="42.48967607505619525909423828125" lon="2.7463481761515140533447265625">
        <ele>198.1999969482421875</ele>
        <time>2022-07-27T17:31:25.000Z</time>
      </trkpt>
      <trkpt lat="42.48965864069759845733642578125" lon="2.74662184529006481170654296875">
        <ele>198</ele>
        <time>2022-07-27T17:31:28.000Z</time>
      </trkpt>
      <trkpt lat="42.489653192460536956787109375" lon="2.7468095161020755767822265625">
        <ele>197.600006103515625</ele>
        <time>2022-07-27T17:31:30.000Z</time>
      </trkpt>
      <trkpt lat="42.4896131269633769989013671875" lon="2.746980674564838409423828125">
        <ele>197.399993896484375</ele>
        <time>2022-07-27T17:31:32.000Z</time>
      </trkpt>
      <trkpt lat="42.48946669511497020721435546875" lon="2.7471394278109073638916015625">
        <ele>197</ele>
        <time>2022-07-27T17:31:35.000Z</time>
      </trkpt>
      <trkpt lat="42.48941254802048206329345703125" lon="2.747179828584194183349609375">
        <ele>196.600006103515625</ele>
        <time>2022-07-27T17:31:36.000Z</time>
      </trkpt>
      <trkpt lat="42.48935756273567676544189453125" lon="2.7472195588052272796630859375">
        <ele>196.399993896484375</ele>
        <time>2022-07-27T17:31:37.000Z</time>
      </trkpt>
      <trkpt lat="42.4892044253647327423095703125" lon="2.74732626043260097503662109375">
        <ele>196.399993896484375</ele>
        <time>2022-07-27T17:31:40.000Z</time>
      </trkpt>
      <trkpt lat="42.48915195465087890625" lon="2.747340090572834014892578125">
        <ele>196.399993896484375</ele>
        <time>2022-07-27T17:31:41.000Z</time>
      </trkpt>
      <trkpt lat="42.48896545730531215667724609375" lon="2.74729927070438861846923828125">
        <ele>196.399993896484375</ele>
        <time>2022-07-27T17:31:45.000Z</time>
      </trkpt>
      <trkpt lat="42.4887658841907978057861328125" lon="2.747322656214237213134765625">
        <ele>197.8000030517578125</ele>
        <time>2022-07-27T17:31:50.000Z</time>
      </trkpt>
      <trkpt lat="42.48866370879113674163818359375" lon="2.7473684214055538177490234375">
        <ele>198.8000030517578125</ele>
        <time>2022-07-27T17:31:53.000Z</time>
      </trkpt>
      <trkpt lat="42.48857066966593265533447265625" lon="2.74742298759520053863525390625">
        <ele>199.8000030517578125</ele>
        <time>2022-07-27T17:31:56.000Z</time>
      </trkpt>
      <trkpt lat="42.48851149342954158782958984375" lon="2.747460119426250457763671875">
        <ele>200.8000030517578125</ele>
        <time>2022-07-27T17:31:58.000Z</time>
      </trkpt>
      <trkpt lat="42.48841904103755950927734375" lon="2.747489623725414276123046875">
        <ele>202</ele>
        <time>2022-07-27T17:32:01.000Z</time>
      </trkpt>
      <trkpt lat="42.48833321034908294677734375" lon="2.7475146017968654632568359375">
        <ele>203.1999969482421875</ele>
        <time>2022-07-27T17:32:04.000Z</time>
      </trkpt>
      <trkpt lat="42.48830781318247318267822265625" lon="2.74750999175012111663818359375">
        <ele>203.399993896484375</ele>
        <time>2022-07-27T17:32:05.000Z</time>
      </trkpt>
      <trkpt lat="42.48828166164457798004150390625" lon="2.74751284159719944000244140625">
        <ele>203.399993896484375</ele>
        <time>2022-07-27T17:32:06.000Z</time>
      </trkpt>
      <trkpt lat="42.4881597049534320831298828125" lon="2.74752155877649784088134765625">
        <ele>204.399993896484375</ele>
        <time>2022-07-27T17:32:10.000Z</time>
      </trkpt>
      <trkpt lat="42.48803372494876384735107421875" lon="2.74752407334744930267333984375">
        <ele>205.399993896484375</ele>
        <time>2022-07-27T17:32:14.000Z</time>
      </trkpt>
      <trkpt lat="42.48773667030036449432373046875" lon="2.7475038729608058929443359375">
        <ele>206.399993896484375</ele>
        <time>2022-07-27T17:32:23.000Z</time>
      </trkpt>
      <trkpt lat="42.4877064116299152374267578125" lon="2.7474968321621417999267578125">
        <ele>206.600006103515625</ele>
        <time>2022-07-27T17:32:24.000Z</time>
      </trkpt>
      <trkpt lat="42.48753131367266178131103515625" lon="2.74746925570070743560791015625">
        <ele>207</ele>
        <time>2022-07-27T17:32:30.000Z</time>
      </trkpt>
      <trkpt lat="42.48737758956849575042724609375" lon="2.7474363148212432861328125">
        <ele>207.8000030517578125</ele>
        <time>2022-07-27T17:32:35.000Z</time>
      </trkpt>
      <trkpt lat="42.48734707944095134735107421875" lon="2.7474282681941986083984375">
        <ele>207.8000030517578125</ele>
        <time>2022-07-27T17:32:36.000Z</time>
      </trkpt>
      <trkpt lat="42.487188242375850677490234375" lon="2.7473845146596431732177734375">
        <ele>208.600006103515625</ele>
        <time>2022-07-27T17:32:41.000Z</time>
      </trkpt>
      <trkpt lat="42.48714926652610301971435546875" lon="2.7473959140479564666748046875">
        <ele>208.8000030517578125</ele>
        <time>2022-07-27T17:32:42.000Z</time>
      </trkpt>
      <trkpt lat="42.48699923045933246612548828125" lon="2.747378982603549957275390625">
        <ele>209.600006103515625</ele>
        <time>2022-07-27T17:32:47.000Z</time>
      </trkpt>
      <trkpt lat="42.486942149698734283447265625" lon="2.747362554073333740234375">
        <ele>210</ele>
        <time>2022-07-27T17:32:49.000Z</time>
      </trkpt>
      <trkpt lat="42.486826814711093902587890625" lon="2.74736884050071239471435546875">
        <ele>211</ele>
        <time>2022-07-27T17:32:53.000Z</time>
      </trkpt>
      <trkpt lat="42.4868023395538330078125" lon="2.74738870561122894287109375">
        <ele>211.1999969482421875</ele>
        <time>2022-07-27T17:32:54.000Z</time>
      </trkpt>
      <trkpt lat="42.48677484691143035888671875" lon="2.74742902256548404693603515625">
        <ele>211.1999969482421875</ele>
        <time>2022-07-27T17:32:55.000Z</time>
      </trkpt>
      <trkpt lat="42.486679293215274810791015625" lon="2.7475140988826751708984375">
        <ele>211.399993896484375</ele>
        <time>2022-07-27T17:32:58.000Z</time>
      </trkpt>
      <trkpt lat="42.48652246780693531036376953125" lon="2.74757687933743000030517578125">
        <ele>211.8000030517578125</ele>
        <time>2022-07-27T17:33:03.000Z</time>
      </trkpt>
      <trkpt lat="42.48645524494349956512451171875" lon="2.7475843392312526702880859375">
        <ele>212.1999969482421875</ele>
        <time>2022-07-27T17:33:05.000Z</time>
      </trkpt>
      <trkpt lat="42.48635332100093364715576171875" lon="2.7476213872432708740234375">
        <ele>212.600006103515625</ele>
        <time>2022-07-27T17:33:08.000Z</time>
      </trkpt>
      <trkpt lat="42.486212588846683502197265625" lon="2.7476616203784942626953125">
        <ele>213.1999969482421875</ele>
        <time>2022-07-27T17:33:13.000Z</time>
      </trkpt>
      <trkpt lat="42.48618249781429767608642578125" lon="2.74764946661889553070068359375">
        <ele>213.1999969482421875</ele>
        <time>2022-07-27T17:33:14.000Z</time>
      </trkpt>
      <trkpt lat="42.48608996160328388214111328125" lon="2.747679054737091064453125">
        <ele>213.8000030517578125</ele>
        <time>2022-07-27T17:33:18.000Z</time>
      </trkpt>
      <trkpt lat="42.48603279702365398406982421875" lon="2.747817523777484893798828125">
        <ele>214.1999969482421875</ele>
        <time>2022-07-27T17:33:22.000Z</time>
      </trkpt>
      <trkpt lat="42.4860203079879283905029296875" lon="2.74786320514976978302001953125">
        <ele>214.399993896484375</ele>
        <time>2022-07-27T17:33:23.000Z</time>
      </trkpt>
      <trkpt lat="42.4859566055238246917724609375" lon="2.74809152819216251373291015625">
        <ele>214.600006103515625</ele>
        <time>2022-07-27T17:33:27.000Z</time>
      </trkpt>
      <trkpt lat="42.4858865328133106231689453125" lon="2.748331166803836822509765625">
        <ele>214.399993896484375</ele>
        <time>2022-07-27T17:33:32.000Z</time>
      </trkpt>
      <trkpt lat="42.48583615757524967193603515625" lon="2.7484617568552494049072265625">
        <ele>214.1999969482421875</ele>
        <time>2022-07-27T17:33:36.000Z</time>
      </trkpt>
      <trkpt lat="42.4857564456760883331298828125" lon="2.748478017747402191162109375">
        <ele>214</ele>
        <time>2022-07-27T17:33:40.000Z</time>
      </trkpt>
      <trkpt lat="42.48564555309712886810302734375" lon="2.7484858967363834381103515625">
        <ele>214</ele>
        <time>2022-07-27T17:33:44.000Z</time>
      </trkpt>
      <trkpt lat="42.4854419566690921783447265625" lon="2.74853711016476154327392578125">
        <ele>214.399993896484375</ele>
        <time>2022-07-27T17:33:50.000Z</time>
      </trkpt>
      <trkpt lat="42.48539610765874385833740234375" lon="2.74853342212736606597900390625">
        <ele>214.8000030517578125</ele>
        <time>2022-07-27T17:33:52.000Z</time>
      </trkpt>
      <trkpt lat="42.48532687313854694366455078125" lon="2.748552449047565460205078125">
        <ele>215.1999969482421875</ele>
        <time>2022-07-27T17:33:54.000Z</time>
      </trkpt>
      <trkpt lat="42.48520080931484699249267578125" lon="2.7486190013587474822998046875">
        <ele>215.399993896484375</ele>
        <time>2022-07-27T17:33:59.000Z</time>
      </trkpt>
      <trkpt lat="42.48503141105175018310546875" lon="2.74866987951099872589111328125">
        <ele>216</ele>
        <time>2022-07-27T17:34:05.000Z</time>
      </trkpt>
      <trkpt lat="42.48499008826911449432373046875" lon="2.74867859669029712677001953125">
        <ele>216.399993896484375</ele>
        <time>2022-07-27T17:34:07.000Z</time>
      </trkpt>
      <trkpt lat="42.485249340534210205078125" lon="2.748736850917339324951171875">
        <ele>182.1999969482421875</ele>
        <time>2022-07-28T07:09:43.000Z</time>
      </trkpt>
      <trkpt lat="42.48534430749714374542236328125" lon="2.7487782575190067291259765625">
        <ele>181.8000030517578125</ele>
        <time>2022-07-28T07:09:48.000Z</time>
      </trkpt>
      <trkpt lat="42.485386468470096588134765625" lon="2.7488097734749317169189453125">
        <ele>181.600006103515625</ele>
        <time>2022-07-28T07:09:51.000Z</time>
      </trkpt>
      <trkpt lat="42.48543147929012775421142578125" lon="2.7488225139677524566650390625">
        <ele>181.399993896484375</ele>
        <time>2022-07-28T07:09:53.000Z</time>
      </trkpt>
      <trkpt lat="42.485450170934200286865234375" lon="2.74883978068828582763671875">
        <ele>181.1999969482421875</ele>
        <time>2022-07-28T07:09:54.000Z</time>
      </trkpt>
      <trkpt lat="42.48546115122735500335693359375" lon="2.7489163912832736968994140625">
        <ele>180.8000030517578125</ele>
        <time>2022-07-28T07:09:57.000Z</time>
      </trkpt>
      <trkpt lat="42.48546115122735500335693359375" lon="2.7489163912832736968994140625">
        <ele>180.8000030517578125</ele>
        <time>2022-07-28T07:09:58.000Z</time>
      </trkpt>
      <trkpt lat="42.48542594723403453826904296875" lon="2.74911864660680294036865234375">
        <ele>180.399993896484375</ele>
        <time>2022-07-28T07:10:04.000Z</time>
      </trkpt>
      <trkpt lat="42.48542594723403453826904296875" lon="2.74911864660680294036865234375">
        <ele>180.399993896484375</ele>
        <time>2022-07-28T07:10:05.000Z</time>
      </trkpt>
      <trkpt lat="42.485318742692470550537109375" lon="2.74934613145887851715087890625">
        <ele>180</ele>
        <time>2022-07-28T07:10:11.000Z</time>
      </trkpt>
      <trkpt lat="42.485210783779621124267578125" lon="2.749594151973724365234375">
        <ele>179.1999969482421875</ele>
        <time>2022-07-28T07:10:16.000Z</time>
      </trkpt>
      <trkpt lat="42.48514079488813877105712890625" lon="2.749788947403430938720703125">
        <ele>178.600006103515625</ele>
        <time>2022-07-28T07:10:22.000Z</time>
      </trkpt>
      <trkpt lat="42.485076673328876495361328125" lon="2.75010854937136173248291015625">
        <ele>178.1999969482421875</ele>
        <time>2022-07-28T07:10:28.000Z</time>
      </trkpt>
      <trkpt lat="42.48506896197795867919921875" lon="2.7501552365720272064208984375">
        <ele>178.1999969482421875</ele>
        <time>2022-07-28T07:10:29.000Z</time>
      </trkpt>
      <trkpt lat="42.4850567243993282318115234375" lon="2.75025732815265655517578125">
        <ele>178</ele>
        <time>2022-07-28T07:10:30.000Z</time>
      </trkpt>
      <trkpt lat="42.4850402958691120147705078125" lon="2.7504133991897106170654296875">
        <ele>178</ele>
        <time>2022-07-28T07:10:33.000Z</time>
      </trkpt>
      <trkpt lat="42.484954297542572021484375" lon="2.75088186375796794891357421875">
        <ele>177.600006103515625</ele>
        <time>2022-07-28T07:10:41.000Z</time>
      </trkpt>
      <trkpt lat="42.4848998151719570159912109375" lon="2.751309089362621307373046875">
        <ele>177.399993896484375</ele>
        <time>2022-07-28T07:10:49.000Z</time>
      </trkpt>
      <trkpt lat="42.48485312797129154205322265625" lon="2.75164067745208740234375">
        <ele>177.1999969482421875</ele>
        <time>2022-07-28T07:10:53.000Z</time>
      </trkpt>
      <trkpt lat="42.48481004498898983001708984375" lon="2.7519134245812892913818359375">
        <ele>176.8000030517578125</ele>
        <time>2022-07-28T07:10:58.000Z</time>
      </trkpt>
      <trkpt lat="42.48473930172622203826904296875" lon="2.75243259966373443603515625">
        <ele>176.399993896484375</ele>
        <time>2022-07-28T07:11:05.000Z</time>
      </trkpt>
      <trkpt lat="42.48471398837864398956298828125" lon="2.75258305482566356658935546875">
        <ele>176.399993896484375</ele>
        <time>2022-07-28T07:11:07.000Z</time>
      </trkpt>
      <trkpt lat="42.48464039526879787445068359375" lon="2.75297231040894985198974609375">
        <ele>176</ele>
        <time>2022-07-28T07:11:12.000Z</time>
      </trkpt>
      <trkpt lat="42.48453193344175815582275390625" lon="2.75359206832945346832275390625">
        <ele>175.600006103515625</ele>
        <time>2022-07-28T07:11:20.000Z</time>
      </trkpt>
      <trkpt lat="42.48442028649151325225830078125" lon="2.75430218316614627838134765625">
        <ele>175.600006103515625</ele>
        <time>2022-07-28T07:11:29.000Z</time>
      </trkpt>
      <trkpt lat="42.4843724258244037628173828125" lon="2.75471675209701061248779296875">
        <ele>175.399993896484375</ele>
        <time>2022-07-28T07:11:36.000Z</time>
      </trkpt>
      <trkpt lat="42.484341748058795928955078125" lon="2.7550237812101840972900390625">
        <ele>175.1999969482421875</ele>
        <time>2022-07-28T07:11:40.000Z</time>
      </trkpt>
      <trkpt lat="42.484331689774990081787109375" lon="2.75510801933705806732177734375">
        <ele>175.1999969482421875</ele>
        <time>2022-07-28T07:11:41.000Z</time>
      </trkpt>
      <trkpt lat="42.48425424098968505859375" lon="2.75556801818311214447021484375">
        <ele>174.8000030517578125</ele>
        <time>2022-07-28T07:11:46.000Z</time>
      </trkpt>
      <trkpt lat="42.48423001728951930999755859375" lon="2.75577706284821033477783203125">
        <ele>173.600006103515625</ele>
        <time>2022-07-28T07:11:48.000Z</time>
      </trkpt>
      <trkpt lat="42.484214007854461669921875" lon="2.75612206198275089263916015625">
        <ele>173</ele>
        <time>2022-07-28T07:11:51.000Z</time>
      </trkpt>
      <trkpt lat="42.4842171929776668548583984375" lon="2.75636798702180385589599609375">
        <ele>172.399993896484375</ele>
        <time>2022-07-28T07:11:53.000Z</time>
      </trkpt>
      <trkpt lat="42.48423923738300800323486328125" lon="2.7567477710545063018798828125">
        <ele>171</ele>
        <time>2022-07-28T07:11:56.000Z</time>
      </trkpt>
      <trkpt lat="42.4842488765716552734375" lon="2.7568741701543331146240234375">
        <ele>170.399993896484375</ele>
        <time>2022-07-28T07:11:57.000Z</time>
      </trkpt>
      <trkpt lat="42.484252564609050750732421875" lon="2.75711883790791034698486328125">
        <ele>169.399993896484375</ele>
        <time>2022-07-28T07:11:59.000Z</time>
      </trkpt>
      <trkpt lat="42.48425759375095367431640625" lon="2.75745369493961334228515625">
        <ele>168.8000030517578125</ele>
        <time>2022-07-28T07:12:02.000Z</time>
      </trkpt>
      <trkpt lat="42.48429053463041782379150390625" lon="2.75818216614425182342529296875">
        <ele>168.8000030517578125</ele>
        <time>2022-07-28T07:12:09.000Z</time>
      </trkpt>
      <trkpt lat="42.484310902655124664306640625" lon="2.75876990519464015960693359375">
        <ele>170.600006103515625</ele>
        <time>2022-07-28T07:12:15.000Z</time>
      </trkpt>
      <trkpt lat="42.48431635089218616485595703125" lon="2.75886646471917629241943359375">
        <ele>171</ele>
        <time>2022-07-28T07:12:16.000Z</time>
      </trkpt>
      <trkpt lat="42.484335042536258697509765625" lon="2.75905204005539417266845703125">
        <ele>172</ele>
        <time>2022-07-28T07:12:18.000Z</time>
      </trkpt>
      <trkpt lat="42.4843576736748218536376953125" lon="2.75942285545170307159423828125">
        <ele>173.1999969482421875</ele>
        <time>2022-07-28T07:12:22.000Z</time>
      </trkpt>
      <trkpt lat="42.48439614661037921905517578125" lon="2.75993348099291324615478515625">
        <ele>174.600006103515625</ele>
        <time>2022-07-28T07:12:28.000Z</time>
      </trkpt>
      <trkpt lat="42.4844136647880077362060546875" lon="2.7603117562830448150634765625">
        <ele>175.600006103515625</ele>
        <time>2022-07-28T07:12:33.000Z</time>
      </trkpt>
      <trkpt lat="42.48441609553992748260498046875" lon="2.760375626385211944580078125">
        <ele>175.8000030517578125</ele>
        <time>2022-07-28T07:12:34.000Z</time>
      </trkpt>
      <trkpt lat="42.48442062176764011383056640625" lon="2.76058249175548553466796875">
        <ele>176.600006103515625</ele>
        <time>2022-07-28T07:12:36.000Z</time>
      </trkpt>
      <trkpt lat="42.48442062176764011383056640625" lon="2.76058249175548553466796875">
        <ele>176.8000030517578125</ele>
        <time>2022-07-28T07:12:37.000Z</time>
      </trkpt>
      <trkpt lat="42.4844029359519481658935546875" lon="2.76078768074512481689453125">
        <ele>177.600006103515625</ele>
        <time>2022-07-28T07:12:40.000Z</time>
      </trkpt>
      <trkpt lat="42.48434954322874546051025390625" lon="2.761036120355129241943359375">
        <ele>178</ele>
        <time>2022-07-28T07:12:44.000Z</time>
      </trkpt>
      <trkpt lat="42.48439840972423553466796875" lon="2.76117215864360332489013671875">
        <ele>178.1999969482421875</ele>
        <time>2022-07-28T07:12:46.000Z</time>
      </trkpt>
      <trkpt lat="42.48442254960536956787109375" lon="2.7612470090389251708984375">
        <ele>178.1999969482421875</ele>
        <time>2022-07-28T07:12:47.000Z</time>
      </trkpt>
      <trkpt lat="42.48445666395127773284912109375" lon="2.76159293018281459808349609375">
        <ele>178.1999969482421875</ele>
        <time>2022-07-28T07:12:51.000Z</time>
      </trkpt>
      <trkpt lat="42.48448935337364673614501953125" lon="2.76228460483253002166748046875">
        <ele>177</ele>
        <time>2022-07-28T07:12:59.000Z</time>
      </trkpt>
      <trkpt lat="42.4845464341342449188232421875" lon="2.7630709111690521240234375">
        <ele>176.600006103515625</ele>
        <time>2022-07-28T07:13:07.000Z</time>
      </trkpt>
      <trkpt lat="42.48455238528549671173095703125" lon="2.76317107491195201873779296875">
        <ele>176.1999969482421875</ele>
        <time>2022-07-28T07:13:08.000Z</time>
      </trkpt>
      <trkpt lat="42.48455959372222423553466796875" lon="2.76337408460676670074462890625">
        <ele>176</ele>
        <time>2022-07-28T07:13:10.000Z</time>
      </trkpt>
      <trkpt lat="42.48457618989050388336181640625" lon="2.76367818005383014678955078125">
        <ele>176</ele>
        <time>2022-07-28T07:13:13.000Z</time>
      </trkpt>
      <trkpt lat="42.484603263437747955322265625" lon="2.76418243534862995147705078125">
        <ele>176</ele>
        <time>2022-07-28T07:13:18.000Z</time>
      </trkpt>
      <trkpt lat="42.48460569418966770172119140625" lon="2.76428528130054473876953125">
        <ele>176</ele>
        <time>2022-07-28T07:13:19.000Z</time>
      </trkpt>
      <trkpt lat="42.48464324511587619781494140625" lon="2.7649492956697940826416015625">
        <ele>176</ele>
        <time>2022-07-28T07:13:25.000Z</time>
      </trkpt>
      <trkpt lat="42.48467559926211833953857421875" lon="2.76562596671283245086669921875">
        <ele>175</ele>
        <time>2022-07-28T07:13:30.000Z</time>
      </trkpt>
      <trkpt lat="42.48468649573624134063720703125" lon="2.76584590785205364227294921875">
        <ele>174.1999969482421875</ele>
        <time>2022-07-28T07:13:32.000Z</time>
      </trkpt>
      <trkpt lat="42.48469219543039798736572265625" lon="2.76595495641231536865234375">
        <ele>173.8000030517578125</ele>
        <time>2022-07-28T07:13:33.000Z</time>
      </trkpt>
      <trkpt lat="42.4847412295639514923095703125" lon="2.76682130992412567138671875">
        <ele>173.1999969482421875</ele>
        <time>2022-07-28T07:13:41.000Z</time>
      </trkpt>
      <trkpt lat="42.48477123677730560302734375" lon="2.76755900122225284576416015625">
        <ele>173.399993896484375</ele>
        <time>2022-07-28T07:13:49.000Z</time>
      </trkpt>
      <trkpt lat="42.4847734160721302032470703125" lon="2.76766260154545307159423828125">
        <ele>173.399993896484375</ele>
        <time>2022-07-28T07:13:50.000Z</time>
      </trkpt>
      <trkpt lat="42.48480669222772121429443359375" lon="2.76831655763089656829833984375">
        <ele>173.1999969482421875</ele>
        <time>2022-07-28T07:13:56.000Z</time>
      </trkpt>
      <trkpt lat="42.48482161201536655426025390625" lon="2.7686779014766216278076171875">
        <ele>172.8000030517578125</ele>
        <time>2022-07-28T07:13:59.000Z</time>
      </trkpt>
      <trkpt lat="42.484838627278804779052734375" lon="2.768941260874271392822265625">
        <ele>172.600006103515625</ele>
        <time>2022-07-28T07:14:01.000Z</time>
      </trkpt>
      <trkpt lat="42.48486536554992198944091796875" lon="2.76952137239277362823486328125">
        <ele>171.600006103515625</ele>
        <time>2022-07-28T07:14:04.000Z</time>
      </trkpt>
      <trkpt lat="42.48488045297563076019287109375" lon="2.7696703188121318817138671875">
        <ele>171</ele>
        <time>2022-07-28T07:14:06.000Z</time>
      </trkpt>
      <trkpt lat="42.48490241356194019317626953125" lon="2.769821025431156158447265625">
        <ele>170.399993896484375</ele>
        <time>2022-07-28T07:14:07.000Z</time>
      </trkpt>
      <trkpt lat="42.48497131280601024627685546875" lon="2.77012051083147525787353515625">
        <ele>168.8000030517578125</ele>
        <time>2022-07-28T07:14:09.000Z</time>
      </trkpt>
      <trkpt lat="42.4850235320627689361572265625" lon="2.77026669122278690338134765625">
        <ele>167.1999969482421875</ele>
        <time>2022-07-28T07:14:10.000Z</time>
      </trkpt>
      <trkpt lat="42.485224865376949310302734375" lon="2.770682014524936676025390625">
        <ele>166</ele>
        <time>2022-07-28T07:14:12.000Z</time>
      </trkpt>
      <trkpt lat="42.48537230305373668670654296875" lon="2.77093891985714435577392578125">
        <ele>164.399993896484375</ele>
        <time>2022-07-28T07:14:14.000Z</time>
      </trkpt>
      <trkpt lat="42.48552418313920497894287109375" lon="2.77118652127683162689208984375">
        <ele>163</ele>
        <time>2022-07-28T07:14:16.000Z</time>
      </trkpt>
      <trkpt lat="42.48567421920597553253173828125" lon="2.7714313566684722900390625">
        <ele>161.1999969482421875</ele>
        <time>2022-07-28T07:14:18.000Z</time>
      </trkpt>
      <trkpt lat="42.48574345372617244720458984375" lon="2.77155146934092044830322265625">
        <ele>159.8000030517578125</ele>
        <time>2022-07-28T07:14:20.000Z</time>
      </trkpt>
      <trkpt lat="42.48610471375286579132080078125" lon="2.772218920290470123291015625">
        <ele>159.1999969482421875</ele>
        <time>2022-07-28T07:14:26.000Z</time>
      </trkpt>
      <trkpt lat="42.48643563129007816314697265625" lon="2.77278654277324676513671875">
        <ele>160</ele>
        <time>2022-07-28T07:14:32.000Z</time>
      </trkpt>
      <trkpt lat="42.48659539036452770233154296875" lon="2.77304881252348423004150390625">
        <ele>161</ele>
        <time>2022-07-28T07:14:35.000Z</time>
      </trkpt>
      <trkpt lat="42.48675028793513774871826171875" lon="2.77329884469509124755859375">
        <ele>161.8000030517578125</ele>
        <time>2022-07-28T07:14:38.000Z</time>
      </trkpt>
      <trkpt lat="42.48680091463029384613037109375" lon="2.773378305137157440185546875">
        <ele>162.600006103515625</ele>
        <time>2022-07-28T07:14:39.000Z</time>
      </trkpt>
      <trkpt lat="42.48695681802928447723388671875" lon="2.7735957317054271697998046875">
        <ele>163</ele>
        <time>2022-07-28T07:14:41.000Z</time>
      </trkpt>
      <trkpt lat="42.48706896789371967315673828125" lon="2.77372087351977825164794921875">
        <ele>163.600006103515625</ele>
        <time>2022-07-28T07:14:43.000Z</time>
      </trkpt>
      <trkpt lat="42.48706896789371967315673828125" lon="2.77372087351977825164794921875">
        <ele>164</ele>
        <time>2022-07-28T07:14:44.000Z</time>
      </trkpt>
      <trkpt lat="42.4871817044913768768310546875" lon="2.77383654378354549407958984375">
        <ele>164.600006103515625</ele>
        <time>2022-07-28T07:14:46.000Z</time>
      </trkpt>
      <trkpt lat="42.48724113218486309051513671875" lon="2.773887254297733306884765625">
        <ele>164.8000030517578125</ele>
        <time>2022-07-28T07:14:47.000Z</time>
      </trkpt>
      <trkpt lat="42.48743374831974506378173828125" lon="2.77401390485465526580810546875">
        <ele>165.1999969482421875</ele>
        <time>2022-07-28T07:14:50.000Z</time>
      </trkpt>
      <trkpt lat="42.48798678629100322723388671875" lon="2.77437918819487094879150390625">
        <ele>165.399993896484375</ele>
        <time>2022-07-28T07:14:57.000Z</time>
      </trkpt>
      <trkpt lat="42.4884071387350559234619140625" lon="2.7746723033487796783447265625">
        <ele>163.600006103515625</ele>
        <time>2022-07-28T07:15:04.000Z</time>
      </trkpt>
      <trkpt lat="42.48861107043921947479248046875" lon="2.7748483233153820037841796875">
        <ele>162.600006103515625</ele>
        <time>2022-07-28T07:15:07.000Z</time>
      </trkpt>
      <trkpt lat="42.4887393973767757415771484375" lon="2.77499794028699398040771484375">
        <ele>162</ele>
        <time>2022-07-28T07:15:09.000Z</time>
      </trkpt>
      <trkpt lat="42.48900485225021839141845703125" lon="2.7753066457808017730712890625">
        <ele>161.1999969482421875</ele>
        <time>2022-07-28T07:15:13.000Z</time>
      </trkpt>
      <trkpt lat="42.4891353584825992584228515625" lon="2.775468416512012481689453125">
        <ele>160.8000030517578125</ele>
        <time>2022-07-28T07:15:15.000Z</time>
      </trkpt>
      <trkpt lat="42.48926603235304355621337890625" lon="2.77562557719647884368896484375">
        <ele>160</ele>
        <time>2022-07-28T07:15:17.000Z</time>
      </trkpt>
      <trkpt lat="42.4894471652805805206298828125" lon="2.77588860131800174713134765625">
        <ele>158.8000030517578125</ele>
        <time>2022-07-28T07:15:20.000Z</time>
      </trkpt>
      <trkpt lat="42.4896132946014404296875" lon="2.77616570703685283660888671875">
        <ele>157.600006103515625</ele>
        <time>2022-07-28T07:15:23.000Z</time>
      </trkpt>
      <trkpt lat="42.48972217552363872528076171875" lon="2.77634005062282085418701171875">
        <ele>157.1999969482421875</ele>
        <time>2022-07-28T07:15:25.000Z</time>
      </trkpt>
      <trkpt lat="42.48999257571995258331298828125" lon="2.7768076770007610321044921875">
        <ele>156.1999969482421875</ele>
        <time>2022-07-28T07:15:30.000Z</time>
      </trkpt>
      <trkpt lat="42.49017027206718921661376953125" lon="2.77710615657269954681396484375">
        <ele>155.8000030517578125</ele>
        <time>2022-07-28T07:15:33.000Z</time>
      </trkpt>
      <trkpt lat="42.49029315076768398284912109375" lon="2.77731033973395824432373046875">
        <ele>155.1999969482421875</ele>
        <time>2022-07-28T07:15:35.000Z</time>
      </trkpt>
      <trkpt lat="42.490479312837123870849609375" lon="2.77762985788285732269287109375">
        <ele>154</ele>
        <time>2022-07-28T07:15:38.000Z</time>
      </trkpt>
      <trkpt lat="42.49067033641040325164794921875" lon="2.7779523096978664398193359375">
        <ele>153.399993896484375</ele>
        <time>2022-07-28T07:15:41.000Z</time>
      </trkpt>
      <trkpt lat="42.49079690314829349517822265625" lon="2.7781688980758190155029296875">
        <ele>152.8000030517578125</ele>
        <time>2022-07-28T07:15:43.000Z</time>
      </trkpt>
      <trkpt lat="42.49098817817866802215576171875" lon="2.7784961275756359100341796875">
        <ele>151.1999969482421875</ele>
        <time>2022-07-28T07:15:46.000Z</time>
      </trkpt>
      <trkpt lat="42.4911208637058734893798828125" lon="2.7787135541439056396484375">
        <ele>150.600006103515625</ele>
        <time>2022-07-28T07:15:48.000Z</time>
      </trkpt>
      <trkpt lat="42.49144884757697582244873046875" lon="2.77927388437092304229736328125">
        <ele>150.1999969482421875</ele>
        <time>2022-07-28T07:15:53.000Z</time>
      </trkpt>
      <trkpt lat="42.49163568019866943359375" lon="2.7796201407909393310546875">
        <ele>149.8000030517578125</ele>
        <time>2022-07-28T07:15:56.000Z</time>
      </trkpt>
      <trkpt lat="42.49173768796026706695556640625" lon="2.7798647247254848480224609375">
        <ele>149.600006103515625</ele>
        <time>2022-07-28T07:15:58.000Z</time>
      </trkpt>
      <trkpt lat="42.49180776067078113555908203125" lon="2.78011425398290157318115234375">
        <ele>149.1999969482421875</ele>
        <time>2022-07-28T07:16:00.000Z</time>
      </trkpt>
      <trkpt lat="42.49183751642704010009765625" lon="2.78024308383464813232421875">
        <ele>149.399993896484375</ele>
        <time>2022-07-28T07:16:01.000Z</time>
      </trkpt>
      <trkpt lat="42.49195042066276073455810546875" lon="2.780781872570514678955078125">
        <ele>148</ele>
        <time>2022-07-28T07:16:05.000Z</time>
      </trkpt>
      <trkpt lat="42.49198143370449542999267578125" lon="2.7809208445250988006591796875">
        <ele>147.399993896484375</ele>
        <time>2022-07-28T07:16:06.000Z</time>
      </trkpt>
      <trkpt lat="42.49203725717961788177490234375" lon="2.7811984531581401824951171875">
        <ele>146.600006103515625</ele>
        <time>2022-07-28T07:16:08.000Z</time>
      </trkpt>
      <trkpt lat="42.49214806593954563140869140625" lon="2.7815960906445980072021484375">
        <ele>145.399993896484375</ele>
        <time>2022-07-28T07:16:11.000Z</time>
      </trkpt>
      <trkpt lat="42.49230279587209224700927734375" lon="2.7819665707647800445556640625">
        <ele>144.1999969482421875</ele>
        <time>2022-07-28T07:16:14.000Z</time>
      </trkpt>
      <trkpt lat="42.49236113391816616058349609375" lon="2.7820829115808010101318359375">
        <ele>144</ele>
        <time>2022-07-28T07:16:15.000Z</time>
      </trkpt>
      <trkpt lat="42.492682747542858123779296875" lon="2.78262094594538211822509765625">
        <ele>143.1999969482421875</ele>
        <time>2022-07-28T07:16:20.000Z</time>
      </trkpt>
      <trkpt lat="42.49288357794284820556640625" lon="2.783099971711635589599609375">
        <ele>142.600006103515625</ele>
        <time>2022-07-28T07:16:23.000Z</time>
      </trkpt>
      <trkpt lat="42.49288357794284820556640625" lon="2.783099971711635589599609375">
        <ele>142.600006103515625</ele>
        <time>2022-07-28T07:16:24.000Z</time>
      </trkpt>
      <trkpt lat="42.49294468201696872711181640625" lon="2.783361487090587615966796875">
        <ele>142.600006103515625</ele>
        <time>2022-07-28T07:16:25.000Z</time>
      </trkpt>
      <trkpt lat="42.4930104799568653106689453125" lon="2.78376155532896518707275390625">
        <ele>142.399993896484375</ele>
        <time>2022-07-28T07:16:28.000Z</time>
      </trkpt>
      <trkpt lat="42.493107877671718597412109375" lon="2.78442674316465854644775390625">
        <ele>142</ele>
        <time>2022-07-28T07:16:33.000Z</time>
      </trkpt>
      <trkpt lat="42.4931415729224681854248046875" lon="2.7846823073923587799072265625">
        <ele>142</ele>
        <time>2022-07-28T07:16:36.000Z</time>
      </trkpt>
      <trkpt lat="42.4932260625064373016357421875" lon="2.78540642000734806060791015625">
        <ele>141.600006103515625</ele>
        <time>2022-07-28T07:16:42.000Z</time>
      </trkpt>
      <trkpt lat="42.4932398088276386260986328125" lon="2.78552326373755931854248046875">
        <ele>141.600006103515625</ele>
        <time>2022-07-28T07:16:43.000Z</time>
      </trkpt>
      <trkpt lat="42.4933031760156154632568359375" lon="2.78628132306039333343505859375">
        <ele>141.600006103515625</ele>
        <time>2022-07-28T07:16:49.000Z</time>
      </trkpt>
      <trkpt lat="42.4933142401278018951416015625" lon="2.78641275130212306976318359375">
        <ele>141.600006103515625</ele>
        <time>2022-07-28T07:16:50.000Z</time>
      </trkpt>
      <trkpt lat="42.493350617587566375732421875" lon="2.78679370880126953125">
        <ele>141</ele>
        <time>2022-07-28T07:16:53.000Z</time>
      </trkpt>
      <trkpt lat="42.4934124760329723358154296875" lon="2.7872625924646854400634765625">
        <ele>140.8000030517578125</ele>
        <time>2022-07-28T07:16:57.000Z</time>
      </trkpt>
      <trkpt lat="42.4934533797204494476318359375" lon="2.78809751383960247039794921875">
        <ele>140.1999969482421875</ele>
        <time>2022-07-28T07:17:04.000Z</time>
      </trkpt>
      <trkpt lat="42.4934449978172779083251953125" lon="2.78832516632974147796630859375">
        <ele>140.1999969482421875</ele>
        <time>2022-07-28T07:17:06.000Z</time>
      </trkpt>
      <trkpt lat="42.49340887181460857391357421875" lon="2.7886482886970043182373046875">
        <ele>140.1999969482421875</ele>
        <time>2022-07-28T07:17:09.000Z</time>
      </trkpt>
      <trkpt lat="42.49338473193347454071044921875" lon="2.78895548544824123382568359375">
        <ele>140</ele>
        <time>2022-07-28T07:17:12.000Z</time>
      </trkpt>
      <trkpt lat="42.49338003806769847869873046875" lon="2.78925874270498752593994140625">
        <ele>139.8000030517578125</ele>
        <time>2022-07-28T07:17:15.000Z</time>
      </trkpt>
      <trkpt lat="42.4933367036283016204833984375" lon="2.79002266936004161834716796875">
        <ele>139.399993896484375</ele>
        <time>2022-07-28T07:17:22.000Z</time>
      </trkpt>
      <trkpt lat="42.49330761842429637908935546875" lon="2.790460288524627685546875">
        <ele>138.8000030517578125</ele>
        <time>2022-07-28T07:17:26.000Z</time>
      </trkpt>
      <trkpt lat="42.49328666366636753082275390625" lon="2.79078257270157337188720703125">
        <ele>137.8000030517578125</ele>
        <time>2022-07-28T07:17:29.000Z</time>
      </trkpt>
      <trkpt lat="42.493240647017955780029296875" lon="2.79153652489185333251953125">
        <ele>137.8000030517578125</ele>
        <time>2022-07-28T07:17:36.000Z</time>
      </trkpt>
      <trkpt lat="42.49323335476219654083251953125" lon="2.79164423234760761260986328125">
        <ele>137.8000030517578125</ele>
        <time>2022-07-28T07:17:37.000Z</time>
      </trkpt>
      <trkpt lat="42.493212483823299407958984375" lon="2.79196727089583873748779296875">
        <ele>137.8000030517578125</ele>
        <time>2022-07-28T07:17:40.000Z</time>
      </trkpt>
      <trkpt lat="42.493167556822299957275390625" lon="2.7926119230687618255615234375">
        <ele>138.399993896484375</ele>
        <time>2022-07-28T07:17:46.000Z</time>
      </trkpt>
      <trkpt lat="42.49314819462597370147705078125" lon="2.79291342012584209442138671875">
        <ele>138.8000030517578125</ele>
        <time>2022-07-28T07:17:49.000Z</time>
      </trkpt>
      <trkpt lat="42.493124306201934814453125" lon="2.79327501542866230010986328125">
        <ele>139.600006103515625</ele>
        <time>2022-07-28T07:17:53.000Z</time>
      </trkpt>
      <trkpt lat="42.493118606507778167724609375" lon="2.79336235485970973968505859375">
        <ele>140</ele>
        <time>2022-07-28T07:17:54.000Z</time>
      </trkpt>
      <trkpt lat="42.4930909462273120880126953125" lon="2.79370869509875774383544921875">
        <ele>141.1999969482421875</ele>
        <time>2022-07-28T07:17:58.000Z</time>
      </trkpt>
      <trkpt lat="42.49306387268006801605224609375" lon="2.7938782609999179840087890625">
        <ele>141.8000030517578125</ele>
        <time>2022-07-28T07:18:00.000Z</time>
      </trkpt>
      <trkpt lat="42.49300427734851837158203125" lon="2.79412343166768550872802734375">
        <ele>142.399993896484375</ele>
        <time>2022-07-28T07:18:03.000Z</time>
      </trkpt>
      <trkpt lat="42.49295289628207683563232421875" lon="2.79427774250507354736328125">
        <ele>142.8000030517578125</ele>
        <time>2022-07-28T07:18:05.000Z</time>
      </trkpt>
      <trkpt lat="42.4927352182567119598388671875" lon="2.79478442855179309844970703125">
        <ele>143.399993896484375</ele>
        <time>2022-07-28T07:18:12.000Z</time>
      </trkpt>
      <trkpt lat="42.49269993044435977935791015625" lon="2.7948572672903537750244140625">
        <ele>143.399993896484375</ele>
        <time>2022-07-28T07:18:13.000Z</time>
      </trkpt>
      <trkpt lat="42.4923880398273468017578125" lon="2.7955103851854801177978515625">
        <ele>144.399993896484375</ele>
        <time>2022-07-28T07:18:22.000Z</time>
      </trkpt>
      <trkpt lat="42.49209743924438953399658203125" lon="2.7960298955440521240234375">
        <ele>144.8000030517578125</ele>
        <time>2022-07-28T07:18:29.000Z</time>
      </trkpt>
      <trkpt lat="42.49175596050918102264404296875" lon="2.7966191433370113372802734375">
        <ele>144.8000030517578125</ele>
        <time>2022-07-28T07:18:36.000Z</time>
      </trkpt>
      <trkpt lat="42.49165889807045459747314453125" lon="2.7970764599740505218505859375">
        <ele>143.600006103515625</ele>
        <time>2022-07-28T07:18:40.000Z</time>
      </trkpt>
      <trkpt lat="42.49163710512220859527587890625" lon="2.7971954829990863800048828125">
        <ele>143.399993896484375</ele>
        <time>2022-07-28T07:18:41.000Z</time>
      </trkpt>
      <trkpt lat="42.49154741875827312469482421875" lon="2.797882296144962310791015625">
        <ele>142.600006103515625</ele>
        <time>2022-07-28T07:18:46.000Z</time>
      </trkpt>
      <trkpt lat="42.49154741875827312469482421875" lon="2.797882296144962310791015625">
        <ele>142.1999969482421875</ele>
        <time>2022-07-28T07:18:47.000Z</time>
      </trkpt>
      <trkpt lat="42.49147214926779270172119140625" lon="2.798376493155956268310546875">
        <ele>142</ele>
        <time>2022-07-28T07:18:52.000Z</time>
      </trkpt>
      <trkpt lat="42.49136150814592838287353515625" lon="2.79883758164942264556884765625">
        <ele>142.399993896484375</ele>
        <time>2022-07-28T07:18:58.000Z</time>
      </trkpt>
      <trkpt lat="42.49129361473023891448974609375" lon="2.79908015392720699310302734375">
        <ele>143.1999969482421875</ele>
        <time>2022-07-28T07:19:02.000Z</time>
      </trkpt>
      <trkpt lat="42.491259835660457611083984375" lon="2.799180485308170318603515625">
        <ele>143.600006103515625</ele>
        <time>2022-07-28T07:19:04.000Z</time>
      </trkpt>
      <trkpt lat="42.49123427085578441619873046875" lon="2.79921560548245906829833984375">
        <ele>143.8000030517578125</ele>
        <time>2022-07-28T07:19:05.000Z</time>
      </trkpt>
      <trkpt lat="42.491186745464801788330078125" lon="2.79924075119197368621826171875">
        <ele>144.1999969482421875</ele>
        <time>2022-07-28T07:19:07.000Z</time>
      </trkpt>
      <trkpt lat="42.49117895029485225677490234375" lon="2.799241840839385986328125">
        <ele>144.399993896484375</ele>
        <time>2022-07-28T07:19:08.000Z</time>
      </trkpt>
      <trkpt lat="42.4911802075803279876708984375" lon="2.7992383204400539398193359375">
        <ele>144.8000030517578125</ele>
        <time>2022-07-28T07:19:11.000Z</time>
      </trkpt>
      <trkpt lat="42.4911812134087085723876953125" lon="2.79923706315457820892333984375">
        <ele>145.8000030517578125</ele>
        <time>2022-07-28T07:19:15.000Z</time>
      </trkpt>
      <trkpt lat="42.491176687180995941162109375" lon="2.799241505563259124755859375">
        <ele>146</ele>
        <time>2022-07-28T07:19:17.000Z</time>
      </trkpt>
      <trkpt lat="42.491158582270145416259765625" lon="2.79927947558462619781494140625">
        <ele>146.1999969482421875</ele>
        <time>2022-07-28T07:19:19.000Z</time>
      </trkpt>
      <trkpt lat="42.491151206195354461669921875" lon="2.799381650984287261962890625">
        <ele>146.1999969482421875</ele>
        <time>2022-07-28T07:19:22.000Z</time>
      </trkpt>
      <trkpt lat="42.491154558956623077392578125" lon="2.7994341216981410980224609375">
        <ele>146.1999969482421875</ele>
        <time>2022-07-28T07:19:23.000Z</time>
      </trkpt>
      <trkpt lat="42.49116294085979461669921875" lon="2.79957644641399383544921875">
        <ele>146.1999969482421875</ele>
        <time>2022-07-28T07:19:25.000Z</time>
      </trkpt>
      <trkpt lat="42.4911450035870075225830078125" lon="2.7997341938316822052001953125">
        <ele>146.1999969482421875</ele>
        <time>2022-07-28T07:19:27.000Z</time>
      </trkpt>
      <trkpt lat="42.491109631955623626708984375" lon="2.79989822767674922943115234375">
        <ele>146</ele>
        <time>2022-07-28T07:19:29.000Z</time>
      </trkpt>
      <trkpt lat="42.49102908186614513397216796875" lon="2.800246663391590118408203125">
        <ele>145</ele>
        <time>2022-07-28T07:19:33.000Z</time>
      </trkpt>
      <trkpt lat="42.4909636192023754119873046875" lon="2.8005264513194561004638671875">
        <ele>144.8000030517578125</ele>
        <time>2022-07-28T07:19:36.000Z</time>
      </trkpt>
      <trkpt lat="42.4908838234841823577880859375" lon="2.80083565972745418548583984375">
        <ele>144.600006103515625</ele>
        <time>2022-07-28T07:19:39.000Z</time>
      </trkpt>
      <trkpt lat="42.49073915183544158935546875" lon="2.80144284479320049285888671875">
        <ele>144.399993896484375</ele>
        <time>2022-07-28T07:19:44.000Z</time>
      </trkpt>
      <trkpt lat="42.4906769581139087677001953125" lon="2.80170670710504055023193359375">
        <ele>143.600006103515625</ele>
        <time>2022-07-28T07:19:46.000Z</time>
      </trkpt>
      <trkpt lat="42.490603029727935791015625" lon="2.80197425745427608489990234375">
        <ele>142.399993896484375</ele>
        <time>2022-07-28T07:19:48.000Z</time>
      </trkpt>
      <trkpt lat="42.490516863763332366943359375" lon="2.80222755856812000274658203125">
        <ele>141.1999969482421875</ele>
        <time>2022-07-28T07:19:50.000Z</time>
      </trkpt>
      <trkpt lat="42.49043212272226810455322265625" lon="2.802444063127040863037109375">
        <ele>139</ele>
        <time>2022-07-28T07:19:52.000Z</time>
      </trkpt>
      <trkpt lat="42.49035232700407505035400390625" lon="2.802623100578784942626953125">
        <ele>137.8000030517578125</ele>
        <time>2022-07-28T07:19:54.000Z</time>
      </trkpt>
      <trkpt lat="42.4903054721653461456298828125" lon="2.80269895680248737335205078125">
        <ele>137.399993896484375</ele>
        <time>2022-07-28T07:19:55.000Z</time>
      </trkpt>
      <trkpt lat="42.49025509692728519439697265625" lon="2.8027650900185108184814453125">
        <ele>136.8000030517578125</ele>
        <time>2022-07-28T07:19:56.000Z</time>
      </trkpt>
      <trkpt lat="42.49021134339272975921630859375" lon="2.80282585881650447845458984375">
        <ele>136.399993896484375</ele>
        <time>2022-07-28T07:19:57.000Z</time>
      </trkpt>
      <trkpt lat="42.4901794083416461944580078125" lon="2.802898027002811431884765625">
        <ele>135.8000030517578125</ele>
        <time>2022-07-28T07:19:58.000Z</time>
      </trkpt>
      <trkpt lat="42.49011260457336902618408203125" lon="2.80318208970129489898681640625">
        <ele>134.8000030517578125</ele>
        <time>2022-07-28T07:20:01.000Z</time>
      </trkpt>
      <trkpt lat="42.49008678831160068511962890625" lon="2.80328183434903621673583984375">
        <ele>134.600006103515625</ele>
        <time>2022-07-28T07:20:02.000Z</time>
      </trkpt>
      <trkpt lat="42.48992585577070713043212890625" lon="2.8038297593593597412109375">
        <ele>134</ele>
        <time>2022-07-28T07:20:07.000Z</time>
      </trkpt>
      <trkpt lat="42.4898488260805606842041015625" lon="2.80408599413931369781494140625">
        <ele>133.8000030517578125</ele>
        <time>2022-07-28T07:20:09.000Z</time>
      </trkpt>
      <trkpt lat="42.48972921632230281829833984375" lon="2.80445915646851062774658203125">
        <ele>132</ele>
        <time>2022-07-28T07:20:12.000Z</time>
      </trkpt>
      <trkpt lat="42.4896736443042755126953125" lon="2.80466300435364246368408203125">
        <ele>130.399993896484375</ele>
        <time>2022-07-28T07:20:14.000Z</time>
      </trkpt>
      <trkpt lat="42.48965126462280750274658203125" lon="2.80474984087049961090087890625">
        <ele>129.399993896484375</ele>
        <time>2022-07-28T07:20:15.000Z</time>
      </trkpt>
      <trkpt lat="42.4896158091723918914794921875" lon="2.804909683763980865478515625">
        <ele>128.1999969482421875</ele>
        <time>2022-07-28T07:20:17.000Z</time>
      </trkpt>
      <trkpt lat="42.48956241644918918609619140625" lon="2.80513322912156581878662109375">
        <ele>127.59999847412109375</ele>
        <time>2022-07-28T07:20:20.000Z</time>
      </trkpt>
      <trkpt lat="42.48951111920177936553955078125" lon="2.80534185469150543212890625">
        <ele>127.59999847412109375</ele>
        <time>2022-07-28T07:20:24.000Z</time>
      </trkpt>
      <trkpt lat="42.48943735845386981964111328125" lon="2.80558300204575061798095703125">
        <ele>128</ele>
        <time>2022-07-28T07:20:29.000Z</time>
      </trkpt>
      <trkpt lat="42.48941816389560699462890625" lon="2.80563111416995525360107421875">
        <ele>128</ele>
        <time>2022-07-28T07:20:30.000Z</time>
      </trkpt>
      <trkpt lat="42.48940215446054935455322265625" lon="2.8057902865111827850341796875">
        <ele>128.600006103515625</ele>
        <time>2022-07-28T07:20:34.000Z</time>
      </trkpt>
      <trkpt lat="42.48941305093467235565185546875" lon="2.80583546496927738189697265625">
        <ele>128.8000030517578125</ele>
        <time>2022-07-28T07:20:36.000Z</time>
      </trkpt>
      <trkpt lat="42.48962796293199062347412109375" lon="2.80575835146009922027587890625">
        <ele>130.1999969482421875</ele>
        <time>2022-07-28T07:21:08.000Z</time>
      </trkpt>
      <trkpt lat="42.48983549885451793670654296875" lon="2.80565575696527957916259765625">
        <ele>130.1999969482421875</ele>
        <time>2022-07-28T07:21:13.000Z</time>
      </trkpt>
      <trkpt lat="42.4898801743984222412109375" lon="2.80565860681235790252685546875">
        <ele>130.1999969482421875</ele>
        <time>2022-07-28T07:21:14.000Z</time>
      </trkpt>
      <trkpt lat="42.4900080822408199310302734375" lon="2.80572297982871532440185546875">
        <ele>130.1999969482421875</ele>
        <time>2022-07-28T07:21:17.000Z</time>
      </trkpt>
      <trkpt lat="42.49009081162512302398681640625" lon="2.8057772107422351837158203125">
        <ele>130.399993896484375</ele>
        <time>2022-07-28T07:21:19.000Z</time>
      </trkpt>
      <trkpt lat="42.49029658734798431396484375" lon="2.8059093095362186431884765625">
        <ele>131.1999969482421875</ele>
        <time>2022-07-28T07:21:23.000Z</time>
      </trkpt>
      <trkpt lat="42.49041569419205188751220703125" lon="2.805993966758251190185546875">
        <ele>132.600006103515625</ele>
        <time>2022-07-28T07:21:27.000Z</time>
      </trkpt>
      <trkpt lat="42.49049046076834201812744140625" lon="2.80605842359364032745361328125">
        <ele>133.1999969482421875</ele>
        <time>2022-07-28T07:21:29.000Z</time>
      </trkpt>
      <trkpt lat="42.490525580942630767822265625" lon="2.8060962259769439697265625">
        <ele>133.399993896484375</ele>
        <time>2022-07-28T07:21:30.000Z</time>
      </trkpt>
      <trkpt lat="42.490590624511241912841796875" lon="2.8061788715422153472900390625">
        <ele>133.600006103515625</ele>
        <time>2022-07-28T07:21:32.000Z</time>
      </trkpt>
      <trkpt lat="42.4906162731349468231201171875" lon="2.8062249720096588134765625">
        <ele>134</ele>
        <time>2022-07-28T07:21:33.000Z</time>
      </trkpt>
      <trkpt lat="42.49065441079437732696533203125" lon="2.806325890123844146728515625">
        <ele>134.399993896484375</ele>
        <time>2022-07-28T07:21:35.000Z</time>
      </trkpt>
      <trkpt lat="42.49067352153360843658447265625" lon="2.8063766844570636749267578125">
        <ele>134.600006103515625</ele>
        <time>2022-07-28T07:21:36.000Z</time>
      </trkpt>
      <trkpt lat="42.49068995006382465362548828125" lon="2.80642806552350521087646484375">
        <ele>134.8000030517578125</ele>
        <time>2022-07-28T07:21:37.000Z</time>
      </trkpt>
      <trkpt lat="42.490739487111568450927734375" lon="2.80663811601698398590087890625">
        <ele>136.1999969482421875</ele>
        <time>2022-07-28T07:21:41.000Z</time>
      </trkpt>
      <trkpt lat="42.4907899461686611175537109375" lon="2.80684950761497020721435546875">
        <ele>137.1999969482421875</ele>
        <time>2022-07-28T07:21:45.000Z</time>
      </trkpt>
      <trkpt lat="42.4908238090574741363525390625" lon="2.8069986216723918914794921875">
        <ele>137.8000030517578125</ele>
        <time>2022-07-28T07:21:48.000Z</time>
      </trkpt>
      <trkpt lat="42.49084065668284893035888671875" lon="2.807087637484073638916015625">
        <ele>138.1999969482421875</ele>
        <time>2022-07-28T07:21:50.000Z</time>
      </trkpt>
      <trkpt lat="42.49084920622408390045166015625" lon="2.80715812928974628448486328125">
        <ele>138.8000030517578125</ele>
        <time>2022-07-28T07:21:52.000Z</time>
      </trkpt>
      <trkpt lat="42.490716688334941864013671875" lon="2.8071451373398303985595703125">
        <ele>124.8000030517578125</ele>
        <time>2022-07-28T08:02:37.000Z</time>
      </trkpt>
      <trkpt lat="42.49080645851790904998779296875" lon="2.80736130662262439727783203125">
        <ele>124.8000030517578125</ele>
        <time>2022-07-28T08:02:42.000Z</time>
      </trkpt>
      <trkpt lat="42.49094291590154170989990234375" lon="2.80759834684431552886962890625">
        <ele>124.8000030517578125</ele>
        <time>2022-07-28T08:02:48.000Z</time>
      </trkpt>
      <trkpt lat="42.49101198278367519378662109375" lon="2.8078250773251056671142578125">
        <ele>124.40000152587890625</ele>
        <time>2022-07-28T08:02:53.000Z</time>
      </trkpt>
      <trkpt lat="42.49108339659869670867919921875" lon="2.80816731043159961700439453125">
        <ele>124.59999847412109375</ele>
        <time>2022-07-28T08:02:59.000Z</time>
      </trkpt>
      <trkpt lat="42.49119152314960956573486328125" lon="2.80865999870002269744873046875">
        <ele>124.59999847412109375</ele>
        <time>2022-07-28T08:03:06.000Z</time>
      </trkpt>
      <trkpt lat="42.49122488312423229217529296875" lon="2.808843143284320831298828125">
        <ele>124</ele>
        <time>2022-07-28T08:03:09.000Z</time>
      </trkpt>
      <trkpt lat="42.491284310817718505859375" lon="2.80911262147128582000732421875">
        <ele>123.40000152587890625</ele>
        <time>2022-07-28T08:03:13.000Z</time>
      </trkpt>
      <trkpt lat="42.49136385507881641387939453125" lon="2.8096788190305233001708984375">
        <ele>123.59999847412109375</ele>
        <time>2022-07-28T08:03:21.000Z</time>
      </trkpt>
      <trkpt lat="42.49137626029551029205322265625" lon="2.80980429612100124359130859375">
        <ele>123.59999847412109375</ele>
        <time>2022-07-28T08:03:23.000Z</time>
      </trkpt>
      <trkpt lat="42.49142001383006572723388671875" lon="2.810024321079254150390625">
        <ele>123.59999847412109375</ele>
        <time>2022-07-28T08:03:27.000Z</time>
      </trkpt>
      <trkpt lat="42.49146359972655773162841796875" lon="2.81018014065921306610107421875">
        <ele>123.8000030517578125</ele>
        <time>2022-07-28T08:03:30.000Z</time>
      </trkpt>
      <trkpt lat="42.49147734604775905609130859375" lon="2.81029530800879001617431640625">
        <ele>123.8000030517578125</ele>
        <time>2022-07-28T08:03:32.000Z</time>
      </trkpt>
      <trkpt lat="42.491497211158275604248046875" lon="2.8104764409363269805908203125">
        <ele>124</ele>
        <time>2022-07-28T08:03:35.000Z</time>
      </trkpt>
      <trkpt lat="42.491522692143917083740234375" lon="2.81066662631928920745849609375">
        <ele>124</ele>
        <time>2022-07-28T08:03:38.000Z</time>
      </trkpt>
      <trkpt lat="42.491610534489154815673828125" lon="2.81104079447686672210693359375">
        <ele>124.40000152587890625</ele>
        <time>2022-07-28T08:03:44.000Z</time>
      </trkpt>
      <trkpt lat="42.491654790937900543212890625" lon="2.8113774955272674560546875">
        <ele>124.59999847412109375</ele>
        <time>2022-07-28T08:03:49.000Z</time>
      </trkpt>
      <trkpt lat="42.49165470711886882781982421875" lon="2.81151571311056613922119140625">
        <ele>124.59999847412109375</ele>
        <time>2022-07-28T08:03:51.000Z</time>
      </trkpt>
      <trkpt lat="42.49165202490985393524169921875" lon="2.8118091635406017303466796875">
        <ele>125.40000152587890625</ele>
        <time>2022-07-28T08:03:56.000Z</time>
      </trkpt>
      <trkpt lat="42.49163827858865261077880859375" lon="2.8119798190891742706298828125">
        <ele>126.59999847412109375</ele>
        <time>2022-07-28T08:03:59.000Z</time>
      </trkpt>
      <trkpt lat="42.4916294775903224945068359375" lon="2.81213714741170406341552734375">
        <ele>127.8000030517578125</ele>
        <time>2022-07-28T08:04:02.000Z</time>
      </trkpt>
      <trkpt lat="42.49163190834224224090576171875" lon="2.81219045631587505340576171875">
        <ele>128.1999969482421875</ele>
        <time>2022-07-28T08:04:03.000Z</time>
      </trkpt>
      <trkpt lat="42.491644732654094696044921875" lon="2.81231484375894069671630859375">
        <ele>129</ele>
        <time>2022-07-28T08:04:05.000Z</time>
      </trkpt>
      <trkpt lat="42.49171455390751361846923828125" lon="2.8126909397542476654052734375">
        <ele>129.1999969482421875</ele>
        <time>2022-07-28T08:04:10.000Z</time>
      </trkpt>
      <trkpt lat="42.4918209202587604522705078125" lon="2.81292445957660675048828125">
        <ele>129.1999969482421875</ele>
        <time>2022-07-28T08:04:14.000Z</time>
      </trkpt>
      <trkpt lat="42.49196215532720088958740234375" lon="2.813113220036029815673828125">
        <ele>129</ele>
        <time>2022-07-28T08:04:19.000Z</time>
      </trkpt>
      <trkpt lat="42.49204983003437519073486328125" lon="2.81316108070313930511474609375">
        <ele>129</ele>
        <time>2022-07-28T08:04:21.000Z</time>
      </trkpt>
      <trkpt lat="42.492153346538543701171875" lon="2.81319477595388889312744140625">
        <ele>128.8000030517578125</ele>
        <time>2022-07-28T08:04:23.000Z</time>
      </trkpt>
      <trkpt lat="42.49255559407174587249755859375" lon="2.813297621905803680419921875">
        <ele>128.399993896484375</ele>
        <time>2022-07-28T08:04:30.000Z</time>
      </trkpt>
      <trkpt lat="42.49281073920428752899169921875" lon="2.81335738487541675567626953125">
        <ele>127.8000030517578125</ele>
        <time>2022-07-28T08:04:34.000Z</time>
      </trkpt>
      <trkpt lat="42.49288357794284820556640625" lon="2.81337666325271129608154296875">
        <ele>127.59999847412109375</ele>
        <time>2022-07-28T08:04:35.000Z</time>
      </trkpt>
      <trkpt lat="42.49321483075618743896484375" lon="2.81350675038993358612060546875">
        <ele>127</ele>
        <time>2022-07-28T08:04:39.000Z</time>
      </trkpt>
      <trkpt lat="42.49329521320760250091552734375" lon="2.81354966573417186737060546875">
        <ele>126.59999847412109375</ele>
        <time>2022-07-28T08:04:40.000Z</time>
      </trkpt>
      <trkpt lat="42.4935378693044185638427734375" lon="2.8136793337762355804443359375">
        <ele>125</ele>
        <time>2022-07-28T08:04:43.000Z</time>
      </trkpt>
      <trkpt lat="42.4937075190246105194091796875" lon="2.81373909674584865570068359375">
        <ele>123</ele>
        <time>2022-07-28T08:04:45.000Z</time>
      </trkpt>
      <trkpt lat="42.493794858455657958984375" lon="2.8137658350169658660888671875">
        <ele>122</ele>
        <time>2022-07-28T08:04:46.000Z</time>
      </trkpt>
      <trkpt lat="42.4939676932990550994873046875" lon="2.81383750028908252716064453125">
        <ele>120.59999847412109375</ele>
        <time>2022-07-28T08:04:48.000Z</time>
      </trkpt>
      <trkpt lat="42.49413960613310337066650390625" lon="2.8139361552894115447998046875">
        <ele>119.1999969482421875</ele>
        <time>2022-07-28T08:04:50.000Z</time>
      </trkpt>
      <trkpt lat="42.494298107922077178955078125" lon="2.81403489410877227783203125">
        <ele>118</ele>
        <time>2022-07-28T08:04:52.000Z</time>
      </trkpt>
      <trkpt lat="42.49442928470671176910400390625" lon="2.8141450323164463043212890625">
        <ele>117.59999847412109375</ele>
        <time>2022-07-28T08:04:54.000Z</time>
      </trkpt>
      <trkpt lat="42.494654171168804168701171875" lon="2.81443345360457897186279296875">
        <ele>117.59999847412109375</ele>
        <time>2022-07-28T08:04:59.000Z</time>
      </trkpt>
      <trkpt lat="42.49491560272872447967529296875" lon="2.814815081655979156494140625">
        <ele>119.59999847412109375</ele>
        <time>2022-07-28T08:05:06.000Z</time>
      </trkpt>
      <trkpt lat="42.49495080672204494476318359375" lon="2.81487065367400646209716796875">
        <ele>120</ele>
        <time>2022-07-28T08:05:07.000Z</time>
      </trkpt>
      <trkpt lat="42.49517745338380336761474609375" lon="2.8152672015130519866943359375">
        <ele>120.8000030517578125</ele>
        <time>2022-07-28T08:05:13.000Z</time>
      </trkpt>
      <trkpt lat="42.49522338621318340301513671875" lon="2.81535278074443340301513671875">
        <ele>120.59999847412109375</ele>
        <time>2022-07-28T08:05:14.000Z</time>
      </trkpt>
      <trkpt lat="42.49537643976509571075439453125" lon="2.81559820286929607391357421875">
        <ele>120.8000030517578125</ele>
        <time>2022-07-28T08:05:17.000Z</time>
      </trkpt>
      <trkpt lat="42.4954341910779476165771484375" lon="2.8156614862382411956787109375">
        <ele>120.8000030517578125</ele>
        <time>2022-07-28T08:05:18.000Z</time>
      </trkpt>
      <trkpt lat="42.49563644640147686004638671875" lon="2.81577120535075664520263671875">
        <ele>119.8000030517578125</ele>
        <time>2022-07-28T08:05:21.000Z</time>
      </trkpt>
      <trkpt lat="42.4957711435854434967041015625" lon="2.81582803465425968170166015625">
        <ele>118.1999969482421875</ele>
        <time>2022-07-28T08:05:23.000Z</time>
      </trkpt>
      <trkpt lat="42.4958821199834346771240234375" lon="2.815921492874622344970703125">
        <ele>117.8000030517578125</ele>
        <time>2022-07-28T08:05:25.000Z</time>
      </trkpt>
      <trkpt lat="42.49593324959278106689453125" lon="2.815975137054920196533203125">
        <ele>117.59999847412109375</ele>
        <time>2022-07-28T08:05:26.000Z</time>
      </trkpt>
      <trkpt lat="42.49615696258842945098876953125" lon="2.81627629883587360382080078125">
        <ele>117.59999847412109375</ele>
        <time>2022-07-28T08:05:31.000Z</time>
      </trkpt>
      <trkpt lat="42.4963216669857501983642578125" lon="2.81656798906624317169189453125">
        <ele>117.59999847412109375</ele>
        <time>2022-07-28T08:05:35.000Z</time>
      </trkpt>
      <trkpt lat="42.4963903985917568206787109375" lon="2.816724143922328948974609375">
        <ele>117.59999847412109375</ele>
        <time>2022-07-28T08:05:37.000Z</time>
      </trkpt>
      <trkpt lat="42.49659298919141292572021484375" lon="2.81727458350360393524169921875">
        <ele>117.40000152587890625</ele>
        <time>2022-07-28T08:05:44.000Z</time>
      </trkpt>
      <trkpt lat="42.496684603393077850341796875" lon="2.81749268062412738800048828125">
        <ele>117</ele>
        <time>2022-07-28T08:05:47.000Z</time>
      </trkpt>
      <trkpt lat="42.49670974910259246826171875" lon="2.81756979413330554962158203125">
        <ele>117</ele>
        <time>2022-07-28T08:05:48.000Z</time>
      </trkpt>
      <trkpt lat="42.496730200946331024169921875" lon="2.81774438917636871337890625">
        <ele>116.8000030517578125</ele>
        <time>2022-07-28T08:05:50.000Z</time>
      </trkpt>
      <trkpt lat="42.4966720305383205413818359375" lon="2.81804705969989299774169921875">
        <ele>116.1999969482421875</ele>
        <time>2022-07-28T08:05:53.000Z</time>
      </trkpt>
      <trkpt lat="42.49663464725017547607421875" lon="2.818149067461490631103515625">
        <ele>116.1999969482421875</ele>
        <time>2022-07-28T08:05:54.000Z</time>
      </trkpt>
      <trkpt lat="42.49650363810360431671142578125" lon="2.8184573538601398468017578125">
        <ele>115.59999847412109375</ele>
        <time>2022-07-28T08:05:57.000Z</time>
      </trkpt>
      <trkpt lat="42.496425770223140716552734375" lon="2.8186709247529506683349609375">
        <ele>114.1999969482421875</ele>
        <time>2022-07-28T08:05:59.000Z</time>
      </trkpt>
      <trkpt lat="42.4963582120835781097412109375" lon="2.8188975714147090911865234375">
        <ele>112.8000030517578125</ele>
        <time>2022-07-28T08:06:01.000Z</time>
      </trkpt>
      <trkpt lat="42.49627229757606983184814453125" lon="2.8191210329532623291015625">
        <ele>111.40000152587890625</ele>
        <time>2022-07-28T08:06:03.000Z</time>
      </trkpt>
      <trkpt lat="42.49620708636939525604248046875" lon="2.81937290914356708526611328125">
        <ele>110.59999847412109375</ele>
        <time>2022-07-28T08:06:05.000Z</time>
      </trkpt>
      <trkpt lat="42.49617657624185085296630859375" lon="2.8195019066333770751953125">
        <ele>110.1999969482421875</ele>
        <time>2022-07-28T08:06:06.000Z</time>
      </trkpt>
      <trkpt lat="42.49603995122015476226806640625" lon="2.819853611290454864501953125">
        <ele>109.1999969482421875</ele>
        <time>2022-07-28T08:06:09.000Z</time>
      </trkpt>
      <trkpt lat="42.495905421674251556396484375" lon="2.8201857022941112518310546875">
        <ele>108</ele>
        <time>2022-07-28T08:06:12.000Z</time>
      </trkpt>
      <trkpt lat="42.49581028707325458526611328125" lon="2.82039332203567028045654296875">
        <ele>106.40000152587890625</ele>
        <time>2022-07-28T08:06:14.000Z</time>
      </trkpt>
      <trkpt lat="42.49570065177977085113525390625" lon="2.82059029676020145416259765625">
        <ele>105.40000152587890625</ele>
        <time>2022-07-28T08:06:16.000Z</time>
      </trkpt>
      <trkpt lat="42.49537325464189052581787109375" lon="2.82117133028805255889892578125">
        <ele>104.59999847412109375</ele>
        <time>2022-07-28T08:06:22.000Z</time>
      </trkpt>
      <trkpt lat="42.49509246088564395904541015625" lon="2.82160718925297260284423828125">
        <ele>104.40000152587890625</ele>
        <time>2022-07-28T08:06:27.000Z</time>
      </trkpt>
      <trkpt lat="42.4946992658078670501708984375" lon="2.82212183810770511627197265625">
        <ele>104.8000030517578125</ele>
        <time>2022-07-28T08:06:34.000Z</time>
      </trkpt>
      <trkpt lat="42.4946392513811588287353515625" lon="2.8221826069056987762451171875">
        <ele>104.8000030517578125</ele>
        <time>2022-07-28T08:06:35.000Z</time>
      </trkpt>
      <trkpt lat="42.49444118700921535491943359375" lon="2.82227640040218830108642578125">
        <ele>105</ele>
        <time>2022-07-28T08:06:38.000Z</time>
      </trkpt>
      <trkpt lat="42.4943717010319232940673828125" lon="2.82228134572505950927734375">
        <ele>105</ele>
        <time>2022-07-28T08:06:39.000Z</time>
      </trkpt>
      <trkpt lat="42.494300790131092071533203125" lon="2.8222945891320705413818359375">
        <ele>105</ele>
        <time>2022-07-28T08:06:40.000Z</time>
      </trkpt>
      <trkpt lat="42.49410490505397319793701171875" lon="2.82233054749667644500732421875">
        <ele>105.1999969482421875</ele>
        <time>2022-07-28T08:06:43.000Z</time>
      </trkpt>
      <trkpt lat="42.4938138015568256378173828125" lon="2.8224059008061885833740234375">
        <ele>105.59999847412109375</ele>
        <time>2022-07-28T08:06:48.000Z</time>
      </trkpt>
      <trkpt lat="42.4937568046152591705322265625" lon="2.822437584400177001953125">
        <ele>105.59999847412109375</ele>
        <time>2022-07-28T08:06:49.000Z</time>
      </trkpt>
      <trkpt lat="42.49359763227403163909912109375" lon="2.82261528074741363525390625">
        <ele>106</ele>
        <time>2022-07-28T08:06:52.000Z</time>
      </trkpt>
      <trkpt lat="42.4935003183782100677490234375" lon="2.822916693985462188720703125">
        <ele>106.1999969482421875</ele>
        <time>2022-07-28T08:06:55.000Z</time>
      </trkpt>
      <trkpt lat="42.49347374774515628814697265625" lon="2.8230328671634197235107421875">
        <ele>106.1999969482421875</ele>
        <time>2022-07-28T08:06:56.000Z</time>
      </trkpt>
      <trkpt lat="42.4934567324817180633544921875" lon="2.82315063290297985076904296875">
        <ele>106.1999969482421875</ele>
        <time>2022-07-28T08:06:57.000Z</time>
      </trkpt>
      <trkpt lat="42.49341867864131927490234375" lon="2.82352815382182598114013671875">
        <ele>104.8000030517578125</ele>
        <time>2022-07-28T08:07:00.000Z</time>
      </trkpt>
      <trkpt lat="42.49339093454182147979736328125" lon="2.8236574865877628326416015625">
        <ele>104</ele>
        <time>2022-07-28T08:07:01.000Z</time>
      </trkpt>
      <trkpt lat="42.49335204251110553741455078125" lon="2.823783718049526214599609375">
        <ele>102.8000030517578125</ele>
        <time>2022-07-28T08:07:02.000Z</time>
      </trkpt>
      <trkpt lat="42.49330728314816951751708984375" lon="2.8239019028842449188232421875">
        <ele>101.8000030517578125</ele>
        <time>2022-07-28T08:07:03.000Z</time>
      </trkpt>
      <trkpt lat="42.493253387510776519775390625" lon="2.82399921678006649017333984375">
        <ele>100.59999847412109375</ele>
        <time>2022-07-28T08:07:04.000Z</time>
      </trkpt>
      <trkpt lat="42.493127323687076568603515625" lon="2.82414422370493412017822265625">
        <ele>98.59999847412109375</ele>
        <time>2022-07-28T08:07:06.000Z</time>
      </trkpt>
      <trkpt lat="42.49299354851245880126953125" lon="2.82424916513264179229736328125">
        <ele>97.59999847412109375</ele>
        <time>2022-07-28T08:07:08.000Z</time>
      </trkpt>
      <trkpt lat="42.492853738367557525634765625" lon="2.8243035636842250823974609375">
        <ele>97.40000152587890625</ele>
        <time>2022-07-28T08:07:10.000Z</time>
      </trkpt>
      <trkpt lat="42.49278358183801174163818359375" lon="2.82431705854833126068115234375">
        <ele>97.1999969482421875</ele>
        <time>2022-07-28T08:07:11.000Z</time>
      </trkpt>
      <trkpt lat="42.49237152747809886932373046875" lon="2.82442979514598846435546875">
        <ele>97.1999969482421875</ele>
        <time>2022-07-28T08:07:17.000Z</time>
      </trkpt>
      <trkpt lat="42.49196852557361125946044921875" lon="2.8245634026825428009033203125">
        <ele>98.8000030517578125</ele>
        <time>2022-07-28T08:07:23.000Z</time>
      </trkpt>
      <trkpt lat="42.49190482310950756072998046875" lon="2.824594080448150634765625">
        <ele>98.8000030517578125</ele>
        <time>2022-07-28T08:07:24.000Z</time>
      </trkpt>
      <trkpt lat="42.4918440543115139007568359375" lon="2.82463087700307369232177734375">
        <ele>98.8000030517578125</ele>
        <time>2022-07-28T08:07:25.000Z</time>
      </trkpt>
      <trkpt lat="42.491682283580303192138671875" lon="2.82478326000273227691650390625">
        <ele>99</ele>
        <time>2022-07-28T08:07:28.000Z</time>
      </trkpt>
      <trkpt lat="42.491551525890827178955078125" lon="2.82496397383511066436767578125">
        <ele>99.1999969482421875</ele>
        <time>2022-07-28T08:07:31.000Z</time>
      </trkpt>
      <trkpt lat="42.49144365079700946807861328125" lon="2.825138904154300689697265625">
        <ele>99.40000152587890625</ele>
        <time>2022-07-28T08:07:34.000Z</time>
      </trkpt>
      <trkpt lat="42.491380870342254638671875" lon="2.82525029964745044708251953125">
        <ele>100</ele>
        <time>2022-07-28T08:07:36.000Z</time>
      </trkpt>
      <trkpt lat="42.4912532977759838104248046875" lon="2.82549731433391571044921875">
        <ele>101.1999969482421875</ele>
        <time>2022-07-28T08:07:41.000Z</time>
      </trkpt>
      <trkpt lat="42.4911969713866710662841796875" lon="2.8256325982511043548583984375">
        <ele>102.40000152587890625</ele>
        <time>2022-07-28T08:07:44.000Z</time>
      </trkpt>
      <trkpt lat="42.4911543913185596466064453125" lon="2.82578204758465290069580078125">
        <ele>103.59999847412109375</ele>
        <time>2022-07-28T08:07:47.000Z</time>
      </trkpt>
      <trkpt lat="42.4911059439182281494140625" lon="2.825923450291156768798828125">
        <ele>104.59999847412109375</ele>
        <time>2022-07-28T08:07:50.000Z</time>
      </trkpt>
      <trkpt lat="42.49106260947883129119873046875" lon="2.82606451772153377532958984375">
        <ele>105.1999969482421875</ele>
        <time>2022-07-28T08:07:53.000Z</time>
      </trkpt>
      <trkpt lat="42.49103142879903316497802734375" lon="2.82616426236927509307861328125">
        <ele>105.8000030517578125</ele>
        <time>2022-07-28T08:07:55.000Z</time>
      </trkpt>
      <trkpt lat="42.4909720011055469512939453125" lon="2.82637171447277069091796875">
        <ele>106.8000030517578125</ele>
        <time>2022-07-28T08:07:59.000Z</time>
      </trkpt>
      <trkpt lat="42.49094945378601551055908203125" lon="2.826469279825687408447265625">
        <ele>107.40000152587890625</ele>
        <time>2022-07-28T08:08:01.000Z</time>
      </trkpt>
      <trkpt lat="42.49091215431690216064453125" lon="2.826718389987945556640625">
        <ele>108</ele>
        <time>2022-07-28T08:08:07.000Z</time>
      </trkpt>
      <trkpt lat="42.49088625423610210418701171875" lon="2.8269649855792522430419921875">
        <ele>109</ele>
        <time>2022-07-28T08:08:13.000Z</time>
      </trkpt>
      <trkpt lat="42.490906454622745513916015625" lon="2.82724217511713504791259765625">
        <ele>110.40000152587890625</ele>
        <time>2022-07-28T08:08:19.000Z</time>
      </trkpt>
      <trkpt lat="42.4909089691936969757080078125" lon="2.82728861086070537567138671875">
        <ele>110.59999847412109375</ele>
        <time>2022-07-28T08:08:20.000Z</time>
      </trkpt>
      <trkpt lat="42.4909247271716594696044921875" lon="2.8276127390563488006591796875">
        <ele>111.59999847412109375</ele>
        <time>2022-07-28T08:08:27.000Z</time>
      </trkpt>
      <trkpt lat="42.49093201942741870880126953125" lon="2.82788087613880634307861328125">
        <ele>112.8000030517578125</ele>
        <time>2022-07-28T08:08:33.000Z</time>
      </trkpt>
      <trkpt lat="42.49094408936798572540283203125" lon="2.8280643559992313385009765625">
        <ele>113.59999847412109375</ele>
        <time>2022-07-28T08:08:37.000Z</time>
      </trkpt>
      <trkpt lat="42.4909488670527935028076171875" lon="2.82811305485665798187255859375">
        <ele>114</ele>
        <time>2022-07-28T08:08:38.000Z</time>
      </trkpt>
      <trkpt lat="42.490988932549953460693359375" lon="2.828302569687366485595703125">
        <ele>115</ele>
        <time>2022-07-28T08:08:42.000Z</time>
      </trkpt>
      <trkpt lat="42.49102505855262279510498046875" lon="2.8283996321260929107666015625">
        <ele>115.40000152587890625</ele>
        <time>2022-07-28T08:08:44.000Z</time>
      </trkpt>
      <trkpt lat="42.491210214793682098388671875" lon="2.82884479500353336334228515625">
        <ele>116</ele>
        <time>2022-07-28T08:08:53.000Z</time>
      </trkpt>
      <trkpt lat="42.49136636964976787567138671875" lon="2.82920571975409984588623046875">
        <ele>117.59999847412109375</ele>
        <time>2022-07-28T08:09:01.000Z</time>
      </trkpt>
      <trkpt lat="42.49138279817998409271240234375" lon="2.82924846746027469635009765625">
        <ele>117.8000030517578125</ele>
        <time>2022-07-28T08:09:02.000Z</time>
      </trkpt>
      <trkpt lat="42.49141984619200229644775390625" lon="2.8293335437774658203125">
        <ele>118.59999847412109375</ele>
        <time>2022-07-28T08:09:04.000Z</time>
      </trkpt>
      <trkpt lat="42.49152327887713909149169921875" lon="2.8295275010168552398681640625">
        <ele>119.8000030517578125</ele>
        <time>2022-07-28T08:09:09.000Z</time>
      </trkpt>
      <trkpt lat="42.4915459938347339630126953125" lon="2.82956681214272975921630859375">
        <ele>120</ele>
        <time>2022-07-28T08:09:10.000Z</time>
      </trkpt>
      <trkpt lat="42.49164464883506298065185546875" lon="2.82981039024889469146728515625">
        <ele>121</ele>
        <time>2022-07-28T08:09:16.000Z</time>
      </trkpt>
      <trkpt lat="42.49166183173656463623046875" lon="2.8298523835837841033935546875">
        <ele>121</ele>
        <time>2022-07-28T08:09:17.000Z</time>
      </trkpt>
      <trkpt lat="42.4917568825185298919677734375" lon="2.8300461731851100921630859375">
        <ele>122.1999969482421875</ele>
        <time>2022-07-28T08:09:22.000Z</time>
      </trkpt>
      <trkpt lat="42.49181614257395267486572265625" lon="2.8301641903817653656005859375">
        <ele>123</ele>
        <time>2022-07-28T08:09:25.000Z</time>
      </trkpt>
      <trkpt lat="42.491845227777957916259765625" lon="2.83025018870830535888671875">
        <ele>123.40000152587890625</ele>
        <time>2022-07-28T08:09:27.000Z</time>
      </trkpt>
      <trkpt lat="42.4918638356029987335205078125" lon="2.8304340876638889312744140625">
        <ele>124</ele>
        <time>2022-07-28T08:09:31.000Z</time>
      </trkpt>
      <trkpt lat="42.4918564595282077789306640625" lon="2.83061689697206020355224609375">
        <ele>124.40000152587890625</ele>
        <time>2022-07-28T08:09:35.000Z</time>
      </trkpt>
      <trkpt lat="42.49184011481702327728271484375" lon="2.83074832521378993988037109375">
        <ele>124.8000030517578125</ele>
        <time>2022-07-28T08:09:38.000Z</time>
      </trkpt>
      <trkpt lat="42.49178077094256877899169921875" lon="2.8309641592204570770263671875">
        <ele>125.59999847412109375</ele>
        <time>2022-07-28T08:09:43.000Z</time>
      </trkpt>
      <trkpt lat="42.491752021014690399169921875" lon="2.83104085363447666168212890625">
        <ele>125.8000030517578125</ele>
        <time>2022-07-28T08:09:45.000Z</time>
      </trkpt>
      <trkpt lat="42.49166929163038730621337890625" lon="2.83122257329523563385009765625">
        <ele>126.59999847412109375</ele>
        <time>2022-07-28T08:09:50.000Z</time>
      </trkpt>
      <trkpt lat="42.4915887415409088134765625" lon="2.8313527442514896392822265625">
        <ele>127.59999847412109375</ele>
        <time>2022-07-28T08:09:54.000Z</time>
      </trkpt>
      <trkpt lat="42.4915225245058536529541015625" lon="2.83144779503345489501953125">
        <ele>127.8000030517578125</ele>
        <time>2022-07-28T08:09:57.000Z</time>
      </trkpt>
      <trkpt lat="42.4914806149899959564208984375" lon="2.83159892074763774871826171875">
        <ele>128.600006103515625</ele>
        <time>2022-07-28T08:10:01.000Z</time>
      </trkpt>
      <trkpt lat="42.4914760887622833251953125" lon="2.83163596875965595245361328125">
        <ele>129</ele>
        <time>2022-07-28T08:10:02.000Z</time>
      </trkpt>
      <trkpt lat="42.4914206005632877349853515625" lon="2.83177435398101806640625">
        <ele>129.8000030517578125</ele>
        <time>2022-07-28T08:10:06.000Z</time>
      </trkpt>
      <trkpt lat="42.49140207655727863311767578125" lon="2.8318147547543048858642578125">
        <ele>130</ele>
        <time>2022-07-28T08:10:07.000Z</time>
      </trkpt>
      <trkpt lat="42.49130434356629848480224609375" lon="2.8319937922060489654541015625">
        <ele>131.1999969482421875</ele>
        <time>2022-07-28T08:10:11.000Z</time>
      </trkpt>
      <trkpt lat="42.49124667607247829437255859375" lon="2.8320913575589656829833984375">
        <ele>131.399993896484375</ele>
        <time>2022-07-28T08:10:13.000Z</time>
      </trkpt>
      <trkpt lat="42.4910377152264118194580078125" lon="2.83245169557631015777587890625">
        <ele>131.399993896484375</ele>
        <time>2022-07-28T08:10:20.000Z</time>
      </trkpt>
      <trkpt lat="42.4907948076725006103515625" lon="2.83286240883171558380126953125">
        <ele>131.8000030517578125</ele>
        <time>2022-07-28T08:10:28.000Z</time>
      </trkpt>
      <trkpt lat="42.4905324541032314300537109375" lon="2.83331151120364665985107421875">
        <ele>132</ele>
        <time>2022-07-28T08:10:37.000Z</time>
      </trkpt>
      <trkpt lat="42.49041804112493991851806640625" lon="2.83352156169712543487548828125">
        <ele>132.600006103515625</ele>
        <time>2022-07-28T08:10:41.000Z</time>
      </trkpt>
      <trkpt lat="42.49026842415332794189453125" lon="2.8337828256189823150634765625">
        <ele>133.399993896484375</ele>
        <time>2022-07-28T08:10:46.000Z</time>
      </trkpt>
      <trkpt lat="42.49013808555901050567626953125" lon="2.834003269672393798828125">
        <ele>133.8000030517578125</ele>
        <time>2022-07-28T08:10:50.000Z</time>
      </trkpt>
      <trkpt lat="42.48999743722379207611083984375" lon="2.8342448361217975616455078125">
        <ele>134.1999969482421875</ele>
        <time>2022-07-28T08:10:54.000Z</time>
      </trkpt>
      <trkpt lat="42.48968780972063541412353515625" lon="2.8348181582987308502197265625">
        <ele>134</ele>
        <time>2022-07-28T08:11:02.000Z</time>
      </trkpt>
      <trkpt lat="42.4894015677273273468017578125" lon="2.83533976413309574127197265625">
        <ele>133.600006103515625</ele>
        <time>2022-07-28T08:11:08.000Z</time>
      </trkpt>
      <trkpt lat="42.48924440704286098480224609375" lon="2.83562659285962581634521484375">
        <ele>132.8000030517578125</ele>
        <time>2022-07-28T08:11:11.000Z</time>
      </trkpt>
      <trkpt lat="42.48908230103552341461181640625" lon="2.8359131701290607452392578125">
        <ele>131.8000030517578125</ele>
        <time>2022-07-28T08:11:14.000Z</time>
      </trkpt>
      <trkpt lat="42.488975934684276580810546875" lon="2.8360935486853122711181640625">
        <ele>131.1999969482421875</ele>
        <time>2022-07-28T08:11:16.000Z</time>
      </trkpt>
      <trkpt lat="42.4886716715991497039794921875" lon="2.8365284018218517303466796875">
        <ele>130.8000030517578125</ele>
        <time>2022-07-28T08:11:22.000Z</time>
      </trkpt>
      <trkpt lat="42.4883886985480785369873046875" lon="2.83680106513202190399169921875">
        <ele>131.399993896484375</ele>
        <time>2022-07-28T08:11:28.000Z</time>
      </trkpt>
      <trkpt lat="42.48824872076511383056640625" lon="2.83690952695906162261962890625">
        <ele>133</ele>
        <time>2022-07-28T08:11:31.000Z</time>
      </trkpt>
      <trkpt lat="42.48810010962188243865966796875" lon="2.837007008492946624755859375">
        <ele>134.399993896484375</ele>
        <time>2022-07-28T08:11:34.000Z</time>
      </trkpt>
      <trkpt lat="42.4879944138228893280029296875" lon="2.8370665200054645538330078125">
        <ele>135</ele>
        <time>2022-07-28T08:11:36.000Z</time>
      </trkpt>
      <trkpt lat="42.4878804199397563934326171875" lon="2.8371106088161468505859375">
        <ele>135.600006103515625</ele>
        <time>2022-07-28T08:11:38.000Z</time>
      </trkpt>
      <trkpt lat="42.48752360232174396514892578125" lon="2.8371937572956085205078125">
        <ele>136.399993896484375</ele>
        <time>2022-07-28T08:11:44.000Z</time>
      </trkpt>
      <trkpt lat="42.487119175493717193603515625" lon="2.837205491960048675537109375">
        <ele>136.399993896484375</ele>
        <time>2022-07-28T08:11:50.000Z</time>
      </trkpt>
      <trkpt lat="42.48664651997387409210205078125" lon="2.8371131233870983123779296875">
        <ele>136.1999969482421875</ele>
        <time>2022-07-28T08:11:56.000Z</time>
      </trkpt>
      <trkpt lat="42.48639120720326900482177734375" lon="2.8370192460715770721435546875">
        <ele>135.600006103515625</ele>
        <time>2022-07-28T08:11:59.000Z</time>
      </trkpt>
      <trkpt lat="42.48623094521462917327880859375" lon="2.83692545257508754730224609375">
        <ele>135</ele>
        <time>2022-07-28T08:12:01.000Z</time>
      </trkpt>
      <trkpt lat="42.486154921352863311767578125" lon="2.836877591907978057861328125">
        <ele>134.600006103515625</ele>
        <time>2022-07-28T08:12:02.000Z</time>
      </trkpt>
      <trkpt lat="42.4858017079532146453857421875" lon="2.83663309179246425628662109375">
        <ele>133.600006103515625</ele>
        <time>2022-07-28T08:12:07.000Z</time>
      </trkpt>
      <trkpt lat="42.4857363291084766387939453125" lon="2.83658632077276706695556640625">
        <ele>133.600006103515625</ele>
        <time>2022-07-28T08:12:08.000Z</time>
      </trkpt>
      <trkpt lat="42.485243976116180419921875" lon="2.8362551517784595489501953125">
        <ele>134.1999969482421875</ele>
        <time>2022-07-28T08:12:16.000Z</time>
      </trkpt>
      <trkpt lat="42.485069967806339263916015625" lon="2.836165130138397216796875">
        <ele>134.600006103515625</ele>
        <time>2022-07-28T08:12:19.000Z</time>
      </trkpt>
      <trkpt lat="42.48489855788648128509521484375" lon="2.83611626364290714263916015625">
        <ele>135</ele>
        <time>2022-07-28T08:12:22.000Z</time>
      </trkpt>
      <trkpt lat="42.48478733003139495849609375" lon="2.83611224032938480377197265625">
        <ele>135.1999969482421875</ele>
        <time>2022-07-28T08:12:24.000Z</time>
      </trkpt>
      <trkpt lat="42.484631426632404327392578125" lon="2.83615448512136936187744140625">
        <ele>136</ele>
        <time>2022-07-28T08:12:27.000Z</time>
      </trkpt>
      <trkpt lat="42.484409809112548828125" lon="2.83630929887294769287109375">
        <ele>137.1999969482421875</ele>
        <time>2022-07-28T08:12:32.000Z</time>
      </trkpt>
      <trkpt lat="42.48433847911655902862548828125" lon="2.83639169298112392425537109375">
        <ele>137.600006103515625</ele>
        <time>2022-07-28T08:12:34.000Z</time>
      </trkpt>
      <trkpt lat="42.484306879341602325439453125" lon="2.83643997274339199066162109375">
        <ele>138.399993896484375</ele>
        <time>2022-07-28T08:12:35.000Z</time>
      </trkpt>
      <trkpt lat="42.4842242337763309478759765625" lon="2.836589254438877105712890625">
        <ele>139.399993896484375</ele>
        <time>2022-07-28T08:12:38.000Z</time>
      </trkpt>
      <trkpt lat="42.48420453630387783050537109375" lon="2.83664281480014324188232421875">
        <ele>139.600006103515625</ele>
        <time>2022-07-28T08:12:39.000Z</time>
      </trkpt>
      <trkpt lat="42.48413152992725372314453125" lon="2.83693081699311733245849609375">
        <ele>140.399993896484375</ele>
        <time>2022-07-28T08:12:44.000Z</time>
      </trkpt>
      <trkpt lat="42.4841058813035488128662109375" lon="2.83704833127558231353759765625">
        <ele>140.8000030517578125</ele>
        <time>2022-07-28T08:12:46.000Z</time>
      </trkpt>
      <trkpt lat="42.4840384908020496368408203125" lon="2.83738863654434680938720703125">
        <ele>141.600006103515625</ele>
        <time>2022-07-28T08:12:52.000Z</time>
      </trkpt>
      <trkpt lat="42.484018541872501373291015625" lon="2.8375000320374965667724609375">
        <ele>142</ele>
        <time>2022-07-28T08:12:54.000Z</time>
      </trkpt>
      <trkpt lat="42.48396816663444042205810546875" lon="2.837901525199413299560546875">
        <ele>143</ele>
        <time>2022-07-28T08:13:01.000Z</time>
      </trkpt>
      <trkpt lat="42.48395182192325592041015625" lon="2.83807016909122467041015625">
        <ele>144.399993896484375</ele>
        <time>2022-07-28T08:13:04.000Z</time>
      </trkpt>
      <trkpt lat="42.4839459545910358428955078125" lon="2.83812582492828369140625">
        <ele>144.600006103515625</ele>
        <time>2022-07-28T08:13:05.000Z</time>
      </trkpt>
      <trkpt lat="42.4839244969189167022705078125" lon="2.83851164393126964569091796875">
        <ele>145.399993896484375</ele>
        <time>2022-07-28T08:13:12.000Z</time>
      </trkpt>
      <trkpt lat="42.48392122797667980194091796875" lon="2.83867425285279750823974609375">
        <ele>146</ele>
        <time>2022-07-28T08:13:15.000Z</time>
      </trkpt>
      <trkpt lat="42.4839234910905361175537109375" lon="2.83888564445078372955322265625">
        <ele>146.600006103515625</ele>
        <time>2022-07-28T08:13:19.000Z</time>
      </trkpt>
      <trkpt lat="42.4839318729937076568603515625" lon="2.83914037048816680908203125">
        <ele>147.600006103515625</ele>
        <time>2022-07-28T08:13:24.000Z</time>
      </trkpt>
      <trkpt lat="42.48393313027918338775634765625" lon="2.83919225446879863739013671875">
        <ele>147.8000030517578125</ele>
        <time>2022-07-28T08:13:25.000Z</time>
      </trkpt>
      <trkpt lat="42.48393011279404163360595703125" lon="2.83950070850551128387451171875">
        <ele>148.600006103515625</ele>
        <time>2022-07-28T08:13:31.000Z</time>
      </trkpt>
      <trkpt lat="42.48391167260706424713134765625" lon="2.83960112370550632476806640625">
        <ele>148.8000030517578125</ele>
        <time>2022-07-28T08:13:33.000Z</time>
      </trkpt>
      <trkpt lat="42.4838084913790225982666015625" lon="2.839818634092807769775390625">
        <ele>149.600006103515625</ele>
        <time>2022-07-28T08:13:38.000Z</time>
      </trkpt>
      <trkpt lat="42.48378091491758823394775390625" lon="2.8398560173809528350830078125">
        <ele>149.8000030517578125</ele>
        <time>2022-07-28T08:13:39.000Z</time>
      </trkpt>
      <trkpt lat="42.48352895490825176239013671875" lon="2.8401254117488861083984375">
        <ele>150.600006103515625</ele>
        <time>2022-07-28T08:13:47.000Z</time>
      </trkpt>
      <trkpt lat="42.4834943376481533050537109375" lon="2.84015868790447711944580078125">
        <ele>150.8000030517578125</ele>
        <time>2022-07-28T08:13:48.000Z</time>
      </trkpt>
      <trkpt lat="42.48320423997938632965087890625" lon="2.84042439423501491546630859375">
        <ele>151.600006103515625</ele>
        <time>2022-07-28T08:13:56.000Z</time>
      </trkpt>
      <trkpt lat="42.483167946338653564453125" lon="2.84045825712382793426513671875">
        <ele>151.8000030517578125</ele>
        <time>2022-07-28T08:13:57.000Z</time>
      </trkpt>
      <trkpt lat="42.48285521753132343292236328125" lon="2.84076654352247714996337890625">
        <ele>152.8000030517578125</ele>
        <time>2022-07-28T08:14:06.000Z</time>
      </trkpt>
      <trkpt lat="42.48278548009693622589111328125" lon="2.84083611331880092620849609375">
        <ele>153</ele>
        <time>2022-07-28T08:14:08.000Z</time>
      </trkpt>
      <trkpt lat="42.482474930584430694580078125" lon="2.84111740998923778533935546875">
        <ele>154</ele>
        <time>2022-07-28T08:14:16.000Z</time>
      </trkpt>
      <trkpt lat="42.4823926202952861785888671875" lon="2.841191254556179046630859375">
        <ele>154.600006103515625</ele>
        <time>2022-07-28T08:14:18.000Z</time>
      </trkpt>
      <trkpt lat="42.48214937746524810791015625" lon="2.8414137102663516998291015625">
        <ele>155</ele>
        <time>2022-07-28T08:14:24.000Z</time>
      </trkpt>
      <trkpt lat="42.4819423444569110870361328125" lon="2.8415940888226032257080078125">
        <ele>155.399993896484375</ele>
        <time>2022-07-28T08:14:29.000Z</time>
      </trkpt>
      <trkpt lat="42.4817522428929805755615234375" lon="2.84178209491074085235595703125">
        <ele>156</ele>
        <time>2022-07-28T08:14:34.000Z</time>
      </trkpt>
      <trkpt lat="42.4816109240055084228515625" lon="2.8419353999197483062744140625">
        <ele>156.600006103515625</ele>
        <time>2022-07-28T08:14:38.000Z</time>
      </trkpt>
      <trkpt lat="42.48147346079349517822265625" lon="2.8420953266322612762451171875">
        <ele>157.1999969482421875</ele>
        <time>2022-07-28T08:14:42.000Z</time>
      </trkpt>
      <trkpt lat="42.4813690222799777984619140625" lon="2.8422220610082149505615234375">
        <ele>157.399993896484375</ele>
        <time>2022-07-28T08:14:45.000Z</time>
      </trkpt>
      <trkpt lat="42.48111060820519924163818359375" lon="2.84251165576279163360595703125">
        <ele>158.399993896484375</ele>
        <time>2022-07-28T08:14:52.000Z</time>
      </trkpt>
      <trkpt lat="42.48102947138249874114990234375" lon="2.84258441068232059478759765625">
        <ele>158.600006103515625</ele>
        <time>2022-07-28T08:14:54.000Z</time>
      </trkpt>
      <trkpt lat="42.48080399818718433380126953125" lon="2.84269756637513637542724609375">
        <ele>159.399993896484375</ele>
        <time>2022-07-28T08:14:59.000Z</time>
      </trkpt>
      <trkpt lat="42.48075387440621852874755859375" lon="2.8427061997354030609130859375">
        <ele>159.600006103515625</ele>
        <time>2022-07-28T08:15:00.000Z</time>
      </trkpt>
      <trkpt lat="42.48070391826331615447998046875" lon="2.84271013922989368438720703125">
        <ele>159.8000030517578125</ele>
        <time>2022-07-28T08:15:01.000Z</time>
      </trkpt>
      <trkpt lat="42.48047693632543087005615234375" lon="2.84268415533006191253662109375">
        <ele>160.399993896484375</ele>
        <time>2022-07-28T08:15:06.000Z</time>
      </trkpt>
      <trkpt lat="42.4801630340516567230224609375" lon="2.8425871767103672027587890625">
        <ele>161.399993896484375</ele>
        <time>2022-07-28T08:15:13.000Z</time>
      </trkpt>
      <trkpt lat="42.480118274688720703125" lon="2.84257820807397365570068359375">
        <ele>161.600006103515625</ele>
        <time>2022-07-28T08:15:14.000Z</time>
      </trkpt>
      <trkpt lat="42.48007292859256267547607421875" lon="2.84257636405527591705322265625">
        <ele>162</ele>
        <time>2022-07-28T08:15:15.000Z</time>
      </trkpt>
      <trkpt lat="42.479893974959850311279296875" lon="2.84260310232639312744140625">
        <ele>162.600006103515625</ele>
        <time>2022-07-28T08:15:19.000Z</time>
      </trkpt>
      <trkpt lat="42.47985147871077060699462890625" lon="2.84261383116245269775390625">
        <ele>162.8000030517578125</ele>
        <time>2022-07-28T08:15:20.000Z</time>
      </trkpt>
      <trkpt lat="42.47966162860393524169921875" lon="2.84275062382221221923828125">
        <ele>163.600006103515625</ele>
        <time>2022-07-28T08:15:25.000Z</time>
      </trkpt>
      <trkpt lat="42.47945551760494709014892578125" lon="2.84306921996176242828369140625">
        <ele>164.600006103515625</ele>
        <time>2022-07-28T08:15:32.000Z</time>
      </trkpt>
      <trkpt lat="42.47918059118092060089111328125" lon="2.84357615746557712554931640625">
        <ele>165.600006103515625</ele>
        <time>2022-07-28T08:15:42.000Z</time>
      </trkpt>
      <trkpt lat="42.47912585735321044921875" lon="2.8436758182942867279052734375">
        <ele>165.8000030517578125</ele>
        <time>2022-07-28T08:15:44.000Z</time>
      </trkpt>
      <trkpt lat="42.4789664335548877716064453125" lon="2.843975387513637542724609375">
        <ele>167</ele>
        <time>2022-07-28T08:15:50.000Z</time>
      </trkpt>
      <trkpt lat="42.47894405387341976165771484375" lon="2.8440258465707302093505859375">
        <ele>167</ele>
        <time>2022-07-28T08:15:51.000Z</time>
      </trkpt>
      <trkpt lat="42.4788333289325237274169921875" lon="2.84434947185218334197998046875">
        <ele>168</ele>
        <time>2022-07-28T08:15:57.000Z</time>
      </trkpt>
      <trkpt lat="42.47880960814654827117919921875" lon="2.8444657288491725921630859375">
        <ele>168.600006103515625</ele>
        <time>2022-07-28T08:15:59.000Z</time>
      </trkpt>
      <trkpt lat="42.47877515852451324462890625" lon="2.84476202912628650665283203125">
        <ele>169.1999969482421875</ele>
        <time>2022-07-28T08:16:04.000Z</time>
      </trkpt>
      <trkpt lat="42.47877071611583232879638671875" lon="2.844886668026447296142578125">
        <ele>169.600006103515625</ele>
        <time>2022-07-28T08:16:06.000Z</time>
      </trkpt>
      <trkpt lat="42.478762753307819366455078125" lon="2.84520174376666545867919921875">
        <ele>170.1999969482421875</ele>
        <time>2022-07-28T08:16:11.000Z</time>
      </trkpt>
      <trkpt lat="42.47874221764504909515380859375" lon="2.84557926468551158905029296875">
        <ele>170.8000030517578125</ele>
        <time>2022-07-28T08:16:17.000Z</time>
      </trkpt>
      <trkpt lat="42.47869611717760562896728515625" lon="2.84589559771120548248291015625">
        <ele>171.1999969482421875</ele>
        <time>2022-07-28T08:16:22.000Z</time>
      </trkpt>
      <trkpt lat="42.47867784462869167327880859375" lon="2.84595695324242115020751953125">
        <ele>171.399993896484375</ele>
        <time>2022-07-28T08:16:23.000Z</time>
      </trkpt>
      <trkpt lat="42.4786318279802799224853515625" lon="2.84607161767780780792236328125">
        <ele>171.399993896484375</ele>
        <time>2022-07-28T08:16:25.000Z</time>
      </trkpt>
      <trkpt lat="42.47854574583470821380615234375" lon="2.84622299484908580780029296875">
        <ele>171.8000030517578125</ele>
        <time>2022-07-28T08:16:28.000Z</time>
      </trkpt>
      <trkpt lat="42.47851070947945117950439453125" lon="2.8462675027549266815185546875">
        <ele>171.8000030517578125</ele>
        <time>2022-07-28T08:16:29.000Z</time>
      </trkpt>
      <trkpt lat="42.478300742805004119873046875" lon="2.84642114304006099700927734375">
        <ele>172</ele>
        <time>2022-07-28T08:16:34.000Z</time>
      </trkpt>
      <trkpt lat="42.47820694930851459503173828125" lon="2.8464468754827976226806640625">
        <ele>172.399993896484375</ele>
        <time>2022-07-28T08:16:36.000Z</time>
      </trkpt>
      <trkpt lat="42.478017769753932952880859375" lon="2.846439667046070098876953125">
        <ele>172.8000030517578125</ele>
        <time>2022-07-28T08:16:40.000Z</time>
      </trkpt>
      <trkpt lat="42.4779709987342357635498046875" lon="2.84642701037228107452392578125">
        <ele>172.8000030517578125</ele>
        <time>2022-07-28T08:16:41.000Z</time>
      </trkpt>
      <trkpt lat="42.4779254011809825897216796875" lon="2.84641007892787456512451171875">
        <ele>172.8000030517578125</ele>
        <time>2022-07-28T08:16:42.000Z</time>
      </trkpt>
      <trkpt lat="42.47775633819401264190673828125" lon="2.84629424102604389190673828125">
        <ele>173.1999969482421875</ele>
        <time>2022-07-28T08:16:46.000Z</time>
      </trkpt>
      <trkpt lat="42.4775205552577972412109375" lon="2.846096344292163848876953125">
        <ele>174.1999969482421875</ele>
        <time>2022-07-28T08:16:52.000Z</time>
      </trkpt>
      <trkpt lat="42.4774362333118915557861328125" lon="2.84604798071086406707763671875">
        <ele>174.600006103515625</ele>
        <time>2022-07-28T08:16:54.000Z</time>
      </trkpt>
      <trkpt lat="42.4773909710347652435302734375" lon="2.84603004343807697296142578125">
        <ele>175</ele>
        <time>2022-07-28T08:16:55.000Z</time>
      </trkpt>
      <trkpt lat="42.477343864738941192626953125" lon="2.84601512365043163299560546875">
        <ele>175.399993896484375</ele>
        <time>2022-07-28T08:16:56.000Z</time>
      </trkpt>
      <trkpt lat="42.47720162384212017059326171875" lon="2.84599081613123416900634765625">
        <ele>176</ele>
        <time>2022-07-28T08:16:59.000Z</time>
      </trkpt>
      <trkpt lat="42.47710875235497951507568359375" lon="2.84600020386278629302978515625">
        <ele>176.1999969482421875</ele>
        <time>2022-07-28T08:17:01.000Z</time>
      </trkpt>
      <trkpt lat="42.47706248424947261810302734375" lon="2.8460116870701313018798828125">
        <ele>176.600006103515625</ele>
        <time>2022-07-28T08:17:02.000Z</time>
      </trkpt>
      <trkpt lat="42.47701562941074371337890625" lon="2.8460254333913326263427734375">
        <ele>176.8000030517578125</ele>
        <time>2022-07-28T08:17:03.000Z</time>
      </trkpt>
      <trkpt lat="42.476826198399066925048828125" lon="2.8461040556430816650390625">
        <ele>177.600006103515625</ele>
        <time>2022-07-28T08:17:07.000Z</time>
      </trkpt>
      <trkpt lat="42.47678051702678203582763671875" lon="2.8461290337145328521728515625">
        <ele>177.8000030517578125</ele>
        <time>2022-07-28T08:17:08.000Z</time>
      </trkpt>
      <trkpt lat="42.4766917526721954345703125" lon="2.846180498600006103515625">
        <ele>177.8000030517578125</ele>
        <time>2022-07-28T08:17:10.000Z</time>
      </trkpt>
      <trkpt lat="42.4765370227396488189697265625" lon="2.8463335521519184112548828125">
        <ele>178.1999969482421875</ele>
        <time>2022-07-28T08:17:14.000Z</time>
      </trkpt>
      <trkpt lat="42.47635203413665294647216796875" lon="2.84654821269214153289794921875">
        <ele>178.8000030517578125</ele>
        <time>2022-07-28T08:17:19.000Z</time>
      </trkpt>
      <trkpt lat="42.47623334638774394989013671875" lon="2.846660949289798736572265625">
        <ele>179</ele>
        <time>2022-07-28T08:17:22.000Z</time>
      </trkpt>
      <trkpt lat="42.4761102162301540374755859375" lon="2.84674971364438533782958984375">
        <ele>179.399993896484375</ele>
        <time>2022-07-28T08:17:25.000Z</time>
      </trkpt>
      <trkpt lat="42.47597753070294857025146484375" lon="2.8468067944049835205078125">
        <ele>179.600006103515625</ele>
        <time>2022-07-28T08:17:28.000Z</time>
      </trkpt>
      <trkpt lat="42.47584911994636058807373046875" lon="2.84686303697526454925537109375">
        <ele>180</ele>
        <time>2022-07-28T08:17:31.000Z</time>
      </trkpt>
      <trkpt lat="42.47555105946958065032958984375" lon="2.847006954252719879150390625">
        <ele>180.8000030517578125</ele>
        <time>2022-07-28T08:17:38.000Z</time>
      </trkpt>
      <trkpt lat="42.4754627980291843414306640625" lon="2.847049534320831298828125">
        <ele>181.399993896484375</ele>
        <time>2022-07-28T08:17:40.000Z</time>
      </trkpt>
      <trkpt lat="42.47511168010532855987548828125" lon="2.8472304157912731170654296875">
        <ele>182.399993896484375</ele>
        <time>2022-07-28T08:17:48.000Z</time>
      </trkpt>
      <trkpt lat="42.475023083388805389404296875" lon="2.84727794118225574493408203125">
        <ele>182.600006103515625</ele>
        <time>2022-07-28T08:17:50.000Z</time>
      </trkpt>
      <trkpt lat="42.4747127853333950042724609375" lon="2.84743870608508586883544921875">
        <ele>183.399993896484375</ele>
        <time>2022-07-28T08:17:57.000Z</time>
      </trkpt>
      <trkpt lat="42.47451245784759521484375" lon="2.847573570907115936279296875">
        <ele>184.399993896484375</ele>
        <time>2022-07-28T08:18:02.000Z</time>
      </trkpt>
      <trkpt lat="42.47444213367998600006103515625" lon="2.84763853065669536590576171875">
        <ele>184.600006103515625</ele>
        <time>2022-07-28T08:18:04.000Z</time>
      </trkpt>
      <trkpt lat="42.47429612092673778533935546875" lon="2.84783885814249515533447265625">
        <ele>185.399993896484375</ele>
        <time>2022-07-28T08:18:09.000Z</time>
      </trkpt>
      <trkpt lat="42.47427315451204776763916015625" lon="2.8478850424289703369140625">
        <ele>185.600006103515625</ele>
        <time>2022-07-28T08:18:10.000Z</time>
      </trkpt>
      <trkpt lat="42.47425488196313381195068359375" lon="2.847933657467365264892578125">
        <ele>185.600006103515625</ele>
        <time>2022-07-28T08:18:11.000Z</time>
      </trkpt>
      <trkpt lat="42.4742125533521175384521484375" lon="2.84809500910341739654541015625">
        <ele>186.1999969482421875</ele>
        <time>2022-07-28T08:18:14.000Z</time>
      </trkpt>
      <trkpt lat="42.47419838793575763702392578125" lon="2.84820900298655033111572265625">
        <ele>186.8000030517578125</ele>
        <time>2022-07-28T08:18:16.000Z</time>
      </trkpt>
      <trkpt lat="42.4741907604038715362548828125" lon="2.8484367392957210540771484375">
        <ele>187.399993896484375</ele>
        <time>2022-07-28T08:18:20.000Z</time>
      </trkpt>
      <trkpt lat="42.4741944484412670135498046875" lon="2.84849616698920726776123046875">
        <ele>187.399993896484375</ele>
        <time>2022-07-28T08:18:21.000Z</time>
      </trkpt>
      <trkpt lat="42.47420475818216800689697265625" lon="2.848614938557147979736328125">
        <ele>187.8000030517578125</ele>
        <time>2022-07-28T08:18:23.000Z</time>
      </trkpt>
      <trkpt lat="42.47424666769802570343017578125" lon="2.84892196767032146453857421875">
        <ele>189.1999969482421875</ele>
        <time>2022-07-28T08:18:28.000Z</time>
      </trkpt>
      <trkpt lat="42.47426812537014484405517578125" lon="2.84921474754810333251953125">
        <ele>190</ele>
        <time>2022-07-28T08:18:33.000Z</time>
      </trkpt>
      <trkpt lat="42.47425219975411891937255859375" lon="2.84932983107864856719970703125">
        <ele>190.1999969482421875</ele>
        <time>2022-07-28T08:18:35.000Z</time>
      </trkpt>
      <trkpt lat="42.47424012981355190277099609375" lon="2.8493859060108661651611328125">
        <ele>190.1999969482421875</ele>
        <time>2022-07-28T08:18:36.000Z</time>
      </trkpt>
      <trkpt lat="42.47414910234510898590087890625" lon="2.84977977164089679718017578125">
        <ele>191.1999969482421875</ele>
        <time>2022-07-28T08:18:43.000Z</time>
      </trkpt>
      <trkpt lat="42.47413736768066883087158203125" lon="2.84983542747795581817626953125">
        <ele>191.600006103515625</ele>
        <time>2022-07-28T08:18:44.000Z</time>
      </trkpt>
      <trkpt lat="42.474080957472324371337890625" lon="2.85024211741983890533447265625">
        <ele>192.399993896484375</ele>
        <time>2022-07-28T08:18:51.000Z</time>
      </trkpt>
      <trkpt lat="42.4740730784833431243896484375" lon="2.85029701888561248779296875">
        <ele>192.600006103515625</ele>
        <time>2022-07-28T08:18:52.000Z</time>
      </trkpt>
      <trkpt lat="42.47404365800321102142333984375" lon="2.85062399692833423614501953125">
        <ele>193.1999969482421875</ele>
        <time>2022-07-28T08:18:58.000Z</time>
      </trkpt>
      <trkpt lat="42.4740325100719928741455078125" lon="2.8507310338318347930908203125">
        <ele>193.600006103515625</ele>
        <time>2022-07-28T08:19:00.000Z</time>
      </trkpt>
      <trkpt lat="42.47401616536080837249755859375" lon="2.8509881906211376190185546875">
        <ele>194.8000030517578125</ele>
        <time>2022-07-28T08:19:05.000Z</time>
      </trkpt>
      <trkpt lat="42.47401289641857147216796875" lon="2.851040326058864593505859375">
        <ele>194.8000030517578125</ele>
        <time>2022-07-28T08:19:06.000Z</time>
      </trkpt>
      <trkpt lat="42.47398967854678630828857421875" lon="2.8513150848448276519775390625">
        <ele>196</ele>
        <time>2022-07-28T08:19:11.000Z</time>
      </trkpt>
      <trkpt lat="42.4739654548466205596923828125" lon="2.85153628326952457427978515625">
        <ele>197</ele>
        <time>2022-07-28T08:19:15.000Z</time>
      </trkpt>
      <trkpt lat="42.47392362914979457855224609375" lon="2.8519061766564846038818359375">
        <ele>198</ele>
        <time>2022-07-28T08:19:22.000Z</time>
      </trkpt>
      <trkpt lat="42.47386931441724300384521484375" lon="2.85226366482675075531005859375">
        <ele>199</ele>
        <time>2022-07-28T08:19:29.000Z</time>
      </trkpt>
      <trkpt lat="42.47373998165130615234375" lon="2.85251042805612087249755859375">
        <ele>199.8000030517578125</ele>
        <time>2022-07-28T08:19:35.000Z</time>
      </trkpt>
      <trkpt lat="42.47368566691875457763671875" lon="2.85257413052022457122802734375">
        <ele>200.1999969482421875</ele>
        <time>2022-07-28T08:19:37.000Z</time>
      </trkpt>
      <trkpt lat="42.47353152371942996978759765625" lon="2.852685861289501190185546875">
        <ele>201</ele>
        <time>2022-07-28T08:19:42.000Z</time>
      </trkpt>
      <trkpt lat="42.47346748597919940948486328125" lon="2.852717377245426177978515625">
        <ele>201.600006103515625</ele>
        <time>2022-07-28T08:19:44.000Z</time>
      </trkpt>
      <trkpt lat="42.47326782904565334320068359375" lon="2.85277043469250202178955078125">
        <ele>202.600006103515625</ele>
        <time>2022-07-28T08:19:50.000Z</time>
      </trkpt>
      <trkpt lat="42.47310228645801544189453125" lon="2.85274922847747802734375">
        <ele>203.8000030517578125</ele>
        <time>2022-07-28T08:19:55.000Z</time>
      </trkpt>
      <trkpt lat="42.473037242889404296875" lon="2.852724082767963409423828125">
        <ele>204</ele>
        <time>2022-07-28T08:19:57.000Z</time>
      </trkpt>
      <trkpt lat="42.4728372506797313690185546875" lon="2.85261553712189197540283203125">
        <ele>204.8000030517578125</ele>
        <time>2022-07-28T08:20:03.000Z</time>
      </trkpt>
      <trkpt lat="42.47270875610411167144775390625" lon="2.85253691487014293670654296875">
        <ele>205.600006103515625</ele>
        <time>2022-07-28T08:20:07.000Z</time>
      </trkpt>
      <trkpt lat="42.4726469814777374267578125" lon="2.85251277498900890350341796875">
        <ele>206</ele>
        <time>2022-07-28T08:20:09.000Z</time>
      </trkpt>
      <trkpt lat="42.47249619103968143463134765625" lon="2.8524737991392612457275390625">
        <ele>207</ele>
        <time>2022-07-28T08:20:14.000Z</time>
      </trkpt>
      <trkpt lat="42.47246501035988330841064453125" lon="2.8524697758257389068603515625">
        <ele>207.1999969482421875</ele>
        <time>2022-07-28T08:20:15.000Z</time>
      </trkpt>
      <trkpt lat="42.47227692045271396636962890625" lon="2.852486036717891693115234375">
        <ele>208.1999969482421875</ele>
        <time>2022-07-28T08:20:21.000Z</time>
      </trkpt>
      <trkpt lat="42.47205362655222415924072265625" lon="2.85263054072856903076171875">
        <ele>209</ele>
        <time>2022-07-28T08:20:29.000Z</time>
      </trkpt>
      <trkpt lat="42.47202747501432895660400390625" lon="2.85265509970486164093017578125">
        <ele>209.1999969482421875</ele>
        <time>2022-07-28T08:20:30.000Z</time>
      </trkpt>
      <trkpt lat="42.471870481967926025390625" lon="2.85287437029182910919189453125">
        <ele>210.1999969482421875</ele>
        <time>2022-07-28T08:20:37.000Z</time>
      </trkpt>
      <trkpt lat="42.471835613250732421875" lon="2.85294528119266033172607421875">
        <ele>210.600006103515625</ele>
        <time>2022-07-28T08:20:39.000Z</time>
      </trkpt>
      <trkpt lat="42.4717797897756099700927734375" lon="2.8531483747065067291259765625">
        <ele>211.1999969482421875</ele>
        <time>2022-07-28T08:20:44.000Z</time>
      </trkpt>
      <trkpt lat="42.4717700667679309844970703125" lon="2.85323395393788814544677734375">
        <ele>211.600006103515625</ele>
        <time>2022-07-28T08:20:46.000Z</time>
      </trkpt>
      <trkpt lat="42.47177115641534328460693359375" lon="2.85349463112652301788330078125">
        <ele>212.399993896484375</ele>
        <time>2022-07-28T08:20:52.000Z</time>
      </trkpt>
      <trkpt lat="42.471786998212337493896484375" lon="2.85358733497560024261474609375">
        <ele>212.600006103515625</ele>
        <time>2022-07-28T08:20:54.000Z</time>
      </trkpt>
      <trkpt lat="42.4718478508293628692626953125" lon="2.8537966310977935791015625">
        <ele>213.600006103515625</ele>
        <time>2022-07-28T08:20:59.000Z</time>
      </trkpt>
      <trkpt lat="42.47186536900699138641357421875" lon="2.8538336791098117828369140625">
        <ele>213.8000030517578125</ele>
        <time>2022-07-28T08:21:00.000Z</time>
      </trkpt>
      <trkpt lat="42.47199411503970623016357421875" lon="2.8540335036814212799072265625">
        <ele>214.8000030517578125</ele>
        <time>2022-07-28T08:21:06.000Z</time>
      </trkpt>
      <trkpt lat="42.4720191769301891326904296875" lon="2.85406141541898250579833984375">
        <ele>215</ele>
        <time>2022-07-28T08:21:07.000Z</time>
      </trkpt>
      <trkpt lat="42.47218656353652477264404296875" lon="2.8541890718042850494384765625">
        <ele>215.8000030517578125</ele>
        <time>2022-07-28T08:21:13.000Z</time>
      </trkpt>
      <trkpt lat="42.47221740894019603729248046875" lon="2.85420365631580352783203125">
        <ele>215.8000030517578125</ele>
        <time>2022-07-28T08:21:14.000Z</time>
      </trkpt>
      <trkpt lat="42.4724748171865940093994140625" lon="2.8542816080152988433837890625">
        <ele>217.1999969482421875</ele>
        <time>2022-07-28T08:21:22.000Z</time>
      </trkpt>
      <trkpt lat="42.4725076742470264434814453125" lon="2.85428873263299465179443359375">
        <ele>217.1999969482421875</ele>
        <time>2022-07-28T08:21:23.000Z</time>
      </trkpt>
      <trkpt lat="42.472805567085742950439453125" lon="2.85437858663499355316162109375">
        <ele>218.1999969482421875</ele>
        <time>2022-07-28T08:21:32.000Z</time>
      </trkpt>
      <trkpt lat="42.4730146117508411407470703125" lon="2.854548990726470947265625">
        <ele>219.399993896484375</ele>
        <time>2022-07-28T08:21:39.000Z</time>
      </trkpt>
      <trkpt lat="42.47316531836986541748046875" lon="2.8547568619251251220703125">
        <ele>220.399993896484375</ele>
        <time>2022-07-28T08:21:45.000Z</time>
      </trkpt>
      <trkpt lat="42.4732080660760402679443359375" lon="2.85484059713780879974365234375">
        <ele>220.600006103515625</ele>
        <time>2022-07-28T08:21:47.000Z</time>
      </trkpt>
      <trkpt lat="42.4733089841902256011962890625" lon="2.85511158406734466552734375">
        <ele>221.600006103515625</ele>
        <time>2022-07-28T08:21:53.000Z</time>
      </trkpt>
      <trkpt lat="42.473329938948154449462890625" lon="2.85520613193511962890625">
        <ele>221.8000030517578125</ele>
        <time>2022-07-28T08:21:55.000Z</time>
      </trkpt>
      <trkpt lat="42.47335935942828655242919921875" lon="2.85550259985029697418212890625">
        <ele>222.600006103515625</ele>
        <time>2022-07-28T08:22:01.000Z</time>
      </trkpt>
      <trkpt lat="42.47335516847670078277587890625" lon="2.85560083575546741485595703125">
        <ele>223.1999969482421875</ele>
        <time>2022-07-28T08:22:03.000Z</time>
      </trkpt>
      <trkpt lat="42.47334611602127552032470703125" lon="2.8556971438229084014892578125">
        <ele>223.600006103515625</ele>
        <time>2022-07-28T08:22:05.000Z</time>
      </trkpt>
      <trkpt lat="42.47334276326000690460205078125" lon="2.855888418853282928466796875">
        <ele>224.1999969482421875</ele>
        <time>2022-07-28T08:22:09.000Z</time>
      </trkpt>
      <trkpt lat="42.4733416736125946044921875" lon="2.85602412186563014984130859375">
        <ele>224.8000030517578125</ele>
        <time>2022-07-28T08:22:12.000Z</time>
      </trkpt>
      <trkpt lat="42.47332851402461528778076171875" lon="2.856250517070293426513671875">
        <ele>225.399993896484375</ele>
        <time>2022-07-28T08:22:17.000Z</time>
      </trkpt>
      <trkpt lat="42.47331728227436542510986328125" lon="2.85634062252938747406005859375">
        <ele>226</ele>
        <time>2022-07-28T08:22:19.000Z</time>
      </trkpt>
      <trkpt lat="42.47324620373547077178955078125" lon="2.85658654756844043731689453125">
        <ele>226.600006103515625</ele>
        <time>2022-07-28T08:22:25.000Z</time>
      </trkpt>
      <trkpt lat="42.47319373302161693572998046875" lon="2.85669542849063873291015625">
        <ele>227</ele>
        <time>2022-07-28T08:22:28.000Z</time>
      </trkpt>
      <trkpt lat="42.47310572303831577301025390625" lon="2.85683532245457172393798828125">
        <ele>227.8000030517578125</ele>
        <time>2022-07-28T08:22:32.000Z</time>
      </trkpt>
      <trkpt lat="42.47305761091411113739013671875" lon="2.85689567215740680694580078125">
        <ele>228.1999969482421875</ele>
        <time>2022-07-28T08:22:34.000Z</time>
      </trkpt>
      <trkpt lat="42.47292500920593738555908203125" lon="2.8570429421961307525634765625">
        <ele>229.1999969482421875</ele>
        <time>2022-07-28T08:22:39.000Z</time>
      </trkpt>
      <trkpt lat="42.4728959240019321441650390625" lon="2.85706959664821624755859375">
        <ele>229.600006103515625</ele>
        <time>2022-07-28T08:22:40.000Z</time>
      </trkpt>
      <trkpt lat="42.4727869592607021331787109375" lon="2.8571770526468753814697265625">
        <ele>230.399993896484375</ele>
        <time>2022-07-28T08:22:44.000Z</time>
      </trkpt>
      <trkpt lat="42.47263491153717041015625" lon="2.857325077056884765625">
        <ele>231.399993896484375</ele>
        <time>2022-07-28T08:22:50.000Z</time>
      </trkpt>
      <trkpt lat="42.47260867618024349212646484375" lon="2.8573513962328433990478515625">
        <ele>231.600006103515625</ele>
        <time>2022-07-28T08:22:51.000Z</time>
      </trkpt>
      <trkpt lat="42.47243617661297321319580078125" lon="2.85751358605921268463134765625">
        <ele>232.600006103515625</ele>
        <time>2022-07-28T08:22:57.000Z</time>
      </trkpt>
      <trkpt lat="42.47235118411481380462646484375" lon="2.8575887717306613922119140625">
        <ele>233.1999969482421875</ele>
        <time>2022-07-28T08:23:00.000Z</time>
      </trkpt>
      <trkpt lat="42.472241632640361785888671875" lon="2.8576831519603729248046875">
        <ele>233.8000030517578125</ele>
        <time>2022-07-28T08:23:04.000Z</time>
      </trkpt>
      <trkpt lat="42.47206561267375946044921875" lon="2.85779790021479129791259765625">
        <ele>234.8000030517578125</ele>
        <time>2022-07-28T08:23:10.000Z</time>
      </trkpt>
      <trkpt lat="42.47203384526073932647705078125" lon="2.8578113950788974761962890625">
        <ele>235</ele>
        <time>2022-07-28T08:23:11.000Z</time>
      </trkpt>
      <trkpt lat="42.47182999737560749053955078125" lon="2.85785540007054805755615234375">
        <ele>235.399993896484375</ele>
        <time>2022-07-28T08:23:17.000Z</time>
      </trkpt>
      <trkpt lat="42.47170041315257549285888671875" lon="2.857821621000766754150390625">
        <ele>236.1999969482421875</ele>
        <time>2022-07-28T08:23:21.000Z</time>
      </trkpt>
      <trkpt lat="42.471498660743236541748046875" lon="2.8577114827930927276611328125">
        <ele>237.1999969482421875</ele>
        <time>2022-07-28T08:23:27.000Z</time>
      </trkpt>
      <trkpt lat="42.47139682061970233917236328125" lon="2.8576373867690563201904296875">
        <ele>238.1999969482421875</ele>
        <time>2022-07-28T08:23:30.000Z</time>
      </trkpt>
      <trkpt lat="42.47135977260768413543701171875" lon="2.85761551000177860260009765625">
        <ele>238.399993896484375</ele>
        <time>2022-07-28T08:23:31.000Z</time>
      </trkpt>
      <trkpt lat="42.47128047980368137359619140625" lon="2.857582233846187591552734375">
        <ele>238.600006103515625</ele>
        <time>2022-07-28T08:23:33.000Z</time>
      </trkpt>
      <trkpt lat="42.4711508117616176605224609375" lon="2.85756890662014484405517578125">
        <ele>238.600006103515625</ele>
        <time>2022-07-28T08:23:36.000Z</time>
      </trkpt>
      <trkpt lat="42.470732219517230987548828125" lon="2.85758030600845813751220703125">
        <ele>238.600006103515625</ele>
        <time>2022-07-28T08:23:45.000Z</time>
      </trkpt>
      <trkpt lat="42.47027800418436527252197265625" lon="2.8575964830815792083740234375">
        <ele>239.399993896484375</ele>
        <time>2022-07-28T08:23:54.000Z</time>
      </trkpt>
      <trkpt lat="42.4701751582324504852294921875" lon="2.85759656690061092376708984375">
        <ele>239.600006103515625</ele>
        <time>2022-07-28T08:23:56.000Z</time>
      </trkpt>
      <trkpt lat="42.4699391238391399383544921875" lon="2.8576082177460193634033203125">
        <ele>239.8000030517578125</ele>
        <time>2022-07-28T08:24:01.000Z</time>
      </trkpt>
      <trkpt lat="42.4695944599807262420654296875" lon="2.8577034361660480499267578125">
        <ele>240.600006103515625</ele>
        <time>2022-07-28T08:24:09.000Z</time>
      </trkpt>
      <trkpt lat="42.4693195335566997528076171875" lon="2.857868559658527374267578125">
        <ele>241.8000030517578125</ele>
        <time>2022-07-28T08:24:16.000Z</time>
      </trkpt>
      <trkpt lat="42.46924686245620250701904296875" lon="2.8579304181039333343505859375">
        <ele>242</ele>
        <time>2022-07-28T08:24:18.000Z</time>
      </trkpt>
      <trkpt lat="42.46901099570095539093017578125" lon="2.85819319076836109161376953125">
        <ele>242.8000030517578125</ele>
        <time>2022-07-28T08:24:25.000Z</time>
      </trkpt>
      <trkpt lat="42.468980066478252410888671875" lon="2.858235351741313934326171875">
        <ele>243</ele>
        <time>2022-07-28T08:24:26.000Z</time>
      </trkpt>
      <trkpt lat="42.46883866377174854278564453125" lon="2.858454287052154541015625">
        <ele>243.399993896484375</ele>
        <time>2022-07-28T08:24:31.000Z</time>
      </trkpt>
      <trkpt lat="42.46876942925155162811279296875" lon="2.8586031496524810791015625">
        <ele>243.600006103515625</ele>
        <time>2022-07-28T08:24:34.000Z</time>
      </trkpt>
      <trkpt lat="42.46872768737375736236572265625" lon="2.8587018884718418121337890625">
        <ele>244</ele>
        <time>2022-07-28T08:24:36.000Z</time>
      </trkpt>
      <trkpt lat="42.46864906512200832366943359375" lon="2.858946137130260467529296875">
        <ele>245</ele>
        <time>2022-07-28T08:24:41.000Z</time>
      </trkpt>
      <trkpt lat="42.4686372466385364532470703125" lon="2.85899433307349681854248046875">
        <ele>245.1999969482421875</ele>
        <time>2022-07-28T08:24:42.000Z</time>
      </trkpt>
      <trkpt lat="42.46858871541917324066162109375" lon="2.85923439078032970428466796875">
        <ele>246</ele>
        <time>2022-07-28T08:24:47.000Z</time>
      </trkpt>
      <trkpt lat="42.46857329271733760833740234375" lon="2.8594337962567806243896484375">
        <ele>246.8000030517578125</ele>
        <time>2022-07-28T08:24:51.000Z</time>
      </trkpt>
      <trkpt lat="42.46856264770030975341796875" lon="2.85958106629550457000732421875">
        <ele>247.1999969482421875</ele>
        <time>2022-07-28T08:24:54.000Z</time>
      </trkpt>
      <trkpt lat="42.46855049394071102142333984375" lon="2.8598857484757900238037109375">
        <ele>248</ele>
        <time>2022-07-28T08:25:00.000Z</time>
      </trkpt>
      <trkpt lat="42.46854831464588642120361328125" lon="2.85993578843772411346435546875">
        <ele>248.399993896484375</ele>
        <time>2022-07-28T08:25:01.000Z</time>
      </trkpt>
      <trkpt lat="42.46852819807827472686767578125" lon="2.8601817972958087921142578125">
        <ele>249.399993896484375</ele>
        <time>2022-07-28T08:25:06.000Z</time>
      </trkpt>
      <trkpt lat="42.46851042844355106353759765625" lon="2.86032370291650295257568359375">
        <ele>250.1999969482421875</ele>
        <time>2022-07-28T08:25:09.000Z</time>
      </trkpt>
      <trkpt lat="42.46850238181650638580322265625" lon="2.86037030629813671112060546875">
        <ele>250.600006103515625</ele>
        <time>2022-07-28T08:25:10.000Z</time>
      </trkpt>
      <trkpt lat="42.468405067920684814453125" lon="2.860716395080089569091796875">
        <ele>251.399993896484375</ele>
        <time>2022-07-28T08:25:18.000Z</time>
      </trkpt>
      <trkpt lat="42.4683767370879650115966796875" lon="2.8607973642647266387939453125">
        <ele>251.600006103515625</ele>
        <time>2022-07-28T08:25:20.000Z</time>
      </trkpt>
      <trkpt lat="42.468322254717350006103515625" lon="2.86090674810111522674560546875">
        <ele>252.600006103515625</ele>
        <time>2022-07-28T08:25:23.000Z</time>
      </trkpt>
      <trkpt lat="42.46828210540115833282470703125" lon="2.86097413860261440277099609375">
        <ele>252.8000030517578125</ele>
        <time>2022-07-28T08:25:25.000Z</time>
      </trkpt>
      <trkpt lat="42.46816970407962799072265625" lon="2.86113171838223934173583984375">
        <ele>254</ele>
        <time>2022-07-28T08:25:30.000Z</time>
      </trkpt>
      <trkpt lat="42.46807255782186985015869140625" lon="2.86124085076153278350830078125">
        <ele>254.399993896484375</ele>
        <time>2022-07-28T08:25:34.000Z</time>
      </trkpt>
      <trkpt lat="42.46791489422321319580078125" lon="2.8613872826099395751953125">
        <ele>255</ele>
        <time>2022-07-28T08:25:40.000Z</time>
      </trkpt>
      <trkpt lat="42.46788715012371540069580078125" lon="2.86140941083431243896484375">
        <ele>255.399993896484375</ele>
        <time>2022-07-28T08:25:41.000Z</time>
      </trkpt>
      <trkpt lat="42.467746920883655548095703125" lon="2.86153488792479038238525390625">
        <ele>256.20001220703125</ele>
        <time>2022-07-28T08:25:46.000Z</time>
      </trkpt>
      <trkpt lat="42.4676659516990184783935546875" lon="2.86161820404231548309326171875">
        <ele>256.79998779296875</ele>
        <time>2022-07-28T08:25:49.000Z</time>
      </trkpt>
      <trkpt lat="42.46764055453240871429443359375" lon="2.86164812743663787841796875">
        <ele>257.399993896484375</ele>
        <time>2022-07-28T08:25:50.000Z</time>
      </trkpt>
      <trkpt lat="42.46747434139251708984375" lon="2.86189095117151737213134765625">
        <ele>258.399993896484375</ele>
        <time>2022-07-28T08:25:57.000Z</time>
      </trkpt>
      <trkpt lat="42.4674503691494464874267578125" lon="2.86192565225064754486083984375">
        <ele>258.600006103515625</ele>
        <time>2022-07-28T08:25:58.000Z</time>
      </trkpt>
      <trkpt lat="42.46732556261122226715087890625" lon="2.862098403275012969970703125">
        <ele>259.399993896484375</ele>
        <time>2022-07-28T08:26:03.000Z</time>
      </trkpt>
      <trkpt lat="42.4672133289277553558349609375" lon="2.86220829002559185028076171875">
        <ele>260.399993896484375</ele>
        <time>2022-07-28T08:26:07.000Z</time>
      </trkpt>
      <trkpt lat="42.4671844951808452606201171875" lon="2.86223125644028186798095703125">
        <ele>260.399993896484375</ele>
        <time>2022-07-28T08:26:08.000Z</time>
      </trkpt>
      <trkpt lat="42.466992549598217010498046875" lon="2.862337790429592132568359375">
        <ele>261.399993896484375</ele>
        <time>2022-07-28T08:26:14.000Z</time>
      </trkpt>
      <trkpt lat="42.46682549826800823211669921875" lon="2.86240593530237674713134765625">
        <ele>262.600006103515625</ele>
        <time>2022-07-28T08:26:19.000Z</time>
      </trkpt>
      <trkpt lat="42.46669574640691280364990234375" lon="2.862453795969486236572265625">
        <ele>263.600006103515625</ele>
        <time>2022-07-28T08:26:23.000Z</time>
      </trkpt>
      <trkpt lat="42.46666523627936840057373046875" lon="2.86246594972908496856689453125">
        <ele>263.79998779296875</ele>
        <time>2022-07-28T08:26:24.000Z</time>
      </trkpt>
      <trkpt lat="42.46650715358555316925048828125" lon="2.86254934966564178466796875">
        <ele>265</ele>
        <time>2022-07-28T08:26:29.000Z</time>
      </trkpt>
      <trkpt lat="42.4664113484323024749755859375" lon="2.86262570880353450775146484375">
        <ele>265.600006103515625</ele>
        <time>2022-07-28T08:26:32.000Z</time>
      </trkpt>
      <trkpt lat="42.4663479812443256378173828125" lon="2.86268438212573528289794921875">
        <ele>266</ele>
        <time>2022-07-28T08:26:34.000Z</time>
      </trkpt>
      <trkpt lat="42.466197274625301361083984375" lon="2.862842381000518798828125">
        <ele>267</ele>
        <time>2022-07-28T08:26:39.000Z</time>
      </trkpt>
      <trkpt lat="42.4661676026880741119384765625" lon="2.8628787584602832794189453125">
        <ele>267</ele>
        <time>2022-07-28T08:26:40.000Z</time>
      </trkpt>
      <trkpt lat="42.46596735902130603790283203125" lon="2.86303424276411533355712890625">
        <ele>267.600006103515625</ele>
        <time>2022-07-28T08:26:46.000Z</time>
      </trkpt>
      <trkpt lat="42.46586493216454982757568359375" lon="2.86308269016444683074951171875">
        <ele>268.20001220703125</ele>
        <time>2022-07-28T08:26:49.000Z</time>
      </trkpt>
      <trkpt lat="42.465755045413970947265625" lon="2.86312527023255825042724609375">
        <ele>269</ele>
        <time>2022-07-28T08:26:53.000Z</time>
      </trkpt>
      <trkpt lat="42.4657310731709003448486328125" lon="2.8631315566599369049072265625">
        <ele>269.20001220703125</ele>
        <time>2022-07-28T08:26:54.000Z</time>
      </trkpt>
      <trkpt lat="42.46557533740997314453125" lon="2.8631375916302204132080078125">
        <ele>270</ele>
        <time>2022-07-28T08:27:00.000Z</time>
      </trkpt>
      <trkpt lat="42.4655096232891082763671875" lon="2.86313499324023723602294921875">
        <ele>270.399993896484375</ele>
        <time>2022-07-28T08:27:02.000Z</time>
      </trkpt>
      <trkpt lat="42.46542069129645824432373046875" lon="2.86313281394541263580322265625">
        <ele>271.399993896484375</ele>
        <time>2022-07-28T08:27:05.000Z</time>
      </trkpt>
      <trkpt lat="42.465404011309146881103515625" lon="2.8631295450031757354736328125">
        <ele>271.600006103515625</ele>
        <time>2022-07-28T08:27:06.000Z</time>
      </trkpt>
      <trkpt lat="42.46533871628344058990478515625" lon="2.86313801072537899017333984375">
        <ele>272.79998779296875</ele>
        <time>2022-07-28T08:27:09.000Z</time>
      </trkpt>
      <trkpt lat="42.46531222946941852569580078125" lon="2.8631339035928249359130859375">
        <ele>273</ele>
        <time>2022-07-28T08:27:10.000Z</time>
      </trkpt>
      <trkpt lat="42.46528892777860164642333984375" lon="2.8631325624883174896240234375">
        <ele>273.20001220703125</ele>
        <time>2022-07-28T08:27:11.000Z</time>
      </trkpt>
      <trkpt lat="42.46524483896791934967041015625" lon="2.8631355799734592437744140625">
        <ele>273.79998779296875</ele>
        <time>2022-07-28T08:27:13.000Z</time>
      </trkpt>
      <trkpt lat="42.46517409570515155792236328125" lon="2.86315678618848323822021484375">
        <ele>274.79998779296875</ele>
        <time>2022-07-28T08:27:16.000Z</time>
      </trkpt>
      <trkpt lat="42.46515783481299877166748046875" lon="2.86316080950200557708740234375">
        <ele>275</ele>
        <time>2022-07-28T08:27:17.000Z</time>
      </trkpt>
      <trkpt lat="42.465072087943553924560546875" lon="2.863156534731388092041015625">
        <ele>275.20001220703125</ele>
        <time>2022-07-28T08:27:22.000Z</time>
      </trkpt>
      <trkpt lat="42.46491484344005584716796875" lon="2.863132394850254058837890625">
        <ele>275.20001220703125</ele>
        <time>2022-07-28T08:27:27.000Z</time>
      </trkpt>
      <trkpt lat="42.46483412571251392364501953125" lon="2.86312476731836795806884765625">
        <ele>275.20001220703125</ele>
        <time>2022-07-28T08:27:29.000Z</time>
      </trkpt>
      <trkpt lat="42.46470697224140167236328125" lon="2.863096185028553009033203125">
        <ele>275.20001220703125</ele>
        <time>2022-07-28T08:27:32.000Z</time>
      </trkpt>
      <trkpt lat="42.4644794873893260955810546875" lon="2.86306760273873805999755859375">
        <ele>274.600006103515625</ele>
        <time>2022-07-28T08:27:38.000Z</time>
      </trkpt>
      <trkpt lat="42.4643884599208831787109375" lon="2.86306106485426425933837890625">
        <ele>273.79998779296875</ele>
        <time>2022-07-28T08:27:41.000Z</time>
      </trkpt>
      <trkpt lat="42.464304305613040924072265625" lon="2.86307145841419696807861328125">
        <ele>273.399993896484375</ele>
        <time>2022-07-28T08:27:44.000Z</time>
      </trkpt>
      <trkpt lat="42.46422342024743556976318359375" lon="2.86308310925960540771484375">
        <ele>272.600006103515625</ele>
        <time>2022-07-28T08:27:47.000Z</time>
      </trkpt>
      <trkpt lat="42.464138008654117584228515625" lon="2.8631084226071834564208984375">
        <ele>271.79998779296875</ele>
        <time>2022-07-28T08:27:50.000Z</time>
      </trkpt>
      <trkpt lat="42.46410942636430263519287109375" lon="2.86311873234808444976806640625">
        <ele>271.600006103515625</ele>
        <time>2022-07-28T08:27:51.000Z</time>
      </trkpt>
      <trkpt lat="42.46404153294861316680908203125" lon="2.86316164769232273101806640625">
        <ele>271</ele>
        <time>2022-07-28T08:27:54.000Z</time>
      </trkpt>
      <trkpt lat="42.463878504931926727294921875" lon="2.86321160383522510528564453125">
        <ele>270.600006103515625</ele>
        <time>2022-07-28T08:27:58.000Z</time>
      </trkpt>
      <trkpt lat="42.46382980607450008392333984375" lon="2.86322618834674358367919921875">
        <ele>270.399993896484375</ele>
        <time>2022-07-28T08:27:59.000Z</time>
      </trkpt>
      <trkpt lat="42.4635316617786884307861328125" lon="2.8633105941116809844970703125">
        <ele>269</ele>
        <time>2022-07-28T08:28:05.000Z</time>
      </trkpt>
      <trkpt lat="42.463490255177021026611328125" lon="2.86332073621451854705810546875">
        <ele>268.79998779296875</ele>
        <time>2022-07-28T08:28:06.000Z</time>
      </trkpt>
      <trkpt lat="42.46339805424213409423828125" lon="2.86334789358079433441162109375">
        <ele>268.20001220703125</ele>
        <time>2022-07-28T08:28:08.000Z</time>
      </trkpt>
      <trkpt lat="42.46335270814597606658935546875" lon="2.86335594020783901214599609375">
        <ele>268</ele>
        <time>2022-07-28T08:28:09.000Z</time>
      </trkpt>
      <trkpt lat="42.46331130154430866241455078125" lon="2.86335946060717105865478515625">
        <ele>267.600006103515625</ele>
        <time>2022-07-28T08:28:10.000Z</time>
      </trkpt>
      <trkpt lat="42.46325346641242504119873046875" lon="2.86336876451969146728515625">
        <ele>266.600006103515625</ele>
        <time>2022-07-28T08:28:12.000Z</time>
      </trkpt>
      <trkpt lat="42.46321423910558223724365234375" lon="2.86338309757411479949951171875">
        <ele>266</ele>
        <time>2022-07-28T08:28:14.000Z</time>
      </trkpt>
      <trkpt lat="42.4631745927035808563232421875" lon="2.86339432932436466217041015625">
        <ele>265.399993896484375</ele>
        <time>2022-07-28T08:28:16.000Z</time>
      </trkpt>
      <trkpt lat="42.4630673043429851531982421875" lon="2.86343137733638286590576171875">
        <ele>264.600006103515625</ele>
        <time>2022-07-28T08:28:20.000Z</time>
      </trkpt>
      <trkpt lat="42.4629650451242923736572265625" lon="2.8634678386151790618896484375">
        <ele>264.399993896484375</ele>
        <time>2022-07-28T08:28:23.000Z</time>
      </trkpt>
      <trkpt lat="42.46289606206119060516357421875" lon="2.86348653025925159454345703125">
        <ele>264.20001220703125</ele>
        <time>2022-07-28T08:28:25.000Z</time>
      </trkpt>
      <trkpt lat="42.4627447687089443206787109375" lon="2.86352693103253841400146484375">
        <ele>263.20001220703125</ele>
        <time>2022-07-28T08:28:29.000Z</time>
      </trkpt>
      <trkpt lat="42.46266220696270465850830078125" lon="2.86354822106659412384033203125">
        <ele>262.600006103515625</ele>
        <time>2022-07-28T08:28:31.000Z</time>
      </trkpt>
      <trkpt lat="42.46256715618073940277099609375" lon="2.86357386969029903411865234375">
        <ele>262</ele>
        <time>2022-07-28T08:28:33.000Z</time>
      </trkpt>
      <trkpt lat="42.46242013759911060333251953125" lon="2.863613851368427276611328125">
        <ele>260.79998779296875</ele>
        <time>2022-07-28T08:28:36.000Z</time>
      </trkpt>
      <trkpt lat="42.46237370185554027557373046875" lon="2.86362449638545513153076171875">
        <ele>260.399993896484375</ele>
        <time>2022-07-28T08:28:37.000Z</time>
      </trkpt>
      <trkpt lat="42.4622260965406894683837890625" lon="2.86365970037877559661865234375">
        <ele>259.600006103515625</ele>
        <time>2022-07-28T08:28:40.000Z</time>
      </trkpt>
      <trkpt lat="42.462068684399127960205078125" lon="2.86370429210364818572998046875">
        <ele>258.600006103515625</ele>
        <time>2022-07-28T08:28:43.000Z</time>
      </trkpt>
      <trkpt lat="42.46201277710497379302978515625" lon="2.8637223131954669952392578125">
        <ele>258.20001220703125</ele>
        <time>2022-07-28T08:28:44.000Z</time>
      </trkpt>
      <trkpt lat="42.46180373243987560272216796875" lon="2.86379314027726650238037109375">
        <ele>256.600006103515625</ele>
        <time>2022-07-28T08:28:48.000Z</time>
      </trkpt>
      <trkpt lat="42.4617530219256877899169921875" lon="2.86380873061716556549072265625">
        <ele>256.20001220703125</ele>
        <time>2022-07-28T08:28:49.000Z</time>
      </trkpt>
      <trkpt lat="42.46164313517510890960693359375" lon="2.8638388216495513916015625">
        <ele>255.399993896484375</ele>
        <time>2022-07-28T08:28:51.000Z</time>
      </trkpt>
      <trkpt lat="42.46146543882787227630615234375" lon="2.86388802342116832733154296875">
        <ele>254.399993896484375</ele>
        <time>2022-07-28T08:28:54.000Z</time>
      </trkpt>
      <trkpt lat="42.4614160694181919097900390625" lon="2.8639060445129871368408203125">
        <ele>254</ele>
        <time>2022-07-28T08:28:55.000Z</time>
      </trkpt>
      <trkpt lat="42.46132797561585903167724609375" lon="2.863942421972751617431640625">
        <ele>253.399993896484375</ele>
        <time>2022-07-28T08:28:57.000Z</time>
      </trkpt>
      <trkpt lat="42.4612824618816375732421875" lon="2.86396077834069728851318359375">
        <ele>253.1999969482421875</ele>
        <time>2022-07-28T08:28:58.000Z</time>
      </trkpt>
      <trkpt lat="42.46123610995709896087646484375" lon="2.8639811463654041290283203125">
        <ele>253</ele>
        <time>2022-07-28T08:28:59.000Z</time>
      </trkpt>
      <trkpt lat="42.46118380688130855560302734375" lon="2.8640009276568889617919921875">
        <ele>252.600006103515625</ele>
        <time>2022-07-28T08:29:00.000Z</time>
      </trkpt>
      <trkpt lat="42.4611280672252178192138671875" lon="2.8640136681497097015380859375">
        <ele>252.1999969482421875</ele>
        <time>2022-07-28T08:29:01.000Z</time>
      </trkpt>
      <trkpt lat="42.461003176867961883544921875" lon="2.86403588019311428070068359375">
        <ele>251.600006103515625</ele>
        <time>2022-07-28T08:29:03.000Z</time>
      </trkpt>
      <trkpt lat="42.4608571641147136688232421875" lon="2.86405381746590137481689453125">
        <ele>251.1999969482421875</ele>
        <time>2022-07-28T08:29:05.000Z</time>
      </trkpt>
      <trkpt lat="42.46071341447532176971435546875" lon="2.86404560320079326629638671875">
        <ele>250.399993896484375</ele>
        <time>2022-07-28T08:29:07.000Z</time>
      </trkpt>
      <trkpt lat="42.4606536515057086944580078125" lon="2.86404074169695377349853515625">
        <ele>249.8000030517578125</ele>
        <time>2022-07-28T08:29:08.000Z</time>
      </trkpt>
      <trkpt lat="42.46059858240187168121337890625" lon="2.86404426209628582000732421875">
        <ele>248.600006103515625</ele>
        <time>2022-07-28T08:29:09.000Z</time>
      </trkpt>
      <trkpt lat="42.4605024419724941253662109375" lon="2.86405297927558422088623046875">
        <ele>247.600006103515625</ele>
        <time>2022-07-28T08:29:11.000Z</time>
      </trkpt>
      <trkpt lat="42.46041937731206417083740234375" lon="2.86405633203685283660888671875">
        <ele>246.399993896484375</ele>
        <time>2022-07-28T08:29:13.000Z</time>
      </trkpt>
      <trkpt lat="42.46035316027700901031494140625" lon="2.86406002007424831390380859375">
        <ele>245.1999969482421875</ele>
        <time>2022-07-28T08:29:15.000Z</time>
      </trkpt>
      <trkpt lat="42.46032013557851314544677734375" lon="2.8640549071133136749267578125">
        <ele>245</ele>
        <time>2022-07-28T08:29:16.000Z</time>
      </trkpt>
      <trkpt lat="42.46025073342025279998779296875" lon="2.86405633203685283660888671875">
        <ele>244.600006103515625</ele>
        <time>2022-07-28T08:29:18.000Z</time>
      </trkpt>
      <trkpt lat="42.46021024882793426513671875" lon="2.864110060036182403564453125">
        <ele>244.399993896484375</ele>
        <time>2022-07-28T08:29:20.000Z</time>
      </trkpt>
      <trkpt lat="42.45995602570474147796630859375" lon="2.8640185296535491943359375">
        <ele>244.399993896484375</ele>
        <time>2022-07-28T08:38:56.000Z</time>
      </trkpt>
      <trkpt lat="42.45991109870374202728271484375" lon="2.8640200383961200714111328125">
        <ele>244.399993896484375</ele>
        <time>2022-07-28T08:38:57.000Z</time>
      </trkpt>
      <trkpt lat="42.45986365713179111480712890625" lon="2.8640193678438663482666015625">
        <ele>244.399993896484375</ele>
        <time>2022-07-28T08:38:58.000Z</time>
      </trkpt>
      <trkpt lat="42.459532655775547027587890625" lon="2.86402582190930843353271484375">
        <ele>243.1999969482421875</ele>
        <time>2022-07-28T08:39:04.000Z</time>
      </trkpt>
      <trkpt lat="42.45928513817489147186279296875" lon="2.8640292584896087646484375">
        <ele>242</ele>
        <time>2022-07-28T08:39:08.000Z</time>
      </trkpt>
      <trkpt lat="42.45916544459760189056396484375" lon="2.8640381433069705963134765625">
        <ele>241</ele>
        <time>2022-07-28T08:39:10.000Z</time>
      </trkpt>
      <trkpt lat="42.45911397971212863922119140625" lon="2.86404828540980815887451171875">
        <ele>240.8000030517578125</ele>
        <time>2022-07-28T08:39:11.000Z</time>
      </trkpt>
      <trkpt lat="42.45905513875186443328857421875" lon="2.864056415855884552001953125">
        <ele>240.399993896484375</ele>
        <time>2022-07-28T08:39:12.000Z</time>
      </trkpt>
      <trkpt lat="42.45899981819093227386474609375" lon="2.864065133035182952880859375">
        <ele>239.600006103515625</ele>
        <time>2022-07-28T08:39:13.000Z</time>
      </trkpt>
      <trkpt lat="42.45894013904035091400146484375" lon="2.86408717744052410125732421875">
        <ele>239.399993896484375</ele>
        <time>2022-07-28T08:39:14.000Z</time>
      </trkpt>
      <trkpt lat="42.45880686677992343902587890625" lon="2.86414392292499542236328125">
        <ele>238.600006103515625</ele>
        <time>2022-07-28T08:39:16.000Z</time>
      </trkpt>
      <trkpt lat="42.4586607702076435089111328125" lon="2.86422497592866420745849609375">
        <ele>238.1999969482421875</ele>
        <time>2022-07-28T08:39:18.000Z</time>
      </trkpt>
      <trkpt lat="42.4585833214223384857177734375" lon="2.8642725013196468353271484375">
        <ele>237.600006103515625</ele>
        <time>2022-07-28T08:39:19.000Z</time>
      </trkpt>
      <trkpt lat="42.45832893066108226776123046875" lon="2.86441977135837078094482421875">
        <ele>236.1999969482421875</ele>
        <time>2022-07-28T08:39:22.000Z</time>
      </trkpt>
      <trkpt lat="42.45823857374489307403564453125" lon="2.86447023041546344757080078125">
        <ele>235.8000030517578125</ele>
        <time>2022-07-28T08:39:23.000Z</time>
      </trkpt>
      <trkpt lat="42.4581451155245304107666015625" lon="2.8645169176161289215087890625">
        <ele>235</ele>
        <time>2022-07-28T08:39:24.000Z</time>
      </trkpt>
      <trkpt lat="42.45804746635258197784423828125" lon="2.86455698311328887939453125">
        <ele>234.1999969482421875</ele>
        <time>2022-07-28T08:39:25.000Z</time>
      </trkpt>
      <trkpt lat="42.4579462967813014984130859375" lon="2.8645871579647064208984375">
        <ele>233.1999969482421875</ele>
        <time>2022-07-28T08:39:26.000Z</time>
      </trkpt>
      <trkpt lat="42.45784227736294269561767578125" lon="2.864612974226474761962890625">
        <ele>232.399993896484375</ele>
        <time>2022-07-28T08:39:27.000Z</time>
      </trkpt>
      <trkpt lat="42.45773633010685443878173828125" lon="2.86463703028857707977294921875">
        <ele>231.600006103515625</ele>
        <time>2022-07-28T08:39:28.000Z</time>
      </trkpt>
      <trkpt lat="42.4575174786150455474853515625" lon="2.86469033919274806976318359375">
        <ele>230</ele>
        <time>2022-07-28T08:39:30.000Z</time>
      </trkpt>
      <trkpt lat="42.45729259215295314788818359375" lon="2.8647519461810588836669921875">
        <ele>228.399993896484375</ele>
        <time>2022-07-28T08:39:32.000Z</time>
      </trkpt>
      <trkpt lat="42.45717608369886875152587890625" lon="2.8647817857563495635986328125">
        <ele>227.399993896484375</ele>
        <time>2022-07-28T08:39:33.000Z</time>
      </trkpt>
      <trkpt lat="42.45705588720738887786865234375" lon="2.864810787141323089599609375">
        <ele>226.8000030517578125</ele>
        <time>2022-07-28T08:39:34.000Z</time>
      </trkpt>
      <trkpt lat="42.456806860864162445068359375" lon="2.864871807396411895751953125">
        <ele>225.1999969482421875</ele>
        <time>2022-07-28T08:39:36.000Z</time>
      </trkpt>
      <trkpt lat="42.4565502069890499114990234375" lon="2.86492737941443920135498046875">
        <ele>223.399993896484375</ele>
        <time>2022-07-28T08:39:38.000Z</time>
      </trkpt>
      <trkpt lat="42.45642104186117649078369140625" lon="2.86494045518338680267333984375">
        <ele>222.600006103515625</ele>
        <time>2022-07-28T08:39:39.000Z</time>
      </trkpt>
      <trkpt lat="42.45629212819039821624755859375" lon="2.8649457357823848724365234375">
        <ele>221.8000030517578125</ele>
        <time>2022-07-28T08:39:40.000Z</time>
      </trkpt>
      <trkpt lat="42.4561648070812225341796875" lon="2.86494950763881206512451171875">
        <ele>220.8000030517578125</ele>
        <time>2022-07-28T08:39:41.000Z</time>
      </trkpt>
      <trkpt lat="42.456039078533649444580078125" lon="2.86495218984782695770263671875">
        <ele>218.399993896484375</ele>
        <time>2022-07-28T08:39:42.000Z</time>
      </trkpt>
      <trkpt lat="42.45591594837605953216552734375" lon="2.8649527765810489654541015625">
        <ele>217.1999969482421875</ele>
        <time>2022-07-28T08:39:43.000Z</time>
      </trkpt>
      <trkpt lat="42.45579575188457965850830078125" lon="2.86495353095233440399169921875">
        <ele>215.8000030517578125</ele>
        <time>2022-07-28T08:39:44.000Z</time>
      </trkpt>
      <trkpt lat="42.45567907579243183135986328125" lon="2.864954955875873565673828125">
        <ele>214</ele>
        <time>2022-07-28T08:39:45.000Z</time>
      </trkpt>
      <trkpt lat="42.45556508190929889678955078125" lon="2.8649573028087615966796875">
        <ele>212.8000030517578125</ele>
        <time>2022-07-28T08:39:46.000Z</time>
      </trkpt>
      <trkpt lat="42.45545511133968830108642578125" lon="2.86495797336101531982421875">
        <ele>211.8000030517578125</ele>
        <time>2022-07-28T08:39:47.000Z</time>
      </trkpt>
      <trkpt lat="42.45524036698043346405029296875" lon="2.864959649741649627685546875">
        <ele>210.1999969482421875</ele>
        <time>2022-07-28T08:39:49.000Z</time>
      </trkpt>
      <trkpt lat="42.4549278058111667633056640625" lon="2.8649624995887279510498046875">
        <ele>209.1999969482421875</ele>
        <time>2022-07-28T08:39:52.000Z</time>
      </trkpt>
      <trkpt lat="42.454312406480312347412109375" lon="2.86496861837804317474365234375">
        <ele>209</ele>
        <time>2022-07-28T08:39:58.000Z</time>
      </trkpt>
      <trkpt lat="42.453900687396526336669921875" lon="2.86497616209089756011962890625">
        <ele>209.600006103515625</ele>
        <time>2022-07-28T08:40:02.000Z</time>
      </trkpt>
      <trkpt lat="42.4532836116850376129150390625" lon="2.8650520183145999908447265625">
        <ele>210</ele>
        <time>2022-07-28T08:40:08.000Z</time>
      </trkpt>
      <trkpt lat="42.45288941077888011932373046875" lon="2.8652545250952243804931640625">
        <ele>210</ele>
        <time>2022-07-28T08:40:12.000Z</time>
      </trkpt>
      <trkpt lat="42.45261565782129764556884765625" lon="2.8654825128614902496337890625">
        <ele>209.399993896484375</ele>
        <time>2022-07-28T08:40:15.000Z</time>
      </trkpt>
      <trkpt lat="42.45253267697989940643310546875" lon="2.8655790723860263824462890625">
        <ele>208.8000030517578125</ele>
        <time>2022-07-28T08:40:16.000Z</time>
      </trkpt>
      <trkpt lat="42.45245221070945262908935546875" lon="2.86568225361406803131103515625">
        <ele>207.600006103515625</ele>
        <time>2022-07-28T08:40:17.000Z</time>
      </trkpt>
      <trkpt lat="42.45228691957890987396240234375" lon="2.8658942319452762603759765625">
        <ele>206.600006103515625</ele>
        <time>2022-07-28T08:40:19.000Z</time>
      </trkpt>
      <trkpt lat="42.4521024338901042938232421875" lon="2.86609229631721973419189453125">
        <ele>205.8000030517578125</ele>
        <time>2022-07-28T08:40:21.000Z</time>
      </trkpt>
      <trkpt lat="42.45200277306139469146728515625" lon="2.8661808930337429046630859375">
        <ele>205.399993896484375</ele>
        <time>2022-07-28T08:40:22.000Z</time>
      </trkpt>
      <trkpt lat="42.451791465282440185546875" lon="2.8663257323205471038818359375">
        <ele>204</ele>
        <time>2022-07-28T08:40:24.000Z</time>
      </trkpt>
      <trkpt lat="42.45167906396090984344482421875" lon="2.86637811921536922454833984375">
        <ele>203</ele>
        <time>2022-07-28T08:40:25.000Z</time>
      </trkpt>
      <trkpt lat="42.45144613087177276611328125" lon="2.86644316278398036956787109375">
        <ele>201.399993896484375</ele>
        <time>2022-07-28T08:40:27.000Z</time>
      </trkpt>
      <trkpt lat="42.45121051557362079620361328125" lon="2.86647736094892024993896484375">
        <ele>199.600006103515625</ele>
        <time>2022-07-28T08:40:29.000Z</time>
      </trkpt>
      <trkpt lat="42.4510919116437435150146484375" lon="2.866483144462108612060546875">
        <ele>198.1999969482421875</ele>
        <time>2022-07-28T08:40:30.000Z</time>
      </trkpt>
      <trkpt lat="42.45097297243773937225341796875" lon="2.86647954024374485015869140625">
        <ele>196.8000030517578125</ele>
        <time>2022-07-28T08:40:31.000Z</time>
      </trkpt>
      <trkpt lat="42.4507351778447628021240234375" lon="2.8664390556514263153076171875">
        <ele>195</ele>
        <time>2022-07-28T08:40:33.000Z</time>
      </trkpt>
      <trkpt lat="42.45061741210520267486572265625" lon="2.8663978166878223419189453125">
        <ele>194.399993896484375</ele>
        <time>2022-07-28T08:40:34.000Z</time>
      </trkpt>
      <trkpt lat="42.4505018256604671478271484375" lon="2.8663421608507633209228515625">
        <ele>193.399993896484375</ele>
        <time>2022-07-28T08:40:35.000Z</time>
      </trkpt>
      <trkpt lat="42.45027140714228153228759765625" lon="2.86621685139834880828857421875">
        <ele>191.600006103515625</ele>
        <time>2022-07-28T08:40:37.000Z</time>
      </trkpt>
      <trkpt lat="42.4501558206975460052490234375" lon="2.86615381948649883270263671875">
        <ele>189.8000030517578125</ele>
        <time>2022-07-28T08:40:38.000Z</time>
      </trkpt>
      <trkpt lat="42.44955425150692462921142578125" lon="2.86590454168617725372314453125">
        <ele>188.600006103515625</ele>
        <time>2022-07-28T08:40:43.000Z</time>
      </trkpt>
      <trkpt lat="42.4493105895817279815673828125" lon="2.86584184505045413970947265625">
        <ele>187.399993896484375</ele>
        <time>2022-07-28T08:40:45.000Z</time>
      </trkpt>
      <trkpt lat="42.44907497428357601165771484375" lon="2.86579121835529804229736328125">
        <ele>186.1999969482421875</ele>
        <time>2022-07-28T08:40:47.000Z</time>
      </trkpt>
      <trkpt lat="42.4488472379744052886962890625" lon="2.86575634963810443878173828125">
        <ele>185.600006103515625</ele>
        <time>2022-07-28T08:40:49.000Z</time>
      </trkpt>
      <trkpt lat="42.4486215971410274505615234375" lon="2.86573958583176136016845703125">
        <ele>185.1999969482421875</ele>
        <time>2022-07-28T08:40:51.000Z</time>
      </trkpt>
      <trkpt lat="42.4482913501560688018798828125" lon="2.865746207535266876220703125">
        <ele>184.399993896484375</ele>
        <time>2022-07-28T08:40:54.000Z</time>
      </trkpt>
      <trkpt lat="42.4481820501387119293212890625" lon="2.865752913057804107666015625">
        <ele>184.1999969482421875</ele>
        <time>2022-07-28T08:40:55.000Z</time>
      </trkpt>
      <trkpt lat="42.44765290059149265289306640625" lon="2.86585173569619655609130859375">
        <ele>183.8000030517578125</ele>
        <time>2022-07-28T08:41:00.000Z</time>
      </trkpt>
      <trkpt lat="42.44704336859285831451416015625" lon="2.8660736046731472015380859375">
        <ele>183.399993896484375</ele>
        <time>2022-07-28T08:41:06.000Z</time>
      </trkpt>
      <trkpt lat="42.44684002362191677093505859375" lon="2.8661745227873325347900390625">
        <ele>183</ele>
        <time>2022-07-28T08:41:08.000Z</time>
      </trkpt>
      <trkpt lat="42.446332834661006927490234375" lon="2.8664289973676204681396484375">
        <ele>182.1999969482421875</ele>
        <time>2022-07-28T08:41:13.000Z</time>
      </trkpt>
      <trkpt lat="42.44623116217553615570068359375" lon="2.86647685803472995758056640625">
        <ele>181.8000030517578125</ele>
        <time>2022-07-28T08:41:14.000Z</time>
      </trkpt>
      <trkpt lat="42.4460305832326412200927734375" lon="2.86657894961535930633544921875">
        <ele>180</ele>
        <time>2022-07-28T08:41:16.000Z</time>
      </trkpt>
      <trkpt lat="42.44583101011812686920166015625" lon="2.86667701788246631622314453125">
        <ele>178.600006103515625</ele>
        <time>2022-07-28T08:41:18.000Z</time>
      </trkpt>
      <trkpt lat="42.4455293454229831695556640625" lon="2.8667944483458995819091796875">
        <ele>177.600006103515625</ele>
        <time>2022-07-28T08:41:21.000Z</time>
      </trkpt>
      <trkpt lat="42.4454270862042903900146484375" lon="2.86682068370282649993896484375">
        <ele>177.399993896484375</ele>
        <time>2022-07-28T08:41:22.000Z</time>
      </trkpt>
      <trkpt lat="42.4450175464153289794921875" lon="2.86687013693153858184814453125">
        <ele>177.1999969482421875</ele>
        <time>2022-07-28T08:41:26.000Z</time>
      </trkpt>
      <trkpt lat="42.444426454603672027587890625" lon="2.866790927946567535400390625">
        <ele>176.600006103515625</ele>
        <time>2022-07-28T08:41:32.000Z</time>
      </trkpt>
      <trkpt lat="42.44433266110718250274658203125" lon="2.866769134998321533203125">
        <ele>176.399993896484375</ele>
        <time>2022-07-28T08:41:33.000Z</time>
      </trkpt>
      <trkpt lat="42.44388171471655368804931640625" lon="2.86665120162069797515869140625">
        <ele>175.600006103515625</ele>
        <time>2022-07-28T08:41:38.000Z</time>
      </trkpt>
      <trkpt lat="42.443536631762981414794921875" lon="2.86655682139098644256591796875">
        <ele>175.1999969482421875</ele>
        <time>2022-07-28T08:41:42.000Z</time>
      </trkpt>
      <trkpt lat="42.4431931413710117340087890625" lon="2.86645942367613315582275390625">
        <ele>174.8000030517578125</ele>
        <time>2022-07-28T08:41:46.000Z</time>
      </trkpt>
      <trkpt lat="42.4426597170531749725341796875" lon="2.8663049452006816864013671875">
        <ele>174.399993896484375</ele>
        <time>2022-07-28T08:41:52.000Z</time>
      </trkpt>
      <trkpt lat="42.44256793521344661712646484375" lon="2.86628155969083309173583984375">
        <ele>174.1999969482421875</ele>
        <time>2022-07-28T08:41:53.000Z</time>
      </trkpt>
      <trkpt lat="42.44247489608824253082275390625" lon="2.866263203322887420654296875">
        <ele>173.8000030517578125</ele>
        <time>2022-07-28T08:41:54.000Z</time>
      </trkpt>
      <trkpt lat="42.44219494052231311798095703125" lon="2.86621232517063617706298828125">
        <ele>172.1999969482421875</ele>
        <time>2022-07-28T08:41:57.000Z</time>
      </trkpt>
      <trkpt lat="42.44200819171965122222900390625" lon="2.86616119556128978729248046875">
        <ele>171.1999969482421875</ele>
        <time>2022-07-28T08:41:59.000Z</time>
      </trkpt>
      <trkpt lat="42.441911213099956512451171875" lon="2.8661379776895046234130859375">
        <ele>170.1999969482421875</ele>
        <time>2022-07-28T08:42:00.000Z</time>
      </trkpt>
      <trkpt lat="42.4418111331760883331298828125" lon="2.86611593328416347503662109375">
        <ele>169.1999969482421875</ele>
        <time>2022-07-28T08:42:01.000Z</time>
      </trkpt>
      <trkpt lat="42.441604435443878173828125" lon="2.86607109010219573974609375">
        <ele>167</ele>
        <time>2022-07-28T08:42:03.000Z</time>
      </trkpt>
      <trkpt lat="42.44139346294105052947998046875" lon="2.86602507345378398895263671875">
        <ele>166.399993896484375</ele>
        <time>2022-07-28T08:42:05.000Z</time>
      </trkpt>
      <trkpt lat="42.4412864260375499725341796875" lon="2.86600311286747455596923828125">
        <ele>166</ele>
        <time>2022-07-28T08:42:06.000Z</time>
      </trkpt>
      <trkpt lat="42.44083925150334835052490234375" lon="2.86592013202607631683349609375">
        <ele>164.399993896484375</ele>
        <time>2022-07-28T08:42:10.000Z</time>
      </trkpt>
      <trkpt lat="42.44072341360151767730712890625" lon="2.8658979199826717376708984375">
        <ele>163</ele>
        <time>2022-07-28T08:42:11.000Z</time>
      </trkpt>
      <trkpt lat="42.44060707278549671173095703125" lon="2.86587486974895000457763671875">
        <ele>161.8000030517578125</ele>
        <time>2022-07-28T08:42:12.000Z</time>
      </trkpt>
      <trkpt lat="42.44048922322690486907958984375" lon="2.86585089750587940216064453125">
        <ele>161.399993896484375</ele>
        <time>2022-07-28T08:42:13.000Z</time>
      </trkpt>
      <trkpt lat="42.44024924933910369873046875" lon="2.8658000193536281585693359375">
        <ele>160.8000030517578125</ele>
        <time>2022-07-28T08:42:15.000Z</time>
      </trkpt>
      <trkpt lat="42.43987885303795337677001953125" lon="2.8657141886651515960693359375">
        <ele>159.1999969482421875</ele>
        <time>2022-07-28T08:42:18.000Z</time>
      </trkpt>
      <trkpt lat="42.439497895538806915283203125" lon="2.86562240682542324066162109375">
        <ele>158</ele>
        <time>2022-07-28T08:42:21.000Z</time>
      </trkpt>
      <trkpt lat="42.4389847554266452789306640625" lon="2.8654952533543109893798828125">
        <ele>156.600006103515625</ele>
        <time>2022-07-28T08:42:25.000Z</time>
      </trkpt>
      <trkpt lat="42.43872986175119876861572265625" lon="2.8654345683753490447998046875">
        <ele>155.1999969482421875</ele>
        <time>2022-07-28T08:42:27.000Z</time>
      </trkpt>
      <trkpt lat="42.43822954595088958740234375" lon="2.86531864665448665618896484375">
        <ele>153.8000030517578125</ele>
        <time>2022-07-28T08:42:31.000Z</time>
      </trkpt>
      <trkpt lat="42.4381080083549022674560546875" lon="2.86528914235532283782958984375">
        <ele>153.399993896484375</ele>
        <time>2022-07-28T08:42:32.000Z</time>
      </trkpt>
      <trkpt lat="42.43787289597094058990478515625" lon="2.86522845737636089324951171875">
        <ele>152.600006103515625</ele>
        <time>2022-07-28T08:42:34.000Z</time>
      </trkpt>
      <trkpt lat="42.43743804283440113067626953125" lon="2.8651328198611736297607421875">
        <ele>152.399993896484375</ele>
        <time>2022-07-28T08:42:38.000Z</time>
      </trkpt>
      <trkpt lat="42.43695876561105251312255859375" lon="2.86501639522612094879150390625">
        <ele>152.399993896484375</ele>
        <time>2022-07-28T08:42:43.000Z</time>
      </trkpt>
      <trkpt lat="42.436694987118244171142578125" lon="2.865004576742649078369140625">
        <ele>153.600006103515625</ele>
        <time>2022-07-28T08:42:46.000Z</time>
      </trkpt>
      <trkpt lat="42.43652223609387874603271484375" lon="2.8650136291980743408203125">
        <ele>154.8000030517578125</ele>
        <time>2022-07-28T08:42:48.000Z</time>
      </trkpt>
      <trkpt lat="42.436348982155323028564453125" lon="2.8650243580341339111328125">
        <ele>156</ele>
        <time>2022-07-28T08:42:50.000Z</time>
      </trkpt>
      <trkpt lat="42.4360038153827190399169921875" lon="2.865048162639141082763671875">
        <ele>157</ele>
        <time>2022-07-28T08:42:54.000Z</time>
      </trkpt>
      <trkpt lat="42.43583927862346172332763671875" lon="2.86506551317870616912841796875">
        <ele>157</ele>
        <time>2022-07-28T08:42:56.000Z</time>
      </trkpt>
      <trkpt lat="42.43529328145086765289306640625" lon="2.8650925867259502410888671875">
        <ele>156.8000030517578125</ele>
        <time>2022-07-28T08:43:03.000Z</time>
      </trkpt>
      <trkpt lat="42.4347428418695926666259765625" lon="2.865167520940303802490234375">
        <ele>156.399993896484375</ele>
        <time>2022-07-28T08:43:10.000Z</time>
      </trkpt>
      <trkpt lat="42.43450932204723358154296875" lon="2.86524136550724506378173828125">
        <ele>156</ele>
        <time>2022-07-28T08:43:13.000Z</time>
      </trkpt>
      <trkpt lat="42.4343847669661045074462890625" lon="2.86529232747852802276611328125">
        <ele>155.8000030517578125</ele>
        <time>2022-07-28T08:43:15.000Z</time>
      </trkpt>
      <trkpt lat="42.43415619246661663055419921875" lon="2.86539911292493343353271484375">
        <ele>154.8000030517578125</ele>
        <time>2022-07-28T08:43:19.000Z</time>
      </trkpt>
      <trkpt lat="42.43409969843924045562744140625" lon="2.86543414928019046783447265625">
        <ele>154.600006103515625</ele>
        <time>2022-07-28T08:43:20.000Z</time>
      </trkpt>
      <trkpt lat="42.43404395878314971923828125" lon="2.86547538824379444122314453125">
        <ele>154.399993896484375</ele>
        <time>2022-07-28T08:43:21.000Z</time>
      </trkpt>
      <trkpt lat="42.4338473193347454071044921875" lon="2.86561109125614166259765625">
        <ele>153.600006103515625</ele>
        <time>2022-07-28T08:43:25.000Z</time>
      </trkpt>
      <trkpt lat="42.43381303735077381134033203125" lon="2.86562643013894557952880859375">
        <ele>153.399993896484375</ele>
        <time>2022-07-28T08:43:26.000Z</time>
      </trkpt>
      <trkpt lat="42.43334968574345111846923828125" lon="2.86567135713994503021240234375">
        <ele>151.1999969482421875</ele>
        <time>2022-07-28T08:44:42.000Z</time>
      </trkpt>
      <trkpt lat="42.4332817085087299346923828125" lon="2.865732796490192413330078125">
        <ele>151</ele>
        <time>2022-07-28T08:44:44.000Z</time>
      </trkpt>
      <trkpt lat="42.43324943818151950836181640625" lon="2.865779399871826171875">
        <ele>150.8000030517578125</ele>
        <time>2022-07-28T08:44:45.000Z</time>
      </trkpt>
      <trkpt lat="42.43317936547100543975830078125" lon="2.8658885322511196136474609375">
        <ele>150.399993896484375</ele>
        <time>2022-07-28T08:44:47.000Z</time>
      </trkpt>
      <trkpt lat="42.43313603103160858154296875" lon="2.86594041623175144195556640625">
        <ele>150.1999969482421875</ele>
        <time>2022-07-28T08:44:48.000Z</time>
      </trkpt>
      <trkpt lat="42.433086074888706207275390625" lon="2.86598450504243373870849609375">
        <ele>150</ele>
        <time>2022-07-28T08:44:49.000Z</time>
      </trkpt>
      <trkpt lat="42.4330294132232666015625" lon="2.866017781198024749755859375">
        <ele>150</ele>
        <time>2022-07-28T08:44:50.000Z</time>
      </trkpt>
      <trkpt lat="42.43290091864764690399169921875" lon="2.86605558358132839202880859375">
        <ele>149.8000030517578125</ele>
        <time>2022-07-28T08:44:52.000Z</time>
      </trkpt>
      <trkpt lat="42.43283185176551342010498046875" lon="2.86607067100703716278076171875">
        <ele>149.600006103515625</ele>
        <time>2022-07-28T08:44:53.000Z</time>
      </trkpt>
      <trkpt lat="42.43276043795049190521240234375" lon="2.86608609370887279510498046875">
        <ele>148.1999969482421875</ele>
        <time>2022-07-28T08:44:54.000Z</time>
      </trkpt>
      <trkpt lat="42.43260805495083332061767578125" lon="2.86611325107514858245849609375">
        <ele>147</ele>
        <time>2022-07-28T08:44:56.000Z</time>
      </trkpt>
      <trkpt lat="42.43244309909641742706298828125" lon="2.8661611117422580718994140625">
        <ele>146.399993896484375</ele>
        <time>2022-07-28T08:44:58.000Z</time>
      </trkpt>
      <trkpt lat="42.43235626257956027984619140625" lon="2.86619447171688079833984375">
        <ele>145.8000030517578125</ele>
        <time>2022-07-28T08:44:59.000Z</time>
      </trkpt>
      <trkpt lat="42.4319868721067905426025390625" lon="2.86636051721870899200439453125">
        <ele>145</ele>
        <time>2022-07-28T08:45:03.000Z</time>
      </trkpt>
      <trkpt lat="42.43189156986773014068603515625" lon="2.86640326492488384246826171875">
        <ele>144.8000030517578125</ele>
        <time>2022-07-28T08:45:04.000Z</time>
      </trkpt>
      <trkpt lat="42.43159971199929714202880859375" lon="2.8665366210043430328369140625">
        <ele>143.399993896484375</ele>
        <time>2022-07-28T08:45:07.000Z</time>
      </trkpt>
      <trkpt lat="42.43140324018895626068115234375" lon="2.86662169732153415679931640625">
        <ele>142.1999969482421875</ele>
        <time>2022-07-28T08:45:09.000Z</time>
      </trkpt>
      <trkpt lat="42.43122386746108531951904296875" lon="2.8667029179632663726806640625">
        <ele>141</ele>
        <time>2022-07-28T08:45:11.000Z</time>
      </trkpt>
      <trkpt lat="42.43106000125408172607421875" lon="2.86677408032119274139404296875">
        <ele>139.600006103515625</ele>
        <time>2022-07-28T08:45:13.000Z</time>
      </trkpt>
      <trkpt lat="42.430832684040069580078125" lon="2.86686326377093791961669921875">
        <ele>138.1999969482421875</ele>
        <time>2022-07-28T08:45:16.000Z</time>
      </trkpt>
      <trkpt lat="42.43076034821569919586181640625" lon="2.866876423358917236328125">
        <ele>137.600006103515625</ele>
        <time>2022-07-28T08:45:17.000Z</time>
      </trkpt>
      <trkpt lat="42.43068994022905826568603515625" lon="2.86687918938696384429931640625">
        <ele>137</ele>
        <time>2022-07-28T08:45:18.000Z</time>
      </trkpt>
      <trkpt lat="42.4305663071572780609130859375" lon="2.866865694522857666015625">
        <ele>136.1999969482421875</ele>
        <time>2022-07-28T08:45:20.000Z</time>
      </trkpt>
      <trkpt lat="42.4305136688053607940673828125" lon="2.86686007864773273468017578125">
        <ele>135.8000030517578125</ele>
        <time>2022-07-28T08:45:21.000Z</time>
      </trkpt>
      <trkpt lat="42.430334128439426422119140625" lon="2.86685965955257415771484375">
        <ele>134.8000030517578125</ele>
        <time>2022-07-28T08:45:25.000Z</time>
      </trkpt>
      <trkpt lat="42.43013673461973667144775390625" lon="2.86689394153654575347900390625">
        <ele>134.1999969482421875</ele>
        <time>2022-07-28T08:45:31.000Z</time>
      </trkpt>
      <trkpt lat="42.4300466291606426239013671875" lon="2.86693744361400604248046875">
        <ele>134</ele>
        <time>2022-07-28T08:45:36.000Z</time>
      </trkpt>
      <trkpt lat="42.42992316372692584991455078125" lon="2.86702327430248260498046875">
        <ele>134</ele>
        <time>2022-07-28T08:45:41.000Z</time>
      </trkpt>
      <trkpt lat="42.42972887121140956878662109375" lon="2.8671203367412090301513671875">
        <ele>134.1999969482421875</ele>
        <time>2022-07-28T08:45:46.000Z</time>
      </trkpt>
      <trkpt lat="42.42948143742978572845458984375" lon="2.8672363422811031341552734375">
        <ele>133.8000030517578125</ele>
        <time>2022-07-28T08:45:50.000Z</time>
      </trkpt>
      <trkpt lat="42.42942276410758495330810546875" lon="2.8672755695879459381103515625">
        <ele>133.8000030517578125</ele>
        <time>2022-07-28T08:45:51.000Z</time>
      </trkpt>
      <trkpt lat="42.42926820181310176849365234375" lon="2.86744706332683563232421875">
        <ele>132.1999969482421875</ele>
        <time>2022-07-28T08:45:54.000Z</time>
      </trkpt>
      <trkpt lat="42.42922109551727771759033203125" lon="2.86751219071447849273681640625">
        <ele>131.8000030517578125</ele>
        <time>2022-07-28T08:45:55.000Z</time>
      </trkpt>
      <trkpt lat="42.429124452173709869384765625" lon="2.86763842217624187469482421875">
        <ele>131</ele>
        <time>2022-07-28T08:45:57.000Z</time>
      </trkpt>
      <trkpt lat="42.4289512820541858673095703125" lon="2.8677949123084545135498046875">
        <ele>130.600006103515625</ele>
        <time>2022-07-28T08:46:00.000Z</time>
      </trkpt>
      <trkpt lat="42.42888565175235271453857421875" lon="2.86783036775887012481689453125">
        <ele>130.600006103515625</ele>
        <time>2022-07-28T08:46:01.000Z</time>
      </trkpt>
      <trkpt lat="42.42852522991597652435302734375" lon="2.86797403357923030853271484375">
        <ele>130.1999969482421875</ele>
        <time>2022-07-28T08:46:06.000Z</time>
      </trkpt>
      <trkpt lat="42.4282944761216640472412109375" lon="2.86807897500693798065185546875">
        <ele>130</ele>
        <time>2022-07-28T08:46:09.000Z</time>
      </trkpt>
      <trkpt lat="42.42804863490164279937744140625" lon="2.86819380708038806915283203125">
        <ele>128.1999969482421875</ele>
        <time>2022-07-28T08:46:12.000Z</time>
      </trkpt>
      <trkpt lat="42.4279632233083248138427734375" lon="2.86822984926402568817138671875">
        <ele>127.8000030517578125</ele>
        <time>2022-07-28T08:46:13.000Z</time>
      </trkpt>
      <trkpt lat="42.4277898855507373809814453125" lon="2.86829070188105106353759765625">
        <ele>127.1999969482421875</ele>
        <time>2022-07-28T08:46:15.000Z</time>
      </trkpt>
      <trkpt lat="42.4274383485317230224609375" lon="2.86837971769273281097412109375">
        <ele>125.8000030517578125</ele>
        <time>2022-07-28T08:46:19.000Z</time>
      </trkpt>
      <trkpt lat="42.42735025472939014434814453125" lon="2.86839195527136325836181640625">
        <ele>125.59999847412109375</ele>
        <time>2022-07-28T08:46:20.000Z</time>
      </trkpt>
      <trkpt lat="42.42726241238415241241455078125" lon="2.868399582803249359130859375">
        <ele>124.8000030517578125</ele>
        <time>2022-07-28T08:46:21.000Z</time>
      </trkpt>
      <trkpt lat="42.42682336829602718353271484375" lon="2.8683893568813800811767578125">
        <ele>123.8000030517578125</ele>
        <time>2022-07-28T08:46:26.000Z</time>
      </trkpt>
      <trkpt lat="42.4263354577124118804931640625" lon="2.86836127750575542449951171875">
        <ele>123</ele>
        <time>2022-07-28T08:46:32.000Z</time>
      </trkpt>
      <trkpt lat="42.42621484212577342987060546875" lon="2.8683394007384777069091796875">
        <ele>122.8000030517578125</ele>
        <time>2022-07-28T08:46:34.000Z</time>
      </trkpt>
      <trkpt lat="42.42609615437686443328857421875" lon="2.86827997304499149322509765625">
        <ele>122.59999847412109375</ele>
        <time>2022-07-28T08:46:36.000Z</time>
      </trkpt>
      <trkpt lat="42.4259854294359683990478515625" lon="2.86819833330810070037841796875">
        <ele>122.40000152587890625</ele>
        <time>2022-07-28T08:46:38.000Z</time>
      </trkpt>
      <trkpt lat="42.42586716078221797943115234375" lon="2.86816178821027278900146484375">
        <ele>122</ele>
        <time>2022-07-28T08:46:40.000Z</time>
      </trkpt>
      <trkpt lat="42.425689212977886199951171875" lon="2.8682374767959117889404296875">
        <ele>121.59999847412109375</ele>
        <time>2022-07-28T08:46:43.000Z</time>
      </trkpt>
      <trkpt lat="42.42558267898857593536376953125" lon="2.86835222505033016204833984375">
        <ele>121.1999969482421875</ele>
        <time>2022-07-28T08:46:45.000Z</time>
      </trkpt>
      <trkpt lat="42.42552660405635833740234375" lon="2.8684094734489917755126953125">
        <ele>121.1999969482421875</ele>
        <time>2022-07-28T08:46:46.000Z</time>
      </trkpt>
      <trkpt lat="42.425465248525142669677734375" lon="2.86845817230641841888427734375">
        <ele>121</ele>
        <time>2022-07-28T08:46:47.000Z</time>
      </trkpt>
      <trkpt lat="42.4251177348196506500244140625" lon="2.86864860914647579193115234375">
        <ele>120.40000152587890625</ele>
        <time>2022-07-28T08:46:52.000Z</time>
      </trkpt>
      <trkpt lat="42.424969375133514404296875" lon="2.868736200034618377685546875">
        <ele>118.8000030517578125</ele>
        <time>2022-07-28T08:46:54.000Z</time>
      </trkpt>
      <trkpt lat="42.42449739016592502593994140625" lon="2.8690173290669918060302734375">
        <ele>118.1999969482421875</ele>
        <time>2022-07-28T08:47:00.000Z</time>
      </trkpt>
      <trkpt lat="42.42433511652052402496337890625" lon="2.86911631934344768524169921875">
        <ele>118</ele>
        <time>2022-07-28T08:47:02.000Z</time>
      </trkpt>
      <trkpt lat="42.4239419214427471160888671875" lon="2.86935889162123203277587890625">
        <ele>116.8000030517578125</ele>
        <time>2022-07-28T08:47:07.000Z</time>
      </trkpt>
      <trkpt lat="42.423789538443088531494140625" lon="2.86945662461221218109130859375">
        <ele>116.59999847412109375</ele>
        <time>2022-07-28T08:47:09.000Z</time>
      </trkpt>
      <trkpt lat="42.42328427731990814208984375" lon="2.86977563984692096710205078125">
        <ele>116.40000152587890625</ele>
        <time>2022-07-28T08:47:16.000Z</time>
      </trkpt>
      <trkpt lat="42.42321445606648921966552734375" lon="2.86981939338147640228271484375">
        <ele>116.40000152587890625</ele>
        <time>2022-07-28T08:47:17.000Z</time>
      </trkpt>
      <trkpt lat="42.42266577668488025665283203125" lon="2.87014880217611789703369140625">
        <ele>116.1999969482421875</ele>
        <time>2022-07-28T08:47:25.000Z</time>
      </trkpt>
      <trkpt lat="42.42259805090725421905517578125" lon="2.8701840899884700775146484375">
        <ele>116.1999969482421875</ele>
        <time>2022-07-28T08:47:26.000Z</time>
      </trkpt>
      <trkpt lat="42.42225372232496738433837890625" lon="2.87034116685390472412109375">
        <ele>115.59999847412109375</ele>
        <time>2022-07-28T08:47:31.000Z</time>
      </trkpt>
      <trkpt lat="42.42196354083716869354248046875" lon="2.87044317461550235748291015625">
        <ele>114.59999847412109375</ele>
        <time>2022-07-28T08:47:35.000Z</time>
      </trkpt>
      <trkpt lat="42.42188910953700542449951171875" lon="2.87046446464955806732177734375">
        <ele>114.40000152587890625</ele>
        <time>2022-07-28T08:47:36.000Z</time>
      </trkpt>
      <trkpt lat="42.4215088225901126861572265625" lon="2.87055314518511295318603515625">
        <ele>114</ele>
        <time>2022-07-28T08:47:41.000Z</time>
      </trkpt>
      <trkpt lat="42.42134545929729938507080078125" lon="2.87058114074170589447021484375">
        <ele>113.40000152587890625</ele>
        <time>2022-07-28T08:47:43.000Z</time>
      </trkpt>
      <trkpt lat="42.420860566198825836181640625" lon="2.87066563032567501068115234375">
        <ele>112.40000152587890625</ele>
        <time>2022-07-28T08:47:49.000Z</time>
      </trkpt>
      <trkpt lat="42.42070055566728115081787109375" lon="2.8706960566341876983642578125">
        <ele>112.1999969482421875</ele>
        <time>2022-07-28T08:47:51.000Z</time>
      </trkpt>
      <trkpt lat="42.4201415665447711944580078125" lon="2.870813906192779541015625">
        <ele>111.59999847412109375</ele>
        <time>2022-07-28T08:47:58.000Z</time>
      </trkpt>
      <trkpt lat="42.419983483850955963134765625" lon="2.87084902636706829071044921875">
        <ele>111.40000152587890625</ele>
        <time>2022-07-28T08:48:00.000Z</time>
      </trkpt>
      <trkpt lat="42.41982665844261646270751953125" lon="2.8708828054368495941162109375">
        <ele>111.40000152587890625</ele>
        <time>2022-07-28T08:48:02.000Z</time>
      </trkpt>
      <trkpt lat="42.41928166709840297698974609375" lon="2.8710249625146389007568359375">
        <ele>110.59999847412109375</ele>
        <time>2022-07-28T08:48:09.000Z</time>
      </trkpt>
      <trkpt lat="42.41912744008004665374755859375" lon="2.87107014097273349761962890625">
        <ele>110.40000152587890625</ele>
        <time>2022-07-28T08:48:11.000Z</time>
      </trkpt>
      <trkpt lat="42.4190509133040904998779296875" lon="2.87109377793967723846435546875">
        <ele>110.40000152587890625</ele>
        <time>2022-07-28T08:48:12.000Z</time>
      </trkpt>
      <trkpt lat="42.41881974041461944580078125" lon="2.871152870357036590576171875">
        <ele>110.1999969482421875</ele>
        <time>2022-07-28T08:48:15.000Z</time>
      </trkpt>
      <trkpt lat="42.4186646752059459686279296875" lon="2.8711721487343311309814453125">
        <ele>110.1999969482421875</ele>
        <time>2022-07-28T08:48:17.000Z</time>
      </trkpt>
      <trkpt lat="42.41812764666974544525146484375" lon="2.87132143042981624603271484375">
        <ele>109.8000030517578125</ele>
        <time>2022-07-28T08:48:24.000Z</time>
      </trkpt>
      <trkpt lat="42.41764484904706478118896484375" lon="2.8714470751583576202392578125">
        <ele>109.59999847412109375</ele>
        <time>2022-07-28T08:48:30.000Z</time>
      </trkpt>
      <trkpt lat="42.41748391650617122650146484375" lon="2.8714909963309764862060546875">
        <ele>109.1999969482421875</ele>
        <time>2022-07-28T08:48:32.000Z</time>
      </trkpt>
      <trkpt lat="42.41690791212022304534912109375" lon="2.8716207481920719146728515625">
        <ele>108.40000152587890625</ele>
        <time>2022-07-28T08:48:39.000Z</time>
      </trkpt>
      <trkpt lat="42.4168226681649684906005859375" lon="2.87163960747420787811279296875">
        <ele>108.1999969482421875</ele>
        <time>2022-07-28T08:48:40.000Z</time>
      </trkpt>
      <trkpt lat="42.41656534373760223388671875" lon="2.8716965205967426300048828125">
        <ele>107.40000152587890625</ele>
        <time>2022-07-28T08:48:43.000Z</time>
      </trkpt>
      <trkpt lat="42.416137866675853729248046875" lon="2.87178687751293182373046875">
        <ele>106.8000030517578125</ele>
        <time>2022-07-28T08:48:48.000Z</time>
      </trkpt>
      <trkpt lat="42.41605245508253574371337890625" lon="2.87180489860475063323974609375">
        <ele>106.1999969482421875</ele>
        <time>2022-07-28T08:48:49.000Z</time>
      </trkpt>
      <trkpt lat="42.41579798050224781036376953125" lon="2.87185736931860446929931640625">
        <ele>105.1999969482421875</ele>
        <time>2022-07-28T08:48:52.000Z</time>
      </trkpt>
      <trkpt lat="42.41537368856370449066162109375" lon="2.87194504402577877044677734375">
        <ele>104.8000030517578125</ele>
        <time>2022-07-28T08:48:57.000Z</time>
      </trkpt>
      <trkpt lat="42.4150438606739044189453125" lon="2.872045040130615234375">
        <ele>104.59999847412109375</ele>
        <time>2022-07-28T08:49:01.000Z</time>
      </trkpt>
      <trkpt lat="42.41488485597074031829833984375" lon="2.87211368791759014129638671875">
        <ele>104.59999847412109375</ele>
        <time>2022-07-28T08:49:03.000Z</time>
      </trkpt>
      <trkpt lat="42.4145243503153324127197265625" lon="2.872379310429096221923828125">
        <ele>104.40000152587890625</ele>
        <time>2022-07-28T08:49:08.000Z</time>
      </trkpt>
      <trkpt lat="42.4141662754118442535400390625" lon="2.87286110222339630126953125">
        <ele>104.40000152587890625</ele>
        <time>2022-07-28T08:49:14.000Z</time>
      </trkpt>
      <trkpt lat="42.413985729217529296875" lon="2.873093448579311370849609375">
        <ele>104.1999969482421875</ele>
        <time>2022-07-28T08:49:17.000Z</time>
      </trkpt>
      <trkpt lat="42.41370183415710926055908203125" lon="2.8734708018600940704345703125">
        <ele>103.8000030517578125</ele>
        <time>2022-07-28T08:49:22.000Z</time>
      </trkpt>
      <trkpt lat="42.41357929073274135589599609375" lon="2.87359963171184062957763671875">
        <ele>103.40000152587890625</ele>
        <time>2022-07-28T08:49:24.000Z</time>
      </trkpt>
      <trkpt lat="42.4134326912462711334228515625" lon="2.87366668693721294403076171875">
        <ele>103</ele>
        <time>2022-07-28T08:49:26.000Z</time>
      </trkpt>
      <trkpt lat="42.41336119361221790313720703125" lon="2.87370641715824604034423828125">
        <ele>102.59999847412109375</ele>
        <time>2022-07-28T08:49:27.000Z</time>
      </trkpt>
      <trkpt lat="42.413242422044277191162109375" lon="2.8738406114280223846435546875">
        <ele>102.1999969482421875</ele>
        <time>2022-07-28T08:49:29.000Z</time>
      </trkpt>
      <trkpt lat="42.413200847804546356201171875" lon="2.8739294596016407012939453125">
        <ele>102</ele>
        <time>2022-07-28T08:49:30.000Z</time>
      </trkpt>
      <trkpt lat="42.41313689388334751129150390625" lon="2.874117381870746612548828125">
        <ele>101.8000030517578125</ele>
        <time>2022-07-28T08:49:32.000Z</time>
      </trkpt>
      <trkpt lat="42.41300328634679317474365234375" lon="2.8743616305291652679443359375">
        <ele>101.8000030517578125</ele>
        <time>2022-07-28T08:49:35.000Z</time>
      </trkpt>
      <trkpt lat="42.41295081563293933868408203125" lon="2.87443396635353565216064453125">
        <ele>101.59999847412109375</ele>
        <time>2022-07-28T08:49:36.000Z</time>
      </trkpt>
      <trkpt lat="42.41251730360090732574462890625" lon="2.87499303929507732391357421875">
        <ele>102</ele>
        <time>2022-07-28T08:49:44.000Z</time>
      </trkpt>
      <trkpt lat="42.4124654196202754974365234375" lon="2.875064872205257415771484375">
        <ele>102.1999969482421875</ele>
        <time>2022-07-28T08:49:45.000Z</time>
      </trkpt>
      <trkpt lat="42.41214682348072528839111328125" lon="2.875469215214252471923828125">
        <ele>102.1999969482421875</ele>
        <time>2022-07-28T08:49:51.000Z</time>
      </trkpt>
      <trkpt lat="42.41178874857723712921142578125" lon="2.87589191459119319915771484375">
        <ele>102.1999969482421875</ele>
        <time>2022-07-28T08:49:58.000Z</time>
      </trkpt>
      <trkpt lat="42.41162161342799663543701171875" lon="2.8760249353945255279541015625">
        <ele>102.1999969482421875</ele>
        <time>2022-07-28T08:50:01.000Z</time>
      </trkpt>
      <trkpt lat="42.411499321460723876953125" lon="2.8760683536529541015625">
        <ele>102.1999969482421875</ele>
        <time>2022-07-28T08:50:03.000Z</time>
      </trkpt>
      <trkpt lat="42.41119782440364360809326171875" lon="2.87614504806697368621826171875">
        <ele>102.40000152587890625</ele>
        <time>2022-07-28T08:50:08.000Z</time>
      </trkpt>
      <trkpt lat="42.4110864289104938507080078125" lon="2.8763139434158802032470703125">
        <ele>102.59999847412109375</ele>
        <time>2022-07-28T08:50:11.000Z</time>
      </trkpt>
      <trkpt lat="42.41109556518495082855224609375" lon="2.876544781029224395751953125">
        <ele>102.8000030517578125</ele>
        <time>2022-07-28T08:50:14.000Z</time>
      </trkpt>
      <trkpt lat="42.41119815967977046966552734375" lon="2.87673412822186946868896484375">
        <ele>103</ele>
        <time>2022-07-28T08:50:17.000Z</time>
      </trkpt>
      <trkpt lat="42.41123453713953495025634765625" lon="2.87679078988730907440185546875">
        <ele>103</ele>
        <time>2022-07-28T08:50:18.000Z</time>
      </trkpt>
      <trkpt lat="42.41129823960363864898681640625" lon="2.876966893672943115234375">
        <ele>103.8000030517578125</ele>
        <time>2022-07-28T08:50:21.000Z</time>
      </trkpt>
      <trkpt lat="42.4113026820123195648193359375" lon="2.8770264051854610443115234375">
        <ele>104.1999969482421875</ele>
        <time>2022-07-28T08:50:22.000Z</time>
      </trkpt>
      <trkpt lat="42.41130419075489044189453125" lon="2.87708868272602558135986328125">
        <ele>104.59999847412109375</ele>
        <time>2022-07-28T08:50:23.000Z</time>
      </trkpt>
      <trkpt lat="42.4113026820123195648193359375" lon="2.8771533071994781494140625">
        <ele>104.8000030517578125</ele>
        <time>2022-07-28T08:50:24.000Z</time>
      </trkpt>
      <trkpt lat="42.4112943001091480255126953125" lon="2.87721474654972553253173828125">
        <ele>105</ele>
        <time>2022-07-28T08:50:25.000Z</time>
      </trkpt>
      <trkpt lat="42.4112768657505512237548828125" lon="2.8772686421871185302734375">
        <ele>105.1999969482421875</ele>
        <time>2022-07-28T08:50:26.000Z</time>
      </trkpt>
      <trkpt lat="42.411191202700138092041015625" lon="2.877391017973423004150390625">
        <ele>105.59999847412109375</ele>
        <time>2022-07-28T08:50:29.000Z</time>
      </trkpt>
      <trkpt lat="42.4110876023769378662109375" lon="2.87746251560747623443603515625">
        <ele>106</ele>
        <time>2022-07-28T08:50:32.000Z</time>
      </trkpt>
      <trkpt lat="42.4110532365739345550537109375" lon="2.87748045288026332855224609375">
        <ele>106.59999847412109375</ele>
        <time>2022-07-28T08:50:33.000Z</time>
      </trkpt>
      <trkpt lat="42.41095307283103466033935546875" lon="2.877538539469242095947265625">
        <ele>107.1999969482421875</ele>
        <time>2022-07-28T08:50:36.000Z</time>
      </trkpt>
      <trkpt lat="42.4108148552477359771728515625" lon="2.8776215203106403350830078125">
        <ele>107.8000030517578125</ele>
        <time>2022-07-28T08:50:40.000Z</time>
      </trkpt>
      <trkpt lat="42.4107149429619312286376953125" lon="2.87771196104586124420166015625">
        <ele>108.8000030517578125</ele>
        <time>2022-07-28T08:50:43.000Z</time>
      </trkpt>
      <trkpt lat="42.41068384610116481781005859375" lon="2.8777492605149745941162109375">
        <ele>109</ele>
        <time>2022-07-28T08:50:44.000Z</time>
      </trkpt>
      <trkpt lat="42.410469353199005126953125" lon="2.8780221752822399139404296875">
        <ele>110.1999969482421875</ele>
        <time>2022-07-28T08:50:51.000Z</time>
      </trkpt>
      <trkpt lat="42.41039433516561985015869140625" lon="2.87809987552464008331298828125">
        <ele>110.40000152587890625</ele>
        <time>2022-07-28T08:50:53.000Z</time>
      </trkpt>
      <trkpt lat="42.41008336655795574188232421875" lon="2.87831931374967098236083984375">
        <ele>110.40000152587890625</ele>
        <time>2022-07-28T08:51:00.000Z</time>
      </trkpt>
      <trkpt lat="42.40994992665946483612060546875" lon="2.8784218244254589080810546875">
        <ele>110.40000152587890625</ele>
        <time>2022-07-28T08:51:03.000Z</time>
      </trkpt>
      <trkpt lat="42.40986426360905170440673828125" lon="2.87851653993129730224609375">
        <ele>110.1999969482421875</ele>
        <time>2022-07-28T08:51:05.000Z</time>
      </trkpt>
      <trkpt lat="42.40982419811189174652099609375" lon="2.87857512943446636199951171875">
        <ele>110.1999969482421875</ele>
        <time>2022-07-28T08:51:06.000Z</time>
      </trkpt>
      <trkpt lat="42.409720681607723236083984375" lon="2.8788006864488124847412109375">
        <ele>110.1999969482421875</ele>
        <time>2022-07-28T08:51:09.000Z</time>
      </trkpt>
      <trkpt lat="42.40965471602976322174072265625" lon="2.8789611160755157470703125">
        <ele>110</ele>
        <time>2022-07-28T08:51:11.000Z</time>
      </trkpt>
      <trkpt lat="42.40961599163711071014404296875" lon="2.87903697229921817779541015625">
        <ele>110</ele>
        <time>2022-07-28T08:51:12.000Z</time>
      </trkpt>
      <trkpt lat="42.4094626866281032562255859375" lon="2.879219949245452880859375">
        <ele>109.59999847412109375</ele>
        <time>2022-07-28T08:51:15.000Z</time>
      </trkpt>
      <trkpt lat="42.40939822979271411895751953125" lon="2.87925205193459987640380859375">
        <ele>109.1999969482421875</ele>
        <time>2022-07-28T08:51:16.000Z</time>
      </trkpt>
      <trkpt lat="42.40926981903612613677978515625" lon="2.879257164895534515380859375">
        <ele>107.8000030517578125</ele>
        <time>2022-07-28T08:51:18.000Z</time>
      </trkpt>
      <trkpt lat="42.40915062837302684783935546875" lon="2.87926546297967433929443359375">
        <ele>107.1999969482421875</ele>
        <time>2022-07-28T08:51:20.000Z</time>
      </trkpt>
      <trkpt lat="42.40904049016535282135009765625" lon="2.8792858310043811798095703125">
        <ele>107</ele>
        <time>2022-07-28T08:51:22.000Z</time>
      </trkpt>
      <trkpt lat="42.408673278987407684326171875" lon="2.879402339458465576171875">
        <ele>107.8000030517578125</ele>
        <time>2022-07-28T08:51:29.000Z</time>
      </trkpt>
      <trkpt lat="42.40845174528658390045166015625" lon="2.87948255427181720733642578125">
        <ele>109</ele>
        <time>2022-07-28T08:51:33.000Z</time>
      </trkpt>
      <trkpt lat="42.4082275293767452239990234375" lon="2.8795775212347507476806640625">
        <ele>109.1999969482421875</ele>
        <time>2022-07-28T08:51:37.000Z</time>
      </trkpt>
      <trkpt lat="42.4079750664532184600830078125" lon="2.87971439771354198455810546875">
        <ele>109.1999969482421875</ele>
        <time>2022-07-28T08:51:42.000Z</time>
      </trkpt>
      <trkpt lat="42.4077873118221759796142578125" lon="2.8798162378370761871337890625">
        <ele>109.1999969482421875</ele>
        <time>2022-07-28T08:51:48.000Z</time>
      </trkpt>
      <trkpt lat="42.40753426216542720794677734375" lon="2.879924364387989044189453125">
        <ele>109.40000152587890625</ele>
        <time>2022-07-28T08:51:54.000Z</time>
      </trkpt>
      <trkpt lat="42.40714618004858493804931640625" lon="2.88008018396794795989990234375">
        <ele>109.1999969482421875</ele>
        <time>2022-07-28T08:52:01.000Z</time>
      </trkpt>
      <trkpt lat="42.40690863691270351409912109375" lon="2.88020138628780841827392578125">
        <ele>108.59999847412109375</ele>
        <time>2022-07-28T08:52:05.000Z</time>
      </trkpt>
      <trkpt lat="42.4067660607397556304931640625" lon="2.88025285117328166961669921875">
        <ele>108.40000152587890625</ele>
        <time>2022-07-28T08:52:07.000Z</time>
      </trkpt>
      <trkpt lat="42.40641058422625064849853515625" lon="2.8804256021976470947265625">
        <ele>107.8000030517578125</ele>
        <time>2022-07-28T08:52:12.000Z</time>
      </trkpt>
      <trkpt lat="42.40627328865230083465576171875" lon="2.880500368773937225341796875">
        <ele>106.1999969482421875</ele>
        <time>2022-07-28T08:52:14.000Z</time>
      </trkpt>
      <trkpt lat="42.40594656206667423248291015625" lon="2.8806668333709239959716796875">
        <ele>105.1999969482421875</ele>
        <time>2022-07-28T08:52:19.000Z</time>
      </trkpt>
      <trkpt lat="42.40590012632310390472412109375" lon="2.88069181144237518310546875">
        <ele>105.1999969482421875</ele>
        <time>2022-07-28T08:52:20.000Z</time>
      </trkpt>
      <trkpt lat="42.4057612381875514984130859375" lon="2.8807506524026393890380859375">
        <ele>105.1999969482421875</ele>
        <time>2022-07-28T08:52:24.000Z</time>
      </trkpt>
      <trkpt lat="42.40560407750308513641357421875" lon="2.88083757273852825164794921875">
        <ele>105.59999847412109375</ele>
        <time>2022-07-28T08:52:29.000Z</time>
      </trkpt>
      <trkpt lat="42.40534566342830657958984375" lon="2.880960367619991302490234375">
        <ele>105.8000030517578125</ele>
        <time>2022-07-28T08:52:36.000Z</time>
      </trkpt>
      <trkpt lat="42.40509529598057270050048828125" lon="2.88105449639260768890380859375">
        <ele>105.40000152587890625</ele>
        <time>2022-07-28T08:52:43.000Z</time>
      </trkpt>
      <trkpt lat="42.404906116425991058349609375" lon="2.88101610727608203887939453125">
        <ele>105.1999969482421875</ele>
        <time>2022-07-28T08:52:48.000Z</time>
      </trkpt>
      <trkpt lat="42.404772676527500152587890625" lon="2.8811392374336719512939453125">
        <ele>105.1999969482421875</ele>
        <time>2022-07-28T08:52:51.000Z</time>
      </trkpt>
      <trkpt lat="42.40477846004068851470947265625" lon="2.88135808892548084259033203125">
        <ele>105</ele>
        <time>2022-07-28T08:52:54.000Z</time>
      </trkpt>
      <trkpt lat="42.40489396266639232635498046875" lon="2.88160099647939205169677734375">
        <ele>104.59999847412109375</ele>
        <time>2022-07-28T08:52:58.000Z</time>
      </trkpt>
      <trkpt lat="42.4048863351345062255859375" lon="2.8817962110042572021484375">
        <ele>104.40000152587890625</ele>
        <time>2022-07-28T08:53:01.000Z</time>
      </trkpt>
      <trkpt lat="42.4048358760774135589599609375" lon="2.881961502134799957275390625">
        <ele>104.40000152587890625</ele>
        <time>2022-07-28T08:53:04.000Z</time>
      </trkpt>
      <trkpt lat="42.40477343089878559112548828125" lon="2.88211162202060222625732421875">
        <ele>104.8000030517578125</ele>
        <time>2022-07-28T08:53:07.000Z</time>
      </trkpt>
      <trkpt lat="42.4046662263572216033935546875" lon="2.8823673538863658905029296875">
        <ele>106.1999969482421875</ele>
        <time>2022-07-28T08:53:13.000Z</time>
      </trkpt>
      <trkpt lat="42.4046474508941173553466796875" lon="2.88240440189838409423828125">
        <ele>106.40000152587890625</ele>
        <time>2022-07-28T08:53:14.000Z</time>
      </trkpt>
      <trkpt lat="42.40458182059228420257568359375" lon="2.8825624845921993255615234375">
        <ele>107.59999847412109375</ele>
        <time>2022-07-28T08:53:18.000Z</time>
      </trkpt>
      <trkpt lat="42.40453856997191905975341796875" lon="2.8826788254082202911376953125">
        <ele>108.1999969482421875</ele>
        <time>2022-07-28T08:53:21.000Z</time>
      </trkpt>
      <trkpt lat="42.40449716337025165557861328125" lon="2.8827978484332561492919921875">
        <ele>109</ele>
        <time>2022-07-28T08:53:24.000Z</time>
      </trkpt>
      <trkpt lat="42.40443262271583080291748046875" lon="2.88294327445328235626220703125">
        <ele>110.1999969482421875</ele>
        <time>2022-07-28T08:53:28.000Z</time>
      </trkpt>
      <trkpt lat="42.4044184572994709014892578125" lon="2.882979400455951690673828125">
        <ele>110.40000152587890625</ele>
        <time>2022-07-28T08:53:29.000Z</time>
      </trkpt>
      <trkpt lat="42.40435785613954067230224609375" lon="2.88312725722789764404296875">
        <ele>111.1999969482421875</ele>
        <time>2022-07-28T08:53:33.000Z</time>
      </trkpt>
      <trkpt lat="42.40431879647076129913330078125" lon="2.883233539760112762451171875">
        <ele>111.59999847412109375</ele>
        <time>2022-07-28T08:53:36.000Z</time>
      </trkpt>
      <trkpt lat="42.404248975217342376708984375" lon="2.88340595550835132598876953125">
        <ele>112.40000152587890625</ele>
        <time>2022-07-28T08:53:41.000Z</time>
      </trkpt>
      <trkpt lat="42.4042112566530704498291015625" lon="2.8835059516131877899169921875">
        <ele>112.8000030517578125</ele>
        <time>2022-07-28T08:53:44.000Z</time>
      </trkpt>
      <trkpt lat="42.4041733704507350921630859375" lon="2.8836442530155181884765625">
        <ele>113.59999847412109375</ele>
        <time>2022-07-28T08:53:48.000Z</time>
      </trkpt>
      <trkpt lat="42.4041701853275299072265625" lon="2.8837185166776180267333984375">
        <ele>114.40000152587890625</ele>
        <time>2022-07-28T08:53:50.000Z</time>
      </trkpt>
      <trkpt lat="42.40417915396392345428466796875" lon="2.883796133100986480712890625">
        <ele>114.59999847412109375</ele>
        <time>2022-07-28T08:53:52.000Z</time>
      </trkpt>
      <trkpt lat="42.40418024361133575439453125" lon="2.88403023965656757354736328125">
        <ele>115.59999847412109375</ele>
        <time>2022-07-28T08:53:58.000Z</time>
      </trkpt>
      <trkpt lat="42.40416674874722957611083984375" lon="2.88406125269830226898193359375">
        <ele>115.8000030517578125</ele>
        <time>2022-07-28T08:53:59.000Z</time>
      </trkpt>
      <trkpt lat="42.40407622419297695159912109375" lon="2.8841466642916202545166015625">
        <ele>117</ele>
        <time>2022-07-28T08:54:03.000Z</time>
      </trkpt>
      <trkpt lat="42.4038431234657764434814453125" lon="2.88422151468694210052490234375">
        <ele>117.59999847412109375</ele>
        <time>2022-07-28T08:54:11.000Z</time>
      </trkpt>
      <trkpt lat="42.4036795087158679962158203125" lon="2.88439837284386157989501953125">
        <ele>118</ele>
        <time>2022-07-28T08:54:18.000Z</time>
      </trkpt>
      <trkpt lat="42.40356266498565673828125" lon="2.88455897010862827301025390625">
        <ele>119</ele>
        <time>2022-07-28T08:54:24.000Z</time>
      </trkpt>
      <trkpt lat="42.4035417102277278900146484375" lon="2.88458495400846004486083984375">
        <ele>119.1999969482421875</ele>
        <time>2022-07-28T08:54:25.000Z</time>
      </trkpt>
      <trkpt lat="42.40334716625511646270751953125" lon="2.88483255542814731597900390625">
        <ele>120.1999969482421875</ele>
        <time>2022-07-28T08:54:34.000Z</time>
      </trkpt>
      <trkpt lat="42.403326295316219329833984375" lon="2.884862311184406280517578125">
        <ele>120.59999847412109375</ele>
        <time>2022-07-28T08:54:35.000Z</time>
      </trkpt>
      <trkpt lat="42.4032195098698139190673828125" lon="2.88500756956636905670166015625">
        <ele>121.59999847412109375</ele>
        <time>2022-07-28T08:54:40.000Z</time>
      </trkpt>
      <trkpt lat="42.40319830365478992462158203125" lon="2.88503724150359630584716796875">
        <ele>121.8000030517578125</ele>
        <time>2022-07-28T08:54:41.000Z</time>
      </trkpt>
      <trkpt lat="42.40310392342507839202880859375" lon="2.88515643216669559478759765625">
        <ele>122.8000030517578125</ele>
        <time>2022-07-28T08:54:45.000Z</time>
      </trkpt>
      <trkpt lat="42.403013817965984344482421875" lon="2.8852777183055877685546875">
        <ele>123.1999969482421875</ele>
        <time>2022-07-28T08:54:49.000Z</time>
      </trkpt>
      <trkpt lat="42.4028748460114002227783203125" lon="2.88545264862477779388427734375">
        <ele>123.8000030517578125</ele>
        <time>2022-07-28T08:54:55.000Z</time>
      </trkpt>
      <trkpt lat="42.40282866172492504119873046875" lon="2.8855125792324542999267578125">
        <ele>123.8000030517578125</ele>
        <time>2022-07-28T08:54:57.000Z</time>
      </trkpt>
      <trkpt lat="42.40266420878469944000244140625" lon="2.8857227973639965057373046875">
        <ele>124.8000030517578125</ele>
        <time>2022-07-28T08:55:04.000Z</time>
      </trkpt>
      <trkpt lat="42.40254736505448818206787109375" lon="2.8858726657927036285400390625">
        <ele>125.59999847412109375</ele>
        <time>2022-07-28T08:55:09.000Z</time>
      </trkpt>
      <trkpt lat="42.40247628651559352874755859375" lon="2.8859641961753368377685546875">
        <ele>126</ele>
        <time>2022-07-28T08:55:12.000Z</time>
      </trkpt>
      <trkpt lat="42.4023819901049137115478515625" lon="2.88613560609519481658935546875">
        <ele>126.8000030517578125</ele>
        <time>2022-07-28T08:55:17.000Z</time>
      </trkpt>
      <trkpt lat="42.40237520076334476470947265625" lon="2.8861770965158939361572265625">
        <ele>127.1999969482421875</ele>
        <time>2022-07-28T08:55:18.000Z</time>
      </trkpt>
      <trkpt lat="42.40235759876668453216552734375" lon="2.8863988816738128662109375">
        <ele>127.8000030517578125</ele>
        <time>2022-07-28T08:55:23.000Z</time>
      </trkpt>
      <trkpt lat="42.4023055471479892730712890625" lon="2.88651463575661182403564453125">
        <ele>128.1999969482421875</ele>
        <time>2022-07-28T08:55:26.000Z</time>
      </trkpt>
      <trkpt lat="42.40227797068655490875244140625" lon="2.8865408711135387420654296875">
        <ele>128.399993896484375</ele>
        <time>2022-07-28T08:55:27.000Z</time>
      </trkpt>
      <trkpt lat="42.4021236598491668701171875" lon="2.88660951890051364898681640625">
        <ele>129.1999969482421875</ele>
        <time>2022-07-28T08:55:32.000Z</time>
      </trkpt>
      <trkpt lat="42.40209256298840045928955078125" lon="2.88662075065076351165771484375">
        <ele>129.399993896484375</ele>
        <time>2022-07-28T08:55:33.000Z</time>
      </trkpt>
      <trkpt lat="42.401911430060863494873046875" lon="2.88670800626277923583984375">
        <ele>130.1999969482421875</ele>
        <time>2022-07-28T08:55:39.000Z</time>
      </trkpt>
      <trkpt lat="42.40188351832330226898193359375" lon="2.88673080503940582275390625">
        <ele>130.399993896484375</ele>
        <time>2022-07-28T08:55:40.000Z</time>
      </trkpt>
      <trkpt lat="42.4017815105617046356201171875" lon="2.8868945874273777008056640625">
        <ele>130.600006103515625</ele>
        <time>2022-07-28T08:55:45.000Z</time>
      </trkpt>
      <trkpt lat="42.40169576369225978851318359375" lon="2.8870260156691074371337890625">
        <ele>131.399993896484375</ele>
        <time>2022-07-28T08:55:49.000Z</time>
      </trkpt>
      <trkpt lat="42.40164027549326419830322265625" lon="2.8870672546327114105224609375">
        <ele>131.600006103515625</ele>
        <time>2022-07-28T08:55:51.000Z</time>
      </trkpt>
      <trkpt lat="42.40144749172031879425048828125" lon="2.8871111758053302764892578125">
        <ele>132.399993896484375</ele>
        <time>2022-07-28T08:55:57.000Z</time>
      </trkpt>
      <trkpt lat="42.4012098647654056549072265625" lon="2.8872255049645900726318359375">
        <ele>132.8000030517578125</ele>
        <time>2022-07-28T08:56:05.000Z</time>
      </trkpt>
      <trkpt lat="42.40102957002818584442138671875" lon="2.8874109126627445220947265625">
        <ele>133.8000030517578125</ele>
        <time>2022-07-28T08:56:12.000Z</time>
      </trkpt>
      <trkpt lat="42.40097844041883945465087890625" lon="2.88746438920497894287109375">
        <ele>134.1999969482421875</ele>
        <time>2022-07-28T08:56:14.000Z</time>
      </trkpt>
      <trkpt lat="42.40092546679079532623291015625" lon="2.88751132786273956298828125">
        <ele>135</ele>
        <time>2022-07-28T08:56:16.000Z</time>
      </trkpt>
      <trkpt lat="42.400790937244892120361328125" lon="2.88762255571782588958740234375">
        <ele>135.399993896484375</ele>
        <time>2022-07-28T08:56:21.000Z</time>
      </trkpt>
      <trkpt lat="42.40068675018846988677978515625" lon="2.88771240971982479095458984375">
        <ele>136</ele>
        <time>2022-07-28T08:56:25.000Z</time>
      </trkpt>
      <trkpt lat="42.40061533637344837188720703125" lon="2.8877978213131427764892578125">
        <ele>136.399993896484375</ele>
        <time>2022-07-28T08:56:28.000Z</time>
      </trkpt>
      <trkpt lat="42.4005165137350559234619140625" lon="2.8879617713391780853271484375">
        <ele>137</ele>
        <time>2022-07-28T08:56:33.000Z</time>
      </trkpt>
      <trkpt lat="42.400482483208179473876953125" lon="2.88802857510745525360107421875">
        <ele>137.399993896484375</ele>
        <time>2022-07-28T08:56:35.000Z</time>
      </trkpt>
      <trkpt lat="42.4004419147968292236328125" lon="2.88813569582998752593994140625">
        <ele>138</ele>
        <time>2022-07-28T08:56:38.000Z</time>
      </trkpt>
      <trkpt lat="42.400426156818866729736328125" lon="2.88825639523565769195556640625">
        <ele>138.600006103515625</ele>
        <time>2022-07-28T08:56:41.000Z</time>
      </trkpt>
      <trkpt lat="42.4004397355020046234130859375" lon="2.88843174465000629425048828125">
        <ele>139.399993896484375</ele>
        <time>2022-07-28T08:56:45.000Z</time>
      </trkpt>
      <trkpt lat="42.40046647377312183380126953125" lon="2.88855797611176967620849609375">
        <ele>140</ele>
        <time>2022-07-28T08:56:48.000Z</time>
      </trkpt>
      <trkpt lat="42.40049815736711025238037109375" lon="2.88868345320224761962890625">
        <ele>140.399993896484375</ele>
        <time>2022-07-28T08:56:51.000Z</time>
      </trkpt>
      <trkpt lat="42.4005017615854740142822265625" lon="2.888815887272357940673828125">
        <ele>140.8000030517578125</ele>
        <time>2022-07-28T08:56:54.000Z</time>
      </trkpt>
      <trkpt lat="42.40045331418514251708984375" lon="2.88892887532711029052734375">
        <ele>141.600006103515625</ele>
        <time>2022-07-28T08:56:57.000Z</time>
      </trkpt>
      <trkpt lat="42.40040042437613010406494140625" lon="2.88898109458386898040771484375">
        <ele>141.8000030517578125</ele>
        <time>2022-07-28T08:56:59.000Z</time>
      </trkpt>
      <trkpt lat="42.40022222511470317840576171875" lon="2.8891060687601566314697265625">
        <ele>142.600006103515625</ele>
        <time>2022-07-28T08:57:05.000Z</time>
      </trkpt>
      <trkpt lat="42.40017562173306941986083984375" lon="2.88919248618185520172119140625">
        <ele>143</ele>
        <time>2022-07-28T08:57:07.000Z</time>
      </trkpt>
      <trkpt lat="42.4001621268689632415771484375" lon="2.88930304348468780517578125">
        <ele>143.399993896484375</ele>
        <time>2022-07-28T08:57:09.000Z</time>
      </trkpt>
      <trkpt lat="42.400174029171466827392578125" lon="2.88940739817917346954345703125">
        <ele>143.600006103515625</ele>
        <time>2022-07-28T08:57:11.000Z</time>
      </trkpt>
      <trkpt lat="42.40018987096846103668212890625" lon="2.88950379006564617156982421875">
        <ele>143.8000030517578125</ele>
        <time>2022-07-28T08:57:13.000Z</time>
      </trkpt>
      <trkpt lat="42.4002003483474254608154296875" lon="2.88959783501923084259033203125">
        <ele>143.8000030517578125</ele>
        <time>2022-07-28T08:57:15.000Z</time>
      </trkpt>
      <trkpt lat="42.40015693008899688720703125" lon="2.88986287079751491546630859375">
        <ele>144.8000030517578125</ele>
        <time>2022-07-28T08:57:21.000Z</time>
      </trkpt>
      <trkpt lat="42.400141172111034393310546875" lon="2.889902852475643157958984375">
        <ele>145</ele>
        <time>2022-07-28T08:57:22.000Z</time>
      </trkpt>
      <trkpt lat="42.4000337161123752593994140625" lon="2.89014785550534725189208984375">
        <ele>146</ele>
        <time>2022-07-28T08:57:28.000Z</time>
      </trkpt>
      <trkpt lat="42.39991511218249797821044921875" lon="2.89044298231601715087890625">
        <ele>147</ele>
        <time>2022-07-28T08:57:35.000Z</time>
      </trkpt>
      <trkpt lat="42.3998828418552875518798828125" lon="2.890665270388126373291015625">
        <ele>147.8000030517578125</ele>
        <time>2022-07-28T08:57:40.000Z</time>
      </trkpt>
      <trkpt lat="42.3998932354152202606201171875" lon="2.8908914141356945037841796875">
        <ele>148.1999969482421875</ele>
        <time>2022-07-28T08:57:45.000Z</time>
      </trkpt>
      <trkpt lat="42.3999136872589588165283203125" lon="2.89108260534703731536865234375">
        <ele>148.8000030517578125</ele>
        <time>2022-07-28T08:57:49.000Z</time>
      </trkpt>
      <trkpt lat="42.39997965283691883087158203125" lon="2.89130556397140026092529296875">
        <ele>149.1999969482421875</ele>
        <time>2022-07-28T08:57:54.000Z</time>
      </trkpt>
      <trkpt lat="42.40000404417514801025390625" lon="2.891339175403118133544921875">
        <ele>149.1999969482421875</ele>
        <time>2022-07-28T08:57:55.000Z</time>
      </trkpt>
      <trkpt lat="42.40015156567096710205078125" lon="2.89148711599409580230712890625">
        <ele>150.399993896484375</ele>
        <time>2022-07-28T08:58:00.000Z</time>
      </trkpt>
      <trkpt lat="42.4002224765717983245849609375" lon="2.8915995173156261444091796875">
        <ele>151.399993896484375</ele>
        <time>2022-07-28T08:58:03.000Z</time>
      </trkpt>
      <trkpt lat="42.4002318643033504486083984375" lon="2.89178400300443172454833984375">
        <ele>152.399993896484375</ele>
        <time>2022-07-28T08:58:07.000Z</time>
      </trkpt>
      <trkpt lat="42.40022071637213230133056640625" lon="2.89182809181511402130126953125">
        <ele>152.600006103515625</ele>
        <time>2022-07-28T08:58:08.000Z</time>
      </trkpt>
      <trkpt lat="42.40015265531837940216064453125" lon="2.89198718033730983734130859375">
        <ele>153.399993896484375</ele>
        <time>2022-07-28T08:58:12.000Z</time>
      </trkpt>
      <trkpt lat="42.4001334607601165771484375" lon="2.892025820910930633544921875">
        <ele>153.600006103515625</ele>
        <time>2022-07-28T08:58:13.000Z</time>
      </trkpt>
      <trkpt lat="42.40004251711070537567138671875" lon="2.89227333851158618927001953125">
        <ele>154.8000030517578125</ele>
        <time>2022-07-28T08:58:19.000Z</time>
      </trkpt>
      <trkpt lat="42.4001128412783145904541015625" lon="2.892491854727268218994140625">
        <ele>155.399993896484375</ele>
        <time>2022-07-28T08:58:24.000Z</time>
      </trkpt>
      <trkpt lat="42.400188781321048736572265625" lon="2.89259369485080242156982421875">
        <ele>156</ele>
        <time>2022-07-28T08:58:27.000Z</time>
      </trkpt>
      <trkpt lat="42.40029766224324703216552734375" lon="2.8927143104374408721923828125">
        <ele>157</ele>
        <time>2022-07-28T08:58:31.000Z</time>
      </trkpt>
      <trkpt lat="42.40032347850501537322998046875" lon="2.8927468322217464447021484375">
        <ele>157</ele>
        <time>2022-07-28T08:58:32.000Z</time>
      </trkpt>
      <trkpt lat="42.40038583986461162567138671875" lon="2.8929164819419384002685546875">
        <ele>158</ele>
        <time>2022-07-28T08:58:36.000Z</time>
      </trkpt>
      <trkpt lat="42.4003829061985015869140625" lon="2.892963923513889312744140625">
        <ele>158.1999969482421875</ele>
        <time>2022-07-28T08:58:37.000Z</time>
      </trkpt>
      <trkpt lat="42.40029850043356418609619140625" lon="2.8931204974651336669921875">
        <ele>159</ele>
        <time>2022-07-28T08:58:41.000Z</time>
      </trkpt>
      <trkpt lat="42.40023027174174785614013671875" lon="2.8931548632681369781494140625">
        <ele>159.1999969482421875</ele>
        <time>2022-07-28T08:58:43.000Z</time>
      </trkpt>
      <trkpt lat="42.40013002417981624603271484375" lon="2.893172800540924072265625">
        <ele>159.8000030517578125</ele>
        <time>2022-07-28T08:58:46.000Z</time>
      </trkpt>
      <trkpt lat="42.4000635556876659393310546875" lon="2.89317657239735126495361328125">
        <ele>160.1999969482421875</ele>
        <time>2022-07-28T08:58:48.000Z</time>
      </trkpt>
      <trkpt lat="42.39984990097582340240478515625" lon="2.89319400675594806671142578125">
        <ele>161.399993896484375</ele>
        <time>2022-07-28T08:58:54.000Z</time>
      </trkpt>
      <trkpt lat="42.39977664314210414886474609375" lon="2.8932111896574497222900390625">
        <ele>161.8000030517578125</ele>
        <time>2022-07-28T08:58:56.000Z</time>
      </trkpt>
      <trkpt lat="42.39962459541857242584228515625" lon="2.89332945831120014190673828125">
        <ele>162.399993896484375</ele>
        <time>2022-07-28T08:59:01.000Z</time>
      </trkpt>
      <trkpt lat="42.3996050655841827392578125" lon="2.8933704458177089691162109375">
        <ele>162.600006103515625</ele>
        <time>2022-07-28T08:59:02.000Z</time>
      </trkpt>
      <trkpt lat="42.39953289739787578582763671875" lon="2.89359365589916706085205078125">
        <ele>163.600006103515625</ele>
        <time>2022-07-28T08:59:07.000Z</time>
      </trkpt>
      <trkpt lat="42.39952015690505504608154296875" lon="2.89363908581435680389404296875">
        <ele>163.8000030517578125</ele>
        <time>2022-07-28T08:59:08.000Z</time>
      </trkpt>
      <trkpt lat="42.39946600981056690216064453125" lon="2.8938227333128452301025390625">
        <ele>164.8000030517578125</ele>
        <time>2022-07-28T08:59:12.000Z</time>
      </trkpt>
      <trkpt lat="42.3994429595768451690673828125" lon="2.89391317404806613922119140625">
        <ele>165.1999969482421875</ele>
        <time>2022-07-28T08:59:14.000Z</time>
      </trkpt>
      <trkpt lat="42.39935419522225856781005859375" lon="2.89416882209479808807373046875">
        <ele>165.8000030517578125</ele>
        <time>2022-07-28T08:59:20.000Z</time>
      </trkpt>
      <trkpt lat="42.39927389658987522125244140625" lon="2.89449085481464862823486328125">
        <ele>166.600006103515625</ele>
        <time>2022-07-28T08:59:27.000Z</time>
      </trkpt>
      <trkpt lat="42.39927641116082668304443359375" lon="2.89458691142499446868896484375">
        <ele>167</ele>
        <time>2022-07-28T08:59:29.000Z</time>
      </trkpt>
      <trkpt lat="42.3993194103240966796875" lon="2.8947618417441844940185546875">
        <ele>167.399993896484375</ele>
        <time>2022-07-28T08:59:33.000Z</time>
      </trkpt>
      <trkpt lat="42.39939509890973567962646484375" lon="2.89491917006671428680419921875">
        <ele>168</ele>
        <time>2022-07-28T08:59:37.000Z</time>
      </trkpt>
      <trkpt lat="42.39941454492509365081787109375" lon="2.8949599899351596832275390625">
        <ele>168.399993896484375</ele>
        <time>2022-07-28T08:59:38.000Z</time>
      </trkpt>
      <trkpt lat="42.39955737255513668060302734375" lon="2.8953240998089313507080078125">
        <ele>169</ele>
        <time>2022-07-28T08:59:46.000Z</time>
      </trkpt>
      <trkpt lat="42.399589978158473968505859375" lon="2.8954743035137653350830078125">
        <ele>169.1999969482421875</ele>
        <time>2022-07-28T08:59:49.000Z</time>
      </trkpt>
      <trkpt lat="42.39963750354945659637451171875" lon="2.895735315978527069091796875">
        <ele>169.600006103515625</ele>
        <time>2022-07-28T08:59:54.000Z</time>
      </trkpt>
      <trkpt lat="42.3996699415147304534912109375" lon="2.89590622298419475555419921875">
        <ele>170.1999969482421875</ele>
        <time>2022-07-28T08:59:57.000Z</time>
      </trkpt>
      <trkpt lat="42.39974244497716426849365234375" lon="2.8962722606956958770751953125">
        <ele>171.1999969482421875</ele>
        <time>2022-07-28T09:00:03.000Z</time>
      </trkpt>
      <trkpt lat="42.39985794760286808013916015625" lon="2.8968928568065166473388671875">
        <ele>171</ele>
        <time>2022-07-28T09:00:12.000Z</time>
      </trkpt>
      <trkpt lat="42.3999931477010250091552734375" lon="2.8974844515323638916015625">
        <ele>171</ele>
        <time>2022-07-28T09:00:20.000Z</time>
      </trkpt>
      <trkpt lat="42.40002290345728397369384765625" lon="2.89755175821483135223388671875">
        <ele>171</ele>
        <time>2022-07-28T09:00:21.000Z</time>
      </trkpt>
      <trkpt lat="42.40014947019517421722412109375" lon="2.89772224612534046173095703125">
        <ele>171</ele>
        <time>2022-07-28T09:00:24.000Z</time>
      </trkpt>
      <trkpt lat="42.400199510157108306884765625" lon="2.89777186699211597442626953125">
        <ele>171</ele>
        <time>2022-07-28T09:00:25.000Z</time>
      </trkpt>
      <trkpt lat="42.40035885013639926910400390625" lon="2.8979157842695713043212890625">
        <ele>171.399993896484375</ele>
        <time>2022-07-28T09:00:28.000Z</time>
      </trkpt>
      <trkpt lat="42.400523722171783447265625" lon="2.89806154556572437286376953125">
        <ele>172</ele>
        <time>2022-07-28T09:00:31.000Z</time>
      </trkpt>
      <trkpt lat="42.40097408182919025421142578125" lon="2.89846505038440227508544921875">
        <ele>172</ele>
        <time>2022-07-28T09:00:39.000Z</time>
      </trkpt>
      <trkpt lat="42.401087991893291473388671875" lon="2.8985648788511753082275390625">
        <ele>171.8000030517578125</ele>
        <time>2022-07-28T09:00:41.000Z</time>
      </trkpt>
      <trkpt lat="42.40154623053967952728271484375" lon="2.8989742510020732879638671875">
        <ele>171.600006103515625</ele>
        <time>2022-07-28T09:00:49.000Z</time>
      </trkpt>
      <trkpt lat="42.401659972965717315673828125" lon="2.899075336754322052001953125">
        <ele>171.600006103515625</ele>
        <time>2022-07-28T09:00:51.000Z</time>
      </trkpt>
      <trkpt lat="42.40210966207087039947509765625" lon="2.899476327002048492431640625">
        <ele>172</ele>
        <time>2022-07-28T09:00:59.000Z</time>
      </trkpt>
      <trkpt lat="42.40249405615031719207763671875" lon="2.8998233377933502197265625">
        <ele>172.600006103515625</ele>
        <time>2022-07-28T09:01:06.000Z</time>
      </trkpt>
      <trkpt lat="42.40254920907318592071533203125" lon="2.89986968971788883209228515625">
        <ele>172.8000030517578125</ele>
        <time>2022-07-28T09:01:07.000Z</time>
      </trkpt>
      <trkpt lat="42.40297903306782245635986328125" lon="2.9002291895449161529541015625">
        <ele>173</ele>
        <time>2022-07-28T09:01:15.000Z</time>
      </trkpt>
      <trkpt lat="42.40348362363874912261962890625" lon="2.900580726563930511474609375">
        <ele>173.8000030517578125</ele>
        <time>2022-07-28T09:01:24.000Z</time>
      </trkpt>
      <trkpt lat="42.4038751423358917236328125" lon="2.90084718726575374603271484375">
        <ele>174.8000030517578125</ele>
        <time>2022-07-28T09:01:31.000Z</time>
      </trkpt>
      <trkpt lat="42.4040898866951465606689453125" lon="2.90099621750414371490478515625">
        <ele>175.1999969482421875</ele>
        <time>2022-07-28T09:01:35.000Z</time>
      </trkpt>
      <trkpt lat="42.40443144924938678741455078125" lon="2.90121875703334808349609375">
        <ele>176</ele>
        <time>2022-07-28T09:01:42.000Z</time>
      </trkpt>
      <trkpt lat="42.40460830740630626678466796875" lon="2.90134322829544544219970703125">
        <ele>177</ele>
        <time>2022-07-28T09:01:46.000Z</time>
      </trkpt>
      <trkpt lat="42.40478483028709888458251953125" lon="2.90146283805370330810546875">
        <ele>177.600006103515625</ele>
        <time>2022-07-28T09:01:50.000Z</time>
      </trkpt>
      <trkpt lat="42.40491625852882862091064453125" lon="2.90154892019927501678466796875">
        <ele>178.1999969482421875</ele>
        <time>2022-07-28T09:01:53.000Z</time>
      </trkpt>
      <trkpt lat="42.405045591294765472412109375" lon="2.90163894183933734893798828125">
        <ele>179.1999969482421875</ele>
        <time>2022-07-28T09:01:56.000Z</time>
      </trkpt>
      <trkpt lat="42.40516302175819873809814453125" lon="2.90172326378524303436279296875">
        <ele>179.8000030517578125</ele>
        <time>2022-07-28T09:01:59.000Z</time>
      </trkpt>
      <trkpt lat="42.40523627959191799163818359375" lon="2.90176886133849620819091796875">
        <ele>180.1999969482421875</ele>
        <time>2022-07-28T09:02:01.000Z</time>
      </trkpt>
      <trkpt lat="42.4053072743117809295654296875" lon="2.901817224919795989990234375">
        <ele>180.399993896484375</ele>
        <time>2022-07-28T09:02:03.000Z</time>
      </trkpt>
      <trkpt lat="42.40541632287204265594482421875" lon="2.90189458988606929779052734375">
        <ele>180.8000030517578125</ele>
        <time>2022-07-28T09:02:06.000Z</time>
      </trkpt>
      <trkpt lat="42.4055568873882293701171875" lon="2.901999950408935546875">
        <ele>181.399993896484375</ele>
        <time>2022-07-28T09:02:10.000Z</time>
      </trkpt>
      <trkpt lat="42.40569225512444972991943359375" lon="2.90208854712545871734619140625">
        <ele>181.600006103515625</ele>
        <time>2022-07-28T09:02:14.000Z</time>
      </trkpt>
      <trkpt lat="42.405831478536128997802734375" lon="2.90218695066869258880615234375">
        <ele>182.399993896484375</ele>
        <time>2022-07-28T09:02:18.000Z</time>
      </trkpt>
      <trkpt lat="42.40600355900824069976806640625" lon="2.90230765007436275482177734375">
        <ele>183.1999969482421875</ele>
        <time>2022-07-28T09:02:23.000Z</time>
      </trkpt>
      <trkpt lat="42.40603809244930744171142578125" lon="2.90232894010841846466064453125">
        <ele>183.399993896484375</ele>
        <time>2022-07-28T09:02:24.000Z</time>
      </trkpt>
      <trkpt lat="42.40627094171941280364990234375" lon="2.902486436069011688232421875">
        <ele>184.1999969482421875</ele>
        <time>2022-07-28T09:02:31.000Z</time>
      </trkpt>
      <trkpt lat="42.4063382484018802642822265625" lon="2.9025332070887088775634765625">
        <ele>184.600006103515625</ele>
        <time>2022-07-28T09:02:33.000Z</time>
      </trkpt>
      <trkpt lat="42.4065089039504528045654296875" lon="2.902655415236949920654296875">
        <ele>185.1999969482421875</ele>
        <time>2022-07-28T09:02:38.000Z</time>
      </trkpt>
      <trkpt lat="42.406687438488006591796875" lon="2.9027752764523029327392578125">
        <ele>185.600006103515625</ele>
        <time>2022-07-28T09:02:43.000Z</time>
      </trkpt>
      <trkpt lat="42.4068612791597843170166015625" lon="2.9028899408876895904541015625">
        <ele>186.399993896484375</ele>
        <time>2022-07-28T09:02:48.000Z</time>
      </trkpt>
      <trkpt lat="42.40693219006061553955078125" lon="2.90293947793543338775634765625">
        <ele>186.8000030517578125</ele>
        <time>2022-07-28T09:02:50.000Z</time>
      </trkpt>
      <trkpt lat="42.40708951838314533233642578125" lon="2.9030448384582996368408203125">
        <ele>188</ele>
        <time>2022-07-28T09:02:54.000Z</time>
      </trkpt>
      <trkpt lat="42.4072897620499134063720703125" lon="2.90318087674677371978759765625">
        <ele>188.399993896484375</ele>
        <time>2022-07-28T09:03:00.000Z</time>
      </trkpt>
      <trkpt lat="42.40741423331201076507568359375" lon="2.9032646119594573974609375">
        <ele>189</ele>
        <time>2022-07-28T09:03:03.000Z</time>
      </trkpt>
      <trkpt lat="42.4075512774288654327392578125" lon="2.9033589921891689300537109375">
        <ele>189.600006103515625</ele>
        <time>2022-07-28T09:03:06.000Z</time>
      </trkpt>
      <trkpt lat="42.4077641777694225311279296875" lon="2.903500311076641082763671875">
        <ele>190</ele>
        <time>2022-07-28T09:03:11.000Z</time>
      </trkpt>
      <trkpt lat="42.407881356775760650634765625" lon="2.90358739905059337615966796875">
        <ele>190.399993896484375</ele>
        <time>2022-07-28T09:03:14.000Z</time>
      </trkpt>
      <trkpt lat="42.4081822670996189117431640625" lon="2.90379493497312068939208984375">
        <ele>191.1999969482421875</ele>
        <time>2022-07-28T09:03:22.000Z</time>
      </trkpt>
      <trkpt lat="42.40821897983551025390625" lon="2.9038213379681110382080078125">
        <ele>191.399993896484375</ele>
        <time>2022-07-28T09:03:23.000Z</time>
      </trkpt>
      <trkpt lat="42.40846817381680011749267578125" lon="2.9039919935166835784912109375">
        <ele>192.399993896484375</ele>
        <time>2022-07-28T09:03:30.000Z</time>
      </trkpt>
      <trkpt lat="42.4086794815957546234130859375" lon="2.90413322858512401580810546875">
        <ele>193.399993896484375</ele>
        <time>2022-07-28T09:03:36.000Z</time>
      </trkpt>
      <trkpt lat="42.4087136797606945037841796875" lon="2.9041596315801143646240234375">
        <ele>193.8000030517578125</ele>
        <time>2022-07-28T09:03:37.000Z</time>
      </trkpt>
      <trkpt lat="42.4088886938989162445068359375" lon="2.90428443811833858489990234375">
        <ele>194.600006103515625</ele>
        <time>2022-07-28T09:03:42.000Z</time>
      </trkpt>
      <trkpt lat="42.40899640135467052459716796875" lon="2.90435400791466236114501953125">
        <ele>195</ele>
        <time>2022-07-28T09:03:45.000Z</time>
      </trkpt>
      <trkpt lat="42.40923142991960048675537109375" lon="2.90452013723552227020263671875">
        <ele>195.8000030517578125</ele>
        <time>2022-07-28T09:03:52.000Z</time>
      </trkpt>
      <trkpt lat="42.40932874381542205810546875" lon="2.9045923054218292236328125">
        <ele>196.1999969482421875</ele>
        <time>2022-07-28T09:03:55.000Z</time>
      </trkpt>
      <trkpt lat="42.409571819007396697998046875" lon="2.904748879373073577880859375">
        <ele>196.8000030517578125</ele>
        <time>2022-07-28T09:04:02.000Z</time>
      </trkpt>
      <trkpt lat="42.40964599885046482086181640625" lon="2.9047933034598827362060546875">
        <ele>197</ele>
        <time>2022-07-28T09:04:04.000Z</time>
      </trkpt>
      <trkpt lat="42.40984062664210796356201171875" lon="2.90487460792064666748046875">
        <ele>197.8000030517578125</ele>
        <time>2022-07-28T09:04:09.000Z</time>
      </trkpt>
      <trkpt lat="42.4100470729172229766845703125" lon="2.90496069006621837615966796875">
        <ele>198.1999969482421875</ele>
        <time>2022-07-28T09:04:14.000Z</time>
      </trkpt>
      <trkpt lat="42.4102641642093658447265625" lon="2.90505339391529560089111328125">
        <ele>198.8000030517578125</ele>
        <time>2022-07-28T09:04:19.000Z</time>
      </trkpt>
      <trkpt lat="42.410442531108856201171875" lon="2.905127070844173431396484375">
        <ele>199.8000030517578125</ele>
        <time>2022-07-28T09:04:23.000Z</time>
      </trkpt>
      <trkpt lat="42.41053280420601367950439453125" lon="2.9051654599606990814208984375">
        <ele>200</ele>
        <time>2022-07-28T09:04:25.000Z</time>
      </trkpt>
      <trkpt lat="42.4109073914587497711181640625" lon="2.90532060898840427398681640625">
        <ele>201</ele>
        <time>2022-07-28T09:04:33.000Z</time>
      </trkpt>
      <trkpt lat="42.41100319661200046539306640625" lon="2.90536352433264255523681640625">
        <ele>201</ele>
        <time>2022-07-28T09:04:35.000Z</time>
      </trkpt>
      <trkpt lat="42.4113442562520503997802734375" lon="2.90550626814365386962890625">
        <ele>202</ele>
        <time>2022-07-28T09:04:42.000Z</time>
      </trkpt>
      <trkpt lat="42.4113928712904453277587890625" lon="2.90552663616836071014404296875">
        <ele>202.1999969482421875</ele>
        <time>2022-07-28T09:04:43.000Z</time>
      </trkpt>
      <trkpt lat="42.41174935363233089447021484375" lon="2.90562721900641918182373046875">
        <ele>202.8000030517578125</ele>
        <time>2022-07-28T09:04:50.000Z</time>
      </trkpt>
      <trkpt lat="42.41191313602030277252197265625" lon="2.90564767085015773773193359375">
        <ele>203</ele>
        <time>2022-07-28T09:04:53.000Z</time>
      </trkpt>
      <trkpt lat="42.41224220953881740570068359375" lon="2.9056700505316257476806640625">
        <ele>203.399993896484375</ele>
        <time>2022-07-28T09:04:59.000Z</time>
      </trkpt>
      <trkpt lat="42.4127933196723461151123046875" lon="2.9057236947119235992431640625">
        <ele>204</ele>
        <time>2022-07-28T09:05:09.000Z</time>
      </trkpt>
      <trkpt lat="42.41290270350873470306396484375" lon="2.9057381115853786468505859375">
        <ele>204.1999969482421875</ele>
        <time>2022-07-28T09:05:11.000Z</time>
      </trkpt>
      <trkpt lat="42.4130107462406158447265625" lon="2.90577038191258907318115234375">
        <ele>204.1999969482421875</ele>
        <time>2022-07-28T09:05:13.000Z</time>
      </trkpt>
      <trkpt lat="42.4131071381270885467529296875" lon="2.90585185401141643524169921875">
        <ele>204.399993896484375</ele>
        <time>2022-07-28T09:05:15.000Z</time>
      </trkpt>
      <trkpt lat="42.41319514811038970947265625" lon="2.90605075657367706298828125">
        <ele>204.399993896484375</ele>
        <time>2022-07-28T09:05:18.000Z</time>
      </trkpt>
      <trkpt lat="42.41321635432541370391845703125" lon="2.90612258948385715484619140625">
        <ele>204.399993896484375</ele>
        <time>2022-07-28T09:05:19.000Z</time>
      </trkpt>
      <trkpt lat="42.41333805955946445465087890625" lon="2.90655962191522121429443359375">
        <ele>204.600006103515625</ele>
        <time>2022-07-28T09:05:25.000Z</time>
      </trkpt>
      <trkpt lat="42.41336924023926258087158203125" lon="2.9066242463886737823486328125">
        <ele>204.600006103515625</ele>
        <time>2022-07-28T09:05:26.000Z</time>
      </trkpt>
      <trkpt lat="42.41349144838750362396240234375" lon="2.90677855722606182098388671875">
        <ele>204.600006103515625</ele>
        <time>2022-07-28T09:05:29.000Z</time>
      </trkpt>
      <trkpt lat="42.41378850303590297698974609375" lon="2.90701643563807010650634765625">
        <ele>205.1999969482421875</ele>
        <time>2022-07-28T09:05:35.000Z</time>
      </trkpt>
      <trkpt lat="42.41383728571236133575439453125" lon="2.907056920230388641357421875">
        <ele>205.8000030517578125</ele>
        <time>2022-07-28T09:05:36.000Z</time>
      </trkpt>
      <trkpt lat="42.41398966871201992034912109375" lon="2.9071717523038387298583984375">
        <ele>206.1999969482421875</ele>
        <time>2022-07-28T09:05:39.000Z</time>
      </trkpt>
      <trkpt lat="42.414251603186130523681640625" lon="2.90732958354055881500244140625">
        <ele>206.399993896484375</ele>
        <time>2022-07-28T09:05:44.000Z</time>
      </trkpt>
      <trkpt lat="42.41451303474605083465576171875" lon="2.90743804536759853363037109375">
        <ele>207.1999969482421875</ele>
        <time>2022-07-28T09:05:49.000Z</time>
      </trkpt>
      <trkpt lat="42.41456307470798492431640625" lon="2.90744542144238948822021484375">
        <ele>207.1999969482421875</ele>
        <time>2022-07-28T09:05:50.000Z</time>
      </trkpt>
      <trkpt lat="42.41470162756741046905517578125" lon="2.90746671147644519805908203125">
        <ele>207.399993896484375</ele>
        <time>2022-07-28T09:05:53.000Z</time>
      </trkpt>
      <trkpt lat="42.4147791601717472076416015625" lon="2.90745900012552738189697265625">
        <ele>207.399993896484375</ele>
        <time>2022-07-28T09:05:55.000Z</time>
      </trkpt>
      <trkpt lat="42.41481863893568515777587890625" lon="2.907467298209667205810546875">
        <ele>207.399993896484375</ele>
        <time>2022-07-28T09:05:56.000Z</time>
      </trkpt>
      <trkpt lat="42.41490463726222515106201171875" lon="2.90753670036792755126953125">
        <ele>207.600006103515625</ele>
        <time>2022-07-28T09:05:58.000Z</time>
      </trkpt>
      <trkpt lat="42.41496272385120391845703125" lon="2.90777550078928470611572265625">
        <ele>208</ele>
        <time>2022-07-28T09:06:01.000Z</time>
      </trkpt>
      <trkpt lat="42.41496129892766475677490234375" lon="2.90812636725604534149169921875">
        <ele>208.1999969482421875</ele>
        <time>2022-07-28T09:06:05.000Z</time>
      </trkpt>
      <trkpt lat="42.41503740660846233367919921875" lon="2.9082711227238178253173828125">
        <ele>208.399993896484375</ele>
        <time>2022-07-28T09:06:07.000Z</time>
      </trkpt>
      <trkpt lat="42.4151295237243175506591796875" lon="2.9083958454430103302001953125">
        <ele>208.600006103515625</ele>
        <time>2022-07-28T09:06:09.000Z</time>
      </trkpt>
      <trkpt lat="42.41541291587054729461669921875" lon="2.90873623453080654144287109375">
        <ele>208.8000030517578125</ele>
        <time>2022-07-28T09:06:15.000Z</time>
      </trkpt>
      <trkpt lat="42.415577284991741180419921875" lon="2.9089731909334659576416015625">
        <ele>209.1999969482421875</ele>
        <time>2022-07-28T09:06:19.000Z</time>
      </trkpt>
      <trkpt lat="42.415632270276546478271484375" lon="2.90912012569606304168701171875">
        <ele>209.399993896484375</ele>
        <time>2022-07-28T09:06:21.000Z</time>
      </trkpt>
      <trkpt lat="42.4156699888408184051513671875" lon="2.9093570820987224578857421875">
        <ele>209.8000030517578125</ele>
        <time>2022-07-28T09:06:24.000Z</time>
      </trkpt>
      <trkpt lat="42.4156875908374786376953125" lon="2.9095160029828548431396484375">
        <ele>210</ele>
        <time>2022-07-28T09:06:26.000Z</time>
      </trkpt>
      <trkpt lat="42.4157152511179447174072265625" lon="2.90975354611873626708984375">
        <ele>210.1999969482421875</ele>
        <time>2022-07-28T09:06:29.000Z</time>
      </trkpt>
      <trkpt lat="42.4157893471419811248779296875" lon="2.90997222997248172760009765625">
        <ele>210.1999969482421875</ele>
        <time>2022-07-28T09:06:32.000Z</time>
      </trkpt>
      <trkpt lat="42.415868975222110748291015625" lon="2.91008957661688327789306640625">
        <ele>210.600006103515625</ele>
        <time>2022-07-28T09:06:34.000Z</time>
      </trkpt>
      <trkpt lat="42.41597031243145465850830078125" lon="2.91016082279384136199951171875">
        <ele>210.8000030517578125</ele>
        <time>2022-07-28T09:06:36.000Z</time>
      </trkpt>
      <trkpt lat="42.4161427281796932220458984375" lon="2.91019854135811328887939453125">
        <ele>211</ele>
        <time>2022-07-28T09:06:39.000Z</time>
      </trkpt>
      <trkpt lat="42.41620098240673542022705078125" lon="2.91021597571671009063720703125">
        <ele>211.1999969482421875</ele>
        <time>2022-07-28T09:06:40.000Z</time>
      </trkpt>
      <trkpt lat="42.41632302291691303253173828125" lon="2.91038244031369686126708984375">
        <ele>211.1999969482421875</ele>
        <time>2022-07-28T09:06:43.000Z</time>
      </trkpt>
      <trkpt lat="42.41633743979036808013916015625" lon="2.91055225767195224761962890625">
        <ele>211.1999969482421875</ele>
        <time>2022-07-28T09:06:45.000Z</time>
      </trkpt>
      <trkpt lat="42.416339702904224395751953125" lon="2.910728864371776580810546875">
        <ele>211.1999969482421875</ele>
        <time>2022-07-28T09:06:47.000Z</time>
      </trkpt>
      <trkpt lat="42.4163472466170787811279296875" lon="2.9111840017139911651611328125">
        <ele>211.1999969482421875</ele>
        <time>2022-07-28T09:06:52.000Z</time>
      </trkpt>
      <trkpt lat="42.4163769185543060302734375" lon="2.911361865699291229248046875">
        <ele>211.1999969482421875</ele>
        <time>2022-07-28T09:06:54.000Z</time>
      </trkpt>
      <trkpt lat="42.41652452386915683746337890625" lon="2.91167509742081165313720703125">
        <ele>211</ele>
        <time>2022-07-28T09:06:58.000Z</time>
      </trkpt>
      <trkpt lat="42.41682141087949275970458984375" lon="2.9121016524732112884521484375">
        <ele>211</ele>
        <time>2022-07-28T09:07:04.000Z</time>
      </trkpt>
      <trkpt lat="42.41722122766077518463134765625" lon="2.9126843623816967010498046875">
        <ele>211.399993896484375</ele>
        <time>2022-07-28T09:07:12.000Z</time>
      </trkpt>
      <trkpt lat="42.41731904447078704833984375" lon="2.9128235019743442535400390625">
        <ele>211.399993896484375</ele>
        <time>2022-07-28T09:07:14.000Z</time>
      </trkpt>
      <trkpt lat="42.417692206799983978271484375" lon="2.913358099758625030517578125">
        <ele>211.600006103515625</ele>
        <time>2022-07-28T09:07:22.000Z</time>
      </trkpt>
      <trkpt lat="42.41773839108645915985107421875" lon="2.913422472774982452392578125">
        <ele>211.600006103515625</ele>
        <time>2022-07-28T09:07:23.000Z</time>
      </trkpt>
      <trkpt lat="42.4181285686790943145751953125" lon="2.91398615576326847076416015625">
        <ele>212.399993896484375</ele>
        <time>2022-07-28T09:07:32.000Z</time>
      </trkpt>
      <trkpt lat="42.41817089729011058807373046875" lon="2.9140465892851352691650390625">
        <ele>212.8000030517578125</ele>
        <time>2022-07-28T09:07:33.000Z</time>
      </trkpt>
      <trkpt lat="42.4183327518403530120849609375" lon="2.9142816178500652313232421875">
        <ele>214</ele>
        <time>2022-07-28T09:07:37.000Z</time>
      </trkpt>
      <trkpt lat="42.41843442432582378387451171875" lon="2.914473898708820343017578125">
        <ele>214.1999969482421875</ele>
        <time>2022-07-28T09:07:40.000Z</time>
      </trkpt>
      <trkpt lat="42.41845990531146526336669921875" lon="2.91469953954219818115234375">
        <ele>214.1999969482421875</ele>
        <time>2022-07-28T09:07:43.000Z</time>
      </trkpt>
      <trkpt lat="42.41843593306839466094970703125" lon="2.91485519148409366607666015625">
        <ele>214.399993896484375</ele>
        <time>2022-07-28T09:07:45.000Z</time>
      </trkpt>
      <trkpt lat="42.418367452919483184814453125" lon="2.9152324609458446502685546875">
        <ele>214.8000030517578125</ele>
        <time>2022-07-28T09:07:50.000Z</time>
      </trkpt>
      <trkpt lat="42.418351359665393829345703125" lon="2.9153726063668727874755859375">
        <ele>215</ele>
        <time>2022-07-28T09:07:52.000Z</time>
      </trkpt>
      <trkpt lat="42.4183287285268306732177734375" lon="2.9155410826206207275390625">
        <ele>215.1999969482421875</ele>
        <time>2022-07-28T09:07:55.000Z</time>
      </trkpt>
      <trkpt lat="42.41834490559995174407958984375" lon="2.9156498797237873077392578125">
        <ele>215.600006103515625</ele>
        <time>2022-07-28T09:07:58.000Z</time>
      </trkpt>
      <trkpt lat="42.41835613735020160675048828125" lon="2.91566379368305206298828125">
        <ele>215.600006103515625</ele>
        <time>2022-07-28T09:07:59.000Z</time>
      </trkpt>
      <trkpt lat="42.4183617532253265380859375" lon="2.9156679846346378326416015625">
        <ele>215.8000030517578125</ele>
        <time>2022-07-28T09:08:00.000Z</time>
      </trkpt>
      <trkpt lat="42.41845487616956233978271484375" lon="2.91575104929506778717041015625">
        <ele>218.399993896484375</ele>
        <time>2022-07-28T09:09:46.000Z</time>
      </trkpt>
      <trkpt lat="42.41847105324268341064453125" lon="2.91578315198421478271484375">
        <ele>218.399993896484375</ele>
        <time>2022-07-28T09:09:47.000Z</time>
      </trkpt>
      <trkpt lat="42.41854355670511722564697265625" lon="2.915967218577861785888671875">
        <ele>218.399993896484375</ele>
        <time>2022-07-28T09:09:51.000Z</time>
      </trkpt>
      <trkpt lat="42.4185553751885890960693359375" lon="2.91602513752877712249755859375">
        <ele>218.399993896484375</ele>
        <time>2022-07-28T09:09:52.000Z</time>
      </trkpt>
      <trkpt lat="42.41853500716388225555419921875" lon="2.916293106973171234130859375">
        <ele>218.1999969482421875</ele>
        <time>2022-07-28T09:09:56.000Z</time>
      </trkpt>
      <trkpt lat="42.4184749089181423187255859375" lon="2.91661958210170269012451171875">
        <ele>217.399993896484375</ele>
        <time>2022-07-28T09:10:00.000Z</time>
      </trkpt>
      <trkpt lat="42.4184390343725681304931640625" lon="2.91679878719151020050048828125">
        <ele>217</ele>
        <time>2022-07-28T09:10:02.000Z</time>
      </trkpt>
      <trkpt lat="42.41838513873517513275146484375" lon="2.91718938387930393218994140625">
        <ele>216.1999969482421875</ele>
        <time>2022-07-28T09:10:06.000Z</time>
      </trkpt>
      <trkpt lat="42.41839804686605930328369140625" lon="2.91729114018380641937255859375">
        <ele>215.8000030517578125</ele>
        <time>2022-07-28T09:10:07.000Z</time>
      </trkpt>
      <trkpt lat="42.418429814279079437255859375" lon="2.91738602332770824432373046875">
        <ele>215</ele>
        <time>2022-07-28T09:10:08.000Z</time>
      </trkpt>
      <trkpt lat="42.41853433661162853240966796875" lon="2.9175522364675998687744140625">
        <ele>213.8000030517578125</ele>
        <time>2022-07-28T09:10:10.000Z</time>
      </trkpt>
      <trkpt lat="42.41859418340027332305908203125" lon="2.91763010434806346893310546875">
        <ele>213.600006103515625</ele>
        <time>2022-07-28T09:10:11.000Z</time>
      </trkpt>
      <trkpt lat="42.41870314814150333404541015625" lon="2.91781417094171047210693359375">
        <ele>213.399993896484375</ele>
        <time>2022-07-28T09:10:13.000Z</time>
      </trkpt>
      <trkpt lat="42.41872393526136875152587890625" lon="2.91792766191065311431884765625">
        <ele>213.399993896484375</ele>
        <time>2022-07-28T09:10:14.000Z</time>
      </trkpt>
      <trkpt lat="42.4186804331839084625244140625" lon="2.918154560029506683349609375">
        <ele>213</ele>
        <time>2022-07-28T09:10:16.000Z</time>
      </trkpt>
      <trkpt lat="42.41861832328140735626220703125" lon="2.918245755136013031005859375">
        <ele>212.8000030517578125</ele>
        <time>2022-07-28T09:10:17.000Z</time>
      </trkpt>
      <trkpt lat="42.41854883730411529541015625" lon="2.918330244719982147216796875">
        <ele>212.8000030517578125</ele>
        <time>2022-07-28T09:10:18.000Z</time>
      </trkpt>
      <trkpt lat="42.418403327465057373046875" lon="2.91849553585052490234375">
        <ele>212.600006103515625</ele>
        <time>2022-07-28T09:10:20.000Z</time>
      </trkpt>
      <trkpt lat="42.4181798659265041351318359375" lon="2.91876099072396755218505859375">
        <ele>211.399993896484375</ele>
        <time>2022-07-28T09:10:23.000Z</time>
      </trkpt>
      <trkpt lat="42.418118678033351898193359375" lon="2.918863333761692047119140625">
        <ele>209.600006103515625</ele>
        <time>2022-07-28T09:10:24.000Z</time>
      </trkpt>
      <trkpt lat="42.418076097965240478515625" lon="2.91898059658706188201904296875">
        <ele>208.399993896484375</ele>
        <time>2022-07-28T09:10:25.000Z</time>
      </trkpt>
      <trkpt lat="42.418060004711151123046875" lon="2.91924663819372653961181640625">
        <ele>207.399993896484375</ele>
        <time>2022-07-28T09:10:27.000Z</time>
      </trkpt>
      <trkpt lat="42.41806863807141780853271484375" lon="2.91938359849154949188232421875">
        <ele>206.8000030517578125</ele>
        <time>2022-07-28T09:10:28.000Z</time>
      </trkpt>
      <trkpt lat="42.4180802889168262481689453125" lon="2.9195216484367847442626953125">
        <ele>206</ele>
        <time>2022-07-28T09:10:29.000Z</time>
      </trkpt>
      <trkpt lat="42.4181027524173259735107421875" lon="2.91979950852692127227783203125">
        <ele>204.600006103515625</ele>
        <time>2022-07-28T09:10:31.000Z</time>
      </trkpt>
      <trkpt lat="42.4180987291038036346435546875" lon="2.91993713937699794769287109375">
        <ele>204.399993896484375</ele>
        <time>2022-07-28T09:10:32.000Z</time>
      </trkpt>
      <trkpt lat="42.41806964389979839324951171875" lon="2.9200621135532855987548828125">
        <ele>204</ele>
        <time>2022-07-28T09:10:33.000Z</time>
      </trkpt>
      <trkpt lat="42.417934946715831756591796875" lon="2.92024240829050540924072265625">
        <ele>203.600006103515625</ele>
        <time>2022-07-28T09:10:35.000Z</time>
      </trkpt>
      <trkpt lat="42.41784718818962574005126953125" lon="2.92030133306980133056640625">
        <ele>203</ele>
        <time>2022-07-28T09:10:36.000Z</time>
      </trkpt>
      <trkpt lat="42.41776253096759319305419921875" lon="2.9203628562390804290771484375">
        <ele>202.1999969482421875</ele>
        <time>2022-07-28T09:10:37.000Z</time>
      </trkpt>
      <trkpt lat="42.41763152182102203369140625" lon="2.9205358587205410003662109375">
        <ele>201.399993896484375</ele>
        <time>2022-07-28T09:10:39.000Z</time>
      </trkpt>
      <trkpt lat="42.4175787158310413360595703125" lon="2.9207819513976573944091796875">
        <ele>201</ele>
        <time>2022-07-28T09:10:41.000Z</time>
      </trkpt>
      <trkpt lat="42.41758734919130802154541015625" lon="2.9212097637355327606201171875">
        <ele>200</ele>
        <time>2022-07-28T09:10:44.000Z</time>
      </trkpt>
      <trkpt lat="42.41759656928479671478271484375" lon="2.92135619558393955230712890625">
        <ele>199.600006103515625</ele>
        <time>2022-07-28T09:10:45.000Z</time>
      </trkpt>
      <trkpt lat="42.4176176078617572784423828125" lon="2.92165257968008518218994140625">
        <ele>198.1999969482421875</ele>
        <time>2022-07-28T09:10:47.000Z</time>
      </trkpt>
      <trkpt lat="42.41763864643871784210205078125" lon="2.9218005202710628509521484375">
        <ele>197.8000030517578125</ele>
        <time>2022-07-28T09:10:48.000Z</time>
      </trkpt>
      <trkpt lat="42.41772447712719440460205078125" lon="2.92207787744700908660888671875">
        <ele>197</ele>
        <time>2022-07-28T09:10:50.000Z</time>
      </trkpt>
      <trkpt lat="42.41783939301967620849609375" lon="2.92232950218021869659423828125">
        <ele>195.399993896484375</ele>
        <time>2022-07-28T09:10:52.000Z</time>
      </trkpt>
      <trkpt lat="42.41795129142701625823974609375" lon="2.92256620712578296661376953125">
        <ele>194.1999969482421875</ele>
        <time>2022-07-28T09:10:54.000Z</time>
      </trkpt>
      <trkpt lat="42.41801910102367401123046875" lon="2.92266779579222202301025390625">
        <ele>193.600006103515625</ele>
        <time>2022-07-28T09:10:55.000Z</time>
      </trkpt>
      <trkpt lat="42.41819067858159542083740234375" lon="2.9228097014129161834716796875">
        <ele>193</ele>
        <time>2022-07-28T09:10:57.000Z</time>
      </trkpt>
      <trkpt lat="42.418286316096782684326171875" lon="2.92285479605197906494140625">
        <ele>192.8000030517578125</ele>
        <time>2022-07-28T09:10:58.000Z</time>
      </trkpt>
      <trkpt lat="42.41838480345904827117919921875" lon="2.9228915087878704071044921875">
        <ele>192.600006103515625</ele>
        <time>2022-07-28T09:10:59.000Z</time>
      </trkpt>
      <trkpt lat="42.41877674125134944915771484375" lon="2.92301899753510951995849609375">
        <ele>191.8000030517578125</ele>
        <time>2022-07-28T09:11:03.000Z</time>
      </trkpt>
      <trkpt lat="42.4188745580613613128662109375" lon="2.92304950766265392303466796875">
        <ele>191.600006103515625</ele>
        <time>2022-07-28T09:11:04.000Z</time>
      </trkpt>
      <trkpt lat="42.4192554317414760589599609375" lon="2.92320214211940765380859375">
        <ele>190.8000030517578125</ele>
        <time>2022-07-28T09:11:08.000Z</time>
      </trkpt>
      <trkpt lat="42.419342100620269775390625" lon="2.923264168202877044677734375">
        <ele>190.600006103515625</ele>
        <time>2022-07-28T09:11:09.000Z</time>
      </trkpt>
      <trkpt lat="42.41954117082059383392333984375" lon="2.92352492921054363250732421875">
        <ele>189.8000030517578125</ele>
        <time>2022-07-28T09:11:12.000Z</time>
      </trkpt>
      <trkpt lat="42.41958391852676868438720703125" lon="2.9236157052218914031982421875">
        <ele>189.600006103515625</ele>
        <time>2022-07-28T09:11:13.000Z</time>
      </trkpt>
      <trkpt lat="42.41964041255414485931396484375" lon="2.92378208599984645843505859375">
        <ele>189</ele>
        <time>2022-07-28T09:11:15.000Z</time>
      </trkpt>
      <trkpt lat="42.41966304369270801544189453125" lon="2.9239164479076862335205078125">
        <ele>188.8000030517578125</ele>
        <time>2022-07-28T09:11:17.000Z</time>
      </trkpt>
      <trkpt lat="42.4196708388626575469970703125" lon="2.92401141487061977386474609375">
        <ele>188.600006103515625</ele>
        <time>2022-07-28T09:11:19.000Z</time>
      </trkpt>
      <trkpt lat="42.4196708388626575469970703125" lon="2.92404544539749622344970703125">
        <ele>188.600006103515625</ele>
        <time>2022-07-28T09:11:20.000Z</time>
      </trkpt>
      <trkpt lat="42.4196178652346134185791015625" lon="2.9243543185293674468994140625">
        <ele>187.8000030517578125</ele>
        <time>2022-07-28T09:17:12.000Z</time>
      </trkpt>
      <trkpt lat="42.4196306057274341583251953125" lon="2.92440251447260379791259765625">
        <ele>187.8000030517578125</ele>
        <time>2022-07-28T09:17:13.000Z</time>
      </trkpt>
      <trkpt lat="42.41964586079120635986328125" lon="2.92445481754839420318603515625">
        <ele>187.8000030517578125</ele>
        <time>2022-07-28T09:17:14.000Z</time>
      </trkpt>
      <trkpt lat="42.41974602453410625457763671875" lon="2.9247844778001308441162109375">
        <ele>187.600006103515625</ele>
        <time>2022-07-28T09:17:19.000Z</time>
      </trkpt>
      <trkpt lat="42.4198096431791782379150390625" lon="2.92498421855270862579345703125">
        <ele>186.8000030517578125</ele>
        <time>2022-07-28T09:17:22.000Z</time>
      </trkpt>
      <trkpt lat="42.419842667877674102783203125" lon="2.9251160658895969390869140625">
        <ele>186.1999969482421875</ele>
        <time>2022-07-28T09:17:24.000Z</time>
      </trkpt>
      <trkpt lat="42.419856749475002288818359375" lon="2.9251837916672229766845703125">
        <ele>186</ele>
        <time>2022-07-28T09:17:25.000Z</time>
      </trkpt>
      <trkpt lat="42.41987443529069423675537109375" lon="2.925251685082912445068359375">
        <ele>185.8000030517578125</ele>
        <time>2022-07-28T09:17:26.000Z</time>
      </trkpt>
      <trkpt lat="42.4199631996452808380126953125" lon="2.92556173168122768402099609375">
        <ele>185.399993896484375</ele>
        <time>2022-07-28T09:17:31.000Z</time>
      </trkpt>
      <trkpt lat="42.4199715815484523773193359375" lon="2.92560414411127567291259765625">
        <ele>185.399993896484375</ele>
        <time>2022-07-28T09:17:32.000Z</time>
      </trkpt>
      <trkpt lat="42.41996982134878635406494140625" lon="2.92564429342746734619140625">
        <ele>185.399993896484375</ele>
        <time>2022-07-28T09:17:33.000Z</time>
      </trkpt>
      <trkpt lat="42.41995389573276042938232421875" lon="2.9256784915924072265625">
        <ele>185.399993896484375</ele>
        <time>2022-07-28T09:17:34.000Z</time>
      </trkpt>
      <trkpt lat="42.4198659695684909820556640625" lon="2.9258261807262897491455078125">
        <ele>185.1999969482421875</ele>
        <time>2022-07-28T09:17:38.000Z</time>
      </trkpt>
      <trkpt lat="42.41988700814545154571533203125" lon="2.92602784931659698486328125">
        <ele>185</ele>
        <time>2022-07-28T09:17:41.000Z</time>
      </trkpt>
      <trkpt lat="42.4199018441140651702880859375" lon="2.9261011071503162384033203125">
        <ele>184.8000030517578125</ele>
        <time>2022-07-28T09:17:42.000Z</time>
      </trkpt>
      <trkpt lat="42.41991802118718624114990234375" lon="2.92617931030690670013427734375">
        <ele>184.8000030517578125</ele>
        <time>2022-07-28T09:17:43.000Z</time>
      </trkpt>
      <trkpt lat="42.41998809389770030975341796875" lon="2.9265396483242511749267578125">
        <ele>183.8000030517578125</ele>
        <time>2022-07-28T09:17:47.000Z</time>
      </trkpt>
      <trkpt lat="42.42000686936080455780029296875" lon="2.92663461528718471527099609375">
        <ele>183.600006103515625</ele>
        <time>2022-07-28T09:17:48.000Z</time>
      </trkpt>
      <trkpt lat="42.42006453685462474822998046875" lon="2.92689554393291473388671875">
        <ele>182.600006103515625</ele>
        <time>2022-07-28T09:17:51.000Z</time>
      </trkpt>
      <trkpt lat="42.42007878609001636505126953125" lon="2.9269677959382534027099609375">
        <ele>182</ele>
        <time>2022-07-28T09:17:52.000Z</time>
      </trkpt>
      <trkpt lat="42.4200885929167270660400390625" lon="2.92703392915427684783935546875">
        <ele>181.399993896484375</ele>
        <time>2022-07-28T09:17:53.000Z</time>
      </trkpt>
      <trkpt lat="42.42005934007465839385986328125" lon="2.92712948285043239593505859375">
        <ele>181</ele>
        <time>2022-07-28T09:17:55.000Z</time>
      </trkpt>
      <trkpt lat="42.419927157461643218994140625" lon="2.92720265686511993408203125">
        <ele>180.600006103515625</ele>
        <time>2022-07-28T09:17:58.000Z</time>
      </trkpt>
      <trkpt lat="42.4198237247765064239501953125" lon="2.92726971209049224853515625">
        <ele>180.1999969482421875</ele>
        <time>2022-07-28T09:18:00.000Z</time>
      </trkpt>
      <trkpt lat="42.41977301426231861114501953125" lon="2.927317656576633453369140625">
        <ele>180.1999969482421875</ele>
        <time>2022-07-28T09:18:01.000Z</time>
      </trkpt>
      <trkpt lat="42.41972154937684535980224609375" lon="2.927370965480804443359375">
        <ele>180</ele>
        <time>2022-07-28T09:18:02.000Z</time>
      </trkpt>
      <trkpt lat="42.41935609839856624603271484375" lon="2.92778226546943187713623046875">
        <ele>179.600006103515625</ele>
        <time>2022-07-28T09:18:09.000Z</time>
      </trkpt>
      <trkpt lat="42.4193050526082515716552734375" lon="2.9278475604951381683349609375">
        <ele>179</ele>
        <time>2022-07-28T09:18:10.000Z</time>
      </trkpt>
      <trkpt lat="42.4191481433808803558349609375" lon="2.9280470497906208038330078125">
        <ele>177.8000030517578125</ele>
        <time>2022-07-28T09:18:13.000Z</time>
      </trkpt>
      <trkpt lat="42.41898612119257450103759765625" lon="2.92825098149478435516357421875">
        <ele>177.399993896484375</ele>
        <time>2022-07-28T09:18:16.000Z</time>
      </trkpt>
      <trkpt lat="42.4187769927084445953369140625" lon="2.9285144247114658355712890625">
        <ele>176.8000030517578125</ele>
        <time>2022-07-28T09:18:20.000Z</time>
      </trkpt>
      <trkpt lat="42.41861379705369472503662109375" lon="2.92870745994150638580322265625">
        <ele>176</ele>
        <time>2022-07-28T09:18:23.000Z</time>
      </trkpt>
      <trkpt lat="42.418510615825653076171875" lon="2.9288510419428348541259765625">
        <ele>175.600006103515625</ele>
        <time>2022-07-28T09:18:25.000Z</time>
      </trkpt>
      <trkpt lat="42.41835596971213817596435546875" lon="2.92906905524432659149169921875">
        <ele>175.399993896484375</ele>
        <time>2022-07-28T09:18:28.000Z</time>
      </trkpt>
      <trkpt lat="42.41830919869244098663330078125" lon="2.929148264229297637939453125">
        <ele>175.1999969482421875</ele>
        <time>2022-07-28T09:18:29.000Z</time>
      </trkpt>
      <trkpt lat="42.41820660419762134552001953125" lon="2.92929486371576786041259765625">
        <ele>174.399993896484375</ele>
        <time>2022-07-28T09:18:31.000Z</time>
      </trkpt>
      <trkpt lat="42.41809143684804439544677734375" lon="2.9294293932616710662841796875">
        <ele>173.399993896484375</ele>
        <time>2022-07-28T09:18:33.000Z</time>
      </trkpt>
      <trkpt lat="42.41786747239530086517333984375" lon="2.92972552590072154998779296875">
        <ele>172.1999969482421875</ele>
        <time>2022-07-28T09:18:37.000Z</time>
      </trkpt>
      <trkpt lat="42.41775549016892910003662109375" lon="2.929874472320079803466796875">
        <ele>171.8000030517578125</ele>
        <time>2022-07-28T09:18:39.000Z</time>
      </trkpt>
      <trkpt lat="42.4176390655338764190673828125" lon="2.930025346577167510986328125">
        <ele>171.1999969482421875</ele>
        <time>2022-07-28T09:18:41.000Z</time>
      </trkpt>
      <trkpt lat="42.41739892400801181793212890625" lon="2.93032483197748661041259765625">
        <ele>169.8000030517578125</ele>
        <time>2022-07-28T09:18:45.000Z</time>
      </trkpt>
      <trkpt lat="42.41727084852755069732666015625" lon="2.93047050945460796356201171875">
        <ele>169</ele>
        <time>2022-07-28T09:18:47.000Z</time>
      </trkpt>
      <trkpt lat="42.417206726968288421630859375" lon="2.930544354021549224853515625">
        <ele>168.600006103515625</ele>
        <time>2022-07-28T09:18:48.000Z</time>
      </trkpt>
      <trkpt lat="42.41682224906980991363525390625" lon="2.93098415248095989227294921875">
        <ele>167.399993896484375</ele>
        <time>2022-07-28T09:18:54.000Z</time>
      </trkpt>
      <trkpt lat="42.41675770841538906097412109375" lon="2.93105565011501312255859375">
        <ele>167.1999969482421875</ele>
        <time>2022-07-28T09:18:55.000Z</time>
      </trkpt>
      <trkpt lat="42.41649401374161243438720703125" lon="2.9313411377370357513427734375">
        <ele>166.399993896484375</ele>
        <time>2022-07-28T09:18:59.000Z</time>
      </trkpt>
      <trkpt lat="42.41629418917000293731689453125" lon="2.9315619170665740966796875">
        <ele>165.1999969482421875</ele>
        <time>2022-07-28T09:19:02.000Z</time>
      </trkpt>
      <trkpt lat="42.416164018213748931884765625" lon="2.9317040741443634033203125">
        <ele>164.600006103515625</ele>
        <time>2022-07-28T09:19:04.000Z</time>
      </trkpt>
      <trkpt lat="42.4158959649503231048583984375" lon="2.9319778271019458770751953125">
        <ele>164</ele>
        <time>2022-07-28T09:19:08.000Z</time>
      </trkpt>
      <trkpt lat="42.41560511291027069091796875" lon="2.9322426952421665191650390625">
        <ele>163.8000030517578125</ele>
        <time>2022-07-28T09:19:12.000Z</time>
      </trkpt>
      <trkpt lat="42.41516095586121082305908203125" lon="2.932655923068523406982421875">
        <ele>163.600006103515625</ele>
        <time>2022-07-28T09:19:18.000Z</time>
      </trkpt>
      <trkpt lat="42.41501209326088428497314453125" lon="2.932800762355327606201171875">
        <ele>163</ele>
        <time>2022-07-28T09:19:20.000Z</time>
      </trkpt>
      <trkpt lat="42.41493749432265758514404296875" lon="2.932872511446475982666015625">
        <ele>162.399993896484375</ele>
        <time>2022-07-28T09:19:21.000Z</time>
      </trkpt>
      <trkpt lat="42.4148633144795894622802734375" lon="2.93294434435665607452392578125">
        <ele>162</ele>
        <time>2022-07-28T09:19:22.000Z</time>
      </trkpt>
      <trkpt lat="42.41458076052367687225341796875" lon="2.93323771096765995025634765625">
        <ele>160.600006103515625</ele>
        <time>2022-07-28T09:19:26.000Z</time>
      </trkpt>
      <trkpt lat="42.4144475720822811126708984375" lon="2.93338037095963954925537109375">
        <ele>160</ele>
        <time>2022-07-28T09:19:28.000Z</time>
      </trkpt>
      <trkpt lat="42.41431388072669506072998046875" lon="2.933526299893856048583984375">
        <ele>159.399993896484375</ele>
        <time>2022-07-28T09:19:30.000Z</time>
      </trkpt>
      <trkpt lat="42.41404549218714237213134765625" lon="2.9338258691132068634033203125">
        <ele>158.399993896484375</ele>
        <time>2022-07-28T09:19:34.000Z</time>
      </trkpt>
      <trkpt lat="42.41397609002888202667236328125" lon="2.93389954604208469390869140625">
        <ele>158.1999969482421875</ele>
        <time>2022-07-28T09:19:35.000Z</time>
      </trkpt>
      <trkpt lat="42.413634695112705230712890625" lon="2.93427765369415283203125">
        <ele>157</ele>
        <time>2022-07-28T09:19:40.000Z</time>
      </trkpt>
      <trkpt lat="42.413448952138423919677734375" lon="2.93453422375023365020751953125">
        <ele>156.600006103515625</ele>
        <time>2022-07-28T09:19:43.000Z</time>
      </trkpt>
      <trkpt lat="42.41315625607967376708984375" lon="2.93497209437191486358642578125">
        <ele>155.8000030517578125</ele>
        <time>2022-07-28T09:19:48.000Z</time>
      </trkpt>
      <trkpt lat="42.41303647868335247039794921875" lon="2.935144342482089996337890625">
        <ele>155.1999969482421875</ele>
        <time>2022-07-28T09:19:50.000Z</time>
      </trkpt>
      <trkpt lat="42.412906475365161895751953125" lon="2.93530804105103015899658203125">
        <ele>154.600006103515625</ele>
        <time>2022-07-28T09:19:52.000Z</time>
      </trkpt>
      <trkpt lat="42.412695586681365966796875" lon="2.9355304129421710968017578125">
        <ele>153.8000030517578125</ele>
        <time>2022-07-28T09:19:55.000Z</time>
      </trkpt>
      <trkpt lat="42.41255342960357666015625" lon="2.93566812761127948760986328125">
        <ele>153.399993896484375</ele>
        <time>2022-07-28T09:19:57.000Z</time>
      </trkpt>
      <trkpt lat="42.4122615717351436614990234375" lon="2.93592561967670917510986328125">
        <ele>152.1999969482421875</ele>
        <time>2022-07-28T09:20:01.000Z</time>
      </trkpt>
      <trkpt lat="42.4121800996363162994384765625" lon="2.935978509485721588134765625">
        <ele>152</ele>
        <time>2022-07-28T09:20:02.000Z</time>
      </trkpt>
      <trkpt lat="42.4120111204683780670166015625" lon="2.9360735602676868438720703125">
        <ele>151</ele>
        <time>2022-07-28T09:20:04.000Z</time>
      </trkpt>
      <trkpt lat="42.4115796200931072235107421875" lon="2.936299704015254974365234375">
        <ele>149.8000030517578125</ele>
        <time>2022-07-28T09:20:09.000Z</time>
      </trkpt>
      <trkpt lat="42.4112383089959621429443359375" lon="2.9365198127925395965576171875">
        <ele>148.8000030517578125</ele>
        <time>2022-07-28T09:20:13.000Z</time>
      </trkpt>
      <trkpt lat="42.41107285022735595703125" lon="2.93664864264428615570068359375">
        <ele>148.399993896484375</ele>
        <time>2022-07-28T09:20:15.000Z</time>
      </trkpt>
      <trkpt lat="42.41066993214190006256103515625" lon="2.9370009340345859527587890625">
        <ele>147.8000030517578125</ele>
        <time>2022-07-28T09:20:20.000Z</time>
      </trkpt>
      <trkpt lat="42.41041763685643672943115234375" lon="2.9371994175016880035400390625">
        <ele>147.1999969482421875</ele>
        <time>2022-07-28T09:20:23.000Z</time>
      </trkpt>
      <trkpt lat="42.40991623140871524810791015625" lon="2.93762630783021450042724609375">
        <ele>146.8000030517578125</ele>
        <time>2022-07-28T09:20:29.000Z</time>
      </trkpt>
      <trkpt lat="42.40955547429621219635009765625" lon="2.938100136816501617431640625">
        <ele>145.1999969482421875</ele>
        <time>2022-07-28T09:20:34.000Z</time>
      </trkpt>
      <trkpt lat="42.40949093364179134368896484375" lon="2.9381861351430416107177734375">
        <ele>144.600006103515625</ele>
        <time>2022-07-28T09:20:35.000Z</time>
      </trkpt>
      <trkpt lat="42.4094308353960514068603515625" lon="2.93827171437442302703857421875">
        <ele>144</ele>
        <time>2022-07-28T09:20:36.000Z</time>
      </trkpt>
      <trkpt lat="42.40916638635098934173583984375" lon="2.938681505620479583740234375">
        <ele>143.399993896484375</ele>
        <time>2022-07-28T09:20:41.000Z</time>
      </trkpt>
      <trkpt lat="42.40876455791294574737548828125" lon="2.9392291791737079620361328125">
        <ele>143.600006103515625</ele>
        <time>2022-07-28T09:20:48.000Z</time>
      </trkpt>
      <trkpt lat="42.408694066107273101806640625" lon="2.93928793631494045257568359375">
        <ele>143.8000030517578125</ele>
        <time>2022-07-28T09:20:49.000Z</time>
      </trkpt>
      <trkpt lat="42.40846884436905384063720703125" lon="2.93941877782344818115234375">
        <ele>143.8000030517578125</ele>
        <time>2022-07-28T09:20:52.000Z</time>
      </trkpt>
      <trkpt lat="42.4083981849253177642822265625" lon="2.93947351165115833282470703125">
        <ele>144</ele>
        <time>2022-07-28T09:20:53.000Z</time>
      </trkpt>
      <trkpt lat="42.4082764796912670135498046875" lon="2.93962036259472370147705078125">
        <ele>144</ele>
        <time>2022-07-28T09:20:55.000Z</time>
      </trkpt>
      <trkpt lat="42.40788093768060207366943359375" lon="2.9401850514113903045654296875">
        <ele>143.399993896484375</ele>
        <time>2022-07-28T09:21:02.000Z</time>
      </trkpt>
      <trkpt lat="42.40777096711099147796630859375" lon="2.94034439139068126678466796875">
        <ele>143.1999969482421875</ele>
        <time>2022-07-28T09:21:04.000Z</time>
      </trkpt>
      <trkpt lat="42.407715730369091033935546875" lon="2.94042301364243030548095703125">
        <ele>143</ele>
        <time>2022-07-28T09:21:05.000Z</time>
      </trkpt>
      <trkpt lat="42.40739411674439907073974609375" lon="2.940878234803676605224609375">
        <ele>141.8000030517578125</ele>
        <time>2022-07-28T09:21:11.000Z</time>
      </trkpt>
      <trkpt lat="42.40728934295475482940673828125" lon="2.9410239122807979583740234375">
        <ele>141.399993896484375</ele>
        <time>2022-07-28T09:21:13.000Z</time>
      </trkpt>
      <trkpt lat="42.40687410347163677215576171875" lon="2.9416186921298503875732421875">
        <ele>140.8000030517578125</ele>
        <time>2022-07-28T09:21:21.000Z</time>
      </trkpt>
      <trkpt lat="42.4065135978162288665771484375" lon="2.94216376729309558868408203125">
        <ele>140.600006103515625</ele>
        <time>2022-07-28T09:21:28.000Z</time>
      </trkpt>
      <trkpt lat="42.406359873712062835693359375" lon="2.94239963404834270477294921875">
        <ele>140.600006103515625</ele>
        <time>2022-07-28T09:21:31.000Z</time>
      </trkpt>
      <trkpt lat="42.4060049839317798614501953125" lon="2.94295149855315685272216796875">
        <ele>139.8000030517578125</ele>
        <time>2022-07-28T09:21:38.000Z</time>
      </trkpt>
      <trkpt lat="42.40595947019755840301513671875" lon="2.94303665868937969207763671875">
        <ele>139.600006103515625</ele>
        <time>2022-07-28T09:21:39.000Z</time>
      </trkpt>
      <trkpt lat="42.4059204943478107452392578125" lon="2.943127267062664031982421875">
        <ele>139.600006103515625</ele>
        <time>2022-07-28T09:21:40.000Z</time>
      </trkpt>
      <trkpt lat="42.4058333225548267364501953125" lon="2.9435331188142299652099609375">
        <ele>139.1999969482421875</ele>
        <time>2022-07-28T09:21:44.000Z</time>
      </trkpt>
      <trkpt lat="42.40569275803864002227783203125" lon="2.9437936283648014068603515625">
        <ele>139</ele>
        <time>2022-07-28T09:21:47.000Z</time>
      </trkpt>
      <trkpt lat="42.40563525818288326263427734375" lon="2.9438680596649646759033203125">
        <ele>139</ele>
        <time>2022-07-28T09:21:48.000Z</time>
      </trkpt>
      <trkpt lat="42.40535899065434932708740234375" lon="2.94424599967896938323974609375">
        <ele>138.8000030517578125</ele>
        <time>2022-07-28T09:21:53.000Z</time>
      </trkpt>
      <trkpt lat="42.40531490184366703033447265625" lon="2.9443334229290485382080078125">
        <ele>138.8000030517578125</ele>
        <time>2022-07-28T09:21:54.000Z</time>
      </trkpt>
      <trkpt lat="42.40511231124401092529296875" lon="2.94477774761617183685302734375">
        <ele>138.600006103515625</ele>
        <time>2022-07-28T09:21:59.000Z</time>
      </trkpt>
      <trkpt lat="42.40507702343165874481201171875" lon="2.94486961327493190765380859375">
        <ele>138.399993896484375</ele>
        <time>2022-07-28T09:22:00.000Z</time>
      </trkpt>
      <trkpt lat="42.40505338646471500396728515625" lon="2.94496784918010234832763671875">
        <ele>138.399993896484375</ele>
        <time>2022-07-28T09:22:01.000Z</time>
      </trkpt>
      <trkpt lat="42.4050340242683887481689453125" lon="2.94527580030262470245361328125">
        <ele>138.1999969482421875</ele>
        <time>2022-07-28T09:22:04.000Z</time>
      </trkpt>
      <trkpt lat="42.4050330184400081634521484375" lon="2.9453781433403491973876953125">
        <ele>138.1999969482421875</ele>
        <time>2022-07-28T09:22:05.000Z</time>
      </trkpt>
      <trkpt lat="42.4050618521869182586669921875" lon="2.9461636953055858612060546875">
        <ele>138</ele>
        <time>2022-07-28T09:22:13.000Z</time>
      </trkpt>
      <trkpt lat="42.40509864874184131622314453125" lon="2.94661916792392730712890625">
        <ele>138.399993896484375</ele>
        <time>2022-07-28T09:22:18.000Z</time>
      </trkpt>
      <trkpt lat="42.4051171727478504180908203125" lon="2.9467058368027210235595703125">
        <ele>138.399993896484375</ele>
        <time>2022-07-28T09:22:19.000Z</time>
      </trkpt>
      <trkpt lat="42.4051771871745586395263671875" lon="2.94695955701172351837158203125">
        <ele>138.600006103515625</ele>
        <time>2022-07-28T09:22:22.000Z</time>
      </trkpt>
      <trkpt lat="42.40516872145235538482666015625" lon="2.947127111256122589111328125">
        <ele>139</ele>
        <time>2022-07-28T09:22:24.000Z</time>
      </trkpt>
      <trkpt lat="42.40505062043666839599609375" lon="2.9473230801522731781005859375">
        <ele>139.399993896484375</ele>
        <time>2022-07-28T09:22:27.000Z</time>
      </trkpt>
      <trkpt lat="42.4046690762042999267578125" lon="2.94767796993255615234375">
        <ele>139.399993896484375</ele>
        <time>2022-07-28T09:22:34.000Z</time>
      </trkpt>
      <trkpt lat="42.4043311178684234619140625" lon="2.9479946382343769073486328125">
        <ele>139.1999969482421875</ele>
        <time>2022-07-28T09:22:40.000Z</time>
      </trkpt>
      <trkpt lat="42.40428677760064601898193359375" lon="2.94806697405874729156494140625">
        <ele>139.1999969482421875</ele>
        <time>2022-07-28T09:22:41.000Z</time>
      </trkpt>
      <trkpt lat="42.404181919991970062255859375" lon="2.948309294879436492919921875">
        <ele>138.600006103515625</ele>
        <time>2022-07-28T09:22:44.000Z</time>
      </trkpt>
      <trkpt lat="42.40409583784639835357666015625" lon="2.94845757074654102325439453125">
        <ele>138.600006103515625</ele>
        <time>2022-07-28T09:22:46.000Z</time>
      </trkpt>
      <trkpt lat="42.40399190224707126617431640625" lon="2.94858497567474842071533203125">
        <ele>138.600006103515625</ele>
        <time>2022-07-28T09:22:48.000Z</time>
      </trkpt>
      <trkpt lat="42.40382275544106960296630859375" lon="2.94875931926071643829345703125">
        <ele>138.600006103515625</ele>
        <time>2022-07-28T09:22:51.000Z</time>
      </trkpt>
      <trkpt lat="42.40364916622638702392578125" lon="2.94892461039125919342041015625">
        <ele>138.600006103515625</ele>
        <time>2022-07-28T09:22:54.000Z</time>
      </trkpt>
      <trkpt lat="42.40352268330752849578857421875" lon="2.94900792650878429412841796875">
        <ele>138.600006103515625</ele>
        <time>2022-07-28T09:22:56.000Z</time>
      </trkpt>
      <trkpt lat="42.40345713682472705841064453125" lon="2.94904254376888275146484375">
        <ele>138.600006103515625</ele>
        <time>2022-07-28T09:22:57.000Z</time>
      </trkpt>
      <trkpt lat="42.4032537080347537994384765625" lon="2.9491013847291469573974609375">
        <ele>138.600006103515625</ele>
        <time>2022-07-28T09:23:00.000Z</time>
      </trkpt>
      <trkpt lat="42.403045333921909332275390625" lon="2.9491013847291469573974609375">
        <ele>138.600006103515625</ele>
        <time>2022-07-28T09:23:03.000Z</time>
      </trkpt>
      <trkpt lat="42.40283955819904804229736328125" lon="2.94910180382430553436279296875">
        <ele>138.600006103515625</ele>
        <time>2022-07-28T09:23:06.000Z</time>
      </trkpt>
      <trkpt lat="42.4024349637329578399658203125" lon="2.9491947591304779052734375">
        <ele>139</ele>
        <time>2022-07-28T09:23:12.000Z</time>
      </trkpt>
      <trkpt lat="42.4019136093556880950927734375" lon="2.94940975494682788848876953125">
        <ele>139</ele>
        <time>2022-07-28T09:23:20.000Z</time>
      </trkpt>
      <trkpt lat="42.4014874733984470367431640625" lon="2.94970982708036899566650390625">
        <ele>138.600006103515625</ele>
        <time>2022-07-28T09:23:28.000Z</time>
      </trkpt>
      <trkpt lat="42.40122151561081409454345703125" lon="2.949989028275012969970703125">
        <ele>139</ele>
        <time>2022-07-28T09:23:34.000Z</time>
      </trkpt>
      <trkpt lat="42.40111154504120349884033203125" lon="2.95016278512775897979736328125">
        <ele>139.8000030517578125</ele>
        <time>2022-07-28T09:23:37.000Z</time>
      </trkpt>
      <trkpt lat="42.40093686617910861968994140625" lon="2.9504458419978618621826171875">
        <ele>140.8000030517578125</ele>
        <time>2022-07-28T09:23:42.000Z</time>
      </trkpt>
      <trkpt lat="42.40066378377377986907958984375" lon="2.95086518861353397369384765625">
        <ele>142.1999969482421875</ele>
        <time>2022-07-28T09:23:50.000Z</time>
      </trkpt>
      <trkpt lat="42.40038449876010417938232421875" lon="2.95132510364055633544921875">
        <ele>143.1999969482421875</ele>
        <time>2022-07-28T09:23:59.000Z</time>
      </trkpt>
      <trkpt lat="42.40035214461386203765869140625" lon="2.95137715525925159454345703125">
        <ele>143.1999969482421875</ele>
        <time>2022-07-28T09:24:00.000Z</time>
      </trkpt>
      <trkpt lat="42.4000793136656284332275390625" lon="2.9518586955964565277099609375">
        <ele>143.8000030517578125</ele>
        <time>2022-07-28T09:24:09.000Z</time>
      </trkpt>
      <trkpt lat="42.40002072416245937347412109375" lon="2.95195617713034152984619140625">
        <ele>144.399993896484375</ele>
        <time>2022-07-28T09:24:11.000Z</time>
      </trkpt>
      <trkpt lat="42.39989130757749080657958984375" lon="2.952120713889598846435546875">
        <ele>144.600006103515625</ele>
        <time>2022-07-28T09:24:15.000Z</time>
      </trkpt>
      <trkpt lat="42.399724759161472320556640625" lon="2.9521892778575420379638671875">
        <ele>145</ele>
        <time>2022-07-28T09:24:19.000Z</time>
      </trkpt>
      <trkpt lat="42.3996793292462825775146484375" lon="2.95219690538942813873291015625">
        <ele>145.1999969482421875</ele>
        <time>2022-07-28T09:24:20.000Z</time>
      </trkpt>
      <trkpt lat="42.39963230676949024200439453125" lon="2.9522013477981090545654296875">
        <ele>145.399993896484375</ele>
        <time>2022-07-28T09:24:21.000Z</time>
      </trkpt>
      <trkpt lat="42.3995837755501270294189453125" lon="2.9521993361413478851318359375">
        <ele>145.600006103515625</ele>
        <time>2022-07-28T09:24:22.000Z</time>
      </trkpt>
      <trkpt lat="42.3994342423975467681884765625" lon="2.95216438360512256622314453125">
        <ele>146</ele>
        <time>2022-07-28T09:24:25.000Z</time>
      </trkpt>
      <trkpt lat="42.3991750739514827728271484375" lon="2.951977886259555816650390625">
        <ele>146.399993896484375</ele>
        <time>2022-07-28T09:24:30.000Z</time>
      </trkpt>
      <trkpt lat="42.398802749812602996826171875" lon="2.95166649855673313140869140625">
        <ele>146.600006103515625</ele>
        <time>2022-07-28T09:24:36.000Z</time>
      </trkpt>
      <trkpt lat="42.39845196716487407684326171875" lon="2.9513765685260295867919921875">
        <ele>144.399993896484375</ele>
        <time>2022-07-28T09:24:41.000Z</time>
      </trkpt>
      <trkpt lat="42.3983015120029449462890625" lon="2.95125930570065975189208984375">
        <ele>143.600006103515625</ele>
        <time>2022-07-28T09:24:43.000Z</time>
      </trkpt>
      <trkpt lat="42.398149967193603515625" lon="2.951139695942401885986328125">
        <ele>143</ele>
        <time>2022-07-28T09:24:45.000Z</time>
      </trkpt>
      <trkpt lat="42.3979214765131473541259765625" lon="2.9509464092552661895751953125">
        <ele>141.8000030517578125</ele>
        <time>2022-07-28T09:24:48.000Z</time>
      </trkpt>
      <trkpt lat="42.397766411304473876953125" lon="2.95081523247063159942626953125">
        <ele>140.8000030517578125</ele>
        <time>2022-07-28T09:24:50.000Z</time>
      </trkpt>
      <trkpt lat="42.3976874537765979766845703125" lon="2.9507542960345745086669921875">
        <ele>140.399993896484375</ele>
        <time>2022-07-28T09:24:51.000Z</time>
      </trkpt>
      <trkpt lat="42.3973773233592510223388671875" lon="2.950513064861297607421875">
        <ele>139.399993896484375</ele>
        <time>2022-07-28T09:24:55.000Z</time>
      </trkpt>
      <trkpt lat="42.39722737111151218414306640625" lon="2.95039295218884944915771484375">
        <ele>138.399993896484375</ele>
        <time>2022-07-28T09:24:57.000Z</time>
      </trkpt>
      <trkpt lat="42.39715411327779293060302734375" lon="2.950330674648284912109375">
        <ele>138</ele>
        <time>2022-07-28T09:24:58.000Z</time>
      </trkpt>
      <trkpt lat="42.3968048393726348876953125" lon="2.949999086558818817138671875">
        <ele>137.1999969482421875</ele>
        <time>2022-07-28T09:25:03.000Z</time>
      </trkpt>
      <trkpt lat="42.39655547775328159332275390625" lon="2.94959834776818752288818359375">
        <ele>137.1999969482421875</ele>
        <time>2022-07-28T09:25:08.000Z</time>
      </trkpt>
      <trkpt lat="42.39640460349619388580322265625" lon="2.94935577549040317535400390625">
        <ele>137.399993896484375</ele>
        <time>2022-07-28T09:25:12.000Z</time>
      </trkpt>
      <trkpt lat="42.3963614366948604583740234375" lon="2.94931235723197460174560546875">
        <ele>137.8000030517578125</ele>
        <time>2022-07-28T09:25:13.000Z</time>
      </trkpt>
      <trkpt lat="42.3962216265499591827392578125" lon="2.94920188374817371368408203125">
        <ele>139.399993896484375</ele>
        <time>2022-07-28T09:25:16.000Z</time>
      </trkpt>
      <trkpt lat="42.39617225714027881622314453125" lon="2.9491754807531833648681640625">
        <ele>139.8000030517578125</ele>
        <time>2022-07-28T09:25:17.000Z</time>
      </trkpt>
      <trkpt lat="42.3960684053599834442138671875" lon="2.9491384327411651611328125">
        <ele>140.399993896484375</ele>
        <time>2022-07-28T09:25:19.000Z</time>
      </trkpt>
      <trkpt lat="42.39590588025748729705810546875" lon="2.94908185489475727081298828125">
        <ele>141.8000030517578125</ele>
        <time>2022-07-28T09:25:22.000Z</time>
      </trkpt>
      <trkpt lat="42.39574343897402286529541015625" lon="2.94902770780026912689208984375">
        <ele>143</ele>
        <time>2022-07-28T09:25:25.000Z</time>
      </trkpt>
      <trkpt lat="42.3956989310681819915771484375" lon="2.94900323264300823211669921875">
        <ele>143.600006103515625</ele>
        <time>2022-07-28T09:25:26.000Z</time>
      </trkpt>
      <trkpt lat="42.3956204764544963836669921875" lon="2.9489474929869174957275390625">
        <ele>144.1999969482421875</ele>
        <time>2022-07-28T09:25:28.000Z</time>
      </trkpt>
      <trkpt lat="42.39546784199774265289306640625" lon="2.94880810193717479705810546875">
        <ele>144.8000030517578125</ele>
        <time>2022-07-28T09:25:32.000Z</time>
      </trkpt>
      <trkpt lat="42.39538930356502532958984375" lon="2.9487226903438568115234375">
        <ele>145.1999969482421875</ele>
        <time>2022-07-28T09:25:34.000Z</time>
      </trkpt>
      <trkpt lat="42.39518545567989349365234375" lon="2.9484740830957889556884765625">
        <ele>145.8000030517578125</ele>
        <time>2022-07-28T09:25:39.000Z</time>
      </trkpt>
      <trkpt lat="42.39497917704284191131591796875" lon="2.94818691909313201904296875">
        <ele>146.1999969482421875</ele>
        <time>2022-07-28T09:25:45.000Z</time>
      </trkpt>
      <trkpt lat="42.39491296000778675079345703125" lon="2.9480935446918010711669921875">
        <ele>147</ele>
        <time>2022-07-28T09:25:47.000Z</time>
      </trkpt>
      <trkpt lat="42.39487792365252971649169921875" lon="2.9480467736721038818359375">
        <ele>147.399993896484375</ele>
        <time>2022-07-28T09:25:48.000Z</time>
      </trkpt>
      <trkpt lat="42.39481204189360141754150390625" lon="2.94794610701501369476318359375">
        <ele>147.8000030517578125</ele>
        <time>2022-07-28T09:25:50.000Z</time>
      </trkpt>
      <trkpt lat="42.39474146626889705657958984375" lon="2.94784686528146266937255859375">
        <ele>147.8000030517578125</ele>
        <time>2022-07-28T09:25:52.000Z</time>
      </trkpt>
      <trkpt lat="42.39459796808660030364990234375" lon="2.9477461986243724822998046875">
        <ele>147.8000030517578125</ele>
        <time>2022-07-28T09:25:55.000Z</time>
      </trkpt>
      <trkpt lat="42.3945405520498752593994140625" lon="2.9477237351238727569580078125">
        <ele>147.8000030517578125</ele>
        <time>2022-07-28T09:25:56.000Z</time>
      </trkpt>
      <trkpt lat="42.3942661285400390625" lon="2.94771376065909862518310546875">
        <ele>147</ele>
        <time>2022-07-28T09:26:00.000Z</time>
      </trkpt>
      <trkpt lat="42.394107878208160400390625" lon="2.947715185582637786865234375">
        <ele>146.399993896484375</ele>
        <time>2022-07-28T09:26:02.000Z</time>
      </trkpt>
      <trkpt lat="42.3939268290996551513671875" lon="2.94769280590116977691650390625">
        <ele>145</ele>
        <time>2022-07-28T09:26:04.000Z</time>
      </trkpt>
      <trkpt lat="42.39362164400517940521240234375" lon="2.94758635573089122772216796875">
        <ele>143.600006103515625</ele>
        <time>2022-07-28T09:26:07.000Z</time>
      </trkpt>
      <trkpt lat="42.39351502619683742523193359375" lon="2.94753019697964191436767578125">
        <ele>142.8000030517578125</ele>
        <time>2022-07-28T09:26:08.000Z</time>
      </trkpt>
      <trkpt lat="42.39340639673173427581787109375" lon="2.94746649451553821563720703125">
        <ele>142</ele>
        <time>2022-07-28T09:26:09.000Z</time>
      </trkpt>
      <trkpt lat="42.39329525269567966461181640625" lon="2.94739969074726104736328125">
        <ele>141</ele>
        <time>2022-07-28T09:26:10.000Z</time>
      </trkpt>
      <trkpt lat="42.3931825160980224609375" lon="2.94733121059834957122802734375">
        <ele>139.8000030517578125</ele>
        <time>2022-07-28T09:26:11.000Z</time>
      </trkpt>
      <trkpt lat="42.3930685222148895263671875" lon="2.94726180844008922576904296875">
        <ele>138.600006103515625</ele>
        <time>2022-07-28T09:26:12.000Z</time>
      </trkpt>
      <trkpt lat="42.3929530195891857147216796875" lon="2.947195507586002349853515625">
        <ele>137.600006103515625</ele>
        <time>2022-07-28T09:26:13.000Z</time>
      </trkpt>
      <trkpt lat="42.39283592440187931060791015625" lon="2.94713524170219898223876953125">
        <ele>136.600006103515625</ele>
        <time>2022-07-28T09:26:14.000Z</time>
      </trkpt>
      <trkpt lat="42.39271723665297031402587890625" lon="2.947085537016391754150390625">
        <ele>135.1999969482421875</ele>
        <time>2022-07-28T09:26:15.000Z</time>
      </trkpt>
      <trkpt lat="42.3925979621708393096923828125" lon="2.94705125503242015838623046875">
        <ele>133.399993896484375</ele>
        <time>2022-07-28T09:26:16.000Z</time>
      </trkpt>
      <trkpt lat="42.39248086698353290557861328125" lon="2.94703884981572628021240234375">
        <ele>131.8000030517578125</ele>
        <time>2022-07-28T09:26:17.000Z</time>
      </trkpt>
      <trkpt lat="42.39236821420490741729736328125" lon="2.9470451362431049346923828125">
        <ele>130.8000030517578125</ele>
        <time>2022-07-28T09:26:18.000Z</time>
      </trkpt>
      <trkpt lat="42.39215732552111148834228515625" lon="2.94703491032123565673828125">
        <ele>129</ele>
        <time>2022-07-28T09:26:20.000Z</time>
      </trkpt>
      <trkpt lat="42.39190653897821903228759765625" lon="2.9468728043138980865478515625">
        <ele>128.399993896484375</ele>
        <time>2022-07-28T09:26:23.000Z</time>
      </trkpt>
      <trkpt lat="42.39184350706636905670166015625" lon="2.9467973671853542327880859375">
        <ele>128.399993896484375</ele>
        <time>2022-07-28T09:26:24.000Z</time>
      </trkpt>
      <trkpt lat="42.39166363142430782318115234375" lon="2.94661724008619785308837890625">
        <ele>128.399993896484375</ele>
        <time>2022-07-28T09:26:27.000Z</time>
      </trkpt>
      <trkpt lat="42.3916028626263141632080078125" lon="2.94657818041741847991943359375">
        <ele>128.399993896484375</ele>
        <time>2022-07-28T09:26:28.000Z</time>
      </trkpt>
      <trkpt lat="42.39141837693750858306884765625" lon="2.94652889482676982879638671875">
        <ele>129.600006103515625</ele>
        <time>2022-07-28T09:26:31.000Z</time>
      </trkpt>
      <trkpt lat="42.391355931758880615234375" lon="2.94652084819972515106201171875">
        <ele>131</ele>
        <time>2022-07-28T09:26:32.000Z</time>
      </trkpt>
      <trkpt lat="42.39122760482132434844970703125" lon="2.9465152323246002197265625">
        <ele>132</ele>
        <time>2022-07-28T09:26:34.000Z</time>
      </trkpt>
      <trkpt lat="42.39103079773485660552978515625" lon="2.946508862078189849853515625">
        <ele>133</ele>
        <time>2022-07-28T09:26:37.000Z</time>
      </trkpt>
      <trkpt lat="42.39096357487142086029052734375" lon="2.94650928117334842681884765625">
        <ele>133.1999969482421875</ele>
        <time>2022-07-28T09:26:38.000Z</time>
      </trkpt>
      <trkpt lat="42.39046954549849033355712890625" lon="2.946467958390712738037109375">
        <ele>133.399993896484375</ele>
        <time>2022-07-28T09:26:45.000Z</time>
      </trkpt>
      <trkpt lat="42.39029888994991779327392578125" lon="2.946275174617767333984375">
        <ele>133.399993896484375</ele>
        <time>2022-07-28T09:26:48.000Z</time>
      </trkpt>
      <trkpt lat="42.3902238719165325164794921875" lon="2.946087755262851715087890625">
        <ele>133.399993896484375</ele>
        <time>2022-07-28T09:26:50.000Z</time>
      </trkpt>
      <trkpt lat="42.3900780268013477325439453125" lon="2.94569791294634342193603515625">
        <ele>133.1999969482421875</ele>
        <time>2022-07-28T09:26:54.000Z</time>
      </trkpt>
      <trkpt lat="42.39003770984709262847900390625" lon="2.9456031136214733123779296875">
        <ele>133</ele>
        <time>2022-07-28T09:26:55.000Z</time>
      </trkpt>
      <trkpt lat="42.3899150826036930084228515625" lon="2.94545550830662250518798828125">
        <ele>132.600006103515625</ele>
        <time>2022-07-28T09:26:57.000Z</time>
      </trkpt>
      <trkpt lat="42.3897387273609638214111328125" lon="2.94540387578308582305908203125">
        <ele>132.1999969482421875</ele>
        <time>2022-07-28T09:26:59.000Z</time>
      </trkpt>
      <trkpt lat="42.389638982713222503662109375" lon="2.94540286995470523834228515625">
        <ele>131.600006103515625</ele>
        <time>2022-07-28T09:27:00.000Z</time>
      </trkpt>
      <trkpt lat="42.38953513093292713165283203125" lon="2.94540974311530590057373046875">
        <ele>131.1999969482421875</ele>
        <time>2022-07-28T09:27:01.000Z</time>
      </trkpt>
      <trkpt lat="42.3894274234771728515625" lon="2.945422232151031494140625">
        <ele>130.8000030517578125</ele>
        <time>2022-07-28T09:27:02.000Z</time>
      </trkpt>
      <trkpt lat="42.3892073146998882293701171875" lon="2.9454435221850872039794921875">
        <ele>129.8000030517578125</ele>
        <time>2022-07-28T09:27:04.000Z</time>
      </trkpt>
      <trkpt lat="42.389094494283199310302734375" lon="2.94544260017573833465576171875">
        <ele>128.8000030517578125</ele>
        <time>2022-07-28T09:27:05.000Z</time>
      </trkpt>
      <trkpt lat="42.3889833502471446990966796875" lon="2.94541644863784313201904296875">
        <ele>127.59999847412109375</ele>
        <time>2022-07-28T09:27:06.000Z</time>
      </trkpt>
      <trkpt lat="42.38888016901910305023193359375" lon="2.9453543387353420257568359375">
        <ele>127</ele>
        <time>2022-07-28T09:27:07.000Z</time>
      </trkpt>
      <trkpt lat="42.38878780044615268707275390625" lon="2.9452601261436939239501953125">
        <ele>126.40000152587890625</ele>
        <time>2022-07-28T09:27:08.000Z</time>
      </trkpt>
      <trkpt lat="42.38870247267186641693115234375" lon="2.94514906592667102813720703125">
        <ele>125</ele>
        <time>2022-07-28T09:27:09.000Z</time>
      </trkpt>
      <trkpt lat="42.3886229284107685089111328125" lon="2.9450294561684131622314453125">
        <ele>123.59999847412109375</ele>
        <time>2022-07-28T09:27:10.000Z</time>
      </trkpt>
      <trkpt lat="42.38854874856770038604736328125" lon="2.94490699656307697296142578125">
        <ele>122.59999847412109375</ele>
        <time>2022-07-28T09:27:11.000Z</time>
      </trkpt>
      <trkpt lat="42.38841715268790721893310546875" lon="2.9446640051901340484619140625">
        <ele>121.1999969482421875</ele>
        <time>2022-07-28T09:27:13.000Z</time>
      </trkpt>
      <trkpt lat="42.388305924832820892333984375" lon="2.94443291611969470977783203125">
        <ele>120.1999969482421875</ele>
        <time>2022-07-28T09:27:15.000Z</time>
      </trkpt>
      <trkpt lat="42.388253621757030487060546875" lon="2.9443257115781307220458984375">
        <ele>120</ele>
        <time>2022-07-28T09:27:16.000Z</time>
      </trkpt>
      <trkpt lat="42.38800744526088237762451171875" lon="2.943825982511043548583984375">
        <ele>119.8000030517578125</ele>
        <time>2022-07-28T09:27:21.000Z</time>
      </trkpt>
      <trkpt lat="42.38793410360813140869140625" lon="2.94361635111272335052490234375">
        <ele>119.8000030517578125</ele>
        <time>2022-07-28T09:27:23.000Z</time>
      </trkpt>
      <trkpt lat="42.38787484355270862579345703125" lon="2.94340378604829311370849609375">
        <ele>121.1999969482421875</ele>
        <time>2022-07-28T09:27:25.000Z</time>
      </trkpt>
      <trkpt lat="42.38783829845488071441650390625" lon="2.94330152682960033416748046875">
        <ele>121.40000152587890625</ele>
        <time>2022-07-28T09:27:26.000Z</time>
      </trkpt>
      <trkpt lat="42.3876678943634033203125" lon="2.94303682632744312286376953125">
        <ele>121.8000030517578125</ele>
        <time>2022-07-28T09:27:29.000Z</time>
      </trkpt>
      <trkpt lat="42.38759170286357402801513671875" lon="2.94296273030340671539306640625">
        <ele>121.8000030517578125</ele>
        <time>2022-07-28T09:27:30.000Z</time>
      </trkpt>
      <trkpt lat="42.38743009977042675018310546875" lon="2.9428072459995746612548828125">
        <ele>121.8000030517578125</ele>
        <time>2022-07-28T09:27:32.000Z</time>
      </trkpt>
      <trkpt lat="42.387337647378444671630859375" lon="2.9427465610206127166748046875">
        <ele>121.8000030517578125</ele>
        <time>2022-07-28T09:27:33.000Z</time>
      </trkpt>
      <trkpt lat="42.3870125971734523773193359375" lon="2.94269107282161712646484375">
        <ele>120.59999847412109375</ele>
        <time>2022-07-28T09:27:36.000Z</time>
      </trkpt>
      <trkpt lat="42.386903800070285797119140625" lon="2.94271395541727542877197265625">
        <ele>119.59999847412109375</ele>
        <time>2022-07-28T09:27:37.000Z</time>
      </trkpt>
      <trkpt lat="42.3866994492709636688232421875" lon="2.94280179776251316070556640625">
        <ele>118.40000152587890625</ele>
        <time>2022-07-28T09:27:39.000Z</time>
      </trkpt>
      <trkpt lat="42.38651412539184093475341796875" lon="2.942925430834293365478515625">
        <ele>116.40000152587890625</ele>
        <time>2022-07-28T09:27:41.000Z</time>
      </trkpt>
      <trkpt lat="42.38642536103725433349609375" lon="2.94298687018454074859619140625">
        <ele>115.1999969482421875</ele>
        <time>2022-07-28T09:27:42.000Z</time>
      </trkpt>
      <trkpt lat="42.3863393627107143402099609375" lon="2.94305124320089817047119140625">
        <ele>113.40000152587890625</ele>
        <time>2022-07-28T09:27:43.000Z</time>
      </trkpt>
      <trkpt lat="42.38625680096447467803955078125" lon="2.9431183822453022003173828125">
        <ele>112.40000152587890625</ele>
        <time>2022-07-28T09:27:44.000Z</time>
      </trkpt>
      <trkpt lat="42.38602302968502044677734375" lon="2.94331963174045085906982421875">
        <ele>111.40000152587890625</ele>
        <time>2022-07-28T09:27:47.000Z</time>
      </trkpt>
      <trkpt lat="42.3858052678406238555908203125" lon="2.94351425953209400177001953125">
        <ele>111.1999969482421875</ele>
        <time>2022-07-28T09:27:50.000Z</time>
      </trkpt>
      <trkpt lat="42.3853502981364727020263671875" lon="2.94397895224392414093017578125">
        <ele>111.40000152587890625</ele>
        <time>2022-07-28T09:27:57.000Z</time>
      </trkpt>
      <trkpt lat="42.385283745825290679931640625" lon="2.9440353624522686004638671875">
        <ele>111.8000030517578125</ele>
        <time>2022-07-28T09:27:58.000Z</time>
      </trkpt>
      <trkpt lat="42.385075874626636505126953125" lon="2.94417944736778736114501953125">
        <ele>112.40000152587890625</ele>
        <time>2022-07-28T09:28:01.000Z</time>
      </trkpt>
      <trkpt lat="42.3849402554333209991455078125" lon="2.94426829554140567779541015625">
        <ele>113</ele>
        <time>2022-07-28T09:28:03.000Z</time>
      </trkpt>
      <trkpt lat="42.38487345166504383087158203125" lon="2.94430718757212162017822265625">
        <ele>113.1999969482421875</ele>
        <time>2022-07-28T09:28:04.000Z</time>
      </trkpt>
      <trkpt lat="42.3846830986440181732177734375" lon="2.9444284737110137939453125">
        <ele>113.40000152587890625</ele>
        <time>2022-07-28T09:28:07.000Z</time>
      </trkpt>
      <trkpt lat="42.384505234658718109130859375" lon="2.9445342533290386199951171875">
        <ele>113.8000030517578125</ele>
        <time>2022-07-28T09:28:10.000Z</time>
      </trkpt>
      <trkpt lat="42.3840152285993099212646484375" lon="2.94476768933236598968505859375">
        <ele>114.59999847412109375</ele>
        <time>2022-07-28T09:28:18.000Z</time>
      </trkpt>
      <trkpt lat="42.38346160389482975006103515625" lon="2.9449908994138240814208984375">
        <ele>114.59999847412109375</ele>
        <time>2022-07-28T09:28:26.000Z</time>
      </trkpt>
      <trkpt lat="42.383034043014049530029296875" lon="2.945151664316654205322265625">
        <ele>114.40000152587890625</ele>
        <time>2022-07-28T09:28:32.000Z</time>
      </trkpt>
      <trkpt lat="42.3828105814754962921142578125" lon="2.9452333040535449981689453125">
        <ele>114</ele>
        <time>2022-07-28T09:28:35.000Z</time>
      </trkpt>
      <trkpt lat="42.3826546780765056610107421875" lon="2.94521377421915531158447265625">
        <ele>114</ele>
        <time>2022-07-28T09:28:37.000Z</time>
      </trkpt>
      <trkpt lat="42.38249860703945159912109375" lon="2.94515644200146198272705078125">
        <ele>113.8000030517578125</ele>
        <time>2022-07-28T09:28:39.000Z</time>
      </trkpt>
      <trkpt lat="42.38233071751892566680908203125" lon="2.945117466151714324951171875">
        <ele>113.59999847412109375</ele>
        <time>2022-07-28T09:28:41.000Z</time>
      </trkpt>
      <trkpt lat="42.3822436295449733734130859375" lon="2.94511503539979457855224609375">
        <ele>113.40000152587890625</ele>
        <time>2022-07-28T09:28:42.000Z</time>
      </trkpt>
      <trkpt lat="42.381989657878875732421875" lon="2.945195250213146209716796875">
        <ele>113.1999969482421875</ele>
        <time>2022-07-28T09:28:45.000Z</time>
      </trkpt>
      <trkpt lat="42.3818312399089336395263671875" lon="2.9452960006892681121826171875">
        <ele>113</ele>
        <time>2022-07-28T09:28:47.000Z</time>
      </trkpt>
      <trkpt lat="42.38167759962379932403564453125" lon="2.9453994333744049072265625">
        <ele>112.40000152587890625</ele>
        <time>2022-07-28T09:28:49.000Z</time>
      </trkpt>
      <trkpt lat="42.38160333596169948577880859375" lon="2.94545316137373447418212890625">
        <ele>112</ele>
        <time>2022-07-28T09:28:50.000Z</time>
      </trkpt>
      <trkpt lat="42.38146486692130565643310546875" lon="2.94556397013366222381591796875">
        <ele>111.40000152587890625</ele>
        <time>2022-07-28T09:28:52.000Z</time>
      </trkpt>
      <trkpt lat="42.3812641203403472900390625" lon="2.94570386409759521484375">
        <ele>111</ele>
        <time>2022-07-28T09:28:55.000Z</time>
      </trkpt>
      <trkpt lat="42.3807905428111553192138671875" lon="2.946037463843822479248046875">
        <ele>110.8000030517578125</ele>
        <time>2022-07-28T09:29:02.000Z</time>
      </trkpt>
      <trkpt lat="42.38043221645057201385498046875" lon="2.94635228812694549560546875">
        <ele>111.40000152587890625</ele>
        <time>2022-07-28T09:29:08.000Z</time>
      </trkpt>
      <trkpt lat="42.380133569240570068359375" lon="2.94668429531157016754150390625">
        <ele>111.59999847412109375</ele>
        <time>2022-07-28T09:29:14.000Z</time>
      </trkpt>
      <trkpt lat="42.37996098585426807403564453125" lon="2.94692586176097393035888671875">
        <ele>112.59999847412109375</ele>
        <time>2022-07-28T09:29:18.000Z</time>
      </trkpt>
      <trkpt lat="42.37981597892940044403076171875" lon="2.94718050397932529449462890625">
        <ele>113.1999969482421875</ele>
        <time>2022-07-28T09:29:22.000Z</time>
      </trkpt>
      <trkpt lat="42.37978446297347545623779296875" lon="2.94724554754793643951416015625">
        <ele>113.59999847412109375</ele>
        <time>2022-07-28T09:29:23.000Z</time>
      </trkpt>
      <trkpt lat="42.3795895837247371673583984375" lon="2.94768610037863254547119140625">
        <ele>114.40000152587890625</ele>
        <time>2022-07-28T09:29:30.000Z</time>
      </trkpt>
      <trkpt lat="42.379559576511383056640625" lon="2.947750054299831390380859375">
        <ele>114.59999847412109375</ele>
        <time>2022-07-28T09:29:31.000Z</time>
      </trkpt>
      <trkpt lat="42.37942211329936981201171875" lon="2.94800813309848308563232421875">
        <ele>115.1999969482421875</ele>
        <time>2022-07-28T09:29:35.000Z</time>
      </trkpt>
      <trkpt lat="42.37937827594578266143798828125" lon="2.94807015918195247650146484375">
        <ele>115.1999969482421875</ele>
        <time>2022-07-28T09:29:36.000Z</time>
      </trkpt>
      <trkpt lat="42.3792392201721668243408203125" lon="2.94823712669312953948974609375">
        <ele>115.1999969482421875</ele>
        <time>2022-07-28T09:29:39.000Z</time>
      </trkpt>
      <trkpt lat="42.37914073280990123748779296875" lon="2.948330081999301910400390625">
        <ele>115.1999969482421875</ele>
        <time>2022-07-28T09:29:41.000Z</time>
      </trkpt>
      <trkpt lat="42.37908591516315937042236328125" lon="2.94836872257292270660400390625">
        <ele>115.1999969482421875</ele>
        <time>2022-07-28T09:29:42.000Z</time>
      </trkpt>
      <trkpt lat="42.378660030663013458251953125" lon="2.94858011417090892791748046875">
        <ele>115.1999969482421875</ele>
        <time>2022-07-28T09:29:49.000Z</time>
      </trkpt>
      <trkpt lat="42.37816038541495800018310546875" lon="2.9487107880413532257080078125">
        <ele>115</ele>
        <time>2022-07-28T09:29:57.000Z</time>
      </trkpt>
      <trkpt lat="42.3777465708553791046142578125" lon="2.9488019831478595733642578125">
        <ele>114.8000030517578125</ele>
        <time>2022-07-28T09:30:03.000Z</time>
      </trkpt>
      <trkpt lat="42.37739897333085536956787109375" lon="2.94900256209075450897216796875">
        <ele>114.8000030517578125</ele>
        <time>2022-07-28T09:30:08.000Z</time>
      </trkpt>
      <trkpt lat="42.37705196253955364227294921875" lon="2.94922686181962490081787109375">
        <ele>113.8000030517578125</ele>
        <time>2022-07-28T09:30:13.000Z</time>
      </trkpt>
      <trkpt lat="42.37698105163872241973876953125" lon="2.94927145354449748992919921875">
        <ele>113.40000152587890625</ele>
        <time>2022-07-28T09:30:14.000Z</time>
      </trkpt>
      <trkpt lat="42.3766988329589366912841796875" lon="2.94945451430976390838623046875">
        <ele>112.59999847412109375</ele>
        <time>2022-07-28T09:30:18.000Z</time>
      </trkpt>
      <trkpt lat="42.3764125071465969085693359375" lon="2.9496267624199390411376953125">
        <ele>112.40000152587890625</ele>
        <time>2022-07-28T09:30:22.000Z</time>
      </trkpt>
      <trkpt lat="42.375848405063152313232421875" lon="2.94994954951107501983642578125">
        <ele>112.1999969482421875</ele>
        <time>2022-07-28T09:30:30.000Z</time>
      </trkpt>
      <trkpt lat="42.37578227184712886810302734375" lon="2.9499913752079010009765625">
        <ele>112</ele>
        <time>2022-07-28T09:30:31.000Z</time>
      </trkpt>
      <trkpt lat="42.3752353526651859283447265625" lon="2.9502862505614757537841796875">
        <ele>111.8000030517578125</ele>
        <time>2022-07-28T09:30:39.000Z</time>
      </trkpt>
      <trkpt lat="42.375166118144989013671875" lon="2.95031868852674961090087890625">
        <ele>111.8000030517578125</ele>
        <time>2022-07-28T09:30:40.000Z</time>
      </trkpt>
      <trkpt lat="42.3750298283994197845458984375" lon="2.95038490556180477142333984375">
        <ele>111.59999847412109375</ele>
        <time>2022-07-28T09:30:42.000Z</time>
      </trkpt>
      <trkpt lat="42.37470687367022037506103515625" lon="2.9505769349634647369384765625">
        <ele>111.40000152587890625</ele>
        <time>2022-07-28T09:30:47.000Z</time>
      </trkpt>
      <trkpt lat="42.3743780516088008880615234375" lon="2.95084632933139801025390625">
        <ele>112</ele>
        <time>2022-07-28T09:30:53.000Z</time>
      </trkpt>
      <trkpt lat="42.374117039144039154052734375" lon="2.95113106258213520050048828125">
        <ele>112.59999847412109375</ele>
        <time>2022-07-28T09:30:59.000Z</time>
      </trkpt>
      <trkpt lat="42.37408057786524295806884765625" lon="2.95117565430700778961181640625">
        <ele>112.8000030517578125</ele>
        <time>2022-07-28T09:31:00.000Z</time>
      </trkpt>
      <trkpt lat="42.3740407638251781463623046875" lon="2.95121538452804088592529296875">
        <ele>112.8000030517578125</ele>
        <time>2022-07-28T09:31:01.000Z</time>
      </trkpt>
      <trkpt lat="42.37392014823853969573974609375" lon="2.95129350386559963226318359375">
        <ele>114.1999969482421875</ele>
        <time>2022-07-28T09:31:04.000Z</time>
      </trkpt>
      <trkpt lat="42.37388025037944316864013671875" lon="2.95131010003387928009033203125">
        <ele>114.8000030517578125</ele>
        <time>2022-07-28T09:31:05.000Z</time>
      </trkpt>
      <trkpt lat="42.37383482046425342559814453125" lon="2.9513189010322093963623046875">
        <ele>115.1999969482421875</ele>
        <time>2022-07-28T09:31:06.000Z</time>
      </trkpt>
      <trkpt lat="42.37372652627527713775634765625" lon="2.95131479389965534210205078125">
        <ele>115.8000030517578125</ele>
        <time>2022-07-28T09:31:08.000Z</time>
      </trkpt>
      <trkpt lat="42.37338873557746410369873046875" lon="2.951267100870609283447265625">
        <ele>116</ele>
        <time>2022-07-28T09:31:13.000Z</time>
      </trkpt>
      <trkpt lat="42.37278289161622524261474609375" lon="2.9510946013033390045166015625">
        <ele>114.1999969482421875</ele>
        <time>2022-07-28T09:31:21.000Z</time>
      </trkpt>
      <trkpt lat="42.37270611338317394256591796875" lon="2.9510671086609363555908203125">
        <ele>114.1999969482421875</ele>
        <time>2022-07-28T09:31:22.000Z</time>
      </trkpt>
      <trkpt lat="42.3726302571594715118408203125" lon="2.951036430895328521728515625">
        <ele>114</ele>
        <time>2022-07-28T09:31:23.000Z</time>
      </trkpt>
      <trkpt lat="42.3721229843795299530029296875" lon="2.95077701099216938018798828125">
        <ele>113.59999847412109375</ele>
        <time>2022-07-28T09:31:30.000Z</time>
      </trkpt>
      <trkpt lat="42.37205249257385730743408203125" lon="2.95074314810335636138916015625">
        <ele>113.59999847412109375</ele>
        <time>2022-07-28T09:31:31.000Z</time>
      </trkpt>
      <trkpt lat="42.37176298163831233978271484375" lon="2.95064290054142475128173828125">
        <ele>113.59999847412109375</ele>
        <time>2022-07-28T09:31:35.000Z</time>
      </trkpt>
      <trkpt lat="42.37161688506603240966796875" lon="2.9506141506135463714599609375">
        <ele>113.59999847412109375</ele>
        <time>2022-07-28T09:31:37.000Z</time>
      </trkpt>
      <trkpt lat="42.37118580378592014312744140625" lon="2.95060434378683567047119140625">
        <ele>114.59999847412109375</ele>
        <time>2022-07-28T09:31:43.000Z</time>
      </trkpt>
      <trkpt lat="42.3710413835942745208740234375" lon="2.95060920529067516326904296875">
        <ele>114.59999847412109375</ele>
        <time>2022-07-28T09:31:45.000Z</time>
      </trkpt>
      <trkpt lat="42.370886988937854766845703125" lon="2.95055740512907505035400390625">
        <ele>114.59999847412109375</ele>
        <time>2022-07-28T09:31:47.000Z</time>
      </trkpt>
      <trkpt lat="42.37068506889045238494873046875" lon="2.95034517534077167510986328125">
        <ele>114.59999847412109375</ele>
        <time>2022-07-28T09:31:50.000Z</time>
      </trkpt>
      <trkpt lat="42.3705971427261829376220703125" lon="2.95015591196715831756591796875">
        <ele>114.1999969482421875</ele>
        <time>2022-07-28T09:31:52.000Z</time>
      </trkpt>
      <trkpt lat="42.370529584586620330810546875" lon="2.949992716312408447265625">
        <ele>113.8000030517578125</ele>
        <time>2022-07-28T09:31:54.000Z</time>
      </trkpt>
      <trkpt lat="42.37044786103069782257080078125" lon="2.949779145419597625732421875">
        <ele>113.40000152587890625</ele>
        <time>2022-07-28T09:31:58.000Z</time>
      </trkpt>
      <trkpt lat="42.3702652193605899810791015625" lon="2.94977285899221897125244140625">
        <ele>115.40000152587890625</ele>
        <time>2022-07-28T09:33:58.000Z</time>
      </trkpt>
      <trkpt lat="42.37024082802236080169677734375" lon="2.94980403967201709747314453125">
        <ele>115.40000152587890625</ele>
        <time>2022-07-28T09:33:59.000Z</time>
      </trkpt>
      <trkpt lat="42.370124571025371551513671875" lon="2.94995608739554882049560546875">
        <ele>115.1999969482421875</ele>
        <time>2022-07-28T09:34:03.000Z</time>
      </trkpt>
      <trkpt lat="42.37008978612720966339111328125" lon="2.9499948956072330474853515625">
        <ele>115.1999969482421875</ele>
        <time>2022-07-28T09:34:04.000Z</time>
      </trkpt>
      <trkpt lat="42.36985257826745510101318359375" lon="2.95027376152575016021728515625">
        <ele>114</ele>
        <time>2022-07-28T09:34:10.000Z</time>
      </trkpt>
      <trkpt lat="42.3694401048123836517333984375" lon="2.950760163366794586181640625">
        <ele>113.59999847412109375</ele>
        <time>2022-07-28T09:34:19.000Z</time>
      </trkpt>
      <trkpt lat="42.369391657412052154541015625" lon="2.95081808231770992279052734375">
        <ele>113.40000152587890625</ele>
        <time>2022-07-28T09:34:20.000Z</time>
      </trkpt>
      <trkpt lat="42.369035594165325164794921875" lon="2.95123516581952571868896484375">
        <ele>112.8000030517578125</ele>
        <time>2022-07-28T09:34:27.000Z</time>
      </trkpt>
      <trkpt lat="42.368739210069179534912109375" lon="2.951590977609157562255859375">
        <ele>112.59999847412109375</ele>
        <time>2022-07-28T09:34:33.000Z</time>
      </trkpt>
      <trkpt lat="42.3686458356678485870361328125" lon="2.95169885270297527313232421875">
        <ele>112.1999969482421875</ele>
        <time>2022-07-28T09:34:35.000Z</time>
      </trkpt>
      <trkpt lat="42.36824241466820240020751953125" lon="2.95221031643450260162353515625">
        <ele>112.40000152587890625</ele>
        <time>2022-07-28T09:34:44.000Z</time>
      </trkpt>
      <trkpt lat="42.36820654012262821197509765625" lon="2.952276952564716339111328125">
        <ele>112.40000152587890625</ele>
        <time>2022-07-28T09:34:45.000Z</time>
      </trkpt>
      <trkpt lat="42.3680993355810642242431640625" lon="2.95258934609591960906982421875">
        <ele>112.8000030517578125</ele>
        <time>2022-07-28T09:34:49.000Z</time>
      </trkpt>
      <trkpt lat="42.367909066379070281982421875" lon="2.9532671906054019927978515625">
        <ele>112.8000030517578125</ele>
        <time>2022-07-28T09:34:56.000Z</time>
      </trkpt>
      <trkpt lat="42.3677422665059566497802734375" lon="2.95384042896330356597900390625">
        <ele>111</ele>
        <time>2022-07-28T09:35:01.000Z</time>
      </trkpt>
      <trkpt lat="42.36770479939877986907958984375" lon="2.95396749861538410186767578125">
        <ele>110</ele>
        <time>2022-07-28T09:35:02.000Z</time>
      </trkpt>
      <trkpt lat="42.3675877042114734649658203125" lon="2.9543687403202056884765625">
        <ele>108.59999847412109375</ele>
        <time>2022-07-28T09:35:05.000Z</time>
      </trkpt>
      <trkpt lat="42.36750648356974124908447265625" lon="2.95464961789548397064208984375">
        <ele>107.8000030517578125</ele>
        <time>2022-07-28T09:35:07.000Z</time>
      </trkpt>
      <trkpt lat="42.36746524460613727569580078125" lon="2.95479211024940013885498046875">
        <ele>107.1999969482421875</ele>
        <time>2022-07-28T09:35:08.000Z</time>
      </trkpt>
      <trkpt lat="42.36742383800446987152099609375" lon="2.9549348540604114532470703125">
        <ele>106.1999969482421875</ele>
        <time>2022-07-28T09:35:09.000Z</time>
      </trkpt>
      <trkpt lat="42.36733867786824703216552734375" lon="2.95522009022533893585205078125">
        <ele>104.40000152587890625</ele>
        <time>2022-07-28T09:35:11.000Z</time>
      </trkpt>
      <trkpt lat="42.367296852171421051025390625" lon="2.95536107383668422698974609375">
        <ele>103</ele>
        <time>2022-07-28T09:35:12.000Z</time>
      </trkpt>
      <trkpt lat="42.36721663735806941986083984375" lon="2.95563817955553531646728515625">
        <ele>101.1999969482421875</ele>
        <time>2022-07-28T09:35:14.000Z</time>
      </trkpt>
      <trkpt lat="42.36713625490665435791015625" lon="2.95590807683765888214111328125">
        <ele>99.1999969482421875</ele>
        <time>2022-07-28T09:35:16.000Z</time>
      </trkpt>
      <trkpt lat="42.36702469177544116973876953125" lon="2.95630789361894130706787109375">
        <ele>98.1999969482421875</ele>
        <time>2022-07-28T09:35:19.000Z</time>
      </trkpt>
      <trkpt lat="42.36688152886927127838134765625" lon="2.95681960880756378173828125">
        <ele>97.59999847412109375</ele>
        <time>2022-07-28T09:35:23.000Z</time>
      </trkpt>
      <trkpt lat="42.366718165576457977294921875" lon="2.95727801509201526641845703125">
        <ele>97.1999969482421875</ele>
        <time>2022-07-28T09:35:27.000Z</time>
      </trkpt>
      <trkpt lat="42.36666284501552581787109375" lon="2.95737482607364654541015625">
        <ele>97</ele>
        <time>2022-07-28T09:35:28.000Z</time>
      </trkpt>
      <trkpt lat="42.36628926359117031097412109375" lon="2.957878746092319488525390625">
        <ele>96</ele>
        <time>2022-07-28T09:35:34.000Z</time>
      </trkpt>
      <trkpt lat="42.36585147678852081298828125" lon="2.958437316119670867919921875">
        <ele>95.8000030517578125</ele>
        <time>2022-07-28T09:35:41.000Z</time>
      </trkpt>
      <trkpt lat="42.36570638604462146759033203125" lon="2.95857553370296955108642578125">
        <ele>95.8000030517578125</ele>
        <time>2022-07-28T09:35:43.000Z</time>
      </trkpt>
      <trkpt lat="42.36523456871509552001953125" lon="2.958948947489261627197265625">
        <ele>95.40000152587890625</ele>
        <time>2022-07-28T09:35:49.000Z</time>
      </trkpt>
      <trkpt lat="42.3651542700827121734619140625" lon="2.95900988392531871795654296875">
        <ele>95.1999969482421875</ele>
        <time>2022-07-28T09:35:50.000Z</time>
      </trkpt>
      <trkpt lat="42.3649916611611843109130859375" lon="2.95912756584584712982177734375">
        <ele>94.8000030517578125</ele>
        <time>2022-07-28T09:35:52.000Z</time>
      </trkpt>
      <trkpt lat="42.36475847661495208740234375" lon="2.95932881534099578857421875">
        <ele>93.59999847412109375</ele>
        <time>2022-07-28T09:35:55.000Z</time>
      </trkpt>
      <trkpt lat="42.364687062799930572509765625" lon="2.95940768904983997344970703125">
        <ele>93.40000152587890625</ele>
        <time>2022-07-28T09:35:56.000Z</time>
      </trkpt>
      <trkpt lat="42.3646215163171291351318359375" lon="2.9594969563186168670654296875">
        <ele>92.8000030517578125</ele>
        <time>2022-07-28T09:35:57.000Z</time>
      </trkpt>
      <trkpt lat="42.36456225626170635223388671875" lon="2.9595951922237873077392578125">
        <ele>92.40000152587890625</ele>
        <time>2022-07-28T09:35:58.000Z</time>
      </trkpt>
      <trkpt lat="42.3644552193582057952880859375" lon="2.9598010517656803131103515625">
        <ele>91.8000030517578125</ele>
        <time>2022-07-28T09:36:00.000Z</time>
      </trkpt>
      <trkpt lat="42.3643496073782444000244140625" lon="2.9600099287927150726318359375">
        <ele>91.40000152587890625</ele>
        <time>2022-07-28T09:36:02.000Z</time>
      </trkpt>
      <trkpt lat="42.3641336895525455474853515625" lon="2.96042692847549915313720703125">
        <ele>90.1999969482421875</ele>
        <time>2022-07-28T09:36:06.000Z</time>
      </trkpt>
      <trkpt lat="42.36402447335422039031982421875" lon="2.9606375657021999359130859375">
        <ele>89.1999969482421875</ele>
        <time>2022-07-28T09:36:08.000Z</time>
      </trkpt>
      <trkpt lat="42.36375222913920879364013671875" lon="2.9611699841916561126708984375">
        <ele>88</ele>
        <time>2022-07-28T09:36:13.000Z</time>
      </trkpt>
      <trkpt lat="42.3635754548013210296630859375" lon="2.96147298999130725860595703125">
        <ele>87.1999969482421875</ele>
        <time>2022-07-28T09:36:16.000Z</time>
      </trkpt>
      <trkpt lat="42.36350865103304386138916015625" lon="2.9615612514317035675048828125">
        <ele>86.8000030517578125</ele>
        <time>2022-07-28T09:36:17.000Z</time>
      </trkpt>
      <trkpt lat="42.3632331378757953643798828125" lon="2.96189929358661174774169921875">
        <ele>85.8000030517578125</ele>
        <time>2022-07-28T09:36:21.000Z</time>
      </trkpt>
      <trkpt lat="42.36309743486344814300537109375" lon="2.962065674364566802978515625">
        <ele>85.40000152587890625</ele>
        <time>2022-07-28T09:36:23.000Z</time>
      </trkpt>
      <trkpt lat="42.36282787285745143890380859375" lon="2.9623786546289920806884765625">
        <ele>84.59999847412109375</ele>
        <time>2022-07-28T09:36:27.000Z</time>
      </trkpt>
      <trkpt lat="42.36263022758066654205322265625" lon="2.962611503899097442626953125">
        <ele>84.40000152587890625</ele>
        <time>2022-07-28T09:36:30.000Z</time>
      </trkpt>
      <trkpt lat="42.3623761720955371856689453125" lon="2.96292607672512531280517578125">
        <ele>84.1999969482421875</ele>
        <time>2022-07-28T09:36:34.000Z</time>
      </trkpt>
      <trkpt lat="42.36227164976298809051513671875" lon="2.96312590129673480987548828125">
        <ele>84</ele>
        <time>2022-07-28T09:36:36.000Z</time>
      </trkpt>
      <trkpt lat="42.36216603778302669525146484375" lon="2.963484227657318115234375">
        <ele>83.59999847412109375</ele>
        <time>2022-07-28T09:36:39.000Z</time>
      </trkpt>
      <trkpt lat="42.3621332645416259765625" lon="2.9636081121861934661865234375">
        <ele>83.59999847412109375</ele>
        <time>2022-07-28T09:36:40.000Z</time>
      </trkpt>
      <trkpt lat="42.3619775287806987762451171875" lon="2.96422594226896762847900390625">
        <ele>82.40000152587890625</ele>
        <time>2022-07-28T09:36:45.000Z</time>
      </trkpt>
      <trkpt lat="42.36191944219172000885009765625" lon="2.9644672572612762451171875">
        <ele>80.8000030517578125</ele>
        <time>2022-07-28T09:36:47.000Z</time>
      </trkpt>
      <trkpt lat="42.3618618585169315338134765625" lon="2.96470756642520427703857421875">
        <ele>80</ele>
        <time>2022-07-28T09:36:49.000Z</time>
      </trkpt>
      <trkpt lat="42.36180578358471393585205078125" lon="2.9649428464472293853759765625">
        <ele>79.8000030517578125</ele>
        <time>2022-07-28T09:36:51.000Z</time>
      </trkpt>
      <trkpt lat="42.3616338707506656646728515625" lon="2.9656422324478626251220703125">
        <ele>79.1999969482421875</ele>
        <time>2022-07-28T09:36:57.000Z</time>
      </trkpt>
      <trkpt lat="42.36160629428923130035400390625" lon="2.9657573997974395751953125">
        <ele>79.1999969482421875</ele>
        <time>2022-07-28T09:36:58.000Z</time>
      </trkpt>
      <trkpt lat="42.3615138418972492218017578125" lon="2.96632560901343822479248046875">
        <ele>78.8000030517578125</ele>
        <time>2022-07-28T09:37:03.000Z</time>
      </trkpt>
      <trkpt lat="42.36150495707988739013671875" lon="2.967080734670162200927734375">
        <ele>78.40000152587890625</ele>
        <time>2022-07-28T09:37:10.000Z</time>
      </trkpt>
      <trkpt lat="42.36150219105184078216552734375" lon="2.9672978259623050689697265625">
        <ele>78.1999969482421875</ele>
        <time>2022-07-28T09:37:12.000Z</time>
      </trkpt>
      <trkpt lat="42.36151057295501232147216796875" lon="2.967745251953601837158203125">
        <ele>78.1999969482421875</ele>
        <time>2022-07-28T09:37:16.000Z</time>
      </trkpt>
      <trkpt lat="42.36150101758539676666259765625" lon="2.96797567047178745269775390625">
        <ele>78.1999969482421875</ele>
        <time>2022-07-28T09:37:18.000Z</time>
      </trkpt>
      <trkpt lat="42.36149154603481292724609375" lon="2.9688045568764209747314453125">
        <ele>77.8000030517578125</ele>
        <time>2022-07-28T09:37:25.000Z</time>
      </trkpt>
      <trkpt lat="42.36149162985384464263916015625" lon="2.9689229093492031097412109375">
        <ele>77.40000152587890625</ele>
        <time>2022-07-28T09:37:26.000Z</time>
      </trkpt>
      <trkpt lat="42.36149422824382781982421875" lon="2.9691572673618793487548828125">
        <ele>76.40000152587890625</ele>
        <time>2022-07-28T09:37:28.000Z</time>
      </trkpt>
      <trkpt lat="42.3614893667399883270263671875" lon="2.96972773969173431396484375">
        <ele>75.1999969482421875</ele>
        <time>2022-07-28T09:37:33.000Z</time>
      </trkpt>
      <trkpt lat="42.36148492433130741119384765625" lon="2.970295362174510955810546875">
        <ele>74.1999969482421875</ele>
        <time>2022-07-28T09:37:38.000Z</time>
      </trkpt>
      <trkpt lat="42.36148215830326080322265625" lon="2.97063608653843402862548828125">
        <ele>73.59999847412109375</ele>
        <time>2022-07-28T09:37:41.000Z</time>
      </trkpt>
      <trkpt lat="42.36152834258973598480224609375" lon="2.9712859354913234710693359375">
        <ele>73.1999969482421875</ele>
        <time>2022-07-28T09:37:47.000Z</time>
      </trkpt>
      <trkpt lat="42.3616523109376430511474609375" lon="2.971562705934047698974609375">
        <ele>73.1999969482421875</ele>
        <time>2022-07-28T09:37:50.000Z</time>
      </trkpt>
      <trkpt lat="42.3619533888995647430419921875" lon="2.97206553630530834197998046875">
        <ele>73.40000152587890625</ele>
        <time>2022-07-28T09:37:56.000Z</time>
      </trkpt>
      <trkpt lat="42.3623047582805156707763671875" lon="2.97268353402614593505859375">
        <ele>74.1999969482421875</ele>
        <time>2022-07-28T09:38:04.000Z</time>
      </trkpt>
      <trkpt lat="42.3624978773295879364013671875" lon="2.97299592755734920501708984375">
        <ele>74.59999847412109375</ele>
        <time>2022-07-28T09:38:09.000Z</time>
      </trkpt>
      <trkpt lat="42.36253090202808380126953125" lon="2.97303582541644573211669921875">
        <ele>74.59999847412109375</ele>
        <time>2022-07-28T09:38:10.000Z</time>
      </trkpt>
      <trkpt lat="42.36259259283542633056640625" lon="2.9730722866952419281005859375">
        <ele>74.59999847412109375</ele>
        <time>2022-07-28T09:38:12.000Z</time>
      </trkpt>
      <trkpt lat="42.36268554814159870147705078125" lon="2.97331125475466251373291015625">
        <ele>76.59999847412109375</ele>
        <time>2022-07-28T09:38:49.000Z</time>
      </trkpt>
      <trkpt lat="42.3627369292080402374267578125" lon="2.97339859418570995330810546875">
        <ele>76.59999847412109375</ele>
        <time>2022-07-28T09:38:51.000Z</time>
      </trkpt>
      <trkpt lat="42.3629146255552768707275390625" lon="2.97370721586048603057861328125">
        <ele>76.40000152587890625</ele>
        <time>2022-07-28T09:38:56.000Z</time>
      </trkpt>
      <trkpt lat="42.36315376125276088714599609375" lon="2.9741096310317516326904296875">
        <ele>76</ele>
        <time>2022-07-28T09:39:01.000Z</time>
      </trkpt>
      <trkpt lat="42.363264821469783782958984375" lon="2.97429126687347888946533203125">
        <ele>75.40000152587890625</ele>
        <time>2022-07-28T09:39:03.000Z</time>
      </trkpt>
      <trkpt lat="42.3634876124560832977294921875" lon="2.974673397839069366455078125">
        <ele>74.1999969482421875</ele>
        <time>2022-07-28T09:39:07.000Z</time>
      </trkpt>
      <trkpt lat="42.36359573900699615478515625" lon="2.97486643306910991668701171875">
        <ele>73</ele>
        <time>2022-07-28T09:39:09.000Z</time>
      </trkpt>
      <trkpt lat="42.36375742591917514801025390625" lon="2.9751540161669254302978515625">
        <ele>71.8000030517578125</ele>
        <time>2022-07-28T09:39:12.000Z</time>
      </trkpt>
      <trkpt lat="42.36414081417024135589599609375" lon="2.97579900361597537994384765625">
        <ele>71.59999847412109375</ele>
        <time>2022-07-28T09:39:19.000Z</time>
      </trkpt>
      <trkpt lat="42.36451112665235996246337890625" lon="2.97644290141761302947998046875">
        <ele>72</ele>
        <time>2022-07-28T09:39:26.000Z</time>
      </trkpt>
      <trkpt lat="42.36461807973682880401611328125" lon="2.97662126831710338592529296875">
        <ele>72.40000152587890625</ele>
        <time>2022-07-28T09:39:28.000Z</time>
      </trkpt>
      <trkpt lat="42.36500415019690990447998046875" lon="2.977249659597873687744140625">
        <ele>72.8000030517578125</ele>
        <time>2022-07-28T09:39:35.000Z</time>
      </trkpt>
      <trkpt lat="42.36511051654815673828125" lon="2.97743347473442554473876953125">
        <ele>72.8000030517578125</ele>
        <time>2022-07-28T09:39:37.000Z</time>
      </trkpt>
      <trkpt lat="42.36520514823496341705322265625" lon="2.97762508504092693328857421875">
        <ele>73</ele>
        <time>2022-07-28T09:39:39.000Z</time>
      </trkpt>
      <trkpt lat="42.3655276000499725341796875" lon="2.9781678132712841033935546875">
        <ele>73.1999969482421875</ele>
        <time>2022-07-28T09:39:45.000Z</time>
      </trkpt>
      <trkpt lat="42.365912161767482757568359375" lon="2.9788102023303508758544921875">
        <ele>73.1999969482421875</ele>
        <time>2022-07-28T09:39:52.000Z</time>
      </trkpt>
      <trkpt lat="42.36596086062490940093994140625" lon="2.97890491783618927001953125">
        <ele>73.1999969482421875</ele>
        <time>2022-07-28T09:39:53.000Z</time>
      </trkpt>
      <trkpt lat="42.3662093840539455413818359375" lon="2.9793285392224788665771484375">
        <ele>73.1999969482421875</ele>
        <time>2022-07-28T09:39:58.000Z</time>
      </trkpt>
      <trkpt lat="42.36657123081386089324951171875" lon="2.9799400828778743743896484375">
        <ele>73.8000030517578125</ele>
        <time>2022-07-28T09:40:06.000Z</time>
      </trkpt>
      <trkpt lat="42.36665823496878147125244140625" lon="2.98008601181209087371826171875">
        <ele>74.1999969482421875</ele>
        <time>2022-07-28T09:40:08.000Z</time>
      </trkpt>
      <trkpt lat="42.36685051582753658294677734375" lon="2.9804091341793537139892578125">
        <ele>74.59999847412109375</ele>
        <time>2022-07-28T09:40:13.000Z</time>
      </trkpt>
      <trkpt lat="42.36692033708095550537109375" lon="2.9805234633386135101318359375">
        <ele>75.1999969482421875</ele>
        <time>2022-07-28T09:40:15.000Z</time>
      </trkpt>
      <trkpt lat="42.36704732291400432586669921875" lon="2.98065111972391605377197265625">
        <ele>76</ele>
        <time>2022-07-28T09:40:18.000Z</time>
      </trkpt>
      <trkpt lat="42.36709199845790863037109375" lon="2.980688922107219696044921875">
        <ele>76.1999969482421875</ele>
        <time>2022-07-28T09:40:19.000Z</time>
      </trkpt>
      <trkpt lat="42.36727078445255756378173828125" lon="2.9808154888451099395751953125">
        <ele>77.1999969482421875</ele>
        <time>2022-07-28T09:40:23.000Z</time>
      </trkpt>
      <trkpt lat="42.36731805838644504547119140625" lon="2.98083744943141937255859375">
        <ele>77.40000152587890625</ele>
        <time>2022-07-28T09:40:24.000Z</time>
      </trkpt>
      <trkpt lat="42.3673647455871105194091796875" lon="2.98085982911288738250732421875">
        <ele>77.59999847412109375</ele>
        <time>2022-07-28T09:40:25.000Z</time>
      </trkpt>
      <trkpt lat="42.36759088933467864990234375" lon="2.98099829815328121185302734375">
        <ele>78.8000030517578125</ele>
        <time>2022-07-28T09:40:30.000Z</time>
      </trkpt>
      <trkpt lat="42.367638833820819854736328125" lon="2.981021516025066375732421875">
        <ele>79.1999969482421875</ele>
        <time>2022-07-28T09:40:31.000Z</time>
      </trkpt>
      <trkpt lat="42.36768770031630992889404296875" lon="2.98103936947882175445556640625">
        <ele>79.40000152587890625</ele>
        <time>2022-07-28T09:40:32.000Z</time>
      </trkpt>
      <trkpt lat="42.36778534948825836181640625" lon="2.98108127899467945098876953125">
        <ele>79.8000030517578125</ele>
        <time>2022-07-28T09:40:34.000Z</time>
      </trkpt>
      <trkpt lat="42.36801224760711193084716796875" lon="2.9811961948871612548828125">
        <ele>80.1999969482421875</ele>
        <time>2022-07-28T09:40:39.000Z</time>
      </trkpt>
      <trkpt lat="42.36839597113430500030517578125" lon="2.98138369806110858917236328125">
        <ele>80.8000030517578125</ele>
        <time>2022-07-28T09:40:48.000Z</time>
      </trkpt>
      <trkpt lat="42.36843737773597240447998046875" lon="2.981405742466449737548828125">
        <ele>80.8000030517578125</ele>
        <time>2022-07-28T09:40:49.000Z</time>
      </trkpt>
      <trkpt lat="42.36859311349689960479736328125" lon="2.98144622705876827239990234375">
        <ele>81.1999969482421875</ele>
        <time>2022-07-28T09:40:53.000Z</time>
      </trkpt>
      <trkpt lat="42.36862077377736568450927734375" lon="2.9814266972243785858154296875">
        <ele>81.1999969482421875</ele>
        <time>2022-07-28T09:40:54.000Z</time>
      </trkpt>
      <trkpt lat="42.36865782178938388824462890625" lon="2.9813437163829803466796875">
        <ele>81</ele>
        <time>2022-07-28T09:40:56.000Z</time>
      </trkpt>
      <trkpt lat="42.3686558939516544342041015625" lon="2.98116677440702915191650390625">
        <ele>81.1999969482421875</ele>
        <time>2022-07-28T09:40:59.000Z</time>
      </trkpt>
      <trkpt lat="42.36865329556167125701904296875" lon="2.981102652847766876220703125">
        <ele>81.1999969482421875</ele>
        <time>2022-07-28T09:41:00.000Z</time>
      </trkpt>
      <trkpt lat="42.36864424310624599456787109375" lon="2.980917580425739288330078125">
        <ele>81.1999969482421875</ele>
        <time>2022-07-28T09:41:03.000Z</time>
      </trkpt>
      <trkpt lat="42.36864659003913402557373046875" lon="2.980766706168651580810546875">
        <ele>81</ele>
        <time>2022-07-28T09:41:06.000Z</time>
      </trkpt>
      <trkpt lat="42.36871196888387203216552734375" lon="2.98071733675897121429443359375">
        <ele>81</ele>
        <time>2022-07-28T09:41:09.000Z</time>
      </trkpt>
      <trkpt lat="42.3687792755663394927978515625" lon="2.98073611222207546234130859375">
        <ele>81</ele>
        <time>2022-07-28T09:41:11.000Z</time>
      </trkpt>
      <trkpt lat="42.36886116676032543182373046875" lon="2.9807581566274166107177734375">
        <ele>81.1999969482421875</ele>
        <time>2022-07-28T09:41:13.000Z</time>
      </trkpt>
      <trkpt lat="42.36904188059270381927490234375" lon="2.98079176805913448333740234375">
        <ele>81.59999847412109375</ele>
        <time>2022-07-28T09:41:17.000Z</time>
      </trkpt>
      <trkpt lat="42.36910407431423664093017578125" lon="2.9808032512664794921875">
        <ele>81.59999847412109375</ele>
        <time>2022-07-28T09:41:19.000Z</time>
      </trkpt>
      <trkpt lat="42.36926400102674961090087890625" lon="2.98096745274960994720458984375">
        <ele>85.1999969482421875</ele>
        <time>2022-07-28T10:04:38.000Z</time>
      </trkpt>
      <trkpt lat="42.36937916837632656097412109375" lon="2.9810448177158832550048828125">
        <ele>85.1999969482421875</ele>
        <time>2022-07-28T10:04:42.000Z</time>
      </trkpt>
      <trkpt lat="42.3694498278200626373291015625" lon="2.98110525123775005340576171875">
        <ele>85</ele>
        <time>2022-07-28T10:04:46.000Z</time>
      </trkpt>
      <trkpt lat="42.36946902237832546234130859375" lon="2.98112017102539539337158203125">
        <ele>85</ele>
        <time>2022-07-28T10:04:48.000Z</time>
      </trkpt>
      <trkpt lat="42.36948025412857532501220703125" lon="2.98112469725310802459716796875">
        <ele>85</ele>
        <time>2022-07-28T10:04:49.000Z</time>
      </trkpt>
      <trkpt lat="42.3691829480230808258056640625" lon="2.9807953722774982452392578125">
        <ele>84.59999847412109375</ele>
        <time>2022-07-28T10:05:22.000Z</time>
      </trkpt>
      <trkpt lat="42.36915486864745616912841796875" lon="2.98079746775329113006591796875">
        <ele>84.59999847412109375</ele>
        <time>2022-07-28T10:05:23.000Z</time>
      </trkpt>
      <trkpt lat="42.3689599893987178802490234375" lon="2.98078573308885097503662109375">
        <ele>84.59999847412109375</ele>
        <time>2022-07-28T10:05:28.000Z</time>
      </trkpt>
      <trkpt lat="42.36886435188353061676025390625" lon="2.9807678796350955963134765625">
        <ele>84.59999847412109375</ele>
        <time>2022-07-28T10:05:30.000Z</time>
      </trkpt>
      <trkpt lat="42.368766367435455322265625" lon="2.98071063123643398284912109375">
        <ele>84</ele>
        <time>2022-07-28T10:05:32.000Z</time>
      </trkpt>
      <trkpt lat="42.36871280707418918609619140625" lon="2.9806743375957012176513671875">
        <ele>84</ele>
        <time>2022-07-28T10:05:33.000Z</time>
      </trkpt>
      <trkpt lat="42.36860702745616436004638671875" lon="2.98059261403977870941162109375">
        <ele>83.59999847412109375</ele>
        <time>2022-07-28T10:05:35.000Z</time>
      </trkpt>
      <trkpt lat="42.36850108020007610321044921875" lon="2.98051365651190280914306640625">
        <ele>83.1999969482421875</ele>
        <time>2022-07-28T10:05:37.000Z</time>
      </trkpt>
      <trkpt lat="42.36832925118505954742431640625" lon="2.980452887713909149169921875">
        <ele>83</ele>
        <time>2022-07-28T10:05:40.000Z</time>
      </trkpt>
      <trkpt lat="42.36827610991895198822021484375" lon="2.98045515082776546478271484375">
        <ele>83</ele>
        <time>2022-07-28T10:05:41.000Z</time>
      </trkpt>
      <trkpt lat="42.36816831864416599273681640625" lon="2.98045280389487743377685546875">
        <ele>83</ele>
        <time>2022-07-28T10:05:44.000Z</time>
      </trkpt>
      <trkpt lat="42.36798190511763095855712890625" lon="2.9804808832705020904541015625">
        <ele>83.40000152587890625</ele>
        <time>2022-07-28T10:05:50.000Z</time>
      </trkpt>
      <trkpt lat="42.3677345551550388336181640625" lon="2.98050217330455780029296875">
        <ele>83.40000152587890625</ele>
        <time>2022-07-28T10:05:56.000Z</time>
      </trkpt>
      <trkpt lat="42.3676537536084651947021484375" lon="2.9805043525993824005126953125">
        <ele>83.40000152587890625</ele>
        <time>2022-07-28T10:05:58.000Z</time>
      </trkpt>
      <trkpt lat="42.36755643971264362335205078125" lon="2.98046537674963474273681640625">
        <ele>83.1999969482421875</ele>
        <time>2022-07-28T10:06:00.000Z</time>
      </trkpt>
      <trkpt lat="42.36744646914303302764892578125" lon="2.9804077930748462677001953125">
        <ele>82.8000030517578125</ele>
        <time>2022-07-28T10:06:02.000Z</time>
      </trkpt>
      <trkpt lat="42.3673020489513874053955078125" lon="2.98031416721642017364501953125">
        <ele>82.59999847412109375</ele>
        <time>2022-07-28T10:06:05.000Z</time>
      </trkpt>
      <trkpt lat="42.36710004508495330810546875" lon="2.98020285554230213165283203125">
        <ele>82.1999969482421875</ele>
        <time>2022-07-28T10:06:09.000Z</time>
      </trkpt>
      <trkpt lat="42.3670442216098308563232421875" lon="2.980192042887210845947265625">
        <ele>82.1999969482421875</ele>
        <time>2022-07-28T10:06:10.000Z</time>
      </trkpt>
      <trkpt lat="42.3669912479817867279052734375" lon="2.9801895283162593841552734375">
        <ele>81.8000030517578125</ele>
        <time>2022-07-28T10:06:11.000Z</time>
      </trkpt>
      <trkpt lat="42.3668849654495716094970703125" lon="2.98018877394497394561767578125">
        <ele>80.8000030517578125</ele>
        <time>2022-07-28T10:06:14.000Z</time>
      </trkpt>
      <trkpt lat="42.36686132848262786865234375" lon="2.9801841638982295989990234375">
        <ele>80.59999847412109375</ele>
        <time>2022-07-28T10:06:15.000Z</time>
      </trkpt>
      <trkpt lat="42.3668118752539157867431640625" lon="2.98016379587352275848388671875">
        <ele>80.1999969482421875</ele>
        <time>2022-07-28T10:06:19.000Z</time>
      </trkpt>
      <trkpt lat="42.36677474342286586761474609375" lon="2.98015641979873180389404296875">
        <ele>80.1999969482421875</ele>
        <time>2022-07-28T10:06:22.000Z</time>
      </trkpt>
      <trkpt lat="42.36670701764523983001708984375" lon="2.9801787994801998138427734375">
        <ele>80</ele>
        <time>2022-07-28T10:06:25.000Z</time>
      </trkpt>
      <trkpt lat="42.36663392744958400726318359375" lon="2.9802555777132511138916015625">
        <ele>80</ele>
        <time>2022-07-28T10:06:28.000Z</time>
      </trkpt>
      <trkpt lat="42.36659989692270755767822265625" lon="2.98028332181274890899658203125">
        <ele>80</ele>
        <time>2022-07-28T10:06:29.000Z</time>
      </trkpt>
      <trkpt lat="42.36640208400785923004150390625" lon="2.98036613501608371734619140625">
        <ele>79.8000030517578125</ele>
        <time>2022-07-28T10:06:33.000Z</time>
      </trkpt>
      <trkpt lat="42.3662251420319080352783203125" lon="2.9804299212992191314697265625">
        <ele>79.59999847412109375</ele>
        <time>2022-07-28T10:06:36.000Z</time>
      </trkpt>
      <trkpt lat="42.3660984076559543609619140625" lon="2.9804510436952114105224609375">
        <ele>79.1999969482421875</ele>
        <time>2022-07-28T10:06:38.000Z</time>
      </trkpt>
      <trkpt lat="42.3659676499664783477783203125" lon="2.98044827766716480255126953125">
        <ele>78.40000152587890625</ele>
        <time>2022-07-28T10:06:40.000Z</time>
      </trkpt>
      <trkpt lat="42.3657752014696598052978515625" lon="2.98042648471891880035400390625">
        <ele>77.1999969482421875</ele>
        <time>2022-07-28T10:06:43.000Z</time>
      </trkpt>
      <trkpt lat="42.3655914701521396636962890625" lon="2.98037267290055751800537109375">
        <ele>76.40000152587890625</ele>
        <time>2022-07-28T10:06:46.000Z</time>
      </trkpt>
      <trkpt lat="42.365411929786205291748046875" lon="2.98028667457401752471923828125">
        <ele>76</ele>
        <time>2022-07-28T10:06:49.000Z</time>
      </trkpt>
      <trkpt lat="42.364949248731136322021484375" lon="2.98011953942477703094482421875">
        <ele>75.8000030517578125</ele>
        <time>2022-07-28T10:06:56.000Z</time>
      </trkpt>
      <trkpt lat="42.36487808637320995330810546875" lon="2.98011652193963527679443359375">
        <ele>75.8000030517578125</ele>
        <time>2022-07-28T10:06:57.000Z</time>
      </trkpt>
      <trkpt lat="42.3646590672433376312255859375" lon="2.9801449365913867950439453125">
        <ele>75.40000152587890625</ele>
        <time>2022-07-28T10:07:00.000Z</time>
      </trkpt>
      <trkpt lat="42.3645861446857452392578125" lon="2.980168573558330535888671875">
        <ele>75.40000152587890625</ele>
        <time>2022-07-28T10:07:01.000Z</time>
      </trkpt>
      <trkpt lat="42.3643093742430210113525390625" lon="2.98029027879238128662109375">
        <ele>75</ele>
        <time>2022-07-28T10:07:05.000Z</time>
      </trkpt>
      <trkpt lat="42.36418289132416248321533203125" lon="2.9803861677646636962890625">
        <ele>75</ele>
        <time>2022-07-28T10:07:07.000Z</time>
      </trkpt>
      <trkpt lat="42.36394685693085193634033203125" lon="2.98059965483844280242919921875">
        <ele>75</ele>
        <time>2022-07-28T10:07:11.000Z</time>
      </trkpt>
      <trkpt lat="42.36388198100030422210693359375" lon="2.980635948479175567626953125">
        <ele>74.8000030517578125</ele>
        <time>2022-07-28T10:07:12.000Z</time>
      </trkpt>
      <trkpt lat="42.363455593585968017578125" lon="2.98077106475830078125">
        <ele>74.59999847412109375</ele>
        <time>2022-07-28T10:07:18.000Z</time>
      </trkpt>
      <trkpt lat="42.362920828163623809814453125" lon="2.98090408556163311004638671875">
        <ele>74.1999969482421875</ele>
        <time>2022-07-28T10:07:25.000Z</time>
      </trkpt>
      <trkpt lat="42.36269057728350162506103515625" lon="2.9809596575796604156494140625">
        <ele>73.40000152587890625</ele>
        <time>2022-07-28T10:07:28.000Z</time>
      </trkpt>
      <trkpt lat="42.36261539161205291748046875" lon="2.980977594852447509765625">
        <ele>73</ele>
        <time>2022-07-28T10:07:29.000Z</time>
      </trkpt>
      <trkpt lat="42.3620948754251003265380859375" lon="2.9811130464076995849609375">
        <ele>72.1999969482421875</ele>
        <time>2022-07-28T10:07:36.000Z</time>
      </trkpt>
      <trkpt lat="42.36161517910659313201904296875" lon="2.98124246299266815185546875">
        <ele>72.1999969482421875</ele>
        <time>2022-07-28T10:07:43.000Z</time>
      </trkpt>
      <trkpt lat="42.36135735176503658294677734375" lon="2.9812912456691265106201171875">
        <ele>72</ele>
        <time>2022-07-28T10:07:47.000Z</time>
      </trkpt>
      <trkpt lat="42.3611743748188018798828125" lon="2.98133097589015960693359375">
        <ele>72</ele>
        <time>2022-07-28T10:07:50.000Z</time>
      </trkpt>
      <trkpt lat="42.3608798347413539886474609375" lon="2.98140297643840312957763671875">
        <ele>71.59999847412109375</ele>
        <time>2022-07-28T10:07:55.000Z</time>
      </trkpt>
      <trkpt lat="42.36075787805020809173583984375" lon="2.98143818043172359466552734375">
        <ele>71.40000152587890625</ele>
        <time>2022-07-28T10:07:57.000Z</time>
      </trkpt>
      <trkpt lat="42.3605681955814361572265625" lon="2.98149031586945056915283203125">
        <ele>71</ele>
        <time>2022-07-28T10:08:00.000Z</time>
      </trkpt>
      <trkpt lat="42.36023853532969951629638671875" lon="2.9815971851348876953125">
        <ele>70.59999847412109375</ele>
        <time>2022-07-28T10:08:05.000Z</time>
      </trkpt>
      <trkpt lat="42.35999696888029575347900390625" lon="2.9816734604537487030029296875">
        <ele>69.8000030517578125</ele>
        <time>2022-07-28T10:08:09.000Z</time>
      </trkpt>
      <trkpt lat="42.3598206974565982818603515625" lon="2.9817321337759494781494140625">
        <ele>69.59999847412109375</ele>
        <time>2022-07-28T10:08:12.000Z</time>
      </trkpt>
      <trkpt lat="42.35944862477481365203857421875" lon="2.9818721115589141845703125">
        <ele>68.8000030517578125</ele>
        <time>2022-07-28T10:08:18.000Z</time>
      </trkpt>
      <trkpt lat="42.35938240773975849151611328125" lon="2.9818987660109996795654296875">
        <ele>68.8000030517578125</ele>
        <time>2022-07-28T10:08:19.000Z</time>
      </trkpt>
      <trkpt lat="42.3589722812175750732421875" lon="2.98208476044237613677978515625">
        <ele>68.1999969482421875</ele>
        <time>2022-07-28T10:08:25.000Z</time>
      </trkpt>
      <trkpt lat="42.35861244611442089080810546875" lon="2.98220747150480747222900390625">
        <ele>67.59999847412109375</ele>
        <time>2022-07-28T10:08:30.000Z</time>
      </trkpt>
      <trkpt lat="42.3583937622606754302978515625" lon="2.98226396553218364715576171875">
        <ele>67.1999969482421875</ele>
        <time>2022-07-28T10:08:33.000Z</time>
      </trkpt>
      <trkpt lat="42.3578073643147945404052734375" lon="2.98240629024803638458251953125">
        <ele>66.8000030517578125</ele>
        <time>2022-07-28T10:08:41.000Z</time>
      </trkpt>
      <trkpt lat="42.35773351974785327911376953125" lon="2.982425987720489501953125">
        <ele>66.8000030517578125</ele>
        <time>2022-07-28T10:08:42.000Z</time>
      </trkpt>
      <trkpt lat="42.35713572241365909576416015625" lon="2.98258029855787754058837890625">
        <ele>66.59999847412109375</ele>
        <time>2022-07-28T10:08:50.000Z</time>
      </trkpt>
      <trkpt lat="42.3569242469966411590576171875" lon="2.98264483921229839324951171875">
        <ele>66.40000152587890625</ele>
        <time>2022-07-28T10:08:53.000Z</time>
      </trkpt>
      <trkpt lat="42.35685694031417369842529296875" lon="2.98266076482832431793212890625">
        <ele>66.40000152587890625</ele>
        <time>2022-07-28T10:08:54.000Z</time>
      </trkpt>
      <trkpt lat="42.3566053993999958038330078125" lon="2.98270233906805515289306640625">
        <ele>66</ele>
        <time>2022-07-28T10:08:58.000Z</time>
      </trkpt>
      <trkpt lat="42.35648394562304019927978515625" lon="2.982707954943180084228515625">
        <ele>66</ele>
        <time>2022-07-28T10:09:00.000Z</time>
      </trkpt>
      <trkpt lat="42.35636576078832149505615234375" lon="2.98270083032548427581787109375">
        <ele>66</ele>
        <time>2022-07-28T10:09:02.000Z</time>
      </trkpt>
      <trkpt lat="42.356307171285152435302734375" lon="2.9827114753425121307373046875">
        <ele>66</ele>
        <time>2022-07-28T10:09:03.000Z</time>
      </trkpt>
      <trkpt lat="42.3559418879449367523193359375" lon="2.98281583003699779510498046875">
        <ele>65.8000030517578125</ele>
        <time>2022-07-28T10:09:09.000Z</time>
      </trkpt>
      <trkpt lat="42.35555103980004787445068359375" lon="2.982805185019969940185546875">
        <ele>65.8000030517578125</ele>
        <time>2022-07-28T10:09:15.000Z</time>
      </trkpt>
      <trkpt lat="42.35521576367318630218505859375" lon="2.98287324607372283935546875">
        <ele>65.59999847412109375</ele>
        <time>2022-07-28T10:09:20.000Z</time>
      </trkpt>
      <trkpt lat="42.35494117252528667449951171875" lon="2.9829342663288116455078125">
        <ele>65.40000152587890625</ele>
        <time>2022-07-28T10:09:24.000Z</time>
      </trkpt>
      <trkpt lat="42.35474185086786746978759765625" lon="2.98294926993548870086669921875">
        <ele>65</ele>
        <time>2022-07-28T10:09:27.000Z</time>
      </trkpt>
      <trkpt lat="42.35438293777406215667724609375" lon="2.98300559632480144500732421875">
        <ele>64.8000030517578125</ele>
        <time>2022-07-28T10:09:33.000Z</time>
      </trkpt>
      <trkpt lat="42.35404933802783489227294921875" lon="2.98313300125300884246826171875">
        <ele>64.40000152587890625</ele>
        <time>2022-07-28T10:09:38.000Z</time>
      </trkpt>
      <trkpt lat="42.35391103662550449371337890625" lon="2.983322180807590484619140625">
        <ele>64</ele>
        <time>2022-07-28T10:09:41.000Z</time>
      </trkpt>
      <trkpt lat="42.35386560671031475067138671875" lon="2.98348587937653064727783203125">
        <ele>62.59999847412109375</ele>
        <time>2022-07-28T10:09:43.000Z</time>
      </trkpt>
      <trkpt lat="42.3538122139871120452880859375" lon="2.98372074030339717864990234375">
        <ele>62</ele>
        <time>2022-07-28T10:09:46.000Z</time>
      </trkpt>
      <trkpt lat="42.35377726145088672637939453125" lon="2.98394872806966304779052734375">
        <ele>62</ele>
        <time>2022-07-28T10:09:49.000Z</time>
      </trkpt>
      <trkpt lat="42.353730909526348114013671875" lon="2.98409440554678440093994140625">
        <ele>62</ele>
        <time>2022-07-28T10:09:51.000Z</time>
      </trkpt>
      <trkpt lat="42.35354550182819366455078125" lon="2.98431501723825931549072265625">
        <ele>62</ele>
        <time>2022-07-28T10:09:55.000Z</time>
      </trkpt>
      <trkpt lat="42.3534269817173480987548828125" lon="2.98438408412039279937744140625">
        <ele>62</ele>
        <time>2022-07-28T10:09:57.000Z</time>
      </trkpt>
      <trkpt lat="42.353189773857593536376953125" lon="2.98451484180986881256103515625">
        <ele>62</ele>
        <time>2022-07-28T10:10:01.000Z</time>
      </trkpt>
      <trkpt lat="42.35307871364057064056396484375" lon="2.98459832556545734405517578125">
        <ele>61.59999847412109375</ele>
        <time>2022-07-28T10:10:03.000Z</time>
      </trkpt>
      <trkpt lat="42.3529016040265560150146484375" lon="2.984716929495334625244140625">
        <ele>61.40000152587890625</ele>
        <time>2022-07-28T10:10:06.000Z</time>
      </trkpt>
      <trkpt lat="42.35279054380953311920166015625" lon="2.98477048985660076141357421875">
        <ele>61.200000762939453125</ele>
        <time>2022-07-28T10:10:08.000Z</time>
      </trkpt>
      <trkpt lat="42.3526330478489398956298828125" lon="2.98482631333172321319580078125">
        <ele>61.200000762939453125</ele>
        <time>2022-07-28T10:10:12.000Z</time>
      </trkpt>
      <trkpt lat="42.35257445834577083587646484375" lon="2.98483821563422679901123046875">
        <ele>61.200000762939453125</ele>
        <time>2022-07-28T10:10:14.000Z</time>
      </trkpt>
      <trkpt lat="42.35240816138684749603271484375" lon="2.98489806242287158966064453125">
        <ele>62.200000762939453125</ele>
        <time>2022-07-28T10:10:46.000Z</time>
      </trkpt>
      <trkpt lat="42.3523437045514583587646484375" lon="2.98491851426661014556884765625">
        <ele>62.200000762939453125</ele>
        <time>2022-07-28T10:10:48.000Z</time>
      </trkpt>
      <trkpt lat="42.3523051477968692779541015625" lon="2.98492605797946453094482421875">
        <ele>62.200000762939453125</ele>
        <time>2022-07-28T10:10:49.000Z</time>
      </trkpt>
      <trkpt lat="42.35212569124996662139892578125" lon="2.98496411181986331939697265625">
        <ele>61.200000762939453125</ele>
        <time>2022-07-28T10:10:53.000Z</time>
      </trkpt>
      <trkpt lat="42.35198043286800384521484375" lon="2.98500317148864269256591796875">
        <ele>60.59999847412109375</ele>
        <time>2022-07-28T10:10:56.000Z</time>
      </trkpt>
      <trkpt lat="42.35179276205599308013916015625" lon="2.98506184481084346771240234375">
        <ele>59.799999237060546875</ele>
        <time>2022-07-28T10:11:00.000Z</time>
      </trkpt>
      <trkpt lat="42.35145245678722858428955078125" lon="2.985127978026866912841796875">
        <ele>59.59999847412109375</ele>
        <time>2022-07-28T10:11:06.000Z</time>
      </trkpt>
      <trkpt lat="42.351324968039989471435546875" lon="2.985126636922359466552734375">
        <ele>59.59999847412109375</ele>
        <time>2022-07-28T10:11:08.000Z</time>
      </trkpt>
      <trkpt lat="42.35119714401662349700927734375" lon="2.98509143292903900146484375">
        <ele>59.59999847412109375</ele>
        <time>2022-07-28T10:11:10.000Z</time>
      </trkpt>
      <trkpt lat="42.35107543878257274627685546875" lon="2.9850151576101779937744140625">
        <ele>59.200000762939453125</ele>
        <time>2022-07-28T10:11:12.000Z</time>
      </trkpt>
      <trkpt lat="42.35089791007339954376220703125" lon="2.98488180153071880340576171875">
        <ele>59</ele>
        <time>2022-07-28T10:11:15.000Z</time>
      </trkpt>
      <trkpt lat="42.3507816530764102935791015625" lon="2.98481047153472900390625">
        <ele>59</ele>
        <time>2022-07-28T10:11:17.000Z</time>
      </trkpt>
      <trkpt lat="42.3506636358797550201416015625" lon="2.98477853648364543914794921875">
        <ele>58.59999847412109375</ele>
        <time>2022-07-28T10:11:19.000Z</time>
      </trkpt>
      <trkpt lat="42.35060588456690311431884765625" lon="2.98477635718882083892822265625">
        <ele>58.40000152587890625</ele>
        <time>2022-07-28T10:11:20.000Z</time>
      </trkpt>
      <trkpt lat="42.3503866977989673614501953125" lon="2.9848210327327251434326171875">
        <ele>57.200000762939453125</ele>
        <time>2022-07-28T10:11:24.000Z</time>
      </trkpt>
      <trkpt lat="42.35033045522868633270263671875" lon="2.984838970005512237548828125">
        <ele>57</ele>
        <time>2022-07-28T10:11:25.000Z</time>
      </trkpt>
      <trkpt lat="42.349976487457752227783203125" lon="2.98498288728296756744384765625">
        <ele>56.799999237060546875</ele>
        <time>2022-07-28T10:11:31.000Z</time>
      </trkpt>
      <trkpt lat="42.34947650693356990814208984375" lon="2.98516728915274143218994140625">
        <ele>56.799999237060546875</ele>
        <time>2022-07-28T10:11:39.000Z</time>
      </trkpt>
      <trkpt lat="42.34892296604812145233154296875" lon="2.98529486171901226043701171875">
        <ele>56.200000762939453125</ele>
        <time>2022-07-28T10:11:47.000Z</time>
      </trkpt>
      <trkpt lat="42.3488507978618144989013671875" lon="2.9852840490639209747314453125">
        <ele>56</ele>
        <time>2022-07-28T10:11:48.000Z</time>
      </trkpt>
      <trkpt lat="42.34864267520606517791748046875" lon="2.98519629053771495819091796875">
        <ele>55.200000762939453125</ele>
        <time>2022-07-28T10:11:51.000Z</time>
      </trkpt>
      <trkpt lat="42.34857411123812198638916015625" lon="2.98516594804823398590087890625">
        <ele>55</ele>
        <time>2022-07-28T10:11:52.000Z</time>
      </trkpt>
      <trkpt lat="42.3484392464160919189453125" lon="2.985109202563762664794921875">
        <ele>54.59999847412109375</ele>
        <time>2022-07-28T10:11:54.000Z</time>
      </trkpt>
      <trkpt lat="42.34830639325082302093505859375" lon="2.98510157503187656402587890625">
        <ele>54.40000152587890625</ele>
        <time>2022-07-28T10:11:56.000Z</time>
      </trkpt>
      <trkpt lat="42.34817840158939361572265625" lon="2.98515354283154010772705078125">
        <ele>54.200000762939453125</ele>
        <time>2022-07-28T10:11:58.000Z</time>
      </trkpt>
      <trkpt lat="42.347870953381061553955078125" lon="2.98530190251767635345458984375">
        <ele>54</ele>
        <time>2022-07-28T10:12:03.000Z</time>
      </trkpt>
      <trkpt lat="42.34750240109860897064208984375" lon="2.98551564104855060577392578125">
        <ele>52.799999237060546875</ele>
        <time>2022-07-28T10:12:09.000Z</time>
      </trkpt>
      <trkpt lat="42.34744012355804443359375" lon="2.9855547845363616943359375">
        <ele>52.799999237060546875</ele>
        <time>2022-07-28T10:12:10.000Z</time>
      </trkpt>
      <trkpt lat="42.34694165177643299102783203125" lon="2.98589617945253849029541015625">
        <ele>52.40000152587890625</ele>
        <time>2022-07-28T10:12:18.000Z</time>
      </trkpt>
      <trkpt lat="42.3468245565891265869140625" lon="2.985991649329662322998046875">
        <ele>52.40000152587890625</ele>
        <time>2022-07-28T10:12:20.000Z</time>
      </trkpt>
      <trkpt lat="42.346769906580448150634765625" lon="2.9860451258718967437744140625">
        <ele>52.200000762939453125</ele>
        <time>2022-07-28T10:12:21.000Z</time>
      </trkpt>
      <trkpt lat="42.34656781889498233795166015625" lon="2.98628191463649272918701171875">
        <ele>51.799999237060546875</ele>
        <time>2022-07-28T10:12:25.000Z</time>
      </trkpt>
      <trkpt lat="42.34646606259047985076904296875" lon="2.98639054410159587860107421875">
        <ele>51.59999847412109375</ele>
        <time>2022-07-28T10:12:27.000Z</time>
      </trkpt>
      <trkpt lat="42.34617076814174652099609375" lon="2.9867351241409778594970703125">
        <ele>51.200000762939453125</ele>
        <time>2022-07-28T10:12:33.000Z</time>
      </trkpt>
      <trkpt lat="42.3457595519721508026123046875" lon="2.9872192628681659698486328125">
        <ele>51</ele>
        <time>2022-07-28T10:12:41.000Z</time>
      </trkpt>
      <trkpt lat="42.34570833854377269744873046875" lon="2.98727969639003276824951171875">
        <ele>51</ele>
        <time>2022-07-28T10:12:42.000Z</time>
      </trkpt>
      <trkpt lat="42.34554891474545001983642578125" lon="2.98746041022241115570068359375">
        <ele>50.59999847412109375</ele>
        <time>2022-07-28T10:12:45.000Z</time>
      </trkpt>
      <trkpt lat="42.34533182345330715179443359375" lon="2.98770415596663951873779296875">
        <ele>50.40000152587890625</ele>
        <time>2022-07-28T10:12:49.000Z</time>
      </trkpt>
      <trkpt lat="42.34522604383528232574462890625" lon="2.9878158867359161376953125">
        <ele>50.200000762939453125</ele>
        <time>2022-07-28T10:12:51.000Z</time>
      </trkpt>
      <trkpt lat="42.34502839855849742889404296875" lon="2.98803406767547130584716796875">
        <ele>49.799999237060546875</ele>
        <time>2022-07-28T10:12:55.000Z</time>
      </trkpt>
      <trkpt lat="42.3449290730059146881103515625" lon="2.9881241731345653533935546875">
        <ele>49.59999847412109375</ele>
        <time>2022-07-28T10:12:57.000Z</time>
      </trkpt>
      <trkpt lat="42.34470083378255367279052734375" lon="2.98835291527211666107177734375">
        <ele>49.40000152587890625</ele>
        <time>2022-07-28T10:13:02.000Z</time>
      </trkpt>
      <trkpt lat="42.34445675276219844818115234375" lon="2.988593392074108123779296875">
        <ele>49.799999237060546875</ele>
        <time>2022-07-28T10:13:08.000Z</time>
      </trkpt>
      <trkpt lat="42.3440476320683956146240234375" lon="2.9889455996453762054443359375">
        <ele>49.799999237060546875</ele>
        <time>2022-07-28T10:13:16.000Z</time>
      </trkpt>
      <trkpt lat="42.34375434927642345428466796875" lon="2.98911734484136104583740234375">
        <ele>49.59999847412109375</ele>
        <time>2022-07-28T10:13:21.000Z</time>
      </trkpt>
      <trkpt lat="42.34362342394888401031494140625" lon="2.9891658760607242584228515625">
        <ele>49.40000152587890625</ele>
        <time>2022-07-28T10:13:23.000Z</time>
      </trkpt>
      <trkpt lat="42.34342552721500396728515625" lon="2.98925246112048625946044921875">
        <ele>48.59999847412109375</ele>
        <time>2022-07-28T10:13:26.000Z</time>
      </trkpt>
      <trkpt lat="42.3430967889726161956787109375" lon="2.9894039221107959747314453125">
        <ele>47.799999237060546875</ele>
        <time>2022-07-28T10:13:31.000Z</time>
      </trkpt>
      <trkpt lat="42.34295882284641265869140625" lon="2.989469468593597412109375">
        <ele>47.40000152587890625</ele>
        <time>2022-07-28T10:13:33.000Z</time>
      </trkpt>
      <trkpt lat="42.34260602854192256927490234375" lon="2.9896366037428379058837890625">
        <ele>47</ele>
        <time>2022-07-28T10:13:38.000Z</time>
      </trkpt>
      <trkpt lat="42.34233646653592586517333984375" lon="2.98976643942296504974365234375">
        <ele>46.40000152587890625</ele>
        <time>2022-07-28T10:13:42.000Z</time>
      </trkpt>
      <trkpt lat="42.34214284457266330718994140625" lon="2.98985092900693416595458984375">
        <ele>45.40000152587890625</ele>
        <time>2022-07-28T10:13:45.000Z</time>
      </trkpt>
      <trkpt lat="42.3420202173292636871337890625" lon="2.9898961074650287628173828125">
        <ele>45.200000762939453125</ele>
        <time>2022-07-28T10:13:47.000Z</time>
      </trkpt>
      <trkpt lat="42.3415357433259487152099609375" lon="2.99003717489540576934814453125">
        <ele>44.799999237060546875</ele>
        <time>2022-07-28T10:13:55.000Z</time>
      </trkpt>
      <trkpt lat="42.34127799980342388153076171875" lon="2.9901023022830486297607421875">
        <ele>44.799999237060546875</ele>
        <time>2022-07-28T10:13:59.000Z</time>
      </trkpt>
      <trkpt lat="42.34099402092397212982177734375" lon="2.99017933197319507598876953125">
        <ele>44.59999847412109375</ele>
        <time>2022-07-28T10:14:03.000Z</time>
      </trkpt>
      <trkpt lat="42.34071305952966213226318359375" lon="2.99025896005332469940185546875">
        <ele>44.40000152587890625</ele>
        <time>2022-07-28T10:14:07.000Z</time>
      </trkpt>
      <trkpt lat="42.3405788652598857879638671875" lon="2.9902967624366283416748046875">
        <ele>44.200000762939453125</ele>
        <time>2022-07-28T10:14:09.000Z</time>
      </trkpt>
      <trkpt lat="42.3401155136525630950927734375" lon="2.99041620455682277679443359375">
        <ele>43.799999237060546875</ele>
        <time>2022-07-28T10:14:16.000Z</time>
      </trkpt>
      <trkpt lat="42.33967621810734272003173828125" lon="2.99052952788770198822021484375">
        <ele>43.40000152587890625</ele>
        <time>2022-07-28T10:14:23.000Z</time>
      </trkpt>
      <trkpt lat="42.33954906463623046875" lon="2.990562804043292999267578125">
        <ele>43.200000762939453125</ele>
        <time>2022-07-28T10:14:25.000Z</time>
      </trkpt>
      <trkpt lat="42.33905763365328311920166015625" lon="2.99070269800722599029541015625">
        <ele>42.799999237060546875</ele>
        <time>2022-07-28T10:14:33.000Z</time>
      </trkpt>
      <trkpt lat="42.3389978706836700439453125" lon="2.99072884954512119293212890625">
        <ele>42.799999237060546875</ele>
        <time>2022-07-28T10:14:34.000Z</time>
      </trkpt>
      <trkpt lat="42.3388340882956981658935546875" lon="2.9908583499491214752197265625">
        <ele>42.40000152587890625</ele>
        <time>2022-07-28T10:14:37.000Z</time>
      </trkpt>
      <trkpt lat="42.3386335931718349456787109375" lon="2.99108290113508701324462890625">
        <ele>42.200000762939453125</ele>
        <time>2022-07-28T10:14:41.000Z</time>
      </trkpt>
      <trkpt lat="42.33843569643795490264892578125" lon="2.991330586373805999755859375">
        <ele>41.799999237060546875</ele>
        <time>2022-07-28T10:14:45.000Z</time>
      </trkpt>
      <trkpt lat="42.33819245360791683197021484375" lon="2.99163090996444225311279296875">
        <ele>41.200000762939453125</ele>
        <time>2022-07-28T10:14:50.000Z</time>
      </trkpt>
      <trkpt lat="42.3380991630256175994873046875" lon="2.9917575605213642120361328125">
        <ele>40.799999237060546875</ele>
        <time>2022-07-28T10:14:52.000Z</time>
      </trkpt>
      <trkpt lat="42.337851226329803466796875" lon="2.99205989576876163482666015625">
        <ele>40</ele>
        <time>2022-07-28T10:14:57.000Z</time>
      </trkpt>
      <trkpt lat="42.337747626006603240966796875" lon="2.99218109808862209320068359375">
        <ele>39.799999237060546875</ele>
        <time>2022-07-28T10:14:59.000Z</time>
      </trkpt>
      <trkpt lat="42.3373323865234851837158203125" lon="2.99256063066422939300537109375">
        <ele>39.40000152587890625</ele>
        <time>2022-07-28T10:15:06.000Z</time>
      </trkpt>
      <trkpt lat="42.33703516423702239990234375" lon="2.99276389181613922119140625">
        <ele>39</ele>
        <time>2022-07-28T10:15:10.000Z</time>
      </trkpt>
      <trkpt lat="42.33688705600798130035400390625" lon="2.992866151034832000732421875">
        <ele>38.799999237060546875</ele>
        <time>2022-07-28T10:15:12.000Z</time>
      </trkpt>
      <trkpt lat="42.33640191145241260528564453125" lon="2.993235290050506591796875">
        <ele>38.59999847412109375</ele>
        <time>2022-07-28T10:15:19.000Z</time>
      </trkpt>
      <trkpt lat="42.3363349400460720062255859375" lon="2.9932877607643604278564453125">
        <ele>38.59999847412109375</ele>
        <time>2022-07-28T10:15:20.000Z</time>
      </trkpt>
      <trkpt lat="42.33586379326879978179931640625" lon="2.993616499006748199462890625">
        <ele>38.40000152587890625</ele>
        <time>2022-07-28T10:15:27.000Z</time>
      </trkpt>
      <trkpt lat="42.3357389867305755615234375" lon="2.9937006533145904541015625">
        <ele>37.799999237060546875</ele>
        <time>2022-07-28T10:15:29.000Z</time>
      </trkpt>
      <trkpt lat="42.3355584405362606048583984375" lon="2.9938315786421298980712890625">
        <ele>37.200000762939453125</ele>
        <time>2022-07-28T10:15:32.000Z</time>
      </trkpt>
      <trkpt lat="42.335502617061138153076171875" lon="2.99388865940272808074951171875">
        <ele>37.200000762939453125</ele>
        <time>2022-07-28T10:15:33.000Z</time>
      </trkpt>
      <trkpt lat="42.3353592865169048309326171875" lon="2.9941195808351039886474609375">
        <ele>36.799999237060546875</ele>
        <time>2022-07-28T10:15:36.000Z</time>
      </trkpt>
      <trkpt lat="42.33531880192458629608154296875" lon="2.9942141287028789520263671875">
        <ele>36.799999237060546875</ele>
        <time>2022-07-28T10:15:37.000Z</time>
      </trkpt>
      <trkpt lat="42.33524587936699390411376953125" lon="2.99442376010119915008544921875">
        <ele>36.59999847412109375</ele>
        <time>2022-07-28T10:15:39.000Z</time>
      </trkpt>
      <trkpt lat="42.33511813916265964508056640625" lon="2.9947371594607830047607421875">
        <ele>36.200000762939453125</ele>
        <time>2022-07-28T10:15:42.000Z</time>
      </trkpt>
      <trkpt lat="42.3349593020975589752197265625" lon="2.995002530515193939208984375">
        <ele>35.40000152587890625</ele>
        <time>2022-07-28T10:15:45.000Z</time>
      </trkpt>
      <trkpt lat="42.334899120032787322998046875" lon="2.9950851760804653167724609375">
        <ele>34.40000152587890625</ele>
        <time>2022-07-28T10:15:46.000Z</time>
      </trkpt>
      <trkpt lat="42.33483709394931793212890625" lon="2.99516539089381694793701171875">
        <ele>33.200000762939453125</ele>
        <time>2022-07-28T10:15:47.000Z</time>
      </trkpt>
      <trkpt lat="42.33477548696100711822509765625" lon="2.99524518661201000213623046875">
        <ele>32.200000762939453125</ele>
        <time>2022-07-28T10:15:48.000Z</time>
      </trkpt>
      <trkpt lat="42.334712706506252288818359375" lon="2.995327413082122802734375">
        <ele>30.6000003814697265625</ele>
        <time>2022-07-28T10:15:49.000Z</time>
      </trkpt>
      <trkpt lat="42.3344614170491695404052734375" lon="2.99564885906875133514404296875">
        <ele>29.3999996185302734375</ele>
        <time>2022-07-28T10:15:53.000Z</time>
      </trkpt>
      <trkpt lat="42.33440483920276165008544921875" lon="2.9957232065498828887939453125">
        <ele>29.200000762939453125</ele>
        <time>2022-07-28T10:15:54.000Z</time>
      </trkpt>
      <trkpt lat="42.33417861163616180419921875" lon="2.9960940219461917877197265625">
        <ele>29</ele>
        <time>2022-07-28T10:15:59.000Z</time>
      </trkpt>
      <trkpt lat="42.334144748747348785400390625" lon="2.99617473967373371124267578125">
        <ele>29</ele>
        <time>2022-07-28T10:16:00.000Z</time>
      </trkpt>
      <trkpt lat="42.33407023362815380096435546875" lon="2.996433489024639129638671875">
        <ele>29</ele>
        <time>2022-07-28T10:16:03.000Z</time>
      </trkpt>
      <trkpt lat="42.3340604268014430999755859375" lon="2.9966083355247974395751953125">
        <ele>29</ele>
        <time>2022-07-28T10:16:05.000Z</time>
      </trkpt>
      <trkpt lat="42.3340979777276515960693359375" lon="2.9968168772757053375244140625">
        <ele>29.200000762939453125</ele>
        <time>2022-07-28T10:16:08.000Z</time>
      </trkpt>
      <trkpt lat="42.33411197550594806671142578125" lon="2.99687747843563556671142578125">
        <ele>29.200000762939453125</ele>
        <time>2022-07-28T10:16:09.000Z</time>
      </trkpt>
      <trkpt lat="42.3341502808034420013427734375" lon="2.99710479564964771270751953125">
        <ele>30.6000003814697265625</ele>
        <time>2022-07-28T10:16:14.000Z</time>
      </trkpt>
      <trkpt lat="42.33413837850093841552734375" lon="2.9971397481858730316162109375">
        <ele>31</ele>
        <time>2022-07-28T10:16:15.000Z</time>
      </trkpt>
      <trkpt lat="42.334089092910289764404296875" lon="2.99720101989805698394775390625">
        <ele>31.6000003814697265625</ele>
        <time>2022-07-28T10:16:17.000Z</time>
      </trkpt>
      <trkpt lat="42.3340245522558689117431640625" lon="2.99725114367902278900146484375">
        <ele>31.6000003814697265625</ele>
        <time>2022-07-28T10:16:19.000Z</time>
      </trkpt>
      <trkpt lat="42.33392371796071529388427734375" lon="2.997327335178852081298828125">
        <ele>31.6000003814697265625</ele>
        <time>2022-07-28T10:16:22.000Z</time>
      </trkpt>
      <trkpt lat="42.33368617482483386993408203125" lon="2.9975672252476215362548828125">
        <ele>31.200000762939453125</ele>
        <time>2022-07-28T10:16:28.000Z</time>
      </trkpt>
      <trkpt lat="42.33346137218177318572998046875" lon="2.9977942071855068206787109375">
        <ele>30.3999996185302734375</ele>
        <time>2022-07-28T10:16:33.000Z</time>
      </trkpt>
      <trkpt lat="42.33332927338778972625732421875" lon="2.99794566817581653594970703125">
        <ele>30</ele>
        <time>2022-07-28T10:16:36.000Z</time>
      </trkpt>
      <trkpt lat="42.333160378038883209228515625" lon="2.9981797747313976287841796875">
        <ele>29.200000762939453125</ele>
        <time>2022-07-28T10:16:40.000Z</time>
      </trkpt>
      <trkpt lat="42.33300522901117801666259765625" lon="2.9984251968562602996826171875">
        <ele>28.799999237060546875</ele>
        <time>2022-07-28T10:16:44.000Z</time>
      </trkpt>
      <trkpt lat="42.33274304307997226715087890625" lon="2.99886591732501983642578125">
        <ele>28.6000003814697265625</ele>
        <time>2022-07-28T10:16:51.000Z</time>
      </trkpt>
      <trkpt lat="42.33250147663056850433349609375" lon="2.9992462880909442901611328125">
        <ele>28.799999237060546875</ele>
        <time>2022-07-28T10:16:57.000Z</time>
      </trkpt>
      <trkpt lat="42.33245068229734897613525390625" lon="2.99929750151932239532470703125">
        <ele>28.799999237060546875</ele>
        <time>2022-07-28T10:16:58.000Z</time>
      </trkpt>
      <trkpt lat="42.33212395571172237396240234375" lon="2.9995339550077915191650390625">
        <ele>28.799999237060546875</ele>
        <time>2022-07-28T10:17:04.000Z</time>
      </trkpt>
      <trkpt lat="42.3317880928516387939453125" lon="2.99968726001679897308349609375">
        <ele>29.3999996185302734375</ele>
        <time>2022-07-28T10:17:10.000Z</time>
      </trkpt>
      <trkpt lat="42.33145776204764842987060546875" lon="2.99976588226854801177978515625">
        <ele>30</ele>
        <time>2022-07-28T10:17:16.000Z</time>
      </trkpt>
      <trkpt lat="42.3309323005378246307373046875" lon="2.99988741986453533172607421875">
        <ele>30.3999996185302734375</ele>
        <time>2022-07-28T10:17:25.000Z</time>
      </trkpt>
      <trkpt lat="42.33047624118626117706298828125" lon="2.99998230300843715667724609375">
        <ele>29.6000003814697265625</ele>
        <time>2022-07-28T10:17:32.000Z</time>
      </trkpt>
      <trkpt lat="42.32990208081901073455810546875" lon="3.00011339597404003143310546875">
        <ele>28.799999237060546875</ele>
        <time>2022-07-28T10:17:40.000Z</time>
      </trkpt>
      <trkpt lat="42.32975791208446025848388671875" lon="3.00014290027320384979248046875">
        <ele>28.799999237060546875</ele>
        <time>2022-07-28T10:17:42.000Z</time>
      </trkpt>
      <trkpt lat="42.329541407525539398193359375" lon="3.00018824636936187744140625">
        <ele>28.3999996185302734375</ele>
        <time>2022-07-28T10:17:45.000Z</time>
      </trkpt>
      <trkpt lat="42.32918123714625835418701171875" lon="3.00027550198137760162353515625">
        <ele>27.799999237060546875</ele>
        <time>2022-07-28T10:17:50.000Z</time>
      </trkpt>
      <trkpt lat="42.3289798200130462646484375" lon="3.00036468543112277984619140625">
        <ele>27.3999996185302734375</ele>
        <time>2022-07-28T10:17:53.000Z</time>
      </trkpt>
      <trkpt lat="42.3288586176931858062744140625" lon="3.00044179894030094146728515625">
        <ele>27.200000762939453125</ele>
        <time>2022-07-28T10:17:55.000Z</time>
      </trkpt>
      <trkpt lat="42.3285106010735034942626953125" lon="3.00069342367351055145263671875">
        <ele>26.799999237060546875</ele>
        <time>2022-07-28T10:18:01.000Z</time>
      </trkpt>
      <trkpt lat="42.32799033634364604949951171875" lon="3.00108946859836578369140625">
        <ele>26.799999237060546875</ele>
        <time>2022-07-28T10:18:10.000Z</time>
      </trkpt>
      <trkpt lat="42.32781331054866313934326171875" lon="3.00121829845011234283447265625">
        <ele>26.6000003814697265625</ele>
        <time>2022-07-28T10:18:13.000Z</time>
      </trkpt>
      <trkpt lat="42.32728659175336360931396484375" lon="3.00161576829850673675537109375">
        <ele>26.3999996185302734375</ele>
        <time>2022-07-28T10:18:22.000Z</time>
      </trkpt>
      <trkpt lat="42.32716840691864490509033203125" lon="3.00170176662504673004150390625">
        <ele>26.3999996185302734375</ele>
        <time>2022-07-28T10:18:24.000Z</time>
      </trkpt>
      <trkpt lat="42.32669399119913578033447265625" lon="3.00204928033053874969482421875">
        <ele>26.3999996185302734375</ele>
        <time>2022-07-28T10:18:32.000Z</time>
      </trkpt>
      <trkpt lat="42.326269112527370452880859375" lon="3.00234549678862094879150390625">
        <ele>26.3999996185302734375</ele>
        <time>2022-07-28T10:18:39.000Z</time>
      </trkpt>
      <trkpt lat="42.32581472955644130706787109375" lon="3.0025601573288440704345703125">
        <ele>25.6000003814697265625</ele>
        <time>2022-07-28T10:18:46.000Z</time>
      </trkpt>
      <trkpt lat="42.325485907495021820068359375" lon="3.00264942459762096405029296875">
        <ele>25.3999996185302734375</ele>
        <time>2022-07-28T10:18:51.000Z</time>
      </trkpt>
      <trkpt lat="42.32529806904494762420654296875" lon="3.002708852291107177734375">
        <ele>25.200000762939453125</ele>
        <time>2022-07-28T10:18:54.000Z</time>
      </trkpt>
      <trkpt lat="42.32477788813412189483642578125" lon="3.00293155945837497711181640625">
        <ele>25.6000003814697265625</ele>
        <time>2022-07-28T10:19:03.000Z</time>
      </trkpt>
      <trkpt lat="42.32441260479390621185302734375" lon="3.0031646601855754852294921875">
        <ele>26.200000762939453125</ele>
        <time>2022-07-28T10:19:10.000Z</time>
      </trkpt>
      <trkpt lat="42.324366085231304168701171875" lon="3.0032072402536869049072265625">
        <ele>26.3999996185302734375</ele>
        <time>2022-07-28T10:19:11.000Z</time>
      </trkpt>
      <trkpt lat="42.32419618405401706695556640625" lon="3.003371693193912506103515625">
        <ele>26.799999237060546875</ele>
        <time>2022-07-28T10:19:15.000Z</time>
      </trkpt>
      <trkpt lat="42.32411705888807773590087890625" lon="3.00346649251878261566162109375">
        <ele>27</ele>
        <time>2022-07-28T10:19:17.000Z</time>
      </trkpt>
      <trkpt lat="42.32404983602464199066162109375" lon="3.00357897765934467315673828125">
        <ele>27</ele>
        <time>2022-07-28T10:19:19.000Z</time>
      </trkpt>
      <trkpt lat="42.32402016408741474151611328125" lon="3.0036407522857189178466796875">
        <ele>27.200000762939453125</ele>
        <time>2022-07-28T10:19:20.000Z</time>
      </trkpt>
      <trkpt lat="42.3239364288747310638427734375" lon="3.0038328655064105987548828125">
        <ele>27.3999996185302734375</ele>
        <time>2022-07-28T10:19:23.000Z</time>
      </trkpt>
      <trkpt lat="42.3239156417548656463623046875" lon="3.0038972385227680206298828125">
        <ele>27.3999996185302734375</ele>
        <time>2022-07-28T10:19:24.000Z</time>
      </trkpt>
      <trkpt lat="42.32387197203934192657470703125" lon="3.004020117223262786865234375">
        <ele>27.6000003814697265625</ele>
        <time>2022-07-28T10:19:26.000Z</time>
      </trkpt>
      <trkpt lat="42.323846407234668731689453125" lon="3.0040808022022247314453125">
        <ele>27.799999237060546875</ele>
        <time>2022-07-28T10:19:27.000Z</time>
      </trkpt>
      <trkpt lat="42.323677428066730499267578125" lon="3.00447307527065277099609375">
        <ele>28</ele>
        <time>2022-07-28T10:19:33.000Z</time>
      </trkpt>
      <trkpt lat="42.32352160848677158355712890625" lon="3.004688657820224761962890625">
        <ele>27.799999237060546875</ele>
        <time>2022-07-28T10:19:37.000Z</time>
      </trkpt>
      <trkpt lat="42.3234356939792633056640625" lon="3.00477960146963596343994140625">
        <ele>27.799999237060546875</ele>
        <time>2022-07-28T10:19:39.000Z</time>
      </trkpt>
      <trkpt lat="42.323083989322185516357421875" lon="3.00513717345893383026123046875">
        <ele>28</ele>
        <time>2022-07-28T10:19:47.000Z</time>
      </trkpt>
      <trkpt lat="42.32268408872187137603759765625" lon="3.00554369576275348663330078125">
        <ele>28.200000762939453125</ele>
        <time>2022-07-28T10:19:56.000Z</time>
      </trkpt>
      <trkpt lat="42.322387956082820892333984375" lon="3.005866147577762603759765625">
        <ele>28.200000762939453125</ele>
        <time>2022-07-28T10:20:02.000Z</time>
      </trkpt>
      <trkpt lat="42.3220380954444408416748046875" lon="3.0062300898134708404541015625">
        <ele>26.200000762939453125</ele>
        <time>2022-07-28T10:20:09.000Z</time>
      </trkpt>
      <trkpt lat="42.32162319123744964599609375" lon="3.00659931264817714691162109375">
        <ele>25.6000003814697265625</ele>
        <time>2022-07-28T10:20:17.000Z</time>
      </trkpt>
      <trkpt lat="42.3213636875152587890625" lon="3.00679779611527919769287109375">
        <ele>25.3999996185302734375</ele>
        <time>2022-07-28T10:20:22.000Z</time>
      </trkpt>
      <trkpt lat="42.321316413581371307373046875" lon="3.0068381130695343017578125">
        <ele>25.3999996185302734375</ele>
        <time>2022-07-28T10:20:23.000Z</time>
      </trkpt>
      <trkpt lat="42.3209305107593536376953125" lon="3.00713189877569675445556640625">
        <ele>25.799999237060546875</ele>
        <time>2022-07-28T10:20:31.000Z</time>
      </trkpt>
      <trkpt lat="42.32051099650561809539794921875" lon="3.00744487904012203216552734375">
        <ele>26.6000003814697265625</ele>
        <time>2022-07-28T10:20:39.000Z</time>
      </trkpt>
      <trkpt lat="42.32017504982650279998779296875" lon="3.0076623894274234771728515625">
        <ele>26.3999996185302734375</ele>
        <time>2022-07-28T10:20:45.000Z</time>
      </trkpt>
      <trkpt lat="42.3196918331086635589599609375" lon="3.00788895227015018463134765625">
        <ele>26.6000003814697265625</ele>
        <time>2022-07-28T10:20:53.000Z</time>
      </trkpt>
      <trkpt lat="42.319120354950428009033203125" lon="3.00810319371521472930908203125">
        <ele>26.3999996185302734375</ele>
        <time>2022-07-28T10:21:02.000Z</time>
      </trkpt>
      <trkpt lat="42.31872975826263427734375" lon="3.00821836106479167938232421875">
        <ele>26</ele>
        <time>2022-07-28T10:21:08.000Z</time>
      </trkpt>
      <trkpt lat="42.31859539635479450225830078125" lon="3.00822590477764606475830078125">
        <ele>25.799999237060546875</ele>
        <time>2022-07-28T10:21:10.000Z</time>
      </trkpt>
      <trkpt lat="42.3184590227901935577392578125" lon="3.00819522701203823089599609375">
        <ele>25.799999237060546875</ele>
        <time>2022-07-28T10:21:12.000Z</time>
      </trkpt>
      <trkpt lat="42.31791495345532894134521484375" lon="3.0080477893352508544921875">
        <ele>25.6000003814697265625</ele>
        <time>2022-07-28T10:21:20.000Z</time>
      </trkpt>
      <trkpt lat="42.31762468814849853515625" lon="3.00795458257198333740234375">
        <ele>25.3999996185302734375</ele>
        <time>2022-07-28T10:21:25.000Z</time>
      </trkpt>
      <trkpt lat="42.31751362793147563934326171875" lon="3.007928766310214996337890625">
        <ele>25.200000762939453125</ele>
        <time>2022-07-28T10:21:27.000Z</time>
      </trkpt>
      <trkpt lat="42.31708330102264881134033203125" lon="3.00780144520103931427001953125">
        <ele>25</ele>
        <time>2022-07-28T10:21:35.000Z</time>
      </trkpt>
      <trkpt lat="42.317034266889095306396484375" lon="3.007789961993694305419921875">
        <ele>25</ele>
        <time>2022-07-28T10:21:36.000Z</time>
      </trkpt>
      <trkpt lat="42.31685045175254344940185546875" lon="3.0077374912798404693603515625">
        <ele>25.200000762939453125</ele>
        <time>2022-07-28T10:21:40.000Z</time>
      </trkpt>
      <trkpt lat="42.31660519726574420928955078125" lon="3.00766213797032833099365234375">
        <ele>25.799999237060546875</ele>
        <time>2022-07-28T10:21:46.000Z</time>
      </trkpt>
      <trkpt lat="42.316479049623012542724609375" lon="3.0076291970908641815185546875">
        <ele>26</ele>
        <time>2022-07-28T10:21:49.000Z</time>
      </trkpt>
      <trkpt lat="42.31634116731584072113037109375" lon="3.007579408586025238037109375">
        <ele>26</ele>
        <time>2022-07-28T10:21:52.000Z</time>
      </trkpt>
      <trkpt lat="42.31629204936325550079345703125" lon="3.00756289623677730560302734375">
        <ele>26</ele>
        <time>2022-07-28T10:21:53.000Z</time>
      </trkpt>
      <trkpt lat="42.31602047570049762725830078125" lon="3.0074974335730075836181640625">
        <ele>26.200000762939453125</ele>
        <time>2022-07-28T10:21:58.000Z</time>
      </trkpt>
      <trkpt lat="42.315667010843753814697265625" lon="3.007407747209072113037109375">
        <ele>25.6000003814697265625</ele>
        <time>2022-07-28T10:22:04.000Z</time>
      </trkpt>
      <trkpt lat="42.3154797591269016265869140625" lon="3.0074035562574863433837890625">
        <ele>25.3999996185302734375</ele>
        <time>2022-07-28T10:22:07.000Z</time>
      </trkpt>
      <trkpt lat="42.3153560422360897064208984375" lon="3.00743431784212589263916015625">
        <ele>25.3999996185302734375</ele>
        <time>2022-07-28T10:22:09.000Z</time>
      </trkpt>
      <trkpt lat="42.315234504640102386474609375" lon="3.00748075358569622039794921875">
        <ele>25</ele>
        <time>2022-07-28T10:22:11.000Z</time>
      </trkpt>
      <trkpt lat="42.31500349938869476318359375" lon="3.00763028673827648162841796875">
        <ele>24.799999237060546875</ele>
        <time>2022-07-28T10:22:15.000Z</time>
      </trkpt>
      <trkpt lat="42.314830161631107330322265625" lon="3.00774796865880489349365234375">
        <ele>24.3999996185302734375</ele>
        <time>2022-07-28T10:22:18.000Z</time>
      </trkpt>
      <trkpt lat="42.31459722854197025299072265625" lon="3.00791091285645961761474609375">
        <ele>24.200000762939453125</ele>
        <time>2022-07-28T10:22:22.000Z</time>
      </trkpt>
      <trkpt lat="42.31407369486987590789794921875" lon="3.00827451981604099273681640625">
        <ele>24</ele>
        <time>2022-07-28T10:22:31.000Z</time>
      </trkpt>
      <trkpt lat="42.313955761492252349853515625" lon="3.00835154950618743896484375">
        <ele>24</ele>
        <time>2022-07-28T10:22:33.000Z</time>
      </trkpt>
      <trkpt lat="42.31362509541213512420654296875" lon="3.0085840635001659393310546875">
        <ele>24</ele>
        <time>2022-07-28T10:22:39.000Z</time>
      </trkpt>
      <trkpt lat="42.31312653981149196624755859375" lon="3.00889712758362293243408203125">
        <ele>24.200000762939453125</ele>
        <time>2022-07-28T10:22:48.000Z</time>
      </trkpt>
      <trkpt lat="42.31288866139948368072509765625" lon="3.00901095382869243621826171875">
        <ele>24.200000762939453125</ele>
        <time>2022-07-28T10:22:52.000Z</time>
      </trkpt>
      <trkpt lat="42.31276645325124263763427734375" lon="3.00903039984405040740966796875">
        <ele>24.200000762939453125</ele>
        <time>2022-07-28T10:22:54.000Z</time>
      </trkpt>
      <trkpt lat="42.31232539750635623931884765625" lon="3.00897390581667423248291015625">
        <ele>24.6000003814697265625</ele>
        <time>2022-07-28T10:23:01.000Z</time>
      </trkpt>
      <trkpt lat="42.31176230125129222869873046875" lon="3.00890500657260417938232421875">
        <ele>25</ele>
        <time>2022-07-28T10:23:10.000Z</time>
      </trkpt>
      <trkpt lat="42.31149240396916866302490234375" lon="3.00900810398161411285400390625">
        <ele>25.3999996185302734375</ele>
        <time>2022-07-28T10:23:15.000Z</time>
      </trkpt>
      <trkpt lat="42.31128721497952938079833984375" lon="3.00914280116558074951171875">
        <ele>25.6000003814697265625</ele>
        <time>2022-07-28T10:23:20.000Z</time>
      </trkpt>
      <trkpt lat="42.31120523996651172637939453125" lon="3.00919535569846630096435546875">
        <ele>25.6000003814697265625</ele>
        <time>2022-07-28T10:23:22.000Z</time>
      </trkpt>
      <trkpt lat="42.31102586723864078521728515625" lon="3.0092975310981273651123046875">
        <ele>26.799999237060546875</ele>
        <time>2022-07-28T10:23:26.000Z</time>
      </trkpt>
      <trkpt lat="42.3108995519578456878662109375" lon="3.00936542451381683349609375">
        <ele>27.799999237060546875</ele>
        <time>2022-07-28T10:23:29.000Z</time>
      </trkpt>
      <trkpt lat="42.310859151184558868408203125" lon="3.00938545726239681243896484375">
        <ele>28.200000762939453125</ele>
        <time>2022-07-28T10:23:30.000Z</time>
      </trkpt>
      <trkpt lat="42.31075295247137546539306640625" lon="3.00944765098392963409423828125">
        <ele>28.6000003814697265625</ele>
        <time>2022-07-28T10:23:33.000Z</time>
      </trkpt>
      <trkpt lat="42.31068757362663745880126953125" lon="3.00948319025337696075439453125">
        <ele>29</ele>
        <time>2022-07-28T10:23:35.000Z</time>
      </trkpt>
      <trkpt lat="42.31051926501095294952392578125" lon="3.0095808394253253936767578125">
        <ele>30</ele>
        <time>2022-07-28T10:23:40.000Z</time>
      </trkpt>
      <trkpt lat="42.3103191889822483062744140625" lon="3.00968972034752368927001953125">
        <ele>31.200000762939453125</ele>
        <time>2022-07-28T10:23:46.000Z</time>
      </trkpt>
      <trkpt lat="42.31021977961063385009765625" lon="3.00973582081496715545654296875">
        <ele>31.799999237060546875</ele>
        <time>2022-07-28T10:23:49.000Z</time>
      </trkpt>
      <trkpt lat="42.3101585917174816131591796875" lon="3.00975962541997432708740234375">
        <ele>33.200000762939453125</ele>
        <time>2022-07-28T10:23:51.000Z</time>
      </trkpt>
      <trkpt lat="42.3100434243679046630859375" lon="3.0098326317965984344482421875">
        <ele>34.200000762939453125</ele>
        <time>2022-07-28T10:23:55.000Z</time>
      </trkpt>
      <trkpt lat="42.31001417152583599090576171875" lon="3.00983908586204051971435546875">
        <ele>34.59999847412109375</ele>
        <time>2022-07-28T10:23:56.000Z</time>
      </trkpt>
      <trkpt lat="42.30992146767675876617431640625" lon="3.00986356101930141448974609375">
        <ele>35.40000152587890625</ele>
        <time>2022-07-28T10:24:00.000Z</time>
      </trkpt>
      <trkpt lat="42.30989464558660984039306640625" lon="3.0098493956029415130615234375">
        <ele>35.799999237060546875</ele>
        <time>2022-07-28T10:24:02.000Z</time>
      </trkpt>
      <trkpt lat="42.30987637303769588470458984375" lon="3.00983187742531299591064453125">
        <ele>36.40000152587890625</ele>
        <time>2022-07-28T10:24:04.000Z</time>
      </trkpt>
      <trkpt lat="42.30984234251081943511962890625" lon="3.00980036146938800811767578125">
        <ele>37.200000762939453125</ele>
        <time>2022-07-28T10:24:08.000Z</time>
      </trkpt>
      <trkpt lat="42.30982893146574497222900390625" lon="3.00977789796888828277587890625">
        <ele>37.799999237060546875</ele>
        <time>2022-07-28T10:24:10.000Z</time>
      </trkpt>
      <trkpt lat="42.3098058812320232391357421875" lon="3.009753338992595672607421875">
        <ele>38</ele>
        <time>2022-07-28T10:24:12.000Z</time>
      </trkpt>
      <trkpt lat="42.3097653128206729888916015625" lon="3.00974286161363124847412109375">
        <ele>38</ele>
        <time>2022-07-28T10:24:14.000Z</time>
      </trkpt>
      <trkpt lat="42.3097136802971363067626953125" lon="3.00975308753550052642822265625">
        <ele>38</ele>
        <time>2022-07-28T10:24:16.000Z</time>
      </trkpt>
      <trkpt lat="42.309647463262081146240234375" lon="3.00978611223399639129638671875">
        <ele>38</ele>
        <time>2022-07-28T10:24:18.000Z</time>
      </trkpt>
      <trkpt lat="42.3094954155385494232177734375" lon="3.00986791960895061492919921875">
        <ele>36.799999237060546875</ele>
        <time>2022-07-28T10:24:23.000Z</time>
      </trkpt>
      <trkpt lat="42.3094602115452289581298828125" lon="3.0098882876336574554443359375">
        <ele>36.59999847412109375</ele>
        <time>2022-07-28T10:24:24.000Z</time>
      </trkpt>
      <trkpt lat="42.30929450131952762603759765625" lon="3.00997562706470489501953125">
        <ele>36</ele>
        <time>2022-07-28T10:24:28.000Z</time>
      </trkpt>
      <trkpt lat="42.30925309471786022186279296875" lon="3.00999783910810947418212890625">
        <ele>36</ele>
        <time>2022-07-28T10:24:29.000Z</time>
      </trkpt>
      <trkpt lat="42.30910758487880229949951171875" lon="3.0100190453231334686279296875">
        <ele>36</ele>
        <time>2022-07-28T10:24:32.000Z</time>
      </trkpt>
      <trkpt lat="42.3090639151632785797119140625" lon="3.01001410000026226043701171875">
        <ele>36</ele>
        <time>2022-07-28T10:24:33.000Z</time>
      </trkpt>
      <trkpt lat="42.3090186528861522674560546875" lon="3.010015189647674560546875">
        <ele>36</ele>
        <time>2022-07-28T10:24:34.000Z</time>
      </trkpt>
      <trkpt lat="42.3089271225035190582275390625" lon="3.010022900998592376708984375">
        <ele>36</ele>
        <time>2022-07-28T10:24:36.000Z</time>
      </trkpt>
      <trkpt lat="42.3087933473289012908935546875" lon="3.010058104991912841796875">
        <ele>35.799999237060546875</ele>
        <time>2022-07-28T10:24:39.000Z</time>
      </trkpt>
      <trkpt lat="42.30874934233725070953369140625" lon="3.0100633017718791961669921875">
        <ele>35.59999847412109375</ele>
        <time>2022-07-28T10:24:40.000Z</time>
      </trkpt>
      <trkpt lat="42.308579944074153900146484375" lon="3.01007679663598537445068359375">
        <ele>35.59999847412109375</ele>
        <time>2022-07-28T10:24:44.000Z</time>
      </trkpt>
      <trkpt lat="42.30838992632925510406494140625" lon="3.0100948177278041839599609375">
        <ele>35.59999847412109375</ele>
        <time>2022-07-28T10:24:49.000Z</time>
      </trkpt>
      <trkpt lat="42.30827325023710727691650390625" lon="3.0100951530039310455322265625">
        <ele>35.59999847412109375</ele>
        <time>2022-07-28T10:24:52.000Z</time>
      </trkpt>
      <trkpt lat="42.30805548839271068572998046875" lon="3.010105378925800323486328125">
        <ele>35.200000762939453125</ele>
        <time>2022-07-28T10:24:58.000Z</time>
      </trkpt>
      <trkpt lat="42.3079645447432994842529296875" lon="3.01008702255785465240478515625">
        <ele>35.40000152587890625</ele>
        <time>2022-07-28T10:25:03.000Z</time>
      </trkpt>
      <trkpt lat="42.307922132313251495361328125" lon="3.01002868451178073883056640625">
        <ele>35.40000152587890625</ele>
        <time>2022-07-28T10:25:08.000Z</time>
      </trkpt>
      <trkpt lat="42.3079159297049045562744140625" lon="3.0100076459348201751708984375">
        <ele>35.40000152587890625</ele>
        <time>2022-07-28T10:25:09.000Z</time>
      </trkpt>
      <trkpt lat="42.30791701935231685638427734375" lon="3.009910248219966888427734375">
        <ele>35.40000152587890625</ele>
        <time>2022-07-28T10:25:14.000Z</time>
      </trkpt>
      <trkpt lat="42.30784409679472446441650390625" lon="3.0100245773792266845703125">
        <ele>35.799999237060546875</ele>
        <time>2022-07-28T10:26:35.000Z</time>
      </trkpt>
      <trkpt lat="42.30785063467919826507568359375" lon="3.010077886283397674560546875">
        <ele>35.799999237060546875</ele>
        <time>2022-07-28T10:26:36.000Z</time>
      </trkpt>
      <trkpt lat="42.30793294496834278106689453125" lon="3.0105823092162609100341796875">
        <ele>35.40000152587890625</ele>
        <time>2022-07-28T10:26:44.000Z</time>
      </trkpt>
      <trkpt lat="42.30794987641274929046630859375" lon="3.01064274273812770843505859375">
        <ele>35.200000762939453125</ele>
        <time>2022-07-28T10:26:45.000Z</time>
      </trkpt>
      <trkpt lat="42.30805045925080776214599609375" lon="3.01087207160890102386474609375">
        <ele>35</ele>
        <time>2022-07-28T10:26:49.000Z</time>
      </trkpt>
      <trkpt lat="42.3082783631980419158935546875" lon="3.0114225111901760101318359375">
        <ele>34.799999237060546875</ele>
        <time>2022-07-28T10:26:58.000Z</time>
      </trkpt>
      <trkpt lat="42.30844088830053806304931640625" lon="3.0117872916162014007568359375">
        <ele>34.799999237060546875</ele>
        <time>2022-07-28T10:27:05.000Z</time>
      </trkpt>
      <trkpt lat="42.308521270751953125" lon="3.01202190108597278594970703125">
        <ele>35</ele>
        <time>2022-07-28T10:27:10.000Z</time>
      </trkpt>
      <trkpt lat="42.30852998793125152587890625" lon="3.01216808147728443145751953125">
        <ele>35.200000762939453125</ele>
        <time>2022-07-28T10:27:14.000Z</time>
      </trkpt>
      <trkpt lat="42.3084287345409393310546875" lon="3.0123364739120006561279296875">
        <ele>35.200000762939453125</ele>
        <time>2022-07-28T10:27:19.000Z</time>
      </trkpt>
      <trkpt lat="42.30822999961674213409423828125" lon="3.012520708143711090087890625">
        <ele>35.200000762939453125</ele>
        <time>2022-07-28T10:27:24.000Z</time>
      </trkpt>
      <trkpt lat="42.30788432992994785308837890625" lon="3.01285858266055583953857421875">
        <ele>34.200000762939453125</ele>
        <time>2022-07-28T10:27:31.000Z</time>
      </trkpt>
      <trkpt lat="42.30767243541777133941650390625" lon="3.0130724050104618072509765625">
        <ele>33</ele>
        <time>2022-07-28T10:27:35.000Z</time>
      </trkpt>
      <trkpt lat="42.30739130638539791107177734375" lon="3.01335596479475498199462890625">
        <ele>32.200000762939453125</ele>
        <time>2022-07-28T10:27:40.000Z</time>
      </trkpt>
      <trkpt lat="42.30711244046688079833984375" lon="3.0136313103139400482177734375">
        <ele>32</ele>
        <time>2022-07-28T10:27:45.000Z</time>
      </trkpt>
      <trkpt lat="42.30706122703850269317626953125" lon="3.01368989981710910797119140625">
        <ele>32</ele>
        <time>2022-07-28T10:27:46.000Z</time>
      </trkpt>
      <trkpt lat="42.30682636611163616180419921875" lon="3.01390430890023708343505859375">
        <ele>31.6000003814697265625</ele>
        <time>2022-07-28T10:27:51.000Z</time>
      </trkpt>
      <trkpt lat="42.3067188262939453125" lon="3.01384412683546543121337890625">
        <ele>31.6000003814697265625</ele>
        <time>2022-07-28T10:27:54.000Z</time>
      </trkpt>
      <trkpt lat="42.306689657270908355712890625" lon="3.01374815404415130615234375">
        <ele>31.6000003814697265625</ele>
        <time>2022-07-28T10:27:57.000Z</time>
      </trkpt>
      <trkpt lat="42.3066827841103076934814453125" lon="3.01371730864048004150390625">
        <ele>31.6000003814697265625</ele>
        <time>2022-07-28T10:27:58.000Z</time>
      </trkpt>
      <trkpt lat="42.30664783157408237457275390625" lon="3.01351019181311130523681640625">
        <ele>32.40000152587890625</ele>
        <time>2022-07-28T10:28:04.000Z</time>
      </trkpt>
      <trkpt lat="42.306642718613147735595703125" lon="3.0134643428027629852294921875">
        <ele>33</ele>
        <time>2022-07-28T10:28:06.000Z</time>
      </trkpt>
      <trkpt lat="42.3066341690719127655029296875" lon="3.01338463090360164642333984375">
        <ele>33.200000762939453125</ele>
        <time>2022-07-28T10:28:10.000Z</time>
      </trkpt>
      <trkpt lat="42.30662821792066097259521484375" lon="3.01335730589926242828369140625">
        <ele>33.40000152587890625</ele>
        <time>2022-07-28T10:28:11.000Z</time>
      </trkpt>
      <trkpt lat="42.30659385211765766143798828125" lon="3.01323275081813335418701171875">
        <ele>33.59999847412109375</ele>
        <time>2022-07-28T10:28:14.000Z</time>
      </trkpt>
      <trkpt lat="42.30656795203685760498046875" lon="3.01313602365553379058837890625">
        <ele>33.40000152587890625</ele>
        <time>2022-07-28T10:28:16.000Z</time>
      </trkpt>
      <trkpt lat="42.30644733645021915435791015625" lon="3.01283125765621662139892578125">
        <ele>33.40000152587890625</ele>
        <time>2022-07-28T10:28:21.000Z</time>
      </trkpt>
      <trkpt lat="42.30627735145390033721923828125" lon="3.0122798122465610504150390625">
        <ele>32.59999847412109375</ele>
        <time>2022-07-28T10:28:28.000Z</time>
      </trkpt>
      <trkpt lat="42.30623024515807628631591796875" lon="3.01216908730566501617431640625">
        <ele>31.6000003814697265625</ele>
        <time>2022-07-28T10:28:30.000Z</time>
      </trkpt>
      <trkpt lat="42.30616671033203601837158203125" lon="3.0120095796883106231689453125">
        <ele>30.200000762939453125</ele>
        <time>2022-07-28T10:28:33.000Z</time>
      </trkpt>
      <trkpt lat="42.3061044327914714813232421875" lon="3.01186524331569671630859375">
        <ele>28.799999237060546875</ele>
        <time>2022-07-28T10:28:36.000Z</time>
      </trkpt>
      <trkpt lat="42.30609127320349216461181640625" lon="3.01182945258915424346923828125">
        <ele>28.6000003814697265625</ele>
        <time>2022-07-28T10:28:37.000Z</time>
      </trkpt>
      <trkpt lat="42.30602455325424671173095703125" lon="3.01180698908865451812744140625">
        <ele>27.3999996185302734375</ele>
        <time>2022-07-28T10:29:09.000Z</time>
      </trkpt>
      <trkpt lat="42.30615329928696155548095703125" lon="3.01203045062720775604248046875">
        <ele>27.3999996185302734375</ele>
        <time>2022-07-28T10:29:15.000Z</time>
      </trkpt>
      <trkpt lat="42.306176014244556427001953125" lon="3.012077473104000091552734375">
        <ele>27.3999996185302734375</ele>
        <time>2022-07-28T10:29:16.000Z</time>
      </trkpt>
      <trkpt lat="42.306264527142047882080078125" lon="3.01234929822385311126708984375">
        <ele>27.3999996185302734375</ele>
        <time>2022-07-28T10:29:21.000Z</time>
      </trkpt>
      <trkpt lat="42.3063686303794384002685546875" lon="3.01274375058710575103759765625">
        <ele>28</ele>
        <time>2022-07-28T10:29:27.000Z</time>
      </trkpt>
      <trkpt lat="42.306458652019500732421875" lon="3.01304801367223262786865234375">
        <ele>28.6000003814697265625</ele>
        <time>2022-07-28T10:29:32.000Z</time>
      </trkpt>
      <trkpt lat="42.30651036836206912994384765625" lon="3.01321581937372684478759765625">
        <ele>29.799999237060546875</ele>
        <time>2022-07-28T10:29:35.000Z</time>
      </trkpt>
      <trkpt lat="42.30652629397809505462646484375" lon="3.01327147521078586578369140625">
        <ele>30</ele>
        <time>2022-07-28T10:29:36.000Z</time>
      </trkpt>
      <trkpt lat="42.3065684549510478973388671875" lon="3.01342628896236419677734375">
        <ele>31</ele>
        <time>2022-07-28T10:29:39.000Z</time>
      </trkpt>
      <trkpt lat="42.30660877190530300140380859375" lon="3.01357112824916839599609375">
        <ele>31.6000003814697265625</ele>
        <time>2022-07-28T10:29:42.000Z</time>
      </trkpt>
      <trkpt lat="42.30665772221982479095458984375" lon="3.013710938394069671630859375">
        <ele>32</ele>
        <time>2022-07-28T10:29:45.000Z</time>
      </trkpt>
      <trkpt lat="42.3066744022071361541748046875" lon="3.01386759616434574127197265625">
        <ele>32.40000152587890625</ele>
        <time>2022-07-28T10:29:48.000Z</time>
      </trkpt>
      <trkpt lat="42.306643389165401458740234375" lon="3.014076389372348785400390625">
        <ele>32.40000152587890625</ele>
        <time>2022-07-28T10:29:51.000Z</time>
      </trkpt>
      <trkpt lat="42.30671606026589870452880859375" lon="3.01425986923277378082275390625">
        <ele>32.40000152587890625</ele>
        <time>2022-07-28T10:29:54.000Z</time>
      </trkpt>
      <trkpt lat="42.30680054984986782073974609375" lon="3.0142626352608203887939453125">
        <ele>32.200000762939453125</ele>
        <time>2022-07-28T10:29:56.000Z</time>
      </trkpt>
      <trkpt lat="42.3068718798458576202392578125" lon="3.01420471630990505218505859375">
        <ele>32.200000762939453125</ele>
        <time>2022-07-28T10:29:58.000Z</time>
      </trkpt>
      <trkpt lat="42.3069580458104610443115234375" lon="3.01411695778369903564453125">
        <ele>32.200000762939453125</ele>
        <time>2022-07-28T10:30:01.000Z</time>
      </trkpt>
      <trkpt lat="42.3069808445870876312255859375" lon="3.01408871077001094818115234375">
        <ele>32.200000762939453125</ele>
        <time>2022-07-28T10:30:02.000Z</time>
      </trkpt>
      <trkpt lat="42.30650248937308788299560546875" lon="3.01312495954334735870361328125">
        <ele>31</ele>
        <time>2022-07-28T10:45:55.000Z</time>
      </trkpt>
      <trkpt lat="42.30646544136106967926025390625" lon="3.012986071407794952392578125">
        <ele>30.3999996185302734375</ele>
        <time>2022-07-28T10:45:57.000Z</time>
      </trkpt>
      <trkpt lat="42.306445576250553131103515625" lon="3.01291658543050289154052734375">
        <ele>30</ele>
        <time>2022-07-28T10:45:58.000Z</time>
      </trkpt>
      <trkpt lat="42.30642152018845081329345703125" lon="3.01284433342516422271728515625">
        <ele>29.6000003814697265625</ele>
        <time>2022-07-28T10:45:59.000Z</time>
      </trkpt>
      <trkpt lat="42.30639687739312648773193359375" lon="3.01277006976306438446044921875">
        <ele>29.200000762939453125</ele>
        <time>2022-07-28T10:46:00.000Z</time>
      </trkpt>
      <trkpt lat="42.30633786879479885101318359375" lon="3.0126087181270122528076171875">
        <ele>28</ele>
        <time>2022-07-28T10:46:02.000Z</time>
      </trkpt>
      <trkpt lat="42.30630786158144474029541015625" lon="3.0125232227146625518798828125">
        <ele>29.6000003814697265625</ele>
        <time>2022-07-28T10:46:03.000Z</time>
      </trkpt>
      <trkpt lat="42.30612832121551036834716796875" lon="3.0119960010051727294921875">
        <ele>29</ele>
        <time>2022-07-28T10:46:09.000Z</time>
      </trkpt>
      <trkpt lat="42.3060678876936435699462890625" lon="3.01180950365960597991943359375">
        <ele>28</ele>
        <time>2022-07-28T10:46:11.000Z</time>
      </trkpt>
      <trkpt lat="42.30599622242152690887451171875" lon="3.01161638461053371429443359375">
        <ele>26.3999996185302734375</ele>
        <time>2022-07-28T10:46:13.000Z</time>
      </trkpt>
      <trkpt lat="42.30593402869999408721923828125" lon="3.01142930053174495697021484375">
        <ele>25.3999996185302734375</ele>
        <time>2022-07-28T10:46:15.000Z</time>
      </trkpt>
      <trkpt lat="42.30584836564958095550537109375" lon="3.01115286536514759063720703125">
        <ele>23.799999237060546875</ele>
        <time>2022-07-28T10:46:18.000Z</time>
      </trkpt>
      <trkpt lat="42.30577594600617885589599609375" lon="3.010914064943790435791015625">
        <ele>23.200000762939453125</ele>
        <time>2022-07-28T10:46:21.000Z</time>
      </trkpt>
      <trkpt lat="42.30575163848698139190673828125" lon="3.010846339166164398193359375">
        <ele>22.6000003814697265625</ele>
        <time>2022-07-28T10:46:22.000Z</time>
      </trkpt>
      <trkpt lat="42.30570570565760135650634765625" lon="3.01073544658720493316650390625">
        <ele>22.3999996185302734375</ele>
        <time>2022-07-28T10:46:24.000Z</time>
      </trkpt>
      <trkpt lat="42.3056781291961669921875" lon="3.0106976442039012908935546875">
        <ele>22.3999996185302734375</ele>
        <time>2022-07-28T10:46:25.000Z</time>
      </trkpt>
      <trkpt lat="42.305602692067623138427734375" lon="3.01068381406366825103759765625">
        <ele>22.200000762939453125</ele>
        <time>2022-07-28T10:46:28.000Z</time>
      </trkpt>
      <trkpt lat="42.3056212998926639556884765625" lon="3.01063536666333675384521484375">
        <ele>22.200000762939453125</ele>
        <time>2022-07-28T10:46:31.000Z</time>
      </trkpt>
      <trkpt lat="42.3056809790432453155517578125" lon="3.01067794673144817352294921875">
        <ele>22.3999996185302734375</ele>
        <time>2022-07-28T10:46:35.000Z</time>
      </trkpt>
      <trkpt lat="42.30565088801085948944091796875" lon="3.01068699918687343597412109375">
        <ele>22.3999996185302734375</ele>
        <time>2022-07-28T10:46:38.000Z</time>
      </trkpt>
      <trkpt lat="42.30565063655376434326171875" lon="3.01057468168437480926513671875">
        <ele>22.3999996185302734375</ele>
        <time>2022-07-28T10:46:41.000Z</time>
      </trkpt>
      <trkpt lat="42.3057188652455806732177734375" lon="3.01041274331510066986083984375">
        <ele>22.3999996185302734375</ele>
        <time>2022-07-28T10:46:45.000Z</time>
      </trkpt>
      <trkpt lat="42.30573722161352634429931640625" lon="3.0103727616369724273681640625">
        <ele>22.3999996185302734375</ele>
        <time>2022-07-28T10:46:46.000Z</time>
      </trkpt>
      <trkpt lat="42.30584912002086639404296875" lon="3.01017436198890209197998046875">
        <ele>22.3999996185302734375</ele>
        <time>2022-07-28T10:46:51.000Z</time>
      </trkpt>
      <trkpt lat="42.3060323484241962432861328125" lon="3.009899519383907318115234375">
        <ele>22.6000003814697265625</ele>
        <time>2022-07-28T10:46:57.000Z</time>
      </trkpt>
      <trkpt lat="42.306198142468929290771484375" lon="3.0096302926540374755859375">
        <ele>22.799999237060546875</ele>
        <time>2022-07-28T10:47:03.000Z</time>
      </trkpt>
      <trkpt lat="42.306327559053897857666015625" lon="3.00937875173985958099365234375">
        <ele>23</ele>
        <time>2022-07-28T10:47:10.000Z</time>
      </trkpt>
      <trkpt lat="42.30635781772434711456298828125" lon="3.00914414227008819580078125">
        <ele>23.3999996185302734375</ele>
        <time>2022-07-28T10:47:15.000Z</time>
      </trkpt>
      <trkpt lat="42.30636678636074066162109375" lon="3.00903140567243099212646484375">
        <ele>23.3999996185302734375</ele>
        <time>2022-07-28T10:47:17.000Z</time>
      </trkpt>
      <trkpt lat="42.30640308000147342681884765625" lon="3.00892009399831295013427734375">
        <ele>23.3999996185302734375</ele>
        <time>2022-07-28T10:47:19.000Z</time>
      </trkpt>
      <trkpt lat="42.3064145632088184356689453125" lon="3.00885580480098724365234375">
        <ele>23.3999996185302734375</ele>
        <time>2022-07-28T10:47:20.000Z</time>
      </trkpt>
      <trkpt lat="42.30638799257576465606689453125" lon="3.0087156593799591064453125">
        <ele>23.200000762939453125</ele>
        <time>2022-07-28T10:47:22.000Z</time>
      </trkpt>
      <trkpt lat="42.30624835006892681121826171875" lon="3.00856621004641056060791015625">
        <ele>23</ele>
        <time>2022-07-28T10:47:25.000Z</time>
      </trkpt>
      <trkpt lat="42.30610124766826629638671875" lon="3.00841466523706912994384765625">
        <ele>22.799999237060546875</ele>
        <time>2022-07-28T10:47:28.000Z</time>
      </trkpt>
      <trkpt lat="42.306056655943393707275390625" lon="3.00835750065743923187255859375">
        <ele>22.799999237060546875</ele>
        <time>2022-07-28T10:47:29.000Z</time>
      </trkpt>
      <trkpt lat="42.30567268095910549163818359375" lon="3.00793488509953022003173828125">
        <ele>22.6000003814697265625</ele>
        <time>2022-07-28T10:47:37.000Z</time>
      </trkpt>
      <trkpt lat="42.30527806095778942108154296875" lon="3.0075376667082309722900390625">
        <ele>22.6000003814697265625</ele>
        <time>2022-07-28T10:47:45.000Z</time>
      </trkpt>
      <trkpt lat="42.3049856163561344146728515625" lon="3.0072339065372943878173828125">
        <ele>22.6000003814697265625</ele>
        <time>2022-07-28T10:47:51.000Z</time>
      </trkpt>
      <trkpt lat="42.30455285869538784027099609375" lon="3.0067906714975833892822265625">
        <ele>22.6000003814697265625</ele>
        <time>2022-07-28T10:47:59.000Z</time>
      </trkpt>
      <trkpt lat="42.304438613355159759521484375" lon="3.006678186357021331787109375">
        <ele>22.6000003814697265625</ele>
        <time>2022-07-28T10:48:01.000Z</time>
      </trkpt>
      <trkpt lat="42.30397366918623447418212890625" lon="3.00620980560779571533203125">
        <ele>22.200000762939453125</ele>
        <time>2022-07-28T10:48:09.000Z</time>
      </trkpt>
      <trkpt lat="42.3039150796830654144287109375" lon="3.00615037791430950164794921875">
        <ele>22.200000762939453125</ele>
        <time>2022-07-28T10:48:10.000Z</time>
      </trkpt>
      <trkpt lat="42.3034425079822540283203125" lon="3.005669675767421722412109375">
        <ele>21.6000003814697265625</ele>
        <time>2022-07-28T10:48:18.000Z</time>
      </trkpt>
      <trkpt lat="42.3033836670219898223876953125" lon="3.0055997706949710845947265625">
        <ele>21.6000003814697265625</ele>
        <time>2022-07-28T10:48:19.000Z</time>
      </trkpt>
      <trkpt lat="42.3029729537665843963623046875" lon="3.00512309186160564422607421875">
        <ele>21</ele>
        <time>2022-07-28T10:48:26.000Z</time>
      </trkpt>
      <trkpt lat="42.30254824273288249969482421875" lon="3.00479167141020298004150390625">
        <ele>20.6000003814697265625</ele>
        <time>2022-07-28T10:48:32.000Z</time>
      </trkpt>
      <trkpt lat="42.30247716419398784637451171875" lon="3.004734255373477935791015625">
        <ele>20.6000003814697265625</ele>
        <time>2022-07-28T10:48:33.000Z</time>
      </trkpt>
      <trkpt lat="42.30198665522038936614990234375" lon="3.00432697869837284088134765625">
        <ele>20</ele>
        <time>2022-07-28T10:48:40.000Z</time>
      </trkpt>
      <trkpt lat="42.30184726417064666748046875" lon="3.0042110569775104522705078125">
        <ele>20</ele>
        <time>2022-07-28T10:48:42.000Z</time>
      </trkpt>
      <trkpt lat="42.30135566554963588714599609375" lon="3.0038580112159252166748046875">
        <ele>19.799999237060546875</ele>
        <time>2022-07-28T10:48:49.000Z</time>
      </trkpt>
      <trkpt lat="42.30128559283912181854248046875" lon="3.0038140900433063507080078125">
        <ele>19.799999237060546875</ele>
        <time>2022-07-28T10:48:50.000Z</time>
      </trkpt>
      <trkpt lat="42.3007356561720371246337890625" lon="3.0034623853862285614013671875">
        <ele>19.799999237060546875</ele>
        <time>2022-07-28T10:48:58.000Z</time>
      </trkpt>
      <trkpt lat="42.30018236674368381500244140625" lon="3.0031455494463443756103515625">
        <ele>20</ele>
        <time>2022-07-28T10:49:06.000Z</time>
      </trkpt>
      <trkpt lat="42.30011723935604095458984375" lon="3.00311185419559478759765625">
        <ele>20</ele>
        <time>2022-07-28T10:49:07.000Z</time>
      </trkpt>
      <trkpt lat="42.29985044337809085845947265625" lon="3.002975396811962127685546875">
        <ele>19.799999237060546875</ele>
        <time>2022-07-28T10:49:11.000Z</time>
      </trkpt>
      <trkpt lat="42.29979009367525577545166015625" lon="3.0029272846877574920654296875">
        <ele>19.799999237060546875</ele>
        <time>2022-07-28T10:49:12.000Z</time>
      </trkpt>
      <trkpt lat="42.29952103458344936370849609375" lon="3.00261975266039371490478515625">
        <ele>19.799999237060546875</ele>
        <time>2022-07-28T10:49:17.000Z</time>
      </trkpt>
      <trkpt lat="42.29923621751368045806884765625" lon="3.00221859477460384368896484375">
        <ele>19.6000003814697265625</ele>
        <time>2022-07-28T10:49:23.000Z</time>
      </trkpt>
      <trkpt lat="42.2991360537707805633544921875" lon="3.00208398140966892242431640625">
        <ele>19.6000003814697265625</ele>
        <time>2022-07-28T10:49:25.000Z</time>
      </trkpt>
      <trkpt lat="42.29872324503958225250244140625" lon="3.00157402642071247100830078125">
        <ele>19.799999237060546875</ele>
        <time>2022-07-28T10:49:33.000Z</time>
      </trkpt>
      <trkpt lat="42.298671863973140716552734375" lon="3.0015117488801479339599609375">
        <ele>19.799999237060546875</ele>
        <time>2022-07-28T10:49:34.000Z</time>
      </trkpt>
      <trkpt lat="42.2982938401401042938232421875" lon="3.001098521053791046142578125">
        <ele>20.3999996185302734375</ele>
        <time>2022-07-28T10:49:41.000Z</time>
      </trkpt>
      <trkpt lat="42.29793987236917018890380859375" lon="3.0008341558277606964111328125">
        <ele>20.6000003814697265625</ele>
        <time>2022-07-28T10:49:47.000Z</time>
      </trkpt>
      <trkpt lat="42.2975210286676883697509765625" lon="3.000375330448150634765625">
        <ele>20.3999996185302734375</ele>
        <time>2022-07-28T10:49:55.000Z</time>
      </trkpt>
      <trkpt lat="42.29712397791445255279541015625" lon="2.99991809763014316558837890625">
        <ele>20.3999996185302734375</ele>
        <time>2022-07-28T10:50:03.000Z</time>
      </trkpt>
      <trkpt lat="42.29672315530478954315185546875" lon="2.99946446903049945831298828125">
        <ele>20.6000003814697265625</ele>
        <time>2022-07-28T10:50:11.000Z</time>
      </trkpt>
      <trkpt lat="42.2966717742383480072021484375" lon="2.99940898083150386810302734375">
        <ele>20.6000003814697265625</ele>
        <time>2022-07-28T10:50:12.000Z</time>
      </trkpt>
      <trkpt lat="42.2962489910423755645751953125" lon="2.99894772469997406005859375">
        <ele>21.6000003814697265625</ele>
        <time>2022-07-28T10:50:20.000Z</time>
      </trkpt>
      <trkpt lat="42.29608478955924510955810546875" lon="2.99877245910465717315673828125">
        <ele>21.799999237060546875</ele>
        <time>2022-07-28T10:50:23.000Z</time>
      </trkpt>
      <trkpt lat="42.29565362446010112762451171875" lon="2.9983008094131946563720703125">
        <ele>22</ele>
        <time>2022-07-28T10:50:31.000Z</time>
      </trkpt>
      <trkpt lat="42.29549403302371501922607421875" lon="2.9981298185884952545166015625">
        <ele>22</ele>
        <time>2022-07-28T10:50:34.000Z</time>
      </trkpt>
      <trkpt lat="42.295291610062122344970703125" lon="2.9979112185537815093994140625">
        <ele>22.6000003814697265625</ele>
        <time>2022-07-28T10:50:38.000Z</time>
      </trkpt>
      <trkpt lat="42.29509346187114715576171875" lon="2.99770007841289043426513671875">
        <ele>23</ele>
        <time>2022-07-28T10:50:42.000Z</time>
      </trkpt>
      <trkpt lat="42.29470563121140003204345703125" lon="2.99728450365364551544189453125">
        <ele>23.799999237060546875</ele>
        <time>2022-07-28T10:50:50.000Z</time>
      </trkpt>
      <trkpt lat="42.2946115024387836456298828125" lon="2.997181154787540435791015625">
        <ele>24.200000762939453125</ele>
        <time>2022-07-28T10:50:52.000Z</time>
      </trkpt>
      <trkpt lat="42.294469512999057769775390625" lon="2.99702919088304042816162109375">
        <ele>25</ele>
        <time>2022-07-28T10:50:55.000Z</time>
      </trkpt>
      <trkpt lat="42.294281423091888427734375" lon="2.996831797063350677490234375">
        <ele>25.799999237060546875</ele>
        <time>2022-07-28T10:50:59.000Z</time>
      </trkpt>
      <trkpt lat="42.2942356579005718231201171875" lon="2.9967830143868923187255859375">
        <ele>26.200000762939453125</ele>
        <time>2022-07-28T10:51:00.000Z</time>
      </trkpt>
      <trkpt lat="42.29409710504114627838134765625" lon="2.99664211459457874298095703125">
        <ele>27.3999996185302734375</ele>
        <time>2022-07-28T10:51:03.000Z</time>
      </trkpt>
      <trkpt lat="42.2940130345523357391357421875" lon="2.99655812792479991912841796875">
        <ele>27.799999237060546875</ele>
        <time>2022-07-28T10:51:05.000Z</time>
      </trkpt>
      <trkpt lat="42.2938554547727108001708984375" lon="2.99637548625469207763671875">
        <ele>28.6000003814697265625</ele>
        <time>2022-07-28T10:51:09.000Z</time>
      </trkpt>
      <trkpt lat="42.29377155192196369171142578125" lon="2.996284626424312591552734375">
        <ele>29.3999996185302734375</ele>
        <time>2022-07-28T10:51:11.000Z</time>
      </trkpt>
      <trkpt lat="42.29368890635669231414794921875" lon="2.9961966164410114288330078125">
        <ele>29.6000003814697265625</ele>
        <time>2022-07-28T10:51:13.000Z</time>
      </trkpt>
      <trkpt lat="42.293414734303951263427734375" lon="2.9959201812744140625">
        <ele>30</ele>
        <time>2022-07-28T10:51:19.000Z</time>
      </trkpt>
      <trkpt lat="42.293310463428497314453125" lon="2.995811216533184051513671875">
        <ele>30</ele>
        <time>2022-07-28T10:51:21.000Z</time>
      </trkpt>
      <trkpt lat="42.29308038018643856048583984375" lon="2.9955632798373699188232421875">
        <ele>30</ele>
        <time>2022-07-28T10:51:25.000Z</time>
      </trkpt>
      <trkpt lat="42.29280595667660236358642578125" lon="2.99527418799698352813720703125">
        <ele>28.3999996185302734375</ele>
        <time>2022-07-28T10:51:29.000Z</time>
      </trkpt>
      <trkpt lat="42.2927322797477245330810546875" lon="2.9951919615268707275390625">
        <ele>28</ele>
        <time>2022-07-28T10:51:30.000Z</time>
      </trkpt>
      <trkpt lat="42.2925767116248607635498046875" lon="2.9950296878814697265625">
        <ele>26.799999237060546875</ele>
        <time>2022-07-28T10:51:32.000Z</time>
      </trkpt>
      <trkpt lat="42.29233480989933013916015625" lon="2.99478585831820964813232421875">
        <ele>25.799999237060546875</ele>
        <time>2022-07-28T10:51:35.000Z</time>
      </trkpt>
      <trkpt lat="42.2921757213771343231201171875" lon="2.99462509341537952423095703125">
        <ele>24.3999996185302734375</ele>
        <time>2022-07-28T10:51:37.000Z</time>
      </trkpt>
      <trkpt lat="42.29209802113473415374755859375" lon="2.99454529769718647003173828125">
        <ele>23.6000003814697265625</ele>
        <time>2022-07-28T10:51:38.000Z</time>
      </trkpt>
      <trkpt lat="42.29202040471136569976806640625" lon="2.9944682680070400238037109375">
        <ele>22.6000003814697265625</ele>
        <time>2022-07-28T10:51:39.000Z</time>
      </trkpt>
      <trkpt lat="42.29186969809234142303466796875" lon="2.9943137057125568389892578125">
        <ele>20.799999237060546875</ele>
        <time>2022-07-28T10:51:41.000Z</time>
      </trkpt>
      <trkpt lat="42.29159644804894924163818359375" lon="2.99397222697734832763671875">
        <ele>20</ele>
        <time>2022-07-28T10:51:45.000Z</time>
      </trkpt>
      <trkpt lat="42.291240133345127105712890625" lon="2.9934235475957393646240234375">
        <ele>20</ele>
        <time>2022-07-28T10:51:51.000Z</time>
      </trkpt>
      <trkpt lat="42.2909586690366268157958984375" lon="2.99280638806521892547607421875">
        <ele>20.200000762939453125</ele>
        <time>2022-07-28T10:51:57.000Z</time>
      </trkpt>
      <trkpt lat="42.2906793840229511260986328125" lon="2.99220507033169269561767578125">
        <ele>20.200000762939453125</ele>
        <time>2022-07-28T10:52:03.000Z</time>
      </trkpt>
      <trkpt lat="42.2903001867234706878662109375" lon="2.9915835522115230560302734375">
        <ele>19.799999237060546875</ele>
        <time>2022-07-28T10:52:10.000Z</time>
      </trkpt>
      <trkpt lat="42.29019382037222385406494140625" lon="2.99140811897814273834228515625">
        <ele>19.799999237060546875</ele>
        <time>2022-07-28T10:52:12.000Z</time>
      </trkpt>
      <trkpt lat="42.289824597537517547607421875" lon="2.9907990060746669769287109375">
        <ele>19.6000003814697265625</ele>
        <time>2022-07-28T10:52:19.000Z</time>
      </trkpt>
      <trkpt lat="42.28966475464403629302978515625" lon="2.9905421845614910125732421875">
        <ele>19.6000003814697265625</ele>
        <time>2022-07-28T10:52:22.000Z</time>
      </trkpt>
      <trkpt lat="42.2893179953098297119140625" lon="2.99007765948772430419921875">
        <ele>19.799999237060546875</ele>
        <time>2022-07-28T10:52:28.000Z</time>
      </trkpt>
      <trkpt lat="42.28892714716494083404541015625" lon="2.9895646870136260986328125">
        <ele>20.200000762939453125</ele>
        <time>2022-07-28T10:52:35.000Z</time>
      </trkpt>
      <trkpt lat="42.288816757500171661376953125" lon="2.989419512450695037841796875">
        <ele>20.200000762939453125</ele>
        <time>2022-07-28T10:52:37.000Z</time>
      </trkpt>
      <trkpt lat="42.288483493030071258544921875" lon="2.98890142701566219329833984375">
        <ele>20.799999237060546875</ele>
        <time>2022-07-28T10:52:44.000Z</time>
      </trkpt>
      <trkpt lat="42.28820144198834896087646484375" lon="2.9883595369756221771240234375">
        <ele>21.3999996185302734375</ele>
        <time>2022-07-28T10:52:51.000Z</time>
      </trkpt>
      <trkpt lat="42.28786599822342395782470703125" lon="2.9877117834985256195068359375">
        <ele>21</ele>
        <time>2022-07-28T10:52:59.000Z</time>
      </trkpt>
      <trkpt lat="42.28773792274296283721923828125" lon="2.98747214488685131072998046875">
        <ele>21</ele>
        <time>2022-07-28T10:53:02.000Z</time>
      </trkpt>
      <trkpt lat="42.28738152422010898590087890625" lon="2.9868531413376331329345703125">
        <ele>20.799999237060546875</ele>
        <time>2022-07-28T10:53:10.000Z</time>
      </trkpt>
      <trkpt lat="42.2873306460678577423095703125" lon="2.98677879385650157928466796875">
        <ele>20.6000003814697265625</ele>
        <time>2022-07-28T10:53:11.000Z</time>
      </trkpt>
      <trkpt lat="42.28691247291862964630126953125" lon="2.9861708544194698333740234375">
        <ele>20.200000762939453125</ele>
        <time>2022-07-28T10:53:19.000Z</time>
      </trkpt>
      <trkpt lat="42.28674776852130889892578125" lon="2.98596172593533992767333984375">
        <ele>20</ele>
        <time>2022-07-28T10:53:22.000Z</time>
      </trkpt>
      <trkpt lat="42.28630528785288333892822265625" lon="2.9855492524802684783935546875">
        <ele>19.799999237060546875</ele>
        <time>2022-07-28T10:53:29.000Z</time>
      </trkpt>
      <trkpt lat="42.28582500480115413665771484375" lon="2.98519344069063663482666015625">
        <ele>20</ele>
        <time>2022-07-28T10:53:36.000Z</time>
      </trkpt>
      <trkpt lat="42.28569173254072666168212890625" lon="2.985103167593479156494140625">
        <ele>20</ele>
        <time>2022-07-28T10:53:38.000Z</time>
      </trkpt>
      <trkpt lat="42.28532829321920871734619140625" lon="2.98479697667062282562255859375">
        <ele>20</ele>
        <time>2022-07-28T10:53:44.000Z</time>
      </trkpt>
      <trkpt lat="42.28501506149768829345703125" lon="2.9844639636576175689697265625">
        <ele>20.3999996185302734375</ele>
        <time>2022-07-28T10:53:50.000Z</time>
      </trkpt>
      <trkpt lat="42.28492386639118194580078125" lon="2.98436044715344905853271484375">
        <ele>20.6000003814697265625</ele>
        <time>2022-07-28T10:53:52.000Z</time>
      </trkpt>
      <trkpt lat="42.2848398797214031219482421875" lon="2.984266988933086395263671875">
        <ele>20.6000003814697265625</ele>
        <time>2022-07-28T10:53:54.000Z</time>
      </trkpt>
      <trkpt lat="42.28480794467031955718994140625" lon="2.98421275801956653594970703125">
        <ele>20.6000003814697265625</ele>
        <time>2022-07-28T10:53:55.000Z</time>
      </trkpt>
      <trkpt lat="42.284747846424579620361328125" lon="2.984134890139102935791015625">
        <ele>20.799999237060546875</ele>
        <time>2022-07-28T10:53:57.000Z</time>
      </trkpt>
      <trkpt lat="42.28466612286865711212158203125" lon="2.98412357456982135772705078125">
        <ele>21</ele>
        <time>2022-07-28T10:53:59.000Z</time>
      </trkpt>
      <trkpt lat="42.28430536575615406036376953125" lon="2.984129525721073150634765625">
        <ele>21.6000003814697265625</ele>
        <time>2022-07-28T10:54:06.000Z</time>
      </trkpt>
      <trkpt lat="42.28422925807535648345947265625" lon="2.9840344749391078948974609375">
        <ele>21.799999237060546875</ele>
        <time>2022-07-28T10:54:08.000Z</time>
      </trkpt>
      <trkpt lat="42.28420025669038295745849609375" lon="2.98396666534245014190673828125">
        <ele>21.799999237060546875</ele>
        <time>2022-07-28T10:54:09.000Z</time>
      </trkpt>
      <trkpt lat="42.28398299776017665863037109375" lon="2.98346341587603092193603515625">
        <ele>22.200000762939453125</ele>
        <time>2022-07-28T10:54:16.000Z</time>
      </trkpt>
      <trkpt lat="42.28391191922128200531005859375" lon="2.983307428658008575439453125">
        <ele>22.200000762939453125</ele>
        <time>2022-07-28T10:54:19.000Z</time>
      </trkpt>
      <trkpt lat="42.28388191200792789459228515625" lon="2.98329896293580532073974609375">
        <ele>22.200000762939453125</ele>
        <time>2022-07-28T10:54:20.000Z</time>
      </trkpt>
      <trkpt lat="42.28377319872379302978515625" lon="2.98336618579924106597900390625">
        <ele>22.3999996185302734375</ele>
        <time>2022-07-28T10:54:23.000Z</time>
      </trkpt>
      <trkpt lat="42.28364855982363224029541015625" lon="2.9834527708590030670166015625">
        <ele>22.200000762939453125</ele>
        <time>2022-07-28T10:54:26.000Z</time>
      </trkpt>
      <trkpt lat="42.28356759063899517059326171875" lon="2.98350884579122066497802734375">
        <ele>22.200000762939453125</ele>
        <time>2022-07-28T10:54:28.000Z</time>
      </trkpt>
      <trkpt lat="42.28328495286405086517333984375" lon="2.98370464704930782318115234375">
        <ele>22</ele>
        <time>2022-07-28T10:54:34.000Z</time>
      </trkpt>
      <trkpt lat="42.283094935119152069091796875" lon="2.98382719047367572784423828125">
        <ele>20.6000003814697265625</ele>
        <time>2022-07-28T10:54:38.000Z</time>
      </trkpt>
      <trkpt lat="42.2830096073448657989501953125" lon="2.9838876239955425262451171875">
        <ele>20.3999996185302734375</ele>
        <time>2022-07-28T10:54:40.000Z</time>
      </trkpt>
      <trkpt lat="42.28293274529278278350830078125" lon="2.98391168005764484405517578125">
        <ele>20.3999996185302734375</ele>
        <time>2022-07-28T10:54:42.000Z</time>
      </trkpt>
      <trkpt lat="42.282903157174587249755859375" lon="2.9838882945477962493896484375">
        <ele>20.3999996185302734375</ele>
        <time>2022-07-28T10:54:43.000Z</time>
      </trkpt>
      <trkpt lat="42.28285764344036579132080078125" lon="2.98373557627201080322265625">
        <ele>20.3999996185302734375</ele>
        <time>2022-07-28T10:54:46.000Z</time>
      </trkpt>
      <trkpt lat="42.28284171782433986663818359375" lon="2.9836807586252689361572265625">
        <ele>20.3999996185302734375</ele>
        <time>2022-07-28T10:54:47.000Z</time>
      </trkpt>
      <trkpt lat="42.28277164511382579803466796875" lon="2.98362669534981250762939453125">
        <ele>20.799999237060546875</ele>
        <time>2022-07-28T10:54:49.000Z</time>
      </trkpt>
      <trkpt lat="42.28262462653219699859619140625" lon="2.9837146215140819549560546875">
        <ele>20.799999237060546875</ele>
        <time>2022-07-28T10:54:52.000Z</time>
      </trkpt>
      <trkpt lat="42.28257634676992893218994140625" lon="2.9837585426867008209228515625">
        <ele>20.799999237060546875</ele>
        <time>2022-07-28T10:54:53.000Z</time>
      </trkpt>
      <trkpt lat="42.28228591382503509521484375" lon="2.9840438626706600189208984375">
        <ele>20.799999237060546875</ele>
        <time>2022-07-28T10:54:59.000Z</time>
      </trkpt>
      <trkpt lat="42.28193722665309906005859375" lon="2.9843707568943500518798828125">
        <ele>20.200000762939453125</ele>
        <time>2022-07-28T10:55:06.000Z</time>
      </trkpt>
      <trkpt lat="42.2815159521996974945068359375" lon="2.98473360948264598846435546875">
        <ele>20</ele>
        <time>2022-07-28T10:55:14.000Z</time>
      </trkpt>
      <trkpt lat="42.28114136494696140289306640625" lon="2.98502412624657154083251953125">
        <ele>19.6000003814697265625</ele>
        <time>2022-07-28T10:55:21.000Z</time>
      </trkpt>
      <trkpt lat="42.2810837812721729278564453125" lon="2.98506469465792179107666015625">
        <ele>19.6000003814697265625</ele>
        <time>2022-07-28T10:55:22.000Z</time>
      </trkpt>
      <trkpt lat="42.280553877353668212890625" lon="2.98545428551733493804931640625">
        <ele>19.3999996185302734375</ele>
        <time>2022-07-28T10:55:31.000Z</time>
      </trkpt>
      <trkpt lat="42.28005792014300823211669921875" lon="2.98582375980913639068603515625">
        <ele>19</ele>
        <time>2022-07-28T10:55:39.000Z</time>
      </trkpt>
      <trkpt lat="42.2798781283199787139892578125" lon="2.98596776090562343597412109375">
        <ele>18.799999237060546875</ele>
        <time>2022-07-28T10:55:42.000Z</time>
      </trkpt>
      <trkpt lat="42.27970655076205730438232421875" lon="2.9860818386077880859375">
        <ele>18.6000003814697265625</ele>
        <time>2022-07-28T10:55:45.000Z</time>
      </trkpt>
      <trkpt lat="42.27959641255438327789306640625" lon="2.98615702427923679351806640625">
        <ele>18.3999996185302734375</ele>
        <time>2022-07-28T10:55:47.000Z</time>
      </trkpt>
      <trkpt lat="42.2791014611721038818359375" lon="2.98650805838406085968017578125">
        <ele>17.799999237060546875</ele>
        <time>2022-07-28T10:55:56.000Z</time>
      </trkpt>
      <trkpt lat="42.27865009568631649017333984375" lon="2.98680528067052364349365234375">
        <ele>17.799999237060546875</ele>
        <time>2022-07-28T10:56:04.000Z</time>
      </trkpt>
      <trkpt lat="42.27817165665328502655029296875" lon="2.9871139861643314361572265625">
        <ele>18</ele>
        <time>2022-07-28T10:56:13.000Z</time>
      </trkpt>
      <trkpt lat="42.277864627540111541748046875" lon="2.98732160590589046478271484375">
        <ele>18.6000003814697265625</ele>
        <time>2022-07-28T10:56:20.000Z</time>
      </trkpt>
      <trkpt lat="42.27770411409437656402587890625" lon="2.98742822371423244476318359375">
        <ele>19.6000003814697265625</ele>
        <time>2022-07-28T10:56:24.000Z</time>
      </trkpt>
      <trkpt lat="42.2776203788816928863525390625" lon="2.9874780960381031036376953125">
        <ele>19.799999237060546875</ele>
        <time>2022-07-28T10:56:26.000Z</time>
      </trkpt>
      <trkpt lat="42.277421392500400543212890625" lon="2.98746577464044094085693359375">
        <ele>20.3999996185302734375</ele>
        <time>2022-07-28T10:56:30.000Z</time>
      </trkpt>
      <trkpt lat="42.27736632339656352996826171875" lon="2.987457476556301116943359375">
        <ele>20.6000003814697265625</ele>
        <time>2022-07-28T10:56:31.000Z</time>
      </trkpt>
      <trkpt lat="42.27725903503596782684326171875" lon="2.98748932778835296630859375">
        <ele>20.6000003814697265625</ele>
        <time>2022-07-28T10:56:33.000Z</time>
      </trkpt>
      <trkpt lat="42.277156524360179901123046875" lon="2.9876618273556232452392578125">
        <ele>20.6000003814697265625</ele>
        <time>2022-07-28T10:56:36.000Z</time>
      </trkpt>
      <trkpt lat="42.27705988101661205291748046875" lon="2.987916469573974609375">
        <ele>20.6000003814697265625</ele>
        <time>2022-07-28T10:56:40.000Z</time>
      </trkpt>
      <trkpt lat="42.27693113498389720916748046875" lon="2.987908758223056793212890625">
        <ele>20.6000003814697265625</ele>
        <time>2022-07-28T10:56:43.000Z</time>
      </trkpt>
      <trkpt lat="42.27682468481361865997314453125" lon="2.98770449124276638031005859375">
        <ele>20.6000003814697265625</ele>
        <time>2022-07-28T10:56:47.000Z</time>
      </trkpt>
      <trkpt lat="42.27680188603699207305908203125" lon="2.9876447282731533050537109375">
        <ele>20.6000003814697265625</ele>
        <time>2022-07-28T10:56:48.000Z</time>
      </trkpt>
      <trkpt lat="42.276738099753856658935546875" lon="2.9875404573976993560791015625">
        <ele>22</ele>
        <time>2022-07-28T10:56:50.000Z</time>
      </trkpt>
      <trkpt lat="42.27669711224734783172607421875" lon="2.98750340938568115234375">
        <ele>22.799999237060546875</ele>
        <time>2022-07-28T10:56:51.000Z</time>
      </trkpt>
      <trkpt lat="42.2766510955989360809326171875" lon="2.98747868277132511138916015625">
        <ele>23.3999996185302734375</ele>
        <time>2022-07-28T10:56:52.000Z</time>
      </trkpt>
      <trkpt lat="42.2765538655221462249755859375" lon="2.98746527172625064849853515625">
        <ele>24.3999996185302734375</ele>
        <time>2022-07-28T10:56:54.000Z</time>
      </trkpt>
      <trkpt lat="42.27650516666471958160400390625" lon="2.98747315071523189544677734375">
        <ele>24.799999237060546875</ele>
        <time>2022-07-28T10:56:55.000Z</time>
      </trkpt>
      <trkpt lat="42.27636451832950115203857421875" lon="2.9875414632260799407958984375">
        <ele>25.3999996185302734375</ele>
        <time>2022-07-28T10:56:58.000Z</time>
      </trkpt>
      <trkpt lat="42.276288159191608428955078125" lon="2.987601645290851593017578125">
        <ele>25.799999237060546875</ele>
        <time>2022-07-28T10:57:00.000Z</time>
      </trkpt>
      <trkpt lat="42.2759922780096530914306640625" lon="2.98780423589050769805908203125">
        <ele>26</ele>
        <time>2022-07-28T10:57:07.000Z</time>
      </trkpt>
      <trkpt lat="42.2757109813392162322998046875" lon="2.987922169268131256103515625">
        <ele>26</ele>
        <time>2022-07-28T10:57:11.000Z</time>
      </trkpt>
      <trkpt lat="42.27535231970250606536865234375" lon="2.98803658224642276763916015625">
        <ele>24.3999996185302734375</ele>
        <time>2022-07-28T10:57:15.000Z</time>
      </trkpt>
      <trkpt lat="42.27525651454925537109375" lon="2.9880648292601108551025390625">
        <ele>23.3999996185302734375</ele>
        <time>2022-07-28T10:57:16.000Z</time>
      </trkpt>
      <trkpt lat="42.27516238577663898468017578125" lon="2.98809357918798923492431640625">
        <ele>22.6000003814697265625</ele>
        <time>2022-07-28T10:57:17.000Z</time>
      </trkpt>
      <trkpt lat="42.27498066611588001251220703125" lon="2.98815107904374599456787109375">
        <ele>20.3999996185302734375</ele>
        <time>2022-07-28T10:57:19.000Z</time>
      </trkpt>
      <trkpt lat="42.274892069399356842041015625" lon="2.98818393610417842864990234375">
        <ele>19.200000762939453125</ele>
        <time>2022-07-28T10:57:20.000Z</time>
      </trkpt>
      <trkpt lat="42.27480330504477024078369140625" lon="2.98821494914591312408447265625">
        <ele>18.200000762939453125</ele>
        <time>2022-07-28T10:57:21.000Z</time>
      </trkpt>
      <trkpt lat="42.2747135348618030548095703125" lon="2.9882328025996685028076171875">
        <ele>17.200000762939453125</ele>
        <time>2022-07-28T10:57:22.000Z</time>
      </trkpt>
      <trkpt lat="42.2746230103075504302978515625" lon="2.9882408492267131805419921875">
        <ele>16.3999996185302734375</ele>
        <time>2022-07-28T10:57:23.000Z</time>
      </trkpt>
      <trkpt lat="42.27418296039104461669921875" lon="2.988221906125545501708984375">
        <ele>15.3999996185302734375</ele>
        <time>2022-07-28T10:57:28.000Z</time>
      </trkpt>
      <trkpt lat="42.27360201068222522735595703125" lon="2.98818712122738361358642578125">
        <ele>15.3999996185302734375</ele>
        <time>2022-07-28T10:57:35.000Z</time>
      </trkpt>
      <trkpt lat="42.2735239751636981964111328125" lon="2.988179661333560943603515625">
        <ele>15.3999996185302734375</ele>
        <time>2022-07-28T10:57:36.000Z</time>
      </trkpt>
      <trkpt lat="42.27322499267756938934326171875" lon="2.988160215318202972412109375">
        <ele>15.6000003814697265625</ele>
        <time>2022-07-28T10:57:40.000Z</time>
      </trkpt>
      <trkpt lat="42.27308618836104869842529296875" lon="2.988191731274127960205078125">
        <ele>15.6000003814697265625</ele>
        <time>2022-07-28T10:57:42.000Z</time>
      </trkpt>
      <trkpt lat="42.2727454639971256256103515625" lon="2.988345287740230560302734375">
        <ele>15.80000019073486328125</ele>
        <time>2022-07-28T10:57:47.000Z</time>
      </trkpt>
      <trkpt lat="42.27268151007592678070068359375" lon="2.98839189112186431884765625">
        <ele>15.80000019073486328125</ele>
        <time>2022-07-28T10:57:48.000Z</time>
      </trkpt>
      <trkpt lat="42.2725101001560688018798828125" lon="2.98856698907911777496337890625">
        <ele>16</ele>
        <time>2022-07-28T10:57:51.000Z</time>
      </trkpt>
      <trkpt lat="42.272408008575439453125" lon="2.98870294354856014251708984375">
        <ele>16</ele>
        <time>2022-07-28T10:57:53.000Z</time>
      </trkpt>
      <trkpt lat="42.272317148745059967041015625" lon="2.98885633237659931182861328125">
        <ele>16</ele>
        <time>2022-07-28T10:57:55.000Z</time>
      </trkpt>
      <trkpt lat="42.27220390923321247100830078125" lon="2.98911080695688724517822265625">
        <ele>16.3999996185302734375</ele>
        <time>2022-07-28T10:57:58.000Z</time>
      </trkpt>
      <trkpt lat="42.27198346517980098724365234375" lon="2.98966401256620883941650390625">
        <ele>16.6000003814697265625</ele>
        <time>2022-07-28T10:58:05.000Z</time>
      </trkpt>
      <trkpt lat="42.27173938415944576263427734375" lon="2.99028016626834869384765625">
        <ele>17</ele>
        <time>2022-07-28T10:58:13.000Z</time>
      </trkpt>
      <trkpt lat="42.2714613564312458038330078125" lon="2.99087670631706714630126953125">
        <ele>16.799999237060546875</ele>
        <time>2022-07-28T10:58:21.000Z</time>
      </trkpt>
      <trkpt lat="42.271163798868656158447265625" lon="2.99124618060886859893798828125">
        <ele>16.6000003814697265625</ele>
        <time>2022-07-28T10:58:27.000Z</time>
      </trkpt>
      <trkpt lat="42.2708085738122463226318359375" lon="2.99168673343956470489501953125">
        <ele>16.3999996185302734375</ele>
        <time>2022-07-28T10:58:34.000Z</time>
      </trkpt>
      <trkpt lat="42.2706798277795314788818359375" lon="2.99187197349965572357177734375">
        <ele>16.3999996185302734375</ele>
        <time>2022-07-28T10:58:37.000Z</time>
      </trkpt>
      <trkpt lat="42.270611934363842010498046875" lon="2.99199418164789676666259765625">
        <ele>16.3999996185302734375</ele>
        <time>2022-07-28T10:58:39.000Z</time>
      </trkpt>
      <trkpt lat="42.27052702568471431732177734375" lon="2.99202586524188518524169921875">
        <ele>16.3999996185302734375</ele>
        <time>2022-07-28T10:58:41.000Z</time>
      </trkpt>
      <trkpt lat="42.2704722918570041656494140625" lon="2.99193534068763256072998046875">
        <ele>16.3999996185302734375</ele>
        <time>2022-07-28T10:58:43.000Z</time>
      </trkpt>
      <trkpt lat="42.27045510895550251007080078125" lon="2.99187515862286090850830078125">
        <ele>16.3999996185302734375</ele>
        <time>2022-07-28T10:58:44.000Z</time>
      </trkpt>
      <trkpt lat="42.27043365128338336944580078125" lon="2.991816736757755279541015625">
        <ele>16.6000003814697265625</ele>
        <time>2022-07-28T10:58:45.000Z</time>
      </trkpt>
      <trkpt lat="42.2703505866229534149169921875" lon="2.99175244756042957305908203125">
        <ele>16.799999237060546875</ele>
        <time>2022-07-28T10:58:47.000Z</time>
      </trkpt>
      <trkpt lat="42.27024908177554607391357421875" lon="2.99177348613739013671875">
        <ele>17.200000762939453125</ele>
        <time>2022-07-28T10:58:49.000Z</time>
      </trkpt>
      <trkpt lat="42.27020046673715114593505859375" lon="2.99180055968463420867919921875">
        <ele>17.200000762939453125</ele>
        <time>2022-07-28T10:58:50.000Z</time>
      </trkpt>
      <trkpt lat="42.27010868489742279052734375" lon="2.99186660908162593841552734375">
        <ele>17.3999996185302734375</ele>
        <time>2022-07-28T10:58:52.000Z</time>
      </trkpt>
      <trkpt lat="42.27006174623966217041015625" lon="2.9918956942856311798095703125">
        <ele>17.3999996185302734375</ele>
        <time>2022-07-28T10:58:53.000Z</time>
      </trkpt>
      <trkpt lat="42.26992319338023662567138671875" lon="2.99198806285858154296875">
        <ele>17.3999996185302734375</ele>
        <time>2022-07-28T10:58:56.000Z</time>
      </trkpt>
      <trkpt lat="42.26942338049411773681640625" lon="2.99235560931265354156494140625">
        <ele>16.6000003814697265625</ele>
        <time>2022-07-28T10:59:07.000Z</time>
      </trkpt>
      <trkpt lat="42.26906136609613895416259765625" lon="2.9926373250782489776611328125">
        <ele>17.200000762939453125</ele>
        <time>2022-07-28T10:59:15.000Z</time>
      </trkpt>
      <trkpt lat="42.2690178640186786651611328125" lon="2.99267412163317203521728515625">
        <ele>17.3999996185302734375</ele>
        <time>2022-07-28T10:59:16.000Z</time>
      </trkpt>
      <trkpt lat="42.2688522376120090484619140625" lon="2.99286782741546630859375">
        <ele>17.6000003814697265625</ele>
        <time>2022-07-28T10:59:20.000Z</time>
      </trkpt>
      <trkpt lat="42.2687392495572566986083984375" lon="2.99302683211863040924072265625">
        <ele>17.799999237060546875</ele>
        <time>2022-07-28T10:59:23.000Z</time>
      </trkpt>
      <trkpt lat="42.2686527483165264129638671875" lon="2.993198744952678680419921875">
        <ele>18</ele>
        <time>2022-07-28T10:59:26.000Z</time>
      </trkpt>
      <trkpt lat="42.26862818934023380279541015625" lon="2.99326018430292606353759765625">
        <ele>18</ele>
        <time>2022-07-28T10:59:27.000Z</time>
      </trkpt>
      <trkpt lat="42.26855300366878509521484375" lon="2.99353125505149364471435546875">
        <ele>18.200000762939453125</ele>
        <time>2022-07-28T10:59:31.000Z</time>
      </trkpt>
      <trkpt lat="42.2685226611793041229248046875" lon="2.993678189814090728759765625">
        <ele>18.200000762939453125</ele>
        <time>2022-07-28T10:59:33.000Z</time>
      </trkpt>
      <trkpt lat="42.26852425374090671539306640625" lon="2.99383568577468395233154296875">
        <ele>18.3999996185302734375</ele>
        <time>2022-07-28T10:59:35.000Z</time>
      </trkpt>
      <trkpt lat="42.26856901310384273529052734375" lon="2.994262240827083587646484375">
        <ele>18.6000003814697265625</ele>
        <time>2022-07-28T10:59:41.000Z</time>
      </trkpt>
      <trkpt lat="42.26857286877930164337158203125" lon="2.99433943815529346466064453125">
        <ele>18.6000003814697265625</ele>
        <time>2022-07-28T10:59:44.000Z</time>
      </trkpt>
      <trkpt lat="42.26857219822704792022705078125" lon="2.9943604767322540283203125">
        <ele>18.799999237060546875</ele>
        <time>2022-07-28T10:59:45.000Z</time>
      </trkpt>
      <trkpt lat="42.2685695998370647430419921875" lon="2.99442342482507228851318359375">
        <ele>19</ele>
        <time>2022-07-28T10:59:48.000Z</time>
      </trkpt>
      <trkpt lat="42.268586196005344390869140625" lon="2.99445326440036296844482421875">
        <ele>19.3999996185302734375</ele>
        <time>2022-07-28T10:59:49.000Z</time>
      </trkpt>
      <trkpt lat="42.26864361204206943511962890625" lon="2.99459726549685001373291015625">
        <ele>19.799999237060546875</ele>
        <time>2022-07-28T10:59:52.000Z</time>
      </trkpt>
      <trkpt lat="42.26876313798129558563232421875" lon="2.99492751248180866241455078125">
        <ele>19.6000003814697265625</ele>
        <time>2022-07-28T10:59:58.000Z</time>
      </trkpt>
      <trkpt lat="42.268873862922191619873046875" lon="2.99525273032486438751220703125">
        <ele>19.200000762939453125</ele>
        <time>2022-07-28T11:00:03.000Z</time>
      </trkpt>
      <trkpt lat="42.2689156047999858856201171875" lon="2.99539186991751194000244140625">
        <ele>19.200000762939453125</ele>
        <time>2022-07-28T11:00:05.000Z</time>
      </trkpt>
      <trkpt lat="42.2691036947071552276611328125" lon="2.99593837000429630279541015625">
        <ele>18.799999237060546875</ele>
        <time>2022-07-28T11:00:12.000Z</time>
      </trkpt>
      <trkpt lat="42.269335202872753143310546875" lon="2.99661763943731784820556640625">
        <ele>18.799999237060546875</ele>
        <time>2022-07-28T11:00:20.000Z</time>
      </trkpt>
      <trkpt lat="42.269389517605304718017578125" lon="2.99678376875817775726318359375">
        <ele>18.6000003814697265625</ele>
        <time>2022-07-28T11:00:22.000Z</time>
      </trkpt>
      <trkpt lat="42.2694339416921138763427734375" lon="2.99695258028805255889892578125">
        <ele>18.200000762939453125</ele>
        <time>2022-07-28T11:00:24.000Z</time>
      </trkpt>
      <trkpt lat="42.26945833303034305572509765625" lon="2.99703271128237247467041015625">
        <ele>18</ele>
        <time>2022-07-28T11:00:25.000Z</time>
      </trkpt>
      <trkpt lat="42.26968363858759403228759765625" lon="2.9977040179073810577392578125">
        <ele>17.6000003814697265625</ele>
        <time>2022-07-28T11:00:34.000Z</time>
      </trkpt>
      <trkpt lat="42.2698550485074520111083984375" lon="2.998197376728057861328125">
        <ele>17.6000003814697265625</ele>
        <time>2022-07-28T11:00:41.000Z</time>
      </trkpt>
      <trkpt lat="42.26988136768341064453125" lon="2.99825864844024181365966796875">
        <ele>17.6000003814697265625</ele>
        <time>2022-07-28T11:00:42.000Z</time>
      </trkpt>
      <trkpt lat="42.269902490079402923583984375" lon="2.9983182437717914581298828125">
        <ele>17.6000003814697265625</ele>
        <time>2022-07-28T11:00:43.000Z</time>
      </trkpt>
      <trkpt lat="42.26989276707172393798828125" lon="2.9984362609684467315673828125">
        <ele>17.799999237060546875</ele>
        <time>2022-07-28T11:00:45.000Z</time>
      </trkpt>
      <trkpt lat="42.2697593271732330322265625" lon="2.99851764924824237823486328125">
        <ele>17.6000003814697265625</ele>
        <time>2022-07-28T11:00:48.000Z</time>
      </trkpt>
      <trkpt lat="42.26970861665904521942138671875" lon="2.9985422082245349884033203125">
        <ele>17.6000003814697265625</ele>
        <time>2022-07-28T11:00:49.000Z</time>
      </trkpt>
      <trkpt lat="42.26945011876523494720458984375" lon="2.998679839074611663818359375">
        <ele>17.3999996185302734375</ele>
        <time>2022-07-28T11:00:54.000Z</time>
      </trkpt>
      <trkpt lat="42.26940049789845943450927734375" lon="2.99870657734572887420654296875">
        <ele>17.3999996185302734375</ele>
        <time>2022-07-28T11:00:55.000Z</time>
      </trkpt>
      <trkpt lat="42.26930846460163593292236328125" lon="2.99876038916409015655517578125">
        <ele>17.3999996185302734375</ele>
        <time>2022-07-28T11:00:57.000Z</time>
      </trkpt>
      <trkpt lat="42.2691774554550647735595703125" lon="2.9987896420061588287353515625">
        <ele>17.6000003814697265625</ele>
        <time>2022-07-28T11:01:00.000Z</time>
      </trkpt>
      <trkpt lat="42.26908273994922637939453125" lon="2.9987279511988162994384765625">
        <ele>17.6000003814697265625</ele>
        <time>2022-07-28T11:01:03.000Z</time>
      </trkpt>
      <trkpt lat="42.2690527327358722686767578125" lon="2.99870632588863372802734375">
        <ele>17.6000003814697265625</ele>
        <time>2022-07-28T11:01:04.000Z</time>
      </trkpt>
      <trkpt lat="42.2689139284193515777587890625" lon="2.99873122014105319976806640625">
        <ele>18.6000003814697265625</ele>
        <time>2022-07-28T11:01:08.000Z</time>
      </trkpt>
      <trkpt lat="42.2688106633722782135009765625" lon="2.9988503269851207733154296875">
        <ele>18.6000003814697265625</ele>
        <time>2022-07-28T11:01:11.000Z</time>
      </trkpt>
      <trkpt lat="42.2687647305428981781005859375" lon="2.99887388013303279876708984375">
        <ele>18.6000003814697265625</ele>
        <time>2022-07-28T11:01:12.000Z</time>
      </trkpt>
      <trkpt lat="42.2684450447559356689453125" lon="2.99892601557075977325439453125">
        <ele>18.6000003814697265625</ele>
        <time>2022-07-28T11:01:18.000Z</time>
      </trkpt>
      <trkpt lat="42.26797020994126796722412109375" lon="2.9989998601377010345458984375">
        <ele>18.3999996185302734375</ele>
        <time>2022-07-28T11:01:27.000Z</time>
      </trkpt>
      <trkpt lat="42.267796285450458526611328125" lon="2.99895803444087505340576171875">
        <ele>18.3999996185302734375</ele>
        <time>2022-07-28T11:01:32.000Z</time>
      </trkpt>
      <trkpt lat="42.2676980495452880859375" lon="2.99881218932569026947021484375">
        <ele>18.6000003814697265625</ele>
        <time>2022-07-28T11:01:37.000Z</time>
      </trkpt>
      <trkpt lat="42.2676650248467922210693359375" lon="2.99876826815307140350341796875">
        <ele>19</ele>
        <time>2022-07-28T11:01:38.000Z</time>
      </trkpt>
      <trkpt lat="42.26761967875063419342041015625" lon="2.99873222596943378448486328125">
        <ele>19.200000762939453125</ele>
        <time>2022-07-28T11:01:39.000Z</time>
      </trkpt>
      <trkpt lat="42.26756653748452663421630859375" lon="2.99871428869664669036865234375">
        <ele>19.200000762939453125</ele>
        <time>2022-07-28T11:01:40.000Z</time>
      </trkpt>
      <trkpt lat="42.267399989068508148193359375" lon="2.9987554438412189483642578125">
        <ele>19.3999996185302734375</ele>
        <time>2022-07-28T11:01:43.000Z</time>
      </trkpt>
      <trkpt lat="42.26734525524079799652099609375" lon="2.99878603778779506683349609375">
        <ele>19.3999996185302734375</ele>
        <time>2022-07-28T11:01:44.000Z</time>
      </trkpt>
      <trkpt lat="42.26723075844347476959228515625" lon="2.99883431755006313323974609375">
        <ele>19.3999996185302734375</ele>
        <time>2022-07-28T11:01:46.000Z</time>
      </trkpt>
      <trkpt lat="42.26717024110257625579833984375" lon="2.998832724988460540771484375">
        <ele>19.3999996185302734375</ele>
        <time>2022-07-28T11:01:47.000Z</time>
      </trkpt>
      <trkpt lat="42.26701517589390277862548828125" lon="2.99871462397277355194091796875">
        <ele>19.3999996185302734375</ele>
        <time>2022-07-28T11:01:50.000Z</time>
      </trkpt>
      <trkpt lat="42.26667017675936222076416015625" lon="2.99838848412036895751953125">
        <ele>19.200000762939453125</ele>
        <time>2022-07-28T11:01:57.000Z</time>
      </trkpt>
      <trkpt lat="42.2664288617670536041259765625" lon="2.99816058017313480377197265625">
        <ele>19.200000762939453125</ele>
        <time>2022-07-28T11:02:02.000Z</time>
      </trkpt>
      <trkpt lat="42.26633858866989612579345703125" lon="2.9980646073818206787109375">
        <ele>19.200000762939453125</ele>
        <time>2022-07-28T11:02:04.000Z</time>
      </trkpt>
      <trkpt lat="42.26600817404687404632568359375" lon="2.99777249805629253387451171875">
        <ele>20.200000762939453125</ele>
        <time>2022-07-28T11:02:11.000Z</time>
      </trkpt>
      <trkpt lat="42.265657223761081695556640625" lon="2.99741442315280437469482421875">
        <ele>20.799999237060546875</ele>
        <time>2022-07-28T11:02:19.000Z</time>
      </trkpt>
      <trkpt lat="42.26558522321283817291259765625" lon="2.99728785641491413116455078125">
        <ele>20.799999237060546875</ele>
        <time>2022-07-28T11:02:21.000Z</time>
      </trkpt>
      <trkpt lat="42.2654988057911396026611328125" lon="2.9970726929605007171630859375">
        <ele>21</ele>
        <time>2022-07-28T11:02:24.000Z</time>
      </trkpt>
      <trkpt lat="42.265437953174114227294921875" lon="2.99683623947203159332275390625">
        <ele>21</ele>
        <time>2022-07-28T11:02:27.000Z</time>
      </trkpt>
      <trkpt lat="42.26543334312736988067626953125" lon="2.99666524864733219146728515625">
        <ele>21.200000762939453125</ele>
        <time>2022-07-28T11:02:29.000Z</time>
      </trkpt>
      <trkpt lat="42.26547039113938808441162109375" lon="2.9961594007909297943115234375">
        <ele>21.200000762939453125</ele>
        <time>2022-07-28T11:02:35.000Z</time>
      </trkpt>
      <trkpt lat="42.26548857986927032470703125" lon="2.99608320929110050201416015625">
        <ele>21.3999996185302734375</ele>
        <time>2022-07-28T11:02:36.000Z</time>
      </trkpt>
      <trkpt lat="42.2655343450605869293212890625" lon="2.99586041830480098724365234375">
        <ele>21.6000003814697265625</ele>
        <time>2022-07-28T11:02:39.000Z</time>
      </trkpt>
      <trkpt lat="42.26555873639881610870361328125" lon="2.9956447519361972808837890625">
        <ele>21.799999237060546875</ele>
        <time>2022-07-28T11:02:42.000Z</time>
      </trkpt>
      <trkpt lat="42.26559142582118511199951171875" lon="2.99546194262802600860595703125">
        <ele>22.3999996185302734375</ele>
        <time>2022-07-28T11:02:45.000Z</time>
      </trkpt>
      <trkpt lat="42.26562528870999813079833984375" lon="2.99536957405507564544677734375">
        <ele>22.3999996185302734375</ele>
        <time>2022-07-28T11:02:47.000Z</time>
      </trkpt>
      <trkpt lat="42.26566501893103122711181640625" lon="2.99526848830282688140869140625">
        <ele>22.6000003814697265625</ele>
        <time>2022-07-28T11:02:49.000Z</time>
      </trkpt>
      <trkpt lat="42.26564926095306873321533203125" lon="2.99516321159899234771728515625">
        <ele>22.799999237060546875</ele>
        <time>2022-07-28T11:02:51.000Z</time>
      </trkpt>
      <trkpt lat="42.26556410081684589385986328125" lon="2.9951321147382259368896484375">
        <ele>22.799999237060546875</ele>
        <time>2022-07-28T11:02:53.000Z</time>
      </trkpt>
      <trkpt lat="42.26547625847160816192626953125" lon="2.99518299289047718048095703125">
        <ele>22.799999237060546875</ele>
        <time>2022-07-28T11:02:55.000Z</time>
      </trkpt>
      <trkpt lat="42.2654361091554164886474609375" lon="2.99520730040967464447021484375">
        <ele>22.799999237060546875</ele>
        <time>2022-07-28T11:02:56.000Z</time>
      </trkpt>
      <trkpt lat="42.26539780385792255401611328125" lon="2.99522615969181060791015625">
        <ele>22.799999237060546875</ele>
        <time>2022-07-28T11:02:57.000Z</time>
      </trkpt>
      <trkpt lat="42.2652855701744556427001953125" lon="2.9952648840844631195068359375">
        <ele>22.799999237060546875</ele>
        <time>2022-07-28T11:03:00.000Z</time>
      </trkpt>
      <trkpt lat="42.26514047943055629730224609375" lon="2.99530553631484508514404296875">
        <ele>22.3999996185302734375</ele>
        <time>2022-07-28T11:03:03.000Z</time>
      </trkpt>
      <trkpt lat="42.26481802761554718017578125" lon="2.9953993298113346099853515625">
        <ele>21.3999996185302734375</ele>
        <time>2022-07-28T11:03:09.000Z</time>
      </trkpt>
      <trkpt lat="42.264758683741092681884765625" lon="2.9954172670841217041015625">
        <ele>21.200000762939453125</ele>
        <time>2022-07-28T11:03:10.000Z</time>
      </trkpt>
      <trkpt lat="42.264490462839603424072265625" lon="2.99550485797226428985595703125">
        <ele>20.3999996185302734375</ele>
        <time>2022-07-28T11:03:14.000Z</time>
      </trkpt>
      <trkpt lat="42.264355681836605072021484375" lon="2.99555045552551746368408203125">
        <ele>20</ele>
        <time>2022-07-28T11:03:16.000Z</time>
      </trkpt>
      <trkpt lat="42.26422986947000026702880859375" lon="2.9955847375094890594482421875">
        <ele>19</ele>
        <time>2022-07-28T11:03:18.000Z</time>
      </trkpt>
      <trkpt lat="42.26407078094780445098876953125" lon="2.99562572501599788665771484375">
        <ele>18.6000003814697265625</ele>
        <time>2022-07-28T11:03:21.000Z</time>
      </trkpt>
      <trkpt lat="42.26402132771909236907958984375" lon="2.995634190738201141357421875">
        <ele>18.6000003814697265625</ele>
        <time>2022-07-28T11:03:22.000Z</time>
      </trkpt>
      <trkpt lat="42.2638235986232757568359375" lon="2.99562086351215839385986328125">
        <ele>18.6000003814697265625</ele>
        <time>2022-07-28T11:03:26.000Z</time>
      </trkpt>
      <trkpt lat="42.26357373408973217010498046875" lon="2.9955787025392055511474609375">
        <ele>20.3999996185302734375</ele>
        <time>2022-07-28T11:03:31.000Z</time>
      </trkpt>
      <trkpt lat="42.2635213471949100494384765625" lon="2.995569147169589996337890625">
        <ele>20.799999237060546875</ele>
        <time>2022-07-28T11:03:32.000Z</time>
      </trkpt>
      <trkpt lat="42.26330123841762542724609375" lon="2.99552028067409992218017578125">
        <ele>21.3999996185302734375</ele>
        <time>2022-07-28T11:03:36.000Z</time>
      </trkpt>
      <trkpt lat="42.26301549933850765228271484375" lon="2.99547501839697360992431640625">
        <ele>21.3999996185302734375</ele>
        <time>2022-07-28T11:03:41.000Z</time>
      </trkpt>
      <trkpt lat="42.26242189295589923858642578125" lon="2.99540276639163494110107421875">
        <ele>20.799999237060546875</ele>
        <time>2022-07-28T11:03:51.000Z</time>
      </trkpt>
      <trkpt lat="42.2618731297552585601806640625" lon="2.9953067936003208160400390625">
        <ele>20.3999996185302734375</ele>
        <time>2022-07-28T11:04:00.000Z</time>
      </trkpt>
      <trkpt lat="42.26180917583405971527099609375" lon="2.99529396928846836090087890625">
        <ele>20.3999996185302734375</ele>
        <time>2022-07-28T11:04:01.000Z</time>
      </trkpt>
      <trkpt lat="42.26129653863608837127685546875" lon="2.99521819688379764556884765625">
        <ele>20.200000762939453125</ele>
        <time>2022-07-28T11:04:09.000Z</time>
      </trkpt>
      <trkpt lat="42.26072975434362888336181640625" lon="2.99512180499732494354248046875">
        <ele>20</ele>
        <time>2022-07-28T11:04:18.000Z</time>
      </trkpt>
      <trkpt lat="42.260666973888874053955078125" lon="2.99511342309415340423583984375">
        <ele>20</ele>
        <time>2022-07-28T11:04:19.000Z</time>
      </trkpt>
      <trkpt lat="42.26009524427354335784912109375" lon="2.99502499401569366455078125">
        <ele>20</ele>
        <time>2022-07-28T11:04:28.000Z</time>
      </trkpt>
      <trkpt lat="42.26003120653331279754638671875" lon="2.99501719884574413299560546875">
        <ele>20</ele>
        <time>2022-07-28T11:04:29.000Z</time>
      </trkpt>
      <trkpt lat="42.259443886578083038330078125" lon="2.99492533318698406219482421875">
        <ele>19.799999237060546875</ele>
        <time>2022-07-28T11:04:38.000Z</time>
      </trkpt>
      <trkpt lat="42.2589258849620819091796875" lon="2.99483782611787319183349609375">
        <ele>19.3999996185302734375</ele>
        <time>2022-07-28T11:04:46.000Z</time>
      </trkpt>
      <trkpt lat="42.2583865933120250701904296875" lon="2.99480480141937732696533203125">
        <ele>19.3999996185302734375</ele>
        <time>2022-07-28T11:04:55.000Z</time>
      </trkpt>
      <trkpt lat="42.2579815797507762908935546875" lon="2.99482542090117931365966796875">
        <ele>19.799999237060546875</ele>
        <time>2022-07-28T11:05:02.000Z</time>
      </trkpt>
      <trkpt lat="42.2578142769634723663330078125" lon="2.99483858048915863037109375">
        <ele>19.799999237060546875</ele>
        <time>2022-07-28T11:05:05.000Z</time>
      </trkpt>
      <trkpt lat="42.2577049769461154937744140625" lon="2.99484553746879100799560546875">
        <ele>19.799999237060546875</ele>
        <time>2022-07-28T11:05:07.000Z</time>
      </trkpt>
      <trkpt lat="42.25726702250540256500244140625" lon="2.9948739521205425262451171875">
        <ele>19.799999237060546875</ele>
        <time>2022-07-28T11:05:15.000Z</time>
      </trkpt>
      <trkpt lat="42.25692830979824066162109375" lon="2.99491343088448047637939453125">
        <ele>19.799999237060546875</ele>
        <time>2022-07-28T11:05:21.000Z</time>
      </trkpt>
      <trkpt lat="42.256873659789562225341796875" lon="2.99493069760501384735107421875">
        <ele>19.799999237060546875</ele>
        <time>2022-07-28T11:05:22.000Z</time>
      </trkpt>
      <trkpt lat="42.25645766593515872955322265625" lon="2.99514812417328357696533203125">
        <ele>20.200000762939453125</ele>
        <time>2022-07-28T11:05:30.000Z</time>
      </trkpt>
      <trkpt lat="42.25593983195722103118896484375" lon="2.9954834841191768646240234375">
        <ele>20.200000762939453125</ele>
        <time>2022-07-28T11:05:40.000Z</time>
      </trkpt>
      <trkpt lat="42.25540883839130401611328125" lon="2.9958237893879413604736328125">
        <ele>19.799999237060546875</ele>
        <time>2022-07-28T11:05:50.000Z</time>
      </trkpt>
      <trkpt lat="42.25489276461303234100341796875" lon="2.99614808522164821624755859375">
        <ele>19.3999996185302734375</ele>
        <time>2022-07-28T11:06:00.000Z</time>
      </trkpt>
      <trkpt lat="42.25442622788250446319580078125" lon="2.99644212238490581512451171875">
        <ele>19.6000003814697265625</ele>
        <time>2022-07-28T11:06:09.000Z</time>
      </trkpt>
      <trkpt lat="42.2539073042571544647216796875" lon="2.99677102826535701751708984375">
        <ele>19.799999237060546875</ele>
        <time>2022-07-28T11:06:19.000Z</time>
      </trkpt>
      <trkpt lat="42.25336910225450992584228515625" lon="2.9970827512443065643310546875">
        <ele>20.799999237060546875</ele>
        <time>2022-07-28T11:06:29.000Z</time>
      </trkpt>
      <trkpt lat="42.252991497516632080078125" lon="2.99728752113878726959228515625">
        <ele>21.3999996185302734375</ele>
        <time>2022-07-28T11:06:37.000Z</time>
      </trkpt>
      <trkpt lat="42.252899296581745147705078125" lon="2.99733932130038738250732421875">
        <ele>21.3999996185302734375</ele>
        <time>2022-07-28T11:06:39.000Z</time>
      </trkpt>
      <trkpt lat="42.2527514398097991943359375" lon="2.99739296548068523406982421875">
        <ele>22.3999996185302734375</ele>
        <time>2022-07-28T11:06:42.000Z</time>
      </trkpt>
      <trkpt lat="42.25270441733300685882568359375" lon="2.9974128305912017822265625">
        <ele>22.200000762939453125</ele>
        <time>2022-07-28T11:06:43.000Z</time>
      </trkpt>
      <trkpt lat="42.2524669580161571502685546875" lon="2.997507043182849884033203125">
        <ele>22.799999237060546875</ele>
        <time>2022-07-28T11:06:49.000Z</time>
      </trkpt>
      <trkpt lat="42.25233636796474456787109375" lon="2.99755406565964221954345703125">
        <ele>23.3999996185302734375</ele>
        <time>2022-07-28T11:06:52.000Z</time>
      </trkpt>
      <trkpt lat="42.25210829637944698333740234375" lon="2.99761290661990642547607421875">
        <ele>24</ele>
        <time>2022-07-28T11:06:57.000Z</time>
      </trkpt>
      <trkpt lat="42.25184510461986064910888671875" lon="2.99766135402023792266845703125">
        <ele>24.3999996185302734375</ele>
        <time>2022-07-28T11:07:03.000Z</time>
      </trkpt>
      <trkpt lat="42.2518101520836353302001953125" lon="2.99767225049436092376708984375">
        <ele>24.6000003814697265625</ele>
        <time>2022-07-28T11:07:04.000Z</time>
      </trkpt>
      <trkpt lat="42.25170663557946681976318359375" lon="2.997671999037265777587890625">
        <ele>25.799999237060546875</ele>
        <time>2022-07-28T11:07:07.000Z</time>
      </trkpt>
      <trkpt lat="42.2516679950058460235595703125" lon="2.9976735077798366546630859375">
        <ele>26.200000762939453125</ele>
        <time>2022-07-28T11:07:08.000Z</time>
      </trkpt>
      <trkpt lat="42.25149105302989482879638671875" lon="2.9976855777204036712646484375">
        <ele>27</ele>
        <time>2022-07-28T11:07:12.000Z</time>
      </trkpt>
      <trkpt lat="42.2513893805444240570068359375" lon="2.99769873730838298797607421875">
        <ele>27</ele>
        <time>2022-07-28T11:07:14.000Z</time>
      </trkpt>
      <trkpt lat="42.251237332820892333984375" lon="2.99770343117415904998779296875">
        <ele>27.200000762939453125</ele>
        <time>2022-07-28T11:07:17.000Z</time>
      </trkpt>
      <trkpt lat="42.2511080838739871978759765625" lon="2.99766772426664829254150390625">
        <ele>27.3999996185302734375</ele>
        <time>2022-07-28T11:07:20.000Z</time>
      </trkpt>
      <trkpt lat="42.250974141061305999755859375" lon="2.99769186414778232574462890625">
        <ele>27.3999996185302734375</ele>
        <time>2022-07-28T11:07:23.000Z</time>
      </trkpt>
      <trkpt lat="42.25092980079352855682373046875" lon="2.997710891067981719970703125">
        <ele>27.3999996185302734375</ele>
        <time>2022-07-28T11:07:24.000Z</time>
      </trkpt>
      <trkpt lat="42.25071153603494167327880859375" lon="2.99780870787799358367919921875">
        <ele>27.6000003814697265625</ele>
        <time>2022-07-28T11:07:30.000Z</time>
      </trkpt>
      <trkpt lat="42.25051783025264739990234375" lon="2.99785346724092960357666015625">
        <ele>27.799999237060546875</ele>
        <time>2022-07-28T11:07:35.000Z</time>
      </trkpt>
      <trkpt lat="42.250443063676357269287109375" lon="2.99787961877882480621337890625">
        <ele>27.799999237060546875</ele>
        <time>2022-07-28T11:07:37.000Z</time>
      </trkpt>
      <trkpt lat="42.25039989687502384185791015625" lon="2.9978894256055355072021484375">
        <ele>28</ele>
        <time>2022-07-28T11:07:38.000Z</time>
      </trkpt>
      <trkpt lat="42.25030132569372653961181640625" lon="2.99791431985795497894287109375">
        <ele>28</ele>
        <time>2022-07-28T11:07:40.000Z</time>
      </trkpt>
      <trkpt lat="42.2500003315508365631103515625" lon="2.99798489548265933990478515625">
        <ele>27.6000003814697265625</ele>
        <time>2022-07-28T11:07:45.000Z</time>
      </trkpt>
      <trkpt lat="42.249734289944171905517578125" lon="2.9980885796248912811279296875">
        <ele>27</ele>
        <time>2022-07-28T11:07:49.000Z</time>
      </trkpt>
      <trkpt lat="42.24960328079760074615478515625" lon="2.99815110862255096435546875">
        <ele>26</ele>
        <time>2022-07-28T11:07:51.000Z</time>
      </trkpt>
      <trkpt lat="42.24953748285770416259765625" lon="2.9981874860823154449462890625">
        <ele>25.3999996185302734375</ele>
        <time>2022-07-28T11:07:52.000Z</time>
      </trkpt>
      <trkpt lat="42.249348722398281097412109375" lon="2.998318411409854888916015625">
        <ele>24.3999996185302734375</ele>
        <time>2022-07-28T11:07:55.000Z</time>
      </trkpt>
      <trkpt lat="42.249291054904460906982421875" lon="2.99836358986794948577880859375">
        <ele>24</ele>
        <time>2022-07-28T11:07:56.000Z</time>
      </trkpt>
      <trkpt lat="42.2490612231194972991943359375" lon="2.99853340722620487213134765625">
        <ele>23.799999237060546875</ele>
        <time>2022-07-28T11:08:00.000Z</time>
      </trkpt>
      <trkpt lat="42.24900632165372371673583984375" lon="2.99857799895107746124267578125">
        <ele>23.799999237060546875</ele>
        <time>2022-07-28T11:08:01.000Z</time>
      </trkpt>
      <trkpt lat="42.2488945908844470977783203125" lon="2.99865947104990482330322265625">
        <ele>23.6000003814697265625</ele>
        <time>2022-07-28T11:08:03.000Z</time>
      </trkpt>
      <trkpt lat="42.2486719675362110137939453125" lon="2.99880154430866241455078125">
        <ele>23.3999996185302734375</ele>
        <time>2022-07-28T11:08:07.000Z</time>
      </trkpt>
      <trkpt lat="42.24850826896727085113525390625" lon="2.998911850154399871826171875">
        <ele>23</ele>
        <time>2022-07-28T11:08:10.000Z</time>
      </trkpt>
      <trkpt lat="42.24821188487112522125244140625" lon="2.99910999834537506103515625">
        <ele>22.799999237060546875</ele>
        <time>2022-07-28T11:08:15.000Z</time>
      </trkpt>
      <trkpt lat="42.24789136089384555816650390625" lon="2.99930068664252758026123046875">
        <ele>22</ele>
        <time>2022-07-28T11:08:20.000Z</time>
      </trkpt>
      <trkpt lat="42.24776043556630611419677734375" lon="2.9993706755340099334716796875">
        <ele>21.6000003814697265625</ele>
        <time>2022-07-28T11:08:22.000Z</time>
      </trkpt>
      <trkpt lat="42.24731150083243846893310546875" lon="2.99956706352531909942626953125">
        <ele>21.200000762939453125</ele>
        <time>2022-07-28T11:08:29.000Z</time>
      </trkpt>
      <trkpt lat="42.2467789985239505767822265625" lon="2.99979689531028270721435546875">
        <ele>21</ele>
        <time>2022-07-28T11:08:37.000Z</time>
      </trkpt>
      <trkpt lat="42.24671454168856143951416015625" lon="2.9998263157904148101806640625">
        <ele>21</ele>
        <time>2022-07-28T11:08:38.000Z</time>
      </trkpt>
      <trkpt lat="42.24658478982746601104736328125" lon="2.9998762719333171844482421875">
        <ele>20.6000003814697265625</ele>
        <time>2022-07-28T11:08:40.000Z</time>
      </trkpt>
      <trkpt lat="42.24645839072763919830322265625" lon="2.9999195225536823272705078125">
        <ele>20.6000003814697265625</ele>
        <time>2022-07-28T11:08:42.000Z</time>
      </trkpt>
      <trkpt lat="42.24626787006855010986328125" lon="2.999955900013446807861328125">
        <ele>20.6000003814697265625</ele>
        <time>2022-07-28T11:08:45.000Z</time>
      </trkpt>
      <trkpt lat="42.2458286583423614501953125" lon="3.00002203322947025299072265625">
        <ele>21</ele>
        <time>2022-07-28T11:08:52.000Z</time>
      </trkpt>
      <trkpt lat="42.24535298533737659454345703125" lon="2.99998582340776920318603515625">
        <ele>21</ele>
        <time>2022-07-28T11:08:59.000Z</time>
      </trkpt>
      <trkpt lat="42.244780920445919036865234375" lon="2.99992715008556842803955078125">
        <ele>20.3999996185302734375</ele>
        <time>2022-07-28T11:09:07.000Z</time>
      </trkpt>
      <trkpt lat="42.24456542171537876129150390625" lon="2.99993754364550113677978515625">
        <ele>20.200000762939453125</ele>
        <time>2022-07-28T11:09:10.000Z</time>
      </trkpt>
      <trkpt lat="42.24435151554644107818603515625" lon="2.99998548813164234161376953125">
        <ele>19.799999237060546875</ele>
        <time>2022-07-28T11:09:13.000Z</time>
      </trkpt>
      <trkpt lat="42.2440662793815135955810546875" lon="3.00005145370960235595703125">
        <ele>19.3999996185302734375</ele>
        <time>2022-07-28T11:09:17.000Z</time>
      </trkpt>
      <trkpt lat="42.24387357942759990692138671875" lon="2.999982722103595733642578125">
        <ele>19.200000762939453125</ele>
        <time>2022-07-28T11:09:20.000Z</time>
      </trkpt>
      <trkpt lat="42.24376671016216278076171875" lon="2.9999118112027645111083984375">
        <ele>19.200000762939453125</ele>
        <time>2022-07-28T11:09:22.000Z</time>
      </trkpt>
      <trkpt lat="42.2436069510877132415771484375" lon="2.999811731278896331787109375">
        <ele>19.3999996185302734375</ele>
        <time>2022-07-28T11:09:25.000Z</time>
      </trkpt>
      <trkpt lat="42.2434020973742008209228515625" lon="2.99973218701779842376708984375">
        <ele>20.3999996185302734375</ele>
        <time>2022-07-28T11:09:29.000Z</time>
      </trkpt>
      <trkpt lat="42.24335624836385250091552734375" lon="2.99974031746387481689453125">
        <ele>20.799999237060546875</ele>
        <time>2022-07-28T11:09:30.000Z</time>
      </trkpt>
      <trkpt lat="42.2433196194469928741455078125" lon="2.9997597634792327880859375">
        <ele>20.799999237060546875</ele>
        <time>2022-07-28T11:09:31.000Z</time>
      </trkpt>
      <trkpt lat="42.24326890893280506134033203125" lon="2.99980326555669307708740234375">
        <ele>21</ele>
        <time>2022-07-28T11:09:33.000Z</time>
      </trkpt>
      <trkpt lat="42.2432354651391506195068359375" lon="2.99982321448624134063720703125">
        <ele>21.200000762939453125</ele>
        <time>2022-07-28T11:09:35.000Z</time>
      </trkpt>
      <trkpt lat="42.243230603635311126708984375" lon="2.99982723779976367950439453125">
        <ele>21.3999996185302734375</ele>
        <time>2022-07-28T11:09:37.000Z</time>
      </trkpt>
      <trkpt lat="42.24323051981627941131591796875" lon="2.999829836189746856689453125">
        <ele>22</ele>
        <time>2022-07-28T11:09:39.000Z</time>
      </trkpt>
      <trkpt lat="42.24323571659624576568603515625" lon="2.99982338212430477142333984375">
        <ele>22.200000762939453125</ele>
        <time>2022-07-28T11:09:40.000Z</time>
      </trkpt>
      <trkpt lat="42.2432456910610198974609375" lon="2.99981047399342060089111328125">
        <ele>22.799999237060546875</ele>
        <time>2022-07-28T11:09:42.000Z</time>
      </trkpt>
      <trkpt lat="42.2432495467364788055419921875" lon="2.99980494193732738494873046875">
        <ele>23.200000762939453125</ele>
        <time>2022-07-28T11:09:43.000Z</time>
      </trkpt>
      <trkpt lat="42.24325113929808139801025390625" lon="2.99980477429926395416259765625">
        <ele>23.799999237060546875</ele>
        <time>2022-07-28T11:09:49.000Z</time>
      </trkpt>
      <trkpt lat="42.24325130693614482879638671875" lon="2.99980360083281993865966796875">
        <ele>24</ele>
        <time>2022-07-28T11:10:02.000Z</time>
      </trkpt>
      <trkpt lat="42.243251390755176544189453125" lon="2.99980334937572479248046875">
        <ele>24.200000762939453125</ele>
        <time>2022-07-28T11:10:04.000Z</time>
      </trkpt>
      <trkpt lat="42.243252731859683990478515625" lon="2.9998008348047733306884765625">
        <ele>24.200000762939453125</ele>
        <time>2022-07-28T11:10:35.000Z</time>
      </trkpt>
      <trkpt lat="42.24325172603130340576171875" lon="2.9997991584241390228271484375">
        <ele>24.200000762939453125</ele>
        <time>2022-07-28T11:11:00.000Z</time>
      </trkpt>
      <trkpt lat="42.24325533024966716766357421875" lon="2.999798320233821868896484375">
        <ele>24.200000762939453125</ele>
        <time>2022-07-28T11:11:15.000Z</time>
      </trkpt>
      <trkpt lat="42.24325750954449176788330078125" lon="2.99979773350059986114501953125">
        <ele>24</ele>
        <time>2022-07-28T11:11:33.000Z</time>
      </trkpt>
      <trkpt lat="42.24325985647737979888916015625" lon="2.99979924224317073822021484375">
        <ele>24</ele>
        <time>2022-07-28T11:11:44.000Z</time>
      </trkpt>
      <trkpt lat="42.2432699985802173614501953125" lon="2.99979471601545810699462890625">
        <ele>24</ele>
        <time>2022-07-28T11:11:49.000Z</time>
      </trkpt>
      <trkpt lat="42.24329522810876369476318359375" lon="2.9997797124087810516357421875">
        <ele>24</ele>
        <time>2022-07-28T11:11:51.000Z</time>
      </trkpt>
      <trkpt lat="42.2432995028793811798095703125" lon="2.99967619590461254119873046875">
        <ele>24</ele>
        <time>2022-07-28T11:11:55.000Z</time>
      </trkpt>
      <trkpt lat="42.24325516261160373687744140625" lon="2.99964602105319499969482421875">
        <ele>24</ele>
        <time>2022-07-28T11:11:57.000Z</time>
      </trkpt>
      <trkpt lat="42.24317855201661586761474609375" lon="2.99961048178374767303466796875">
        <ele>24</ele>
        <time>2022-07-28T11:12:00.000Z</time>
      </trkpt>
      <trkpt lat="42.24304209463298320770263671875" lon="2.999479807913303375244140625">
        <ele>24.200000762939453125</ele>
        <time>2022-07-28T11:12:06.000Z</time>
      </trkpt>
      <trkpt lat="42.24288434721529483795166015625" lon="2.99930286593735218048095703125">
        <ele>24.3999996185302734375</ele>
        <time>2022-07-28T11:12:12.000Z</time>
      </trkpt>
      <trkpt lat="42.2427084110677242279052734375" lon="2.99909080378711223602294921875">
        <ele>24.799999237060546875</ele>
        <time>2022-07-28T11:12:19.000Z</time>
      </trkpt>
      <trkpt lat="42.24251856096088886260986328125" lon="2.9988721199333667755126953125">
        <ele>25.3999996185302734375</ele>
        <time>2022-07-28T11:12:25.000Z</time>
      </trkpt>
      <trkpt lat="42.2424841113388538360595703125" lon="2.9988315515220165252685546875">
        <ele>25.3999996185302734375</ele>
        <time>2022-07-28T11:12:26.000Z</time>
      </trkpt>
      <trkpt lat="42.242192588746547698974609375" lon="2.998486049473285675048828125">
        <ele>25.3999996185302734375</ele>
        <time>2022-07-28T11:12:34.000Z</time>
      </trkpt>
      <trkpt lat="42.24183560349047183990478515625" lon="2.998047508299350738525390625">
        <ele>25.3999996185302734375</ele>
        <time>2022-07-28T11:12:43.000Z</time>
      </trkpt>
      <trkpt lat="42.2415178455412387847900390625" lon="2.99766940064728260040283203125">
        <ele>26.200000762939453125</ele>
        <time>2022-07-28T11:12:51.000Z</time>
      </trkpt>
      <trkpt lat="42.24147937260568141937255859375" lon="2.9976260662078857421875">
        <ele>26.6000003814697265625</ele>
        <time>2022-07-28T11:12:52.000Z</time>
      </trkpt>
      <trkpt lat="42.2412529774010181427001953125" lon="2.99739472568035125732421875">
        <ele>27.3999996185302734375</ele>
        <time>2022-07-28T11:12:58.000Z</time>
      </trkpt>
      <trkpt lat="42.24121098406612873077392578125" lon="2.9973560012876987457275390625">
        <ele>27.6000003814697265625</ele>
        <time>2022-07-28T11:12:59.000Z</time>
      </trkpt>
      <trkpt lat="42.2409270890057086944580078125" lon="2.99714821390807628631591796875">
        <ele>28</ele>
        <time>2022-07-28T11:13:05.000Z</time>
      </trkpt>
      <trkpt lat="42.24051997996866703033447265625" lon="2.99690580926835536956787109375">
        <ele>28</ele>
        <time>2022-07-28T11:13:13.000Z</time>
      </trkpt>
      <trkpt lat="42.24013525061309337615966796875" lon="2.9966549389064311981201171875">
        <ele>27.6000003814697265625</ele>
        <time>2022-07-28T11:13:20.000Z</time>
      </trkpt>
      <trkpt lat="42.23973375745117664337158203125" lon="2.996401973068714141845703125">
        <ele>27.200000762939453125</ele>
        <time>2022-07-28T11:13:27.000Z</time>
      </trkpt>
      <trkpt lat="42.23937048576772212982177734375" lon="2.99623022787272930145263671875">
        <ele>27</ele>
        <time>2022-07-28T11:13:33.000Z</time>
      </trkpt>
      <trkpt lat="42.2391041927039623260498046875" lon="2.99615747295320034027099609375">
        <ele>26.6000003814697265625</ele>
        <time>2022-07-28T11:13:37.000Z</time>
      </trkpt>
      <trkpt lat="42.238904200494289398193359375" lon="2.99612738192081451416015625">
        <ele>26.3999996185302734375</ele>
        <time>2022-07-28T11:13:40.000Z</time>
      </trkpt>
      <trkpt lat="42.23852776922285556793212890625" lon="2.996051609516143798828125">
        <ele>25.6000003814697265625</ele>
        <time>2022-07-28T11:13:46.000Z</time>
      </trkpt>
      <trkpt lat="42.23839768208563327789306640625" lon="2.996016405522823333740234375">
        <ele>25.3999996185302734375</ele>
        <time>2022-07-28T11:13:48.000Z</time>
      </trkpt>
      <trkpt lat="42.23780994303524494171142578125" lon="2.99580526538193225860595703125">
        <ele>24.6000003814697265625</ele>
        <time>2022-07-28T11:13:57.000Z</time>
      </trkpt>
      <trkpt lat="42.23774389363825321197509765625" lon="2.995778024196624755859375">
        <ele>24.6000003814697265625</ele>
        <time>2022-07-28T11:13:58.000Z</time>
      </trkpt>
      <trkpt lat="42.23767717368900775909423828125" lon="2.99575229175388813018798828125">
        <ele>24.6000003814697265625</ele>
        <time>2022-07-28T11:13:59.000Z</time>
      </trkpt>
      <trkpt lat="42.23714207299053668975830078125" lon="2.99558155238628387451171875">
        <ele>24</ele>
        <time>2022-07-28T11:14:07.000Z</time>
      </trkpt>
      <trkpt lat="42.2370067052543163299560546875" lon="2.99554106779396533966064453125">
        <ele>24</ele>
        <time>2022-07-28T11:14:09.000Z</time>
      </trkpt>
      <trkpt lat="42.23672800697386264801025390625" lon="2.99547920934855937957763671875">
        <ele>23.3999996185302734375</ele>
        <time>2022-07-28T11:14:13.000Z</time>
      </trkpt>
      <trkpt lat="42.2365133464336395263671875" lon="2.9954628646373748779296875">
        <ele>23</ele>
        <time>2022-07-28T11:14:16.000Z</time>
      </trkpt>
      <trkpt lat="42.23644117824733257293701171875" lon="2.995466887950897216796875">
        <ele>23</ele>
        <time>2022-07-28T11:14:17.000Z</time>
      </trkpt>
      <trkpt lat="42.2361544333398342132568359375" lon="2.9955460131168365478515625">
        <ele>22.6000003814697265625</ele>
        <time>2022-07-28T11:14:21.000Z</time>
      </trkpt>
      <trkpt lat="42.23601437173783779144287109375" lon="2.99560301005840301513671875">
        <ele>22.3999996185302734375</ele>
        <time>2022-07-28T11:14:23.000Z</time>
      </trkpt>
      <trkpt lat="42.23561639897525310516357421875" lon="2.99579990096390247344970703125">
        <ele>21.799999237060546875</ele>
        <time>2022-07-28T11:14:29.000Z</time>
      </trkpt>
      <trkpt lat="42.23548614419996738433837890625" lon="2.99585052765905857086181640625">
        <ele>21.200000762939453125</ele>
        <time>2022-07-28T11:14:31.000Z</time>
      </trkpt>
      <trkpt lat="42.23510988056659698486328125" lon="2.9959803633391857147216796875">
        <ele>21</ele>
        <time>2022-07-28T11:14:37.000Z</time>
      </trkpt>
      <trkpt lat="42.234629429876804351806640625" lon="2.996171303093433380126953125">
        <ele>21.200000762939453125</ele>
        <time>2022-07-28T11:14:45.000Z</time>
      </trkpt>
      <trkpt lat="42.2340847738087177276611328125" lon="2.9964239336550235748291015625">
        <ele>20.799999237060546875</ele>
        <time>2022-07-28T11:14:54.000Z</time>
      </trkpt>
      <trkpt lat="42.2340257652103900909423828125" lon="2.99645184539258480072021484375">
        <ele>20.799999237060546875</ele>
        <time>2022-07-28T11:14:55.000Z</time>
      </trkpt>
      <trkpt lat="42.233572639524936676025390625" lon="2.9967015422880649566650390625">
        <ele>21.200000762939453125</ele>
        <time>2022-07-28T11:15:03.000Z</time>
      </trkpt>
      <trkpt lat="42.2332464158535003662109375" lon="2.996906898915767669677734375">
        <ele>21.799999237060546875</ele>
        <time>2022-07-28T11:15:10.000Z</time>
      </trkpt>
      <trkpt lat="42.23303996957838535308837890625" lon="2.997009493410587310791015625">
        <ele>22.3999996185302734375</ele>
        <time>2022-07-28T11:15:15.000Z</time>
      </trkpt>
      <trkpt lat="42.2329495288431644439697265625" lon="2.99703958444297313690185546875">
        <ele>23.3999996185302734375</ele>
        <time>2022-07-28T11:15:17.000Z</time>
      </trkpt>
      <trkpt lat="42.23290334455668926239013671875" lon="2.9970559291541576385498046875">
        <ele>23.6000003814697265625</ele>
        <time>2022-07-28T11:15:18.000Z</time>
      </trkpt>
      <trkpt lat="42.2327597625553607940673828125" lon="2.99710798077285289764404296875">
        <ele>24.6000003814697265625</ele>
        <time>2022-07-28T11:15:21.000Z</time>
      </trkpt>
      <trkpt lat="42.23255616612732410430908203125" lon="2.99716162495315074920654296875">
        <ele>25.200000762939453125</ele>
        <time>2022-07-28T11:15:25.000Z</time>
      </trkpt>
      <trkpt lat="42.2325019352138042449951171875" lon="2.99716246314346790313720703125">
        <ele>25.200000762939453125</ele>
        <time>2022-07-28T11:15:26.000Z</time>
      </trkpt>
      <trkpt lat="42.23212801851332187652587890625" lon="2.99709188751876354217529296875">
        <ele>25.3999996185302734375</ele>
        <time>2022-07-28T11:15:33.000Z</time>
      </trkpt>
      <trkpt lat="42.23195803351700305938720703125" lon="2.99693204462528228759765625">
        <ele>25.6000003814697265625</ele>
        <time>2022-07-28T11:15:37.000Z</time>
      </trkpt>
      <trkpt lat="42.2319160401821136474609375" lon="2.99688569270074367523193359375">
        <ele>25.6000003814697265625</ele>
        <time>2022-07-28T11:15:38.000Z</time>
      </trkpt>
      <trkpt lat="42.2317643277347087860107421875" lon="2.996833138167858123779296875">
        <ele>25.6000003814697265625</ele>
        <time>2022-07-28T11:15:41.000Z</time>
      </trkpt>
      <trkpt lat="42.231648154556751251220703125" lon="2.99696959555149078369140625">
        <ele>25.200000762939453125</ele>
        <time>2022-07-28T11:15:44.000Z</time>
      </trkpt>
      <trkpt lat="42.2316442988812923431396484375" lon="2.9972695000469684600830078125">
        <ele>25</ele>
        <time>2022-07-28T11:15:48.000Z</time>
      </trkpt>
      <trkpt lat="42.2316491603851318359375" lon="2.997349463403224945068359375">
        <ele>24.799999237060546875</ele>
        <time>2022-07-28T11:15:49.000Z</time>
      </trkpt>
      <trkpt lat="42.23162409849464893341064453125" lon="2.99759195186197757720947265625">
        <ele>24</ele>
        <time>2022-07-28T11:15:52.000Z</time>
      </trkpt>
      <trkpt lat="42.23153726197779178619384765625" lon="2.99781641922891139984130859375">
        <ele>23.6000003814697265625</ele>
        <time>2022-07-28T11:15:55.000Z</time>
      </trkpt>
      <trkpt lat="42.23149669356644153594970703125" lon="2.99788397736847400665283203125">
        <ele>23.3999996185302734375</ele>
        <time>2022-07-28T11:15:56.000Z</time>
      </trkpt>
      <trkpt lat="42.2312910854816436767578125" lon="2.99808673560619354248046875">
        <ele>23.200000762939453125</ele>
        <time>2022-07-28T11:16:00.000Z</time>
      </trkpt>
      <trkpt lat="42.23123140633106231689453125" lon="2.9981214366853237152099609375">
        <ele>23.200000762939453125</ele>
        <time>2022-07-28T11:16:01.000Z</time>
      </trkpt>
      <trkpt lat="42.230874337255954742431640625" lon="2.99836023710668087005615234375">
        <ele>23.200000762939453125</ele>
        <time>2022-07-28T11:16:07.000Z</time>
      </trkpt>
      <trkpt lat="42.230459935963153839111328125" lon="2.998634241521358489990234375">
        <ele>23</ele>
        <time>2022-07-28T11:16:14.000Z</time>
      </trkpt>
      <trkpt lat="42.23014351911842823028564453125" lon="2.998793832957744598388671875">
        <ele>23.200000762939453125</ele>
        <time>2022-07-28T11:16:20.000Z</time>
      </trkpt>
      <trkpt lat="42.2297952510416507720947265625" lon="2.99890405498445034027099609375">
        <ele>24.799999237060546875</ele>
        <time>2022-07-28T11:16:27.000Z</time>
      </trkpt>
      <trkpt lat="42.22948302514851093292236328125" lon="2.99893355928361415863037109375">
        <ele>25.6000003814697265625</ele>
        <time>2022-07-28T11:16:33.000Z</time>
      </trkpt>
      <trkpt lat="42.229447066783905029296875" lon="2.99892199225723743438720703125">
        <ele>25.6000003814697265625</ele>
        <time>2022-07-28T11:16:34.000Z</time>
      </trkpt>
      <trkpt lat="42.22933215089142322540283203125" lon="2.99881336279213428497314453125">
        <ele>26</ele>
        <time>2022-07-28T11:16:38.000Z</time>
      </trkpt>
      <trkpt lat="42.229296527802944183349609375" lon="2.99877447076141834259033203125">
        <ele>26.200000762939453125</ele>
        <time>2022-07-28T11:16:39.000Z</time>
      </trkpt>
      <trkpt lat="42.2292138822376728057861328125" lon="2.9986860416829586029052734375">
        <ele>26.200000762939453125</ele>
        <time>2022-07-28T11:16:41.000Z</time>
      </trkpt>
      <trkpt lat="42.2291424684226512908935546875" lon="2.998553775250911712646484375">
        <ele>26.3999996185302734375</ele>
        <time>2022-07-28T11:16:43.000Z</time>
      </trkpt>
      <trkpt lat="42.22899385727941989898681640625" lon="2.9981358535587787628173828125">
        <ele>27</ele>
        <time>2022-07-28T11:16:49.000Z</time>
      </trkpt>
      <trkpt lat="42.2288863174617290496826171875" lon="2.99791348166763782501220703125">
        <ele>27.6000003814697265625</ele>
        <time>2022-07-28T11:16:54.000Z</time>
      </trkpt>
      <trkpt lat="42.228864692151546478271484375" lon="2.9978783614933490753173828125">
        <ele>28.200000762939453125</ele>
        <time>2022-07-28T11:16:55.000Z</time>
      </trkpt>
      <trkpt lat="42.2288038395345211029052734375" lon="2.997776605188846588134765625">
        <ele>29.3999996185302734375</ele>
        <time>2022-07-28T11:16:58.000Z</time>
      </trkpt>
      <trkpt lat="42.22874139435589313507080078125" lon="2.997683398425579071044921875">
        <ele>30.799999237060546875</ele>
        <time>2022-07-28T11:17:01.000Z</time>
      </trkpt>
      <trkpt lat="42.22872395999729633331298828125" lon="2.9976527206599712371826171875">
        <ele>31</ele>
        <time>2022-07-28T11:17:02.000Z</time>
      </trkpt>
      <trkpt lat="42.2287042625248432159423828125" lon="2.99754233099520206451416015625">
        <ele>32.200000762939453125</ele>
        <time>2022-07-28T11:17:06.000Z</time>
      </trkpt>
      <trkpt lat="42.2286509536206722259521484375" lon="2.997360862791538238525390625">
        <ele>32.799999237060546875</ele>
        <time>2022-07-28T11:19:46.000Z</time>
      </trkpt>
      <trkpt lat="42.22860594280064105987548828125" lon="2.99730487167835235595703125">
        <ele>32.799999237060546875</ele>
        <time>2022-07-28T11:19:48.000Z</time>
      </trkpt>
      <trkpt lat="42.2284667193889617919921875" lon="2.99726187251508235931396484375">
        <ele>32.59999847412109375</ele>
        <time>2022-07-28T11:19:52.000Z</time>
      </trkpt>
      <trkpt lat="42.2282682359218597412109375" lon="2.99722180701792240142822265625">
        <ele>32.59999847412109375</ele>
        <time>2022-07-28T11:19:57.000Z</time>
      </trkpt>
      <trkpt lat="42.22819782793521881103515625" lon="2.99716983921825885772705078125">
        <ele>32.59999847412109375</ele>
        <time>2022-07-28T11:19:59.000Z</time>
      </trkpt>
      <trkpt lat="42.228107638657093048095703125" lon="2.997100017964839935302734375">
        <ele>32.799999237060546875</ele>
        <time>2022-07-28T11:20:02.000Z</time>
      </trkpt>
      <trkpt lat="42.22800604999065399169921875" lon="2.99691771157085895538330078125">
        <ele>32.40000152587890625</ele>
        <time>2022-07-28T11:20:07.000Z</time>
      </trkpt>
      <trkpt lat="42.227982245385646820068359375" lon="2.99686557613313198089599609375">
        <ele>32.40000152587890625</ele>
        <time>2022-07-28T11:20:08.000Z</time>
      </trkpt>
      <trkpt lat="42.22789968363940715789794921875" lon="2.996782846748828887939453125">
        <ele>32.200000762939453125</ele>
        <time>2022-07-28T11:20:10.000Z</time>
      </trkpt>
      <trkpt lat="42.22774730063974857330322265625" lon="2.9968386702239513397216796875">
        <ele>32.200000762939453125</ele>
        <time>2022-07-28T11:20:13.000Z</time>
      </trkpt>
      <trkpt lat="42.227719724178314208984375" lon="2.997076548635959625244140625">
        <ele>32</ele>
        <time>2022-07-28T11:20:16.000Z</time>
      </trkpt>
      <trkpt lat="42.22772986628115177154541015625" lon="2.99715760163962841033935546875">
        <ele>32</ele>
        <time>2022-07-28T11:20:17.000Z</time>
      </trkpt>
      <trkpt lat="42.2277457080781459808349609375" lon="2.99731903709471225738525390625">
        <ele>30.799999237060546875</ele>
        <time>2022-07-28T11:20:19.000Z</time>
      </trkpt>
      <trkpt lat="42.22773120738565921783447265625" lon="2.9974803887307643890380859375">
        <ele>29.799999237060546875</ele>
        <time>2022-07-28T11:20:21.000Z</time>
      </trkpt>
      <trkpt lat="42.2277125157415866851806640625" lon="2.99756227992475032806396484375">
        <ele>29.3999996185302734375</ele>
        <time>2022-07-28T11:20:22.000Z</time>
      </trkpt>
      <trkpt lat="42.22768896259367465972900390625" lon="2.997647188603878021240234375">
        <ele>29.3999996185302734375</ele>
        <time>2022-07-28T11:20:23.000Z</time>
      </trkpt>
      <trkpt lat="42.22759701311588287353515625" lon="2.99792848527431488037109375">
        <ele>29</ele>
        <time>2022-07-28T11:20:26.000Z</time>
      </trkpt>
      <trkpt lat="42.22748595289885997772216796875" lon="2.99826066009700298309326171875">
        <ele>28.200000762939453125</ele>
        <time>2022-07-28T11:20:29.000Z</time>
      </trkpt>
      <trkpt lat="42.22740632481873035430908203125" lon="2.9985056631267070770263671875">
        <ele>26.799999237060546875</ele>
        <time>2022-07-28T11:20:31.000Z</time>
      </trkpt>
      <trkpt lat="42.2273644991219043731689453125" lon="2.99862879328429698944091796875">
        <ele>25.200000762939453125</ele>
        <time>2022-07-28T11:20:32.000Z</time>
      </trkpt>
      <trkpt lat="42.22728210501372814178466796875" lon="2.99886533059179782867431640625">
        <ele>23.799999237060546875</ele>
        <time>2022-07-28T11:20:34.000Z</time>
      </trkpt>
      <trkpt lat="42.227201722562313079833984375" lon="2.9990833438932895660400390625">
        <ele>22.3999996185302734375</ele>
        <time>2022-07-28T11:20:36.000Z</time>
      </trkpt>
      <trkpt lat="42.22716157324612140655517578125" lon="2.99918535165488719940185546875">
        <ele>21</ele>
        <time>2022-07-28T11:20:37.000Z</time>
      </trkpt>
      <trkpt lat="42.22712083719670772552490234375" lon="2.999281994998455047607421875">
        <ele>19.6000003814697265625</ele>
        <time>2022-07-28T11:20:38.000Z</time>
      </trkpt>
      <trkpt lat="42.22703785635530948638916015625" lon="2.99946648068726062774658203125">
        <ele>18.3999996185302734375</ele>
        <time>2022-07-28T11:20:40.000Z</time>
      </trkpt>
      <trkpt lat="42.2268793545663356781005859375" lon="2.99981952644884586334228515625">
        <ele>17.799999237060546875</ele>
        <time>2022-07-28T11:20:44.000Z</time>
      </trkpt>
      <trkpt lat="42.22660836763679981231689453125" lon="3.000394441187381744384765625">
        <ele>18</ele>
        <time>2022-07-28T11:20:51.000Z</time>
      </trkpt>
      <trkpt lat="42.226315252482891082763671875" lon="3.00104429014027118682861328125">
        <ele>18.3999996185302734375</ele>
        <time>2022-07-28T11:20:59.000Z</time>
      </trkpt>
      <trkpt lat="42.22616672515869140625" lon="3.00137068144977092742919921875">
        <ele>18.3999996185302734375</ele>
        <time>2022-07-28T11:21:03.000Z</time>
      </trkpt>
      <trkpt lat="42.225879728794097900390625" lon="3.0020039342343807220458984375">
        <ele>18.200000762939453125</ele>
        <time>2022-07-28T11:21:11.000Z</time>
      </trkpt>
      <trkpt lat="42.22580663859844207763671875" lon="3.00215388648211956024169921875">
        <ele>18</ele>
        <time>2022-07-28T11:21:13.000Z</time>
      </trkpt>
      <trkpt lat="42.22549089230597019195556640625" lon="3.0028193257749080657958984375">
        <ele>17.799999237060546875</ele>
        <time>2022-07-28T11:21:22.000Z</time>
      </trkpt>
      <trkpt lat="42.22517774440348148345947265625" lon="3.00348510034382343292236328125">
        <ele>17.3999996185302734375</ele>
        <time>2022-07-28T11:21:31.000Z</time>
      </trkpt>
      <trkpt lat="42.22507280297577381134033203125" lon="3.00370906479656696319580078125">
        <ele>17.6000003814697265625</ele>
        <time>2022-07-28T11:21:34.000Z</time>
      </trkpt>
      <trkpt lat="42.2247781790792942047119140625" lon="3.00433334894478321075439453125">
        <ele>17.3999996185302734375</ele>
        <time>2022-07-28T11:21:42.000Z</time>
      </trkpt>
      <trkpt lat="42.22470584325492382049560546875" lon="3.0044893361628055572509765625">
        <ele>17</ele>
        <time>2022-07-28T11:21:44.000Z</time>
      </trkpt>
      <trkpt lat="42.2246698848903179168701171875" lon="3.00456670112907886505126953125">
        <ele>17</ele>
        <time>2022-07-28T11:21:45.000Z</time>
      </trkpt>
      <trkpt lat="42.22434743307530879974365234375" lon="3.005255945026874542236328125">
        <ele>16.799999237060546875</ele>
        <time>2022-07-28T11:21:54.000Z</time>
      </trkpt>
      <trkpt lat="42.22424383275210857391357421875" lon="3.00547781400382518768310546875">
        <ele>16.799999237060546875</ele>
        <time>2022-07-28T11:21:57.000Z</time>
      </trkpt>
      <trkpt lat="42.22393370233476161956787109375" lon="3.0061345361173152923583984375">
        <ele>16.3999996185302734375</ele>
        <time>2022-07-28T11:22:06.000Z</time>
      </trkpt>
      <trkpt lat="42.22383127547800540924072265625" lon="3.00634718500077724456787109375">
        <ele>16.3999996185302734375</ele>
        <time>2022-07-28T11:22:09.000Z</time>
      </trkpt>
      <trkpt lat="42.22366648726165294647216796875" lon="3.00669419579207897186279296875">
        <ele>16</ele>
        <time>2022-07-28T11:22:14.000Z</time>
      </trkpt>
      <trkpt lat="42.223409079015254974365234375" lon="3.00723432563245296478271484375">
        <ele>15.6000003814697265625</ele>
        <time>2022-07-28T11:22:22.000Z</time>
      </trkpt>
      <trkpt lat="42.22309358417987823486328125" lon="3.0079074762761592864990234375">
        <ele>15.80000019073486328125</ele>
        <time>2022-07-28T11:22:32.000Z</time>
      </trkpt>
      <trkpt lat="42.22303013317286968231201171875" lon="3.00804368220269680023193359375">
        <ele>16</ele>
        <time>2022-07-28T11:22:34.000Z</time>
      </trkpt>
      <trkpt lat="42.22270860336720943450927734375" lon="3.00872311927378177642822265625">
        <ele>16</ele>
        <time>2022-07-28T11:22:44.000Z</time>
      </trkpt>
      <trkpt lat="42.222677506506443023681640625" lon="3.00879084505140781402587890625">
        <ele>16</ele>
        <time>2022-07-28T11:22:45.000Z</time>
      </trkpt>
      <trkpt lat="42.2223605029284954071044921875" lon="3.00946759991347789764404296875">
        <ele>15.3999996185302734375</ele>
        <time>2022-07-28T11:22:55.000Z</time>
      </trkpt>
      <trkpt lat="42.22230006940662860870361328125" lon="3.00959802232682704925537109375">
        <ele>15.3999996185302734375</ele>
        <time>2022-07-28T11:22:57.000Z</time>
      </trkpt>
      <trkpt lat="42.22221876494586467742919921875" lon="3.009790889918804168701171875">
        <ele>15</ele>
        <time>2022-07-28T11:23:00.000Z</time>
      </trkpt>
      <trkpt lat="42.22216285765171051025390625" lon="3.00990044139325618743896484375">
        <ele>14.6000003814697265625</ele>
        <time>2022-07-28T11:23:02.000Z</time>
      </trkpt>
      <trkpt lat="42.222092784941196441650390625" lon="3.01004745997488498687744140625">
        <ele>14.6000003814697265625</ele>
        <time>2022-07-28T11:23:05.000Z</time>
      </trkpt>
      <trkpt lat="42.22203285433351993560791015625" lon="3.01017620600759983062744140625">
        <ele>14.6000003814697265625</ele>
        <time>2022-07-28T11:23:08.000Z</time>
      </trkpt>
      <trkpt lat="42.2218394838273525238037109375" lon="3.0105464346706867218017578125">
        <ele>14.80000019073486328125</ele>
        <time>2022-07-28T11:23:16.000Z</time>
      </trkpt>
      <trkpt lat="42.2217080555856227874755859375" lon="3.01080686040222644805908203125">
        <ele>15.19999980926513671875</ele>
        <time>2022-07-28T11:23:21.000Z</time>
      </trkpt>
      <trkpt lat="42.22162364982068538665771484375" lon="3.01096259616315364837646484375">
        <ele>15.19999980926513671875</ele>
        <time>2022-07-28T11:23:24.000Z</time>
      </trkpt>
      <trkpt lat="42.221367247402667999267578125" lon="3.0114882253110408782958984375">
        <ele>14.80000019073486328125</ele>
        <time>2022-07-28T11:23:34.000Z</time>
      </trkpt>
      <trkpt lat="42.22112484276294708251953125" lon="3.011958785355091094970703125">
        <ele>14.6000003814697265625</ele>
        <time>2022-07-28T11:23:43.000Z</time>
      </trkpt>
      <trkpt lat="42.22091018222272396087646484375" lon="3.0124015174806118011474609375">
        <ele>14.6000003814697265625</ele>
        <time>2022-07-28T11:23:51.000Z</time>
      </trkpt>
      <trkpt lat="42.22076970152556896209716796875" lon="3.012702763080596923828125">
        <ele>14.6000003814697265625</ele>
        <time>2022-07-28T11:23:57.000Z</time>
      </trkpt>
      <trkpt lat="42.2207478247582912445068359375" lon="3.0127555690705776214599609375">
        <ele>14.6000003814697265625</ele>
        <time>2022-07-28T11:23:58.000Z</time>
      </trkpt>
      <trkpt lat="42.22063533961772918701171875" lon="3.01304717548191547393798828125">
        <ele>14.6000003814697265625</ele>
        <time>2022-07-28T11:24:03.000Z</time>
      </trkpt>
      <trkpt lat="42.220351360738277435302734375" lon="3.01365033723413944244384765625">
        <ele>14.6000003814697265625</ele>
        <time>2022-07-28T11:24:13.000Z</time>
      </trkpt>
      <trkpt lat="42.2201490215957164764404296875" lon="3.01406758837401866912841796875">
        <ele>14.6000003814697265625</ele>
        <time>2022-07-28T11:24:20.000Z</time>
      </trkpt>
      <trkpt lat="42.21993528306484222412109375" lon="3.014473356306552886962890625">
        <ele>14.19999980926513671875</ele>
        <time>2022-07-28T11:24:27.000Z</time>
      </trkpt>
      <trkpt lat="42.21980377100408077239990234375" lon="3.01475540734827518463134765625">
        <ele>13.80000019073486328125</ele>
        <time>2022-07-28T11:24:33.000Z</time>
      </trkpt>
      <trkpt lat="42.2197768650949001312255859375" lon="3.01480620168149471282958984375">
        <ele>13.6000003814697265625</ele>
        <time>2022-07-28T11:24:34.000Z</time>
      </trkpt>
      <trkpt lat="42.21960671246051788330078125" lon="3.015155307948589324951171875">
        <ele>13.19999980926513671875</ele>
        <time>2022-07-28T11:24:40.000Z</time>
      </trkpt>
      <trkpt lat="42.2193104960024356842041015625" lon="3.0157961882650852203369140625">
        <ele>12.80000019073486328125</ele>
        <time>2022-07-28T11:24:50.000Z</time>
      </trkpt>
      <trkpt lat="42.2192223183810710906982421875" lon="3.01599475555121898651123046875">
        <ele>12.6000003814697265625</ele>
        <time>2022-07-28T11:24:53.000Z</time>
      </trkpt>
      <trkpt lat="42.21898217685520648956298828125" lon="3.01652231253683567047119140625">
        <ele>12.19999980926513671875</ele>
        <time>2022-07-28T11:25:01.000Z</time>
      </trkpt>
      <trkpt lat="42.21868093125522136688232421875" lon="3.017187751829624176025390625">
        <ele>12</ele>
        <time>2022-07-28T11:25:11.000Z</time>
      </trkpt>
      <trkpt lat="42.218651510775089263916015625" lon="3.01725447177886962890625">
        <ele>12</ele>
        <time>2022-07-28T11:25:12.000Z</time>
      </trkpt>
      <trkpt lat="42.21836476586759090423583984375" lon="3.0178581364452838897705078125">
        <ele>11.80000019073486328125</ele>
        <time>2022-07-28T11:25:21.000Z</time>
      </trkpt>
      <trkpt lat="42.2180545516312122344970703125" lon="3.018516115844249725341796875">
        <ele>11.6000003814697265625</ele>
        <time>2022-07-28T11:25:31.000Z</time>
      </trkpt>
      <trkpt lat="42.21799411810934543609619140625" lon="3.018645532429218292236328125">
        <ele>11.6000003814697265625</ele>
        <time>2022-07-28T11:25:33.000Z</time>
      </trkpt>
      <trkpt lat="42.2176761925220489501953125" lon="3.01931533031165599822998046875">
        <ele>11.3999996185302734375</ele>
        <time>2022-07-28T11:25:43.000Z</time>
      </trkpt>
      <trkpt lat="42.21739749424159526824951171875" lon="3.0198992975056171417236328125">
        <ele>12.19999980926513671875</ele>
        <time>2022-07-28T11:25:51.000Z</time>
      </trkpt>
      <trkpt lat="42.21708619035780429840087890625" lon="3.0206003598868846893310546875">
        <ele>12</ele>
        <time>2022-07-28T11:26:00.000Z</time>
      </trkpt>
      <trkpt lat="42.216816879808902740478515625" lon="3.02120863460004329681396484375">
        <ele>10.6000003814697265625</ele>
        <time>2022-07-28T11:26:08.000Z</time>
      </trkpt>
      <trkpt lat="42.216710262000560760498046875" lon="3.021433353424072265625">
        <ele>10.3999996185302734375</ele>
        <time>2022-07-28T11:26:11.000Z</time>
      </trkpt>
      <trkpt lat="42.21639568917453289031982421875" lon="3.0220998823642730712890625">
        <ele>9.80000019073486328125</ele>
        <time>2022-07-28T11:26:20.000Z</time>
      </trkpt>
      <trkpt lat="42.21632779575884342193603515625" lon="3.0222452245652675628662109375">
        <ele>9.6000003814697265625</ele>
        <time>2022-07-28T11:26:22.000Z</time>
      </trkpt>
      <trkpt lat="42.21629552543163299560546875" lon="3.02231806330382823944091796875">
        <ele>9.3999996185302734375</ele>
        <time>2022-07-28T11:26:23.000Z</time>
      </trkpt>
      <trkpt lat="42.21602261066436767578125" lon="3.02289088256657123565673828125">
        <ele>8.6000003814697265625</ele>
        <time>2022-07-28T11:26:31.000Z</time>
      </trkpt>
      <trkpt lat="42.2159191779792308807373046875" lon="3.023108728229999542236328125">
        <ele>8.3999996185302734375</ele>
        <time>2022-07-28T11:26:34.000Z</time>
      </trkpt>
      <trkpt lat="42.2156127355992794036865234375" lon="3.02375706844031810760498046875">
        <ele>7.80000019073486328125</ele>
        <time>2022-07-28T11:26:43.000Z</time>
      </trkpt>
      <trkpt lat="42.21530537120997905731201171875" lon="3.02440616302192211151123046875">
        <ele>7.80000019073486328125</ele>
        <time>2022-07-28T11:26:52.000Z</time>
      </trkpt>
      <trkpt lat="42.21527100540697574615478515625" lon="3.02447967231273651123046875">
        <ele>7.80000019073486328125</ele>
        <time>2022-07-28T11:26:53.000Z</time>
      </trkpt>
      <trkpt lat="42.21499909646809101104736328125" lon="3.02505902945995330810546875">
        <ele>8</ele>
        <time>2022-07-28T11:27:01.000Z</time>
      </trkpt>
      <trkpt lat="42.21469047479331493377685546875" lon="3.02571625448763370513916015625">
        <ele>7.80000019073486328125</ele>
        <time>2022-07-28T11:27:10.000Z</time>
      </trkpt>
      <trkpt lat="42.2143869660794734954833984375" lon="3.02636199630796909332275390625">
        <ele>7.599999904632568359375</ele>
        <time>2022-07-28T11:27:19.000Z</time>
      </trkpt>
      <trkpt lat="42.21435352228581905364990234375" lon="3.02643240429461002349853515625">
        <ele>7.599999904632568359375</ele>
        <time>2022-07-28T11:27:20.000Z</time>
      </trkpt>
      <trkpt lat="42.21418621949851512908935546875" lon="3.026784695684909820556640625">
        <ele>7.400000095367431640625</ele>
        <time>2022-07-28T11:27:25.000Z</time>
      </trkpt>
      <trkpt lat="42.21398035995662212371826171875" lon="3.02722013555467128753662109375">
        <ele>7.19999980926513671875</ele>
        <time>2022-07-28T11:27:31.000Z</time>
      </trkpt>
      <trkpt lat="42.2136620990931987762451171875" lon="3.02788934670388698577880859375">
        <ele>7.599999904632568359375</ele>
        <time>2022-07-28T11:27:40.000Z</time>
      </trkpt>
      <trkpt lat="42.213592529296875" lon="3.0280384607613086700439453125">
        <ele>7.599999904632568359375</ele>
        <time>2022-07-28T11:27:42.000Z</time>
      </trkpt>
      <trkpt lat="42.2132916189730167388916015625" lon="3.02868227474391460418701171875">
        <ele>6.19999980926513671875</ele>
        <time>2022-07-28T11:27:51.000Z</time>
      </trkpt>
      <trkpt lat="42.21319413743913173675537109375" lon="3.028888218104839324951171875">
        <ele>6</ele>
        <time>2022-07-28T11:27:54.000Z</time>
      </trkpt>
      <trkpt lat="42.21299909055233001708984375" lon="3.02928124554455280303955078125">
        <ele>5</ele>
        <time>2022-07-28T11:28:00.000Z</time>
      </trkpt>
      <trkpt lat="42.212903536856174468994140625" lon="3.02947838790714740753173828125">
        <ele>4.80000019073486328125</ele>
        <time>2022-07-28T11:28:03.000Z</time>
      </trkpt>
      <trkpt lat="42.21256683580577373504638671875" lon="3.03011105395853519439697265625">
        <ele>4.599999904632568359375</ele>
        <time>2022-07-28T11:28:13.000Z</time>
      </trkpt>
      <trkpt lat="42.212531380355358123779296875" lon="3.03017592988908290863037109375">
        <ele>4.599999904632568359375</ele>
        <time>2022-07-28T11:28:14.000Z</time>
      </trkpt>
      <trkpt lat="42.21219819970428943634033203125" lon="3.03076408803462982177734375">
        <ele>4.599999904632568359375</ele>
        <time>2022-07-28T11:28:23.000Z</time>
      </trkpt>
      <trkpt lat="42.212159894406795501708984375" lon="3.03082871250808238983154296875">
        <ele>4.599999904632568359375</ele>
        <time>2022-07-28T11:28:24.000Z</time>
      </trkpt>
      <trkpt lat="42.21180760301649570465087890625" lon="3.03140647709369659423828125">
        <ele>5</ele>
        <time>2022-07-28T11:28:33.000Z</time>
      </trkpt>
      <trkpt lat="42.21168749034404754638671875" lon="3.03159683011472225189208984375">
        <ele>5.19999980926513671875</ele>
        <time>2022-07-28T11:28:36.000Z</time>
      </trkpt>
      <trkpt lat="42.2113959677517414093017578125" lon="3.0320480279624462127685546875">
        <ele>6</ele>
        <time>2022-07-28T11:28:43.000Z</time>
      </trkpt>
      <trkpt lat="42.2112253122031688690185546875" lon="3.0322998203337192535400390625">
        <ele>6.599999904632568359375</ele>
        <time>2022-07-28T11:28:47.000Z</time>
      </trkpt>
      <trkpt lat="42.2108226455748081207275390625" lon="3.03284573368728160858154296875">
        <ele>6.80000019073486328125</ele>
        <time>2022-07-28T11:28:56.000Z</time>
      </trkpt>
      <trkpt lat="42.210640422999858856201171875" lon="3.03308864124119281768798828125">
        <ele>6.599999904632568359375</ele>
        <time>2022-07-28T11:29:00.000Z</time>
      </trkpt>
      <trkpt lat="42.21038100309669971466064453125" lon="3.0334139429032802581787109375">
        <ele>7</ele>
        <time>2022-07-28T11:29:06.000Z</time>
      </trkpt>
      <trkpt lat="42.21033926121890544891357421875" lon="3.0334649048745632171630859375">
        <ele>7.19999980926513671875</ele>
        <time>2022-07-28T11:29:07.000Z</time>
      </trkpt>
      <trkpt lat="42.2100414521992206573486328125" lon="3.03384058177471160888671875">
        <ele>7</ele>
        <time>2022-07-28T11:29:14.000Z</time>
      </trkpt>
      <trkpt lat="42.20968111418187618255615234375" lon="3.034251630306243896484375">
        <ele>6</ele>
        <time>2022-07-28T11:29:22.000Z</time>
      </trkpt>
      <trkpt lat="42.2092441655695438385009765625" lon="3.03473551757633686065673828125">
        <ele>6.19999980926513671875</ele>
        <time>2022-07-28T11:29:31.000Z</time>
      </trkpt>
      <trkpt lat="42.2088934667408466339111328125" lon="3.03510122001171112060546875">
        <ele>6.400000095367431640625</ele>
        <time>2022-07-28T11:29:38.000Z</time>
      </trkpt>
      <trkpt lat="42.20842701382935047149658203125" lon="3.03556582890450954437255859375">
        <ele>6</ele>
        <time>2022-07-28T11:29:47.000Z</time>
      </trkpt>
      <trkpt lat="42.2080592997372150421142578125" lon="3.03592792712152004241943359375">
        <ele>6</ele>
        <time>2022-07-28T11:29:54.000Z</time>
      </trkpt>
      <trkpt lat="42.2075966186821460723876953125" lon="3.036389686167240142822265625">
        <ele>5.599999904632568359375</ele>
        <time>2022-07-28T11:30:03.000Z</time>
      </trkpt>
      <trkpt lat="42.2075443156063556671142578125" lon="3.036439977586269378662109375">
        <ele>5.599999904632568359375</ele>
        <time>2022-07-28T11:30:04.000Z</time>
      </trkpt>
      <trkpt lat="42.2071238793432712554931640625" lon="3.03685211576521396636962890625">
        <ele>5.599999904632568359375</ele>
        <time>2022-07-28T11:30:12.000Z</time>
      </trkpt>
      <trkpt lat="42.20665357075631618499755859375" lon="3.0373232625424861907958984375">
        <ele>5.80000019073486328125</ele>
        <time>2022-07-28T11:30:21.000Z</time>
      </trkpt>
      <trkpt lat="42.2061613015830516815185546875" lon="3.03778703324496746063232421875">
        <ele>5.80000019073486328125</ele>
        <time>2022-07-28T11:30:30.000Z</time>
      </trkpt>
      <trkpt lat="42.20569266937673091888427734375" lon="3.03813572041690349578857421875">
        <ele>5.599999904632568359375</ele>
        <time>2022-07-28T11:30:38.000Z</time>
      </trkpt>
      <trkpt lat="42.20514466054737567901611328125" lon="3.038412742316722869873046875">
        <ele>5.19999980926513671875</ele>
        <time>2022-07-28T11:30:47.000Z</time>
      </trkpt>
      <trkpt lat="42.20458609052002429962158203125" lon="3.03857560269534587860107421875">
        <ele>5.400000095367431640625</ele>
        <time>2022-07-28T11:30:56.000Z</time>
      </trkpt>
      <trkpt lat="42.2045218013226985931396484375" lon="3.03858750499784946441650390625">
        <ele>5.400000095367431640625</ele>
        <time>2022-07-28T11:30:57.000Z</time>
      </trkpt>
      <trkpt lat="42.2039920650422573089599609375" lon="3.03862270899116992950439453125">
        <ele>7</ele>
        <time>2022-07-28T11:31:05.000Z</time>
      </trkpt>
      <trkpt lat="42.20371856354176998138427734375" lon="3.03861047141253948211669921875">
        <ele>8</ele>
        <time>2022-07-28T11:31:09.000Z</time>
      </trkpt>
      <trkpt lat="42.20337222330272197723388671875" lon="3.03857468068599700927734375">
        <ele>8.3999996185302734375</ele>
        <time>2022-07-28T11:31:14.000Z</time>
      </trkpt>
      <trkpt lat="42.2028316743671894073486328125" lon="3.03849128074944019317626953125">
        <ele>8.3999996185302734375</ele>
        <time>2022-07-28T11:31:22.000Z</time>
      </trkpt>
      <trkpt lat="42.2027025930583477020263671875" lon="3.03847082890570163726806640625">
        <ele>8.3999996185302734375</ele>
        <time>2022-07-28T11:31:24.000Z</time>
      </trkpt>
      <trkpt lat="42.2021420113742351531982421875" lon="3.03838281892240047454833984375">
        <ele>8.6000003814697265625</ele>
        <time>2022-07-28T11:31:33.000Z</time>
      </trkpt>
      <trkpt lat="42.201956100761890411376953125" lon="3.03835348226130008697509765625">
        <ele>9</ele>
        <time>2022-07-28T11:31:36.000Z</time>
      </trkpt>
      <trkpt lat="42.201771698892116546630859375" lon="3.03832364268600940704345703125">
        <ele>10.19999980926513671875</ele>
        <time>2022-07-28T11:31:39.000Z</time>
      </trkpt>
      <trkpt lat="42.20164974220097064971923828125" lon="3.0383079685270786285400390625">
        <ele>10.3999996185302734375</ele>
        <time>2022-07-28T11:31:41.000Z</time>
      </trkpt>
      <trkpt lat="42.201170884072780609130859375" lon="3.0382365547120571136474609375">
        <ele>11.19999980926513671875</ele>
        <time>2022-07-28T11:31:49.000Z</time>
      </trkpt>
      <trkpt lat="42.20105378888547420501708984375" lon="3.03821417503058910369873046875">
        <ele>11.19999980926513671875</ele>
        <time>2022-07-28T11:31:51.000Z</time>
      </trkpt>
      <trkpt lat="42.20050008036196231842041015625" lon="3.03812029771506786346435546875">
        <ele>11.3999996185302734375</ele>
        <time>2022-07-28T11:32:01.000Z</time>
      </trkpt>
      <trkpt lat="42.20044576562941074371337890625" lon="3.03810923360288143157958984375">
        <ele>11.3999996185302734375</ele>
        <time>2022-07-28T11:32:02.000Z</time>
      </trkpt>
      <trkpt lat="42.19997554086148738861083984375" lon="3.0380161106586456298828125">
        <ele>12.19999980926513671875</ele>
        <time>2022-07-28T11:32:11.000Z</time>
      </trkpt>
      <trkpt lat="42.19992508180439472198486328125" lon="3.03800529800355434417724609375">
        <ele>12.19999980926513671875</ele>
        <time>2022-07-28T11:32:12.000Z</time>
      </trkpt>
      <trkpt lat="42.19953984953463077545166015625" lon="3.03797009401023387908935546875">
        <ele>12.6000003814697265625</ele>
        <time>2022-07-28T11:32:20.000Z</time>
      </trkpt>
      <trkpt lat="42.19945183955132961273193359375" lon="3.03796984255313873291015625">
        <ele>12.6000003814697265625</ele>
        <time>2022-07-28T11:32:22.000Z</time>
      </trkpt>
      <trkpt lat="42.19919107854366302490234375" lon="3.03800068795680999755859375">
        <ele>15.3999996185302734375</ele>
        <time>2022-07-28T11:37:35.000Z</time>
      </trkpt>
      <trkpt lat="42.19912938773632049560546875" lon="3.03801703266799449920654296875">
        <ele>15.3999996185302734375</ele>
        <time>2022-07-28T11:37:37.000Z</time>
      </trkpt>
      <trkpt lat="42.1990041621029376983642578125" lon="3.0380434356629848480224609375">
        <ele>15.19999980926513671875</ele>
        <time>2022-07-28T11:37:40.000Z</time>
      </trkpt>
      <trkpt lat="42.19890408217906951904296875" lon="3.0380769632756710052490234375">
        <ele>15</ele>
        <time>2022-07-28T11:37:42.000Z</time>
      </trkpt>
      <trkpt lat="42.19874180853366851806640625" lon="3.03812348283827304840087890625">
        <ele>14.19999980926513671875</ele>
        <time>2022-07-28T11:37:45.000Z</time>
      </trkpt>
      <trkpt lat="42.1986296586692333221435546875" lon="3.0381560884416103363037109375">
        <ele>13</ele>
        <time>2022-07-28T11:37:47.000Z</time>
      </trkpt>
      <trkpt lat="42.19845556654036045074462890625" lon="3.03821484558284282684326171875">
        <ele>12.3999996185302734375</ele>
        <time>2022-07-28T11:37:50.000Z</time>
      </trkpt>
      <trkpt lat="42.1980201266705989837646484375" lon="3.0383943021297454833984375">
        <ele>12.19999980926513671875</ele>
        <time>2022-07-28T11:37:57.000Z</time>
      </trkpt>
      <trkpt lat="42.19756356440484523773193359375" lon="3.038607873022556304931640625">
        <ele>12.19999980926513671875</ele>
        <time>2022-07-28T11:38:04.000Z</time>
      </trkpt>
      <trkpt lat="42.19743163324892520904541015625" lon="3.0386687256395816802978515625">
        <ele>12</ele>
        <time>2022-07-28T11:38:06.000Z</time>
      </trkpt>
      <trkpt lat="42.19695973210036754608154296875" lon="3.0388930253684520721435546875">
        <ele>11</ele>
        <time>2022-07-28T11:38:13.000Z</time>
      </trkpt>
      <trkpt lat="42.1968909166753292083740234375" lon="3.0389245413243770599365234375">
        <ele>10.80000019073486328125</ele>
        <time>2022-07-28T11:38:14.000Z</time>
      </trkpt>
      <trkpt lat="42.196471653878688812255859375" lon="3.03908622823655605316162109375">
        <ele>10.3999996185302734375</ele>
        <time>2022-07-28T11:38:20.000Z</time>
      </trkpt>
      <trkpt lat="42.196209467947483062744140625" lon="3.0392091907560825347900390625">
        <ele>9.80000019073486328125</ele>
        <time>2022-07-28T11:38:24.000Z</time>
      </trkpt>
      <trkpt lat="42.195952646434307098388671875" lon="3.0393386073410511016845703125">
        <ele>9.19999980926513671875</ele>
        <time>2022-07-28T11:38:28.000Z</time>
      </trkpt>
      <trkpt lat="42.1956976689398288726806640625" lon="3.03945654071867465972900390625">
        <ele>8.80000019073486328125</ele>
        <time>2022-07-28T11:38:32.000Z</time>
      </trkpt>
      <trkpt lat="42.195387370884418487548828125" lon="3.03961495868861675262451171875">
        <ele>8.80000019073486328125</ele>
        <time>2022-07-28T11:38:37.000Z</time>
      </trkpt>
      <trkpt lat="42.19495494849979877471923828125" lon="3.03983473218977451324462890625">
        <ele>10</ele>
        <time>2022-07-28T11:38:44.000Z</time>
      </trkpt>
      <trkpt lat="42.19483517110347747802734375" lon="3.039890639483928680419921875">
        <ele>10.19999980926513671875</ele>
        <time>2022-07-28T11:38:46.000Z</time>
      </trkpt>
      <trkpt lat="42.19449075870215892791748046875" lon="3.04006255231797695159912109375">
        <ele>11.19999980926513671875</ele>
        <time>2022-07-28T11:38:52.000Z</time>
      </trkpt>
      <trkpt lat="42.19443376176059246063232421875" lon="3.0400913022458553314208984375">
        <ele>11.19999980926513671875</ele>
        <time>2022-07-28T11:38:53.000Z</time>
      </trkpt>
      <trkpt lat="42.19398449175059795379638671875" lon="3.04030143655836582183837890625">
        <ele>11.3999996185302734375</ele>
        <time>2022-07-28T11:39:01.000Z</time>
      </trkpt>
      <trkpt lat="42.19343296252191066741943359375" lon="3.040562532842159271240234375">
        <ele>12</ele>
        <time>2022-07-28T11:39:11.000Z</time>
      </trkpt>
      <trkpt lat="42.192892916500568389892578125" lon="3.04080854170024394989013671875">
        <ele>11.6000003814697265625</ele>
        <time>2022-07-28T11:39:20.000Z</time>
      </trkpt>
      <trkpt lat="42.19236083328723907470703125" lon="3.0410067737102508544921875">
        <ele>10.6000003814697265625</ele>
        <time>2022-07-28T11:39:28.000Z</time>
      </trkpt>
      <trkpt lat="42.1917967312037944793701171875" lon="3.04117248393595218658447265625">
        <ele>10.19999980926513671875</ele>
        <time>2022-07-28T11:39:36.000Z</time>
      </trkpt>
      <trkpt lat="42.19172422774136066436767578125" lon="3.04119008593261241912841796875">
        <ele>10.19999980926513671875</ele>
        <time>2022-07-28T11:39:37.000Z</time>
      </trkpt>
      <trkpt lat="42.19114654697477817535400390625" lon="3.04130407981574535369873046875">
        <ele>9.80000019073486328125</ele>
        <time>2022-07-28T11:39:45.000Z</time>
      </trkpt>
      <trkpt lat="42.1910071559250354766845703125" lon="3.04132184945046901702880859375">
        <ele>9.80000019073486328125</ele>
        <time>2022-07-28T11:39:47.000Z</time>
      </trkpt>
      <trkpt lat="42.19045705161988735198974609375" lon="3.0413656868040561676025390625">
        <ele>9.6000003814697265625</ele>
        <time>2022-07-28T11:39:55.000Z</time>
      </trkpt>
      <trkpt lat="42.19031975604593753814697265625" lon="3.04137289524078369140625">
        <ele>9.80000019073486328125</ele>
        <time>2022-07-28T11:39:57.000Z</time>
      </trkpt>
      <trkpt lat="42.18977962620556354522705078125" lon="3.04136551916599273681640625">
        <ele>10.80000019073486328125</ele>
        <time>2022-07-28T11:40:05.000Z</time>
      </trkpt>
      <trkpt lat="42.189580388367176055908203125" lon="3.041354119777679443359375">
        <ele>10.80000019073486328125</ele>
        <time>2022-07-28T11:40:08.000Z</time>
      </trkpt>
      <trkpt lat="42.18912768177688121795654296875" lon="3.04129854775965213775634765625">
        <ele>11</ele>
        <time>2022-07-28T11:40:15.000Z</time>
      </trkpt>
      <trkpt lat="42.18899625353515148162841796875" lon="3.04127725772559642791748046875">
        <ele>11.19999980926513671875</ele>
        <time>2022-07-28T11:40:17.000Z</time>
      </trkpt>
      <trkpt lat="42.1886615641415119171142578125" lon="3.0412141419947147369384765625">
        <ele>11.3999996185302734375</ele>
        <time>2022-07-28T11:40:22.000Z</time>
      </trkpt>
      <trkpt lat="42.18852653168141841888427734375" lon="3.04117642343044281005859375">
        <ele>11.19999980926513671875</ele>
        <time>2022-07-28T11:40:24.000Z</time>
      </trkpt>
      <trkpt lat="42.18797030858695507049560546875" lon="3.04100870154798030853271484375">
        <ele>11.3999996185302734375</ele>
        <time>2022-07-28T11:40:32.000Z</time>
      </trkpt>
      <trkpt lat="42.187898643314838409423828125" lon="3.04098305292427539825439453125">
        <ele>11.3999996185302734375</ele>
        <time>2022-07-28T11:40:33.000Z</time>
      </trkpt>
      <trkpt lat="42.1873162686824798583984375" lon="3.04075070656836032867431640625">
        <ele>11.19999980926513671875</ele>
        <time>2022-07-28T11:40:41.000Z</time>
      </trkpt>
      <trkpt lat="42.18717067502439022064208984375" lon="3.04067979566752910614013671875">
        <ele>11.19999980926513671875</ele>
        <time>2022-07-28T11:40:43.000Z</time>
      </trkpt>
      <trkpt lat="42.18666474334895610809326171875" lon="3.0404178611934185028076171875">
        <ele>10.3999996185302734375</ele>
        <time>2022-07-28T11:40:50.000Z</time>
      </trkpt>
      <trkpt lat="42.1865238435566425323486328125" lon="3.04033194668591022491455078125">
        <ele>10</ele>
        <time>2022-07-28T11:40:52.000Z</time>
      </trkpt>
      <trkpt lat="42.18645385466516017913818359375" lon="3.04028869606554508209228515625">
        <ele>10</ele>
        <time>2022-07-28T11:40:53.000Z</time>
      </trkpt>
      <trkpt lat="42.1859042532742023468017578125" lon="3.0399246700108051300048828125">
        <ele>10.19999980926513671875</ele>
        <time>2022-07-28T11:41:01.000Z</time>
      </trkpt>
      <trkpt lat="42.1858375333249568939208984375" lon="3.03987580351531505584716796875">
        <ele>10.19999980926513671875</ele>
        <time>2022-07-28T11:41:02.000Z</time>
      </trkpt>
      <trkpt lat="42.18532430939376354217529296875" lon="3.0394673533737659454345703125">
        <ele>10.80000019073486328125</ele>
        <time>2022-07-28T11:41:10.000Z</time>
      </trkpt>
      <trkpt lat="42.185075283050537109375" lon="3.0392474122345447540283203125">
        <ele>11</ele>
        <time>2022-07-28T11:41:14.000Z</time>
      </trkpt>
      <trkpt lat="42.1849537454545497894287109375" lon="3.03912914358079433441162109375">
        <ele>11.19999980926513671875</ele>
        <time>2022-07-28T11:41:16.000Z</time>
      </trkpt>
      <trkpt lat="42.1844803355634212493896484375" lon="3.03865137510001659393310546875">
        <ele>11.6000003814697265625</ele>
        <time>2022-07-28T11:41:24.000Z</time>
      </trkpt>
      <trkpt lat="42.18431278131902217864990234375" lon="3.03847066126763820648193359375">
        <ele>11.80000019073486328125</ele>
        <time>2022-07-28T11:41:27.000Z</time>
      </trkpt>
      <trkpt lat="42.183873988687992095947265625" lon="3.03799540735781192779541015625">
        <ele>12</ele>
        <time>2022-07-28T11:41:35.000Z</time>
      </trkpt>
      <trkpt lat="42.1838215179741382598876953125" lon="3.03793472237884998321533203125">
        <ele>12</ele>
        <time>2022-07-28T11:41:36.000Z</time>
      </trkpt>
      <trkpt lat="42.1834748424589633941650390625" lon="3.0375475622713565826416015625">
        <ele>12.19999980926513671875</ele>
        <time>2022-07-28T11:41:43.000Z</time>
      </trkpt>
      <trkpt lat="42.183137722313404083251953125" lon="3.037164844572544097900390625">
        <ele>13.19999980926513671875</ele>
        <time>2022-07-28T11:41:50.000Z</time>
      </trkpt>
      <trkpt lat="42.18303613364696502685546875" lon="3.03705143742263317108154296875">
        <ele>13.3999996185302734375</ele>
        <time>2022-07-28T11:41:52.000Z</time>
      </trkpt>
      <trkpt lat="42.18261997215449810028076171875" lon="3.03658716380596160888671875">
        <ele>13.80000019073486328125</ele>
        <time>2022-07-28T11:42:00.000Z</time>
      </trkpt>
      <trkpt lat="42.18230078928172588348388671875" lon="3.03623671643435955047607421875">
        <ele>14.3999996185302734375</ele>
        <time>2022-07-28T11:42:06.000Z</time>
      </trkpt>
      <trkpt lat="42.18203558586537837982177734375" lon="3.03595575504004955291748046875">
        <ele>14.6000003814697265625</ele>
        <time>2022-07-28T11:42:11.000Z</time>
      </trkpt>
      <trkpt lat="42.18154625035822391510009765625" lon="3.0354799143970012664794921875">
        <ele>15.19999980926513671875</ele>
        <time>2022-07-28T11:42:20.000Z</time>
      </trkpt>
      <trkpt lat="42.181430160999298095703125" lon="3.0353783257305622100830078125">
        <ele>15.19999980926513671875</ele>
        <time>2022-07-28T11:42:22.000Z</time>
      </trkpt>
      <trkpt lat="42.18095482327044010162353515625" lon="3.03499451838433742523193359375">
        <ele>14.80000019073486328125</ele>
        <time>2022-07-28T11:42:30.000Z</time>
      </trkpt>
      <trkpt lat="42.1808412484824657440185546875" lon="3.034913130104541778564453125">
        <ele>14.6000003814697265625</ele>
        <time>2022-07-28T11:42:32.000Z</time>
      </trkpt>
      <trkpt lat="42.1802981011569499969482421875" lon="3.03459000773727893829345703125">
        <ele>14.19999980926513671875</ele>
        <time>2022-07-28T11:42:41.000Z</time>
      </trkpt>
      <trkpt lat="42.17976995743811130523681640625" lon="3.034324385225772857666015625">
        <ele>13.6000003814697265625</ele>
        <time>2022-07-28T11:42:49.000Z</time>
      </trkpt>
      <trkpt lat="42.17970214784145355224609375" lon="3.034296222031116485595703125">
        <ele>13.6000003814697265625</ele>
        <time>2022-07-28T11:42:50.000Z</time>
      </trkpt>
      <trkpt lat="42.1791467629373073577880859375" lon="3.03410855121910572052001953125">
        <ele>13.19999980926513671875</ele>
        <time>2022-07-28T11:42:58.000Z</time>
      </trkpt>
      <trkpt lat="42.1790787018835544586181640625" lon="3.03408860228955745697021484375">
        <ele>13.19999980926513671875</ele>
        <time>2022-07-28T11:42:59.000Z</time>
      </trkpt>
      <trkpt lat="42.1787038631737232208251953125" lon="3.03400176577270030975341796875">
        <ele>13</ele>
        <time>2022-07-28T11:43:05.000Z</time>
      </trkpt>
      <trkpt lat="42.1782649867236614227294921875" lon="3.03393772803246974945068359375">
        <ele>13.3999996185302734375</ele>
        <time>2022-07-28T11:43:12.000Z</time>
      </trkpt>
      <trkpt lat="42.17774371616542339324951171875" lon="3.03391174413263797760009765625">
        <ele>13.6000003814697265625</ele>
        <time>2022-07-28T11:43:20.000Z</time>
      </trkpt>
      <trkpt lat="42.1771560609340667724609375" lon="3.03393823094666004180908203125">
        <ele>13</ele>
        <time>2022-07-28T11:43:29.000Z</time>
      </trkpt>
      <trkpt lat="42.1770935319364070892333984375" lon="3.0339456908404827117919921875">
        <ele>12.80000019073486328125</ele>
        <time>2022-07-28T11:43:30.000Z</time>
      </trkpt>
      <trkpt lat="42.176786921918392181396484375" lon="3.0339912883937358856201171875">
        <ele>12.3999996185302734375</ele>
        <time>2022-07-28T11:43:35.000Z</time>
      </trkpt>
      <trkpt lat="42.1765487082302570343017578125" lon="3.03404551930725574493408203125">
        <ele>12.3999996185302734375</ele>
        <time>2022-07-28T11:43:39.000Z</time>
      </trkpt>
      <trkpt lat="42.17601570300757884979248046875" lon="3.03419605828821659088134765625">
        <ele>13.80000019073486328125</ele>
        <time>2022-07-28T11:43:48.000Z</time>
      </trkpt>
      <trkpt lat="42.1758377552032470703125" lon="3.0342501215636730194091796875">
        <ele>14.80000019073486328125</ele>
        <time>2022-07-28T11:43:51.000Z</time>
      </trkpt>
      <trkpt lat="42.1755566261708736419677734375" lon="3.03435313515365123748779296875">
        <ele>15.6000003814697265625</ele>
        <time>2022-07-28T11:43:56.000Z</time>
      </trkpt>
      <trkpt lat="42.1754501760005950927734375" lon="3.034394793212413787841796875">
        <ele>15.80000019073486328125</ele>
        <time>2022-07-28T11:43:58.000Z</time>
      </trkpt>
      <trkpt lat="42.17529787681996822357177734375" lon="3.034482300281524658203125">
        <ele>15.80000019073486328125</ele>
        <time>2022-07-28T11:44:01.000Z</time>
      </trkpt>
      <trkpt lat="42.1752498485147953033447265625" lon="3.0345216952264308929443359375">
        <ele>15.80000019073486328125</ele>
        <time>2022-07-28T11:44:02.000Z</time>
      </trkpt>
      <trkpt lat="42.17489051632583141326904296875" lon="3.0347523652017116546630859375">
        <ele>15.80000019073486328125</ele>
        <time>2022-07-28T11:44:09.000Z</time>
      </trkpt>
      <trkpt lat="42.1745008416473865509033203125" lon="3.03501362912356853485107421875">
        <ele>15.3999996185302734375</ele>
        <time>2022-07-28T11:44:17.000Z</time>
      </trkpt>
      <trkpt lat="42.174450047314167022705078125" lon="3.0350420437753200531005859375">
        <ele>15.3999996185302734375</ele>
        <time>2022-07-28T11:44:18.000Z</time>
      </trkpt>
      <trkpt lat="42.17410731129348278045654296875" lon="3.035310097038745880126953125">
        <ele>16.200000762939453125</ele>
        <time>2022-07-28T11:44:25.000Z</time>
      </trkpt>
      <trkpt lat="42.17368603684008121490478515625" lon="3.0357239954173564910888671875">
        <ele>16.6000003814697265625</ele>
        <time>2022-07-28T11:44:34.000Z</time>
      </trkpt>
      <trkpt lat="42.1733900718390941619873046875" lon="3.03606824018061161041259765625">
        <ele>16.200000762939453125</ele>
        <time>2022-07-28T11:44:41.000Z</time>
      </trkpt>
      <trkpt lat="42.17309377156198024749755859375" lon="3.03650845773518085479736328125">
        <ele>16</ele>
        <time>2022-07-28T11:44:49.000Z</time>
      </trkpt>
      <trkpt lat="42.1728026680648326873779296875" lon="3.03701095283031463623046875">
        <ele>16.3999996185302734375</ele>
        <time>2022-07-28T11:44:57.000Z</time>
      </trkpt>
      <trkpt lat="42.17256051488220691680908203125" lon="3.0373913235962390899658203125">
        <ele>16.6000003814697265625</ele>
        <time>2022-07-28T11:45:03.000Z</time>
      </trkpt>
      <trkpt lat="42.17252363450825214385986328125" lon="3.03745527751743793487548828125">
        <ele>16.6000003814697265625</ele>
        <time>2022-07-28T11:45:04.000Z</time>
      </trkpt>
      <trkpt lat="42.17243193648755550384521484375" lon="3.03765644319355487823486328125">
        <ele>16.6000003814697265625</ele>
        <time>2022-07-28T11:45:07.000Z</time>
      </trkpt>
      <trkpt lat="42.17222289182245731353759765625" lon="3.03807084448635578155517578125">
        <ele>16</ele>
        <time>2022-07-28T11:45:14.000Z</time>
      </trkpt>
      <trkpt lat="42.17199155129492282867431640625" lon="3.03846999071538448333740234375">
        <ele>15.6000003814697265625</ele>
        <time>2022-07-28T11:45:20.000Z</time>
      </trkpt>
      <trkpt lat="42.17177965678274631500244140625" lon="3.03880258463323116302490234375">
        <ele>14.80000019073486328125</ele>
        <time>2022-07-28T11:45:25.000Z</time>
      </trkpt>
      <trkpt lat="42.1716486476361751556396484375" lon="3.03899771533906459808349609375">
        <ele>14.19999980926513671875</ele>
        <time>2022-07-28T11:45:28.000Z</time>
      </trkpt>
      <trkpt lat="42.17123298905789852142333984375" lon="3.0395360849797725677490234375">
        <ele>13.80000019073486328125</ele>
        <time>2022-07-28T11:45:37.000Z</time>
      </trkpt>
      <trkpt lat="42.1711842902004718780517578125" lon="3.0395937524735927581787109375">
        <ele>14</ele>
        <time>2022-07-28T11:45:38.000Z</time>
      </trkpt>
      <trkpt lat="42.17071968130767345428466796875" lon="3.0400839261710643768310546875">
        <ele>14.3999996185302734375</ele>
        <time>2022-07-28T11:45:47.000Z</time>
      </trkpt>
      <trkpt lat="42.1702703274786472320556640625" lon="3.04046471603214740753173828125">
        <ele>15</ele>
        <time>2022-07-28T11:45:55.000Z</time>
      </trkpt>
      <trkpt lat="42.1698076464235782623291015625" lon="3.04078758694231510162353515625">
        <ele>14.80000019073486328125</ele>
        <time>2022-07-28T11:46:03.000Z</time>
      </trkpt>
      <trkpt lat="42.169268019497394561767578125" lon="3.04107022471725940704345703125">
        <ele>14.6000003814697265625</ele>
        <time>2022-07-28T11:46:12.000Z</time>
      </trkpt>
      <trkpt lat="42.16920666396617889404296875" lon="3.0410981364548206329345703125">
        <ele>14.6000003814697265625</ele>
        <time>2022-07-28T11:46:13.000Z</time>
      </trkpt>
      <trkpt lat="42.1686408855020999908447265625" lon="3.04132067598402500152587890625">
        <ele>14.80000019073486328125</ele>
        <time>2022-07-28T11:46:22.000Z</time>
      </trkpt>
      <trkpt lat="42.168083488941192626953125" lon="3.04151077754795551300048828125">
        <ele>15.19999980926513671875</ele>
        <time>2022-07-28T11:46:31.000Z</time>
      </trkpt>
      <trkpt lat="42.16755165718495845794677734375" lon="3.04168528877198696136474609375">
        <ele>15</ele>
        <time>2022-07-28T11:46:40.000Z</time>
      </trkpt>
      <trkpt lat="42.167493402957916259765625" lon="3.04170423187315464019775390625">
        <ele>15</ele>
        <time>2022-07-28T11:46:41.000Z</time>
      </trkpt>
      <trkpt lat="42.16696056537330150604248046875" lon="3.04188058711588382720947265625">
        <ele>15.6000003814697265625</ele>
        <time>2022-07-28T11:46:50.000Z</time>
      </trkpt>
      <trkpt lat="42.16690004803240299224853515625" lon="3.04189986549317836761474609375">
        <ele>15.6000003814697265625</ele>
        <time>2022-07-28T11:46:51.000Z</time>
      </trkpt>
      <trkpt lat="42.1668387763202190399169921875" lon="3.04191939532756805419921875">
        <ele>15.80000019073486328125</ele>
        <time>2022-07-28T11:46:52.000Z</time>
      </trkpt>
      <trkpt lat="42.16626989655196666717529296875" lon="3.0421073175966739654541015625">
        <ele>16.3999996185302734375</ele>
        <time>2022-07-28T11:47:01.000Z</time>
      </trkpt>
      <trkpt lat="42.1661380492150783538818359375" lon="3.0421519093215465545654296875">
        <ele>16.3999996185302734375</ele>
        <time>2022-07-28T11:47:03.000Z</time>
      </trkpt>
      <trkpt lat="42.16566623188555240631103515625" lon="3.04230839945375919342041015625">
        <ele>16.799999237060546875</ele>
        <time>2022-07-28T11:47:10.000Z</time>
      </trkpt>
      <trkpt lat="42.16526440344750881195068359375" lon="3.04243932478129863739013671875">
        <ele>16.6000003814697265625</ele>
        <time>2022-07-28T11:47:16.000Z</time>
      </trkpt>
      <trkpt lat="42.16494052670896053314208984375" lon="3.04254569113254547119140625">
        <ele>15.80000019073486328125</ele>
        <time>2022-07-28T11:47:21.000Z</time>
      </trkpt>
      <trkpt lat="42.16449326835572719573974609375" lon="3.0426913686096668243408203125">
        <ele>15.6000003814697265625</ele>
        <time>2022-07-28T11:47:28.000Z</time>
      </trkpt>
      <trkpt lat="42.16395380906760692596435546875" lon="3.04286085069179534912109375">
        <ele>16.3999996185302734375</ele>
        <time>2022-07-28T11:47:36.000Z</time>
      </trkpt>
      <trkpt lat="42.1638165973126888275146484375" lon="3.04290016181766986846923828125">
        <ele>16.6000003814697265625</ele>
        <time>2022-07-28T11:47:38.000Z</time>
      </trkpt>
      <trkpt lat="42.16326314024627208709716796875" lon="3.043044917285442352294921875">
        <ele>16.6000003814697265625</ele>
        <time>2022-07-28T11:47:46.000Z</time>
      </trkpt>
      <trkpt lat="42.16319457627832889556884765625" lon="3.04306159727275371551513671875">
        <ele>16.3999996185302734375</ele>
        <time>2022-07-28T11:47:47.000Z</time>
      </trkpt>
      <trkpt lat="42.162665091454982757568359375" lon="3.0431547202169895172119140625">
        <ele>15.80000019073486328125</ele>
        <time>2022-07-28T11:47:55.000Z</time>
      </trkpt>
      <trkpt lat="42.16217248700559139251708984375" lon="3.0431874096393585205078125">
        <ele>16</ele>
        <time>2022-07-28T11:48:03.000Z</time>
      </trkpt>
      <trkpt lat="42.16168046928942203521728515625" lon="3.04318212904036045074462890625">
        <ele>17</ele>
        <time>2022-07-28T11:48:11.000Z</time>
      </trkpt>
      <trkpt lat="42.161549963057041168212890625" lon="3.04318095557391643524169921875">
        <ele>17</ele>
        <time>2022-07-28T11:48:13.000Z</time>
      </trkpt>
      <trkpt lat="42.16119934804737567901611328125" lon="3.0431728251278400421142578125">
        <ele>17</ele>
        <time>2022-07-28T11:48:18.000Z</time>
      </trkpt>
      <trkpt lat="42.16068218462169170379638671875" lon="3.043199814856052398681640625">
        <ele>15.6000003814697265625</ele>
        <time>2022-07-28T11:48:25.000Z</time>
      </trkpt>
      <trkpt lat="42.160527370870113372802734375" lon="3.04320660419762134552001953125">
        <ele>15.19999980926513671875</ele>
        <time>2022-07-28T11:48:27.000Z</time>
      </trkpt>
      <trkpt lat="42.16022931039333343505859375" lon="3.04325438104569911956787109375">
        <ele>14.3999996185302734375</ele>
        <time>2022-07-28T11:48:31.000Z</time>
      </trkpt>
      <trkpt lat="42.16008924879133701324462890625" lon="3.04328740574419498443603515625">
        <ele>14.19999980926513671875</ele>
        <time>2022-07-28T11:48:33.000Z</time>
      </trkpt>
      <trkpt lat="42.15973201207816600799560546875" lon="3.04340173490345478057861328125">
        <ele>13.3999996185302734375</ele>
        <time>2022-07-28T11:48:38.000Z</time>
      </trkpt>
      <trkpt lat="42.15951986610889434814453125" lon="3.0434822849929332733154296875">
        <ele>13.19999980926513671875</ele>
        <time>2022-07-28T11:48:41.000Z</time>
      </trkpt>
      <trkpt lat="42.1589973382651805877685546875" lon="3.04376919753849506378173828125">
        <ele>13</ele>
        <time>2022-07-28T11:48:49.000Z</time>
      </trkpt>
      <trkpt lat="42.15881570242345333099365234375" lon="3.04389417171478271484375">
        <ele>12.3999996185302734375</ele>
        <time>2022-07-28T11:48:52.000Z</time>
      </trkpt>
      <trkpt lat="42.1585963480174541473388671875" lon="3.04406172595918178558349609375">
        <ele>12</ele>
        <time>2022-07-28T11:48:56.000Z</time>
      </trkpt>
      <trkpt lat="42.15830239467322826385498046875" lon="3.04425953887403011322021484375">
        <ele>12.19999980926513671875</ele>
        <time>2022-07-28T11:49:02.000Z</time>
      </trkpt>
      <trkpt lat="42.15826048515737056732177734375" lon="3.0442916415631771087646484375">
        <ele>12.19999980926513671875</ele>
        <time>2022-07-28T11:49:03.000Z</time>
      </trkpt>
      <trkpt lat="42.15808195061981678009033203125" lon="3.04448702372610569000244140625">
        <ele>12.3999996185302734375</ele>
        <time>2022-07-28T11:49:08.000Z</time>
      </trkpt>
      <trkpt lat="42.15794197283685207366943359375" lon="3.0446654744446277618408203125">
        <ele>13.80000019073486328125</ele>
        <time>2022-07-28T11:49:13.000Z</time>
      </trkpt>
      <trkpt lat="42.1579107083380222320556640625" lon="3.04469958879053592681884765625">
        <ele>14</ele>
        <time>2022-07-28T11:49:14.000Z</time>
      </trkpt>
      <trkpt lat="42.15773477219045162200927734375" lon="3.04492958821356296539306640625">
        <ele>14.19999980926513671875</ele>
        <time>2022-07-28T11:49:19.000Z</time>
      </trkpt>
      <trkpt lat="42.1574248932301998138427734375" lon="3.04539595730602741241455078125">
        <ele>14.19999980926513671875</ele>
        <time>2022-07-28T11:49:27.000Z</time>
      </trkpt>
      <trkpt lat="42.15711333788931369781494140625" lon="3.0460126139223575592041015625">
        <ele>14.19999980926513671875</ele>
        <time>2022-07-28T11:49:36.000Z</time>
      </trkpt>
      <trkpt lat="42.156842015683650970458984375" lon="3.04669909179210662841796875">
        <ele>14</ele>
        <time>2022-07-28T11:49:45.000Z</time>
      </trkpt>
      <trkpt lat="42.1568136848509311676025390625" lon="3.046779222786426544189453125">
        <ele>14</ele>
        <time>2022-07-28T11:49:46.000Z</time>
      </trkpt>
      <trkpt lat="42.1565672568976879119873046875" lon="3.04750836454331874847412109375">
        <ele>13.3999996185302734375</ele>
        <time>2022-07-28T11:49:55.000Z</time>
      </trkpt>
      <trkpt lat="42.156538926064968109130859375" lon="3.0475897528231143951416015625">
        <ele>13.3999996185302734375</ele>
        <time>2022-07-28T11:49:56.000Z</time>
      </trkpt>
      <trkpt lat="42.156392075121402740478515625" lon="3.0480065010488033294677734375">
        <ele>12.80000019073486328125</ele>
        <time>2022-07-28T11:50:01.000Z</time>
      </trkpt>
      <trkpt lat="42.1562282927334308624267578125" lon="3.04843448102474212646484375">
        <ele>12.3999996185302734375</ele>
        <time>2022-07-28T11:50:06.000Z</time>
      </trkpt>
      <trkpt lat="42.15596484951674938201904296875" lon="3.04905180819332599639892578125">
        <ele>12</ele>
        <time>2022-07-28T11:50:13.000Z</time>
      </trkpt>
      <trkpt lat="42.15588270686566829681396484375" lon="3.04922883398830890655517578125">
        <ele>11.6000003814697265625</ele>
        <time>2022-07-28T11:50:15.000Z</time>
      </trkpt>
      <trkpt lat="42.155620940029621124267578125" lon="3.0497512780129909515380859375">
        <ele>10.3999996185302734375</ele>
        <time>2022-07-28T11:50:21.000Z</time>
      </trkpt>
      <trkpt lat="42.1555745042860507965087890625" lon="3.04983551613986492156982421875">
        <ele>10</ele>
        <time>2022-07-28T11:50:22.000Z</time>
      </trkpt>
      <trkpt lat="42.155199162662029266357421875" lon="3.0504872091114521026611328125">
        <ele>9.3999996185302734375</ele>
        <time>2022-07-28T11:50:30.000Z</time>
      </trkpt>
      <trkpt lat="42.15515063144266605377197265625" lon="3.05056172423064708709716796875">
        <ele>9.19999980926513671875</ele>
        <time>2022-07-28T11:50:31.000Z</time>
      </trkpt>
      <trkpt lat="42.1547678299248218536376953125" lon="3.051122389733791351318359375">
        <ele>9.19999980926513671875</ele>
        <time>2022-07-28T11:50:39.000Z</time>
      </trkpt>
      <trkpt lat="42.1543685160577297210693359375" lon="3.05163729004561901092529296875">
        <ele>9.3999996185302734375</ele>
        <time>2022-07-28T11:50:47.000Z</time>
      </trkpt>
      <trkpt lat="42.1543165482580661773681640625" lon="3.05170132778584957122802734375">
        <ele>9.3999996185302734375</ele>
        <time>2022-07-28T11:50:48.000Z</time>
      </trkpt>
      <trkpt lat="42.153953276574611663818359375" lon="3.05211178958415985107421875">
        <ele>9.80000019073486328125</ele>
        <time>2022-07-28T11:50:55.000Z</time>
      </trkpt>
      <trkpt lat="42.153652198612689971923828125" lon="3.05243021808564662933349609375">
        <ele>10.19999980926513671875</ele>
        <time>2022-07-28T11:51:01.000Z</time>
      </trkpt>
      <trkpt lat="42.15355270542204380035400390625" lon="3.05253482423722743988037109375">
        <ele>10.6000003814697265625</ele>
        <time>2022-07-28T11:51:03.000Z</time>
      </trkpt>
      <trkpt lat="42.1533509530127048492431640625" lon="3.05274252779781818389892578125">
        <ele>11.3999996185302734375</ele>
        <time>2022-07-28T11:51:07.000Z</time>
      </trkpt>
      <trkpt lat="42.15293797664344310760498046875" lon="3.05316112004220485687255859375">
        <ele>11.6000003814697265625</ele>
        <time>2022-07-28T11:51:15.000Z</time>
      </trkpt>
      <trkpt lat="42.1525065600872039794921875" lon="3.053608126938343048095703125">
        <ele>11</ele>
        <time>2022-07-28T11:51:23.000Z</time>
      </trkpt>
      <trkpt lat="42.15207874774932861328125" lon="3.05404365062713623046875">
        <ele>10.19999980926513671875</ele>
        <time>2022-07-28T11:51:31.000Z</time>
      </trkpt>
      <trkpt lat="42.15191957540810108184814453125" lon="3.05420751683413982391357421875">
        <ele>10</ele>
        <time>2022-07-28T11:51:34.000Z</time>
      </trkpt>
      <trkpt lat="42.151481620967388153076171875" lon="3.05465796031057834625244140625">
        <ele>10.19999980926513671875</ele>
        <time>2022-07-28T11:51:42.000Z</time>
      </trkpt>
      <trkpt lat="42.1513701416552066802978515625" lon="3.05477254092693328857421875">
        <ele>10.19999980926513671875</ele>
        <time>2022-07-28T11:51:44.000Z</time>
      </trkpt>
      <trkpt lat="42.15109127573668956756591796875" lon="3.0550573579967021942138671875">
        <ele>10.3999996185302734375</ele>
        <time>2022-07-28T11:51:49.000Z</time>
      </trkpt>
      <trkpt lat="42.15092564933001995086669921875" lon="3.05523128248751163482666015625">
        <ele>10.3999996185302734375</ele>
        <time>2022-07-28T11:51:52.000Z</time>
      </trkpt>
      <trkpt lat="42.15048643760383129119873046875" lon="3.0556675605475902557373046875">
        <ele>9.80000019073486328125</ele>
        <time>2022-07-28T11:52:00.000Z</time>
      </trkpt>
      <trkpt lat="42.15038015507161617279052734375" lon="3.0557745136320590972900390625">
        <ele>9.80000019073486328125</ele>
        <time>2022-07-28T11:52:02.000Z</time>
      </trkpt>
      <trkpt lat="42.14989475905895233154296875" lon="3.05625052191317081451416015625">
        <ele>10.19999980926513671875</ele>
        <time>2022-07-28T11:52:11.000Z</time>
      </trkpt>
      <trkpt lat="42.14983843266963958740234375" lon="3.0563029088079929351806640625">
        <ele>10.19999980926513671875</ele>
        <time>2022-07-28T11:52:12.000Z</time>
      </trkpt>
      <trkpt lat="42.14937969110906124114990234375" lon="3.05669174529612064361572265625">
        <ele>11</ele>
        <time>2022-07-28T11:52:20.000Z</time>
      </trkpt>
      <trkpt lat="42.14890192262828350067138671875" lon="3.0570490658283233642578125">
        <ele>11</ele>
        <time>2022-07-28T11:52:28.000Z</time>
      </trkpt>
      <trkpt lat="42.1488394774496555328369140625" lon="3.057091645896434783935546875">
        <ele>11</ele>
        <time>2022-07-28T11:52:29.000Z</time>
      </trkpt>
      <trkpt lat="42.14832566678524017333984375" lon="3.05741476826369762420654296875">
        <ele>10</ele>
        <time>2022-07-28T11:52:37.000Z</time>
      </trkpt>
      <trkpt lat="42.14778997935354709625244140625" lon="3.0577087216079235076904296875">
        <ele>9.80000019073486328125</ele>
        <time>2022-07-28T11:52:45.000Z</time>
      </trkpt>
      <trkpt lat="42.147511951625347137451171875" lon="3.0578562431037425994873046875">
        <ele>10</ele>
        <time>2022-07-28T11:52:49.000Z</time>
      </trkpt>
      <trkpt lat="42.1470725722610950469970703125" lon="3.0580862425267696380615234375">
        <ele>10.3999996185302734375</ele>
        <time>2022-07-28T11:52:55.000Z</time>
      </trkpt>
      <trkpt lat="42.146560437977313995361328125" lon="3.058356977999210357666015625">
        <ele>10.19999980926513671875</ele>
        <time>2022-07-28T11:53:02.000Z</time>
      </trkpt>
      <trkpt lat="42.14634410105645656585693359375" lon="3.05846937932074069976806640625">
        <ele>10.19999980926513671875</ele>
        <time>2022-07-28T11:53:05.000Z</time>
      </trkpt>
      <trkpt lat="42.1457831002771854400634765625" lon="3.05876945145428180694580078125">
        <ele>10.19999980926513671875</ele>
        <time>2022-07-28T11:53:13.000Z</time>
      </trkpt>
      <trkpt lat="42.14524774812161922454833984375" lon="3.059050329029560089111328125">
        <ele>10.3999996185302734375</ele>
        <time>2022-07-28T11:53:21.000Z</time>
      </trkpt>
      <trkpt lat="42.144711054861545562744140625" lon="3.05933321826159954071044921875">
        <ele>10.80000019073486328125</ele>
        <time>2022-07-28T11:53:29.000Z</time>
      </trkpt>
      <trkpt lat="42.14425080455839633941650390625" lon="3.059570677578449249267578125">
        <ele>11.19999980926513671875</ele>
        <time>2022-07-28T11:53:36.000Z</time>
      </trkpt>
      <trkpt lat="42.14406137354671955108642578125" lon="3.05967134423553943634033203125">
        <ele>11.19999980926513671875</ele>
        <time>2022-07-28T11:53:39.000Z</time>
      </trkpt>
      <trkpt lat="42.14362249709665775299072265625" lon="3.05990369059145450592041015625">
        <ele>11.80000019073486328125</ele>
        <time>2022-07-28T11:53:46.000Z</time>
      </trkpt>
      <trkpt lat="42.143317647278308868408203125" lon="3.06005909107625484466552734375">
        <ele>12.19999980926513671875</ele>
        <time>2022-07-28T11:53:51.000Z</time>
      </trkpt>
      <trkpt lat="42.1430251188576221466064453125" lon="3.06020560674369335174560546875">
        <ele>12.3999996185302734375</ele>
        <time>2022-07-28T11:53:56.000Z</time>
      </trkpt>
      <trkpt lat="42.14265539310872554779052734375" lon="3.06038439273834228515625">
        <ele>12.6000003814697265625</ele>
        <time>2022-07-28T11:54:03.000Z</time>
      </trkpt>
      <trkpt lat="42.1426107175648212432861328125" lon="3.06040476076304912567138671875">
        <ele>12.80000019073486328125</ele>
        <time>2022-07-28T11:54:04.000Z</time>
      </trkpt>
      <trkpt lat="42.1419990062713623046875" lon="3.0606913380324840545654296875">
        <ele>14.6000003814697265625</ele>
        <time>2022-07-28T12:00:21.000Z</time>
      </trkpt>
      <trkpt lat="42.14192734099924564361572265625" lon="3.0607205070555210113525390625">
        <ele>14.3999996185302734375</ele>
        <time>2022-07-28T12:00:23.000Z</time>
      </trkpt>
      <trkpt lat="42.141623832285404205322265625" lon="3.06084631942212581634521484375">
        <ele>14.19999980926513671875</ele>
        <time>2022-07-28T12:00:30.000Z</time>
      </trkpt>
      <trkpt lat="42.14112971909344196319580078125" lon="3.0610401928424835205078125">
        <ele>14</ele>
        <time>2022-07-28T12:00:40.000Z</time>
      </trkpt>
      <trkpt lat="42.1406081132590770721435546875" lon="3.0612304620444774627685546875">
        <ele>13.80000019073486328125</ele>
        <time>2022-07-28T12:00:50.000Z</time>
      </trkpt>
      <trkpt lat="42.14055404998362064361572265625" lon="3.061247728765010833740234375">
        <ele>13.80000019073486328125</ele>
        <time>2022-07-28T12:00:51.000Z</time>
      </trkpt>
      <trkpt lat="42.14004711247980594635009765625" lon="3.06137806735932826995849609375">
        <ele>14.3999996185302734375</ele>
        <time>2022-07-28T12:01:00.000Z</time>
      </trkpt>
      <trkpt lat="42.1395449526607990264892578125" lon="3.06143891997635364532470703125">
        <ele>15</ele>
        <time>2022-07-28T12:01:09.000Z</time>
      </trkpt>
      <trkpt lat="42.1394413523375988006591796875" lon="3.06142852641642093658447265625">
        <ele>15</ele>
        <time>2022-07-28T12:01:11.000Z</time>
      </trkpt>
      <trkpt lat="42.13929626159369945526123046875" lon="3.06137521751224994659423828125">
        <ele>15.3999996185302734375</ele>
        <time>2022-07-28T12:01:14.000Z</time>
      </trkpt>
      <trkpt lat="42.13921126909554004669189453125" lon="3.06131235323846340179443359375">
        <ele>15.80000019073486328125</ele>
        <time>2022-07-28T12:01:16.000Z</time>
      </trkpt>
      <trkpt lat="42.1391023881733417510986328125" lon="3.06118679232895374298095703125">
        <ele>17</ele>
        <time>2022-07-28T12:01:19.000Z</time>
      </trkpt>
      <trkpt lat="42.13902083225548267364501953125" lon="3.0610326491296291351318359375">
        <ele>18</ele>
        <time>2022-07-28T12:01:22.000Z</time>
      </trkpt>
      <trkpt lat="42.1389989554882049560546875" lon="3.06097774766385555267333984375">
        <ele>18.200000762939453125</ele>
        <time>2022-07-28T12:01:23.000Z</time>
      </trkpt>
      <trkpt lat="42.13898076675832271575927734375" lon="3.0609236843883991241455078125">
        <ele>18.3999996185302734375</ele>
        <time>2022-07-28T12:01:24.000Z</time>
      </trkpt>
      <trkpt lat="42.1389424614608287811279296875" lon="3.0606373585760593414306640625">
        <ele>19</ele>
        <time>2022-07-28T12:01:29.000Z</time>
      </trkpt>
      <trkpt lat="42.1389659307897090911865234375" lon="3.06043577380478382110595703125">
        <ele>19</ele>
        <time>2022-07-28T12:01:33.000Z</time>
      </trkpt>
      <trkpt lat="42.13898361660540103912353515625" lon="3.06037274189293384552001953125">
        <ele>19</ele>
        <time>2022-07-28T12:01:34.000Z</time>
      </trkpt>
      <trkpt lat="42.13913197629153728485107421875" lon="3.05991726927459239959716796875">
        <ele>19</ele>
        <time>2022-07-28T12:01:40.000Z</time>
      </trkpt>
      <trkpt lat="42.13920322246849536895751953125" lon="3.059749044477939605712890625">
        <ele>19</ele>
        <time>2022-07-28T12:01:42.000Z</time>
      </trkpt>
      <trkpt lat="42.1392188966274261474609375" lon="3.059557266533374786376953125">
        <ele>18.799999237060546875</ele>
        <time>2022-07-28T12:01:44.000Z</time>
      </trkpt>
      <trkpt lat="42.13912837207317352294921875" lon="3.0594283528625965118408203125">
        <ele>18.6000003814697265625</ele>
        <time>2022-07-28T12:01:46.000Z</time>
      </trkpt>
      <trkpt lat="42.13900507427752017974853515625" lon="3.0594605393707752227783203125">
        <ele>18.6000003814697265625</ele>
        <time>2022-07-28T12:01:48.000Z</time>
      </trkpt>
      <trkpt lat="42.13894003070890903472900390625" lon="3.05960361845791339874267578125">
        <ele>18.3999996185302734375</ele>
        <time>2022-07-28T12:01:50.000Z</time>
      </trkpt>
      <trkpt lat="42.13893592357635498046875" lon="3.0597763694822788238525390625">
        <ele>18.200000762939453125</ele>
        <time>2022-07-28T12:01:52.000Z</time>
      </trkpt>
      <trkpt lat="42.1389340795576572418212890625" lon="3.05995448492467403411865234375">
        <ele>17.6000003814697265625</ele>
        <time>2022-07-28T12:01:54.000Z</time>
      </trkpt>
      <trkpt lat="42.13891823776066303253173828125" lon="3.06013469584286212921142578125">
        <ele>16.799999237060546875</ele>
        <time>2022-07-28T12:01:56.000Z</time>
      </trkpt>
      <trkpt lat="42.1388626657426357269287109375" lon="3.06048673577606678009033203125">
        <ele>15.80000019073486328125</ele>
        <time>2022-07-28T12:02:00.000Z</time>
      </trkpt>
      <trkpt lat="42.1388459019362926483154296875" lon="3.0605708062648773193359375">
        <ele>15.80000019073486328125</ele>
        <time>2022-07-28T12:02:01.000Z</time>
      </trkpt>
      <trkpt lat="42.1387446485459804534912109375" lon="3.06099920533597469329833984375">
        <ele>15.6000003814697265625</ele>
        <time>2022-07-28T12:02:07.000Z</time>
      </trkpt>
      <trkpt lat="42.13866862468421459197998046875" lon="3.061326853930950164794921875">
        <ele>17.200000762939453125</ele>
        <time>2022-07-28T12:02:13.000Z</time>
      </trkpt>
      <trkpt lat="42.13865605182945728302001953125" lon="3.061378486454486846923828125">
        <ele>17.799999237060546875</ele>
        <time>2022-07-28T12:02:14.000Z</time>
      </trkpt>
      <trkpt lat="42.13864498771727085113525390625" lon="3.06143104098737239837646484375">
        <ele>18.200000762939453125</ele>
        <time>2022-07-28T12:02:15.000Z</time>
      </trkpt>
      <trkpt lat="42.1386108733713626861572265625" lon="3.06159448809921741485595703125">
        <ele>19.3999996185302734375</ele>
        <time>2022-07-28T12:02:18.000Z</time>
      </trkpt>
      <trkpt lat="42.13858413510024547576904296875" lon="3.06170579977333545684814453125">
        <ele>20.6000003814697265625</ele>
        <time>2022-07-28T12:02:20.000Z</time>
      </trkpt>
      <trkpt lat="42.13855932466685771942138671875" lon="3.0618126690387725830078125">
        <ele>21.200000762939453125</ele>
        <time>2022-07-28T12:02:22.000Z</time>
      </trkpt>
      <trkpt lat="42.13852713815867900848388671875" lon="3.06196932680904865264892578125">
        <ele>21.799999237060546875</ele>
        <time>2022-07-28T12:02:25.000Z</time>
      </trkpt>
      <trkpt lat="42.13849394582211971282958984375" lon="3.06210326962172985076904296875">
        <ele>22.200000762939453125</ele>
        <time>2022-07-28T12:02:28.000Z</time>
      </trkpt>
      <trkpt lat="42.1384848095476627349853515625" lon="3.06214115582406520843505859375">
        <ele>22.200000762939453125</ele>
        <time>2022-07-28T12:02:29.000Z</time>
      </trkpt>
      <trkpt lat="42.13845052756369113922119140625" lon="3.06228130124509334564208984375">
        <ele>24.6000003814697265625</ele>
        <time>2022-07-28T12:02:42.000Z</time>
      </trkpt>
      <trkpt lat="42.13842370547354221343994140625" lon="3.06241172365844249725341796875">
        <ele>24.6000003814697265625</ele>
        <time>2022-07-28T12:02:45.000Z</time>
      </trkpt>
      <trkpt lat="42.13835329748690128326416015625" lon="3.06273995898663997650146484375">
        <ele>23.799999237060546875</ele>
        <time>2022-07-28T12:02:50.000Z</time>
      </trkpt>
      <trkpt lat="42.13831591419875621795654296875" lon="3.0629014782607555389404296875">
        <ele>23.200000762939453125</ele>
        <time>2022-07-28T12:02:52.000Z</time>
      </trkpt>
      <trkpt lat="42.13827467523515224456787109375" lon="3.06308227591216564178466796875">
        <ele>22</ele>
        <time>2022-07-28T12:02:54.000Z</time>
      </trkpt>
      <trkpt lat="42.1382524631917476654052734375" lon="3.0631792545318603515625">
        <ele>21.6000003814697265625</ele>
        <time>2022-07-28T12:02:55.000Z</time>
      </trkpt>
      <trkpt lat="42.13818155229091644287109375" lon="3.06349332444369792938232421875">
        <ele>20.6000003814697265625</ele>
        <time>2022-07-28T12:02:58.000Z</time>
      </trkpt>
      <trkpt lat="42.13812648318707942962646484375" lon="3.0637182109057903289794921875">
        <ele>19.3999996185302734375</ele>
        <time>2022-07-28T12:03:00.000Z</time>
      </trkpt>
      <trkpt lat="42.13809429667890071868896484375" lon="3.06383413262665271759033203125">
        <ele>19</ele>
        <time>2022-07-28T12:03:01.000Z</time>
      </trkpt>
      <trkpt lat="42.13805951178073883056640625" lon="3.0639518983662128448486328125">
        <ele>18.200000762939453125</ele>
        <time>2022-07-28T12:03:02.000Z</time>
      </trkpt>
      <trkpt lat="42.13798843324184417724609375" lon="3.0641872622072696685791015625">
        <ele>16.6000003814697265625</ele>
        <time>2022-07-28T12:03:04.000Z</time>
      </trkpt>
      <trkpt lat="42.13794593699276447296142578125" lon="3.0642962269484996795654296875">
        <ele>16.200000762939453125</ele>
        <time>2022-07-28T12:03:05.000Z</time>
      </trkpt>
      <trkpt lat="42.13789598084986209869384765625" lon="3.0643951334059238433837890625">
        <ele>15.3999996185302734375</ele>
        <time>2022-07-28T12:03:06.000Z</time>
      </trkpt>
      <trkpt lat="42.13784753344953060150146484375" lon="3.06449160911142826080322265625">
        <ele>14.6000003814697265625</ele>
        <time>2022-07-28T12:03:07.000Z</time>
      </trkpt>
      <trkpt lat="42.13781140744686126708984375" lon="3.064593784511089324951171875">
        <ele>13.80000019073486328125</ele>
        <time>2022-07-28T12:03:08.000Z</time>
      </trkpt>
      <trkpt lat="42.13779204525053501129150390625" lon="3.06481615640223026275634765625">
        <ele>12.6000003814697265625</ele>
        <time>2022-07-28T12:03:10.000Z</time>
      </trkpt>
      <trkpt lat="42.13779405690729618072509765625" lon="3.06492713280022144317626953125">
        <ele>12.19999980926513671875</ele>
        <time>2022-07-28T12:03:11.000Z</time>
      </trkpt>
      <trkpt lat="42.13778751902282238006591796875" lon="3.06514791212975978851318359375">
        <ele>11.80000019073486328125</ele>
        <time>2022-07-28T12:03:13.000Z</time>
      </trkpt>
      <trkpt lat="42.137754745781421661376953125" lon="3.06536215357482433319091796875">
        <ele>11.6000003814697265625</ele>
        <time>2022-07-28T12:03:15.000Z</time>
      </trkpt>
      <trkpt lat="42.1377331204712390899658203125" lon="3.06546784937381744384765625">
        <ele>11.6000003814697265625</ele>
        <time>2022-07-28T12:03:16.000Z</time>
      </trkpt>
      <trkpt lat="42.1375668235123157501220703125" lon="3.06620017625391483306884765625">
        <ele>11</ele>
        <time>2022-07-28T12:03:23.000Z</time>
      </trkpt>
      <trkpt lat="42.1374082379043102264404296875" lon="3.06689838878810405731201171875">
        <ele>11</ele>
        <time>2022-07-28T12:03:30.000Z</time>
      </trkpt>
      <trkpt lat="42.1373646520078182220458984375" lon="3.06709016673266887664794921875">
        <ele>11</ele>
        <time>2022-07-28T12:03:32.000Z</time>
      </trkpt>
      <trkpt lat="42.1371956728398799896240234375" lon="3.067805729806423187255859375">
        <ele>11.19999980926513671875</ele>
        <time>2022-07-28T12:03:40.000Z</time>
      </trkpt>
      <trkpt lat="42.13701537810266017913818359375" lon="3.06858046911656856536865234375">
        <ele>12.3999996185302734375</ele>
        <time>2022-07-28T12:03:49.000Z</time>
      </trkpt>
      <trkpt lat="42.13697564788162708282470703125" lon="3.06875221431255340576171875">
        <ele>12.6000003814697265625</ele>
        <time>2022-07-28T12:03:51.000Z</time>
      </trkpt>
      <trkpt lat="42.1368210017681121826171875" lon="3.0694355070590972900390625">
        <ele>12.80000019073486328125</ele>
        <time>2022-07-28T12:03:59.000Z</time>
      </trkpt>
      <trkpt lat="42.1366645954549312591552734375" lon="3.070133216679096221923828125">
        <ele>13</ele>
        <time>2022-07-28T12:04:07.000Z</time>
      </trkpt>
      <trkpt lat="42.13664489798247814178466796875" lon="3.07022164575755596160888671875">
        <ele>13</ele>
        <time>2022-07-28T12:04:08.000Z</time>
      </trkpt>
      <trkpt lat="42.13648295961320400238037109375" lon="3.0709320120513439178466796875">
        <ele>12.3999996185302734375</ele>
        <time>2022-07-28T12:04:16.000Z</time>
      </trkpt>
      <trkpt lat="42.1364181675016880035400390625" lon="3.0712005682289600372314453125">
        <ele>12.19999980926513671875</ele>
        <time>2022-07-28T12:04:19.000Z</time>
      </trkpt>
      <trkpt lat="42.13625228963792324066162109375" lon="3.07192736305296421051025390625">
        <ele>12</ele>
        <time>2022-07-28T12:04:27.000Z</time>
      </trkpt>
      <trkpt lat="42.13623217307031154632568359375" lon="3.072019480168819427490234375">
        <ele>12</ele>
        <time>2022-07-28T12:04:28.000Z</time>
      </trkpt>
      <trkpt lat="42.1361905150115489959716796875" lon="3.07220296002924442291259765625">
        <ele>11.80000019073486328125</ele>
        <time>2022-07-28T12:04:30.000Z</time>
      </trkpt>
      <trkpt lat="42.13615086860954761505126953125" lon="3.0723859369754791259765625">
        <ele>11.6000003814697265625</ele>
        <time>2022-07-28T12:04:32.000Z</time>
      </trkpt>
      <trkpt lat="42.13600770570337772369384765625" lon="3.07301885448396205902099609375">
        <ele>11.19999980926513671875</ele>
        <time>2022-07-28T12:04:39.000Z</time>
      </trkpt>
      <trkpt lat="42.13583788834512233734130859375" lon="3.07374506257474422454833984375">
        <ele>10.6000003814697265625</ele>
        <time>2022-07-28T12:04:47.000Z</time>
      </trkpt>
      <trkpt lat="42.13581643067300319671630859375" lon="3.07383625768125057220458984375">
        <ele>10.6000003814697265625</ele>
        <time>2022-07-28T12:04:48.000Z</time>
      </trkpt>
      <trkpt lat="42.135645188391208648681640625" lon="3.0745895393192768096923828125">
        <ele>10.6000003814697265625</ele>
        <time>2022-07-28T12:04:56.000Z</time>
      </trkpt>
      <trkpt lat="42.13562297634780406951904296875" lon="3.07468752376735210418701171875">
        <ele>10.3999996185302734375</ele>
        <time>2022-07-28T12:04:57.000Z</time>
      </trkpt>
      <trkpt lat="42.13560068048536777496337890625" lon="3.07478710077702999114990234375">
        <ele>10.6000003814697265625</ele>
        <time>2022-07-28T12:04:58.000Z</time>
      </trkpt>
      <trkpt lat="42.1354369819164276123046875" lon="3.0755182541906833648681640625">
        <ele>10.6000003814697265625</ele>
        <time>2022-07-28T12:05:05.000Z</time>
      </trkpt>
      <trkpt lat="42.13536699302494525909423828125" lon="3.075838945806026458740234375">
        <ele>10.3999996185302734375</ele>
        <time>2022-07-28T12:05:08.000Z</time>
      </trkpt>
      <trkpt lat="42.1352457068860530853271484375" lon="3.07638620026409626007080078125">
        <ele>9.19999980926513671875</ele>
        <time>2022-07-28T12:05:13.000Z</time>
      </trkpt>
      <trkpt lat="42.13515291921794414520263671875" lon="3.07684041559696197509765625">
        <ele>8.19999980926513671875</ele>
        <time>2022-07-28T12:05:17.000Z</time>
      </trkpt>
      <trkpt lat="42.13513045571744441986083984375" lon="3.0769552476704120635986328125">
        <ele>8</ele>
        <time>2022-07-28T12:05:18.000Z</time>
      </trkpt>
      <trkpt lat="42.13501780293881893157958984375" lon="3.077521361410617828369140625">
        <ele>6.80000019073486328125</ele>
        <time>2022-07-28T12:05:23.000Z</time>
      </trkpt>
      <trkpt lat="42.13497363030910491943359375" lon="3.077741973102092742919921875">
        <ele>6.400000095367431640625</ele>
        <time>2022-07-28T12:05:25.000Z</time>
      </trkpt>
      <trkpt lat="42.13490925729274749755859375" lon="3.078071214258670806884765625">
        <ele>5.599999904632568359375</ele>
        <time>2022-07-28T12:05:28.000Z</time>
      </trkpt>
      <trkpt lat="42.13482317514717578887939453125" lon="3.07847815565764904022216796875">
        <ele>4.599999904632568359375</ele>
        <time>2022-07-28T12:05:32.000Z</time>
      </trkpt>
      <trkpt lat="42.13478780351579189300537109375" lon="3.07856909930706024169921875">
        <ele>4.599999904632568359375</ele>
        <time>2022-07-28T12:05:33.000Z</time>
      </trkpt>
      <trkpt lat="42.13467054069042205810546875" lon="3.07870279066264629364013671875">
        <ele>4.400000095367431640625</ele>
        <time>2022-07-28T12:05:35.000Z</time>
      </trkpt>
      <trkpt lat="42.134528718888759613037109375" lon="3.07894653640687465667724609375">
        <ele>4.19999980926513671875</ele>
        <time>2022-07-28T12:05:38.000Z</time>
      </trkpt>
      <trkpt lat="42.13455713354051113128662109375" lon="3.0792636238038539886474609375">
        <ele>3.599999904632568359375</ele>
        <time>2022-07-28T12:05:41.000Z</time>
      </trkpt>
      <trkpt lat="42.13457892648875713348388671875" lon="3.07967282831668853759765625">
        <ele>3.599999904632568359375</ele>
        <time>2022-07-28T12:05:45.000Z</time>
      </trkpt>
      <trkpt lat="42.13456459343433380126953125" lon="3.079773746430873870849609375">
        <ele>3.400000095367431640625</ele>
        <time>2022-07-28T12:05:46.000Z</time>
      </trkpt>
      <trkpt lat="42.1345164813101291656494140625" lon="3.08007180690765380859375">
        <ele>3.400000095367431640625</ele>
        <time>2022-07-28T12:05:49.000Z</time>
      </trkpt>
      <trkpt lat="42.13444523513317108154296875" lon="3.0805614776909351348876953125">
        <ele>3</ele>
        <time>2022-07-28T12:05:54.000Z</time>
      </trkpt>
      <trkpt lat="42.13437792845070362091064453125" lon="3.0813510529696941375732421875">
        <ele>3</ele>
        <time>2022-07-28T12:06:02.000Z</time>
      </trkpt>
      <trkpt lat="42.13436434976756572723388671875" lon="3.08154861442744731903076171875">
        <ele>3</ele>
        <time>2022-07-28T12:06:04.000Z</time>
      </trkpt>
      <trkpt lat="42.13431305252015590667724609375" lon="3.0823092721402645111083984375">
        <ele>3</ele>
        <time>2022-07-28T12:06:12.000Z</time>
      </trkpt>
      <trkpt lat="42.13430047966539859771728515625" lon="3.082496188580989837646484375">
        <ele>3</ele>
        <time>2022-07-28T12:06:14.000Z</time>
      </trkpt>
      <trkpt lat="42.1342492662370204925537109375" lon="3.08322667144238948822021484375">
        <ele>2.7999999523162841796875</ele>
        <time>2022-07-28T12:06:22.000Z</time>
      </trkpt>
      <trkpt lat="42.13423744775354862213134765625" lon="3.0834076367318630218505859375">
        <ele>3</ele>
        <time>2022-07-28T12:06:24.000Z</time>
      </trkpt>
      <trkpt lat="42.13418179191648960113525390625" lon="3.0841992236673831939697265625">
        <ele>2.7999999523162841796875</ele>
        <time>2022-07-28T12:06:33.000Z</time>
      </trkpt>
      <trkpt lat="42.13417039252817630767822265625" lon="3.08437029831111431121826171875">
        <ele>2.7999999523162841796875</ele>
        <time>2022-07-28T12:06:35.000Z</time>
      </trkpt>
      <trkpt lat="42.13411892764270305633544921875" lon="3.08514143340289592742919921875">
        <ele>3</ele>
        <time>2022-07-28T12:06:44.000Z</time>
      </trkpt>
      <trkpt lat="42.13410794734954833984375" lon="3.08531326241791248321533203125">
        <ele>3.2000000476837158203125</ele>
        <time>2022-07-28T12:06:46.000Z</time>
      </trkpt>
      <trkpt lat="42.13405405171215534210205078125" lon="3.0860854871571063995361328125">
        <ele>3.400000095367431640625</ele>
        <time>2022-07-28T12:06:55.000Z</time>
      </trkpt>
      <trkpt lat="42.134040892124176025390625" lon="3.08625907637178897857666015625">
        <ele>3.2000000476837158203125</ele>
        <time>2022-07-28T12:06:57.000Z</time>
      </trkpt>
      <trkpt lat="42.13397811166942119598388671875" lon="3.08693566359579563140869140625">
        <ele>3.2000000476837158203125</ele>
        <time>2022-07-28T12:07:05.000Z</time>
      </trkpt>
      <trkpt lat="42.13388976640999317169189453125" lon="3.08760571293532848358154296875">
        <ele>3.2000000476837158203125</ele>
        <time>2022-07-28T12:07:13.000Z</time>
      </trkpt>
      <trkpt lat="42.13375716470181941986083984375" lon="3.08834834955632686614990234375">
        <ele>3.400000095367431640625</ele>
        <time>2022-07-28T12:07:22.000Z</time>
      </trkpt>
      <trkpt lat="42.13374123908579349517822265625" lon="3.08842915110290050506591796875">
        <ele>3.2000000476837158203125</ele>
        <time>2022-07-28T12:07:23.000Z</time>
      </trkpt>
      <trkpt lat="42.13359229266643524169921875" lon="3.0891696922481060028076171875">
        <ele>3.400000095367431640625</ele>
        <time>2022-07-28T12:07:32.000Z</time>
      </trkpt>
      <trkpt lat="42.1335572563111782073974609375" lon="3.08933816850185394287109375">
        <ele>3.400000095367431640625</ele>
        <time>2022-07-28T12:07:34.000Z</time>
      </trkpt>
      <trkpt lat="42.1335052885115146636962890625" lon="3.08959155343472957611083984375">
        <ele>3.599999904632568359375</ele>
        <time>2022-07-28T12:07:37.000Z</time>
      </trkpt>
      <trkpt lat="42.13338634930551052093505859375" lon="3.090193457901477813720703125">
        <ele>3.7999999523162841796875</ele>
        <time>2022-07-28T12:07:44.000Z</time>
      </trkpt>
      <trkpt lat="42.13322776369750499725341796875" lon="3.0909721367061138153076171875">
        <ele>3.599999904632568359375</ele>
        <time>2022-07-28T12:07:53.000Z</time>
      </trkpt>
      <trkpt lat="42.1331767179071903228759765625" lon="3.09122778475284576416015625">
        <ele>3.599999904632568359375</ele>
        <time>2022-07-28T12:07:56.000Z</time>
      </trkpt>
      <trkpt lat="42.1330530010163784027099609375" lon="3.0918629653751850128173828125">
        <ele>3.599999904632568359375</ele>
        <time>2022-07-28T12:08:04.000Z</time>
      </trkpt>
      <trkpt lat="42.133018970489501953125" lon="3.09203152544796466827392578125">
        <ele>4.400000095367431640625</ele>
        <time>2022-07-28T12:08:06.000Z</time>
      </trkpt>
      <trkpt lat="42.13285963051021099090576171875" lon="3.09281975962221622467041015625">
        <ele>4.80000019073486328125</ele>
        <time>2022-07-28T12:08:15.000Z</time>
      </trkpt>
      <trkpt lat="42.1327143721282482147216796875" lon="3.09353775344789028167724609375">
        <ele>4.19999980926513671875</ele>
        <time>2022-07-28T12:08:23.000Z</time>
      </trkpt>
      <trkpt lat="42.1326607279479503631591796875" lon="3.09380429796874523162841796875">
        <ele>4</ele>
        <time>2022-07-28T12:08:26.000Z</time>
      </trkpt>
      <trkpt lat="42.1325182355940341949462890625" lon="3.09452078305184841156005859375">
        <ele>4</ele>
        <time>2022-07-28T12:08:34.000Z</time>
      </trkpt>
      <trkpt lat="42.13237515650689601898193359375" lon="3.0952375195920467376708984375">
        <ele>3.7999999523162841796875</ele>
        <time>2022-07-28T12:08:42.000Z</time>
      </trkpt>
      <trkpt lat="42.1323405392467975616455078125" lon="3.09541345573961734771728515625">
        <ele>3.7999999523162841796875</ele>
        <time>2022-07-28T12:08:44.000Z</time>
      </trkpt>
      <trkpt lat="42.1321796067059040069580078125" lon="3.0961959064006805419921875">
        <ele>3.599999904632568359375</ele>
        <time>2022-07-28T12:08:53.000Z</time>
      </trkpt>
      <trkpt lat="42.1321313269436359405517578125" lon="3.0964502133429050445556640625">
        <ele>3.7999999523162841796875</ele>
        <time>2022-07-28T12:08:56.000Z</time>
      </trkpt>
      <trkpt lat="42.1319760940968990325927734375" lon="3.097213469445705413818359375">
        <ele>4</ele>
        <time>2022-07-28T12:09:05.000Z</time>
      </trkpt>
      <trkpt lat="42.1319589950144290924072265625" lon="3.09730072505772113800048828125">
        <ele>4</ele>
        <time>2022-07-28T12:09:06.000Z</time>
      </trkpt>
      <trkpt lat="42.131805606186389923095703125" lon="3.0980716086924076080322265625">
        <ele>4</ele>
        <time>2022-07-28T12:09:15.000Z</time>
      </trkpt>
      <trkpt lat="42.13178926147520542144775390625" lon="3.0981571041047573089599609375">
        <ele>3.7999999523162841796875</ele>
        <time>2022-07-28T12:09:16.000Z</time>
      </trkpt>
      <trkpt lat="42.13163671083748340606689453125" lon="3.09892245568335056304931640625">
        <ele>3.400000095367431640625</ele>
        <time>2022-07-28T12:09:25.000Z</time>
      </trkpt>
      <trkpt lat="42.13148449547588825225830078125" lon="3.09968604706227779388427734375">
        <ele>3.599999904632568359375</ele>
        <time>2022-07-28T12:09:34.000Z</time>
      </trkpt>
      <trkpt lat="42.13139824569225311279296875" lon="3.1001131050288677215576171875">
        <ele>3.400000095367431640625</ele>
        <time>2022-07-28T12:09:39.000Z</time>
      </trkpt>
      <trkpt lat="42.13127125985920429229736328125" lon="3.10075054876506328582763671875">
        <ele>3.400000095367431640625</ele>
        <time>2022-07-28T12:09:47.000Z</time>
      </trkpt>
      <trkpt lat="42.1312098205089569091796875" lon="3.1010548956692218780517578125">
        <ele>3.2000000476837158203125</ele>
        <time>2022-07-28T12:09:51.000Z</time>
      </trkpt>
      <trkpt lat="42.1310899592936038970947265625" lon="3.10164892114698886871337890625">
        <ele>2.7999999523162841796875</ele>
        <time>2022-07-28T12:09:59.000Z</time>
      </trkpt>
      <trkpt lat="42.1309424377977848052978515625" lon="3.1023923121392726898193359375">
        <ele>2.7999999523162841796875</ele>
        <time>2022-07-28T12:10:09.000Z</time>
      </trkpt>
      <trkpt lat="42.13082500733435153961181640625" lon="3.10298700816929340362548828125">
        <ele>2.7999999523162841796875</ele>
        <time>2022-07-28T12:10:17.000Z</time>
      </trkpt>
      <trkpt lat="42.13074102066457271575927734375" lon="3.1034229509532451629638671875">
        <ele>2.7999999523162841796875</ele>
        <time>2022-07-28T12:10:23.000Z</time>
      </trkpt>
      <trkpt lat="42.1306577883660793304443359375" lon="3.1038420461118221282958984375">
        <ele>3</ele>
        <time>2022-07-28T12:10:29.000Z</time>
      </trkpt>
      <trkpt lat="42.13051437400281429290771484375" lon="3.10455165803432464599609375">
        <ele>3</ele>
        <time>2022-07-28T12:10:38.000Z</time>
      </trkpt>
      <trkpt lat="42.130367942154407501220703125" lon="3.105268143117427825927734375">
        <ele>3</ele>
        <time>2022-07-28T12:10:47.000Z</time>
      </trkpt>
      <trkpt lat="42.130221761763095855712890625" lon="3.10599225573241710662841796875">
        <ele>3.2000000476837158203125</ele>
        <time>2022-07-28T12:10:56.000Z</time>
      </trkpt>
      <trkpt lat="42.1300723962485790252685546875" lon="3.1067264266312122344970703125">
        <ele>3.400000095367431640625</ele>
        <time>2022-07-28T12:11:05.000Z</time>
      </trkpt>
      <trkpt lat="42.12992529384791851043701171875" lon="3.10745724476873874664306640625">
        <ele>3.400000095367431640625</ele>
        <time>2022-07-28T12:11:14.000Z</time>
      </trkpt>
      <trkpt lat="42.1298936940729618072509765625" lon="3.10761247761547565460205078125">
        <ele>3.599999904632568359375</ele>
        <time>2022-07-28T12:11:16.000Z</time>
      </trkpt>
      <trkpt lat="42.129751704633235931396484375" lon="3.108318485319614410400390625">
        <ele>4</ele>
        <time>2022-07-28T12:11:25.000Z</time>
      </trkpt>
      <trkpt lat="42.12963092140853404998779296875" lon="3.1089265085756778717041015625">
        <ele>4.19999980926513671875</ele>
        <time>2022-07-28T12:11:33.000Z</time>
      </trkpt>
      <trkpt lat="42.12961583398282527923583984375" lon="3.1090019457042217254638671875">
        <ele>4.19999980926513671875</ele>
        <time>2022-07-28T12:11:34.000Z</time>
      </trkpt>
      <trkpt lat="42.12951139546930789947509765625" lon="3.10952506028115749359130859375">
        <ele>4.599999904632568359375</ele>
        <time>2022-07-28T12:11:41.000Z</time>
      </trkpt>
      <trkpt lat="42.12938801385462284088134765625" lon="3.11016560532152652740478515625">
        <ele>5</ele>
        <time>2022-07-28T12:11:50.000Z</time>
      </trkpt>
      <trkpt lat="42.12936202995479106903076171875" lon="3.11037247069180011749267578125">
        <ele>5.19999980926513671875</ele>
        <time>2022-07-28T12:11:53.000Z</time>
      </trkpt>
      <trkpt lat="42.1293448470532894134521484375" lon="3.110723085701465606689453125">
        <ele>6</ele>
        <time>2022-07-28T12:11:58.000Z</time>
      </trkpt>
      <trkpt lat="42.12934174574911594390869140625" lon="3.11079257167875766754150390625">
        <ele>6.19999980926513671875</ele>
        <time>2022-07-28T12:11:59.000Z</time>
      </trkpt>
      <trkpt lat="42.129331938922405242919921875" lon="3.110925592482089996337890625">
        <ele>6.400000095367431640625</ele>
        <time>2022-07-28T12:12:01.000Z</time>
      </trkpt>
      <trkpt lat="42.1292868442833423614501953125" lon="3.11103296466171741485595703125">
        <ele>6.400000095367431640625</ele>
        <time>2022-07-28T12:12:03.000Z</time>
      </trkpt>
      <trkpt lat="42.12922305800020694732666015625" lon="3.111107312142848968505859375">
        <ele>6.599999904632568359375</ele>
        <time>2022-07-28T12:12:05.000Z</time>
      </trkpt>
      <trkpt lat="42.12911878712475299835205078125" lon="3.11127126216888427734375">
        <ele>6.599999904632568359375</ele>
        <time>2022-07-28T12:12:09.000Z</time>
      </trkpt>
      <trkpt lat="42.12905709631741046905517578125" lon="3.11144091188907623291015625">
        <ele>6.80000019073486328125</ele>
        <time>2022-07-28T12:12:14.000Z</time>
      </trkpt>
      <trkpt lat="42.1290642209351062774658203125" lon="3.1114538200199604034423828125">
        <ele>6.80000019073486328125</ele>
        <time>2022-07-28T12:12:18.000Z</time>
      </trkpt>
      <trkpt lat="42.12906950153410434722900390625" lon="3.11145876534283161163330078125">
        <ele>7.400000095367431640625</ele>
        <time>2022-07-28T12:12:22.000Z</time>
      </trkpt>
      <trkpt lat="42.1290694177150726318359375" lon="3.1114578433334827423095703125">
        <ele>7.599999904632568359375</ele>
        <time>2022-07-28T12:12:23.000Z</time>
      </trkpt>
      <trkpt lat="42.12906950153410434722900390625" lon="3.1114576756954193115234375">
        <ele>8.3999996185302734375</ele>
        <time>2022-07-28T12:12:25.000Z</time>
      </trkpt>
      <trkpt lat="42.12907989509403705596923828125" lon="3.11195212416350841522216796875">
        <ele>9</ele>
        <time>2022-07-28T12:20:43.000Z</time>
      </trkpt>
      <trkpt lat="42.129046954214572906494140625" lon="3.1120217777788639068603515625">
        <ele>8.80000019073486328125</ele>
        <time>2022-07-28T12:20:45.000Z</time>
      </trkpt>
      <trkpt lat="42.12892516516149044036865234375" lon="3.1123195029795169830322265625">
        <ele>8.19999980926513671875</ele>
        <time>2022-07-28T12:20:52.000Z</time>
      </trkpt>
      <trkpt lat="42.12889306247234344482421875" lon="3.11241715215146541595458984375">
        <ele>7.599999904632568359375</ele>
        <time>2022-07-28T12:20:54.000Z</time>
      </trkpt>
      <trkpt lat="42.128831706941127777099609375" lon="3.112645559012889862060546875">
        <ele>7.19999980926513671875</ele>
        <time>2022-07-28T12:20:58.000Z</time>
      </trkpt>
      <trkpt lat="42.12865476496517658233642578125" lon="3.113243021070957183837890625">
        <ele>7</ele>
        <time>2022-07-28T12:21:08.000Z</time>
      </trkpt>
      <trkpt lat="42.1284214965999126434326171875" lon="3.11382849700748920440673828125">
        <ele>8</ele>
        <time>2022-07-28T12:21:18.000Z</time>
      </trkpt>
      <trkpt lat="42.1281923353672027587890625" lon="3.1142728216946125030517578125">
        <ele>8.3999996185302734375</ele>
        <time>2022-07-28T12:21:26.000Z</time>
      </trkpt>
      <trkpt lat="42.12806954048573970794677734375" lon="3.1144924275577068328857421875">
        <ele>8.3999996185302734375</ele>
        <time>2022-07-28T12:21:30.000Z</time>
      </trkpt>
      <trkpt lat="42.1278622560203075408935546875" lon="3.11480934731662273406982421875">
        <ele>8.80000019073486328125</ele>
        <time>2022-07-28T12:21:36.000Z</time>
      </trkpt>
      <trkpt lat="42.127575762569904327392578125" lon="3.1152095831930637359619140625">
        <ele>9.3999996185302734375</ele>
        <time>2022-07-28T12:21:44.000Z</time>
      </trkpt>
      <trkpt lat="42.12732153944671154022216796875" lon="3.1155512295663356781005859375">
        <ele>9.3999996185302734375</ele>
        <time>2022-07-28T12:21:51.000Z</time>
      </trkpt>
      <trkpt lat="42.1270673163235187530517578125" lon="3.1159089691936969757080078125">
        <ele>9.19999980926513671875</ele>
        <time>2022-07-28T12:21:58.000Z</time>
      </trkpt>
      <trkpt lat="42.126669175922870635986328125" lon="3.1164618395268917083740234375">
        <ele>8.6000003814697265625</ele>
        <time>2022-07-28T12:22:07.000Z</time>
      </trkpt>
      <trkpt lat="42.12642920203506946563720703125" lon="3.1167736463248729705810546875">
        <ele>7.400000095367431640625</ele>
        <time>2022-07-28T12:22:12.000Z</time>
      </trkpt>
      <trkpt lat="42.12618939578533172607421875" lon="3.11708821915090084075927734375">
        <ele>6.400000095367431640625</ele>
        <time>2022-07-28T12:22:17.000Z</time>
      </trkpt>
      <trkpt lat="42.12614036165177822113037109375" lon="3.117152340710163116455078125">
        <ele>6.400000095367431640625</ele>
        <time>2022-07-28T12:22:18.000Z</time>
      </trkpt>
      <trkpt lat="42.1257469989359378814697265625" lon="3.11766774393618106842041015625">
        <ele>6.19999980926513671875</ele>
        <time>2022-07-28T12:22:26.000Z</time>
      </trkpt>
      <trkpt lat="42.12560643441975116729736328125" lon="3.11785407364368438720703125">
        <ele>6.400000095367431640625</ele>
        <time>2022-07-28T12:22:29.000Z</time>
      </trkpt>
      <trkpt lat="42.12526403367519378662109375" lon="3.11830409802496433258056640625">
        <ele>6.19999980926513671875</ele>
        <time>2022-07-28T12:22:37.000Z</time>
      </trkpt>
      <trkpt lat="42.12496505118906497955322265625" lon="3.1187048368155956268310546875">
        <ele>6.400000095367431640625</ele>
        <time>2022-07-28T12:22:44.000Z</time>
      </trkpt>
      <trkpt lat="42.1249242313206195831298828125" lon="3.1187571398913860321044921875">
        <ele>6.400000095367431640625</ele>
        <time>2022-07-28T12:22:45.000Z</time>
      </trkpt>
      <trkpt lat="42.12477645836770534515380859375" lon="3.118962161242961883544921875">
        <ele>6.400000095367431640625</ele>
        <time>2022-07-28T12:22:49.000Z</time>
      </trkpt>
      <trkpt lat="42.12454679422080516815185546875" lon="3.1193502433598041534423828125">
        <ele>6.599999904632568359375</ele>
        <time>2022-07-28T12:22:57.000Z</time>
      </trkpt>
      <trkpt lat="42.12439944036304950714111328125" lon="3.11952911317348480224609375">
        <ele>6.599999904632568359375</ele>
        <time>2022-07-28T12:23:02.000Z</time>
      </trkpt>
      <trkpt lat="42.12426348589360713958740234375" lon="3.11965207569301128387451171875">
        <ele>6.599999904632568359375</ele>
        <time>2022-07-28T12:23:07.000Z</time>
      </trkpt>
      <trkpt lat="42.1241946704685688018798828125" lon="3.11969163827598094940185546875">
        <ele>6.599999904632568359375</ele>
        <time>2022-07-28T12:23:09.000Z</time>
      </trkpt>
      <trkpt lat="42.12405033409595489501953125" lon="3.11978048644959926605224609375">
        <ele>6.80000019073486328125</ele>
        <time>2022-07-28T12:23:12.000Z</time>
      </trkpt>
      <trkpt lat="42.1240018866956233978271484375" lon="3.11983094550669193267822265625">
        <ele>6.80000019073486328125</ele>
        <time>2022-07-28T12:23:13.000Z</time>
      </trkpt>
      <trkpt lat="42.1239123679697513580322265625" lon="3.120051138103008270263671875">
        <ele>6.599999904632568359375</ele>
        <time>2022-07-28T12:23:16.000Z</time>
      </trkpt>
      <trkpt lat="42.1239304728806018829345703125" lon="3.12029245309531688690185546875">
        <ele>6.400000095367431640625</ele>
        <time>2022-07-28T12:23:19.000Z</time>
      </trkpt>
      <trkpt lat="42.12405125610530376434326171875" lon="3.12045925296843051910400390625">
        <ele>6</ele>
        <time>2022-07-28T12:23:22.000Z</time>
      </trkpt>
      <trkpt lat="42.1242794953286647796630859375" lon="3.12052630819380283355712890625">
        <ele>5.80000019073486328125</ele>
        <time>2022-07-28T12:23:26.000Z</time>
      </trkpt>
      <trkpt lat="42.12451276369392871856689453125" lon="3.1206796132028102874755859375">
        <ele>5.599999904632568359375</ele>
        <time>2022-07-28T12:23:30.000Z</time>
      </trkpt>
      <trkpt lat="42.1246462874114513397216796875" lon="3.12089477665722370147705078125">
        <ele>5.19999980926513671875</ele>
        <time>2022-07-28T12:23:33.000Z</time>
      </trkpt>
      <trkpt lat="42.1246875263750553131103515625" lon="3.120972812175750732421875">
        <ele>5.19999980926513671875</ele>
        <time>2022-07-28T12:23:34.000Z</time>
      </trkpt>
      <trkpt lat="42.12488274089992046356201171875" lon="3.12146072275936603546142578125">
        <ele>4.599999904632568359375</ele>
        <time>2022-07-28T12:23:40.000Z</time>
      </trkpt>
      <trkpt lat="42.12510754354298114776611328125" lon="3.122171424329280853271484375">
        <ele>4.400000095367431640625</ele>
        <time>2022-07-28T12:23:49.000Z</time>
      </trkpt>
      <trkpt lat="42.1252112276852130889892578125" lon="3.12267777509987354278564453125">
        <ele>4.400000095367431640625</ele>
        <time>2022-07-28T12:23:55.000Z</time>
      </trkpt>
      <trkpt lat="42.12524735368788242340087890625" lon="3.12292889691889286041259765625">
        <ele>4.400000095367431640625</ele>
        <time>2022-07-28T12:23:58.000Z</time>
      </trkpt>
      <trkpt lat="42.12525338865816593170166015625" lon="3.1231050007045269012451171875">
        <ele>4.400000095367431640625</ele>
        <time>2022-07-28T12:24:00.000Z</time>
      </trkpt>
      <trkpt lat="42.1252601779997348785400390625" lon="3.12319460324943065643310546875">
        <ele>4.19999980926513671875</ele>
        <time>2022-07-28T12:24:01.000Z</time>
      </trkpt>
      <trkpt lat="42.1253111399710178375244140625" lon="3.12336173839867115020751953125">
        <ele>4</ele>
        <time>2022-07-28T12:24:03.000Z</time>
      </trkpt>
      <trkpt lat="42.125377357006072998046875" lon="3.123617805540561676025390625">
        <ele>3.599999904632568359375</ele>
        <time>2022-07-28T12:24:06.000Z</time>
      </trkpt>
      <trkpt lat="42.12539269588887691497802734375" lon="3.12370807863771915435791015625">
        <ele>3.599999904632568359375</ele>
        <time>2022-07-28T12:24:07.000Z</time>
      </trkpt>
      <trkpt lat="42.12551808916032314300537109375" lon="3.12442942522466182708740234375">
        <ele>3.2000000476837158203125</ele>
        <time>2022-07-28T12:24:15.000Z</time>
      </trkpt>
      <trkpt lat="42.125531248748302459716796875" lon="3.12452070415019989013671875">
        <ele>3.2000000476837158203125</ele>
        <time>2022-07-28T12:24:16.000Z</time>
      </trkpt>
      <trkpt lat="42.12566862814128398895263671875" lon="3.12531153671443462371826171875">
        <ele>2.7999999523162841796875</ele>
        <time>2022-07-28T12:24:25.000Z</time>
      </trkpt>
      <trkpt lat="42.12576719932258129119873046875" lon="3.12583322636783123016357421875">
        <ele>2.7999999523162841796875</ele>
        <time>2022-07-28T12:24:31.000Z</time>
      </trkpt>
      <trkpt lat="42.12579376995563507080078125" lon="3.12600396573543548583984375">
        <ele>3</ele>
        <time>2022-07-28T12:24:33.000Z</time>
      </trkpt>
      <trkpt lat="42.12592427618801593780517578125" lon="3.12627662904560565948486328125">
        <ele>3.400000095367431640625</ele>
        <time>2022-07-28T12:24:37.000Z</time>
      </trkpt>
      <trkpt lat="42.12606056593358516693115234375" lon="3.126399926841259002685546875">
        <ele>3.599999904632568359375</ele>
        <time>2022-07-28T12:24:40.000Z</time>
      </trkpt>
      <trkpt lat="42.126194424927234649658203125" lon="3.12650495208799839019775390625">
        <ele>4</ele>
        <time>2022-07-28T12:24:43.000Z</time>
      </trkpt>
      <trkpt lat="42.12623725645244121551513671875" lon="3.12654040753841400146484375">
        <ele>4.19999980926513671875</ele>
        <time>2022-07-28T12:24:44.000Z</time>
      </trkpt>
      <trkpt lat="42.12628100998699665069580078125" lon="3.12657167203724384307861328125">
        <ele>4.400000095367431640625</ele>
        <time>2022-07-28T12:24:45.000Z</time>
      </trkpt>
      <trkpt lat="42.12644152343273162841796875" lon="3.12666471116244792938232421875">
        <ele>5.19999980926513671875</ele>
        <time>2022-07-28T12:24:49.000Z</time>
      </trkpt>
      <trkpt lat="42.1265013702213764190673828125" lon="3.12667175196111202239990234375">
        <ele>5.80000019073486328125</ele>
        <time>2022-07-28T12:24:51.000Z</time>
      </trkpt>
      <trkpt lat="42.12656356394290924072265625" lon="3.126738555729389190673828125">
        <ele>6.599999904632568359375</ele>
        <time>2022-07-28T12:24:53.000Z</time>
      </trkpt>
      <trkpt lat="42.12663472630083560943603515625" lon="3.12682363204658031463623046875">
        <ele>7.599999904632568359375</ele>
        <time>2022-07-28T12:24:55.000Z</time>
      </trkpt>
      <trkpt lat="42.1267588622868061065673828125" lon="3.12691248022019863128662109375">
        <ele>8.3999996185302734375</ele>
        <time>2022-07-28T12:24:58.000Z</time>
      </trkpt>
      <trkpt lat="42.1268711797893047332763671875" lon="3.126985989511013031005859375">
        <ele>8.6000003814697265625</ele>
        <time>2022-07-28T12:25:01.000Z</time>
      </trkpt>
      <trkpt lat="42.12696866132318973541259765625" lon="3.12705044634640216827392578125">
        <ele>9</ele>
        <time>2022-07-28T12:25:04.000Z</time>
      </trkpt>
      <trkpt lat="42.12716530077159404754638671875" lon="3.12721003778278827667236328125">
        <ele>9.80000019073486328125</ele>
        <time>2022-07-28T12:25:10.000Z</time>
      </trkpt>
      <trkpt lat="42.1272265724837779998779296875" lon="3.1272778473794460296630859375">
        <ele>10.19999980926513671875</ele>
        <time>2022-07-28T12:25:12.000Z</time>
      </trkpt>
      <trkpt lat="42.127371914684772491455078125" lon="3.1275574676692485809326171875">
        <ele>10.80000019073486328125</ele>
        <time>2022-07-28T12:25:19.000Z</time>
      </trkpt>
      <trkpt lat="42.1274012513458728790283203125" lon="3.12776475213468074798583984375">
        <ele>11</ele>
        <time>2022-07-28T12:25:23.000Z</time>
      </trkpt>
      <trkpt lat="42.12740234099328517913818359375" lon="3.12792585231363773345947265625">
        <ele>11.80000019073486328125</ele>
        <time>2022-07-28T12:25:26.000Z</time>
      </trkpt>
      <trkpt lat="42.127336375415325164794921875" lon="3.12816448509693145751953125">
        <ele>12.80000019073486328125</ele>
        <time>2022-07-28T12:25:31.000Z</time>
      </trkpt>
      <trkpt lat="42.127303518354892730712890625" lon="3.12819759361445903778076171875">
        <ele>13</ele>
        <time>2022-07-28T12:25:32.000Z</time>
      </trkpt>
      <trkpt lat="42.12718441151082515716552734375" lon="3.12824000604450702667236328125">
        <ele>13.80000019073486328125</ele>
        <time>2022-07-28T12:25:35.000Z</time>
      </trkpt>
      <trkpt lat="42.12714501656591892242431640625" lon="3.12824671156704425811767578125">
        <ele>14.19999980926513671875</ele>
        <time>2022-07-28T12:25:36.000Z</time>
      </trkpt>
      <trkpt lat="42.12701342068612575531005859375" lon="3.12831058166921138763427734375">
        <ele>15</ele>
        <time>2022-07-28T12:25:40.000Z</time>
      </trkpt>
      <trkpt lat="42.12695918977260589599609375" lon="3.12834595330059528350830078125">
        <ele>16</ele>
        <time>2022-07-28T12:25:42.000Z</time>
      </trkpt>
      <trkpt lat="42.1269348822534084320068359375" lon="3.1283661536872386932373046875">
        <ele>16.3999996185302734375</ele>
        <time>2022-07-28T12:25:43.000Z</time>
      </trkpt>
      <trkpt lat="42.12667487561702728271484375" lon="3.128730095922946929931640625">
        <ele>19.6000003814697265625</ele>
        <time>2022-07-28T12:26:25.000Z</time>
      </trkpt>
      <trkpt lat="42.1266646496951580047607421875" lon="3.1287805549800395965576171875">
        <ele>19.6000003814697265625</ele>
        <time>2022-07-28T12:26:26.000Z</time>
      </trkpt>
      <trkpt lat="42.126680575311183929443359375" lon="3.12894676811993122100830078125">
        <ele>19.6000003814697265625</ele>
        <time>2022-07-28T12:26:29.000Z</time>
      </trkpt>
      <trkpt lat="42.1266834251582622528076171875" lon="3.1290045194327831268310546875">
        <ele>19.6000003814697265625</ele>
        <time>2022-07-28T12:26:30.000Z</time>
      </trkpt>
      <trkpt lat="42.12664537131786346435546875" lon="3.129312805831432342529296875">
        <ele>19</ele>
        <time>2022-07-28T12:26:36.000Z</time>
      </trkpt>
      <trkpt lat="42.1266207285225391387939453125" lon="3.1295295618474483489990234375">
        <ele>18.3999996185302734375</ele>
        <time>2022-07-28T12:26:40.000Z</time>
      </trkpt>
      <trkpt lat="42.126610167324542999267578125" lon="3.1295899115502834320068359375">
        <ele>18.3999996185302734375</ele>
        <time>2022-07-28T12:26:41.000Z</time>
      </trkpt>
      <trkpt lat="42.126560211181640625" lon="3.13009525649249553680419921875">
        <ele>17.200000762939453125</ele>
        <time>2022-07-28T12:26:48.000Z</time>
      </trkpt>
      <trkpt lat="42.12655677460134029388427734375" lon="3.130304552614688873291015625">
        <ele>16</ele>
        <time>2022-07-28T12:26:51.000Z</time>
      </trkpt>
      <trkpt lat="42.12655023671686649322509765625" lon="3.1304274313151836395263671875">
        <ele>15.80000019073486328125</ele>
        <time>2022-07-28T12:26:53.000Z</time>
      </trkpt>
      <trkpt lat="42.12644831277430057525634765625" lon="3.13088717870414257049560546875">
        <ele>16</ele>
        <time>2022-07-28T12:27:01.000Z</time>
      </trkpt>
      <trkpt lat="42.1264383383095264434814453125" lon="3.13094585202634334564208984375">
        <ele>16</ele>
        <time>2022-07-28T12:27:02.000Z</time>
      </trkpt>
      <trkpt lat="42.12637002579867839813232421875" lon="3.131273500621318817138671875">
        <ele>16.200000762939453125</ele>
        <time>2022-07-28T12:27:07.000Z</time>
      </trkpt>
      <trkpt lat="42.1262584626674652099609375" lon="3.1318148039281368255615234375">
        <ele>15.19999980926513671875</ele>
        <time>2022-07-28T12:27:14.000Z</time>
      </trkpt>
      <trkpt lat="42.1262422017753124237060546875" lon="3.13188211061060428619384765625">
        <ele>14.80000019073486328125</ele>
        <time>2022-07-28T12:27:15.000Z</time>
      </trkpt>
      <trkpt lat="42.1262311376631259918212890625" lon="3.1319526024162769317626953125">
        <ele>14.3999996185302734375</ele>
        <time>2022-07-28T12:27:16.000Z</time>
      </trkpt>
      <trkpt lat="42.12621931917965412139892578125" lon="3.13202007673680782318115234375">
        <ele>13.80000019073486328125</ele>
        <time>2022-07-28T12:27:17.000Z</time>
      </trkpt>
      <trkpt lat="42.12620356120169162750244140625" lon="3.132149912416934967041015625">
        <ele>12.6000003814697265625</ele>
        <time>2022-07-28T12:27:19.000Z</time>
      </trkpt>
      <trkpt lat="42.12615679018199443817138671875" lon="3.1323455460369586944580078125">
        <ele>11.3999996185302734375</ele>
        <time>2022-07-28T12:27:23.000Z</time>
      </trkpt>
      <trkpt lat="42.12611286900937557220458984375" lon="3.13250957988202571868896484375">
        <ele>10.80000019073486328125</ele>
        <time>2022-07-28T12:27:28.000Z</time>
      </trkpt>
      <trkpt lat="42.12609593756496906280517578125" lon="3.13262055628001689910888671875">
        <ele>10.6000003814697265625</ele>
        <time>2022-07-28T12:27:31.000Z</time>
      </trkpt>
      <trkpt lat="42.12608302943408489227294921875" lon="3.1326630525290966033935546875">
        <ele>10.3999996185302734375</ele>
        <time>2022-07-28T12:27:32.000Z</time>
      </trkpt>
      <trkpt lat="42.12600700557231903076171875" lon="3.13285575248301029205322265625">
        <ele>9.3999996185302734375</ele>
        <time>2022-07-28T12:27:36.000Z</time>
      </trkpt>
      <trkpt lat="42.1259867213666439056396484375" lon="3.13291057012975215911865234375">
        <ele>9</ele>
        <time>2022-07-28T12:27:38.000Z</time>
      </trkpt>
      <trkpt lat="42.12618562392890453338623046875" lon="3.13518525101244449615478515625">
        <ele>5.599999904632568359375</ele>
        <time>2022-07-28T14:43:32.000Z</time>
      </trkpt>
      <trkpt lat="42.1260517649352550506591796875" lon="3.1352010928094387054443359375">
        <ele>5.599999904632568359375</ele>
        <time>2022-07-28T14:43:38.000Z</time>
      </trkpt>
      <trkpt lat="42.1259334124624729156494140625" lon="3.13523772172629833221435546875">
        <ele>5.599999904632568359375</ele>
        <time>2022-07-28T14:43:43.000Z</time>
      </trkpt>
      <trkpt lat="42.1257875673472881317138671875" lon="3.135288767516613006591796875">
        <ele>5.400000095367431640625</ele>
        <time>2022-07-28T14:43:48.000Z</time>
      </trkpt>
      <trkpt lat="42.1256477572023868560791015625" lon="3.1353318504989147186279296875">
        <ele>5.599999904632568359375</ele>
        <time>2022-07-28T14:43:53.000Z</time>
      </trkpt>
      <trkpt lat="42.1254412271082401275634765625" lon="3.13537552021443843841552734375">
        <ele>6.400000095367431640625</ele>
        <time>2022-07-28T14:43:59.000Z</time>
      </trkpt>
      <trkpt lat="42.12528708390891551971435546875" lon="3.13543469645082950592041015625">
        <ele>6.400000095367431640625</ele>
        <time>2022-07-28T14:44:05.000Z</time>
      </trkpt>
      <trkpt lat="42.12515230290591716766357421875" lon="3.13551901839673519134521484375">
        <ele>6.80000019073486328125</ele>
        <time>2022-07-28T14:44:10.000Z</time>
      </trkpt>
      <trkpt lat="42.124984748661518096923828125" lon="3.13558439724147319793701171875">
        <ele>7.19999980926513671875</ele>
        <time>2022-07-28T14:44:16.000Z</time>
      </trkpt>
      <trkpt lat="42.1247988380491733551025390625" lon="3.1356590799987316131591796875">
        <ele>7.400000095367431640625</ele>
        <time>2022-07-28T14:44:22.000Z</time>
      </trkpt>
      <trkpt lat="42.12458535097539424896240234375" lon="3.13570241443812847137451171875">
        <ele>7.599999904632568359375</ele>
        <time>2022-07-28T14:44:28.000Z</time>
      </trkpt>
      <trkpt lat="42.1245178766548633575439453125" lon="3.135722614824771881103515625">
        <ele>8.19999980926513671875</ele>
        <time>2022-07-28T14:44:30.000Z</time>
      </trkpt>
      <trkpt lat="42.12438284419476985931396484375" lon="3.13576142303645610809326171875">
        <ele>9.19999980926513671875</ele>
        <time>2022-07-28T14:44:34.000Z</time>
      </trkpt>
      <trkpt lat="42.1242053993046283721923828125" lon="3.13581724651157855987548828125">
        <ele>9.3999996185302734375</ele>
        <time>2022-07-28T14:44:39.000Z</time>
      </trkpt>
      <trkpt lat="42.1241658367216587066650390625" lon="3.13582160510122776031494140625">
        <ele>9.3999996185302734375</ele>
        <time>2022-07-28T14:44:40.000Z</time>
      </trkpt>
      <trkpt lat="42.12397263385355472564697265625" lon="3.1358666159212589263916015625">
        <ele>10</ele>
        <time>2022-07-28T14:44:46.000Z</time>
      </trkpt>
      <trkpt lat="42.12385428138077259063720703125" lon="3.13590399920940399169921875">
        <ele>10.80000019073486328125</ele>
        <time>2022-07-28T14:44:50.000Z</time>
      </trkpt>
      <trkpt lat="42.123809941112995147705078125" lon="3.13592453487217426300048828125">
        <ele>11.19999980926513671875</ele>
        <time>2022-07-28T14:44:52.000Z</time>
      </trkpt>
      <trkpt lat="42.12377716787159442901611328125" lon="3.1357952021062374114990234375">
        <ele>11.6000003814697265625</ele>
        <time>2022-07-28T14:44:56.000Z</time>
      </trkpt>
      <trkpt lat="42.1237433888018131256103515625" lon="3.13566033728420734405517578125">
        <ele>12.19999980926513671875</ele>
        <time>2022-07-28T14:44:59.000Z</time>
      </trkpt>
      <trkpt lat="42.123676501214504241943359375" lon="3.13552823849022388458251953125">
        <ele>12.3999996185302734375</ele>
        <time>2022-07-28T14:45:03.000Z</time>
      </trkpt>
      <trkpt lat="42.12360919453203678131103515625" lon="3.13532355241477489471435546875">
        <ele>13.19999980926513671875</ele>
        <time>2022-07-28T14:45:10.000Z</time>
      </trkpt>
      <trkpt lat="42.1235977113246917724609375" lon="3.13529455102980136871337890625">
        <ele>13.3999996185302734375</ele>
        <time>2022-07-28T14:45:11.000Z</time>
      </trkpt>
      <trkpt lat="42.123536355793476104736328125" lon="3.1351326964795589447021484375">
        <ele>14</ele>
        <time>2022-07-28T14:45:16.000Z</time>
      </trkpt>
      <trkpt lat="42.12350157089531421661376953125" lon="3.1348996795713901519775390625">
        <ele>14.3999996185302734375</ele>
        <time>2022-07-28T14:45:22.000Z</time>
      </trkpt>
      <trkpt lat="42.12349151261150836944580078125" lon="3.13482164405286312103271484375">
        <ele>15.19999980926513671875</ele>
        <time>2022-07-28T14:45:24.000Z</time>
      </trkpt>
      <trkpt lat="42.1234547160565853118896484375" lon="3.1346304528415203094482421875">
        <ele>15.80000019073486328125</ele>
        <time>2022-07-28T14:45:29.000Z</time>
      </trkpt>
      <trkpt lat="42.12340936996042728424072265625" lon="3.1343947537243366241455078125">
        <ele>15.80000019073486328125</ele>
        <time>2022-07-28T14:45:35.000Z</time>
      </trkpt>
      <trkpt lat="42.12339461781084537506103515625" lon="3.13430615700781345367431640625">
        <ele>15.80000019073486328125</ele>
        <time>2022-07-28T14:45:38.000Z</time>
      </trkpt>
      <trkpt lat="42.1233313344419002532958984375" lon="3.1340152211487293243408203125">
        <ele>16.799999237060546875</ele>
        <time>2022-07-28T14:45:54.000Z</time>
      </trkpt>
      <trkpt lat="42.123322449624538421630859375" lon="3.13394841738045215606689453125">
        <ele>16.799999237060546875</ele>
        <time>2022-07-28T14:45:56.000Z</time>
      </trkpt>
      <trkpt lat="42.1232570707798004150390625" lon="3.13360995613038539886474609375">
        <ele>17</ele>
        <time>2022-07-28T14:46:04.000Z</time>
      </trkpt>
      <trkpt lat="42.12319060228765010833740234375" lon="3.13322304747998714447021484375">
        <ele>17.6000003814697265625</ele>
        <time>2022-07-28T14:46:12.000Z</time>
      </trkpt>
      <trkpt lat="42.123152799904346466064453125" lon="3.13300796784460544586181640625">
        <ele>18.6000003814697265625</ele>
        <time>2022-07-28T14:46:17.000Z</time>
      </trkpt>
      <trkpt lat="42.1231345273554325103759765625" lon="3.1328826583921909332275390625">
        <ele>19.3999996185302734375</ele>
        <time>2022-07-28T14:46:20.000Z</time>
      </trkpt>
      <trkpt lat="42.12312757037580013275146484375" lon="3.1328434310853481292724609375">
        <ele>19.6000003814697265625</ele>
        <time>2022-07-28T14:46:21.000Z</time>
      </trkpt>
      <trkpt lat="42.12309856899082660675048828125" lon="3.13265039585530757904052734375">
        <ele>20.200000762939453125</ele>
        <time>2022-07-28T14:46:26.000Z</time>
      </trkpt>
      <trkpt lat="42.12308817543089389801025390625" lon="3.13256892375648021697998046875">
        <ele>20.799999237060546875</ele>
        <time>2022-07-28T14:46:28.000Z</time>
      </trkpt>
      <trkpt lat="42.12305649183690547943115234375" lon="3.13232182525098323822021484375">
        <ele>22</ele>
        <time>2022-07-28T14:46:34.000Z</time>
      </trkpt>
      <trkpt lat="42.1230500377714633941650390625" lon="3.13228192739188671112060546875">
        <ele>22.200000762939453125</ele>
        <time>2022-07-28T14:46:35.000Z</time>
      </trkpt>
      <trkpt lat="42.1230091340839862823486328125" lon="3.1320501677691936492919921875">
        <ele>23.200000762939453125</ele>
        <time>2022-07-28T14:46:41.000Z</time>
      </trkpt>
      <trkpt lat="42.1229437552392482757568359375" lon="3.13175269402563571929931640625">
        <ele>24.6000003814697265625</ele>
        <time>2022-07-28T14:46:48.000Z</time>
      </trkpt>
      <trkpt lat="42.12292003445327281951904296875" lon="3.13173190690577030181884765625">
        <ele>25.200000762939453125</ele>
        <time>2022-07-28T14:46:49.000Z</time>
      </trkpt>
      <trkpt lat="42.1228314377367496490478515625" lon="3.1317217648029327392578125">
        <ele>25.799999237060546875</ele>
        <time>2022-07-28T14:46:52.000Z</time>
      </trkpt>
      <trkpt lat="42.12280176579952239990234375" lon="3.13172243535518646240234375">
        <ele>25.799999237060546875</ele>
        <time>2022-07-28T14:46:53.000Z</time>
      </trkpt>
      <trkpt lat="42.12276999838650226593017578125" lon="3.131720088422298431396484375">
        <ele>25.799999237060546875</ele>
        <time>2022-07-28T14:46:54.000Z</time>
      </trkpt>
      <trkpt lat="42.12261526845395565032958984375" lon="3.13171665184199810028076171875">
        <ele>26.200000762939453125</ele>
        <time>2022-07-28T14:46:59.000Z</time>
      </trkpt>
      <trkpt lat="42.122351489961147308349609375" lon="3.13170290552079677581787109375">
        <ele>26.200000762939453125</ele>
        <time>2022-07-28T14:47:06.000Z</time>
      </trkpt>
      <trkpt lat="42.1220197342336177825927734375" lon="3.13165261410176753997802734375">
        <ele>26.3999996185302734375</ele>
        <time>2022-07-28T14:47:14.000Z</time>
      </trkpt>
      <trkpt lat="42.1219010464847087860107421875" lon="3.131632246077060699462890625">
        <ele>27</ele>
        <time>2022-07-28T14:47:19.000Z</time>
      </trkpt>
      <trkpt lat="42.1218906529247760772705078125" lon="3.1316226907074451446533203125">
        <ele>27.3999996185302734375</ele>
        <time>2022-07-28T14:47:22.000Z</time>
      </trkpt>
      <trkpt lat="42.1218926645815372467041015625" lon="3.13161757774651050567626953125">
        <ele>27.6000003814697265625</ele>
        <time>2022-07-28T14:47:25.000Z</time>
      </trkpt>
      <trkpt lat="42.12188738398253917694091796875" lon="3.13161489553749561309814453125">
        <ele>28.200000762939453125</ele>
        <time>2022-07-28T14:47:31.000Z</time>
      </trkpt>
      <trkpt lat="42.1218085102736949920654296875" lon="3.13175939954817295074462890625">
        <ele>27.200000762939453125</ele>
        <time>2022-07-28T14:50:50.000Z</time>
      </trkpt>
      <trkpt lat="42.1217790059745311737060546875" lon="3.131755627691745758056640625">
        <ele>27.200000762939453125</ele>
        <time>2022-07-28T14:50:51.000Z</time>
      </trkpt>
      <trkpt lat="42.12156970985233783721923828125" lon="3.13172017224133014678955078125">
        <ele>27.200000762939453125</ele>
        <time>2022-07-28T14:50:57.000Z</time>
      </trkpt>
      <trkpt lat="42.12132981978356838226318359375" lon="3.131700642406940460205078125">
        <ele>27</ele>
        <time>2022-07-28T14:51:03.000Z</time>
      </trkpt>
      <trkpt lat="42.12105992250144481658935546875" lon="3.13163870014250278472900390625">
        <ele>27</ele>
        <time>2022-07-28T14:51:10.000Z</time>
      </trkpt>
      <trkpt lat="42.1208097226917743682861328125" lon="3.13151448033750057220458984375">
        <ele>27.6000003814697265625</ele>
        <time>2022-07-28T14:51:16.000Z</time>
      </trkpt>
      <trkpt lat="42.12049816735088825225830078125" lon="3.13132186420261859893798828125">
        <ele>28.3999996185302734375</ele>
        <time>2022-07-28T14:51:23.000Z</time>
      </trkpt>
      <trkpt lat="42.12045223452150821685791015625" lon="3.13129194080829620361328125">
        <ele>28.6000003814697265625</ele>
        <time>2022-07-28T14:51:24.000Z</time>
      </trkpt>
      <trkpt lat="42.12017814628779888153076171875" lon="3.1311097182333469390869140625">
        <ele>28.6000003814697265625</ele>
        <time>2022-07-28T14:51:30.000Z</time>
      </trkpt>
      <trkpt lat="42.11980481632053852081298828125" lon="3.13082934357225894927978515625">
        <ele>28.6000003814697265625</ele>
        <time>2022-07-28T14:51:39.000Z</time>
      </trkpt>
      <trkpt lat="42.1196848712861537933349609375" lon="3.13074585981667041778564453125">
        <ele>29.6000003814697265625</ele>
        <time>2022-07-28T14:51:42.000Z</time>
      </trkpt>
      <trkpt lat="42.11941287852823734283447265625" lon="3.13055475242435932159423828125">
        <ele>30.3999996185302734375</ele>
        <time>2022-07-28T14:51:49.000Z</time>
      </trkpt>
      <trkpt lat="42.11930810473859310150146484375" lon="3.13046271912753582000732421875">
        <ele>30.799999237060546875</ele>
        <time>2022-07-28T14:51:52.000Z</time>
      </trkpt>
      <trkpt lat="42.11919310502707958221435546875" lon="3.1303296983242034912109375">
        <ele>31.200000762939453125</ele>
        <time>2022-07-28T14:51:56.000Z</time>
      </trkpt>
      <trkpt lat="42.119028903543949127197265625" lon="3.13013850711286067962646484375">
        <ele>31.6000003814697265625</ele>
        <time>2022-07-28T14:52:02.000Z</time>
      </trkpt>
      <trkpt lat="42.11877082474529743194580078125" lon="3.12984094955027103424072265625">
        <ele>32.200000762939453125</ele>
        <time>2022-07-28T14:52:10.000Z</time>
      </trkpt>
      <trkpt lat="42.11852766573429107666015625" lon="3.12958043999969959259033203125">
        <ele>32</ele>
        <time>2022-07-28T14:52:15.000Z</time>
      </trkpt>
      <trkpt lat="42.11842699907720088958740234375" lon="3.12948438338935375213623046875">
        <ele>31.799999237060546875</ele>
        <time>2022-07-28T14:52:17.000Z</time>
      </trkpt>
      <trkpt lat="42.1182545833289623260498046875" lon="3.12936770729720592498779296875">
        <ele>31</ele>
        <time>2022-07-28T14:52:20.000Z</time>
      </trkpt>
      <trkpt lat="42.118056602776050567626953125" lon="3.12928724102675914764404296875">
        <ele>30</ele>
        <time>2022-07-28T14:52:23.000Z</time>
      </trkpt>
      <trkpt lat="42.117919139564037322998046875" lon="3.12924013473093509674072265625">
        <ele>29</ele>
        <time>2022-07-28T14:52:25.000Z</time>
      </trkpt>
      <trkpt lat="42.11785719729959964752197265625" lon="3.12921431846916675567626953125">
        <ele>28.3999996185302734375</ele>
        <time>2022-07-28T14:52:26.000Z</time>
      </trkpt>
      <trkpt lat="42.11779944598674774169921875" lon="3.12918967567384243011474609375">
        <ele>28</ele>
        <time>2022-07-28T14:52:27.000Z</time>
      </trkpt>
      <trkpt lat="42.11759450845420360565185546875" lon="3.12911004759371280670166015625">
        <ele>27</ele>
        <time>2022-07-28T14:52:31.000Z</time>
      </trkpt>
      <trkpt lat="42.11742787621915340423583984375" lon="3.129041902720928192138671875">
        <ele>26</ele>
        <time>2022-07-28T14:52:34.000Z</time>
      </trkpt>
      <trkpt lat="42.11724146269261837005615234375" lon="3.12898918054997920989990234375">
        <ele>25.799999237060546875</ele>
        <time>2022-07-28T14:52:37.000Z</time>
      </trkpt>
      <trkpt lat="42.11702537722885608673095703125" lon="3.1289223767817020416259765625">
        <ele>25</ele>
        <time>2022-07-28T14:52:41.000Z</time>
      </trkpt>
      <trkpt lat="42.116933763027191162109375" lon="3.12887971289455890655517578125">
        <ele>24.3999996185302734375</ele>
        <time>2022-07-28T14:52:43.000Z</time>
      </trkpt>
      <trkpt lat="42.116893194615840911865234375" lon="3.12885674647986888885498046875">
        <ele>24</ele>
        <time>2022-07-28T14:52:44.000Z</time>
      </trkpt>
      <trkpt lat="42.1168175898492336273193359375" lon="3.1288137473165988922119140625">
        <ele>23</ele>
        <time>2022-07-28T14:52:46.000Z</time>
      </trkpt>
      <trkpt lat="42.1165483631193637847900390625" lon="3.128650970757007598876953125">
        <ele>22.200000762939453125</ele>
        <time>2022-07-28T14:52:52.000Z</time>
      </trkpt>
      <trkpt lat="42.11644769646227359771728515625" lon="3.128573186695575714111328125">
        <ele>22.200000762939453125</ele>
        <time>2022-07-28T14:52:54.000Z</time>
      </trkpt>
      <trkpt lat="42.11640360765159130096435546875" lon="3.12852180562913417816162109375">
        <ele>21.799999237060546875</ele>
        <time>2022-07-28T14:52:55.000Z</time>
      </trkpt>
      <trkpt lat="42.1163237281143665313720703125" lon="3.12840429134666919708251953125">
        <ele>21.6000003814697265625</ele>
        <time>2022-07-28T14:52:57.000Z</time>
      </trkpt>
      <trkpt lat="42.11622389964759349822998046875" lon="3.128196336328983306884765625">
        <ele>21.6000003814697265625</ele>
        <time>2022-07-28T14:53:00.000Z</time>
      </trkpt>
      <trkpt lat="42.11612901650369167327880859375" lon="3.1279758922755718231201171875">
        <ele>21.3999996185302734375</ele>
        <time>2022-07-28T14:53:03.000Z</time>
      </trkpt>
      <trkpt lat="42.116022817790508270263671875" lon="3.12777330167591571807861328125">
        <ele>21.799999237060546875</ele>
        <time>2022-07-28T14:53:06.000Z</time>
      </trkpt>
      <trkpt lat="42.11592265404760837554931640625" lon="3.1277113594114780426025390625">
        <ele>22.200000762939453125</ele>
        <time>2022-07-28T14:53:08.000Z</time>
      </trkpt>
      <trkpt lat="42.1158177964389324188232421875" lon="3.12773072160780429840087890625">
        <ele>22.3999996185302734375</ele>
        <time>2022-07-28T14:53:10.000Z</time>
      </trkpt>
      <trkpt lat="42.115767002105712890625" lon="3.12773457728326320648193359375">
        <ele>22.6000003814697265625</ele>
        <time>2022-07-28T14:53:11.000Z</time>
      </trkpt>
      <trkpt lat="42.1154831908643245697021484375" lon="3.12764455564320087432861328125">
        <ele>23.200000762939453125</ele>
        <time>2022-07-28T14:53:17.000Z</time>
      </trkpt>
      <trkpt lat="42.11543935351073741912841796875" lon="3.1276261992752552032470703125">
        <ele>23.6000003814697265625</ele>
        <time>2022-07-28T14:53:18.000Z</time>
      </trkpt>
      <trkpt lat="42.115063928067684173583984375" lon="3.12748664058744907379150390625">
        <ele>24.799999237060546875</ele>
        <time>2022-07-28T14:53:26.000Z</time>
      </trkpt>
      <trkpt lat="42.1149256266653537750244140625" lon="3.12741187401115894317626953125">
        <ele>24.799999237060546875</ele>
        <time>2022-07-28T14:53:29.000Z</time>
      </trkpt>
      <trkpt lat="42.1148072741925716400146484375" lon="3.1272982992231845855712890625">
        <ele>24.6000003814697265625</ele>
        <time>2022-07-28T14:53:32.000Z</time>
      </trkpt>
      <trkpt lat="42.11475740186870098114013671875" lon="3.12718212604522705078125">
        <ele>24.6000003814697265625</ele>
        <time>2022-07-28T14:53:34.000Z</time>
      </trkpt>
      <trkpt lat="42.11467643268406391143798828125" lon="3.1270037591457366943359375">
        <ele>24.6000003814697265625</ele>
        <time>2022-07-28T14:53:37.000Z</time>
      </trkpt>
      <trkpt lat="42.11453385651111602783203125" lon="3.12688850797712802886962890625">
        <ele>24.6000003814697265625</ele>
        <time>2022-07-28T14:53:40.000Z</time>
      </trkpt>
      <trkpt lat="42.11436026729643344879150390625" lon="3.126922957599163055419921875">
        <ele>24.3999996185302734375</ele>
        <time>2022-07-28T14:53:43.000Z</time>
      </trkpt>
      <trkpt lat="42.11406907998025417327880859375" lon="3.12706335447728633880615234375">
        <ele>24.3999996185302734375</ele>
        <time>2022-07-28T14:53:48.000Z</time>
      </trkpt>
      <trkpt lat="42.11377990432083606719970703125" lon="3.1269992329180240631103515625">
        <ele>23.6000003814697265625</ele>
        <time>2022-07-28T14:53:52.000Z</time>
      </trkpt>
      <trkpt lat="42.11362567730247974395751953125" lon="3.12694516964256763458251953125">
        <ele>23.200000762939453125</ele>
        <time>2022-07-28T14:53:54.000Z</time>
      </trkpt>
      <trkpt lat="42.1132901497185230255126953125" lon="3.12682078219950199127197265625">
        <ele>22.3999996185302734375</ele>
        <time>2022-07-28T14:53:58.000Z</time>
      </trkpt>
      <trkpt lat="42.113203816115856170654296875" lon="3.12678943388164043426513671875">
        <ele>21.799999237060546875</ele>
        <time>2022-07-28T14:53:59.000Z</time>
      </trkpt>
      <trkpt lat="42.1128680370748043060302734375" lon="3.12664375640451908111572265625">
        <ele>21</ele>
        <time>2022-07-28T14:54:03.000Z</time>
      </trkpt>
      <trkpt lat="42.1126980520784854888916015625" lon="3.12658005394041538238525390625">
        <ele>20</ele>
        <time>2022-07-28T14:54:05.000Z</time>
      </trkpt>
      <trkpt lat="42.11261414922773838043212890625" lon="3.1265516392886638641357421875">
        <ele>18.6000003814697265625</ele>
        <time>2022-07-28T14:54:06.000Z</time>
      </trkpt>
      <trkpt lat="42.11229555308818817138671875" lon="3.1264453567564487457275390625">
        <ele>17.799999237060546875</ele>
        <time>2022-07-28T14:54:10.000Z</time>
      </trkpt>
      <trkpt lat="42.1121445111930370330810546875" lon="3.12639288604259490966796875">
        <ele>17.3999996185302734375</ele>
        <time>2022-07-28T14:54:12.000Z</time>
      </trkpt>
      <trkpt lat="42.1115561015903949737548828125" lon="3.1261637248098850250244140625">
        <ele>17</ele>
        <time>2022-07-28T14:54:20.000Z</time>
      </trkpt>
      <trkpt lat="42.111487872898578643798828125" lon="3.12613145448267459869384765625">
        <ele>17</ele>
        <time>2022-07-28T14:54:21.000Z</time>
      </trkpt>
      <trkpt lat="42.11120431311428546905517578125" lon="3.126002959907054901123046875">
        <ele>17</ele>
        <time>2022-07-28T14:54:26.000Z</time>
      </trkpt>
      <trkpt lat="42.1111214160919189453125" lon="3.12595409341156482696533203125">
        <ele>17</ele>
        <time>2022-07-28T14:54:28.000Z</time>
      </trkpt>
      <trkpt lat="42.1110878884792327880859375" lon="3.125917129218578338623046875">
        <ele>16.799999237060546875</ele>
        <time>2022-07-28T14:54:29.000Z</time>
      </trkpt>
      <trkpt lat="42.11105863563716411590576171875" lon="3.12586843036115169525146484375">
        <ele>16.799999237060546875</ele>
        <time>2022-07-28T14:54:30.000Z</time>
      </trkpt>
      <trkpt lat="42.11100566200911998748779296875" lon="3.12573582865297794342041015625">
        <ele>16.799999237060546875</ele>
        <time>2022-07-28T14:54:32.000Z</time>
      </trkpt>
      <trkpt lat="42.1109693683683872222900390625" lon="3.12566324137151241302490234375">
        <ele>16.799999237060546875</ele>
        <time>2022-07-28T14:54:33.000Z</time>
      </trkpt>
      <trkpt lat="42.11091689765453338623046875" lon="3.12560498714447021484375">
        <ele>16.799999237060546875</ele>
        <time>2022-07-28T14:54:34.000Z</time>
      </trkpt>
      <trkpt lat="42.1107065118849277496337890625" lon="3.1255615688860416412353515625">
        <ele>16.6000003814697265625</ele>
        <time>2022-07-28T14:54:37.000Z</time>
      </trkpt>
      <trkpt lat="42.1106350980699062347412109375" lon="3.12555913813412189483642578125">
        <ele>16.6000003814697265625</ele>
        <time>2022-07-28T14:54:38.000Z</time>
      </trkpt>
      <trkpt lat="42.1104889176785945892333984375" lon="3.12550968490540981292724609375">
        <ele>16.3999996185302734375</ele>
        <time>2022-07-28T14:54:40.000Z</time>
      </trkpt>
      <trkpt lat="42.1102706529200077056884765625" lon="3.12536048702895641326904296875">
        <ele>16.200000762939453125</ele>
        <time>2022-07-28T14:54:43.000Z</time>
      </trkpt>
      <trkpt lat="42.1101955510675907135009765625" lon="3.1253037415444850921630859375">
        <ele>16.200000762939453125</ele>
        <time>2022-07-28T14:54:44.000Z</time>
      </trkpt>
      <trkpt lat="42.1101177670061588287353515625" lon="3.12524481676518917083740234375">
        <ele>15.80000019073486328125</ele>
        <time>2022-07-28T14:54:45.000Z</time>
      </trkpt>
      <trkpt lat="42.10977938957512378692626953125" lon="3.1249922700226306915283203125">
        <ele>15.19999980926513671875</ele>
        <time>2022-07-28T14:54:49.000Z</time>
      </trkpt>
      <trkpt lat="42.1095967479050159454345703125" lon="3.12485396862030029296875">
        <ele>14.19999980926513671875</ele>
        <time>2022-07-28T14:54:51.000Z</time>
      </trkpt>
      <trkpt lat="42.10950203239917755126953125" lon="3.12478280626237392425537109375">
        <ele>13.3999996185302734375</ele>
        <time>2022-07-28T14:54:52.000Z</time>
      </trkpt>
      <trkpt lat="42.10920740850269794464111328125" lon="3.12455825507640838623046875">
        <ele>11.80000019073486328125</ele>
        <time>2022-07-28T14:54:55.000Z</time>
      </trkpt>
      <trkpt lat="42.10900775156915187835693359375" lon="3.12441148795187473297119140625">
        <ele>10.6000003814697265625</ele>
        <time>2022-07-28T14:54:57.000Z</time>
      </trkpt>
      <trkpt lat="42.10891018621623516082763671875" lon="3.1243391521275043487548828125">
        <ele>9.6000003814697265625</ele>
        <time>2022-07-28T14:54:58.000Z</time>
      </trkpt>
      <trkpt lat="42.108814716339111328125" lon="3.12426748685538768768310546875">
        <ele>8.80000019073486328125</ele>
        <time>2022-07-28T14:54:59.000Z</time>
      </trkpt>
      <trkpt lat="42.10862771607935428619384765625" lon="3.1241272576153278350830078125">
        <ele>7.599999904632568359375</ele>
        <time>2022-07-28T14:55:01.000Z</time>
      </trkpt>
      <trkpt lat="42.108446918427944183349609375" lon="3.123989291489124298095703125">
        <ele>5.80000019073486328125</ele>
        <time>2022-07-28T14:55:03.000Z</time>
      </trkpt>
      <trkpt lat="42.10827131755650043487548828125" lon="3.12385610304772853851318359375">
        <ele>4.80000019073486328125</ele>
        <time>2022-07-28T14:55:05.000Z</time>
      </trkpt>
      <trkpt lat="42.10818464867770671844482421875" lon="3.12379122711718082427978515625">
        <ele>4.599999904632568359375</ele>
        <time>2022-07-28T14:55:06.000Z</time>
      </trkpt>
      <trkpt lat="42.1076917089521884918212890625" lon="3.12341320328414440155029296875">
        <ele>4.400000095367431640625</ele>
        <time>2022-07-28T14:55:12.000Z</time>
      </trkpt>
      <trkpt lat="42.1076115779578685760498046875" lon="3.12335335649549961090087890625">
        <ele>4.400000095367431640625</ele>
        <time>2022-07-28T14:55:13.000Z</time>
      </trkpt>
      <trkpt lat="42.10707186721265316009521484375" lon="3.12294331379234790802001953125">
        <ele>4.400000095367431640625</ele>
        <time>2022-07-28T14:55:20.000Z</time>
      </trkpt>
      <trkpt lat="42.1069960109889507293701171875" lon="3.122886903584003448486328125">
        <ele>4.19999980926513671875</ele>
        <time>2022-07-28T14:55:21.000Z</time>
      </trkpt>
      <trkpt lat="42.10648245178163051605224609375" lon="3.1225004978477954864501953125">
        <ele>4.400000095367431640625</ele>
        <time>2022-07-28T14:55:28.000Z</time>
      </trkpt>
      <trkpt lat="42.1063395403325557708740234375" lon="3.1223922036588191986083984375">
        <ele>4.19999980926513671875</ele>
        <time>2022-07-28T14:55:30.000Z</time>
      </trkpt>
      <trkpt lat="42.105839811265468597412109375" lon="3.12201962806284427642822265625">
        <ele>4.400000095367431640625</ele>
        <time>2022-07-28T14:55:37.000Z</time>
      </trkpt>
      <trkpt lat="42.10535491816699504852294921875" lon="3.12165535055100917816162109375">
        <ele>4.599999904632568359375</ele>
        <time>2022-07-28T14:55:44.000Z</time>
      </trkpt>
      <trkpt lat="42.10487798787653446197509765625" lon="3.121297359466552734375">
        <ele>4.80000019073486328125</ele>
        <time>2022-07-28T14:55:51.000Z</time>
      </trkpt>
      <trkpt lat="42.10447557270526885986328125" lon="3.12099887989461421966552734375">
        <ele>4.400000095367431640625</ele>
        <time>2022-07-28T14:55:57.000Z</time>
      </trkpt>
      <trkpt lat="42.10397743619978427886962890625" lon="3.12062454409897327423095703125">
        <ele>4.19999980926513671875</ele>
        <time>2022-07-28T14:56:05.000Z</time>
      </trkpt>
      <trkpt lat="42.1039175055921077728271484375" lon="3.1205785274505615234375">
        <ele>4.19999980926513671875</ele>
        <time>2022-07-28T14:56:06.000Z</time>
      </trkpt>
      <trkpt lat="42.10339204408228397369384765625" lon="3.12018516473472118377685546875">
        <ele>4</ele>
        <time>2022-07-28T14:56:15.000Z</time>
      </trkpt>
      <trkpt lat="42.10333454422652721405029296875" lon="3.12014191411435604095458984375">
        <ele>4.19999980926513671875</ele>
        <time>2022-07-28T14:56:16.000Z</time>
      </trkpt>
      <trkpt lat="42.10289298556745052337646484375" lon="3.1198102422058582305908203125">
        <ele>4.19999980926513671875</ele>
        <time>2022-07-28T14:56:24.000Z</time>
      </trkpt>
      <trkpt lat="42.10239560343325138092041015625" lon="3.11943431384861469268798828125">
        <ele>4.599999904632568359375</ele>
        <time>2022-07-28T14:56:33.000Z</time>
      </trkpt>
      <trkpt lat="42.1021096967160701751708984375" lon="3.11921806074678897857666015625">
        <ele>5.400000095367431640625</ele>
        <time>2022-07-28T14:56:38.000Z</time>
      </trkpt>
      <trkpt lat="42.10163704119622707366943359375" lon="3.1188654340803623199462890625">
        <ele>5.400000095367431640625</ele>
        <time>2022-07-28T14:56:46.000Z</time>
      </trkpt>
      <trkpt lat="42.1013459376990795135498046875" lon="3.11864809133112430572509765625">
        <ele>5.19999980926513671875</ele>
        <time>2022-07-28T14:56:51.000Z</time>
      </trkpt>
      <trkpt lat="42.10083003155887126922607421875" lon="3.11826302669942378997802734375">
        <ele>5</ele>
        <time>2022-07-28T14:57:00.000Z</time>
      </trkpt>
      <trkpt lat="42.10066038183867931365966796875" lon="3.11813570559024810791015625">
        <ele>5</ele>
        <time>2022-07-28T14:57:03.000Z</time>
      </trkpt>
      <trkpt lat="42.1001520194113254547119140625" lon="3.1177526526153087615966796875">
        <ele>5.19999980926513671875</ele>
        <time>2022-07-28T14:57:12.000Z</time>
      </trkpt>
      <trkpt lat="42.10003861226141452789306640625" lon="3.11766807921230792999267578125">
        <ele>5.19999980926513671875</ele>
        <time>2022-07-28T14:57:14.000Z</time>
      </trkpt>
      <trkpt lat="42.09953184239566326141357421875" lon="3.1172852776944637298583984375">
        <ele>5.19999980926513671875</ele>
        <time>2022-07-28T14:57:23.000Z</time>
      </trkpt>
      <trkpt lat="42.09924316965043544769287109375" lon="3.11706692911684513092041015625">
        <ele>5.599999904632568359375</ele>
        <time>2022-07-28T14:57:28.000Z</time>
      </trkpt>
      <trkpt lat="42.0987683348357677459716796875" lon="3.11671237461268901824951171875">
        <ele>6</ele>
        <time>2022-07-28T14:57:36.000Z</time>
      </trkpt>
      <trkpt lat="42.098583765327930450439453125" lon="3.116574324667453765869140625">
        <ele>6.19999980926513671875</ele>
        <time>2022-07-28T14:57:39.000Z</time>
      </trkpt>
      <trkpt lat="42.0980925858020782470703125" lon="3.11620241962373256683349609375">
        <ele>6.19999980926513671875</ele>
        <time>2022-07-28T14:57:47.000Z</time>
      </trkpt>
      <trkpt lat="42.0977868139743804931640625" lon="3.11597258783876895904541015625">
        <ele>6.19999980926513671875</ele>
        <time>2022-07-28T14:57:52.000Z</time>
      </trkpt>
      <trkpt lat="42.097433097660541534423828125" lon="3.11570906080305576324462890625">
        <ele>5.400000095367431640625</ele>
        <time>2022-07-28T14:57:58.000Z</time>
      </trkpt>
      <trkpt lat="42.09715314209461212158203125" lon="3.11549632810056209564208984375">
        <ele>5.19999980926513671875</ele>
        <time>2022-07-28T14:58:03.000Z</time>
      </trkpt>
      <trkpt lat="42.0966477133333683013916015625" lon="3.115125261247158050537109375">
        <ele>5.400000095367431640625</ele>
        <time>2022-07-28T14:58:12.000Z</time>
      </trkpt>
      <trkpt lat="42.0961427874863147735595703125" lon="3.11474673449993133544921875">
        <ele>6.400000095367431640625</ele>
        <time>2022-07-28T14:58:21.000Z</time>
      </trkpt>
      <trkpt lat="42.09603139199316501617431640625" lon="3.1146614067256450653076171875">
        <ele>6.400000095367431640625</ele>
        <time>2022-07-28T14:58:23.000Z</time>
      </trkpt>
      <trkpt lat="42.09552193991839885711669921875" lon="3.11427810229361057281494140625">
        <ele>6.400000095367431640625</ele>
        <time>2022-07-28T14:58:32.000Z</time>
      </trkpt>
      <trkpt lat="42.0954041741788387298583984375" lon="3.11419227160513401031494140625">
        <ele>6.400000095367431640625</ele>
        <time>2022-07-28T14:58:34.000Z</time>
      </trkpt>
      <trkpt lat="42.09492045454680919647216796875" lon="3.113828413188457489013671875">
        <ele>6.400000095367431640625</ele>
        <time>2022-07-28T14:58:42.000Z</time>
      </trkpt>
      <trkpt lat="42.0944260060787200927734375" lon="3.11345784924924373626708984375">
        <ele>6.19999980926513671875</ele>
        <time>2022-07-28T14:58:50.000Z</time>
      </trkpt>
      <trkpt lat="42.09430069662630558013916015625" lon="3.11336405575275421142578125">
        <ele>5.80000019073486328125</ele>
        <time>2022-07-28T14:58:52.000Z</time>
      </trkpt>
      <trkpt lat="42.0937951840460300445556640625" lon="3.11298091895878314971923828125">
        <ele>5.80000019073486328125</ele>
        <time>2022-07-28T14:59:00.000Z</time>
      </trkpt>
      <trkpt lat="42.09366836585104465484619140625" lon="3.1128867901861667633056640625">
        <ele>5.80000019073486328125</ele>
        <time>2022-07-28T14:59:02.000Z</time>
      </trkpt>
      <trkpt lat="42.09315623156726360321044921875" lon="3.11250281520187854766845703125">
        <ele>5.80000019073486328125</ele>
        <time>2022-07-28T14:59:10.000Z</time>
      </trkpt>
      <trkpt lat="42.0929650403559207916259765625" lon="3.1123600713908672332763671875">
        <ele>5.80000019073486328125</ele>
        <time>2022-07-28T14:59:13.000Z</time>
      </trkpt>
      <trkpt lat="42.092838473618030548095703125" lon="3.11226711608469486236572265625">
        <ele>5.80000019073486328125</ele>
        <time>2022-07-28T14:59:15.000Z</time>
      </trkpt>
      <trkpt lat="42.09233589470386505126953125" lon="3.1118868291378021240234375">
        <ele>5.80000019073486328125</ele>
        <time>2022-07-28T14:59:23.000Z</time>
      </trkpt>
      <trkpt lat="42.09214411675930023193359375" lon="3.11174131929874420166015625">
        <ele>6</ele>
        <time>2022-07-28T14:59:26.000Z</time>
      </trkpt>
      <trkpt lat="42.091628126800060272216796875" lon="3.1113545782864093780517578125">
        <ele>6.19999980926513671875</ele>
        <time>2022-07-28T14:59:34.000Z</time>
      </trkpt>
      <trkpt lat="42.0913012325763702392578125" lon="3.111110664904117584228515625">
        <ele>6.599999904632568359375</ele>
        <time>2022-07-28T14:59:39.000Z</time>
      </trkpt>
      <trkpt lat="42.09077727980911731719970703125" lon="3.11071394942700862884521484375">
        <ele>6.80000019073486328125</ele>
        <time>2022-07-28T14:59:47.000Z</time>
      </trkpt>
      <trkpt lat="42.090374529361724853515625" lon="3.11041203327476978302001953125">
        <ele>6.80000019073486328125</ele>
        <time>2022-07-28T14:59:53.000Z</time>
      </trkpt>
      <trkpt lat="42.089842446148395538330078125" lon="3.11001238413155078887939453125">
        <ele>7.19999980926513671875</ele>
        <time>2022-07-28T15:00:01.000Z</time>
      </trkpt>
      <trkpt lat="42.0895819365978240966796875" lon="3.1098180077970027923583984375">
        <ele>6.599999904632568359375</ele>
        <time>2022-07-28T15:00:05.000Z</time>
      </trkpt>
      <trkpt lat="42.089073993265628814697265625" lon="3.109439648687839508056640625">
        <ele>6.19999980926513671875</ele>
        <time>2022-07-28T15:00:13.000Z</time>
      </trkpt>
      <trkpt lat="42.08894784562289714813232421875" lon="3.10934451408684253692626953125">
        <ele>6.599999904632568359375</ele>
        <time>2022-07-28T15:00:15.000Z</time>
      </trkpt>
      <trkpt lat="42.0884371362626552581787109375" lon="3.10896280221641063690185546875">
        <ele>7</ele>
        <time>2022-07-28T15:00:23.000Z</time>
      </trkpt>
      <trkpt lat="42.08817989565432071685791015625" lon="3.1087706051766872406005859375">
        <ele>7</ele>
        <time>2022-07-28T15:00:27.000Z</time>
      </trkpt>
      <trkpt lat="42.0876717008650302886962890625" lon="3.10839434154331684112548828125">
        <ele>7.400000095367431640625</ele>
        <time>2022-07-28T15:00:35.000Z</time>
      </trkpt>
      <trkpt lat="42.0874795876443386077880859375" lon="3.108250759541988372802734375">
        <ele>7.19999980926513671875</ele>
        <time>2022-07-28T15:00:38.000Z</time>
      </trkpt>
      <trkpt lat="42.0869753323495388031005859375" lon="3.10787198133766651153564453125">
        <ele>7.19999980926513671875</ele>
        <time>2022-07-28T15:00:46.000Z</time>
      </trkpt>
      <trkpt lat="42.08685035817325115203857421875" lon="3.10777894221246242523193359375">
        <ele>7.19999980926513671875</ele>
        <time>2022-07-28T15:00:48.000Z</time>
      </trkpt>
      <trkpt lat="42.08633705042302608489990234375" lon="3.10739211738109588623046875">
        <ele>7.400000095367431640625</ele>
        <time>2022-07-28T15:00:56.000Z</time>
      </trkpt>
      <trkpt lat="42.08614611066877841949462890625" lon="3.1072466075420379638671875">
        <ele>7.400000095367431640625</ele>
        <time>2022-07-28T15:00:59.000Z</time>
      </trkpt>
      <trkpt lat="42.085632719099521636962890625" lon="3.10686078853905200958251953125">
        <ele>7.80000019073486328125</ele>
        <time>2022-07-28T15:01:07.000Z</time>
      </trkpt>
      <trkpt lat="42.08525008521974086761474609375" lon="3.1065765582025051116943359375">
        <ele>7.80000019073486328125</ele>
        <time>2022-07-28T15:01:13.000Z</time>
      </trkpt>
      <trkpt lat="42.08475823514163494110107421875" lon="3.10620180331170558929443359375">
        <ele>8.19999980926513671875</ele>
        <time>2022-07-28T15:01:21.000Z</time>
      </trkpt>
      <trkpt lat="42.08456897176802158355712890625" lon="3.1060588918626308441162109375">
        <ele>8.3999996185302734375</ele>
        <time>2022-07-28T15:01:24.000Z</time>
      </trkpt>
      <trkpt lat="42.0840673148632049560546875" lon="3.10568162240087985992431640625">
        <ele>8.80000019073486328125</ele>
        <time>2022-07-28T15:01:32.000Z</time>
      </trkpt>
      <trkpt lat="42.08400428295135498046875" lon="3.10563258826732635498046875">
        <ele>9</ele>
        <time>2022-07-28T15:01:33.000Z</time>
      </trkpt>
      <trkpt lat="42.08381979726254940032958984375" lon="3.1054761819541454315185546875">
        <ele>9.19999980926513671875</ele>
        <time>2022-07-28T15:01:36.000Z</time>
      </trkpt>
      <trkpt lat="42.0834316313266754150390625" lon="3.10504023917019367218017578125">
        <ele>9.19999980926513671875</ele>
        <time>2022-07-28T15:01:43.000Z</time>
      </trkpt>
      <trkpt lat="42.0830070041120052337646484375" lon="3.10450362972915172576904296875">
        <ele>9.6000003814697265625</ele>
        <time>2022-07-28T15:01:51.000Z</time>
      </trkpt>
      <trkpt lat="42.0828993804752826690673828125" lon="3.10436717234551906585693359375">
        <ele>9.80000019073486328125</ele>
        <time>2022-07-28T15:01:53.000Z</time>
      </trkpt>
      <trkpt lat="42.08247919566929340362548828125" lon="3.103844560682773590087890625">
        <ele>9.6000003814697265625</ele>
        <time>2022-07-28T15:02:01.000Z</time>
      </trkpt>
      <trkpt lat="42.08242756314575672149658203125" lon="3.10378178022801876068115234375">
        <ele>9.6000003814697265625</ele>
        <time>2022-07-28T15:02:02.000Z</time>
      </trkpt>
      <trkpt lat="42.082009725272655487060546875" lon="3.1032556481659412384033203125">
        <ele>9.3999996185302734375</ele>
        <time>2022-07-28T15:02:10.000Z</time>
      </trkpt>
      <trkpt lat="42.08179506473243236541748046875" lon="3.1029854156076908111572265625">
        <ele>9.3999996185302734375</ele>
        <time>2022-07-28T15:02:14.000Z</time>
      </trkpt>
      <trkpt lat="42.0813584513962268829345703125" lon="3.10244151391088962554931640625">
        <ele>9.80000019073486328125</ele>
        <time>2022-07-28T15:02:22.000Z</time>
      </trkpt>
      <trkpt lat="42.08090909756720066070556640625" lon="3.10188294388353824615478515625">
        <ele>9.6000003814697265625</ele>
        <time>2022-07-28T15:02:30.000Z</time>
      </trkpt>
      <trkpt lat="42.08079376257956027984619140625" lon="3.10174070298671722412109375">
        <ele>9.6000003814697265625</ele>
        <time>2022-07-28T15:02:32.000Z</time>
      </trkpt>
      <trkpt lat="42.0803888328373432159423828125" lon="3.1012362800538539886474609375">
        <ele>10</ele>
        <time>2022-07-28T15:02:39.000Z</time>
      </trkpt>
      <trkpt lat="42.0801028423011302947998046875" lon="3.10087946243584156036376953125">
        <ele>9.80000019073486328125</ele>
        <time>2022-07-28T15:02:44.000Z</time>
      </trkpt>
      <trkpt lat="42.07970176823437213897705078125" lon="3.100383840501308441162109375">
        <ele>9.80000019073486328125</ele>
        <time>2022-07-28T15:02:51.000Z</time>
      </trkpt>
      <trkpt lat="42.07947595976293087005615234375" lon="3.10010321438312530517578125">
        <ele>9.6000003814697265625</ele>
        <time>2022-07-28T15:02:55.000Z</time>
      </trkpt>
      <trkpt lat="42.07907765172421932220458984375" lon="3.099606670439243316650390625">
        <ele>9.6000003814697265625</ele>
        <time>2022-07-28T15:03:02.000Z</time>
      </trkpt>
      <trkpt lat="42.078797109425067901611328125" lon="3.0992618389427661895751953125">
        <ele>10</ele>
        <time>2022-07-28T15:03:07.000Z</time>
      </trkpt>
      <trkpt lat="42.07837072201073169708251953125" lon="3.0987310968339443206787109375">
        <ele>10.19999980926513671875</ele>
        <time>2022-07-28T15:03:15.000Z</time>
      </trkpt>
      <trkpt lat="42.07797945477068424224853515625" lon="3.0982370674610137939453125">
        <ele>10.6000003814697265625</ele>
        <time>2022-07-28T15:03:23.000Z</time>
      </trkpt>
      <trkpt lat="42.0776085555553436279296875" lon="3.09777379967272281646728515625">
        <ele>11.80000019073486328125</ele>
        <time>2022-07-28T15:03:31.000Z</time>
      </trkpt>
      <trkpt lat="42.07756337709724903106689453125" lon="3.09771948494017124176025390625">
        <ele>11.80000019073486328125</ele>
        <time>2022-07-28T15:03:32.000Z</time>
      </trkpt>
      <trkpt lat="42.07732952199876308441162109375" lon="3.09741455130279064178466796875">
        <ele>13</ele>
        <time>2022-07-28T15:03:38.000Z</time>
      </trkpt>
      <trkpt lat="42.0773029513657093048095703125" lon="3.09736643917858600616455078125">
        <ele>13.19999980926513671875</ele>
        <time>2022-07-28T15:03:39.000Z</time>
      </trkpt>
      <trkpt lat="42.0772814936935901641845703125" lon="3.09732134453952312469482421875">
        <ele>13.3999996185302734375</ele>
        <time>2022-07-28T15:03:40.000Z</time>
      </trkpt>
      <trkpt lat="42.0770243369042873382568359375" lon="3.09702713973820209503173828125">
        <ele>15.80000019073486328125</ele>
        <time>2022-07-28T15:06:08.000Z</time>
      </trkpt>
      <trkpt lat="42.0769733749330043792724609375" lon="3.09696377255022525787353515625">
        <ele>15.80000019073486328125</ele>
        <time>2022-07-28T15:06:10.000Z</time>
      </trkpt>
      <trkpt lat="42.0767743885517120361328125" lon="3.09671348892152309417724609375">
        <ele>15.80000019073486328125</ele>
        <time>2022-07-28T15:06:16.000Z</time>
      </trkpt>
      <trkpt lat="42.076403908431529998779296875" lon="3.09626053087413311004638671875">
        <ele>16</ele>
        <time>2022-07-28T15:06:25.000Z</time>
      </trkpt>
      <trkpt lat="42.07635588012635707855224609375" lon="3.09620319865643978118896484375">
        <ele>16</ele>
        <time>2022-07-28T15:06:26.000Z</time>
      </trkpt>
      <trkpt lat="42.07602261565625667572021484375" lon="3.09588200412690639495849609375">
        <ele>15.80000019073486328125</ele>
        <time>2022-07-28T15:06:32.000Z</time>
      </trkpt>
      <trkpt lat="42.075614668428897857666015625" lon="3.0956780724227428436279296875">
        <ele>14.80000019073486328125</ele>
        <time>2022-07-28T15:06:38.000Z</time>
      </trkpt>
      <trkpt lat="42.0755477808415889739990234375" lon="3.0956442095339298248291015625">
        <ele>14.6000003814697265625</ele>
        <time>2022-07-28T15:06:39.000Z</time>
      </trkpt>
      <trkpt lat="42.07528769038617610931396484375" lon="3.095534741878509521484375">
        <ele>14</ele>
        <time>2022-07-28T15:06:43.000Z</time>
      </trkpt>
      <trkpt lat="42.07522734068334102630615234375" lon="3.0954956822097301483154296875">
        <ele>13.80000019073486328125</ele>
        <time>2022-07-28T15:06:44.000Z</time>
      </trkpt>
      <trkpt lat="42.07512390799820423126220703125" lon="3.0953702889382839202880859375">
        <ele>13.6000003814697265625</ele>
        <time>2022-07-28T15:06:46.000Z</time>
      </trkpt>
      <trkpt lat="42.07492475397884845733642578125" lon="3.09526987373828887939453125">
        <ele>13.6000003814697265625</ele>
        <time>2022-07-28T15:06:49.000Z</time>
      </trkpt>
      <trkpt lat="42.0748534239828586578369140625" lon="3.09527523815631866455078125">
        <ele>13.3999996185302734375</ele>
        <time>2022-07-28T15:06:50.000Z</time>
      </trkpt>
      <trkpt lat="42.074641697108745574951171875" lon="3.0952598154544830322265625">
        <ele>13.3999996185302734375</ele>
        <time>2022-07-28T15:06:53.000Z</time>
      </trkpt>
      <trkpt lat="42.074573300778865814208984375" lon="3.09523500502109527587890625">
        <ele>13.3999996185302734375</ele>
        <time>2022-07-28T15:06:54.000Z</time>
      </trkpt>
      <trkpt lat="42.07416200079023838043212890625" lon="3.09507130645215511322021484375">
        <ele>12.6000003814697265625</ele>
        <time>2022-07-28T15:07:00.000Z</time>
      </trkpt>
      <trkpt lat="42.074022106826305389404296875" lon="3.09501665644347667694091796875">
        <ele>12.3999996185302734375</ele>
        <time>2022-07-28T15:07:02.000Z</time>
      </trkpt>
      <trkpt lat="42.0734449289739131927490234375" lon="3.09478573501110076904296875">
        <ele>12</ele>
        <time>2022-07-28T15:07:10.000Z</time>
      </trkpt>
      <trkpt lat="42.0733711682260036468505859375" lon="3.09475530870258808135986328125">
        <ele>11.80000019073486328125</ele>
        <time>2022-07-28T15:07:11.000Z</time>
      </trkpt>
      <trkpt lat="42.07322356291115283966064453125" lon="3.09469479136168956756591796875">
        <ele>11.80000019073486328125</ele>
        <time>2022-07-28T15:07:13.000Z</time>
      </trkpt>
      <trkpt lat="42.07270522601902484893798828125" lon="3.09448507614433765411376953125">
        <ele>11.3999996185302734375</ele>
        <time>2022-07-28T15:07:20.000Z</time>
      </trkpt>
      <trkpt lat="42.07248763181269168853759765625" lon="3.094394467771053314208984375">
        <ele>10.80000019073486328125</ele>
        <time>2022-07-28T15:07:23.000Z</time>
      </trkpt>
      <trkpt lat="42.0724159665405750274658203125" lon="3.09436555020511150360107421875">
        <ele>10.6000003814697265625</ele>
        <time>2022-07-28T15:07:24.000Z</time>
      </trkpt>
      <trkpt lat="42.07185680978000164031982421875" lon="3.094138987362384796142578125">
        <ele>9.80000019073486328125</ele>
        <time>2022-07-28T15:07:32.000Z</time>
      </trkpt>
      <trkpt lat="42.0717175863683223724365234375" lon="3.0940824933350086212158203125">
        <ele>9.80000019073486328125</ele>
        <time>2022-07-28T15:07:34.000Z</time>
      </trkpt>
      <trkpt lat="42.07115826196968555450439453125" lon="3.0938504822552204132080078125">
        <ele>10</ele>
        <time>2022-07-28T15:07:42.000Z</time>
      </trkpt>
      <trkpt lat="42.0707982592284679412841796875" lon="3.093706481158733367919921875">
        <ele>10.19999980926513671875</ele>
        <time>2022-07-28T15:07:47.000Z</time>
      </trkpt>
      <trkpt lat="42.07029727287590503692626953125" lon="3.09350405819714069366455078125">
        <ele>10</ele>
        <time>2022-07-28T15:07:54.000Z</time>
      </trkpt>
      <trkpt lat="42.0701558701694011688232421875" lon="3.093444965779781341552734375">
        <ele>10</ele>
        <time>2022-07-28T15:07:56.000Z</time>
      </trkpt>
      <trkpt lat="42.0695848949253559112548828125" lon="3.09321236796677112579345703125">
        <ele>9.80000019073486328125</ele>
        <time>2022-07-28T15:08:04.000Z</time>
      </trkpt>
      <trkpt lat="42.0693679712712764739990234375" lon="3.09312318451702594757080078125">
        <ele>9.80000019073486328125</ele>
        <time>2022-07-28T15:08:07.000Z</time>
      </trkpt>
      <trkpt lat="42.06878668628633022308349609375" lon="3.09289067052304744720458984375">
        <ele>10</ele>
        <time>2022-07-28T15:08:15.000Z</time>
      </trkpt>
      <trkpt lat="42.0685002766549587249755859375" lon="3.09277483262121677398681640625">
        <ele>9.80000019073486328125</ele>
        <time>2022-07-28T15:08:19.000Z</time>
      </trkpt>
      <trkpt lat="42.06815502606332302093505859375" lon="3.09263384900987148284912109375">
        <ele>9.19999980926513671875</ele>
        <time>2022-07-28T15:08:24.000Z</time>
      </trkpt>
      <trkpt lat="42.06795536912977695465087890625" lon="3.09255271218717098236083984375">
        <ele>8.80000019073486328125</ele>
        <time>2022-07-28T15:08:27.000Z</time>
      </trkpt>
      <trkpt lat="42.06743560731410980224609375" lon="3.092342913150787353515625">
        <ele>8.3999996185302734375</ele>
        <time>2022-07-28T15:08:35.000Z</time>
      </trkpt>
      <trkpt lat="42.06737249158322811126708984375" lon="3.0923159234225749969482421875">
        <ele>8.3999996185302734375</ele>
        <time>2022-07-28T15:08:36.000Z</time>
      </trkpt>
      <trkpt lat="42.0673088729381561279296875" lon="3.09229052625596523284912109375">
        <ele>8.6000003814697265625</ele>
        <time>2022-07-28T15:08:37.000Z</time>
      </trkpt>
      <trkpt lat="42.06672742031514644622802734375" lon="3.092058263719081878662109375">
        <ele>8.80000019073486328125</ele>
        <time>2022-07-28T15:08:46.000Z</time>
      </trkpt>
      <trkpt lat="42.0665952377021312713623046875" lon="3.0920062959194183349609375">
        <ele>9</ele>
        <time>2022-07-28T15:08:48.000Z</time>
      </trkpt>
      <trkpt lat="42.06607011146843433380126953125" lon="3.0917917191982269287109375">
        <ele>9.19999980926513671875</ele>
        <time>2022-07-28T15:08:56.000Z</time>
      </trkpt>
      <trkpt lat="42.06587598659098148345947265625" lon="3.09171485714614391326904296875">
        <ele>9</ele>
        <time>2022-07-28T15:08:59.000Z</time>
      </trkpt>
      <trkpt lat="42.065685801208019256591796875" lon="3.09165065176784992218017578125">
        <ele>8.80000019073486328125</ele>
        <time>2022-07-28T15:09:02.000Z</time>
      </trkpt>
      <trkpt lat="42.06550366245210170745849609375" lon="3.09156649746000766754150390625">
        <ele>8.80000019073486328125</ele>
        <time>2022-07-28T15:09:05.000Z</time>
      </trkpt>
      <trkpt lat="42.06494115293025970458984375" lon="3.09133708477020263671875">
        <ele>9</ele>
        <time>2022-07-28T15:09:14.000Z</time>
      </trkpt>
      <trkpt lat="42.06474828533828258514404296875" lon="3.09125804342329502105712890625">
        <ele>9.6000003814697265625</ele>
        <time>2022-07-28T15:09:17.000Z</time>
      </trkpt>
      <trkpt lat="42.0642228238284587860107421875" lon="3.09104329906404018402099609375">
        <ele>9.6000003814697265625</ele>
        <time>2022-07-28T15:09:25.000Z</time>
      </trkpt>
      <trkpt lat="42.0640944130718708038330078125" lon="3.0909912474453449249267578125">
        <ele>9.6000003814697265625</ele>
        <time>2022-07-28T15:09:27.000Z</time>
      </trkpt>
      <trkpt lat="42.06351958215236663818359375" lon="3.0907589010894298553466796875">
        <ele>9</ele>
        <time>2022-07-28T15:09:36.000Z</time>
      </trkpt>
      <trkpt lat="42.06313066184520721435546875" lon="3.0906056798994541168212890625">
        <ele>9.19999980926513671875</ele>
        <time>2022-07-28T15:09:42.000Z</time>
      </trkpt>
      <trkpt lat="42.06259698607027530670166015625" lon="3.09038733132183551788330078125">
        <ele>9.6000003814697265625</ele>
        <time>2022-07-28T15:09:50.000Z</time>
      </trkpt>
      <trkpt lat="42.06246203742921352386474609375" lon="3.09033184312283992767333984375">
        <ele>9.80000019073486328125</ele>
        <time>2022-07-28T15:09:52.000Z</time>
      </trkpt>
      <trkpt lat="42.061917297542095184326171875" lon="3.09011374600231647491455078125">
        <ele>9.6000003814697265625</ele>
        <time>2022-07-28T15:10:00.000Z</time>
      </trkpt>
      <trkpt lat="42.0617835223674774169921875" lon="3.090060018002986907958984375">
        <ele>9.3999996185302734375</ele>
        <time>2022-07-28T15:10:02.000Z</time>
      </trkpt>
      <trkpt lat="42.06124029122292995452880859375" lon="3.089838735759258270263671875">
        <ele>9.19999980926513671875</ele>
        <time>2022-07-28T15:10:10.000Z</time>
      </trkpt>
      <trkpt lat="42.060965113341808319091796875" lon="3.0897275917232036590576171875">
        <ele>9.19999980926513671875</ele>
        <time>2022-07-28T15:10:14.000Z</time>
      </trkpt>
      <trkpt lat="42.06041651777923107147216796875" lon="3.08950622566044330596923828125">
        <ele>9.3999996185302734375</ele>
        <time>2022-07-28T15:10:22.000Z</time>
      </trkpt>
      <trkpt lat="42.06014092080295085906982421875" lon="3.08939474634826183319091796875">
        <ele>9.3999996185302734375</ele>
        <time>2022-07-28T15:10:26.000Z</time>
      </trkpt>
      <trkpt lat="42.05958955921232700347900390625" lon="3.08916659094393253326416015625">
        <ele>9.19999980926513671875</ele>
        <time>2022-07-28T15:10:34.000Z</time>
      </trkpt>
      <trkpt lat="42.059242464601993560791015625" lon="3.08902837336063385009765625">
        <ele>9.19999980926513671875</ele>
        <time>2022-07-28T15:10:39.000Z</time>
      </trkpt>
      <trkpt lat="42.05868632532656192779541015625" lon="3.08880046941339969635009765625">
        <ele>9</ele>
        <time>2022-07-28T15:10:47.000Z</time>
      </trkpt>
      <trkpt lat="42.05818961374461650848388671875" lon="3.08859980665147304534912109375">
        <ele>9.3999996185302734375</ele>
        <time>2022-07-28T15:10:54.000Z</time>
      </trkpt>
      <trkpt lat="42.05762601457536220550537109375" lon="3.08837416581809520721435546875">
        <ele>9.80000019073486328125</ele>
        <time>2022-07-28T15:11:02.000Z</time>
      </trkpt>
      <trkpt lat="42.05755569040775299072265625" lon="3.08834575116634368896484375">
        <ele>9.80000019073486328125</ele>
        <time>2022-07-28T15:11:03.000Z</time>
      </trkpt>
      <trkpt lat="42.0569741539657115936279296875" lon="3.08811315335333347320556640625">
        <ele>9.19999980926513671875</ele>
        <time>2022-07-28T15:11:11.000Z</time>
      </trkpt>
      <trkpt lat="42.0568294823169708251953125" lon="3.08805531822144985198974609375">
        <ele>9.19999980926513671875</ele>
        <time>2022-07-28T15:11:13.000Z</time>
      </trkpt>
      <trkpt lat="42.05668531358242034912109375" lon="3.08799899183213710784912109375">
        <ele>9.19999980926513671875</ele>
        <time>2022-07-28T15:11:15.000Z</time>
      </trkpt>
      <trkpt lat="42.05611224286258220672607421875" lon="3.08776899240911006927490234375">
        <ele>8.6000003814697265625</ele>
        <time>2022-07-28T15:11:23.000Z</time>
      </trkpt>
      <trkpt lat="42.05590085126459598541259765625" lon="3.08768416754901409149169921875">
        <ele>8.6000003814697265625</ele>
        <time>2022-07-28T15:11:26.000Z</time>
      </trkpt>
      <trkpt lat="42.0553435385227203369140625" lon="3.08746724389493465423583984375">
        <ele>8.3999996185302734375</ele>
        <time>2022-07-28T15:11:34.000Z</time>
      </trkpt>
      <trkpt lat="42.05513893626630306243896484375" lon="3.0873876996338367462158203125">
        <ele>8.6000003814697265625</ele>
        <time>2022-07-28T15:11:37.000Z</time>
      </trkpt>
      <trkpt lat="42.0546211861073970794677734375" lon="3.08717119507491588592529296875">
        <ele>8.6000003814697265625</ele>
        <time>2022-07-28T15:11:45.000Z</time>
      </trkpt>
      <trkpt lat="42.054320275783538818359375" lon="3.08699768967926502227783203125">
        <ele>9.19999980926513671875</ele>
        <time>2022-07-28T15:11:51.000Z</time>
      </trkpt>
      <trkpt lat="42.054230086505413055419921875" lon="3.086880929768085479736328125">
        <ele>9.80000019073486328125</ele>
        <time>2022-07-28T15:11:54.000Z</time>
      </trkpt>
      <trkpt lat="42.0545289851725101470947265625" lon="3.0834468640387058258056640625">
        <ele>10</ele>
        <time>2022-07-28T15:13:38.000Z</time>
      </trkpt>
      <trkpt lat="42.05455237068235874176025390625" lon="3.08333999477326869964599609375">
        <ele>10</ele>
        <time>2022-07-28T15:13:39.000Z</time>
      </trkpt>
      <trkpt lat="42.0547190867364406585693359375" lon="3.08259199373424053192138671875">
        <ele>10</ele>
        <time>2022-07-28T15:13:46.000Z</time>
      </trkpt>
      <trkpt lat="42.0547673664987087249755859375" lon="3.082379512488842010498046875">
        <ele>9.80000019073486328125</ele>
        <time>2022-07-28T15:13:48.000Z</time>
      </trkpt>
      <trkpt lat="42.05493357963860034942626953125" lon="3.08163511566817760467529296875">
        <ele>9.80000019073486328125</ele>
        <time>2022-07-28T15:13:55.000Z</time>
      </trkpt>
      <trkpt lat="42.0549564622342586517333984375" lon="3.0815287493169307708740234375">
        <ele>9.80000019073486328125</ele>
        <time>2022-07-28T15:13:56.000Z</time>
      </trkpt>
      <trkpt lat="42.0550292171537876129150390625" lon="3.081210069358348846435546875">
        <ele>9.6000003814697265625</ele>
        <time>2022-07-28T15:13:59.000Z</time>
      </trkpt>
      <trkpt lat="42.055195681750774383544921875" lon="3.08046231977641582489013671875">
        <ele>9.6000003814697265625</ele>
        <time>2022-07-28T15:14:06.000Z</time>
      </trkpt>
      <trkpt lat="42.0552686043083667755126953125" lon="3.08013877831399440765380859375">
        <ele>10</ele>
        <time>2022-07-28T15:14:09.000Z</time>
      </trkpt>
      <trkpt lat="42.05543917603790760040283203125" lon="3.07938356883823871612548828125">
        <ele>10</ele>
        <time>2022-07-28T15:14:16.000Z</time>
      </trkpt>
      <trkpt lat="42.05558359622955322265625" lon="3.0787365697324275970458984375">
        <ele>10</ele>
        <time>2022-07-28T15:14:22.000Z</time>
      </trkpt>
      <trkpt lat="42.055748887360095977783203125" lon="3.077990077435970306396484375">
        <ele>9.6000003814697265625</ele>
        <time>2022-07-28T15:14:29.000Z</time>
      </trkpt>
      <trkpt lat="42.0558439381420612335205078125" lon="3.077569305896759033203125">
        <ele>9.80000019073486328125</ele>
        <time>2022-07-28T15:14:33.000Z</time>
      </trkpt>
      <trkpt lat="42.0559803955256938934326171875" lon="3.07694342918694019317626953125">
        <ele>9.80000019073486328125</ele>
        <time>2022-07-28T15:14:39.000Z</time>
      </trkpt>
      <trkpt lat="42.05613353289663791656494140625" lon="3.0762069113552570343017578125">
        <ele>10.19999980926513671875</ele>
        <time>2022-07-28T15:14:46.000Z</time>
      </trkpt>
      <trkpt lat="42.05615716986358165740966796875" lon="3.07609987445175647735595703125">
        <ele>10.19999980926513671875</ele>
        <time>2022-07-28T15:14:47.000Z</time>
      </trkpt>
      <trkpt lat="42.056317515671253204345703125" lon="3.07538825087249279022216796875">
        <ele>10</ele>
        <time>2022-07-28T15:14:54.000Z</time>
      </trkpt>
      <trkpt lat="42.0563421584665775299072265625" lon="3.07528448291122913360595703125">
        <ele>10</ele>
        <time>2022-07-28T15:14:55.000Z</time>
      </trkpt>
      <trkpt lat="42.05650560557842254638671875" lon="3.07455894537270069122314453125">
        <ele>10.19999980926513671875</ele>
        <time>2022-07-28T15:15:02.000Z</time>
      </trkpt>
      <trkpt lat="42.0566435717046260833740234375" lon="3.07393767870962619781494140625">
        <ele>10.6000003814697265625</ele>
        <time>2022-07-28T15:15:08.000Z</time>
      </trkpt>
      <trkpt lat="42.05680542625486850738525390625" lon="3.07322421111166477203369140625">
        <ele>11.19999980926513671875</ele>
        <time>2022-07-28T15:15:15.000Z</time>
      </trkpt>
      <trkpt lat="42.0568665303289890289306640625" lon="3.0729369632899761199951171875">
        <ele>11.19999980926513671875</ele>
        <time>2022-07-28T15:15:18.000Z</time>
      </trkpt>
      <trkpt lat="42.05696853809058666229248046875" lon="3.0724642239511013031005859375">
        <ele>11.6000003814697265625</ele>
        <time>2022-07-28T15:15:23.000Z</time>
      </trkpt>
      <trkpt lat="42.057035677134990692138671875" lon="3.07216909714043140411376953125">
        <ele>11.6000003814697265625</ele>
        <time>2022-07-28T15:15:26.000Z</time>
      </trkpt>
      <trkpt lat="42.05718847922980785369873046875" lon="3.071472980082035064697265625">
        <ele>11.80000019073486328125</ele>
        <time>2022-07-28T15:15:33.000Z</time>
      </trkpt>
      <trkpt lat="42.0572997070848941802978515625" lon="3.07097350247204303741455078125">
        <ele>11.80000019073486328125</ele>
        <time>2022-07-28T15:15:38.000Z</time>
      </trkpt>
      <trkpt lat="42.05732024274766445159912109375" lon="3.07087476365268230438232421875">
        <ele>11.80000019073486328125</ele>
        <time>2022-07-28T15:15:39.000Z</time>
      </trkpt>
      <trkpt lat="42.05738327465951442718505859375" lon="3.0705816484987735748291015625">
        <ele>11.80000019073486328125</ele>
        <time>2022-07-28T15:15:42.000Z</time>
      </trkpt>
      <trkpt lat="42.05755795352160930633544921875" lon="3.06978478096425533294677734375">
        <ele>12</ele>
        <time>2022-07-28T15:15:50.000Z</time>
      </trkpt>
      <trkpt lat="42.05758075229823589324951171875" lon="3.06968335993587970733642578125">
        <ele>12</ele>
        <time>2022-07-28T15:15:51.000Z</time>
      </trkpt>
      <trkpt lat="42.05773766152560710906982421875" lon="3.068977184593677520751953125">
        <ele>12</ele>
        <time>2022-07-28T15:15:58.000Z</time>
      </trkpt>
      <trkpt lat="42.05780689604580402374267578125" lon="3.0686732567846775054931640625">
        <ele>12.19999980926513671875</ele>
        <time>2022-07-28T15:16:01.000Z</time>
      </trkpt>
      <trkpt lat="42.0579615421593189239501953125" lon="3.06796188466250896453857421875">
        <ele>12.19999980926513671875</ele>
        <time>2022-07-28T15:16:08.000Z</time>
      </trkpt>
      <trkpt lat="42.05798459239304065704345703125" lon="3.0678592063486576080322265625">
        <ele>12.19999980926513671875</ele>
        <time>2022-07-28T15:16:09.000Z</time>
      </trkpt>
      <trkpt lat="42.0581627078354358673095703125" lon="3.06714867241680622100830078125">
        <ele>12.3999996185302734375</ele>
        <time>2022-07-28T15:16:16.000Z</time>
      </trkpt>
      <trkpt lat="42.0582136698067188262939453125" lon="3.0669439025223255157470703125">
        <ele>12.3999996185302734375</ele>
        <time>2022-07-28T15:16:18.000Z</time>
      </trkpt>
      <trkpt lat="42.05838440917432308197021484375" lon="3.06620948016643524169921875">
        <ele>12.6000003814697265625</ele>
        <time>2022-07-28T15:16:25.000Z</time>
      </trkpt>
      <trkpt lat="42.058525644242763519287109375" lon="3.065567426383495330810546875">
        <ele>13</ele>
        <time>2022-07-28T15:16:31.000Z</time>
      </trkpt>
      <trkpt lat="42.05867056734859943389892578125" lon="3.0648152343928813934326171875">
        <ele>13</ele>
        <time>2022-07-28T15:16:38.000Z</time>
      </trkpt>
      <trkpt lat="42.05882965587079524993896484375" lon="3.06405809707939624786376953125">
        <ele>12.80000019073486328125</ele>
        <time>2022-07-28T15:16:45.000Z</time>
      </trkpt>
      <trkpt lat="42.05885329283773899078369140625" lon="3.063948713243007659912109375">
        <ele>12.80000019073486328125</ele>
        <time>2022-07-28T15:16:46.000Z</time>
      </trkpt>
      <trkpt lat="42.059024535119533538818359375" lon="3.06317699141800403594970703125">
        <ele>13</ele>
        <time>2022-07-28T15:16:53.000Z</time>
      </trkpt>
      <trkpt lat="42.05914783291518688201904296875" lon="3.0626215226948261260986328125">
        <ele>13</ele>
        <time>2022-07-28T15:16:58.000Z</time>
      </trkpt>
      <trkpt lat="42.05932133831083774566650390625" lon="3.06185315363109111785888671875">
        <ele>12.6000003814697265625</ele>
        <time>2022-07-28T15:17:05.000Z</time>
      </trkpt>
      <trkpt lat="42.0594917424023151397705078125" lon="3.06108386255800724029541015625">
        <ele>12.6000003814697265625</ele>
        <time>2022-07-28T15:17:12.000Z</time>
      </trkpt>
      <trkpt lat="42.05966600216925144195556640625" lon="3.06028976105153560638427734375">
        <ele>13.6000003814697265625</ele>
        <time>2022-07-28T15:17:19.000Z</time>
      </trkpt>
      <trkpt lat="42.0598213188350200653076171875" lon="3.0595879442989826202392578125">
        <ele>13.6000003814697265625</ele>
        <time>2022-07-28T15:17:25.000Z</time>
      </trkpt>
      <trkpt lat="42.0599758811295032501220703125" lon="3.05888646282255649566650390625">
        <ele>13.6000003814697265625</ele>
        <time>2022-07-28T15:17:31.000Z</time>
      </trkpt>
      <trkpt lat="42.0601314492523670196533203125" lon="3.05818757973611354827880859375">
        <ele>13.19999980926513671875</ele>
        <time>2022-07-28T15:17:37.000Z</time>
      </trkpt>
      <trkpt lat="42.060156762599945068359375" lon="3.05807107128202915191650390625">
        <ele>13.19999980926513671875</ele>
        <time>2022-07-28T15:17:38.000Z</time>
      </trkpt>
      <trkpt lat="42.06033370457589626312255859375" lon="3.05726188234984874725341796875">
        <ele>13.3999996185302734375</ele>
        <time>2022-07-28T15:17:45.000Z</time>
      </trkpt>
      <trkpt lat="42.0604580081999301910400390625" lon="3.05669995956122875213623046875">
        <ele>13.3999996185302734375</ele>
        <time>2022-07-28T15:17:50.000Z</time>
      </trkpt>
      <trkpt lat="42.0606098882853984832763671875" lon="3.0559815466403961181640625">
        <ele>13.6000003814697265625</ele>
        <time>2022-07-28T15:17:57.000Z</time>
      </trkpt>
      <trkpt lat="42.060759924352169036865234375" lon="3.0552350543439388275146484375">
        <ele>13.6000003814697265625</ele>
        <time>2022-07-28T15:18:05.000Z</time>
      </trkpt>
      <trkpt lat="42.06089344806969165802001953125" lon="3.05456525646150112152099609375">
        <ele>14.19999980926513671875</ele>
        <time>2022-07-28T15:18:13.000Z</time>
      </trkpt>
      <trkpt lat="42.061020433902740478515625" lon="3.05403216741979122161865234375">
        <ele>14.80000019073486328125</ele>
        <time>2022-07-28T15:18:20.000Z</time>
      </trkpt>
      <trkpt lat="42.06107332371175289154052734375" lon="3.0538785271346569061279296875">
        <ele>14.80000019073486328125</ele>
        <time>2022-07-28T15:18:23.000Z</time>
      </trkpt>
      <trkpt lat="42.0611020736396312713623046875" lon="3.05375003255903720855712890625">
        <ele>15</ele>
        <time>2022-07-28T15:18:25.000Z</time>
      </trkpt>
      <trkpt lat="42.0611989684402942657470703125" lon="3.05328349582850933074951171875">
        <ele>15</ele>
        <time>2022-07-28T15:18:31.000Z</time>
      </trkpt>
      <trkpt lat="42.0613662712275981903076171875" lon="3.0525719560682773590087890625">
        <ele>14.80000019073486328125</ele>
        <time>2022-07-28T15:18:39.000Z</time>
      </trkpt>
      <trkpt lat="42.06151840277016162872314453125" lon="3.05187466554343700408935546875">
        <ele>14.19999980926513671875</ele>
        <time>2022-07-28T15:18:46.000Z</time>
      </trkpt>
      <trkpt lat="42.06156425178050994873046875" lon="3.05166922509670257568359375">
        <ele>14</ele>
        <time>2022-07-28T15:18:48.000Z</time>
      </trkpt>
      <trkpt lat="42.06172577105462551116943359375" lon="3.05093924514949321746826171875">
        <ele>13.19999980926513671875</ele>
        <time>2022-07-28T15:18:55.000Z</time>
      </trkpt>
      <trkpt lat="42.06174873746931552886962890625" lon="3.050834722816944122314453125">
        <ele>13</ele>
        <time>2022-07-28T15:18:56.000Z</time>
      </trkpt>
      <trkpt lat="42.0617940835654735565185546875" lon="3.0506273545324802398681640625">
        <ele>12.80000019073486328125</ele>
        <time>2022-07-28T15:18:58.000Z</time>
      </trkpt>
      <trkpt lat="42.06195426173508167266845703125" lon="3.04991732351481914520263671875">
        <ele>12.3999996185302734375</ele>
        <time>2022-07-28T15:19:05.000Z</time>
      </trkpt>
      <trkpt lat="42.06197555176913738250732421875" lon="3.04982294328510761260986328125">
        <ele>12.3999996185302734375</ele>
        <time>2022-07-28T15:19:06.000Z</time>
      </trkpt>
      <trkpt lat="42.06214268691837787628173828125" lon="3.0490815639495849609375">
        <ele>12.80000019073486328125</ele>
        <time>2022-07-28T15:19:14.000Z</time>
      </trkpt>
      <trkpt lat="42.06216179765760898590087890625" lon="3.04899246431887149810791015625">
        <ele>13</ele>
        <time>2022-07-28T15:19:15.000Z</time>
      </trkpt>
      <trkpt lat="42.06229724921286106109619140625" lon="3.04833599366247653961181640625">
        <ele>13.6000003814697265625</ele>
        <time>2022-07-28T15:19:23.000Z</time>
      </trkpt>
      <trkpt lat="42.06233278848230838775634765625" lon="3.04821160621941089630126953125">
        <ele>13.6000003814697265625</ele>
        <time>2022-07-28T15:19:25.000Z</time>
      </trkpt>
      <trkpt lat="42.06236296333372592926025390625" lon="3.04812694899737834930419921875">
        <ele>13.80000019073486328125</ele>
        <time>2022-07-28T15:19:27.000Z</time>
      </trkpt>
      <trkpt lat="42.06238928250968456268310546875" lon="3.0480567924678325653076171875">
        <ele>13.80000019073486328125</ele>
        <time>2022-07-28T15:19:31.000Z</time>
      </trkpt>
      <trkpt lat="42.06239146180450916290283203125" lon="3.048059307038784027099609375">
        <ele>14.3999996185302734375</ele>
        <time>2022-07-28T15:19:35.000Z</time>
      </trkpt>
      <trkpt lat="42.0623912103474140167236328125" lon="3.0480598099529743194580078125">
        <ele>15.19999980926513671875</ele>
        <time>2022-07-28T15:19:41.000Z</time>
      </trkpt>
      <trkpt lat="42.06239439547061920166015625" lon="3.04806232452392578125">
        <ele>15.3999996185302734375</ele>
        <time>2022-07-28T15:19:56.000Z</time>
      </trkpt>
      <trkpt lat="42.06239431165158748626708984375" lon="3.04806441999971866607666015625">
        <ele>15.6000003814697265625</ele>
        <time>2022-07-28T15:20:25.000Z</time>
      </trkpt>
      <trkpt lat="42.06240177154541015625" lon="3.04805838502943515777587890625">
        <ele>15.6000003814697265625</ele>
        <time>2022-07-28T15:20:31.000Z</time>
      </trkpt>
      <trkpt lat="42.062406800687313079833984375" lon="3.04805360734462738037109375">
        <ele>15.6000003814697265625</ele>
        <time>2022-07-28T15:20:32.000Z</time>
      </trkpt>
      <trkpt lat="42.0624113269150257110595703125" lon="3.04803022183477878570556640625">
        <ele>15.6000003814697265625</ele>
        <time>2022-07-28T15:20:35.000Z</time>
      </trkpt>
      <trkpt lat="42.0624254085123538970947265625" lon="3.04797179996967315673828125">
        <ele>15.6000003814697265625</ele>
        <time>2022-07-28T15:20:37.000Z</time>
      </trkpt>
      <trkpt lat="42.062387354671955108642578125" lon="3.04781262762844562530517578125">
        <ele>15.3999996185302734375</ele>
        <time>2022-07-28T15:20:41.000Z</time>
      </trkpt>
      <trkpt lat="42.06220672465860843658447265625" lon="3.047756887972354888916015625">
        <ele>15.19999980926513671875</ele>
        <time>2022-07-28T15:20:45.000Z</time>
      </trkpt>
      <trkpt lat="42.0618416927754878997802734375" lon="3.04766996763646602630615234375">
        <ele>14.19999980926513671875</ele>
        <time>2022-07-28T15:20:51.000Z</time>
      </trkpt>
      <trkpt lat="42.06177572719752788543701171875" lon="3.0476527847349643707275390625">
        <ele>13.6000003814697265625</ele>
        <time>2022-07-28T15:20:52.000Z</time>
      </trkpt>
      <trkpt lat="42.06164178438484668731689453125" lon="3.0476165749132633209228515625">
        <ele>12.80000019073486328125</ele>
        <time>2022-07-28T15:20:54.000Z</time>
      </trkpt>
      <trkpt lat="42.0611640997231006622314453125" lon="3.04752814583480358123779296875">
        <ele>12</ele>
        <time>2022-07-28T15:21:01.000Z</time>
      </trkpt>
      <trkpt lat="42.0606041885912418365478515625" lon="3.04750836454331874847412109375">
        <ele>12.6000003814697265625</ele>
        <time>2022-07-28T15:21:09.000Z</time>
      </trkpt>
      <trkpt lat="42.06053428351879119873046875" lon="3.0475039221346378326416015625">
        <ele>12.6000003814697265625</ele>
        <time>2022-07-28T15:21:10.000Z</time>
      </trkpt>
      <trkpt lat="42.05996892414987087249755859375" lon="3.04748439230024814605712890625">
        <ele>12.80000019073486328125</ele>
        <time>2022-07-28T15:21:18.000Z</time>
      </trkpt>
      <trkpt lat="42.05982886254787445068359375" lon="3.0474787764251232147216796875">
        <ele>12.80000019073486328125</ele>
        <time>2022-07-28T15:21:20.000Z</time>
      </trkpt>
      <trkpt lat="42.0593480765819549560546875" lon="3.0473899282515048980712890625">
        <ele>12.80000019073486328125</ele>
        <time>2022-07-28T15:21:27.000Z</time>
      </trkpt>
      <trkpt lat="42.0589579828083515167236328125" lon="3.047182895243167877197265625">
        <ele>13</ele>
        <time>2022-07-28T15:21:33.000Z</time>
      </trkpt>
      <trkpt lat="42.05860133282840251922607421875" lon="3.04697896353900432586669921875">
        <ele>14.19999980926513671875</ele>
        <time>2022-07-28T15:21:39.000Z</time>
      </trkpt>
      <trkpt lat="42.05854215659201145172119140625" lon="3.0469450168311595916748046875">
        <ele>14.6000003814697265625</ele>
        <time>2022-07-28T15:21:40.000Z</time>
      </trkpt>
      <trkpt lat="42.058366723358631134033203125" lon="3.04684720002114772796630859375">
        <ele>15.3999996185302734375</ele>
        <time>2022-07-28T15:21:43.000Z</time>
      </trkpt>
      <trkpt lat="42.05810629762709140777587890625" lon="3.04670286364853382110595703125">
        <ele>15.80000019073486328125</ele>
        <time>2022-07-28T15:21:47.000Z</time>
      </trkpt>
      <trkpt lat="42.057598270475864410400390625" lon="3.0464001931250095367431640625">
        <ele>16</ele>
        <time>2022-07-28T15:21:55.000Z</time>
      </trkpt>
      <trkpt lat="42.05709594301879405975341796875" lon="3.04614127613604068756103515625">
        <ele>16.200000762939453125</ele>
        <time>2022-07-28T15:22:03.000Z</time>
      </trkpt>
      <trkpt lat="42.056550867855548858642578125" lon="3.0458778329193592071533203125">
        <ele>15.3999996185302734375</ele>
        <time>2022-07-28T15:22:11.000Z</time>
      </trkpt>
      <trkpt lat="42.0560461096465587615966796875" lon="3.0456354282796382904052734375">
        <ele>14.3999996185302734375</ele>
        <time>2022-07-28T15:22:18.000Z</time>
      </trkpt>
      <trkpt lat="42.05597595311701297760009765625" lon="3.0455982126295566558837890625">
        <ele>14.19999980926513671875</ele>
        <time>2022-07-28T15:22:19.000Z</time>
      </trkpt>
      <trkpt lat="42.05550941638648509979248046875" lon="3.04535304196178913116455078125">
        <ele>13.80000019073486328125</ele>
        <time>2022-07-28T15:22:26.000Z</time>
      </trkpt>
      <trkpt lat="42.05510616302490234375" lon="3.04516176693141460418701171875">
        <ele>14.19999980926513671875</ele>
        <time>2022-07-28T15:22:33.000Z</time>
      </trkpt>
      <trkpt lat="42.05492444336414337158203125" lon="3.04507375694811344146728515625">
        <ele>15.6000003814697265625</ele>
        <time>2022-07-28T15:22:36.000Z</time>
      </trkpt>
      <trkpt lat="42.05473274923861026763916015625" lon="3.04498407058417797088623046875">
        <ele>17</ele>
        <time>2022-07-28T15:22:39.000Z</time>
      </trkpt>
      <trkpt lat="42.0546701364219188690185546875" lon="3.044950626790523529052734375">
        <ele>17.200000762939453125</ele>
        <time>2022-07-28T15:22:40.000Z</time>
      </trkpt>
      <trkpt lat="42.0544257201254367828369140625" lon="3.04482582025229930877685546875">
        <ele>18</ele>
        <time>2022-07-28T15:22:44.000Z</time>
      </trkpt>
      <trkpt lat="42.05431046895682811737060546875" lon="3.04476949386298656463623046875">
        <ele>18.200000762939453125</ele>
        <time>2022-07-28T15:22:46.000Z</time>
      </trkpt>
      <trkpt lat="42.053957171738147735595703125" lon="3.04460160434246063232421875">
        <ele>19.200000762939453125</ele>
        <time>2022-07-28T15:22:52.000Z</time>
      </trkpt>
      <trkpt lat="42.05371904186904430389404296875" lon="3.0444855988025665283203125">
        <ele>19.6000003814697265625</ele>
        <time>2022-07-28T15:22:56.000Z</time>
      </trkpt>
      <trkpt lat="42.05334923230111598968505859375" lon="3.044304884970188140869140625">
        <ele>20.3999996185302734375</ele>
        <time>2022-07-28T15:23:02.000Z</time>
      </trkpt>
      <trkpt lat="42.05315376631915569305419921875" lon="3.044209666550159454345703125">
        <ele>20.6000003814697265625</ele>
        <time>2022-07-28T15:23:05.000Z</time>
      </trkpt>
      <trkpt lat="42.0525877363979816436767578125" lon="3.04393180646002292633056640625">
        <ele>19.799999237060546875</ele>
        <time>2022-07-28T15:23:13.000Z</time>
      </trkpt>
      <trkpt lat="42.05251171253621578216552734375" lon="3.0438960157334804534912109375">
        <ele>19.799999237060546875</ele>
        <time>2022-07-28T15:23:14.000Z</time>
      </trkpt>
      <trkpt lat="42.052121870219707489013671875" lon="3.043712116777896881103515625">
        <ele>19.3999996185302734375</ele>
        <time>2022-07-28T15:23:19.000Z</time>
      </trkpt>
      <trkpt lat="42.0518796332180500030517578125" lon="3.0435951054096221923828125">
        <ele>19</ele>
        <time>2022-07-28T15:23:22.000Z</time>
      </trkpt>
      <trkpt lat="42.05155483447015285491943359375" lon="3.04343744181096553802490234375">
        <ele>18.200000762939453125</ele>
        <time>2022-07-28T15:23:26.000Z</time>
      </trkpt>
      <trkpt lat="42.051394991576671600341796875" lon="3.04335840046405792236328125">
        <ele>17.200000762939453125</ele>
        <time>2022-07-28T15:23:28.000Z</time>
      </trkpt>
      <trkpt lat="42.051164992153644561767578125" lon="3.04324951954185962677001953125">
        <ele>15.3999996185302734375</ele>
        <time>2022-07-28T15:23:31.000Z</time>
      </trkpt>
      <trkpt lat="42.0510126091539859771728515625" lon="3.043173663318157196044921875">
        <ele>14.19999980926513671875</ele>
        <time>2022-07-28T15:23:33.000Z</time>
      </trkpt>
      <trkpt lat="42.05047910101711750030517578125" lon="3.04291583597660064697265625">
        <ele>13.19999980926513671875</ele>
        <time>2022-07-28T15:23:40.000Z</time>
      </trkpt>
      <trkpt lat="42.0504047535359859466552734375" lon="3.04287853650748729705810546875">
        <ele>13.19999980926513671875</ele>
        <time>2022-07-28T15:23:41.000Z</time>
      </trkpt>
      <trkpt lat="42.049885578453540802001953125" lon="3.04262942634522914886474609375">
        <ele>13</ele>
        <time>2022-07-28T15:23:48.000Z</time>
      </trkpt>
      <trkpt lat="42.0497417449951171875" lon="3.04256488569080829620361328125">
        <ele>13.19999980926513671875</ele>
        <time>2022-07-28T15:23:50.000Z</time>
      </trkpt>
      <trkpt lat="42.04921795986592769622802734375" lon="3.04230605252087116241455078125">
        <ele>13.6000003814697265625</ele>
        <time>2022-07-28T15:23:58.000Z</time>
      </trkpt>
      <trkpt lat="42.04911050386726856231689453125" lon="3.04224804975092411041259765625">
        <ele>13.80000019073486328125</ele>
        <time>2022-07-28T15:24:00.000Z</time>
      </trkpt>
      <trkpt lat="42.0490519143640995025634765625" lon="3.04214612580835819244384765625">
        <ele>14.19999980926513671875</ele>
        <time>2022-07-28T15:24:02.000Z</time>
      </trkpt>
      <trkpt lat="42.04907513223588466644287109375" lon="3.04203070700168609619140625">
        <ele>14.80000019073486328125</ele>
        <time>2022-07-28T15:24:04.000Z</time>
      </trkpt>
      <trkpt lat="42.049098350107669830322265625" lon="3.041981756687164306640625">
        <ele>15.6000003814697265625</ele>
        <time>2022-07-28T15:24:05.000Z</time>
      </trkpt>
      <trkpt lat="42.04912039451301097869873046875" lon="3.04193875752389430999755859375">
        <ele>16.200000762939453125</ele>
        <time>2022-07-28T15:24:06.000Z</time>
      </trkpt>
      <trkpt lat="42.0492255873978137969970703125" lon="3.04171294905245304107666015625">
        <ele>18.3999996185302734375</ele>
        <time>2022-07-28T15:24:14.000Z</time>
      </trkpt>
      <trkpt lat="42.0492681674659252166748046875" lon="3.041655533015727996826171875">
        <ele>18.799999237060546875</ele>
        <time>2022-07-28T15:24:16.000Z</time>
      </trkpt>
      <trkpt lat="42.04941493459045886993408203125" lon="3.0413998849689960479736328125">
        <ele>19</ele>
        <time>2022-07-28T15:24:21.000Z</time>
      </trkpt>
      <trkpt lat="42.049685753881931304931640625" lon="3.040895126760005950927734375">
        <ele>18.200000762939453125</ele>
        <time>2022-07-28T15:24:29.000Z</time>
      </trkpt>
      <trkpt lat="42.0499286614358425140380859375" lon="3.0404235608875751495361328125">
        <ele>18</ele>
        <time>2022-07-28T15:24:36.000Z</time>
      </trkpt>
      <trkpt lat="42.05015086568892002105712890625" lon="3.03989625535905361175537109375">
        <ele>18</ele>
        <time>2022-07-28T15:24:43.000Z</time>
      </trkpt>
      <trkpt lat="42.05045345239341259002685546875" lon="3.0392058379948139190673828125">
        <ele>18.200000762939453125</ele>
        <time>2022-07-28T15:24:52.000Z</time>
      </trkpt>
      <trkpt lat="42.0506441406905651092529296875" lon="3.03870837204158306121826171875">
        <ele>18.6000003814697265625</ele>
        <time>2022-07-28T15:24:58.000Z</time>
      </trkpt>
      <trkpt lat="42.05068361945450305938720703125" lon="3.03833085112273693084716796875">
        <ele>18.6000003814697265625</ele>
        <time>2022-07-28T15:25:02.000Z</time>
      </trkpt>
      <trkpt lat="42.0506394468247890472412109375" lon="3.037781752645969390869140625">
        <ele>18.200000762939453125</ele>
        <time>2022-07-28T15:25:08.000Z</time>
      </trkpt>
      <trkpt lat="42.0506163127720355987548828125" lon="3.037531636655330657958984375">
        <ele>18</ele>
        <time>2022-07-28T15:25:11.000Z</time>
      </trkpt>
      <trkpt lat="42.05057465471327304840087890625" lon="3.03728898055851459503173828125">
        <ele>18</ele>
        <time>2022-07-28T15:25:14.000Z</time>
      </trkpt>
      <trkpt lat="42.0504905842244625091552734375" lon="3.03671297617256641387939453125">
        <ele>18</ele>
        <time>2022-07-28T15:25:20.000Z</time>
      </trkpt>
      <trkpt lat="42.05045529641211032867431640625" lon="3.0361923761665821075439453125">
        <ele>17.6000003814697265625</ele>
        <time>2022-07-28T15:25:25.000Z</time>
      </trkpt>
      <trkpt lat="42.0504128001630306243896484375" lon="3.03557555191218852996826171875">
        <ele>17.3999996185302734375</ele>
        <time>2022-07-28T15:25:31.000Z</time>
      </trkpt>
      <trkpt lat="42.05031900666654109954833984375" lon="3.03483928553760051727294921875">
        <ele>17</ele>
        <time>2022-07-28T15:25:39.000Z</time>
      </trkpt>
      <trkpt lat="42.0502733252942562103271484375" lon="3.0343748442828655242919921875">
        <ele>16.799999237060546875</ele>
        <time>2022-07-28T15:25:44.000Z</time>
      </trkpt>
      <trkpt lat="42.05026402138173580169677734375" lon="3.03419597446918487548828125">
        <ele>16.799999237060546875</ele>
        <time>2022-07-28T15:25:46.000Z</time>
      </trkpt>
      <trkpt lat="42.05023200251162052154541015625" lon="3.0335341393947601318359375">
        <ele>17</ele>
        <time>2022-07-28T15:25:53.000Z</time>
      </trkpt>
      <trkpt lat="42.0501794479787349700927734375" lon="3.03289107978343963623046875">
        <ele>16.799999237060546875</ele>
        <time>2022-07-28T15:26:00.000Z</time>
      </trkpt>
      <trkpt lat="42.05011314712464809417724609375" lon="3.0322439968585968017578125">
        <ele>16.799999237060546875</ele>
        <time>2022-07-28T15:26:07.000Z</time>
      </trkpt>
      <trkpt lat="42.04993260093033313751220703125" lon="3.031719960272312164306640625">
        <ele>16.799999237060546875</ele>
        <time>2022-07-28T15:26:13.000Z</time>
      </trkpt>
      <trkpt lat="42.04975473694503307342529296875" lon="3.03118695504963397979736328125">
        <ele>16.799999237060546875</ele>
        <time>2022-07-28T15:26:19.000Z</time>
      </trkpt>
      <trkpt lat="42.049584500491619110107421875" lon="3.030416071414947509765625">
        <ele>16.799999237060546875</ele>
        <time>2022-07-28T15:26:27.000Z</time>
      </trkpt>
      <trkpt lat="42.0495642162859439849853515625" lon="3.03031750023365020751953125">
        <ele>16.799999237060546875</ele>
        <time>2022-07-28T15:26:28.000Z</time>
      </trkpt>
      <trkpt lat="42.0495150983333587646484375" lon="3.030033521354198455810546875">
        <ele>16.799999237060546875</ele>
        <time>2022-07-28T15:26:31.000Z</time>
      </trkpt>
      <trkpt lat="42.04948752187192440032958984375" lon="3.02975532598793506622314453125">
        <ele>17</ele>
        <time>2022-07-28T15:26:34.000Z</time>
      </trkpt>
      <trkpt lat="42.0494344644248485565185546875" lon="3.02898980677127838134765625">
        <ele>17.3999996185302734375</ele>
        <time>2022-07-28T15:26:42.000Z</time>
      </trkpt>
      <trkpt lat="42.04942901618778705596923828125" lon="3.02889182232320308685302734375">
        <ele>17.6000003814697265625</ele>
        <time>2022-07-28T15:26:43.000Z</time>
      </trkpt>
      <trkpt lat="42.0493979193270206451416015625" lon="3.02812269888818264007568359375">
        <ele>18</ele>
        <time>2022-07-28T15:26:51.000Z</time>
      </trkpt>
      <trkpt lat="42.0493979193270206451416015625" lon="3.02803284488618373870849609375">
        <ele>18</ele>
        <time>2022-07-28T15:26:52.000Z</time>
      </trkpt>
      <trkpt lat="42.049412168562412261962890625" lon="3.0273957364261150360107421875">
        <ele>18.200000762939453125</ele>
        <time>2022-07-28T15:26:59.000Z</time>
      </trkpt>
      <trkpt lat="42.04943102784454822540283203125" lon="3.02660398185253143310546875">
        <ele>18.3999996185302734375</ele>
        <time>2022-07-28T15:27:07.000Z</time>
      </trkpt>
      <trkpt lat="42.0493908785283565521240234375" lon="3.0258112214505672454833984375">
        <ele>18.200000762939453125</ele>
        <time>2022-07-28T15:27:15.000Z</time>
      </trkpt>
      <trkpt lat="42.04935894347727298736572265625" lon="3.02551592700183391571044921875">
        <ele>18</ele>
        <time>2022-07-28T15:27:18.000Z</time>
      </trkpt>
      <trkpt lat="42.04921410419046878814697265625" lon="3.024956099689006805419921875">
        <ele>17.6000003814697265625</ele>
        <time>2022-07-28T15:27:24.000Z</time>
      </trkpt>
      <trkpt lat="42.04897773452103137969970703125" lon="3.024215810000896453857421875">
        <ele>17.6000003814697265625</ele>
        <time>2022-07-28T15:27:32.000Z</time>
      </trkpt>
      <trkpt lat="42.0487927459180355072021484375" lon="3.02357417531311511993408203125">
        <ele>17.6000003814697265625</ele>
        <time>2022-07-28T15:27:39.000Z</time>
      </trkpt>
      <trkpt lat="42.0486702024936676025390625" lon="3.0229311995208263397216796875">
        <ele>18</ele>
        <time>2022-07-28T15:27:46.000Z</time>
      </trkpt>
      <trkpt lat="42.04856090247631072998046875" lon="3.0224460549652576446533203125">
        <ele>18.3999996185302734375</ele>
        <time>2022-07-28T15:27:52.000Z</time>
      </trkpt>
      <trkpt lat="42.048038206994533538818359375" lon="3.02029735408723354339599609375">
        <ele>16</ele>
        <time>2022-07-28T15:42:12.000Z</time>
      </trkpt>
      <trkpt lat="42.0481198467314243316650390625" lon="3.0206643976271152496337890625">
        <ele>16</ele>
        <time>2022-07-28T15:42:17.000Z</time>
      </trkpt>
      <trkpt lat="42.04820794053375720977783203125" lon="3.021028004586696624755859375">
        <ele>15.19999980926513671875</ele>
        <time>2022-07-28T15:42:21.000Z</time>
      </trkpt>
      <trkpt lat="42.04825353808701038360595703125" lon="3.02121349610388278961181640625">
        <ele>14</ele>
        <time>2022-07-28T15:42:23.000Z</time>
      </trkpt>
      <trkpt lat="42.0482757501304149627685546875" lon="3.02130653522908687591552734375">
        <ele>13.6000003814697265625</ele>
        <time>2022-07-28T15:42:24.000Z</time>
      </trkpt>
      <trkpt lat="42.0483609102666378021240234375" lon="3.021681122481822967529296875">
        <ele>13</ele>
        <time>2022-07-28T15:42:28.000Z</time>
      </trkpt>
      <trkpt lat="42.048466689884662628173828125" lon="3.02213030867278575897216796875">
        <ele>12.80000019073486328125</ele>
        <time>2022-07-28T15:42:33.000Z</time>
      </trkpt>
      <trkpt lat="42.04835043288767337799072265625" lon="3.0214962176978588104248046875">
        <ele>19.3999996185302734375</ele>
        <time>2022-07-28T15:50:28.000Z</time>
      </trkpt>
      <trkpt lat="42.04835982061922550201416015625" lon="3.021536953747272491455078125">
        <ele>19.3999996185302734375</ele>
        <time>2022-07-28T15:50:29.000Z</time>
      </trkpt>
      <trkpt lat="42.04841882921755313873291015625" lon="3.0218214355409145355224609375">
        <ele>19.200000762939453125</ele>
        <time>2022-07-28T15:50:34.000Z</time>
      </trkpt>
      <trkpt lat="42.04851371236145496368408203125" lon="3.0222237668931484222412109375">
        <ele>18.6000003814697265625</ele>
        <time>2022-07-28T15:50:40.000Z</time>
      </trkpt>
      <trkpt lat="42.04849644564092159271240234375" lon="3.02210767753422260284423828125">
        <ele>20.6000003814697265625</ele>
        <time>2022-07-28T15:54:35.000Z</time>
      </trkpt>
      <trkpt lat="42.04842536710202693939208984375" lon="3.021774999797344207763671875">
        <ele>20.3999996185302734375</ele>
        <time>2022-07-28T15:54:41.000Z</time>
      </trkpt>
      <trkpt lat="42.04831489361822605133056640625" lon="3.02129949443042278289794921875">
        <ele>20</ele>
        <time>2022-07-28T15:54:48.000Z</time>
      </trkpt>
      <trkpt lat="42.04819385893642902374267578125" lon="3.02078333683311939239501953125">
        <ele>19.6000003814697265625</ele>
        <time>2022-07-28T15:54:55.000Z</time>
      </trkpt>
      <trkpt lat="42.0480742491781711578369140625" lon="3.02028578706085681915283203125">
        <ele>19.6000003814697265625</ele>
        <time>2022-07-28T15:55:01.000Z</time>
      </trkpt>
      <trkpt lat="42.04805689863860607147216796875" lon="3.0202040635049343109130859375">
        <ele>19.6000003814697265625</ele>
        <time>2022-07-28T15:55:02.000Z</time>
      </trkpt>
      <trkpt lat="42.047936618328094482421875" lon="3.01967860199511051177978515625">
        <ele>19.3999996185302734375</ele>
        <time>2022-07-28T15:55:08.000Z</time>
      </trkpt>
      <trkpt lat="42.0477657951414585113525390625" lon="3.01896714605391025543212890625">
        <ele>19.3999996185302734375</ele>
        <time>2022-07-28T15:55:16.000Z</time>
      </trkpt>
      <trkpt lat="42.04774425365030765533447265625" lon="3.01887712441384792327880859375">
        <ele>19.3999996185302734375</ele>
        <time>2022-07-28T15:55:17.000Z</time>
      </trkpt>
      <trkpt lat="42.047669403254985809326171875" lon="3.0185310356318950653076171875">
        <ele>19.3999996185302734375</ele>
        <time>2022-07-28T15:55:21.000Z</time>
      </trkpt>
      <trkpt lat="42.047657333314418792724609375" lon="3.0183654092252254486083984375">
        <ele>19.3999996185302734375</ele>
        <time>2022-07-28T15:55:23.000Z</time>
      </trkpt>
      <trkpt lat="42.0477198623120784759521484375" lon="3.01812811754643917083740234375">
        <ele>19.3999996185302734375</ele>
        <time>2022-07-28T15:55:26.000Z</time>
      </trkpt>
      <trkpt lat="42.04775230027735233306884765625" lon="3.01805050112307071685791015625">
        <ele>19.3999996185302734375</ele>
        <time>2022-07-28T15:55:27.000Z</time>
      </trkpt>
      <trkpt lat="42.04798531718552112579345703125" lon="3.01747030578553676605224609375">
        <ele>19.799999237060546875</ele>
        <time>2022-07-28T15:55:34.000Z</time>
      </trkpt>
      <trkpt lat="42.0482599921524524688720703125" lon="3.0167663097381591796875">
        <ele>20.200000762939453125</ele>
        <time>2022-07-28T15:55:42.000Z</time>
      </trkpt>
      <trkpt lat="42.04829527996480464935302734375" lon="3.01667712628841400146484375">
        <ele>20.200000762939453125</ele>
        <time>2022-07-28T15:55:43.000Z</time>
      </trkpt>
      <trkpt lat="42.048589400947093963623046875" lon="3.015940189361572265625">
        <ele>20.200000762939453125</ele>
        <time>2022-07-28T15:55:51.000Z</time>
      </trkpt>
      <trkpt lat="42.04862703569233417510986328125" lon="3.01583432592451572418212890625">
        <ele>20</ele>
        <time>2022-07-28T15:55:52.000Z</time>
      </trkpt>
      <trkpt lat="42.0486720465123653411865234375" lon="3.0155112035572528839111328125">
        <ele>20</ele>
        <time>2022-07-28T15:55:55.000Z</time>
      </trkpt>
      <trkpt lat="42.04864212311804294586181640625" lon="3.01530517637729644775390625">
        <ele>20.200000762939453125</ele>
        <time>2022-07-28T15:55:57.000Z</time>
      </trkpt>
      <trkpt lat="42.0485865511000156402587890625" lon="3.0150213651359081268310546875">
        <ele>20.3999996185302734375</ele>
        <time>2022-07-28T15:56:00.000Z</time>
      </trkpt>
      <trkpt lat="42.04847079701721668243408203125" lon="3.01451048813760280609130859375">
        <ele>21.200000762939453125</ele>
        <time>2022-07-28T15:56:06.000Z</time>
      </trkpt>
      <trkpt lat="42.048451267182826995849609375" lon="3.01442381925880908966064453125">
        <ele>21.200000762939453125</ele>
        <time>2022-07-28T15:56:07.000Z</time>
      </trkpt>
      <trkpt lat="42.0482864789664745330810546875" lon="3.013711273670196533203125">
        <ele>21.799999237060546875</ele>
        <time>2022-07-28T15:56:15.000Z</time>
      </trkpt>
      <trkpt lat="42.0482677035033702850341796875" lon="3.0136239342391490936279296875">
        <ele>21.799999237060546875</ele>
        <time>2022-07-28T15:56:16.000Z</time>
      </trkpt>
      <trkpt lat="42.04810249619185924530029296875" lon="3.0129374563694000244140625">
        <ele>22</ele>
        <time>2022-07-28T15:56:24.000Z</time>
      </trkpt>
      <trkpt lat="42.04799839295446872711181640625" lon="3.0125349573791027069091796875">
        <ele>22.200000762939453125</ele>
        <time>2022-07-28T15:56:29.000Z</time>
      </trkpt>
      <trkpt lat="42.0479827187955379486083984375" lon="3.01245935261249542236328125">
        <ele>22.3999996185302734375</ele>
        <time>2022-07-28T15:56:30.000Z</time>
      </trkpt>
      <trkpt lat="42.0478757657110691070556640625" lon="3.01209029741585254669189453125">
        <ele>22.6000003814697265625</ele>
        <time>2022-07-28T15:56:35.000Z</time>
      </trkpt>
      <trkpt lat="42.0475961454212665557861328125" lon="3.011399209499359130859375">
        <ele>23.200000762939453125</ele>
        <time>2022-07-28T15:56:44.000Z</time>
      </trkpt>
      <trkpt lat="42.04752112738788127899169921875" lon="3.011248670518398284912109375">
        <ele>23.3999996185302734375</ele>
        <time>2022-07-28T15:56:46.000Z</time>
      </trkpt>
      <trkpt lat="42.04735214821994304656982421875" lon="3.01095035858452320098876953125">
        <ele>23.3999996185302734375</ele>
        <time>2022-07-28T15:56:50.000Z</time>
      </trkpt>
      <trkpt lat="42.04709012992680072784423828125" lon="3.0104267410933971405029296875">
        <ele>24.200000762939453125</ele>
        <time>2022-07-28T15:56:57.000Z</time>
      </trkpt>
      <trkpt lat="42.04697362147271633148193359375" lon="3.010104037821292877197265625">
        <ele>24.3999996185302734375</ele>
        <time>2022-07-28T15:57:01.000Z</time>
      </trkpt>
      <trkpt lat="42.04693255014717578887939453125" lon="3.009934723377227783203125">
        <ele>24.799999237060546875</ele>
        <time>2022-07-28T15:57:03.000Z</time>
      </trkpt>
      <trkpt lat="42.04685459844768047332763671875" lon="3.00944061018526554107666015625">
        <ele>25.3999996185302734375</ele>
        <time>2022-07-28T15:57:09.000Z</time>
      </trkpt>
      <trkpt lat="42.04683783464133739471435546875" lon="3.00936081446707248687744140625">
        <ele>25.3999996185302734375</ele>
        <time>2022-07-28T15:57:10.000Z</time>
      </trkpt>
      <trkpt lat="42.04675200395286083221435546875" lon="3.00896854139864444732666015625">
        <ele>26.6000003814697265625</ele>
        <time>2022-07-28T15:57:15.000Z</time>
      </trkpt>
      <trkpt lat="42.04669802449643611907958984375" lon="3.00873636268079280853271484375">
        <ele>27.200000762939453125</ele>
        <time>2022-07-28T15:57:18.000Z</time>
      </trkpt>
      <trkpt lat="42.046628035604953765869140625" lon="3.00842665135860443115234375">
        <ele>27.799999237060546875</ele>
        <time>2022-07-28T15:57:22.000Z</time>
      </trkpt>
      <trkpt lat="42.0465165562927722930908203125" lon="3.0079671554267406463623046875">
        <ele>29</ele>
        <time>2022-07-28T15:57:28.000Z</time>
      </trkpt>
      <trkpt lat="42.04635746777057647705078125" lon="3.00731345079839229583740234375">
        <ele>30</ele>
        <time>2022-07-28T15:57:37.000Z</time>
      </trkpt>
      <trkpt lat="42.046341709792613983154296875" lon="3.00724253989756107330322265625">
        <ele>30.200000762939453125</ele>
        <time>2022-07-28T15:57:38.000Z</time>
      </trkpt>
      <trkpt lat="42.04632754437625408172607421875" lon="3.00717146135866641998291015625">
        <ele>30.3999996185302734375</ele>
        <time>2022-07-28T15:57:39.000Z</time>
      </trkpt>
      <trkpt lat="42.0462815277278423309326171875" lon="3.00689687021076679229736328125">
        <ele>31.200000762939453125</ele>
        <time>2022-07-28T15:57:43.000Z</time>
      </trkpt>
      <trkpt lat="42.046245820820331573486328125" lon="3.00665128044784069061279296875">
        <ele>32</ele>
        <time>2022-07-28T15:57:47.000Z</time>
      </trkpt>
      <trkpt lat="42.04623685218393802642822265625" lon="3.00659093074500560760498046875">
        <ele>32.200000762939453125</ele>
        <time>2022-07-28T15:57:48.000Z</time>
      </trkpt>
      <trkpt lat="42.0462267100811004638671875" lon="3.00653041340410709381103515625">
        <ele>32.40000152587890625</ele>
        <time>2022-07-28T15:57:49.000Z</time>
      </trkpt>
      <trkpt lat="42.04617314971983432769775390625" lon="3.00627795048058032989501953125">
        <ele>33.40000152587890625</ele>
        <time>2022-07-28T15:57:53.000Z</time>
      </trkpt>
      <trkpt lat="42.04615538008511066436767578125" lon="3.00621206872165203094482421875">
        <ele>33.40000152587890625</ele>
        <time>2022-07-28T15:57:54.000Z</time>
      </trkpt>
      <trkpt lat="42.0460344292223453521728515625" lon="3.0058093182742595672607421875">
        <ele>34.40000152587890625</ele>
        <time>2022-07-28T15:58:00.000Z</time>
      </trkpt>
      <trkpt lat="42.04599511809647083282470703125" lon="3.0056725256145000457763671875">
        <ele>34.59999847412109375</ele>
        <time>2022-07-28T15:58:02.000Z</time>
      </trkpt>
      <trkpt lat="42.04580199904739856719970703125" lon="3.00499199889600276947021484375">
        <ele>35.40000152587890625</ele>
        <time>2022-07-28T15:58:12.000Z</time>
      </trkpt>
      <trkpt lat="42.0456827245652675628662109375" lon="3.00464884378015995025634765625">
        <ele>36.59999847412109375</ele>
        <time>2022-07-28T15:58:18.000Z</time>
      </trkpt>
      <trkpt lat="42.04566101543605327606201171875" lon="3.00459167920053005218505859375">
        <ele>36.799999237060546875</ele>
        <time>2022-07-28T15:58:19.000Z</time>
      </trkpt>
      <trkpt lat="42.04554316587746143341064453125" lon="3.004360757768154144287109375">
        <ele>37.799999237060546875</ele>
        <time>2022-07-28T15:58:23.000Z</time>
      </trkpt>
      <trkpt lat="42.045479379594326019287109375" lon="3.00423569977283477783203125">
        <ele>38.200000762939453125</ele>
        <time>2022-07-28T15:58:25.000Z</time>
      </trkpt>
      <trkpt lat="42.0452421717345714569091796875" lon="3.00374980084598064422607421875">
        <ele>38.59999847412109375</ele>
        <time>2022-07-28T15:58:33.000Z</time>
      </trkpt>
      <trkpt lat="42.04516522586345672607421875" lon="3.0035817436873912811279296875">
        <ele>38.799999237060546875</ele>
        <time>2022-07-28T15:58:36.000Z</time>
      </trkpt>
      <trkpt lat="42.0450440235435962677001953125" lon="3.00331729464232921600341796875">
        <ele>39.40000152587890625</ele>
        <time>2022-07-28T15:58:41.000Z</time>
      </trkpt>
      <trkpt lat="42.04501577652990818023681640625" lon="3.00326566211879253387451171875">
        <ele>39.799999237060546875</ele>
        <time>2022-07-28T15:58:42.000Z</time>
      </trkpt>
      <trkpt lat="42.04498258419334888458251953125" lon="3.00321553833782672882080078125">
        <ele>40.200000762939453125</ele>
        <time>2022-07-28T15:58:43.000Z</time>
      </trkpt>
      <trkpt lat="42.04488300718367099761962890625" lon="3.00306969322264194488525390625">
        <ele>41</ele>
        <time>2022-07-28T15:58:46.000Z</time>
      </trkpt>
      <trkpt lat="42.044852077960968017578125" lon="3.00302174873650074005126953125">
        <ele>41.200000762939453125</ele>
        <time>2022-07-28T15:58:47.000Z</time>
      </trkpt>
      <trkpt lat="42.044760547578334808349609375" lon="3.0028736405074596405029296875">
        <ele>41.40000152587890625</ele>
        <time>2022-07-28T15:58:50.000Z</time>
      </trkpt>
      <trkpt lat="42.04467295669019222259521484375" lon="3.00272067077457904815673828125">
        <ele>41.799999237060546875</ele>
        <time>2022-07-28T15:58:53.000Z</time>
      </trkpt>
      <trkpt lat="42.0445478148758411407470703125" lon="3.0025316588580608367919921875">
        <ele>42.200000762939453125</ele>
        <time>2022-07-28T15:58:57.000Z</time>
      </trkpt>
      <trkpt lat="42.04445754177868366241455078125" lon="3.0024173296988010406494140625">
        <ele>42.59999847412109375</ele>
        <time>2022-07-28T15:59:00.000Z</time>
      </trkpt>
      <trkpt lat="42.0442822761833667755126953125" lon="3.0022151581943035125732421875">
        <ele>43.200000762939453125</ele>
        <time>2022-07-28T15:59:06.000Z</time>
      </trkpt>
      <trkpt lat="42.04424925148487091064453125" lon="3.0021618492901325225830078125">
        <ele>43.40000152587890625</ele>
        <time>2022-07-28T15:59:07.000Z</time>
      </trkpt>
      <trkpt lat="42.0441830344498157501220703125" lon="3.00199144519865512847900390625">
        <ele>44.40000152587890625</ele>
        <time>2022-07-28T15:59:10.000Z</time>
      </trkpt>
      <trkpt lat="42.044148333370685577392578125" lon="3.00187510438263416290283203125">
        <ele>44.799999237060546875</ele>
        <time>2022-07-28T15:59:12.000Z</time>
      </trkpt>
      <trkpt lat="42.044101059436798095703125" lon="3.001666478812694549560546875">
        <ele>45.40000152587890625</ele>
        <time>2022-07-28T15:59:15.000Z</time>
      </trkpt>
      <trkpt lat="42.044057808816432952880859375" lon="3.00147377885878086090087890625">
        <ele>45.799999237060546875</ele>
        <time>2022-07-28T15:59:18.000Z</time>
      </trkpt>
      <trkpt lat="42.04397323541343212127685546875" lon="3.001196086406707763671875">
        <ele>46.40000152587890625</ele>
        <time>2022-07-28T15:59:23.000Z</time>
      </trkpt>
      <trkpt lat="42.04395580105483531951904296875" lon="3.00114805810153484344482421875">
        <ele>46.59999847412109375</ele>
        <time>2022-07-28T15:59:24.000Z</time>
      </trkpt>
      <trkpt lat="42.0439376123249530792236328125" lon="3.0010963417589664459228515625">
        <ele>46.59999847412109375</ele>
        <time>2022-07-28T15:59:25.000Z</time>
      </trkpt>
      <trkpt lat="42.0438993908464908599853515625" lon="3.00099198706448078155517578125">
        <ele>47</ele>
        <time>2022-07-28T15:59:27.000Z</time>
      </trkpt>
      <trkpt lat="42.04384666867554187774658203125" lon="3.000884614884853363037109375">
        <ele>47.59999847412109375</ele>
        <time>2022-07-28T15:59:29.000Z</time>
      </trkpt>
      <trkpt lat="42.04382202588021755218505859375" lon="3.00083306618034839630126953125">
        <ele>47.799999237060546875</ele>
        <time>2022-07-28T15:59:30.000Z</time>
      </trkpt>
      <trkpt lat="42.0437153242528438568115234375" lon="3.00062620081007480621337890625">
        <ele>48.59999847412109375</ele>
        <time>2022-07-28T15:59:34.000Z</time>
      </trkpt>
      <trkpt lat="42.0436020009219646453857421875" lon="3.00038874149322509765625">
        <ele>49</ele>
        <time>2022-07-28T15:59:38.000Z</time>
      </trkpt>
      <trkpt lat="42.04344199039041996002197265625" lon="3.00005413591861724853515625">
        <ele>49.59999847412109375</ele>
        <time>2022-07-28T15:59:44.000Z</time>
      </trkpt>
      <trkpt lat="42.04337175004184246063232421875" lon="2.99997308291494846343994140625">
        <ele>49.59999847412109375</ele>
        <time>2022-07-28T15:59:46.000Z</time>
      </trkpt>
      <trkpt lat="42.04326010309159755706787109375" lon="2.99985690973699092864990234375">
        <ele>49.799999237060546875</ele>
        <time>2022-07-28T15:59:49.000Z</time>
      </trkpt>
      <trkpt lat="42.04316438175737857818603515625" lon="2.9997307620942592620849609375">
        <ele>50.59999847412109375</ele>
        <time>2022-07-28T15:59:52.000Z</time>
      </trkpt>
      <trkpt lat="42.04313538037240505218505859375" lon="2.9996787942945957183837890625">
        <ele>50.799999237060546875</ele>
        <time>2022-07-28T15:59:53.000Z</time>
      </trkpt>
      <trkpt lat="42.04304954968392848968505859375" lon="2.99948458559811115264892578125">
        <ele>51.200000762939453125</ele>
        <time>2022-07-28T15:59:57.000Z</time>
      </trkpt>
      <trkpt lat="42.04298618249595165252685546875" lon="2.9993250779807567596435546875">
        <ele>51.799999237060546875</ele>
        <time>2022-07-28T16:00:01.000Z</time>
      </trkpt>
      <trkpt lat="42.04295449890196323394775390625" lon="2.99926020205020904541015625">
        <ele>52</ele>
        <time>2022-07-28T16:00:03.000Z</time>
      </trkpt>
      <trkpt lat="42.04288643784821033477783203125" lon="2.99913355149328708648681640625">
        <ele>53.40000152587890625</ele>
        <time>2022-07-28T16:00:07.000Z</time>
      </trkpt>
      <trkpt lat="42.0428610406816005706787109375" lon="2.99909566529095172882080078125">
        <ele>53.59999847412109375</ele>
        <time>2022-07-28T16:00:08.000Z</time>
      </trkpt>
      <trkpt lat="42.0427919737994670867919921875" lon="2.9989794082939624786376953125">
        <ele>54.40000152587890625</ele>
        <time>2022-07-28T16:00:11.000Z</time>
      </trkpt>
      <trkpt lat="42.042717374861240386962890625" lon="2.998867928981781005859375">
        <ele>55.200000762939453125</ele>
        <time>2022-07-28T16:00:14.000Z</time>
      </trkpt>
      <trkpt lat="42.0426861941814422607421875" lon="2.9988322220742702484130859375">
        <ele>55.59999847412109375</ele>
        <time>2022-07-28T16:00:15.000Z</time>
      </trkpt>
      <trkpt lat="42.04248762689530849456787109375" lon="2.998626865446567535400390625">
        <ele>56.799999237060546875</ele>
        <time>2022-07-28T16:00:21.000Z</time>
      </trkpt>
      <trkpt lat="42.04232702963054180145263671875" lon="2.99851245246827602386474609375">
        <ele>57.799999237060546875</ele>
        <time>2022-07-28T16:00:26.000Z</time>
      </trkpt>
      <trkpt lat="42.0422977767884731292724609375" lon="2.9984895698726177215576171875">
        <ele>58</ele>
        <time>2022-07-28T16:00:27.000Z</time>
      </trkpt>
      <trkpt lat="42.0421583019196987152099609375" lon="2.99831128679215908050537109375">
        <ele>59</ele>
        <time>2022-07-28T16:00:33.000Z</time>
      </trkpt>
      <trkpt lat="42.04208672046661376953125" lon="2.9982247017323970794677734375">
        <ele>60</ele>
        <time>2022-07-28T16:00:36.000Z</time>
      </trkpt>
      <trkpt lat="42.04201606102287769317626953125" lon="2.99813979305326938629150390625">
        <ele>60.59999847412109375</ele>
        <time>2022-07-28T16:00:39.000Z</time>
      </trkpt>
      <trkpt lat="42.04196803271770477294921875" lon="2.9980741627514362335205078125">
        <ele>61.200000762939453125</ele>
        <time>2022-07-28T16:00:41.000Z</time>
      </trkpt>
      <trkpt lat="42.04187172465026378631591796875" lon="2.99795958213508129119873046875">
        <ele>62.200000762939453125</ele>
        <time>2022-07-28T16:00:45.000Z</time>
      </trkpt>
      <trkpt lat="42.04185093753039836883544921875" lon="2.99793384969234466552734375">
        <ele>62.200000762939453125</ele>
        <time>2022-07-28T16:00:46.000Z</time>
      </trkpt>
      <trkpt lat="42.0417164079844951629638671875" lon="2.99778725020587444305419921875">
        <ele>63.40000152587890625</ele>
        <time>2022-07-28T16:00:52.000Z</time>
      </trkpt>
      <trkpt lat="42.04170928336679935455322265625" lon="2.99777065403759479522705078125">
        <ele>63.59999847412109375</ele>
        <time>2022-07-28T16:00:53.000Z</time>
      </trkpt>
      <trkpt lat="42.04170140437781810760498046875" lon="2.9977481067180633544921875">
        <ele>63.799999237060546875</ele>
        <time>2022-07-28T16:00:55.000Z</time>
      </trkpt>
      <trkpt lat="42.04161909408867359161376953125" lon="2.99772463738918304443359375">
        <ele>65.8000030517578125</ele>
        <time>2022-07-28T16:01:22.000Z</time>
      </trkpt>
      <trkpt lat="42.041494958102703094482421875" lon="2.99772203899919986724853515625">
        <ele>65.59999847412109375</ele>
        <time>2022-07-28T16:01:26.000Z</time>
      </trkpt>
      <trkpt lat="42.04116831533610820770263671875" lon="2.99764844588935375213623046875">
        <ele>65.59999847412109375</ele>
        <time>2022-07-28T16:01:34.000Z</time>
      </trkpt>
      <trkpt lat="42.041000090539455413818359375" lon="2.9975943826138973236083984375">
        <ele>66</ele>
        <time>2022-07-28T16:01:38.000Z</time>
      </trkpt>
      <trkpt lat="42.04083773307502269744873046875" lon="2.99755842424929141998291015625">
        <ele>66.59999847412109375</ele>
        <time>2022-07-28T16:01:42.000Z</time>
      </trkpt>
      <trkpt lat="42.040800265967845916748046875" lon="2.997547276318073272705078125">
        <ele>66.8000030517578125</ele>
        <time>2022-07-28T16:01:43.000Z</time>
      </trkpt>
      <trkpt lat="42.04060614109039306640625" lon="2.99749195575714111328125">
        <ele>67.8000030517578125</ele>
        <time>2022-07-28T16:01:49.000Z</time>
      </trkpt>
      <trkpt lat="42.0404465496540069580078125" lon="2.9974884353578090667724609375">
        <ele>69</ele>
        <time>2022-07-28T16:01:54.000Z</time>
      </trkpt>
      <trkpt lat="42.0402882993221282958984375" lon="2.99747628159821033477783203125">
        <ele>70</ele>
        <time>2022-07-28T16:01:59.000Z</time>
      </trkpt>
      <trkpt lat="42.04026080667972564697265625" lon="2.9974663071334362030029296875">
        <ele>70.40000152587890625</ele>
        <time>2022-07-28T16:02:00.000Z</time>
      </trkpt>
      <trkpt lat="42.040233314037322998046875" lon="2.99746588803827762603759765625">
        <ele>70.59999847412109375</ele>
        <time>2022-07-28T16:02:01.000Z</time>
      </trkpt>
      <trkpt lat="42.0402059890329837799072265625" lon="2.99747745506465435028076171875">
        <ele>71.59999847412109375</ele>
        <time>2022-07-28T16:02:02.000Z</time>
      </trkpt>
      <trkpt lat="42.04015008173882961273193359375" lon="2.99750176258385181427001953125">
        <ele>72.40000152587890625</ele>
        <time>2022-07-28T16:02:04.000Z</time>
      </trkpt>
      <trkpt lat="42.04012074507772922515869140625" lon="2.99750511534512042999267578125">
        <ele>72.8000030517578125</ele>
        <time>2022-07-28T16:02:05.000Z</time>
      </trkpt>
      <trkpt lat="42.04004731960594654083251953125" lon="2.99748323857784271240234375">
        <ele>74</ele>
        <time>2022-07-28T16:02:08.000Z</time>
      </trkpt>
      <trkpt lat="42.03998646698892116546630859375" lon="2.99747108481824398040771484375">
        <ele>75</ele>
        <time>2022-07-28T16:02:12.000Z</time>
      </trkpt>
      <trkpt lat="42.03997020609676837921142578125" lon="2.9974753595888614654541015625">
        <ele>75.1999969482421875</ele>
        <time>2022-07-28T16:02:13.000Z</time>
      </trkpt>
      <trkpt lat="42.0399085991084575653076171875" lon="2.997519783675670623779296875">
        <ele>76</ele>
        <time>2022-07-28T16:02:16.000Z</time>
      </trkpt>
      <trkpt lat="42.03988638706505298614501953125" lon="2.99753612838685512542724609375">
        <ele>76.1999969482421875</ele>
        <time>2022-07-28T16:02:17.000Z</time>
      </trkpt>
      <trkpt lat="42.03984464518725872039794921875" lon="2.9975675605237483978271484375">
        <ele>76.40000152587890625</ele>
        <time>2022-07-28T16:02:19.000Z</time>
      </trkpt>
      <trkpt lat="42.0398060046136379241943359375" lon="2.9975937120616436004638671875">
        <ele>76.8000030517578125</ele>
        <time>2022-07-28T16:02:21.000Z</time>
      </trkpt>
      <trkpt lat="42.03968320973217487335205078125" lon="2.99766269512474536895751953125">
        <ele>77</ele>
        <time>2022-07-28T16:02:28.000Z</time>
      </trkpt>
      <trkpt lat="42.03960123471915721893310546875" lon="2.99771382473409175872802734375">
        <ele>77</ele>
        <time>2022-07-28T16:02:31.000Z</time>
      </trkpt>
      <trkpt lat="42.03936017118394374847412109375" lon="2.9977918602526187896728515625">
        <ele>77</ele>
        <time>2022-07-28T16:02:37.000Z</time>
      </trkpt>
      <trkpt lat="42.0391054451465606689453125" lon="2.99784877337515354156494140625">
        <ele>76.59999847412109375</ele>
        <time>2022-07-28T16:02:44.000Z</time>
      </trkpt>
      <trkpt lat="42.038843929767608642578125" lon="2.9978820495307445526123046875">
        <ele>77</ele>
        <time>2022-07-28T16:02:51.000Z</time>
      </trkpt>
      <trkpt lat="42.03881786204874515533447265625" lon="2.9978780262172222137451171875">
        <ele>77</ele>
        <time>2022-07-28T16:02:52.000Z</time>
      </trkpt>
      <trkpt lat="42.0387192070484161376953125" lon="2.99787215888500213623046875">
        <ele>78.1999969482421875</ele>
        <time>2022-07-28T16:02:56.000Z</time>
      </trkpt>
      <trkpt lat="42.03852332197129726409912109375" lon="2.99786520190536975860595703125">
        <ele>79.1999969482421875</ele>
        <time>2022-07-28T16:03:01.000Z</time>
      </trkpt>
      <trkpt lat="42.03822098672389984130859375" lon="2.99781491048634052276611328125">
        <ele>79.40000152587890625</ele>
        <time>2022-07-28T16:03:07.000Z</time>
      </trkpt>
      <trkpt lat="42.03807212412357330322265625" lon="2.99779848195612430572509765625">
        <ele>79.1999969482421875</ele>
        <time>2022-07-28T16:03:10.000Z</time>
      </trkpt>
      <trkpt lat="42.0379391871392726898193359375" lon="2.99773461185395717620849609375">
        <ele>79.1999969482421875</ele>
        <time>2022-07-28T16:03:13.000Z</time>
      </trkpt>
      <trkpt lat="42.0379043184220790863037109375" lon="2.99755071289837360382080078125">
        <ele>78.59999847412109375</ele>
        <time>2022-07-28T16:03:16.000Z</time>
      </trkpt>
      <trkpt lat="42.03792862594127655029296875" lon="2.99741811119019985198974609375">
        <ele>78.8000030517578125</ele>
        <time>2022-07-28T16:03:18.000Z</time>
      </trkpt>
      <trkpt lat="42.037946395576000213623046875" lon="2.99735642038285732269287109375">
        <ele>78.8000030517578125</ele>
        <time>2022-07-28T16:03:19.000Z</time>
      </trkpt>
      <trkpt lat="42.03797162510454654693603515625" lon="2.99724259413778781890869140625">
        <ele>78.8000030517578125</ele>
        <time>2022-07-28T16:03:21.000Z</time>
      </trkpt>
      <trkpt lat="42.0380364172160625457763671875" lon="2.9968772269785404205322265625">
        <ele>80</ele>
        <time>2022-07-28T16:03:28.000Z</time>
      </trkpt>
      <trkpt lat="42.03804798424243927001953125" lon="2.99682718701660633087158203125">
        <ele>80.8000030517578125</ele>
        <time>2022-07-28T16:03:29.000Z</time>
      </trkpt>
      <trkpt lat="42.038075812160968780517578125" lon="2.99672677181661128997802734375">
        <ele>82.1999969482421875</ele>
        <time>2022-07-28T16:03:31.000Z</time>
      </trkpt>
      <trkpt lat="42.0381316356360912322998046875" lon="2.9965845309197902679443359375">
        <ele>83</ele>
        <time>2022-07-28T16:03:34.000Z</time>
      </trkpt>
      <trkpt lat="42.0381524227559566497802734375" lon="2.99653884954750537872314453125">
        <ele>83.40000152587890625</ele>
        <time>2022-07-28T16:03:35.000Z</time>
      </trkpt>
      <trkpt lat="42.03822660259902477264404296875" lon="2.99640624783933162689208984375">
        <ele>84.1999969482421875</ele>
        <time>2022-07-28T16:03:38.000Z</time>
      </trkpt>
      <trkpt lat="42.03825007192790508270263671875" lon="2.9963588900864124298095703125">
        <ele>84.40000152587890625</ele>
        <time>2022-07-28T16:03:39.000Z</time>
      </trkpt>
      <trkpt lat="42.03826901502907276153564453125" lon="2.99625587649643421173095703125">
        <ele>84.40000152587890625</ele>
        <time>2022-07-28T16:03:41.000Z</time>
      </trkpt>
      <trkpt lat="42.038176059722900390625" lon="2.99612746573984622955322265625">
        <ele>84.59999847412109375</ele>
        <time>2022-07-28T16:03:44.000Z</time>
      </trkpt>
      <trkpt lat="42.03788897953927516937255859375" lon="2.995860837399959564208984375">
        <ele>84.59999847412109375</ele>
        <time>2022-07-28T16:03:50.000Z</time>
      </trkpt>
      <trkpt lat="42.037738859653472900390625" lon="2.99570803530514240264892578125">
        <ele>84.1999969482421875</ele>
        <time>2022-07-28T16:03:53.000Z</time>
      </trkpt>
      <trkpt lat="42.0375744067132472991943359375" lon="2.99559907056391239166259765625">
        <ele>82.8000030517578125</ele>
        <time>2022-07-28T16:03:56.000Z</time>
      </trkpt>
      <trkpt lat="42.03744004480540752410888671875" lon="2.9954891838133335113525390625">
        <ele>82</ele>
        <time>2022-07-28T16:03:59.000Z</time>
      </trkpt>
      <trkpt lat="42.0374205149710178375244140625" lon="2.9954506270587444305419921875">
        <ele>81.8000030517578125</ele>
        <time>2022-07-28T16:04:00.000Z</time>
      </trkpt>
      <trkpt lat="42.0367650501430034637451171875" lon="2.99310226924717426300048828125">
        <ele>101</ele>
        <time>2022-07-29T09:08:01.000Z</time>
      </trkpt>
      <trkpt lat="42.036690451204776763916015625" lon="2.9930460266768932342529296875">
        <ele>101.59999847412109375</ele>
        <time>2022-07-29T09:08:04.000Z</time>
      </trkpt>
      <trkpt lat="42.03563726507127285003662109375" lon="2.99268367700278759002685546875">
        <ele>107</ele>
        <time>2022-07-29T09:08:45.000Z</time>
      </trkpt>
      <trkpt lat="42.03561144880950450897216796875" lon="2.992637492716312408447265625">
        <ele>107.59999847412109375</ele>
        <time>2022-07-29T09:08:47.000Z</time>
      </trkpt>
      <trkpt lat="42.03559451736509799957275390625" lon="2.99258954823017120361328125">
        <ele>108</ele>
        <time>2022-07-29T09:08:49.000Z</time>
      </trkpt>
      <trkpt lat="42.0355429686605930328369140625" lon="2.99250195734202861785888671875">
        <ele>109</ele>
        <time>2022-07-29T09:08:53.000Z</time>
      </trkpt>
      <trkpt lat="42.0355275459587574005126953125" lon="2.992481254041194915771484375">
        <ele>109.40000152587890625</ele>
        <time>2022-07-29T09:08:54.000Z</time>
      </trkpt>
      <trkpt lat="42.03549996949732303619384765625" lon="2.9924348182976245880126953125">
        <ele>110.1999969482421875</ele>
        <time>2022-07-29T09:08:56.000Z</time>
      </trkpt>
      <trkpt lat="42.0354081876575946807861328125" lon="2.992302216589450836181640625">
        <ele>111.1999969482421875</ele>
        <time>2022-07-29T09:09:02.000Z</time>
      </trkpt>
      <trkpt lat="42.03539033420383930206298828125" lon="2.99227765761315822601318359375">
        <ele>111.40000152587890625</ele>
        <time>2022-07-29T09:09:03.000Z</time>
      </trkpt>
      <trkpt lat="42.03529226593673229217529296875" lon="2.9921605624258518218994140625">
        <ele>112.40000152587890625</ele>
        <time>2022-07-29T09:09:08.000Z</time>
      </trkpt>
      <trkpt lat="42.03523292206227779388427734375" lon="2.99208872951567173004150390625">
        <ele>113.1999969482421875</ele>
        <time>2022-07-29T09:09:11.000Z</time>
      </trkpt>
      <trkpt lat="42.03521230258047580718994140625" lon="2.99206693656742572784423828125">
        <ele>113.40000152587890625</ele>
        <time>2022-07-29T09:09:12.000Z</time>
      </trkpt>
      <trkpt lat="42.03510618768632411956787109375" lon="2.99191321246325969696044921875">
        <ele>114.40000152587890625</ele>
        <time>2022-07-29T09:09:18.000Z</time>
      </trkpt>
      <trkpt lat="42.035088501870632171630859375" lon="2.9918916709721088409423828125">
        <ele>114.59999847412109375</ele>
        <time>2022-07-29T09:09:19.000Z</time>
      </trkpt>
      <trkpt lat="42.03500904142856597900390625" lon="2.99181841313838958740234375">
        <ele>115.40000152587890625</ele>
        <time>2022-07-29T09:09:23.000Z</time>
      </trkpt>
      <trkpt lat="42.03495271503925323486328125" lon="2.991764433681964874267578125">
        <ele>115.8000030517578125</ele>
        <time>2022-07-29T09:09:26.000Z</time>
      </trkpt>
      <trkpt lat="42.03487182967364788055419921875" lon="2.99165748059749603271484375">
        <ele>116.59999847412109375</ele>
        <time>2022-07-29T09:09:31.000Z</time>
      </trkpt>
      <trkpt lat="42.03483126126229763031005859375" lon="2.99163241870701313018798828125">
        <ele>117</ele>
        <time>2022-07-29T09:09:33.000Z</time>
      </trkpt>
      <trkpt lat="42.0348053611814975738525390625" lon="2.99159235320985317230224609375">
        <ele>117.1999969482421875</ele>
        <time>2022-07-29T09:09:35.000Z</time>
      </trkpt>
      <trkpt lat="42.0347600989043712615966796875" lon="2.9915292374789714813232421875">
        <ele>118</ele>
        <time>2022-07-29T09:09:38.000Z</time>
      </trkpt>
      <trkpt lat="42.03469765372574329376220703125" lon="2.9914487712085247039794921875">
        <ele>119.1999969482421875</ele>
        <time>2022-07-29T09:09:42.000Z</time>
      </trkpt>
      <trkpt lat="42.0346315205097198486328125" lon="2.99136352725327014923095703125">
        <ele>120.1999969482421875</ele>
        <time>2022-07-29T09:09:47.000Z</time>
      </trkpt>
      <trkpt lat="42.03461668454110622406005859375" lon="2.99134575761854648590087890625">
        <ele>120.40000152587890625</ele>
        <time>2022-07-29T09:09:48.000Z</time>
      </trkpt>
      <trkpt lat="42.03455298207700252532958984375" lon="2.991280294954776763916015625">
        <ele>121.40000152587890625</ele>
        <time>2022-07-29T09:09:52.000Z</time>
      </trkpt>
      <trkpt lat="42.0345361344516277313232421875" lon="2.99126587808132171630859375">
        <ele>121.40000152587890625</ele>
        <time>2022-07-29T09:09:53.000Z</time>
      </trkpt>
      <trkpt lat="42.0344759523868560791015625" lon="2.9912102222442626953125">
        <ele>122.59999847412109375</ele>
        <time>2022-07-29T09:09:56.000Z</time>
      </trkpt>
      <trkpt lat="42.0344191230833530426025390625" lon="2.9911574162542819976806640625">
        <ele>123.1999969482421875</ele>
        <time>2022-07-29T09:09:59.000Z</time>
      </trkpt>
      <trkpt lat="42.03440143726766109466552734375" lon="2.99114006571471691131591796875">
        <ele>123.40000152587890625</ele>
        <time>2022-07-29T09:10:00.000Z</time>
      </trkpt>
      <trkpt lat="42.03430722467601299285888671875" lon="2.99104115925729274749755859375">
        <ele>124.40000152587890625</ele>
        <time>2022-07-29T09:10:05.000Z</time>
      </trkpt>
      <trkpt lat="42.03428509645164012908935546875" lon="2.99102246761322021484375">
        <ele>124.59999847412109375</ele>
        <time>2022-07-29T09:10:06.000Z</time>
      </trkpt>
      <trkpt lat="42.03421175479888916015625" lon="2.99095784313976764678955078125">
        <ele>125.59999847412109375</ele>
        <time>2022-07-29T09:10:09.000Z</time>
      </trkpt>
      <trkpt lat="42.034099437296390533447265625" lon="2.99085457809269428253173828125">
        <ele>126.40000152587890625</ele>
        <time>2022-07-29T09:10:13.000Z</time>
      </trkpt>
      <trkpt lat="42.034010253846645355224609375" lon="2.990776710212230682373046875">
        <ele>126.59999847412109375</ele>
        <time>2022-07-29T09:10:16.000Z</time>
      </trkpt>
      <trkpt lat="42.0338803343474864959716796875" lon="2.990682832896709442138671875">
        <ele>126.8000030517578125</ele>
        <time>2022-07-29T09:10:20.000Z</time>
      </trkpt>
      <trkpt lat="42.03364689834415912628173828125" lon="2.9905249178409576416015625">
        <ele>127.1999969482421875</ele>
        <time>2022-07-29T09:10:28.000Z</time>
      </trkpt>
      <trkpt lat="42.03356266021728515625" lon="2.99044352956116199493408203125">
        <ele>127.59999847412109375</ele>
        <time>2022-07-29T09:10:31.000Z</time>
      </trkpt>
      <trkpt lat="42.03343366272747516632080078125" lon="2.990292571485042572021484375">
        <ele>128.8000030517578125</ele>
        <time>2022-07-29T09:10:36.000Z</time>
      </trkpt>
      <trkpt lat="42.03328245319426059722900390625" lon="2.99009484238922595977783203125">
        <ele>129.8000030517578125</ele>
        <time>2022-07-29T09:10:42.000Z</time>
      </trkpt>
      <trkpt lat="42.0332567207515239715576171875" lon="2.9900613985955715179443359375">
        <ele>129.8000030517578125</ele>
        <time>2022-07-29T09:10:43.000Z</time>
      </trkpt>
      <trkpt lat="42.03312210738658905029296875" lon="2.9898649267852306365966796875">
        <ele>130.600006103515625</ele>
        <time>2022-07-29T09:10:49.000Z</time>
      </trkpt>
      <trkpt lat="42.033022530376911163330078125" lon="2.989742718636989593505859375">
        <ele>131</ele>
        <time>2022-07-29T09:10:53.000Z</time>
      </trkpt>
      <trkpt lat="42.03297517262399196624755859375" lon="2.989691086113452911376953125">
        <ele>131.1999969482421875</ele>
        <time>2022-07-29T09:10:55.000Z</time>
      </trkpt>
      <trkpt lat="42.03278481960296630859375" lon="2.98950090073049068450927734375">
        <ele>131.399993896484375</ele>
        <time>2022-07-29T09:11:02.000Z</time>
      </trkpt>
      <trkpt lat="42.03253495506942272186279296875" lon="2.98927090130746364593505859375">
        <ele>131.8000030517578125</ele>
        <time>2022-07-29T09:11:09.000Z</time>
      </trkpt>
      <trkpt lat="42.03235239721834659576416015625" lon="2.989077530801296234130859375">
        <ele>132.1999969482421875</ele>
        <time>2022-07-29T09:11:14.000Z</time>
      </trkpt>
      <trkpt lat="42.0321647264063358306884765625" lon="2.9888780415058135986328125">
        <ele>132.399993896484375</ele>
        <time>2022-07-29T09:11:19.000Z</time>
      </trkpt>
      <trkpt lat="42.03171931207180023193359375" lon="2.98846573568880558013916015625">
        <ele>133.1999969482421875</ele>
        <time>2022-07-29T09:11:30.000Z</time>
      </trkpt>
      <trkpt lat="42.03137858770787715911865234375" lon="2.98816113732755184173583984375">
        <ele>134</ele>
        <time>2022-07-29T09:11:39.000Z</time>
      </trkpt>
      <trkpt lat="42.03130281530320644378662109375" lon="2.98809282481670379638671875">
        <ele>134.1999969482421875</ele>
        <time>2022-07-29T09:11:41.000Z</time>
      </trkpt>
      <trkpt lat="42.031053118407726287841796875" lon="2.9878847859799861907958984375">
        <ele>134.8000030517578125</ele>
        <time>2022-07-29T09:11:47.000Z</time>
      </trkpt>
      <trkpt lat="42.03071591444313526153564453125" lon="2.987668029963970184326171875">
        <ele>135.1999969482421875</ele>
        <time>2022-07-29T09:11:55.000Z</time>
      </trkpt>
      <trkpt lat="42.03067635186016559600830078125" lon="2.98765202052891254425048828125">
        <ele>135.399993896484375</ele>
        <time>2022-07-29T09:11:56.000Z</time>
      </trkpt>
      <trkpt lat="42.03045590780675411224365234375" lon="2.9876098595559597015380859375">
        <ele>136</ele>
        <time>2022-07-29T09:12:01.000Z</time>
      </trkpt>
      <trkpt lat="42.0301792211830615997314453125" lon="2.9875709675252437591552734375">
        <ele>136.399993896484375</ele>
        <time>2022-07-29T09:12:07.000Z</time>
      </trkpt>
      <trkpt lat="42.0301346294581890106201171875" lon="2.98755713738501071929931640625">
        <ele>136.600006103515625</ele>
        <time>2022-07-29T09:12:08.000Z</time>
      </trkpt>
      <trkpt lat="42.0300481282174587249755859375" lon="2.98751807771623134613037109375">
        <ele>136.8000030517578125</ele>
        <time>2022-07-29T09:12:10.000Z</time>
      </trkpt>
      <trkpt lat="42.0297953300178050994873046875" lon="2.98737089149653911590576171875">
        <ele>137.399993896484375</ele>
        <time>2022-07-29T09:12:16.000Z</time>
      </trkpt>
      <trkpt lat="42.029677145183086395263671875" lon="2.98728858120739459991455078125">
        <ele>137.8000030517578125</ele>
        <time>2022-07-29T09:12:19.000Z</time>
      </trkpt>
      <trkpt lat="42.02946281991899013519287109375" lon="2.987159751355648040771484375">
        <ele>138.399993896484375</ele>
        <time>2022-07-29T09:12:25.000Z</time>
      </trkpt>
      <trkpt lat="42.02942468225955963134765625" lon="2.9871408082544803619384765625">
        <ele>138.600006103515625</ele>
        <time>2022-07-29T09:12:26.000Z</time>
      </trkpt>
      <trkpt lat="42.02919677831232547760009765625" lon="2.9870402254164218902587890625">
        <ele>139</ele>
        <time>2022-07-29T09:12:31.000Z</time>
      </trkpt>
      <trkpt lat="42.02882445417344570159912109375" lon="2.9869020916521549224853515625">
        <ele>138.8000030517578125</ele>
        <time>2022-07-29T09:12:37.000Z</time>
      </trkpt>
      <trkpt lat="42.02841592021286487579345703125" lon="2.98681416548788547515869140625">
        <ele>137.399993896484375</ele>
        <time>2022-07-29T09:12:42.000Z</time>
      </trkpt>
      <trkpt lat="42.02832841314375400543212890625" lon="2.98679731786251068115234375">
        <ele>137</ele>
        <time>2022-07-29T09:12:43.000Z</time>
      </trkpt>
      <trkpt lat="42.02824023552238941192626953125" lon="2.98677728511393070220947265625">
        <ele>136.399993896484375</ele>
        <time>2022-07-29T09:12:44.000Z</time>
      </trkpt>
      <trkpt lat="42.02806455083191394805908203125" lon="2.98671014606952667236328125">
        <ele>135.1999969482421875</ele>
        <time>2022-07-29T09:12:46.000Z</time>
      </trkpt>
      <trkpt lat="42.02798123471438884735107421875" lon="2.9866580106317996978759765625">
        <ele>134.600006103515625</ele>
        <time>2022-07-29T09:12:47.000Z</time>
      </trkpt>
      <trkpt lat="42.02781342901289463043212890625" lon="2.9865324497222900390625">
        <ele>133.399993896484375</ele>
        <time>2022-07-29T09:12:49.000Z</time>
      </trkpt>
      <trkpt lat="42.02763053588569164276123046875" lon="2.98639859072864055633544921875">
        <ele>132.1999969482421875</ele>
        <time>2022-07-29T09:12:51.000Z</time>
      </trkpt>
      <trkpt lat="42.0275359041988849639892578125" lon="2.9863307811319828033447265625">
        <ele>131.600006103515625</ele>
        <time>2022-07-29T09:12:52.000Z</time>
      </trkpt>
      <trkpt lat="42.02744043432176113128662109375" lon="2.986263222992420196533203125">
        <ele>131.1999969482421875</ele>
        <time>2022-07-29T09:12:53.000Z</time>
      </trkpt>
      <trkpt lat="42.0271630771458148956298828125" lon="2.9860417731106281280517578125">
        <ele>130</ele>
        <time>2022-07-29T09:12:56.000Z</time>
      </trkpt>
      <trkpt lat="42.02697507105767726898193359375" lon="2.985911183059215545654296875">
        <ele>128.600006103515625</ele>
        <time>2022-07-29T09:12:58.000Z</time>
      </trkpt>
      <trkpt lat="42.02686987817287445068359375" lon="2.985864579677581787109375">
        <ele>127.40000152587890625</ele>
        <time>2022-07-29T09:12:59.000Z</time>
      </trkpt>
      <trkpt lat="42.02676150016486644744873046875" lon="2.98582945950329303741455078125">
        <ele>126.59999847412109375</ele>
        <time>2022-07-29T09:13:00.000Z</time>
      </trkpt>
      <trkpt lat="42.02653401531279087066650390625" lon="2.98578352667391300201416015625">
        <ele>125</ele>
        <time>2022-07-29T09:13:02.000Z</time>
      </trkpt>
      <trkpt lat="42.02618180774152278900146484375" lon="2.98577229492366313934326171875">
        <ele>123.40000152587890625</ele>
        <time>2022-07-29T09:13:05.000Z</time>
      </trkpt>
      <trkpt lat="42.02606655657291412353515625" lon="2.98575754277408123016357421875">
        <ele>122.8000030517578125</ele>
        <time>2022-07-29T09:13:06.000Z</time>
      </trkpt>
      <trkpt lat="42.02595214359462261199951171875" lon="2.98573105596005916595458984375">
        <ele>122.1999969482421875</ele>
        <time>2022-07-29T09:13:07.000Z</time>
      </trkpt>
      <trkpt lat="42.0257280953228473663330078125" lon="2.985643632709980010986328125">
        <ele>120.40000152587890625</ele>
        <time>2022-07-29T09:13:09.000Z</time>
      </trkpt>
      <trkpt lat="42.0256221480667591094970703125" lon="2.98558873124420642852783203125">
        <ele>119.59999847412109375</ele>
        <time>2022-07-29T09:13:10.000Z</time>
      </trkpt>
      <trkpt lat="42.02552072703838348388671875" lon="2.9855328239500522613525390625">
        <ele>118.8000030517578125</ele>
        <time>2022-07-29T09:13:11.000Z</time>
      </trkpt>
      <trkpt lat="42.02532224357128143310546875" lon="2.9854252003133296966552734375">
        <ele>117</ele>
        <time>2022-07-29T09:13:13.000Z</time>
      </trkpt>
      <trkpt lat="42.02505695633590221405029296875" lon="2.9852890782058238983154296875">
        <ele>116</ele>
        <time>2022-07-29T09:13:16.000Z</time>
      </trkpt>
      <trkpt lat="42.02488328330218791961669921875" lon="2.98519830219447612762451171875">
        <ele>115.8000030517578125</ele>
        <time>2022-07-29T09:13:19.000Z</time>
      </trkpt>
      <trkpt lat="42.0247705467045307159423828125" lon="2.985111214220523834228515625">
        <ele>115.8000030517578125</ele>
        <time>2022-07-29T09:13:23.000Z</time>
      </trkpt>
      <trkpt lat="42.02475386671721935272216796875" lon="2.985092438757419586181640625">
        <ele>115.8000030517578125</ele>
        <time>2022-07-29T09:13:24.000Z</time>
      </trkpt>
      <trkpt lat="42.02464926056563854217529296875" lon="2.984961010515689849853515625">
        <ele>116.8000030517578125</ele>
        <time>2022-07-29T09:13:37.000Z</time>
      </trkpt>
      <trkpt lat="42.024578936398029327392578125" lon="2.98496000468730926513671875">
        <ele>116.8000030517578125</ele>
        <time>2022-07-29T09:13:39.000Z</time>
      </trkpt>
      <trkpt lat="42.02433074824512004852294921875" lon="2.985001914203166961669921875">
        <ele>116.8000030517578125</ele>
        <time>2022-07-29T09:13:45.000Z</time>
      </trkpt>
      <trkpt lat="42.02397015877068042755126953125" lon="2.98506871797144412994384765625">
        <ele>116.8000030517578125</ele>
        <time>2022-07-29T09:13:53.000Z</time>
      </trkpt>
      <trkpt lat="42.02378793619573116302490234375" lon="2.9850828833878040313720703125">
        <ele>117.1999969482421875</ele>
        <time>2022-07-29T09:13:57.000Z</time>
      </trkpt>
      <trkpt lat="42.02355843968689441680908203125" lon="2.9851095378398895263671875">
        <ele>117.59999847412109375</ele>
        <time>2022-07-29T09:14:02.000Z</time>
      </trkpt>
      <trkpt lat="42.02341980300843715667724609375" lon="2.98513568937778472900390625">
        <ele>118.1999969482421875</ele>
        <time>2022-07-29T09:14:05.000Z</time>
      </trkpt>
      <trkpt lat="42.0231934078037738800048828125" lon="2.9851811192929744720458984375">
        <ele>118.59999847412109375</ele>
        <time>2022-07-29T09:14:10.000Z</time>
      </trkpt>
      <trkpt lat="42.0230676792562007904052734375" lon="2.985212802886962890625">
        <ele>119.1999969482421875</ele>
        <time>2022-07-29T09:14:13.000Z</time>
      </trkpt>
      <trkpt lat="42.02302317135035991668701171875" lon="2.98521607182919979095458984375">
        <ele>119.1999969482421875</ele>
        <time>2022-07-29T09:14:14.000Z</time>
      </trkpt>
      <trkpt lat="42.0229303836822509765625" lon="2.98522043041884899139404296875">
        <ele>119.59999847412109375</ele>
        <time>2022-07-29T09:14:16.000Z</time>
      </trkpt>
      <trkpt lat="42.02255814336240291595458984375" lon="2.98517952673137187957763671875">
        <ele>119.8000030517578125</ele>
        <time>2022-07-29T09:14:23.000Z</time>
      </trkpt>
      <trkpt lat="42.0221305824816226959228515625" lon="2.98508816398680210113525390625">
        <ele>119.40000152587890625</ele>
        <time>2022-07-29T09:14:30.000Z</time>
      </trkpt>
      <trkpt lat="42.02184132300317287445068359375" lon="2.98504558391869068145751953125">
        <ele>118</ele>
        <time>2022-07-29T09:14:34.000Z</time>
      </trkpt>
      <trkpt lat="42.02160327695310115814208984375" lon="2.985017336905002593994140625">
        <ele>117</ele>
        <time>2022-07-29T09:14:37.000Z</time>
      </trkpt>
      <trkpt lat="42.0212635584175586700439453125" lon="2.984974421560764312744140625">
        <ele>115.8000030517578125</ele>
        <time>2022-07-29T09:14:41.000Z</time>
      </trkpt>
      <trkpt lat="42.02098536305129528045654296875" lon="2.98493980430066585540771484375">
        <ele>114.8000030517578125</ele>
        <time>2022-07-29T09:14:44.000Z</time>
      </trkpt>
      <trkpt lat="42.02088796533644199371337890625" lon="2.98492857255041599273681640625">
        <ele>114.1999969482421875</ele>
        <time>2022-07-29T09:14:45.000Z</time>
      </trkpt>
      <trkpt lat="42.0206882245838642120361328125" lon="2.98490711487829685211181640625">
        <ele>112.8000030517578125</ele>
        <time>2022-07-29T09:14:47.000Z</time>
      </trkpt>
      <trkpt lat="42.0204810239374637603759765625" lon="2.9848890937864780426025390625">
        <ele>111.59999847412109375</ele>
        <time>2022-07-29T09:14:49.000Z</time>
      </trkpt>
      <trkpt lat="42.0202664472162723541259765625" lon="2.9848709888756275177001953125">
        <ele>110.59999847412109375</ele>
        <time>2022-07-29T09:14:51.000Z</time>
      </trkpt>
      <trkpt lat="42.02004943974316120147705078125" lon="2.98485598526895046234130859375">
        <ele>109.40000152587890625</ele>
        <time>2022-07-29T09:14:53.000Z</time>
      </trkpt>
      <trkpt lat="42.0198342762887477874755859375" lon="2.98484877683222293853759765625">
        <ele>107.8000030517578125</ele>
        <time>2022-07-29T09:14:55.000Z</time>
      </trkpt>
      <trkpt lat="42.0196250639855861663818359375" lon="2.9848579131066799163818359375">
        <ele>106.1999969482421875</ele>
        <time>2022-07-29T09:14:57.000Z</time>
      </trkpt>
      <trkpt lat="42.01952598989009857177734375" lon="2.98486453481018543243408203125">
        <ele>105.59999847412109375</ele>
        <time>2022-07-29T09:14:58.000Z</time>
      </trkpt>
      <trkpt lat="42.0194295980036258697509765625" lon="2.9848730005323886871337890625">
        <ele>104.8000030517578125</ele>
        <time>2022-07-29T09:14:59.000Z</time>
      </trkpt>
      <trkpt lat="42.0193353854119777679443359375" lon="2.9848900996148586273193359375">
        <ele>104</ele>
        <time>2022-07-29T09:15:00.000Z</time>
      </trkpt>
      <trkpt lat="42.019245363771915435791015625" lon="2.98492505215108394622802734375">
        <ele>102.8000030517578125</ele>
        <time>2022-07-29T09:15:01.000Z</time>
      </trkpt>
      <trkpt lat="42.01916045509278774261474609375" lon="2.9849786125123500823974609375">
        <ele>102.1999969482421875</ele>
        <time>2022-07-29T09:15:02.000Z</time>
      </trkpt>
      <trkpt lat="42.01907898299396038055419921875" lon="2.9850439913570880889892578125">
        <ele>101.1999969482421875</ele>
        <time>2022-07-29T09:15:03.000Z</time>
      </trkpt>
      <trkpt lat="42.018999271094799041748046875" lon="2.98511314205825328826904296875">
        <ele>100.40000152587890625</ele>
        <time>2022-07-29T09:15:04.000Z</time>
      </trkpt>
      <trkpt lat="42.01891872100532054901123046875" lon="2.98517751507461071014404296875">
        <ele>100</ele>
        <time>2022-07-29T09:15:05.000Z</time>
      </trkpt>
      <trkpt lat="42.01883439905941486358642578125" lon="2.9852304048836231231689453125">
        <ele>99.59999847412109375</ele>
        <time>2022-07-29T09:15:06.000Z</time>
      </trkpt>
      <trkpt lat="42.01874571852385997772216796875" lon="2.985260747373104095458984375">
        <ele>98.8000030517578125</ele>
        <time>2022-07-29T09:15:07.000Z</time>
      </trkpt>
      <trkpt lat="42.01856835745275020599365234375" lon="2.9852156527340412139892578125">
        <ele>97.8000030517578125</ele>
        <time>2022-07-29T09:15:09.000Z</time>
      </trkpt>
      <trkpt lat="42.01848939992487430572509765625" lon="2.98514918424189090728759765625">
        <ele>97.40000152587890625</ele>
        <time>2022-07-29T09:15:10.000Z</time>
      </trkpt>
      <trkpt lat="42.01834321953356266021728515625" lon="2.98499085009098052978515625">
        <ele>96.59999847412109375</ele>
        <time>2022-07-29T09:15:12.000Z</time>
      </trkpt>
      <trkpt lat="42.01827071607112884521484375" lon="2.9849125631153583526611328125">
        <ele>96</ele>
        <time>2022-07-29T09:15:13.000Z</time>
      </trkpt>
      <trkpt lat="42.01797089539468288421630859375" lon="2.98462280072271823883056640625">
        <ele>94.8000030517578125</ele>
        <time>2022-07-29T09:15:17.000Z</time>
      </trkpt>
      <trkpt lat="42.01780937612056732177734375" lon="2.984501011669635772705078125">
        <ele>94.59999847412109375</ele>
        <time>2022-07-29T09:15:19.000Z</time>
      </trkpt>
      <trkpt lat="42.01745909638702869415283203125" lon="2.9843684099614620208740234375">
        <ele>94.1999969482421875</ele>
        <time>2022-07-29T09:15:23.000Z</time>
      </trkpt>
      <trkpt lat="42.0168908871710300445556640625" lon="2.98410463146865367889404296875">
        <ele>93.40000152587890625</ele>
        <time>2022-07-29T09:15:30.000Z</time>
      </trkpt>
      <trkpt lat="42.0166478119790554046630859375" lon="2.9838220775127410888671875">
        <ele>92.59999847412109375</ele>
        <time>2022-07-29T09:15:34.000Z</time>
      </trkpt>
      <trkpt lat="42.01625210233032703399658203125" lon="2.98334824852645397186279296875">
        <ele>92.40000152587890625</ele>
        <time>2022-07-29T09:15:41.000Z</time>
      </trkpt>
      <trkpt lat="42.01614028774201869964599609375" lon="2.9832271300256252288818359375">
        <ele>92.40000152587890625</ele>
        <time>2022-07-29T09:15:43.000Z</time>
      </trkpt>
      <trkpt lat="42.015912719070911407470703125" lon="2.9830145649611949920654296875">
        <ele>92.40000152587890625</ele>
        <time>2022-07-29T09:15:47.000Z</time>
      </trkpt>
      <trkpt lat="42.01551876962184906005859375" lon="2.98266663216054439544677734375">
        <ele>92.40000152587890625</ele>
        <time>2022-07-29T09:15:54.000Z</time>
      </trkpt>
      <trkpt lat="42.015469484031200408935546875" lon="2.9826159216463565826416015625">
        <ele>92.1999969482421875</ele>
        <time>2022-07-29T09:15:55.000Z</time>
      </trkpt>
      <trkpt lat="42.01537049375474452972412109375" lon="2.98241081647574901580810546875">
        <ele>92.1999969482421875</ele>
        <time>2022-07-29T09:15:58.000Z</time>
      </trkpt>
      <trkpt lat="42.015340737998485565185546875" lon="2.982253320515155792236328125">
        <ele>91.8000030517578125</ele>
        <time>2022-07-29T09:16:00.000Z</time>
      </trkpt>
      <trkpt lat="42.0153228007256984710693359375" lon="2.982057519257068634033203125">
        <ele>91.59999847412109375</ele>
        <time>2022-07-29T09:16:03.000Z</time>
      </trkpt>
      <trkpt lat="42.01542061753571033477783203125" lon="2.98191008158028125762939453125">
        <ele>91.40000152587890625</ele>
        <time>2022-07-29T09:16:06.000Z</time>
      </trkpt>
      <trkpt lat="42.0155216194689273834228515625" lon="2.9818360693752765655517578125">
        <ele>91</ele>
        <time>2022-07-29T09:16:08.000Z</time>
      </trkpt>
      <trkpt lat="42.01580199413001537322998046875" lon="2.9816281981766223907470703125">
        <ele>90.59999847412109375</ele>
        <time>2022-07-29T09:16:13.000Z</time>
      </trkpt>
      <trkpt lat="42.01592738740146160125732421875" lon="2.98151261173188686370849609375">
        <ele>90.1999969482421875</ele>
        <time>2022-07-29T09:16:15.000Z</time>
      </trkpt>
      <trkpt lat="42.01611162163317203521728515625" lon="2.98128730617463588714599609375">
        <ele>89.1999969482421875</ele>
        <time>2022-07-29T09:16:18.000Z</time>
      </trkpt>
      <trkpt lat="42.0161663554608821868896484375" lon="2.98119728453457355499267578125">
        <ele>88.8000030517578125</ele>
        <time>2022-07-29T09:16:19.000Z</time>
      </trkpt>
      <trkpt lat="42.01628110371530055999755859375" lon="2.98088170588016510009765625">
        <ele>87.59999847412109375</ele>
        <time>2022-07-29T09:16:22.000Z</time>
      </trkpt>
      <trkpt lat="42.0163718797266483306884765625" lon="2.98055238090455532073974609375">
        <ele>86.1999969482421875</ele>
        <time>2022-07-29T09:16:25.000Z</time>
      </trkpt>
      <trkpt lat="42.016439773142337799072265625" lon="2.980338893830776214599609375">
        <ele>84.40000152587890625</ele>
        <time>2022-07-29T09:16:27.000Z</time>
      </trkpt>
      <trkpt lat="42.01656206510961055755615234375" lon="2.98003437928855419158935546875">
        <ele>83.59999847412109375</ele>
        <time>2022-07-29T09:16:30.000Z</time>
      </trkpt>
      <trkpt lat="42.01664504595100879669189453125" lon="2.9798354767262935638427734375">
        <ele>83.40000152587890625</ele>
        <time>2022-07-29T09:16:32.000Z</time>
      </trkpt>
      <trkpt lat="42.01679390855133533477783203125" lon="2.97944110818207263946533203125">
        <ele>83.1999969482421875</ele>
        <time>2022-07-29T09:16:36.000Z</time>
      </trkpt>
      <trkpt lat="42.017030529677867889404296875" lon="2.97876267693936824798583984375">
        <ele>83.1999969482421875</ele>
        <time>2022-07-29T09:16:43.000Z</time>
      </trkpt>
      <trkpt lat="42.01736924238502979278564453125" lon="2.97815381549298763275146484375">
        <ele>83.40000152587890625</ele>
        <time>2022-07-29T09:16:50.000Z</time>
      </trkpt>
      <trkpt lat="42.01746446080505847930908203125" lon="2.97798215411603450775146484375">
        <ele>83.1999969482421875</ele>
        <time>2022-07-29T09:16:52.000Z</time>
      </trkpt>
      <trkpt lat="42.01778783462941646575927734375" lon="2.97740162350237369537353515625">
        <ele>83.1999969482421875</ele>
        <time>2022-07-29T09:16:59.000Z</time>
      </trkpt>
      <trkpt lat="42.017871402204036712646484375" lon="2.97724974341690540313720703125">
        <ele>83.1999969482421875</ele>
        <time>2022-07-29T09:17:01.000Z</time>
      </trkpt>
      <trkpt lat="42.0182155631482601165771484375" lon="2.97660626471042633056640625">
        <ele>84</ele>
        <time>2022-07-29T09:17:10.000Z</time>
      </trkpt>
      <trkpt lat="42.01839275658130645751953125" lon="2.97623771242797374725341796875">
        <ele>84.59999847412109375</ele>
        <time>2022-07-29T09:17:15.000Z</time>
      </trkpt>
      <trkpt lat="42.018429972231388092041015625" lon="2.9761712439358234405517578125">
        <ele>84.59999847412109375</ele>
        <time>2022-07-29T09:17:16.000Z</time>
      </trkpt>
      <trkpt lat="42.0186353288590908050537109375" lon="2.97574393451213836669921875">
        <ele>85.1999969482421875</ele>
        <time>2022-07-29T09:17:22.000Z</time>
      </trkpt>
      <trkpt lat="42.0186655037105083465576171875" lon="2.97566883265972137451171875">
        <ele>85.1999969482421875</ele>
        <time>2022-07-29T09:17:23.000Z</time>
      </trkpt>
      <trkpt lat="42.01890011318027973175048828125" lon="2.97520816326141357421875">
        <ele>85.40000152587890625</ele>
        <time>2022-07-29T09:17:30.000Z</time>
      </trkpt>
      <trkpt lat="42.01911686919629573822021484375" lon="2.97477842308580875396728515625">
        <ele>85.59999847412109375</ele>
        <time>2022-07-29T09:17:37.000Z</time>
      </trkpt>
      <trkpt lat="42.0191493071615695953369140625" lon="2.97471405006945133209228515625">
        <ele>85.59999847412109375</ele>
        <time>2022-07-29T09:17:38.000Z</time>
      </trkpt>
      <trkpt lat="42.01935139484703540802001953125" lon="2.974309958517551422119140625">
        <ele>86.1999969482421875</ele>
        <time>2022-07-29T09:17:44.000Z</time>
      </trkpt>
      <trkpt lat="42.01958256773650646209716796875" lon="2.9739269055426120758056640625">
        <ele>86.40000152587890625</ele>
        <time>2022-07-29T09:17:51.000Z</time>
      </trkpt>
      <trkpt lat="42.0196227170526981353759765625" lon="2.97382506541907787322998046875">
        <ele>86.40000152587890625</ele>
        <time>2022-07-29T09:17:53.000Z</time>
      </trkpt>
      <trkpt lat="42.01965741813182830810546875" lon="2.97373571433126926422119140625">
        <ele>87.1999969482421875</ele>
        <time>2022-07-29T09:17:55.000Z</time>
      </trkpt>
      <trkpt lat="42.0196780376136302947998046875" lon="2.9736938886344432830810546875">
        <ele>87.40000152587890625</ele>
        <time>2022-07-29T09:17:56.000Z</time>
      </trkpt>
      <trkpt lat="42.019738219678401947021484375" lon="2.973566316068172454833984375">
        <ele>88.59999847412109375</ele>
        <time>2022-07-29T09:17:59.000Z</time>
      </trkpt>
      <trkpt lat="42.01987559907138347625732421875" lon="2.9732801578938961029052734375">
        <ele>89.40000152587890625</ele>
        <time>2022-07-29T09:18:05.000Z</time>
      </trkpt>
      <trkpt lat="42.02002127654850482940673828125" lon="2.972976900637149810791015625">
        <ele>89.40000152587890625</ele>
        <time>2022-07-29T09:18:10.000Z</time>
      </trkpt>
      <trkpt lat="42.02006570063531398773193359375" lon="2.9729251004755496978759765625">
        <ele>89.1999969482421875</ele>
        <time>2022-07-29T09:18:11.000Z</time>
      </trkpt>
      <trkpt lat="42.020181454718112945556640625" lon="2.97284136526286602020263671875">
        <ele>88.8000030517578125</ele>
        <time>2022-07-29T09:18:14.000Z</time>
      </trkpt>
      <trkpt lat="42.0202429778873920440673828125" lon="2.972844801843166351318359375">
        <ele>87.8000030517578125</ele>
        <time>2022-07-29T09:18:17.000Z</time>
      </trkpt>
      <trkpt lat="42.0202602446079254150390625" lon="2.97284689731895923614501953125">
        <ele>87.40000152587890625</ele>
        <time>2022-07-29T09:18:18.000Z</time>
      </trkpt>
      <trkpt lat="42.02027725987136363983154296875" lon="2.97284790314733982086181640625">
        <ele>87.40000152587890625</ele>
        <time>2022-07-29T09:18:19.000Z</time>
      </trkpt>
      <trkpt lat="42.02032755129039287567138671875" lon="2.9728560335934162139892578125">
        <ele>87.1999969482421875</ele>
        <time>2022-07-29T09:18:22.000Z</time>
      </trkpt>
      <trkpt lat="42.02115719206631183624267578125" lon="2.97293457202613353729248046875">
        <ele>79.8000030517578125</ele>
        <time>2022-07-29T09:46:55.000Z</time>
      </trkpt>
      <trkpt lat="42.02135265804827213287353515625" lon="2.97301822341978549957275390625">
        <ele>79.8000030517578125</ele>
        <time>2022-07-29T09:47:00.000Z</time>
      </trkpt>
      <trkpt lat="42.02140085399150848388671875" lon="2.97304236330091953277587890625">
        <ele>79.59999847412109375</ele>
        <time>2022-07-29T09:47:01.000Z</time>
      </trkpt>
      <trkpt lat="42.0215401612222194671630859375" lon="2.97318837605416774749755859375">
        <ele>78.59999847412109375</ele>
        <time>2022-07-29T09:47:04.000Z</time>
      </trkpt>
      <trkpt lat="42.02157385647296905517578125" lon="2.97326364554464817047119140625">
        <ele>78.40000152587890625</ele>
        <time>2022-07-29T09:47:05.000Z</time>
      </trkpt>
      <trkpt lat="42.0216000080108642578125" lon="2.97335064969956874847412109375">
        <ele>78</ele>
        <time>2022-07-29T09:47:06.000Z</time>
      </trkpt>
      <trkpt lat="42.02162406407296657562255859375" lon="2.97344301827251911163330078125">
        <ele>77.40000152587890625</ele>
        <time>2022-07-29T09:47:07.000Z</time>
      </trkpt>
      <trkpt lat="42.021698243916034698486328125" lon="2.97371844761073589324951171875">
        <ele>76.1999969482421875</ele>
        <time>2022-07-29T09:47:10.000Z</time>
      </trkpt>
      <trkpt lat="42.021794803440570831298828125" lon="2.97386161051690578460693359375">
        <ele>74.8000030517578125</ele>
        <time>2022-07-29T09:47:12.000Z</time>
      </trkpt>
      <trkpt lat="42.02193805016577243804931640625" lon="2.97392196021974086761474609375">
        <ele>73.40000152587890625</ele>
        <time>2022-07-29T09:47:14.000Z</time>
      </trkpt>
      <trkpt lat="42.0220149122178554534912109375" lon="2.97392137348651885986328125">
        <ele>72.59999847412109375</ele>
        <time>2022-07-29T09:47:15.000Z</time>
      </trkpt>
      <trkpt lat="42.0220906846225261688232421875" lon="2.973902933299541473388671875">
        <ele>71.40000152587890625</ele>
        <time>2022-07-29T09:47:16.000Z</time>
      </trkpt>
      <trkpt lat="42.02223158441483974456787109375" lon="2.9738233052194118499755859375">
        <ele>70</ele>
        <time>2022-07-29T09:47:18.000Z</time>
      </trkpt>
      <trkpt lat="42.022499553859233856201171875" lon="2.973678968846797943115234375">
        <ele>68.8000030517578125</ele>
        <time>2022-07-29T09:47:22.000Z</time>
      </trkpt>
      <trkpt lat="42.0226234383881092071533203125" lon="2.9736335389316082000732421875">
        <ele>68.40000152587890625</ele>
        <time>2022-07-29T09:47:24.000Z</time>
      </trkpt>
      <trkpt lat="42.02287430875003337860107421875" lon="2.97364569269120693206787109375">
        <ele>68.40000152587890625</ele>
        <time>2022-07-29T09:47:28.000Z</time>
      </trkpt>
      <trkpt lat="42.023064829409122467041015625" lon="2.9737217165529727935791015625">
        <ele>68.40000152587890625</ele>
        <time>2022-07-29T09:47:32.000Z</time>
      </trkpt>
      <trkpt lat="42.02313548885285854339599609375" lon="2.9737539030611515045166015625">
        <ele>68.1999969482421875</ele>
        <time>2022-07-29T09:47:34.000Z</time>
      </trkpt>
      <trkpt lat="42.02319382689893245697021484375" lon="2.97371660359203815460205078125">
        <ele>68.40000152587890625</ele>
        <time>2022-07-29T09:47:36.000Z</time>
      </trkpt>
      <trkpt lat="42.02327781356871128082275390625" lon="2.97354645095765590667724609375">
        <ele>68.59999847412109375</ele>
        <time>2022-07-29T09:47:40.000Z</time>
      </trkpt>
      <trkpt lat="42.02330228872597217559814453125" lon="2.97349414788186550140380859375">
        <ele>69.59999847412109375</ele>
        <time>2022-07-29T09:47:41.000Z</time>
      </trkpt>
      <trkpt lat="42.02332709915935993194580078125" lon="2.973439581692218780517578125">
        <ele>69.59999847412109375</ele>
        <time>2022-07-29T09:47:42.000Z</time>
      </trkpt>
      <trkpt lat="42.02340588904917240142822265625" lon="2.9732768051326274871826171875">
        <ele>69.8000030517578125</ele>
        <time>2022-07-29T09:47:46.000Z</time>
      </trkpt>
      <trkpt lat="42.0234901271760463714599609375" lon="2.9731966741383075714111328125">
        <ele>70</ele>
        <time>2022-07-29T09:47:51.000Z</time>
      </trkpt>
      <trkpt lat="42.02363404445350170135498046875" lon="2.9730514995753765106201171875">
        <ele>69.59999847412109375</ele>
        <time>2022-07-29T09:47:56.000Z</time>
      </trkpt>
      <trkpt lat="42.0237482897937297821044921875" lon="2.97295167110860347747802734375">
        <ele>69.59999847412109375</ele>
        <time>2022-07-29T09:47:59.000Z</time>
      </trkpt>
      <trkpt lat="42.02383068390190601348876953125" lon="2.97289333306252956390380859375">
        <ele>69.1999969482421875</ele>
        <time>2022-07-29T09:48:01.000Z</time>
      </trkpt>
      <trkpt lat="42.02393730171024799346923828125" lon="2.97282426618039608001708984375">
        <ele>68.40000152587890625</ele>
        <time>2022-07-29T09:48:04.000Z</time>
      </trkpt>
      <trkpt lat="42.02396043576300144195556640625" lon="2.97281219623982906341552734375">
        <ele>68</ele>
        <time>2022-07-29T09:48:05.000Z</time>
      </trkpt>
      <trkpt lat="42.0240064524114131927490234375" lon="2.972781099379062652587890625">
        <ele>67.1999969482421875</ele>
        <time>2022-07-29T09:48:08.000Z</time>
      </trkpt>
      <trkpt lat="42.024005949497222900390625" lon="2.97276576049625873565673828125">
        <ele>67</ele>
        <time>2022-07-29T09:48:09.000Z</time>
      </trkpt>
      <trkpt lat="42.02395574189722537994384765625" lon="2.9727767407894134521484375">
        <ele>66.40000152587890625</ele>
        <time>2022-07-29T09:48:13.000Z</time>
      </trkpt>
      <trkpt lat="42.0239219628274440765380859375" lon="2.97282636165618896484375">
        <ele>66.40000152587890625</ele>
        <time>2022-07-29T09:48:15.000Z</time>
      </trkpt>
      <trkpt lat="42.02381844632327556610107421875" lon="2.9729113541543483734130859375">
        <ele>66.40000152587890625</ele>
        <time>2022-07-29T09:48:19.000Z</time>
      </trkpt>
      <trkpt lat="42.02364158816635608673095703125" lon="2.97303666360676288604736328125">
        <ele>66.59999847412109375</ele>
        <time>2022-07-29T09:48:25.000Z</time>
      </trkpt>
      <trkpt lat="42.023480236530303955078125" lon="2.97319156117737293243408203125">
        <ele>67</ele>
        <time>2022-07-29T09:48:31.000Z</time>
      </trkpt>
      <trkpt lat="42.0233600400388240814208984375" lon="2.97335735522210597991943359375">
        <ele>68.40000152587890625</ele>
        <time>2022-07-29T09:48:36.000Z</time>
      </trkpt>
      <trkpt lat="42.02334285713732242584228515625" lon="2.97339658252894878387451171875">
        <ele>68.59999847412109375</ele>
        <time>2022-07-29T09:48:37.000Z</time>
      </trkpt>
      <trkpt lat="42.02322467230260372161865234375" lon="2.9736082255840301513671875">
        <ele>69.1999969482421875</ele>
        <time>2022-07-29T09:48:43.000Z</time>
      </trkpt>
      <trkpt lat="42.02321268618106842041015625" lon="2.97363664023578166961669921875">
        <ele>69.1999969482421875</ele>
        <time>2022-07-29T09:48:44.000Z</time>
      </trkpt>
      <trkpt lat="42.0232152007520198822021484375" lon="2.9737557470798492431640625">
        <ele>69.59999847412109375</ele>
        <time>2022-07-29T09:48:48.000Z</time>
      </trkpt>
      <trkpt lat="42.0233241654932498931884765625" lon="2.97387435100972652435302734375">
        <ele>69.8000030517578125</ele>
        <time>2022-07-29T09:48:52.000Z</time>
      </trkpt>
      <trkpt lat="42.023603282868862152099609375" lon="2.974053137004375457763671875">
        <ele>69.40000152587890625</ele>
        <time>2022-07-29T09:48:59.000Z</time>
      </trkpt>
      <trkpt lat="42.024031095206737518310546875" lon="2.974315322935581207275390625">
        <ele>68.40000152587890625</ele>
        <time>2022-07-29T09:49:09.000Z</time>
      </trkpt>
      <trkpt lat="42.024071998894214630126953125" lon="2.97433912754058837890625">
        <ele>68.40000152587890625</ele>
        <time>2022-07-29T09:49:10.000Z</time>
      </trkpt>
      <trkpt lat="42.02435128390789031982421875" lon="2.97445387579500675201416015625">
        <ele>68.59999847412109375</ele>
        <time>2022-07-29T09:49:17.000Z</time>
      </trkpt>
      <trkpt lat="42.0246196724474430084228515625" lon="2.97450031153857707977294921875">
        <ele>69.40000152587890625</ele>
        <time>2022-07-29T09:49:24.000Z</time>
      </trkpt>
      <trkpt lat="42.02469435520470142364501953125" lon="2.9744975455105304718017578125">
        <ele>70</ele>
        <time>2022-07-29T09:49:26.000Z</time>
      </trkpt>
      <trkpt lat="42.02487724833190441131591796875" lon="2.97449444420635700225830078125">
        <ele>71</ele>
        <time>2022-07-29T09:49:31.000Z</time>
      </trkpt>
      <trkpt lat="42.0249487459659576416015625" lon="2.97448606230318546295166015625">
        <ele>71.1999969482421875</ele>
        <time>2022-07-29T09:49:33.000Z</time>
      </trkpt>
      <trkpt lat="42.02512769959867000579833984375" lon="2.97446963377296924591064453125">
        <ele>72.1999969482421875</ele>
        <time>2022-07-29T09:49:38.000Z</time>
      </trkpt>
      <trkpt lat="42.0251628197729587554931640625" lon="2.9744653590023517608642578125">
        <ele>72.1999969482421875</ele>
        <time>2022-07-29T09:49:39.000Z</time>
      </trkpt>
      <trkpt lat="42.02546834014356136322021484375" lon="2.9744345135986804962158203125">
        <ele>73.1999969482421875</ele>
        <time>2022-07-29T09:49:48.000Z</time>
      </trkpt>
      <trkpt lat="42.02550170011818408966064453125" lon="2.97443090938031673431396484375">
        <ele>73.1999969482421875</ele>
        <time>2022-07-29T09:49:49.000Z</time>
      </trkpt>
      <trkpt lat="42.02575768344104290008544921875" lon="2.97440341673791408538818359375">
        <ele>74.40000152587890625</ele>
        <time>2022-07-29T09:49:57.000Z</time>
      </trkpt>
      <trkpt lat="42.02578718774020671844482421875" lon="2.97440023161470890045166015625">
        <ele>74.59999847412109375</ele>
        <time>2022-07-29T09:49:58.000Z</time>
      </trkpt>
      <trkpt lat="42.02587503008544445037841796875" lon="2.974389754235744476318359375">
        <ele>75.40000152587890625</ele>
        <time>2022-07-29T09:50:01.000Z</time>
      </trkpt>
      <trkpt lat="42.0259882695972919464111328125" lon="2.97438271343708038330078125">
        <ele>76.59999847412109375</ele>
        <time>2022-07-29T09:50:05.000Z</time>
      </trkpt>
      <trkpt lat="42.0260445959866046905517578125" lon="2.9743758402764797210693359375">
        <ele>76.8000030517578125</ele>
        <time>2022-07-29T09:50:07.000Z</time>
      </trkpt>
      <trkpt lat="42.0261894352734088897705078125" lon="2.97436527907848358154296875">
        <ele>77.8000030517578125</ele>
        <time>2022-07-29T09:50:12.000Z</time>
      </trkpt>
      <trkpt lat="42.02624886296689510345458984375" lon="2.9743604175746440887451171875">
        <ele>78</ele>
        <time>2022-07-29T09:50:14.000Z</time>
      </trkpt>
      <trkpt lat="42.0264368690550327301025390625" lon="2.97433904372155666351318359375">
        <ele>78.8000030517578125</ele>
        <time>2022-07-29T09:50:20.000Z</time>
      </trkpt>
      <trkpt lat="42.02653971500694751739501953125" lon="2.97432881779968738555908203125">
        <ele>79</ele>
        <time>2022-07-29T09:50:23.000Z</time>
      </trkpt>
      <trkpt lat="42.02674909494817256927490234375" lon="2.974301911890506744384765625">
        <ele>79.59999847412109375</ele>
        <time>2022-07-29T09:50:29.000Z</time>
      </trkpt>
      <trkpt lat="42.02681967057287693023681640625" lon="2.9742936976253986358642578125">
        <ele>79.8000030517578125</ele>
        <time>2022-07-29T09:50:31.000Z</time>
      </trkpt>
      <trkpt lat="42.02721185982227325439453125" lon="2.9742487706243991851806640625">
        <ele>80.59999847412109375</ele>
        <time>2022-07-29T09:50:42.000Z</time>
      </trkpt>
      <trkpt lat="42.0275236666202545166015625" lon="2.97421515919268131256103515625">
        <ele>80.8000030517578125</ele>
        <time>2022-07-29T09:50:51.000Z</time>
      </trkpt>
      <trkpt lat="42.02781946398317813873291015625" lon="2.97419001348316669464111328125">
        <ele>81.59999847412109375</ele>
        <time>2022-07-29T09:51:00.000Z</time>
      </trkpt>
      <trkpt lat="42.027851901948451995849609375" lon="2.97418565489351749420166015625">
        <ele>82</ele>
        <time>2022-07-29T09:51:01.000Z</time>
      </trkpt>
      <trkpt lat="42.0279492996633052825927734375" lon="2.9741709865629673004150390625">
        <ele>82.59999847412109375</ele>
        <time>2022-07-29T09:51:04.000Z</time>
      </trkpt>
      <trkpt lat="42.02811400406062602996826171875" lon="2.9741485230624675750732421875">
        <ele>83.1999969482421875</ele>
        <time>2022-07-29T09:51:09.000Z</time>
      </trkpt>
      <trkpt lat="42.02818281948566436767578125" lon="2.97413653694093227386474609375">
        <ele>84</ele>
        <time>2022-07-29T09:51:11.000Z</time>
      </trkpt>
      <trkpt lat="42.02836512587964534759521484375" lon="2.974096052348613739013671875">
        <ele>85</ele>
        <time>2022-07-29T09:51:16.000Z</time>
      </trkpt>
      <trkpt lat="42.02840401791036128997802734375" lon="2.9740875028073787689208984375">
        <ele>85.1999969482421875</ele>
        <time>2022-07-29T09:51:17.000Z</time>
      </trkpt>
      <trkpt lat="42.02873728238046169281005859375" lon="2.97398163937032222747802734375">
        <ele>85.8000030517578125</ele>
        <time>2022-07-29T09:51:25.000Z</time>
      </trkpt>
      <trkpt lat="42.02896074391901493072509765625" lon="2.97389530576765537261962890625">
        <ele>86</ele>
        <time>2022-07-29T09:51:31.000Z</time>
      </trkpt>
      <trkpt lat="42.02908295206725597381591796875" lon="2.97388038598001003265380859375">
        <ele>86</ele>
        <time>2022-07-29T09:51:34.000Z</time>
      </trkpt>
      <trkpt lat="42.02920231036841869354248046875" lon="2.97391642816364765167236328125">
        <ele>85.8000030517578125</ele>
        <time>2022-07-29T09:51:37.000Z</time>
      </trkpt>
      <trkpt lat="42.02926768921315670013427734375" lon="2.97397091053426265716552734375">
        <ele>85.8000030517578125</ele>
        <time>2022-07-29T09:51:39.000Z</time>
      </trkpt>
      <trkpt lat="42.02934815548360347747802734375" lon="2.9740657098591327667236328125">
        <ele>86</ele>
        <time>2022-07-29T09:51:42.000Z</time>
      </trkpt>
      <trkpt lat="42.029443792998790740966796875" lon="2.9741458408534526824951171875">
        <ele>86</ele>
        <time>2022-07-29T09:51:47.000Z</time>
      </trkpt>
      <trkpt lat="42.0295817591249942779541015625" lon="2.97413402236998081207275390625">
        <ele>86.40000152587890625</ele>
        <time>2022-07-29T09:51:52.000Z</time>
      </trkpt>
      <trkpt lat="42.029617466032505035400390625" lon="2.97410652972757816314697265625">
        <ele>86.8000030517578125</ele>
        <time>2022-07-29T09:51:53.000Z</time>
      </trkpt>
      <trkpt lat="42.02972643077373504638671875" lon="2.9739735089242458343505859375">
        <ele>87.59999847412109375</ele>
        <time>2022-07-29T09:51:56.000Z</time>
      </trkpt>
      <trkpt lat="42.0300035364925861358642578125" lon="2.97362498939037322998046875">
        <ele>87.8000030517578125</ele>
        <time>2022-07-29T09:52:02.000Z</time>
      </trkpt>
      <trkpt lat="42.03042992390692234039306640625" lon="2.97315803356468677520751953125">
        <ele>85.8000030517578125</ele>
        <time>2022-07-29T09:52:09.000Z</time>
      </trkpt>
      <trkpt lat="42.03070334158837795257568359375" lon="2.9728786647319793701171875">
        <ele>84.1999969482421875</ele>
        <time>2022-07-29T09:52:13.000Z</time>
      </trkpt>
      <trkpt lat="42.03084466047585010528564453125" lon="2.9727356694638729095458984375">
        <ele>83</ele>
        <time>2022-07-29T09:52:15.000Z</time>
      </trkpt>
      <trkpt lat="42.03098899684846401214599609375" lon="2.9725908301770687103271484375">
        <ele>81.8000030517578125</ele>
        <time>2022-07-29T09:52:17.000Z</time>
      </trkpt>
      <trkpt lat="42.031210698187351226806640625" lon="2.97236577607691287994384765625">
        <ele>80.40000152587890625</ele>
        <time>2022-07-29T09:52:20.000Z</time>
      </trkpt>
      <trkpt lat="42.031435333192348480224609375" lon="2.9721355251967906951904296875">
        <ele>79.1999969482421875</ele>
        <time>2022-07-29T09:52:23.000Z</time>
      </trkpt>
      <trkpt lat="42.0317422784864902496337890625" lon="2.971820868551731109619140625">
        <ele>78.1999969482421875</ele>
        <time>2022-07-29T09:52:27.000Z</time>
      </trkpt>
      <trkpt lat="42.0318187214434146881103515625" lon="2.9717429168522357940673828125">
        <ele>77.8000030517578125</ele>
        <time>2022-07-29T09:52:28.000Z</time>
      </trkpt>
      <trkpt lat="42.03189508058130741119384765625" lon="2.97166538424789905548095703125">
        <ele>76.40000152587890625</ele>
        <time>2022-07-29T09:52:29.000Z</time>
      </trkpt>
      <trkpt lat="42.03219582326710224151611328125" lon="2.9713578522205352783203125">
        <ele>75</ele>
        <time>2022-07-29T09:52:33.000Z</time>
      </trkpt>
      <trkpt lat="42.0324896089732646942138671875" lon="2.97105534933507442474365234375">
        <ele>74</ele>
        <time>2022-07-29T09:52:37.000Z</time>
      </trkpt>
      <trkpt lat="42.032862603664398193359375" lon="2.97067430801689624786376953125">
        <ele>72.59999847412109375</ele>
        <time>2022-07-29T09:52:42.000Z</time>
      </trkpt>
      <trkpt lat="42.03310023061931133270263671875" lon="2.9704293049871921539306640625">
        <ele>72.59999847412109375</ele>
        <time>2022-07-29T09:52:45.000Z</time>
      </trkpt>
      <trkpt lat="42.0335988700389862060546875" lon="2.969917170703411102294921875">
        <ele>72.40000152587890625</ele>
        <time>2022-07-29T09:52:51.000Z</time>
      </trkpt>
      <trkpt lat="42.0337606407701969146728515625" lon="2.96974073164165019989013671875">
        <ele>72.40000152587890625</ele>
        <time>2022-07-29T09:52:53.000Z</time>
      </trkpt>
      <trkpt lat="42.03392383642494678497314453125" lon="2.96956303529441356658935546875">
        <ele>71.1999969482421875</ele>
        <time>2022-07-29T09:52:55.000Z</time>
      </trkpt>
      <trkpt lat="42.0340868644416332244873046875" lon="2.96937997452914714813232421875">
        <ele>68.59999847412109375</ele>
        <time>2022-07-29T09:52:57.000Z</time>
      </trkpt>
      <trkpt lat="42.03424938954412937164306640625" lon="2.96918869949877262115478515625">
        <ele>67.1999969482421875</ele>
        <time>2022-07-29T09:52:59.000Z</time>
      </trkpt>
      <trkpt lat="42.0344945602118968963623046875" lon="2.96888862736523151397705078125">
        <ele>66</ele>
        <time>2022-07-29T09:53:02.000Z</time>
      </trkpt>
      <trkpt lat="42.03482455573976039886474609375" lon="2.968455366790294647216796875">
        <ele>64.8000030517578125</ele>
        <time>2022-07-29T09:53:06.000Z</time>
      </trkpt>
      <trkpt lat="42.034991271793842315673828125" lon="2.9682305641472339630126953125">
        <ele>63.59999847412109375</ele>
        <time>2022-07-29T09:53:08.000Z</time>
      </trkpt>
      <trkpt lat="42.03523811884224414825439453125" lon="2.967900820076465606689453125">
        <ele>62.799999237060546875</ele>
        <time>2022-07-29T09:53:11.000Z</time>
      </trkpt>
      <trkpt lat="42.03531749546527862548828125" lon="2.967793531715869903564453125">
        <ele>62.200000762939453125</ele>
        <time>2022-07-29T09:53:12.000Z</time>
      </trkpt>
      <trkpt lat="42.03547180630266666412353515625" lon="2.967583648860454559326171875">
        <ele>60.59999847412109375</ele>
        <time>2022-07-29T09:53:14.000Z</time>
      </trkpt>
      <trkpt lat="42.03562217764556407928466796875" lon="2.96738156117498874664306640625">
        <ele>59.200000762939453125</ele>
        <time>2022-07-29T09:53:16.000Z</time>
      </trkpt>
      <trkpt lat="42.035769782960414886474609375" lon="2.9671858437359333038330078125">
        <ele>58.59999847412109375</ele>
        <time>2022-07-29T09:53:18.000Z</time>
      </trkpt>
      <trkpt lat="42.0361917279660701751708984375" lon="2.96661377884447574615478515625">
        <ele>58.40000152587890625</ele>
        <time>2022-07-29T09:53:24.000Z</time>
      </trkpt>
      <trkpt lat="42.03639708459377288818359375" lon="2.9663389362394809722900390625">
        <ele>58.799999237060546875</ele>
        <time>2022-07-29T09:53:27.000Z</time>
      </trkpt>
      <trkpt lat="42.0368089713156223297119140625" lon="2.9657870717346668243408203125">
        <ele>59</ele>
        <time>2022-07-29T09:53:33.000Z</time>
      </trkpt>
      <trkpt lat="42.03722496517002582550048828125" lon="2.96523378230631351470947265625">
        <ele>59</ele>
        <time>2022-07-29T09:53:39.000Z</time>
      </trkpt>
      <trkpt lat="42.03729562461376190185546875" lon="2.96514040790498256683349609375">
        <ele>58.799999237060546875</ele>
        <time>2022-07-29T09:53:40.000Z</time>
      </trkpt>
      <trkpt lat="42.03766836784780025482177734375" lon="2.9646870307624340057373046875">
        <ele>57.799999237060546875</ele>
        <time>2022-07-29T09:53:45.000Z</time>
      </trkpt>
      <trkpt lat="42.03783617354929447174072265625" lon="2.964523248374462127685546875">
        <ele>57.799999237060546875</ele>
        <time>2022-07-29T09:53:47.000Z</time>
      </trkpt>
      <trkpt lat="42.03830421902239322662353515625" lon="2.96416073106229305267333984375">
        <ele>57.200000762939453125</ele>
        <time>2022-07-29T09:53:52.000Z</time>
      </trkpt>
      <trkpt lat="42.03850152902305126190185546875" lon="2.96402527950704097747802734375">
        <ele>56</ele>
        <time>2022-07-29T09:53:54.000Z</time>
      </trkpt>
      <trkpt lat="42.03869950957596302032470703125" lon="2.963886894285678863525390625">
        <ele>54.799999237060546875</ele>
        <time>2022-07-29T09:53:56.000Z</time>
      </trkpt>
      <trkpt lat="42.03899052925407886505126953125" lon="2.9636828787624835968017578125">
        <ele>53.799999237060546875</ele>
        <time>2022-07-29T09:53:59.000Z</time>
      </trkpt>
      <trkpt lat="42.03918264247477054595947265625" lon="2.96354818157851696014404296875">
        <ele>51.799999237060546875</ele>
        <time>2022-07-29T09:54:01.000Z</time>
      </trkpt>
      <trkpt lat="42.0393714867532253265380859375" lon="2.963415496051311492919921875">
        <ele>50.200000762939453125</ele>
        <time>2022-07-29T09:54:03.000Z</time>
      </trkpt>
      <trkpt lat="42.03974540345370769500732421875" lon="2.9631987400352954864501953125">
        <ele>48.799999237060546875</ele>
        <time>2022-07-29T09:54:07.000Z</time>
      </trkpt>
      <trkpt lat="42.04003038816154003143310546875" lon="2.96305582858622074127197265625">
        <ele>47.59999847412109375</ele>
        <time>2022-07-29T09:54:10.000Z</time>
      </trkpt>
      <trkpt lat="42.04042785800993442535400390625" lon="2.96285734511911869049072265625">
        <ele>47.59999847412109375</ele>
        <time>2022-07-29T09:54:14.000Z</time>
      </trkpt>
      <trkpt lat="42.04094284214079380035400390625" lon="2.96259440481662750244140625">
        <ele>47</ele>
        <time>2022-07-29T09:54:19.000Z</time>
      </trkpt>
      <trkpt lat="42.0412584207952022552490234375" lon="2.96243338845670223236083984375">
        <ele>46.799999237060546875</ele>
        <time>2022-07-29T09:54:22.000Z</time>
      </trkpt>
      <trkpt lat="42.04156980849802494049072265625" lon="2.96227362938225269317626953125">
        <ele>46.59999847412109375</ele>
        <time>2022-07-29T09:54:25.000Z</time>
      </trkpt>
      <trkpt lat="42.041879855096340179443359375" lon="2.96211638487875461578369140625">
        <ele>45.200000762939453125</ele>
        <time>2022-07-29T09:54:28.000Z</time>
      </trkpt>
      <trkpt lat="42.0421846210956573486328125" lon="2.96196031384170055389404296875">
        <ele>44</ele>
        <time>2022-07-29T09:54:31.000Z</time>
      </trkpt>
      <trkpt lat="42.0422865450382232666015625" lon="2.9619069211184978485107421875">
        <ele>43.799999237060546875</ele>
        <time>2022-07-29T09:54:32.000Z</time>
      </trkpt>
      <trkpt lat="42.0428741164505481719970703125" lon="2.9615843854844570159912109375">
        <ele>43.200000762939453125</ele>
        <time>2022-07-29T09:54:38.000Z</time>
      </trkpt>
      <trkpt lat="42.04305508174002170562744140625" lon="2.96146259643137454986572265625">
        <ele>43.200000762939453125</ele>
        <time>2022-07-29T09:54:40.000Z</time>
      </trkpt>
      <trkpt lat="42.0434665493667125701904296875" lon="2.9610858298838138580322265625">
        <ele>43</ele>
        <time>2022-07-29T09:54:45.000Z</time>
      </trkpt>
      <trkpt lat="42.04361021518707275390625" lon="2.960910312831401824951171875">
        <ele>42.799999237060546875</ele>
        <time>2022-07-29T09:54:47.000Z</time>
      </trkpt>
      <trkpt lat="42.04380936920642852783203125" lon="2.960619963705539703369140625">
        <ele>42.59999847412109375</ele>
        <time>2022-07-29T09:54:50.000Z</time>
      </trkpt>
      <trkpt lat="42.0440831221640110015869140625" lon="2.9600845277309417724609375">
        <ele>42.200000762939453125</ele>
        <time>2022-07-29T09:54:55.000Z</time>
      </trkpt>
      <trkpt lat="42.04425327479839324951171875" lon="2.9596334137022495269775390625">
        <ele>41.59999847412109375</ele>
        <time>2022-07-29T09:54:59.000Z</time>
      </trkpt>
      <trkpt lat="42.04431856982409954071044921875" lon="2.95939712785184383392333984375">
        <ele>41.40000152587890625</ele>
        <time>2022-07-29T09:55:01.000Z</time>
      </trkpt>
      <trkpt lat="42.04449869692325592041015625" lon="2.9586798883974552154541015625">
        <ele>41.40000152587890625</ele>
        <time>2022-07-29T09:55:07.000Z</time>
      </trkpt>
      <trkpt lat="42.0446396805346012115478515625" lon="2.95808418653905391693115234375">
        <ele>41.200000762939453125</ele>
        <time>2022-07-29T09:55:12.000Z</time>
      </trkpt>
      <trkpt lat="42.04482726752758026123046875" lon="2.95728974975645542144775390625">
        <ele>41.200000762939453125</ele>
        <time>2022-07-29T09:55:19.000Z</time>
      </trkpt>
      <trkpt lat="42.0449226535856723785400390625" lon="2.95684911310672760009765625">
        <ele>41</ele>
        <time>2022-07-29T09:55:23.000Z</time>
      </trkpt>
      <trkpt lat="42.0450413413345813751220703125" lon="2.9560771398246288299560546875">
        <ele>41</ele>
        <time>2022-07-29T09:55:30.000Z</time>
      </trkpt>
      <trkpt lat="42.04505123198032379150390625" lon="2.95596473850309848785400390625">
        <ele>41</ele>
        <time>2022-07-29T09:55:31.000Z</time>
      </trkpt>
      <trkpt lat="42.0450889505445957183837890625" lon="2.955168373882770538330078125">
        <ele>41.59999847412109375</ele>
        <time>2022-07-29T09:55:38.000Z</time>
      </trkpt>
      <trkpt lat="42.04509012401103973388671875" lon="2.954941727221012115478515625">
        <ele>41.799999237060546875</ele>
        <time>2022-07-29T09:55:40.000Z</time>
      </trkpt>
      <trkpt lat="42.04507344402372837066650390625" lon="2.95415592379868030548095703125">
        <ele>42</ele>
        <time>2022-07-29T09:55:47.000Z</time>
      </trkpt>
      <trkpt lat="42.0450537465512752532958984375" lon="2.95359634794294834136962890625">
        <ele>41.799999237060546875</ele>
        <time>2022-07-29T09:55:52.000Z</time>
      </trkpt>
      <trkpt lat="42.04502977430820465087890625" lon="2.95282688923180103302001953125">
        <ele>41.40000152587890625</ele>
        <time>2022-07-29T09:55:59.000Z</time>
      </trkpt>
      <trkpt lat="42.04501410014927387237548828125" lon="2.952276952564716339111328125">
        <ele>41.40000152587890625</ele>
        <time>2022-07-29T09:56:04.000Z</time>
      </trkpt>
      <trkpt lat="42.0449709333479404449462890625" lon="2.95151763595640659332275390625">
        <ele>41.40000152587890625</ele>
        <time>2022-07-29T09:56:11.000Z</time>
      </trkpt>
      <trkpt lat="42.0449152775108814239501953125" lon="2.95098580420017242431640625">
        <ele>41.799999237060546875</ele>
        <time>2022-07-29T09:56:16.000Z</time>
      </trkpt>
      <trkpt lat="42.04478527419269084930419921875" lon="2.95026672072708606719970703125">
        <ele>42.200000762939453125</ele>
        <time>2022-07-29T09:56:23.000Z</time>
      </trkpt>
      <trkpt lat="42.04476247541606426239013671875" lon="2.950167395174503326416015625">
        <ele>42.40000152587890625</ele>
        <time>2022-07-29T09:56:24.000Z</time>
      </trkpt>
      <trkpt lat="42.04473934136331081390380859375" lon="2.9500689916312694549560546875">
        <ele>42.59999847412109375</ele>
        <time>2022-07-29T09:56:25.000Z</time>
      </trkpt>
      <trkpt lat="42.04454957507550716400146484375" lon="2.94930146075785160064697265625">
        <ele>43.40000152587890625</ele>
        <time>2022-07-29T09:56:33.000Z</time>
      </trkpt>
      <trkpt lat="42.044501043856143951416015625" lon="2.94911471195518970489501953125">
        <ele>43.40000152587890625</ele>
        <time>2022-07-29T09:56:35.000Z</time>
      </trkpt>
      <trkpt lat="42.04443474300205707550048828125" lon="2.94884028844535350799560546875">
        <ele>43.59999847412109375</ele>
        <time>2022-07-29T09:56:38.000Z</time>
      </trkpt>
      <trkpt lat="42.04432074911892414093017578125" lon="2.94840510003268718719482421875">
        <ele>44.200000762939453125</ele>
        <time>2022-07-29T09:56:43.000Z</time>
      </trkpt>
      <trkpt lat="42.044296525418758392333984375" lon="2.94832170009613037109375">
        <ele>44.59999847412109375</ele>
        <time>2022-07-29T09:56:44.000Z</time>
      </trkpt>
      <trkpt lat="42.04411589540541172027587890625" lon="2.94777452945709228515625">
        <ele>45.40000152587890625</ele>
        <time>2022-07-29T09:56:51.000Z</time>
      </trkpt>
      <trkpt lat="42.04403643496334552764892578125" lon="2.94755794107913970947265625">
        <ele>45.59999847412109375</ele>
        <time>2022-07-29T09:56:54.000Z</time>
      </trkpt>
      <trkpt lat="42.043798305094242095947265625" lon="2.9469891451299190521240234375">
        <ele>46.40000152587890625</ele>
        <time>2022-07-29T09:57:02.000Z</time>
      </trkpt>
      <trkpt lat="42.0437377877533435821533203125" lon="2.9468446411192417144775390625">
        <ele>46.59999847412109375</ele>
        <time>2022-07-29T09:57:04.000Z</time>
      </trkpt>
      <trkpt lat="42.043587081134319305419921875" lon="2.9464818723499774932861328125">
        <ele>47.59999847412109375</ele>
        <time>2022-07-29T09:57:09.000Z</time>
      </trkpt>
      <trkpt lat="42.0434050261974334716796875" lon="2.94605582021176815032958984375">
        <ele>48.200000762939453125</ele>
        <time>2022-07-29T09:57:15.000Z</time>
      </trkpt>
      <trkpt lat="42.04319187439978122711181640625" lon="2.945556677877902984619140625">
        <ele>48.59999847412109375</ele>
        <time>2022-07-29T09:57:22.000Z</time>
      </trkpt>
      <trkpt lat="42.043070755898952484130859375" lon="2.9452765546739101409912109375">
        <ele>49.200000762939453125</ele>
        <time>2022-07-29T09:57:26.000Z</time>
      </trkpt>
      <trkpt lat="42.0428613759577274322509765625" lon="2.94478596188127994537353515625">
        <ele>49.59999847412109375</ele>
        <time>2022-07-29T09:57:33.000Z</time>
      </trkpt>
      <trkpt lat="42.0428322069346904754638671875" lon="2.9447163082659244537353515625">
        <ele>49.799999237060546875</ele>
        <time>2022-07-29T09:57:34.000Z</time>
      </trkpt>
      <trkpt lat="42.04265534877777099609375" lon="2.9443066008388996124267578125">
        <ele>50.799999237060546875</ele>
        <time>2022-07-29T09:57:40.000Z</time>
      </trkpt>
      <trkpt lat="42.04259742982685565948486328125" lon="2.944169305264949798583984375">
        <ele>51</ele>
        <time>2022-07-29T09:57:42.000Z</time>
      </trkpt>
      <trkpt lat="42.04247924499213695526123046875" lon="2.94389211572706699371337890625">
        <ele>51.200000762939453125</ele>
        <time>2022-07-29T09:57:46.000Z</time>
      </trkpt>
      <trkpt lat="42.0423621498048305511474609375" lon="2.94361777603626251220703125">
        <ele>51.799999237060546875</ele>
        <time>2022-07-29T09:57:50.000Z</time>
      </trkpt>
      <trkpt lat="42.04224404878914356231689453125" lon="2.9433413408696651458740234375">
        <ele>52.200000762939453125</ele>
        <time>2022-07-29T09:57:54.000Z</time>
      </trkpt>
      <trkpt lat="42.04209275543689727783203125" lon="2.9429802484810352325439453125">
        <ele>53</ele>
        <time>2022-07-29T09:57:59.000Z</time>
      </trkpt>
      <trkpt lat="42.0418493449687957763671875" lon="2.94240131042897701263427734375">
        <ele>53.799999237060546875</ele>
        <time>2022-07-29T09:58:07.000Z</time>
      </trkpt>
      <trkpt lat="42.04157668165862560272216796875" lon="2.9417554847896099090576171875">
        <ele>54.59999847412109375</ele>
        <time>2022-07-29T09:58:16.000Z</time>
      </trkpt>
      <trkpt lat="42.0415467582643032073974609375" lon="2.941683232784271240234375">
        <ele>54.799999237060546875</ele>
        <time>2022-07-29T09:58:17.000Z</time>
      </trkpt>
      <trkpt lat="42.04151733778417110443115234375" lon="2.941610813140869140625">
        <ele>54.799999237060546875</ele>
        <time>2022-07-29T09:58:18.000Z</time>
      </trkpt>
      <trkpt lat="42.041348777711391448974609375" lon="2.94117503799498081207275390625">
        <ele>55.40000152587890625</ele>
        <time>2022-07-29T09:58:24.000Z</time>
      </trkpt>
      <trkpt lat="42.04125599004328250885009765625" lon="2.9408559389412403106689453125">
        <ele>55.799999237060546875</ele>
        <time>2022-07-29T09:58:28.000Z</time>
      </trkpt>
      <trkpt lat="42.04120988957583904266357421875" lon="2.94060590676963329315185546875">
        <ele>56.200000762939453125</ele>
        <time>2022-07-29T09:58:31.000Z</time>
      </trkpt>
      <trkpt lat="42.04117032699286937713623046875" lon="2.94002554379403591156005859375">
        <ele>56.799999237060546875</ele>
        <time>2022-07-29T09:58:38.000Z</time>
      </trkpt>
      <trkpt lat="42.04119849018752574920654296875" lon="2.9396165907382965087890625">
        <ele>57</ele>
        <time>2022-07-29T09:58:43.000Z</time>
      </trkpt>
      <trkpt lat="42.04124023206532001495361328125" lon="2.9393832385540008544921875">
        <ele>57</ele>
        <time>2022-07-29T09:58:46.000Z</time>
      </trkpt>
      <trkpt lat="42.04141356982290744781494140625" lon="2.93880530633032321929931640625">
        <ele>57.59999847412109375</ele>
        <time>2022-07-29T09:58:54.000Z</time>
      </trkpt>
      <trkpt lat="42.04150459729135036468505859375" lon="2.93860732577741146087646484375">
        <ele>58</ele>
        <time>2022-07-29T09:58:57.000Z</time>
      </trkpt>
      <trkpt lat="42.04164407216012477874755859375" lon="2.9383584670722484588623046875">
        <ele>58.40000152587890625</ele>
        <time>2022-07-29T09:59:01.000Z</time>
      </trkpt>
      <trkpt lat="42.041955292224884033203125" lon="2.93795119039714336395263671875">
        <ele>59</ele>
        <time>2022-07-29T09:59:08.000Z</time>
      </trkpt>
      <trkpt lat="42.04200432635843753814697265625" lon="2.93789503164589405059814453125">
        <ele>59.200000762939453125</ele>
        <time>2022-07-29T09:59:09.000Z</time>
      </trkpt>
      <trkpt lat="42.042423002421855926513671875" lon="2.93746068142354488372802734375">
        <ele>59.40000152587890625</ele>
        <time>2022-07-29T09:59:17.000Z</time>
      </trkpt>
      <trkpt lat="42.0428348891437053680419921875" lon="2.93700101785361766815185546875">
        <ele>59.200000762939453125</ele>
        <time>2022-07-29T09:59:25.000Z</time>
      </trkpt>
      <trkpt lat="42.04315348528325557708740234375" lon="2.93650413863360881805419921875">
        <ele>59.40000152587890625</ele>
        <time>2022-07-29T09:59:32.000Z</time>
      </trkpt>
      <trkpt lat="42.04338482581079006195068359375" lon="2.935916148126125335693359375">
        <ele>59.200000762939453125</ele>
        <time>2022-07-29T09:59:38.000Z</time>
      </trkpt>
      <trkpt lat="42.0435258932411670684814453125" lon="2.9351867549121379852294921875">
        <ele>58</ele>
        <time>2022-07-29T09:59:44.000Z</time>
      </trkpt>
      <trkpt lat="42.04353704117238521575927734375" lon="2.9350526444613933563232421875">
        <ele>57.799999237060546875</ele>
        <time>2022-07-29T09:59:45.000Z</time>
      </trkpt>
      <trkpt lat="42.043543495237827301025390625" lon="2.934499941766262054443359375">
        <ele>56.40000152587890625</ele>
        <time>2022-07-29T09:59:49.000Z</time>
      </trkpt>
      <trkpt lat="42.04349379055202007293701171875" lon="2.9340759851038455963134765625">
        <ele>54.59999847412109375</ele>
        <time>2022-07-29T09:59:52.000Z</time>
      </trkpt>
      <trkpt lat="42.04343520104885101318359375" lon="2.93379778973758220672607421875">
        <ele>53.40000152587890625</ele>
        <time>2022-07-29T09:59:54.000Z</time>
      </trkpt>
      <trkpt lat="42.04334962181746959686279296875" lon="2.933524958789348602294921875">
        <ele>52.200000762939453125</ele>
        <time>2022-07-29T09:59:56.000Z</time>
      </trkpt>
      <trkpt lat="42.04324568621814250946044921875" lon="2.9332558996975421905517578125">
        <ele>51</ele>
        <time>2022-07-29T09:59:58.000Z</time>
      </trkpt>
      <trkpt lat="42.0431869290769100189208984375" lon="2.93312405236065387725830078125">
        <ele>50.40000152587890625</ele>
        <time>2022-07-29T09:59:59.000Z</time>
      </trkpt>
      <trkpt lat="42.0430541597306728363037109375" lon="2.93286882340908050537109375">
        <ele>49.59999847412109375</ele>
        <time>2022-07-29T10:00:01.000Z</time>
      </trkpt>
      <trkpt lat="42.04289817251265048980712890625" lon="2.9326353035867214202880859375">
        <ele>49.40000152587890625</ele>
        <time>2022-07-29T10:00:03.000Z</time>
      </trkpt>
      <trkpt lat="42.042649649083614349365234375" lon="2.932313941419124603271484375">
        <ele>48.200000762939453125</ele>
        <time>2022-07-29T10:00:06.000Z</time>
      </trkpt>
      <trkpt lat="42.04248142428696155548095703125" lon="2.9321119375526905059814453125">
        <ele>47</ele>
        <time>2022-07-29T10:00:08.000Z</time>
      </trkpt>
      <trkpt lat="42.0423142053186893463134765625" lon="2.93191202916204929351806640625">
        <ele>46.40000152587890625</ele>
        <time>2022-07-29T10:00:10.000Z</time>
      </trkpt>
      <trkpt lat="42.0422313921153545379638671875" lon="2.93180976994335651397705078125">
        <ele>45.799999237060546875</ele>
        <time>2022-07-29T10:00:11.000Z</time>
      </trkpt>
      <trkpt lat="42.04192017205059528350830078125" lon="2.931381203234195709228515625">
        <ele>44.799999237060546875</ele>
        <time>2022-07-29T10:00:15.000Z</time>
      </trkpt>
      <trkpt lat="42.04178304411470890045166015625" lon="2.93115086853504180908203125">
        <ele>44.59999847412109375</ele>
        <time>2022-07-29T10:00:17.000Z</time>
      </trkpt>
      <trkpt lat="42.04147928394377231597900390625" lon="2.93054611422121524810791015625">
        <ele>44.200000762939453125</ele>
        <time>2022-07-29T10:00:22.000Z</time>
      </trkpt>
      <trkpt lat="42.0414260588586330413818359375" lon="2.9304197989404201507568359375">
        <ele>44.200000762939453125</ele>
        <time>2022-07-29T10:00:23.000Z</time>
      </trkpt>
      <trkpt lat="42.0411648787558078765869140625" lon="2.92964874766767024993896484375">
        <ele>44.200000762939453125</ele>
        <time>2022-07-29T10:00:29.000Z</time>
      </trkpt>
      <trkpt lat="42.04097284935414791107177734375" lon="2.9288621060550212860107421875">
        <ele>44.40000152587890625</ele>
        <time>2022-07-29T10:00:35.000Z</time>
      </trkpt>
      <trkpt lat="42.0408467017114162445068359375" lon="2.928343601524829864501953125">
        <ele>44.799999237060546875</ele>
        <time>2022-07-29T10:00:39.000Z</time>
      </trkpt>
      <trkpt lat="42.04066959209740161895751953125" lon="2.92759417556226253509521484375">
        <ele>45</ele>
        <time>2022-07-29T10:00:45.000Z</time>
      </trkpt>
      <trkpt lat="42.0405838452279567718505859375" lon="2.92724213562905788421630859375">
        <ele>45</ele>
        <time>2022-07-29T10:00:48.000Z</time>
      </trkpt>
      <trkpt lat="42.040394246578216552734375" lon="2.9264630377292633056640625">
        <ele>45</ele>
        <time>2022-07-29T10:00:55.000Z</time>
      </trkpt>
      <trkpt lat="42.04031721688807010650634765625" lon="2.9261316172778606414794921875">
        <ele>45.200000762939453125</ele>
        <time>2022-07-29T10:00:58.000Z</time>
      </trkpt>
      <trkpt lat="42.04023675061762332916259765625" lon="2.925800867378711700439453125">
        <ele>45.799999237060546875</ele>
        <time>2022-07-29T10:01:01.000Z</time>
      </trkpt>
      <trkpt lat="42.040046565234661102294921875" lon="2.92501263320446014404296875">
        <ele>46</ele>
        <time>2022-07-29T10:01:08.000Z</time>
      </trkpt>
      <trkpt lat="42.04001982696354389190673828125" lon="2.9249001480638980865478515625">
        <ele>46</ele>
        <time>2022-07-29T10:01:09.000Z</time>
      </trkpt>
      <trkpt lat="42.0398296415805816650390625" lon="2.9241186194121837615966796875">
        <ele>45.200000762939453125</ele>
        <time>2022-07-29T10:01:16.000Z</time>
      </trkpt>
      <trkpt lat="42.0396460779011249542236328125" lon="2.92336173355579376220703125">
        <ele>45.200000762939453125</ele>
        <time>2022-07-29T10:01:23.000Z</time>
      </trkpt>
      <trkpt lat="42.03948539681732654571533203125" lon="2.92269076220691204071044921875">
        <ele>45.59999847412109375</ele>
        <time>2022-07-29T10:01:30.000Z</time>
      </trkpt>
      <trkpt lat="42.03929998911917209625244140625" lon="2.921915687620639801025390625">
        <ele>46.799999237060546875</ele>
        <time>2022-07-29T10:01:38.000Z</time>
      </trkpt>
      <trkpt lat="42.039252631366252899169921875" lon="2.921721898019313812255859375">
        <ele>47</ele>
        <time>2022-07-29T10:01:40.000Z</time>
      </trkpt>
      <trkpt lat="42.03906211070716381072998046875" lon="2.920944392681121826171875">
        <ele>47.200000762939453125</ele>
        <time>2022-07-29T10:01:48.000Z</time>
      </trkpt>
      <trkpt lat="42.038944177329540252685546875" lon="2.92045698501169681549072265625">
        <ele>47.200000762939453125</ele>
        <time>2022-07-29T10:01:53.000Z</time>
      </trkpt>
      <trkpt lat="42.03877427615225315093994140625" lon="2.9197667352855205535888671875">
        <ele>47</ele>
        <time>2022-07-29T10:02:00.000Z</time>
      </trkpt>
      <trkpt lat="42.0387270860373973846435546875" lon="2.91956330649554729461669921875">
        <ele>47</ele>
        <time>2022-07-29T10:02:02.000Z</time>
      </trkpt>
      <trkpt lat="42.03855165280401706695556640625" lon="2.91884447447955608367919921875">
        <ele>46.59999847412109375</ele>
        <time>2022-07-29T10:02:09.000Z</time>
      </trkpt>
      <trkpt lat="42.03848208300769329071044921875" lon="2.9185416363179683685302734375">
        <ele>46.59999847412109375</ele>
        <time>2022-07-29T10:02:12.000Z</time>
      </trkpt>
      <trkpt lat="42.03830773942172527313232421875" lon="2.91783110238611698150634765625">
        <ele>46.40000152587890625</ele>
        <time>2022-07-29T10:02:19.000Z</time>
      </trkpt>
      <trkpt lat="42.0382835157215595245361328125" lon="2.91773001663386821746826171875">
        <ele>46.40000152587890625</ele>
        <time>2022-07-29T10:02:20.000Z</time>
      </trkpt>
      <trkpt lat="42.038130797445774078369140625" lon="2.9171019606292247772216796875">
        <ele>46.200000762939453125</ele>
        <time>2022-07-29T10:02:26.000Z</time>
      </trkpt>
      <trkpt lat="42.03810053877532482147216796875" lon="2.916995175182819366455078125">
        <ele>46.200000762939453125</ele>
        <time>2022-07-29T10:02:27.000Z</time>
      </trkpt>
      <trkpt lat="42.0379475690424442291259765625" lon="2.9163764230906963348388671875">
        <ele>46</ele>
        <time>2022-07-29T10:02:33.000Z</time>
      </trkpt>
      <trkpt lat="42.03779526986181735992431640625" lon="2.91571282781660556793212890625">
        <ele>45.799999237060546875</ele>
        <time>2022-07-29T10:02:40.000Z</time>
      </trkpt>
      <trkpt lat="42.03761472366750240325927734375" lon="2.91502567939460277557373046875">
        <ele>46.59999847412109375</ele>
        <time>2022-07-29T10:02:47.000Z</time>
      </trkpt>
      <trkpt lat="42.03759175725281238555908203125" lon="2.9149270243942737579345703125">
        <ele>46.59999847412109375</ele>
        <time>2022-07-29T10:02:48.000Z</time>
      </trkpt>
      <trkpt lat="42.03741095960140228271484375" lon="2.91414909996092319488525390625">
        <ele>46.799999237060546875</ele>
        <time>2022-07-29T10:02:56.000Z</time>
      </trkpt>
      <trkpt lat="42.03728766180574893951416015625" lon="2.91365289129316806793212890625">
        <ele>46.799999237060546875</ele>
        <time>2022-07-29T10:03:01.000Z</time>
      </trkpt>
      <trkpt lat="42.03724491409957408905029296875" lon="2.91344753466546535491943359375">
        <ele>46.59999847412109375</ele>
        <time>2022-07-29T10:03:03.000Z</time>
      </trkpt>
      <trkpt lat="42.0370803773403167724609375" lon="2.91273188777267932891845703125">
        <ele>46.59999847412109375</ele>
        <time>2022-07-29T10:03:10.000Z</time>
      </trkpt>
      <trkpt lat="42.03703016974031925201416015625" lon="2.91252083145081996917724609375">
        <ele>46.59999847412109375</ele>
        <time>2022-07-29T10:03:12.000Z</time>
      </trkpt>
      <trkpt lat="42.03686420805752277374267578125" lon="2.9117885045707225799560546875">
        <ele>46.40000152587890625</ele>
        <time>2022-07-29T10:03:19.000Z</time>
      </trkpt>
      <trkpt lat="42.0366855897009372711181640625" lon="2.91105307638645172119140625">
        <ele>46.40000152587890625</ele>
        <time>2022-07-29T10:03:26.000Z</time>
      </trkpt>
      <trkpt lat="42.03665901906788349151611328125" lon="2.91094436310231685638427734375">
        <ele>46.200000762939453125</ele>
        <time>2022-07-29T10:03:27.000Z</time>
      </trkpt>
      <trkpt lat="42.0365090668201446533203125" lon="2.91032678447663784027099609375">
        <ele>46.40000152587890625</ele>
        <time>2022-07-29T10:03:33.000Z</time>
      </trkpt>
      <trkpt lat="42.03638903796672821044921875" lon="2.9098227806389331817626953125">
        <ele>46.799999237060546875</ele>
        <time>2022-07-29T10:03:39.000Z</time>
      </trkpt>
      <trkpt lat="42.03620941378176212310791015625" lon="2.909087352454662322998046875">
        <ele>46.799999237060546875</ele>
        <time>2022-07-29T10:03:47.000Z</time>
      </trkpt>
      <trkpt lat="42.03618745319545269012451171875" lon="2.90899439714848995208740234375">
        <ele>46.799999237060546875</ele>
        <time>2022-07-29T10:03:48.000Z</time>
      </trkpt>
      <trkpt lat="42.03600171022117137908935546875" lon="2.9082339070737361907958984375">
        <ele>46.59999847412109375</ele>
        <time>2022-07-29T10:03:56.000Z</time>
      </trkpt>
      <trkpt lat="42.035818397998809814453125" lon="2.90748062543570995330810546875">
        <ele>46.59999847412109375</ele>
        <time>2022-07-29T10:04:04.000Z</time>
      </trkpt>
      <trkpt lat="42.0357971079647541046142578125" lon="2.90738649666309356689453125">
        <ele>46.59999847412109375</ele>
        <time>2022-07-29T10:04:05.000Z</time>
      </trkpt>
      <trkpt lat="42.03561346046626567840576171875" lon="2.90664612315595149993896484375">
        <ele>47</ele>
        <time>2022-07-29T10:04:13.000Z</time>
      </trkpt>
      <trkpt lat="42.03552025370299816131591796875" lon="2.90627245791256427764892578125">
        <ele>47.200000762939453125</ele>
        <time>2022-07-29T10:04:17.000Z</time>
      </trkpt>
      <trkpt lat="42.0354306511580944061279296875" lon="2.905897200107574462890625">
        <ele>47.40000152587890625</ele>
        <time>2022-07-29T10:04:21.000Z</time>
      </trkpt>
      <trkpt lat="42.0352512784302234649658203125" lon="2.9051456786692142486572265625">
        <ele>47.59999847412109375</ele>
        <time>2022-07-29T10:04:29.000Z</time>
      </trkpt>
      <trkpt lat="42.03513703308999538421630859375" lon="2.90468140505254268646240234375">
        <ele>47.59999847412109375</ele>
        <time>2022-07-29T10:04:34.000Z</time>
      </trkpt>
      <trkpt lat="42.035000324249267578125" lon="2.9041197337210178375244140625">
        <ele>48.200000762939453125</ele>
        <time>2022-07-29T10:04:40.000Z</time>
      </trkpt>
      <trkpt lat="42.03488389961421489715576171875" lon="2.9036267101764678955078125">
        <ele>49</ele>
        <time>2022-07-29T10:04:45.000Z</time>
      </trkpt>
      <trkpt lat="42.03485975973308086395263671875" lon="2.90352604351937770843505859375">
        <ele>49.40000152587890625</ele>
        <time>2022-07-29T10:04:46.000Z</time>
      </trkpt>
      <trkpt lat="42.034691534936428070068359375" lon="2.90283151902258396148681640625">
        <ele>49.799999237060546875</ele>
        <time>2022-07-29T10:04:53.000Z</time>
      </trkpt>
      <trkpt lat="42.0345096476376056671142578125" lon="2.9020641557872295379638671875">
        <ele>50.200000762939453125</ele>
        <time>2022-07-29T10:05:01.000Z</time>
      </trkpt>
      <trkpt lat="42.03446413390338420867919921875" lon="2.9018787480890750885009765625">
        <ele>50.200000762939453125</ele>
        <time>2022-07-29T10:05:03.000Z</time>
      </trkpt>
      <trkpt lat="42.03439791686832904815673828125" lon="2.90160097181797027587890625">
        <ele>50.59999847412109375</ele>
        <time>2022-07-29T10:05:06.000Z</time>
      </trkpt>
      <trkpt lat="42.0342130959033966064453125" lon="2.90083779953420162200927734375">
        <ele>51.40000152587890625</ele>
        <time>2022-07-29T10:05:14.000Z</time>
      </trkpt>
      <trkpt lat="42.0341891236603260040283203125" lon="2.90073989890515804290771484375">
        <ele>51.40000152587890625</ele>
        <time>2022-07-29T10:05:15.000Z</time>
      </trkpt>
      <trkpt lat="42.03401771374046802520751953125" lon="2.9000360704958438873291015625">
        <ele>51.59999847412109375</ele>
        <time>2022-07-29T10:05:22.000Z</time>
      </trkpt>
      <trkpt lat="42.03391428105533123016357421875" lon="2.89961437694728374481201171875">
        <ele>51.59999847412109375</ele>
        <time>2022-07-29T10:05:26.000Z</time>
      </trkpt>
      <trkpt lat="42.0337338186800479888916015625" lon="2.89886587299406528472900390625">
        <ele>51.59999847412109375</ele>
        <time>2022-07-29T10:05:33.000Z</time>
      </trkpt>
      <trkpt lat="42.0336305536329746246337890625" lon="2.8984525613486766815185546875">
        <ele>51.40000152587890625</ele>
        <time>2022-07-29T10:05:37.000Z</time>
      </trkpt>
      <trkpt lat="42.03344531357288360595703125" lon="2.89769844152033329010009765625">
        <ele>51.59999847412109375</ele>
        <time>2022-07-29T10:05:45.000Z</time>
      </trkpt>
      <trkpt lat="42.03341874293982982635498046875" lon="2.8975127823650836944580078125">
        <ele>51.59999847412109375</ele>
        <time>2022-07-29T10:05:47.000Z</time>
      </trkpt>
      <trkpt lat="42.03343349508941173553466796875" lon="2.897319495677947998046875">
        <ele>51.59999847412109375</ele>
        <time>2022-07-29T10:05:49.000Z</time>
      </trkpt>
      <trkpt lat="42.03346417285501956939697265625" lon="2.896929569542407989501953125">
        <ele>52.40000152587890625</ele>
        <time>2022-07-29T10:05:53.000Z</time>
      </trkpt>
      <trkpt lat="42.03343047760426998138427734375" lon="2.8968402184545993804931640625">
        <ele>52.40000152587890625</ele>
        <time>2022-07-29T10:05:54.000Z</time>
      </trkpt>
      <trkpt lat="42.03331966884434223175048828125" lon="2.89669797755777835845947265625">
        <ele>52.59999847412109375</ele>
        <time>2022-07-29T10:05:56.000Z</time>
      </trkpt>
      <trkpt lat="42.03325915150344371795654296875" lon="2.89663226343691349029541015625">
        <ele>52.799999237060546875</ele>
        <time>2022-07-29T10:05:57.000Z</time>
      </trkpt>
      <trkpt lat="42.03320668078958988189697265625" lon="2.8965582512319087982177734375">
        <ele>52.799999237060546875</ele>
        <time>2022-07-29T10:05:58.000Z</time>
      </trkpt>
      <trkpt lat="42.03314088284969329833984375" lon="2.8963788785040378570556640625">
        <ele>52.799999237060546875</ele>
        <time>2022-07-29T10:06:00.000Z</time>
      </trkpt>
      <trkpt lat="42.03295840881764888763427734375" lon="2.8956292010843753814697265625">
        <ele>53.200000762939453125</ele>
        <time>2022-07-29T10:06:08.000Z</time>
      </trkpt>
      <trkpt lat="42.03291716985404491424560546875" lon="2.8954404406249523162841796875">
        <ele>53.40000152587890625</ele>
        <time>2022-07-29T10:06:10.000Z</time>
      </trkpt>
      <trkpt lat="42.0328969694674015045166015625" lon="2.89534513838589191436767578125">
        <ele>53.59999847412109375</ele>
        <time>2022-07-29T10:06:11.000Z</time>
      </trkpt>
      <trkpt lat="42.03273586928844451904296875" lon="2.89468598552048206329345703125">
        <ele>54.200000762939453125</ele>
        <time>2022-07-29T10:06:18.000Z</time>
      </trkpt>
      <trkpt lat="42.0326233841478824615478515625" lon="2.894226573407649993896484375">
        <ele>54.59999847412109375</ele>
        <time>2022-07-29T10:06:23.000Z</time>
      </trkpt>
      <trkpt lat="42.03257921151816844940185546875" lon="2.89403739385306835174560546875">
        <ele>54.799999237060546875</ele>
        <time>2022-07-29T10:06:25.000Z</time>
      </trkpt>
      <trkpt lat="42.03239413909614086151123046875" lon="2.89325720630586147308349609375">
        <ele>55.200000762939453125</ele>
        <time>2022-07-29T10:06:33.000Z</time>
      </trkpt>
      <trkpt lat="42.0323491282761096954345703125" lon="2.893056459724903106689453125">
        <ele>55.200000762939453125</ele>
        <time>2022-07-29T10:06:35.000Z</time>
      </trkpt>
      <trkpt lat="42.03227452933788299560546875" lon="2.89275948889553546905517578125">
        <ele>55.200000762939453125</ele>
        <time>2022-07-29T10:06:38.000Z</time>
      </trkpt>
      <trkpt lat="42.0322488807141780853271484375" lon="2.89266116917133331298828125">
        <ele>55.40000152587890625</ele>
        <time>2022-07-29T10:06:39.000Z</time>
      </trkpt>
      <trkpt lat="42.0321315340697765350341796875" lon="2.892165295779705047607421875">
        <ele>55.799999237060546875</ele>
        <time>2022-07-29T10:06:44.000Z</time>
      </trkpt>
      <trkpt lat="42.0319665782153606414794921875" lon="2.891457863152027130126953125">
        <ele>55.799999237060546875</ele>
        <time>2022-07-29T10:06:51.000Z</time>
      </trkpt>
      <trkpt lat="42.03186976723372936248779296875" lon="2.89105595089495182037353515625">
        <ele>55.799999237060546875</ele>
        <time>2022-07-29T10:06:55.000Z</time>
      </trkpt>
      <trkpt lat="42.03171797096729278564453125" lon="2.8904444910585880279541015625">
        <ele>55.40000152587890625</ele>
        <time>2022-07-29T10:07:01.000Z</time>
      </trkpt>
      <trkpt lat="42.0315384306013584136962890625" lon="2.88973881863057613372802734375">
        <ele>55.40000152587890625</ele>
        <time>2022-07-29T10:07:08.000Z</time>
      </trkpt>
      <trkpt lat="42.03149802982807159423828125" lon="2.88953865878283977508544921875">
        <ele>55.59999847412109375</ele>
        <time>2022-07-29T10:07:10.000Z</time>
      </trkpt>
      <trkpt lat="42.03135989606380462646484375" lon="2.88897405378520488739013671875">
        <ele>55.799999237060546875</ele>
        <time>2022-07-29T10:07:16.000Z</time>
      </trkpt>
      <trkpt lat="42.03116736374795436859130859375" lon="2.88819168694317340850830078125">
        <ele>56.200000762939453125</ele>
        <time>2022-07-29T10:07:24.000Z</time>
      </trkpt>
      <trkpt lat="42.0311434753239154815673828125" lon="2.888091690838336944580078125">
        <ele>56.200000762939453125</ele>
        <time>2022-07-29T10:07:25.000Z</time>
      </trkpt>
      <trkpt lat="42.03097558580338954925537109375" lon="2.88739456795156002044677734375">
        <ele>56.200000762939453125</ele>
        <time>2022-07-29T10:07:32.000Z</time>
      </trkpt>
      <trkpt lat="42.030925713479518890380859375" lon="2.88720966316759586334228515625">
        <ele>56.200000762939453125</ele>
        <time>2022-07-29T10:07:34.000Z</time>
      </trkpt>
      <trkpt lat="42.03086695633828639984130859375" lon="2.886941693723201751708984375">
        <ele>56.200000762939453125</ele>
        <time>2022-07-29T10:07:37.000Z</time>
      </trkpt>
      <trkpt lat="42.03085924498736858367919921875" lon="2.88675754331052303314208984375">
        <ele>56.200000762939453125</ele>
        <time>2022-07-29T10:07:39.000Z</time>
      </trkpt>
      <trkpt lat="42.03084918670356273651123046875" lon="2.8866671025753021240234375">
        <ele>56.200000762939453125</ele>
        <time>2022-07-29T10:07:40.000Z</time>
      </trkpt>
      <trkpt lat="42.0307954587042331695556640625" lon="2.8865016438066959381103515625">
        <ele>56.200000762939453125</ele>
        <time>2022-07-29T10:07:42.000Z</time>
      </trkpt>
      <trkpt lat="42.03069278039038181304931640625" lon="2.88625060580670833587646484375">
        <ele>56.200000762939453125</ele>
        <time>2022-07-29T10:07:45.000Z</time>
      </trkpt>
      <trkpt lat="42.03064299188554286956787109375" lon="2.88606318645179271697998046875">
        <ele>56.200000762939453125</ele>
        <time>2022-07-29T10:07:47.000Z</time>
      </trkpt>
      <trkpt lat="42.03045188449323177337646484375" lon="2.885304205119609832763671875">
        <ele>56.200000762939453125</ele>
        <time>2022-07-29T10:07:55.000Z</time>
      </trkpt>
      <trkpt lat="42.030402012169361114501953125" lon="2.88510848768055438995361328125">
        <ele>56.200000762939453125</ele>
        <time>2022-07-29T10:07:57.000Z</time>
      </trkpt>
      <trkpt lat="42.03024418093264102935791015625" lon="2.88441471755504608154296875">
        <ele>55.799999237060546875</ele>
        <time>2022-07-29T10:08:04.000Z</time>
      </trkpt>
      <trkpt lat="42.030222304165363311767578125" lon="2.8843203373253345489501953125">
        <ele>55.799999237060546875</ele>
        <time>2022-07-29T10:08:05.000Z</time>
      </trkpt>
      <trkpt lat="42.0300809852778911590576171875" lon="2.88369990885257720947265625">
        <ele>56</ele>
        <time>2022-07-29T10:08:12.000Z</time>
      </trkpt>
      <trkpt lat="42.02994578517973423004150390625" lon="2.883184589445590972900390625">
        <ele>56</ele>
        <time>2022-07-29T10:08:19.000Z</time>
      </trkpt>
      <trkpt lat="42.02992181293666362762451171875" lon="2.88305911235511302947998046875">
        <ele>56.200000762939453125</ele>
        <time>2022-07-29T10:08:23.000Z</time>
      </trkpt>
      <trkpt lat="42.02988560311496257781982421875" lon="2.88284026086330413818359375">
        <ele>56.799999237060546875</ele>
        <time>2022-07-29T10:08:29.000Z</time>
      </trkpt>
      <trkpt lat="42.0298647321760654449462890625" lon="2.88271746598184108734130859375">
        <ele>57</ele>
        <time>2022-07-29T10:08:32.000Z</time>
      </trkpt>
      <trkpt lat="42.029861547052860260009765625" lon="2.88265845738351345062255859375">
        <ele>57</ele>
        <time>2022-07-29T10:08:33.000Z</time>
      </trkpt>
      <trkpt lat="42.02981770969927310943603515625" lon="2.88243013434112071990966796875">
        <ele>57</ele>
        <time>2022-07-29T10:08:36.000Z</time>
      </trkpt>
      <trkpt lat="42.02980044297873973846435546875" lon="2.8823465667665004730224609375">
        <ele>57</ele>
        <time>2022-07-29T10:08:37.000Z</time>
      </trkpt>
      <trkpt lat="42.02964940108358860015869140625" lon="2.88170509971678256988525390625">
        <ele>56.40000152587890625</ele>
        <time>2022-07-29T10:08:44.000Z</time>
      </trkpt>
      <trkpt lat="42.02947405166923999786376953125" lon="2.8810088150203227996826171875">
        <ele>55.799999237060546875</ele>
        <time>2022-07-29T10:08:51.000Z</time>
      </trkpt>
      <trkpt lat="42.0293997041881084442138671875" lon="2.880700528621673583984375">
        <ele>55.59999847412109375</ele>
        <time>2022-07-29T10:08:54.000Z</time>
      </trkpt>
      <trkpt lat="42.02933792956173419952392578125" lon="2.8804874606430530548095703125">
        <ele>55.59999847412109375</ele>
        <time>2022-07-29T10:08:56.000Z</time>
      </trkpt>
      <trkpt lat="42.029279172420501708984375" lon="2.88027732633054256439208984375">
        <ele>55.59999847412109375</ele>
        <time>2022-07-29T10:08:58.000Z</time>
      </trkpt>
      <trkpt lat="42.02922896482050418853759765625" lon="2.8800744004547595977783203125">
        <ele>55.59999847412109375</ele>
        <time>2022-07-29T10:09:00.000Z</time>
      </trkpt>
      <trkpt lat="42.029151432216167449951171875" lon="2.87977692671120166778564453125">
        <ele>55.799999237060546875</ele>
        <time>2022-07-29T10:09:03.000Z</time>
      </trkpt>
      <trkpt lat="42.02898974530398845672607421875" lon="2.8790585137903690338134765625">
        <ele>55.799999237060546875</ele>
        <time>2022-07-29T10:09:10.000Z</time>
      </trkpt>
      <trkpt lat="42.02883350662887096405029296875" lon="2.87841503508388996124267578125">
        <ele>56.40000152587890625</ele>
        <time>2022-07-29T10:09:17.000Z</time>
      </trkpt>
      <trkpt lat="42.0287345163524150848388671875" lon="2.87796928547322750091552734375">
        <ele>57</ele>
        <time>2022-07-29T10:09:22.000Z</time>
      </trkpt>
      <trkpt lat="42.0286889187991619110107421875" lon="2.87779008038341999053955078125">
        <ele>57.200000762939453125</ele>
        <time>2022-07-29T10:09:24.000Z</time>
      </trkpt>
      <trkpt lat="42.028501331806182861328125" lon="2.877079211175441741943359375">
        <ele>58.200000762939453125</ele>
        <time>2022-07-29T10:09:32.000Z</time>
      </trkpt>
      <trkpt lat="42.0283605158329010009765625" lon="2.87636046297848224639892578125">
        <ele>58.799999237060546875</ele>
        <time>2022-07-29T10:09:40.000Z</time>
      </trkpt>
      <trkpt lat="42.02833679504692554473876953125" lon="2.87626910023391246795654296875">
        <ele>58.799999237060546875</ele>
        <time>2022-07-29T10:09:41.000Z</time>
      </trkpt>
      <trkpt lat="42.02815725468099117279052734375" lon="2.87549410946667194366455078125">
        <ele>59.40000152587890625</ele>
        <time>2022-07-29T10:09:50.000Z</time>
      </trkpt>
      <trkpt lat="42.02804326079785823822021484375" lon="2.874927408993244171142578125">
        <ele>60.200000762939453125</ele>
        <time>2022-07-29T10:09:57.000Z</time>
      </trkpt>
      <trkpt lat="42.02799967490136623382568359375" lon="2.87476555444300174713134765625">
        <ele>60.59999847412109375</ele>
        <time>2022-07-29T10:09:59.000Z</time>
      </trkpt>
      <trkpt lat="42.0279523171484470367431640625" lon="2.87451267242431640625">
        <ele>61</ele>
        <time>2022-07-29T10:10:02.000Z</time>
      </trkpt>
      <trkpt lat="42.02783681452274322509765625" lon="2.874073125422000885009765625">
        <ele>61</ele>
        <time>2022-07-29T10:10:07.000Z</time>
      </trkpt>
      <trkpt lat="42.02781409956514835357666015625" lon="2.87398871965706348419189453125">
        <ele>61.200000762939453125</ele>
        <time>2022-07-29T10:10:08.000Z</time>
      </trkpt>
      <trkpt lat="42.0276431925594806671142578125" lon="2.87327022291719913482666015625">
        <ele>61</ele>
        <time>2022-07-29T10:10:16.000Z</time>
      </trkpt>
      <trkpt lat="42.02745501883327960968017578125" lon="2.87252272479236125946044921875">
        <ele>60.799999237060546875</ele>
        <time>2022-07-29T10:10:24.000Z</time>
      </trkpt>
      <trkpt lat="42.0273853652179241180419921875" lon="2.8722312860190868377685546875">
        <ele>60.799999237060546875</ele>
        <time>2022-07-29T10:10:27.000Z</time>
      </trkpt>
      <trkpt lat="42.027345634996891021728515625" lon="2.87194236181676387786865234375">
        <ele>61.40000152587890625</ele>
        <time>2022-07-29T10:10:30.000Z</time>
      </trkpt>
      <trkpt lat="42.02733532525599002838134765625" lon="2.8718433715403079986572265625">
        <ele>61.40000152587890625</ele>
        <time>2022-07-29T10:10:31.000Z</time>
      </trkpt>
      <trkpt lat="42.027331553399562835693359375" lon="2.87120349705219268798828125">
        <ele>62</ele>
        <time>2022-07-29T10:10:38.000Z</time>
      </trkpt>
      <trkpt lat="42.02732761390507221221923828125" lon="2.87043211050331592559814453125">
        <ele>62</ele>
        <time>2022-07-29T10:10:46.000Z</time>
      </trkpt>
      <trkpt lat="42.0273236744105815887451171875" lon="2.87032532505691051483154296875">
        <ele>62</ele>
        <time>2022-07-29T10:10:47.000Z</time>
      </trkpt>
      <trkpt lat="42.02729643322527408599853515625" lon="2.86954195238649845123291015625">
        <ele>61</ele>
        <time>2022-07-29T10:10:54.000Z</time>
      </trkpt>
      <trkpt lat="42.02729257754981517791748046875" lon="2.869424857199192047119140625">
        <ele>60.59999847412109375</ele>
        <time>2022-07-29T10:10:55.000Z</time>
      </trkpt>
      <trkpt lat="42.02728905715048313140869140625" lon="2.86930725909769535064697265625">
        <ele>60.40000152587890625</ele>
        <time>2022-07-29T10:10:56.000Z</time>
      </trkpt>
      <trkpt lat="42.027295343577861785888671875" lon="2.8689645230770111083984375">
        <ele>60</ele>
        <time>2022-07-29T10:10:59.000Z</time>
      </trkpt>
      <trkpt lat="42.0273156277835369110107421875" lon="2.86886771209537982940673828125">
        <ele>59.799999237060546875</ele>
        <time>2022-07-29T10:11:00.000Z</time>
      </trkpt>
      <trkpt lat="42.0274619758129119873046875" lon="2.86864307709038257598876953125">
        <ele>59.59999847412109375</ele>
        <time>2022-07-29T10:11:03.000Z</time>
      </trkpt>
      <trkpt lat="42.0275120995938777923583984375" lon="2.86856261081993579864501953125">
        <ele>59.200000762939453125</ele>
        <time>2022-07-29T10:11:04.000Z</time>
      </trkpt>
      <trkpt lat="42.02754420228302478790283203125" lon="2.868351973593235015869140625">
        <ele>58.799999237060546875</ele>
        <time>2022-07-29T10:11:06.000Z</time>
      </trkpt>
      <trkpt lat="42.027471363544464111328125" lon="2.86816346459090709686279296875">
        <ele>58.59999847412109375</ele>
        <time>2022-07-29T10:11:08.000Z</time>
      </trkpt>
      <trkpt lat="42.02732090838253498077392578125" lon="2.86804393865168094635009765625">
        <ele>58.200000762939453125</ele>
        <time>2022-07-29T10:11:10.000Z</time>
      </trkpt>
      <trkpt lat="42.02724178321659564971923828125" lon="2.8679903782904148101806640625">
        <ele>58.200000762939453125</ele>
        <time>2022-07-29T10:11:11.000Z</time>
      </trkpt>
      <trkpt lat="42.027164585888385772705078125" lon="2.8679273463785648345947265625">
        <ele>58</ele>
        <time>2022-07-29T10:11:12.000Z</time>
      </trkpt>
      <trkpt lat="42.0270269550383090972900390625" lon="2.86776683293282985687255859375">
        <ele>57.40000152587890625</ele>
        <time>2022-07-29T10:11:14.000Z</time>
      </trkpt>
      <trkpt lat="42.02696015127003192901611328125" lon="2.8676728717982769012451171875">
        <ele>57.200000762939453125</ele>
        <time>2022-07-29T10:11:15.000Z</time>
      </trkpt>
      <trkpt lat="42.02682050876319408416748046875" lon="2.86748050712049007415771484375">
        <ele>55.799999237060546875</ele>
        <time>2022-07-29T10:11:17.000Z</time>
      </trkpt>
      <trkpt lat="42.02667667530477046966552734375" lon="2.86729476414620876312255859375">
        <ele>54.799999237060546875</ele>
        <time>2022-07-29T10:11:19.000Z</time>
      </trkpt>
      <trkpt lat="42.0266071893274784088134765625" lon="2.86720558069646358489990234375">
        <ele>54.40000152587890625</ele>
        <time>2022-07-29T10:11:20.000Z</time>
      </trkpt>
      <trkpt lat="42.02646243385970592498779296875" lon="2.8670288063585758209228515625">
        <ele>53.59999847412109375</ele>
        <time>2022-07-29T10:11:22.000Z</time>
      </trkpt>
      <trkpt lat="42.02625841833651065826416015625" lon="2.86677827127277851104736328125">
        <ele>52.40000152587890625</ele>
        <time>2022-07-29T10:11:25.000Z</time>
      </trkpt>
      <trkpt lat="42.02603898011147975921630859375" lon="2.86644182167947292327880859375">
        <ele>52.200000762939453125</ele>
        <time>2022-07-29T10:11:29.000Z</time>
      </trkpt>
      <trkpt lat="42.0259319432079792022705078125" lon="2.86616907455027103424072265625">
        <ele>52.200000762939453125</ele>
        <time>2022-07-29T10:11:32.000Z</time>
      </trkpt>
      <trkpt lat="42.0259071327745914459228515625" lon="2.86607536487281322479248046875">
        <ele>52.200000762939453125</ele>
        <time>2022-07-29T10:11:33.000Z</time>
      </trkpt>
      <trkpt lat="42.02580110169947147369384765625" lon="2.8656521625816822052001953125">
        <ele>54</ele>
        <time>2022-07-29T10:11:38.000Z</time>
      </trkpt>
      <trkpt lat="42.0257793925702571868896484375" lon="2.86557429470121860504150390625">
        <ele>54.40000152587890625</ele>
        <time>2022-07-29T10:11:39.000Z</time>
      </trkpt>
      <trkpt lat="42.02574460767209529876708984375" lon="2.86542207933962345123291015625">
        <ele>55</ele>
        <time>2022-07-29T10:11:41.000Z</time>
      </trkpt>
      <trkpt lat="42.02567453496158123016357421875" lon="2.86511622369289398193359375">
        <ele>56.40000152587890625</ele>
        <time>2022-07-29T10:11:45.000Z</time>
      </trkpt>
      <trkpt lat="42.02565693296492099761962890625" lon="2.86504648625850677490234375">
        <ele>57.200000762939453125</ele>
        <time>2022-07-29T10:11:46.000Z</time>
      </trkpt>
      <trkpt lat="42.02563564293086528778076171875" lon="2.86498186178505420684814453125">
        <ele>57.40000152587890625</ele>
        <time>2022-07-29T10:11:47.000Z</time>
      </trkpt>
      <trkpt lat="42.02556674368679523468017578125" lon="2.86471632309257984161376953125">
        <ele>58.59999847412109375</ele>
        <time>2022-07-29T10:11:51.000Z</time>
      </trkpt>
      <trkpt lat="42.02553438954055309295654296875" lon="2.86456880159676074981689453125">
        <ele>58.799999237060546875</ele>
        <time>2022-07-29T10:11:53.000Z</time>
      </trkpt>
      <trkpt lat="42.02539005316793918609619140625" lon="2.8640193678438663482666015625">
        <ele>59.200000762939453125</ele>
        <time>2022-07-29T10:12:00.000Z</time>
      </trkpt>
      <trkpt lat="42.0252644084393978118896484375" lon="2.86360957659780979156494140625">
        <ele>59</ele>
        <time>2022-07-29T10:12:05.000Z</time>
      </trkpt>
      <trkpt lat="42.0250883884727954864501953125" lon="2.862944304943084716796875">
        <ele>58.40000152587890625</ele>
        <time>2022-07-29T10:12:12.000Z</time>
      </trkpt>
      <trkpt lat="42.02489443123340606689453125" lon="2.8622072003781795501708984375">
        <ele>57.59999847412109375</ele>
        <time>2022-07-29T10:12:19.000Z</time>
      </trkpt>
      <trkpt lat="42.0248637534677982330322265625" lon="2.862097062170505523681640625">
        <ele>57.59999847412109375</ele>
        <time>2022-07-29T10:12:20.000Z</time>
      </trkpt>
      <trkpt lat="42.02476711012423038482666015625" lon="2.86177075468003749847412109375">
        <ele>57.59999847412109375</ele>
        <time>2022-07-29T10:12:23.000Z</time>
      </trkpt>
      <trkpt lat="42.02460416592657566070556640625" lon="2.86124034784734249114990234375">
        <ele>57.40000152587890625</ele>
        <time>2022-07-29T10:12:28.000Z</time>
      </trkpt>
      <trkpt lat="42.0243506133556365966796875" lon="2.860471308231353759765625">
        <ele>56.200000762939453125</ele>
        <time>2022-07-29T10:12:35.000Z</time>
      </trkpt>
      <trkpt lat="42.0243112184107303619384765625" lon="2.8603591583669185638427734375">
        <ele>56.200000762939453125</ele>
        <time>2022-07-29T10:12:36.000Z</time>
      </trkpt>
      <trkpt lat="42.0240651257336139678955078125" lon="2.85966999828815460205078125">
        <ele>55.200000762939453125</ele>
        <time>2022-07-29T10:12:42.000Z</time>
      </trkpt>
      <trkpt lat="42.023935876786708831787109375" lon="2.859320975840091705322265625">
        <ele>54.799999237060546875</ele>
        <time>2022-07-29T10:12:45.000Z</time>
      </trkpt>
      <trkpt lat="42.02367729507386684417724609375" lon="2.8586150519549846649169921875">
        <ele>54.200000762939453125</ele>
        <time>2022-07-29T10:12:51.000Z</time>
      </trkpt>
      <trkpt lat="42.02363186515867710113525390625" lon="2.85849787294864654541015625">
        <ele>54.200000762939453125</ele>
        <time>2022-07-29T10:12:52.000Z</time>
      </trkpt>
      <trkpt lat="42.02331737615168094635009765625" lon="2.85782396793365478515625">
        <ele>53.799999237060546875</ele>
        <time>2022-07-29T10:12:58.000Z</time>
      </trkpt>
      <trkpt lat="42.022948153316974639892578125" lon="2.85723396576941013336181640625">
        <ele>53.40000152587890625</ele>
        <time>2022-07-29T10:13:04.000Z</time>
      </trkpt>
      <trkpt lat="42.02283491380512714385986328125" lon="2.857056520879268646240234375">
        <ele>53.40000152587890625</ele>
        <time>2022-07-29T10:13:06.000Z</time>
      </trkpt>
      <trkpt lat="42.0224819518625736236572265625" lon="2.8564391098916530609130859375">
        <ele>53.40000152587890625</ele>
        <time>2022-07-29T10:13:13.000Z</time>
      </trkpt>
      <trkpt lat="42.02243694104254245758056640625" lon="2.85634540021419525146484375">
        <ele>53.40000152587890625</ele>
        <time>2022-07-29T10:13:14.000Z</time>
      </trkpt>
      <trkpt lat="42.022184394299983978271484375" lon="2.8556468524038791656494140625">
        <ele>53.40000152587890625</ele>
        <time>2022-07-29T10:13:21.000Z</time>
      </trkpt>
      <trkpt lat="42.0220286585390567779541015625" lon="2.85489910282194614410400390625">
        <ele>53.40000152587890625</ele>
        <time>2022-07-29T10:13:28.000Z</time>
      </trkpt>
      <trkpt lat="42.02195330522954463958740234375" lon="2.8541159816086292266845703125">
        <ele>53.59999847412109375</ele>
        <time>2022-07-29T10:13:35.000Z</time>
      </trkpt>
      <trkpt lat="42.0219468511641025543212890625" lon="2.8540016524493694305419921875">
        <ele>53.799999237060546875</ele>
        <time>2022-07-29T10:13:36.000Z</time>
      </trkpt>
      <trkpt lat="42.0219243876636028289794921875" lon="2.8532207943499088287353515625">
        <ele>54.40000152587890625</ele>
        <time>2022-07-29T10:13:43.000Z</time>
      </trkpt>
      <trkpt lat="42.02193084172904491424560546875" lon="2.853009067475795745849609375">
        <ele>54.59999847412109375</ele>
        <time>2022-07-29T10:13:45.000Z</time>
      </trkpt>
      <trkpt lat="42.02198825776576995849609375" lon="2.85230607725679874420166015625">
        <ele>54.799999237060546875</ele>
        <time>2022-07-29T10:13:52.000Z</time>
      </trkpt>
      <trkpt lat="42.022022120654582977294921875" lon="2.852118574082851409912109375">
        <ele>54.799999237060546875</ele>
        <time>2022-07-29T10:13:54.000Z</time>
      </trkpt>
      <trkpt lat="42.022136785089969635009765625" lon="2.851657569408416748046875">
        <ele>55.40000152587890625</ele>
        <time>2022-07-29T10:13:59.000Z</time>
      </trkpt>
      <trkpt lat="42.0222120545804500579833984375" lon="2.85148565657436847686767578125">
        <ele>55.59999847412109375</ele>
        <time>2022-07-29T10:14:01.000Z</time>
      </trkpt>
      <trkpt lat="42.0223039202392101287841796875" lon="2.85131801851093769073486328125">
        <ele>56</ele>
        <time>2022-07-29T10:14:03.000Z</time>
      </trkpt>
      <trkpt lat="42.0223481766879558563232421875" lon="2.85123051144182682037353515625">
        <ele>56</ele>
        <time>2022-07-29T10:14:04.000Z</time>
      </trkpt>
      <trkpt lat="42.02254439704120159149169921875" lon="2.85089221782982349395751953125">
        <ele>56.799999237060546875</ele>
        <time>2022-07-29T10:14:08.000Z</time>
      </trkpt>
      <trkpt lat="42.02265202067792415618896484375" lon="2.8507340513169765472412109375">
        <ele>57</ele>
        <time>2022-07-29T10:14:10.000Z</time>
      </trkpt>
      <trkpt lat="42.02297640033066272735595703125" lon="2.85029701888561248779296875">
        <ele>57</ele>
        <time>2022-07-29T10:14:16.000Z</time>
      </trkpt>
      <trkpt lat="42.0232664979994297027587890625" lon="2.8499384410679340362548828125">
        <ele>56.799999237060546875</ele>
        <time>2022-07-29T10:14:21.000Z</time>
      </trkpt>
      <trkpt lat="42.023632787168025970458984375" lon="2.8495109640061855316162109375">
        <ele>56.799999237060546875</ele>
        <time>2022-07-29T10:14:27.000Z</time>
      </trkpt>
      <trkpt lat="42.0239860005676746368408203125" lon="2.849101088941097259521484375">
        <ele>56.59999847412109375</ele>
        <time>2022-07-29T10:14:33.000Z</time>
      </trkpt>
      <trkpt lat="42.0244537107646465301513671875" lon="2.84856305457651615142822265625">
        <ele>56.59999847412109375</ele>
        <time>2022-07-29T10:14:41.000Z</time>
      </trkpt>
      <trkpt lat="42.024514563381671905517578125" lon="2.84849147312343120574951171875">
        <ele>56.799999237060546875</ele>
        <time>2022-07-29T10:14:42.000Z</time>
      </trkpt>
      <trkpt lat="42.02494665049016475677490234375" lon="2.8479998745024204254150390625">
        <ele>57.200000762939453125</ele>
        <time>2022-07-29T10:14:49.000Z</time>
      </trkpt>
      <trkpt lat="42.02512501738965511322021484375" lon="2.84779326058924198150634765625">
        <ele>57.40000152587890625</ele>
        <time>2022-07-29T10:14:52.000Z</time>
      </trkpt>
      <trkpt lat="42.02557705342769622802734375" lon="2.84726746380329132080078125">
        <ele>57.799999237060546875</ele>
        <time>2022-07-29T10:15:00.000Z</time>
      </trkpt>
      <trkpt lat="42.025686018168926239013671875" lon="2.84713075496256351470947265625">
        <ele>57.799999237060546875</ele>
        <time>2022-07-29T10:15:02.000Z</time>
      </trkpt>
      <trkpt lat="42.025738991796970367431640625" lon="2.8470590896904468536376953125">
        <ele>57.799999237060546875</ele>
        <time>2022-07-29T10:15:03.000Z</time>
      </trkpt>
      <trkpt lat="42.025973685085773468017578125" lon="2.84664728678762912750244140625">
        <ele>58</ele>
        <time>2022-07-29T10:15:08.000Z</time>
      </trkpt>
      <trkpt lat="42.02618591487407684326171875" lon="2.84605518914759159088134765625">
        <ele>58</ele>
        <time>2022-07-29T10:15:14.000Z</time>
      </trkpt>
      <trkpt lat="42.0262930355966091156005859375" lon="2.8455231897532939910888671875">
        <ele>58.40000152587890625</ele>
        <time>2022-07-29T10:15:19.000Z</time>
      </trkpt>
      <trkpt lat="42.026349864900112152099609375" lon="2.844791114330291748046875">
        <ele>58.59999847412109375</ele>
        <time>2022-07-29T10:15:26.000Z</time>
      </trkpt>
      <trkpt lat="42.02634894289076328277587890625" lon="2.84469111822545528411865234375">
        <ele>58.59999847412109375</ele>
        <time>2022-07-29T10:15:27.000Z</time>
      </trkpt>
      <trkpt lat="42.0263362862169742584228515625" lon="2.843937166035175323486328125">
        <ele>59.40000152587890625</ele>
        <time>2022-07-29T10:15:35.000Z</time>
      </trkpt>
      <trkpt lat="42.0263312570750713348388671875" lon="2.84375921823084354400634765625">
        <ele>60.200000762939453125</ele>
        <time>2022-07-29T10:15:37.000Z</time>
      </trkpt>
      <trkpt lat="42.02632463537156581878662109375" lon="2.84340466372668743133544921875">
        <ele>61.200000762939453125</ele>
        <time>2022-07-29T10:15:41.000Z</time>
      </trkpt>
      <trkpt lat="42.0263300836086273193359375" lon="2.842897810041904449462890625">
        <ele>62</ele>
        <time>2022-07-29T10:15:47.000Z</time>
      </trkpt>
      <trkpt lat="42.02634424902498722076416015625" lon="2.84257183782756328582763671875">
        <ele>62.200000762939453125</ele>
        <time>2022-07-29T10:15:51.000Z</time>
      </trkpt>
      <trkpt lat="42.02638833783566951751708984375" lon="2.84210018813610076904296875">
        <ele>63</ele>
        <time>2022-07-29T10:15:57.000Z</time>
      </trkpt>
      <trkpt lat="42.026399485766887664794921875" lon="2.8420249186456203460693359375">
        <ele>63.40000152587890625</ele>
        <time>2022-07-29T10:15:58.000Z</time>
      </trkpt>
      <trkpt lat="42.02647299505770206451416015625" lon="2.84148395061492919921875">
        <ele>64.40000152587890625</ele>
        <time>2022-07-29T10:16:05.000Z</time>
      </trkpt>
      <trkpt lat="42.02651054598391056060791015625" lon="2.84125395119190216064453125">
        <ele>64.59999847412109375</ele>
        <time>2022-07-29T10:16:08.000Z</time>
      </trkpt>
      <trkpt lat="42.0265964604914188385009765625" lon="2.84079730510711669921875">
        <ele>65.40000152587890625</ele>
        <time>2022-07-29T10:16:14.000Z</time>
      </trkpt>
      <trkpt lat="42.02664532698690891265869140625" lon="2.84056998789310455322265625">
        <ele>65.59999847412109375</ele>
        <time>2022-07-29T10:16:17.000Z</time>
      </trkpt>
      <trkpt lat="42.0266819559037685394287109375" lon="2.84041768871247768402099609375">
        <ele>65.8000030517578125</ele>
        <time>2022-07-29T10:16:19.000Z</time>
      </trkpt>
      <trkpt lat="42.02685378491878509521484375" lon="2.8398312069475650787353515625">
        <ele>66.40000152587890625</ele>
        <time>2022-07-29T10:16:27.000Z</time>
      </trkpt>
      <trkpt lat="42.0268801040947437286376953125" lon="2.8397537581622600555419921875">
        <ele>66.59999847412109375</ele>
        <time>2022-07-29T10:16:28.000Z</time>
      </trkpt>
      <trkpt lat="42.02708956785500049591064453125" lon="2.839180938899517059326171875">
        <ele>67.59999847412109375</ele>
        <time>2022-07-29T10:16:35.000Z</time>
      </trkpt>
      <trkpt lat="42.0273977704346179962158203125" lon="2.83847878687083721160888671875">
        <ele>66.8000030517578125</ele>
        <time>2022-07-29T10:16:43.000Z</time>
      </trkpt>
      <trkpt lat="42.0277152769267559051513671875" lon="2.83785399980843067169189453125">
        <ele>65.8000030517578125</ele>
        <time>2022-07-29T10:16:50.000Z</time>
      </trkpt>
      <trkpt lat="42.02776447869837284088134765625" lon="2.8377628885209560394287109375">
        <ele>65.59999847412109375</ele>
        <time>2022-07-29T10:16:51.000Z</time>
      </trkpt>
      <trkpt lat="42.0278148539364337921142578125" lon="2.83767278306186199188232421875">
        <ele>65.59999847412109375</ele>
        <time>2022-07-29T10:16:52.000Z</time>
      </trkpt>
      <trkpt lat="42.0281876809895038604736328125" lon="2.8370329923927783966064453125">
        <ele>64.1999969482421875</ele>
        <time>2022-07-29T10:16:59.000Z</time>
      </trkpt>
      <trkpt lat="42.02829941175878047943115234375" lon="2.83684582449495792388916015625">
        <ele>63</ele>
        <time>2022-07-29T10:17:01.000Z</time>
      </trkpt>
      <trkpt lat="42.02868229709565639495849609375" lon="2.83621198497712612152099609375">
        <ele>62.40000152587890625</ele>
        <time>2022-07-29T10:17:08.000Z</time>
      </trkpt>
      <trkpt lat="42.02903534285724163055419921875" lon="2.83563061617314815521240234375">
        <ele>62.200000762939453125</ele>
        <time>2022-07-29T10:17:15.000Z</time>
      </trkpt>
      <trkpt lat="42.02908228151500225067138671875" lon="2.83555232919752597808837890625">
        <ele>62.200000762939453125</ele>
        <time>2022-07-29T10:17:16.000Z</time>
      </trkpt>
      <trkpt lat="42.0293789170682430267333984375" lon="2.83503868617117404937744140625">
        <ele>63.200000762939453125</ele>
        <time>2022-07-29T10:17:23.000Z</time>
      </trkpt>
      <trkpt lat="42.02949039638042449951171875" lon="2.83484003506600856781005859375">
        <ele>64.40000152587890625</ele>
        <time>2022-07-29T10:17:26.000Z</time>
      </trkpt>
      <trkpt lat="42.02962241135537624359130859375" lon="2.83458891324698925018310546875">
        <ele>65.1999969482421875</ele>
        <time>2022-07-29T10:17:30.000Z</time>
      </trkpt>
      <trkpt lat="42.02968309633433818817138671875" lon="2.83447123132646083831787109375">
        <ele>65.40000152587890625</ele>
        <time>2022-07-29T10:17:32.000Z</time>
      </trkpt>
      <trkpt lat="42.02976875938475131988525390625" lon="2.83430174924433231353759765625">
        <ele>66.8000030517578125</ele>
        <time>2022-07-29T10:17:35.000Z</time>
      </trkpt>
      <trkpt lat="42.0298768021166324615478515625" lon="2.8340788744390010833740234375">
        <ele>67.8000030517578125</ele>
        <time>2022-07-29T10:17:39.000Z</time>
      </trkpt>
      <trkpt lat="42.029983587563037872314453125" lon="2.8338522277772426605224609375">
        <ele>69.1999969482421875</ele>
        <time>2022-07-29T10:17:43.000Z</time>
      </trkpt>
      <trkpt lat="42.03007838688790798187255859375" lon="2.83362247981131076812744140625">
        <ele>70.1999969482421875</ele>
        <time>2022-07-29T10:17:47.000Z</time>
      </trkpt>
      <trkpt lat="42.03010185621678829193115234375" lon="2.8335665725171566009521484375">
        <ele>70.40000152587890625</ele>
        <time>2022-07-29T10:17:48.000Z</time>
      </trkpt>
      <trkpt lat="42.0301912911236286163330078125" lon="2.8333335556089878082275390625">
        <ele>71.59999847412109375</ele>
        <time>2022-07-29T10:17:52.000Z</time>
      </trkpt>
      <trkpt lat="42.030251137912273406982421875" lon="2.8331504948437213897705078125">
        <ele>72.8000030517578125</ele>
        <time>2022-07-29T10:17:55.000Z</time>
      </trkpt>
      <trkpt lat="42.0302888564765453338623046875" lon="2.83302962779998779296875">
        <ele>73</ele>
        <time>2022-07-29T10:17:57.000Z</time>
      </trkpt>
      <trkpt lat="42.03033369965851306915283203125" lon="2.8329134546220302581787109375">
        <ele>73.8000030517578125</ele>
        <time>2022-07-29T10:17:59.000Z</time>
      </trkpt>
      <trkpt lat="42.0303602702915668487548828125" lon="2.83285922370851039886474609375">
        <ele>74.1999969482421875</ele>
        <time>2022-07-29T10:18:00.000Z</time>
      </trkpt>
      <trkpt lat="42.0304152555763721466064453125" lon="2.8327547013759613037109375">
        <ele>74.8000030517578125</ele>
        <time>2022-07-29T10:18:02.000Z</time>
      </trkpt>
      <trkpt lat="42.0304347015917301177978515625" lon="2.83269845880568027496337890625">
        <ele>75.1999969482421875</ele>
        <time>2022-07-29T10:18:03.000Z</time>
      </trkpt>
      <trkpt lat="42.0304772816598415374755859375" lon="2.83252344466745853424072265625">
        <ele>76.40000152587890625</ele>
        <time>2022-07-29T10:18:06.000Z</time>
      </trkpt>
      <trkpt lat="42.03049446456134319305419921875" lon="2.8324651904404163360595703125">
        <ele>76.59999847412109375</ele>
        <time>2022-07-29T10:18:07.000Z</time>
      </trkpt>
      <trkpt lat="42.03056638129055500030517578125" lon="2.8321614302694797515869140625">
        <ele>77.40000152587890625</ele>
        <time>2022-07-29T10:18:12.000Z</time>
      </trkpt>
      <trkpt lat="42.03062505461275577545166015625" lon="2.8318427503108978271484375">
        <ele>78.40000152587890625</ele>
        <time>2022-07-29T10:18:17.000Z</time>
      </trkpt>
      <trkpt lat="42.03070820309221744537353515625" lon="2.83146296627819538116455078125">
        <ele>79.40000152587890625</ele>
        <time>2022-07-29T10:18:23.000Z</time>
      </trkpt>
      <trkpt lat="42.03072731383144855499267578125" lon="2.83139892853796482086181640625">
        <ele>79.59999847412109375</ele>
        <time>2022-07-29T10:18:24.000Z</time>
      </trkpt>
      <trkpt lat="42.03074642457067966461181640625" lon="2.83132701180875301361083984375">
        <ele>79.8000030517578125</ele>
        <time>2022-07-29T10:18:25.000Z</time>
      </trkpt>
      <trkpt lat="42.030792273581027984619140625" lon="2.83112936653196811676025390625">
        <ele>80.1999969482421875</ele>
        <time>2022-07-29T10:18:28.000Z</time>
      </trkpt>
      <trkpt lat="42.0307904295623302459716796875" lon="2.83100816421210765838623046875">
        <ele>80.1999969482421875</ele>
        <time>2022-07-29T10:18:30.000Z</time>
      </trkpt>
      <trkpt lat="42.03080467879772186279296875" lon="2.83094764687120914459228515625">
        <ele>80.40000152587890625</ele>
        <time>2022-07-29T10:18:31.000Z</time>
      </trkpt>
      <trkpt lat="42.03083158470690250396728515625" lon="2.83080004155635833740234375">
        <ele>80.59999847412109375</ele>
        <time>2022-07-29T10:18:33.000Z</time>
      </trkpt>
      <trkpt lat="42.03086846508085727691650390625" lon="2.8303361870348453521728515625">
        <ele>81</ele>
        <time>2022-07-29T10:18:38.000Z</time>
      </trkpt>
      <trkpt lat="42.03093484975397586822509765625" lon="2.8297015093266963958740234375">
        <ele>80.8000030517578125</ele>
        <time>2022-07-29T10:18:45.000Z</time>
      </trkpt>
      <trkpt lat="42.03104683198034763336181640625" lon="2.829122655093669891357421875">
        <ele>80.59999847412109375</ele>
        <time>2022-07-29T10:18:51.000Z</time>
      </trkpt>
      <trkpt lat="42.0312289707362651824951171875" lon="2.82838798128068447113037109375">
        <ele>79.40000152587890625</ele>
        <time>2022-07-29T10:18:58.000Z</time>
      </trkpt>
      <trkpt lat="42.031257636845111846923828125" lon="2.8282826207578182220458984375">
        <ele>79.40000152587890625</ele>
        <time>2022-07-29T10:18:59.000Z</time>
      </trkpt>
      <trkpt lat="42.0314639993011951446533203125" lon="2.82769538462162017822265625">
        <ele>78.59999847412109375</ele>
        <time>2022-07-29T10:19:05.000Z</time>
      </trkpt>
      <trkpt lat="42.03150213696062564849853515625" lon="2.82759924419224262237548828125">
        <ele>78</ele>
        <time>2022-07-29T10:19:06.000Z</time>
      </trkpt>
      <trkpt lat="42.0317266881465911865234375" lon="2.82711460255086421966552734375">
        <ele>77.1999969482421875</ele>
        <time>2022-07-29T10:19:11.000Z</time>
      </trkpt>
      <trkpt lat="42.03192315995693206787109375" lon="2.82682140357792377471923828125">
        <ele>77</ele>
        <time>2022-07-29T10:19:14.000Z</time>
      </trkpt>
      <trkpt lat="42.0320376567542552947998046875" lon="2.82661856152117252349853515625">
        <ele>77</ele>
        <time>2022-07-29T10:19:16.000Z</time>
      </trkpt>
      <trkpt lat="42.0323742739856243133544921875" lon="2.8261107020080089569091796875">
        <ele>77.8000030517578125</ele>
        <time>2022-07-29T10:19:22.000Z</time>
      </trkpt>
      <trkpt lat="42.03269186429679393768310546875" lon="2.82570443116128444671630859375">
        <ele>78.8000030517578125</ele>
        <time>2022-07-29T10:19:28.000Z</time>
      </trkpt>
      <trkpt lat="42.03274232335388660430908203125" lon="2.82564081251621246337890625">
        <ele>78.8000030517578125</ele>
        <time>2022-07-29T10:19:29.000Z</time>
      </trkpt>
      <trkpt lat="42.03298171050846576690673828125" lon="2.82537527382373809814453125">
        <ele>79.8000030517578125</ele>
        <time>2022-07-29T10:19:34.000Z</time>
      </trkpt>
      <trkpt lat="42.03302261419594287872314453125" lon="2.8253321908414363861083984375">
        <ele>80.1999969482421875</ele>
        <time>2022-07-29T10:19:35.000Z</time>
      </trkpt>
      <trkpt lat="42.03322000801563262939453125" lon="2.82515910454094409942626953125">
        <ele>81.1999969482421875</ele>
        <time>2022-07-29T10:19:40.000Z</time>
      </trkpt>
      <trkpt lat="42.03325621783733367919921875" lon="2.82513119280338287353515625">
        <ele>81.1999969482421875</ele>
        <time>2022-07-29T10:19:41.000Z</time>
      </trkpt>
      <trkpt lat="42.03349686227738857269287109375" lon="2.8249365650117397308349609375">
        <ele>81.59999847412109375</ele>
        <time>2022-07-29T10:19:48.000Z</time>
      </trkpt>
      <trkpt lat="42.03360079787671566009521484375" lon="2.82485668547451496124267578125">
        <ele>82.8000030517578125</ele>
        <time>2022-07-29T10:19:51.000Z</time>
      </trkpt>
      <trkpt lat="42.0337180607020854949951171875" lon="2.824770100414752960205078125">
        <ele>84.1999969482421875</ele>
        <time>2022-07-29T10:19:54.000Z</time>
      </trkpt>
      <trkpt lat="42.03380380757153034210205078125" lon="2.82470648176968097686767578125">
        <ele>85</ele>
        <time>2022-07-29T10:19:56.000Z</time>
      </trkpt>
      <trkpt lat="42.03389785252511501312255859375" lon="2.82464412041008472442626953125">
        <ele>85.40000152587890625</ele>
        <time>2022-07-29T10:19:58.000Z</time>
      </trkpt>
      <trkpt lat="42.03423966653645038604736328125" lon="2.8244440443813800811767578125">
        <ele>86.40000152587890625</ele>
        <time>2022-07-29T10:20:05.000Z</time>
      </trkpt>
      <trkpt lat="42.03434024937450885772705078125" lon="2.82439199276268482208251953125">
        <ele>86.59999847412109375</ele>
        <time>2022-07-29T10:20:07.000Z</time>
      </trkpt>
      <trkpt lat="42.03454527072608470916748046875" lon="2.8242950141429901123046875">
        <ele>87.59999847412109375</ele>
        <time>2022-07-29T10:20:11.000Z</time>
      </trkpt>
      <trkpt lat="42.03481131233274936676025390625" lon="2.824190743267536163330078125">
        <ele>88.40000152587890625</ele>
        <time>2022-07-29T10:20:16.000Z</time>
      </trkpt>
      <trkpt lat="42.03503645025193691253662109375" lon="2.82411354593932628631591796875">
        <ele>88.8000030517578125</ele>
        <time>2022-07-29T10:20:20.000Z</time>
      </trkpt>
      <trkpt lat="42.03525572083890438079833984375" lon="2.82403794117271900177001953125">
        <ele>89</ele>
        <time>2022-07-29T10:20:24.000Z</time>
      </trkpt>
      <trkpt lat="42.0356458984315395355224609375" lon="2.8239220194518566131591796875">
        <ele>89.40000152587890625</ele>
        <time>2022-07-29T10:20:31.000Z</time>
      </trkpt>
      <trkpt lat="42.036035321652889251708984375" lon="2.82380928285419940948486328125">
        <ele>89.40000152587890625</ele>
        <time>2022-07-29T10:20:37.000Z</time>
      </trkpt>
      <trkpt lat="42.036535553634166717529296875" lon="2.82365061342716217041015625">
        <ele>89</ele>
        <time>2022-07-29T10:20:44.000Z</time>
      </trkpt>
      <trkpt lat="42.03712555579841136932373046875" lon="2.82347350381314754486083984375">
        <ele>88</ele>
        <time>2022-07-29T10:20:52.000Z</time>
      </trkpt>
      <trkpt lat="42.03719831071794033050537109375" lon="2.82345254905521869659423828125">
        <ele>88</ele>
        <time>2022-07-29T10:20:53.000Z</time>
      </trkpt>
      <trkpt lat="42.0374982990324497222900390625" lon="2.82335598953068256378173828125">
        <ele>87.59999847412109375</ele>
        <time>2022-07-29T10:20:57.000Z</time>
      </trkpt>
      <trkpt lat="42.03788168728351593017578125" lon="2.82323026098310947418212890625">
        <ele>86.8000030517578125</ele>
        <time>2022-07-29T10:21:02.000Z</time>
      </trkpt>
      <trkpt lat="42.03811462037265300750732421875" lon="2.82315440475940704345703125">
        <ele>86.40000152587890625</ele>
        <time>2022-07-29T10:21:05.000Z</time>
      </trkpt>
      <trkpt lat="42.03857746906578540802001953125" lon="2.8229889459908008575439453125">
        <ele>86.59999847412109375</ele>
        <time>2022-07-29T10:21:11.000Z</time>
      </trkpt>
      <trkpt lat="42.03910200856626033782958984375" lon="2.82280261628329753875732421875">
        <ele>86.8000030517578125</ele>
        <time>2022-07-29T10:21:18.000Z</time>
      </trkpt>
      <trkpt lat="42.0393151603639125823974609375" lon="2.82272097654640674591064453125">
        <ele>87</ele>
        <time>2022-07-29T10:21:21.000Z</time>
      </trkpt>
      <trkpt lat="42.03978060744702816009521484375" lon="2.82255761325359344482421875">
        <ele>87.1999969482421875</ele>
        <time>2022-07-29T10:21:28.000Z</time>
      </trkpt>
      <trkpt lat="42.039903737604618072509765625" lon="2.82251260243356227874755859375">
        <ele>87.59999847412109375</ele>
        <time>2022-07-29T10:21:30.000Z</time>
      </trkpt>
      <trkpt lat="42.0401955954730510711669921875" lon="2.8224075771868228912353515625">
        <ele>88</ele>
        <time>2022-07-29T10:21:35.000Z</time>
      </trkpt>
      <trkpt lat="42.0403607189655303955078125" lon="2.8223489038646221160888671875">
        <ele>88.59999847412109375</ele>
        <time>2022-07-29T10:21:38.000Z</time>
      </trkpt>
      <trkpt lat="42.04063639976084232330322265625" lon="2.82224924303591251373291015625">
        <ele>89.40000152587890625</ele>
        <time>2022-07-29T10:21:43.000Z</time>
      </trkpt>
      <trkpt lat="42.04069197177886962890625" lon="2.82222912646830081939697265625">
        <ele>90.1999969482421875</ele>
        <time>2022-07-29T10:21:44.000Z</time>
      </trkpt>
      <trkpt lat="42.0411256514489650726318359375" lon="2.82207020558416843414306640625">
        <ele>91</ele>
        <time>2022-07-29T10:21:52.000Z</time>
      </trkpt>
      <trkpt lat="42.04123520292341709136962890625" lon="2.8220317326486110687255859375">
        <ele>91.1999969482421875</ele>
        <time>2022-07-29T10:21:54.000Z</time>
      </trkpt>
      <trkpt lat="42.0414523780345916748046875" lon="2.8219459019601345062255859375">
        <ele>92.59999847412109375</ele>
        <time>2022-07-29T10:21:58.000Z</time>
      </trkpt>
      <trkpt lat="42.0415601693093776702880859375" lon="2.82190659083425998687744140625">
        <ele>93.40000152587890625</ele>
        <time>2022-07-29T10:22:00.000Z</time>
      </trkpt>
      <trkpt lat="42.041720934212207794189453125" lon="2.82184540294110774993896484375">
        <ele>93.59999847412109375</ele>
        <time>2022-07-29T10:22:03.000Z</time>
      </trkpt>
      <trkpt lat="42.04208630137145519256591796875" lon="2.82169922254979610443115234375">
        <ele>94.59999847412109375</ele>
        <time>2022-07-29T10:22:10.000Z</time>
      </trkpt>
      <trkpt lat="42.042138688266277313232421875" lon="2.82167793251574039459228515625">
        <ele>94.8000030517578125</ele>
        <time>2022-07-29T10:22:11.000Z</time>
      </trkpt>
      <trkpt lat="42.0423857867717742919921875" lon="2.8215774334967136383056640625">
        <ele>96</ele>
        <time>2022-07-29T10:22:16.000Z</time>
      </trkpt>
      <trkpt lat="42.04243230633437633514404296875" lon="2.821558825671672821044921875">
        <ele>96.1999969482421875</ele>
        <time>2022-07-29T10:22:17.000Z</time>
      </trkpt>
      <trkpt lat="42.04279951751232147216796875" lon="2.8214047662913799285888671875">
        <ele>97.1999969482421875</ele>
        <time>2022-07-29T10:22:25.000Z</time>
      </trkpt>
      <trkpt lat="42.04284570179879665374755859375" lon="2.8213816322386264801025390625">
        <ele>97.40000152587890625</ele>
        <time>2022-07-29T10:22:26.000Z</time>
      </trkpt>
      <trkpt lat="42.043208889663219451904296875" lon="2.82121659256517887115478515625">
        <ele>98</ele>
        <time>2022-07-29T10:22:34.000Z</time>
      </trkpt>
      <trkpt lat="42.04325322993099689483642578125" lon="2.82119547016918659210205078125">
        <ele>98.40000152587890625</ele>
        <time>2022-07-29T10:22:35.000Z</time>
      </trkpt>
      <trkpt lat="42.0435087941586971282958984375" lon="2.8210798837244510650634765625">
        <ele>99.40000152587890625</ele>
        <time>2022-07-29T10:22:41.000Z</time>
      </trkpt>
      <trkpt lat="42.04355078749358654022216796875" lon="2.82105934806168079376220703125">
        <ele>99.40000152587890625</ele>
        <time>2022-07-29T10:22:42.000Z</time>
      </trkpt>
      <trkpt lat="42.043755389750003814697265625" lon="2.82096027396619319915771484375">
        <ele>100.40000152587890625</ele>
        <time>2022-07-29T10:22:47.000Z</time>
      </trkpt>
      <trkpt lat="42.04388086684048175811767578125" lon="2.8208961524069309234619140625">
        <ele>101.1999969482421875</ele>
        <time>2022-07-29T10:22:50.000Z</time>
      </trkpt>
      <trkpt lat="42.04392260871827602386474609375" lon="2.82087611965835094451904296875">
        <ele>101.59999847412109375</ele>
        <time>2022-07-29T10:22:51.000Z</time>
      </trkpt>
      <trkpt lat="42.04408789984881877899169921875" lon="2.82079431228339672088623046875">
        <ele>102.59999847412109375</ele>
        <time>2022-07-29T10:22:55.000Z</time>
      </trkpt>
      <trkpt lat="42.0443473197519779205322265625" lon="2.82067160122096538543701171875">
        <ele>103.59999847412109375</ele>
        <time>2022-07-29T10:23:01.000Z</time>
      </trkpt>
      <trkpt lat="42.044778652489185333251953125" lon="2.82047445885837078094482421875">
        <ele>104.40000152587890625</ele>
        <time>2022-07-29T10:23:11.000Z</time>
      </trkpt>
      <trkpt lat="42.04499423503875732421875" lon="2.82037085853517055511474609375">
        <ele>104.59999847412109375</ele>
        <time>2022-07-29T10:23:16.000Z</time>
      </trkpt>
      <trkpt lat="42.0451680757105350494384765625" lon="2.82028653658926486968994140625">
        <ele>105.40000152587890625</ele>
        <time>2022-07-29T10:23:20.000Z</time>
      </trkpt>
      <trkpt lat="42.0452542416751384735107421875" lon="2.82024328596889972686767578125">
        <ele>105.8000030517578125</ele>
        <time>2022-07-29T10:23:22.000Z</time>
      </trkpt>
      <trkpt lat="42.0455512963235378265380859375" lon="2.8200921602547168731689453125">
        <ele>106.8000030517578125</ele>
        <time>2022-07-29T10:23:29.000Z</time>
      </trkpt>
      <trkpt lat="42.04585799016058444976806640625" lon="2.81994673423469066619873046875">
        <ele>108</ele>
        <time>2022-07-29T10:23:36.000Z</time>
      </trkpt>
      <trkpt lat="42.04590509645640850067138671875" lon="2.81992477364838123321533203125">
        <ele>108.1999969482421875</ele>
        <time>2022-07-29T10:23:37.000Z</time>
      </trkpt>
      <trkpt lat="42.04634673893451690673828125" lon="2.81972075812518596649169921875">
        <ele>108.59999847412109375</ele>
        <time>2022-07-29T10:23:46.000Z</time>
      </trkpt>
      <trkpt lat="42.0464478246867656707763671875" lon="2.81967566348612308502197265625">
        <ele>108.8000030517578125</ele>
        <time>2022-07-29T10:23:48.000Z</time>
      </trkpt>
      <trkpt lat="42.0467706955969333648681640625" lon="2.8195423074066638946533203125">
        <ele>109.40000152587890625</ele>
        <time>2022-07-29T10:23:54.000Z</time>
      </trkpt>
      <trkpt lat="42.04724871553480625152587890625" lon="2.8193994797766208648681640625">
        <ele>109.40000152587890625</ele>
        <time>2022-07-29T10:24:02.000Z</time>
      </trkpt>
      <trkpt lat="42.04757544212043285369873046875" lon="2.8193334303796291351318359375">
        <ele>109.40000152587890625</ele>
        <time>2022-07-29T10:24:08.000Z</time>
      </trkpt>
      <trkpt lat="42.04770871438086032867431640625" lon="2.81933762133121490478515625">
        <ele>109.40000152587890625</ele>
        <time>2022-07-29T10:24:12.000Z</time>
      </trkpt>
      <trkpt lat="42.04785103909671306610107421875" lon="2.81931884586811065673828125">
        <ele>109.40000152587890625</ele>
        <time>2022-07-29T10:24:16.000Z</time>
      </trkpt>
      <trkpt lat="42.04796151258051395416259765625" lon="2.81931021250784397125244140625">
        <ele>109.8000030517578125</ele>
        <time>2022-07-29T10:24:19.000Z</time>
      </trkpt>
      <trkpt lat="42.04804549925029277801513671875" lon="2.81929361633956432342529296875">
        <ele>110.40000152587890625</ele>
        <time>2022-07-29T10:24:22.000Z</time>
      </trkpt>
      <trkpt lat="42.04812076874077320098876953125" lon="2.81929814256727695465087890625">
        <ele>110.40000152587890625</ele>
        <time>2022-07-29T10:24:25.000Z</time>
      </trkpt>
      <trkpt lat="42.04827466048300266265869140625" lon="2.81890503130853176116943359375">
        <ele>108.59999847412109375</ele>
        <time>2022-07-29T10:35:22.000Z</time>
      </trkpt>
      <trkpt lat="42.0484484173357486724853515625" lon="2.81888608820736408233642578125">
        <ele>108.59999847412109375</ele>
        <time>2022-07-29T10:35:27.000Z</time>
      </trkpt>
      <trkpt lat="42.048615552484989166259765625" lon="2.81886152923107147216796875">
        <ele>108.59999847412109375</ele>
        <time>2022-07-29T10:35:31.000Z</time>
      </trkpt>
      <trkpt lat="42.04870448447763919830322265625" lon="2.81886295415461063385009765625">
        <ele>108.40000152587890625</ele>
        <time>2022-07-29T10:35:33.000Z</time>
      </trkpt>
      <trkpt lat="42.04917353577911853790283203125" lon="2.81882221810519695281982421875">
        <ele>108.1999969482421875</ele>
        <time>2022-07-29T10:35:43.000Z</time>
      </trkpt>
      <trkpt lat="42.04962062649428844451904296875" lon="2.818774692714214324951171875">
        <ele>108.40000152587890625</ele>
        <time>2022-07-29T10:35:52.000Z</time>
      </trkpt>
      <trkpt lat="42.0500597544014453887939453125" lon="2.81871668994426727294921875">
        <ele>108.40000152587890625</ele>
        <time>2022-07-29T10:36:01.000Z</time>
      </trkpt>
      <trkpt lat="42.05039075575768947601318359375" lon="2.81866782344877719879150390625">
        <ele>108.40000152587890625</ele>
        <time>2022-07-29T10:36:08.000Z</time>
      </trkpt>
      <trkpt lat="42.05068831332027912139892578125" lon="2.81861669383943080902099609375">
        <ele>110</ele>
        <time>2022-07-29T10:36:14.000Z</time>
      </trkpt>
      <trkpt lat="42.05094949342310428619384765625" lon="2.818568162620067596435546875">
        <ele>111</ele>
        <time>2022-07-29T10:36:19.000Z</time>
      </trkpt>
      <trkpt lat="42.05100263468921184539794921875" lon="2.8185592778027057647705078125">
        <ele>111</ele>
        <time>2022-07-29T10:36:20.000Z</time>
      </trkpt>
      <trkpt lat="42.0514129288494586944580078125" lon="2.81848124228417873382568359375">
        <ele>111.40000152587890625</ele>
        <time>2022-07-29T10:36:28.000Z</time>
      </trkpt>
      <trkpt lat="42.051657848060131072998046875" lon="2.81843262724578380584716796875">
        <ele>112</ele>
        <time>2022-07-29T10:36:33.000Z</time>
      </trkpt>
      <trkpt lat="42.05184887163341045379638671875" lon="2.81839750707149505615234375">
        <ele>112.40000152587890625</ele>
        <time>2022-07-29T10:36:37.000Z</time>
      </trkpt>
      <trkpt lat="42.0522249676287174224853515625" lon="2.8183098323643207550048828125">
        <ele>113.1999969482421875</ele>
        <time>2022-07-29T10:36:45.000Z</time>
      </trkpt>
      <trkpt lat="42.05241029150784015655517578125" lon="2.81826029531657695770263671875">
        <ele>114.1999969482421875</ele>
        <time>2022-07-29T10:36:49.000Z</time>
      </trkpt>
      <trkpt lat="42.05245756544172763824462890625" lon="2.8182464651763439178466796875">
        <ele>114.40000152587890625</ele>
        <time>2022-07-29T10:36:50.000Z</time>
      </trkpt>
      <trkpt lat="42.05274959094822406768798828125" lon="2.81816390343010425567626953125">
        <ele>115.40000152587890625</ele>
        <time>2022-07-29T10:36:56.000Z</time>
      </trkpt>
      <trkpt lat="42.05289962701499462127685546875" lon="2.81811847351491451263427734375">
        <ele>115.59999847412109375</ele>
        <time>2022-07-29T10:36:59.000Z</time>
      </trkpt>
      <trkpt lat="42.05330447293817996978759765625" lon="2.8179866261780261993408203125">
        <ele>116.40000152587890625</ele>
        <time>2022-07-29T10:37:07.000Z</time>
      </trkpt>
      <trkpt lat="42.05340891145169734954833984375" lon="2.817947566509246826171875">
        <ele>116.40000152587890625</ele>
        <time>2022-07-29T10:37:09.000Z</time>
      </trkpt>
      <trkpt lat="42.05383705906569957733154296875" lon="2.8177811019122600555419921875">
        <ele>116.8000030517578125</ele>
        <time>2022-07-29T10:37:17.000Z</time>
      </trkpt>
      <trkpt lat="42.05427534878253936767578125" lon="2.81756677664816379547119140625">
        <ele>116.8000030517578125</ele>
        <time>2022-07-29T10:37:25.000Z</time>
      </trkpt>
      <trkpt lat="42.05450065433979034423828125" lon="2.817443646490573883056640625">
        <ele>117.1999969482421875</ele>
        <time>2022-07-29T10:37:29.000Z</time>
      </trkpt>
      <trkpt lat="42.05483970232307910919189453125" lon="2.81723342835903167724609375">
        <ele>117.40000152587890625</ele>
        <time>2022-07-29T10:37:35.000Z</time>
      </trkpt>
      <trkpt lat="42.0548941008746623992919921875" lon="2.8171906806528568267822265625">
        <ele>117.40000152587890625</ele>
        <time>2022-07-29T10:37:36.000Z</time>
      </trkpt>
      <trkpt lat="42.05518067814409732818603515625" lon="2.81697350554168224334716796875">
        <ele>117.59999847412109375</ele>
        <time>2022-07-29T10:37:41.000Z</time>
      </trkpt>
      <trkpt lat="42.055650651454925537109375" lon="2.81661610119044780731201171875">
        <ele>117.40000152587890625</ele>
        <time>2022-07-29T10:37:49.000Z</time>
      </trkpt>
      <trkpt lat="42.05576372332870960235595703125" lon="2.81652926467359066009521484375">
        <ele>117.40000152587890625</ele>
        <time>2022-07-29T10:37:51.000Z</time>
      </trkpt>
      <trkpt lat="42.05623009242117404937744140625" lon="2.81616163440048694610595703125">
        <ele>118</ele>
        <time>2022-07-29T10:38:00.000Z</time>
      </trkpt>
      <trkpt lat="42.05632061697542667388916015625" lon="2.81608569435775279998779296875">
        <ele>118</ele>
        <time>2022-07-29T10:38:02.000Z</time>
      </trkpt>
      <trkpt lat="42.0565773546695709228515625" lon="2.81587949953973293304443359375">
        <ele>119.1999969482421875</ele>
        <time>2022-07-29T10:38:08.000Z</time>
      </trkpt>
      <trkpt lat="42.05677994526922702789306640625" lon="2.8157201595604419708251953125">
        <ele>120.40000152587890625</ele>
        <time>2022-07-29T10:38:13.000Z</time>
      </trkpt>
      <trkpt lat="42.05702084116637706756591796875" lon="2.81552930362522602081298828125">
        <ele>121.40000152587890625</ele>
        <time>2022-07-29T10:38:19.000Z</time>
      </trkpt>
      <trkpt lat="42.05706073902547359466552734375" lon="2.815496027469635009765625">
        <ele>121.59999847412109375</ele>
        <time>2022-07-29T10:38:20.000Z</time>
      </trkpt>
      <trkpt lat="42.0572242699563503265380859375" lon="2.8153677843511104583740234375">
        <ele>122.59999847412109375</ele>
        <time>2022-07-29T10:38:24.000Z</time>
      </trkpt>
      <trkpt lat="42.05742300488054752349853515625" lon="2.8152091987431049346923828125">
        <ele>123.8000030517578125</ele>
        <time>2022-07-29T10:38:29.000Z</time>
      </trkpt>
      <trkpt lat="42.05773833207786083221435546875" lon="2.81495153903961181640625">
        <ele>124.8000030517578125</ele>
        <time>2022-07-29T10:38:37.000Z</time>
      </trkpt>
      <trkpt lat="42.05777873285114765167236328125" lon="2.8149205259978771209716796875">
        <ele>125</ele>
        <time>2022-07-29T10:38:38.000Z</time>
      </trkpt>
      <trkpt lat="42.057976461946964263916015625" lon="2.81476001255214214324951171875">
        <ele>126</ele>
        <time>2022-07-29T10:38:42.000Z</time>
      </trkpt>
      <trkpt lat="42.0581271685659885406494140625" lon="2.8146395646035671234130859375">
        <ele>126.1999969482421875</ele>
        <time>2022-07-29T10:38:46.000Z</time>
      </trkpt>
      <trkpt lat="42.0583581738173961639404296875" lon="2.81444988213479518890380859375">
        <ele>126.8000030517578125</ele>
        <time>2022-07-29T10:38:52.000Z</time>
      </trkpt>
      <trkpt lat="42.05859596841037273406982421875" lon="2.8142627142369747161865234375">
        <ele>127.8000030517578125</ele>
        <time>2022-07-29T10:38:59.000Z</time>
      </trkpt>
      <trkpt lat="42.0590221881866455078125" lon="2.813948728144168853759765625">
        <ele>128.8000030517578125</ele>
        <time>2022-07-29T10:39:09.000Z</time>
      </trkpt>
      <trkpt lat="42.0594555325806140899658203125" lon="2.81361353583633899688720703125">
        <ele>129.8000030517578125</ele>
        <time>2022-07-29T10:39:18.000Z</time>
      </trkpt>
      <trkpt lat="42.06003715284168720245361328125" lon="2.81326501630246639251708984375">
        <ele>129.8000030517578125</ele>
        <time>2022-07-29T10:39:27.000Z</time>
      </trkpt>
      <trkpt lat="42.06066378392279148101806640625" lon="2.81297936104238033294677734375">
        <ele>129.399993896484375</ele>
        <time>2022-07-29T10:39:36.000Z</time>
      </trkpt>
      <trkpt lat="42.06081734038889408111572265625" lon="2.81292236410081386566162109375">
        <ele>128.600006103515625</ele>
        <time>2022-07-29T10:39:39.000Z</time>
      </trkpt>
      <trkpt lat="42.0613072626292705535888671875" lon="2.81276495195925235748291015625">
        <ele>127.59999847412109375</ele>
        <time>2022-07-29T10:39:44.000Z</time>
      </trkpt>
      <trkpt lat="42.06139485351741313934326171875" lon="2.812742404639720916748046875">
        <ele>127.40000152587890625</ele>
        <time>2022-07-29T10:39:45.000Z</time>
      </trkpt>
      <trkpt lat="42.061576656997203826904296875" lon="2.8126969747245311737060546875">
        <ele>126.1999969482421875</ele>
        <time>2022-07-29T10:39:48.000Z</time>
      </trkpt>
      <trkpt lat="42.0618608035147190093994140625" lon="2.81263620592653751373291015625">
        <ele>125.40000152587890625</ele>
        <time>2022-07-29T10:39:51.000Z</time>
      </trkpt>
      <trkpt lat="42.0620576106011867523193359375" lon="2.8126061148941516876220703125">
        <ele>125.1999969482421875</ele>
        <time>2022-07-29T10:39:52.000Z</time>
      </trkpt>
      <trkpt lat="42.062661610543727874755859375" lon="2.81253126449882984161376953125">
        <ele>123.59999847412109375</ele>
        <time>2022-07-29T10:39:59.000Z</time>
      </trkpt>
      <trkpt lat="42.06307106651365756988525390625" lon="2.8125055320560932159423828125">
        <ele>122.40000152587890625</ele>
        <time>2022-07-29T10:40:02.000Z</time>
      </trkpt>
      <trkpt lat="42.0633812807500362396240234375" lon="2.81249991618096828460693359375">
        <ele>121</ele>
        <time>2022-07-29T10:40:05.000Z</time>
      </trkpt>
      <trkpt lat="42.063485719263553619384765625" lon="2.8125025145709514617919921875">
        <ele>118.8000030517578125</ele>
        <time>2022-07-29T10:40:07.000Z</time>
      </trkpt>
      <trkpt lat="42.06390623934566974639892578125" lon="2.81251802109181880950927734375">
        <ele>117.59999847412109375</ele>
        <time>2022-07-29T10:40:10.000Z</time>
      </trkpt>
      <trkpt lat="42.06433631479740142822265625" lon="2.81255833804607391357421875">
        <ele>116</ele>
        <time>2022-07-29T10:40:15.000Z</time>
      </trkpt>
      <trkpt lat="42.064557261765003204345703125" lon="2.812590189278125762939453125">
        <ele>115.8000030517578125</ele>
        <time>2022-07-29T10:40:16.000Z</time>
      </trkpt>
      <trkpt lat="42.06478022038936614990234375" lon="2.8126248903572559356689453125">
        <ele>115</ele>
        <time>2022-07-29T10:40:18.000Z</time>
      </trkpt>
      <trkpt lat="42.06511340104043483734130859375" lon="2.81269110739231109619140625">
        <ele>113.8000030517578125</ele>
        <time>2022-07-29T10:40:21.000Z</time>
      </trkpt>
      <trkpt lat="42.06544633023440837860107421875" lon="2.81276780180633068084716796875">
        <ele>113.59999847412109375</ele>
        <time>2022-07-29T10:40:24.000Z</time>
      </trkpt>
      <trkpt lat="42.06577372737228870391845703125" lon="2.81286017037928104400634765625">
        <ele>112.59999847412109375</ele>
        <time>2022-07-29T10:40:27.000Z</time>
      </trkpt>
      <trkpt lat="42.06619215197861194610595703125" lon="2.81300534494221210479736328125">
        <ele>111.40000152587890625</ele>
        <time>2022-07-29T10:40:31.000Z</time>
      </trkpt>
      <trkpt lat="42.06639130599796772003173828125" lon="2.81307977624237537384033203125">
        <ele>110.40000152587890625</ele>
        <time>2022-07-29T10:40:34.000Z</time>
      </trkpt>
      <trkpt lat="42.06667922437191009521484375" lon="2.813188321888446807861328125">
        <ele>109.40000152587890625</ele>
        <time>2022-07-29T10:40:36.000Z</time>
      </trkpt>
      <trkpt lat="42.06686605699360370635986328125" lon="2.8132562153041362762451171875">
        <ele>108.40000152587890625</ele>
        <time>2022-07-29T10:40:38.000Z</time>
      </trkpt>
      <trkpt lat="42.06695809029042720794677734375" lon="2.81329150311648845672607421875">
        <ele>108.1999969482421875</ele>
        <time>2022-07-29T10:40:39.000Z</time>
      </trkpt>
      <trkpt lat="42.06748464144766330718994140625" lon="2.81350314617156982421875">
        <ele>107.1999969482421875</ele>
        <time>2022-07-29T10:40:46.000Z</time>
      </trkpt>
      <trkpt lat="42.0678099431097507476806640625" lon="2.81363801099359989166259765625">
        <ele>106.40000152587890625</ele>
        <time>2022-07-29T10:40:49.000Z</time>
      </trkpt>
      <trkpt lat="42.06813222728669643402099609375" lon="2.8137638233602046966552734375">
        <ele>106</ele>
        <time>2022-07-29T10:40:54.000Z</time>
      </trkpt>
      <trkpt lat="42.06867587752640247344970703125" lon="2.81398301012814044952392578125">
        <ele>106</ele>
        <time>2022-07-29T10:41:00.000Z</time>
      </trkpt>
      <trkpt lat="42.0687527395784854888916015625" lon="2.8140125982463359832763671875">
        <ele>106</ele>
        <time>2022-07-29T10:41:01.000Z</time>
      </trkpt>
      <trkpt lat="42.06928205676376819610595703125" lon="2.81422005034983158111572265625">
        <ele>106</ele>
        <time>2022-07-29T10:41:08.000Z</time>
      </trkpt>
      <trkpt lat="42.06950752995908260345458984375" lon="2.81430973671376705169677734375">
        <ele>106.1999969482421875</ele>
        <time>2022-07-29T10:41:12.000Z</time>
      </trkpt>
      <trkpt lat="42.07004229538142681121826171875" lon="2.8145208768546581268310546875">
        <ele>106</ele>
        <time>2022-07-29T10:41:19.000Z</time>
      </trkpt>
      <trkpt lat="42.0703550241887569427490234375" lon="2.814646102488040924072265625">
        <ele>106</ele>
        <time>2022-07-29T10:41:22.000Z</time>
      </trkpt>
      <trkpt lat="42.07091552205383777618408203125" lon="2.81486914493143558502197265625">
        <ele>105.40000152587890625</ele>
        <time>2022-07-29T10:41:29.000Z</time>
      </trkpt>
      <trkpt lat="42.0713226310908794403076171875" lon="2.8150268085300922393798828125">
        <ele>104.8000030517578125</ele>
        <time>2022-07-29T10:41:34.000Z</time>
      </trkpt>
      <trkpt lat="42.07190039567649364471435546875" lon="2.81525286845862865447998046875">
        <ele>103.59999847412109375</ele>
        <time>2022-07-29T10:41:41.000Z</time>
      </trkpt>
      <trkpt lat="42.07239367067813873291015625" lon="2.815452106297016143798828125">
        <ele>102.8000030517578125</ele>
        <time>2022-07-29T10:41:47.000Z</time>
      </trkpt>
      <trkpt lat="42.072899602353572845458984375" lon="2.81565184704959392547607421875">
        <ele>102.59999847412109375</ele>
        <time>2022-07-29T10:41:54.000Z</time>
      </trkpt>
      <trkpt lat="42.07307335920631885528564453125" lon="2.8157164715230464935302734375">
        <ele>102.59999847412109375</ele>
        <time>2022-07-29T10:41:55.000Z</time>
      </trkpt>
      <trkpt lat="42.07352011464536190032958984375" lon="2.8158888034522533416748046875">
        <ele>102.59999847412109375</ele>
        <time>2022-07-29T10:42:00.000Z</time>
      </trkpt>
      <trkpt lat="42.074146158993244171142578125" lon="2.81613372266292572021484375">
        <ele>102.1999969482421875</ele>
        <time>2022-07-29T10:42:07.000Z</time>
      </trkpt>
      <trkpt lat="42.0744903199374675750732421875" lon="2.81628794968128204345703125">
        <ele>101.59999847412109375</ele>
        <time>2022-07-29T10:42:11.000Z</time>
      </trkpt>
      <trkpt lat="42.07465703599154949188232421875" lon="2.81636531464755535125732421875">
        <ele>101.1999969482421875</ele>
        <time>2022-07-29T10:42:13.000Z</time>
      </trkpt>
      <trkpt lat="42.07482350058853626251220703125" lon="2.8164282627403736114501953125">
        <ele>99.8000030517578125</ele>
        <time>2022-07-29T10:42:16.000Z</time>
      </trkpt>
      <trkpt lat="42.07506783306598663330078125" lon="2.8165167756378650665283203125">
        <ele>99.1999969482421875</ele>
        <time>2022-07-29T10:42:18.000Z</time>
      </trkpt>
      <trkpt lat="42.0753888599574565887451171875" lon="2.81662649475038051605224609375">
        <ele>98.8000030517578125</ele>
        <time>2022-07-29T10:42:22.000Z</time>
      </trkpt>
      <trkpt lat="42.07569873891770839691162109375" lon="2.81675188802182674407958984375">
        <ele>98.59999847412109375</ele>
        <time>2022-07-29T10:42:26.000Z</time>
      </trkpt>
      <trkpt lat="42.0762307383120059967041015625" lon="2.8169553168118000030517578125">
        <ele>98.1999969482421875</ele>
        <time>2022-07-29T10:42:34.000Z</time>
      </trkpt>
      <trkpt lat="42.0763050019741058349609375" lon="2.81698574312031269073486328125">
        <ele>98.1999969482421875</ele>
        <time>2022-07-29T10:42:35.000Z</time>
      </trkpt>
      <trkpt lat="42.07667103968560695648193359375" lon="2.81713561154901981353759765625">
        <ele>97.8000030517578125</ele>
        <time>2022-07-29T10:42:40.000Z</time>
      </trkpt>
      <trkpt lat="42.07703095860779285430908203125" lon="2.8172781877219676971435546875">
        <ele>97</ele>
        <time>2022-07-29T10:42:44.000Z</time>
      </trkpt>
      <trkpt lat="42.0776160992681980133056640625" lon="2.817507684230804443359375">
        <ele>97</ele>
        <time>2022-07-29T10:42:52.000Z</time>
      </trkpt>
      <trkpt lat="42.0778417401015758514404296875" lon="2.81759158708155155181884765625">
        <ele>97</ele>
        <time>2022-07-29T10:42:55.000Z</time>
      </trkpt>
      <trkpt lat="42.07837172783911228179931640625" lon="2.81780473887920379638671875">
        <ele>97</ele>
        <time>2022-07-29T10:43:02.000Z</time>
      </trkpt>
      <trkpt lat="42.0786745660006999969482421875" lon="2.8179246000945568084716796875">
        <ele>97</ele>
        <time>2022-07-29T10:43:06.000Z</time>
      </trkpt>
      <trkpt lat="42.07921830005943775177001953125" lon="2.81810305081307888031005859375">
        <ele>97.1999969482421875</ele>
        <time>2022-07-29T10:43:13.000Z</time>
      </trkpt>
      <trkpt lat="42.0794567652046680450439453125" lon="2.81816256232559680938720703125">
        <ele>97</ele>
        <time>2022-07-29T10:43:16.000Z</time>
      </trkpt>
      <trkpt lat="42.08003838546574115753173828125" lon="2.818232215940952301025390625">
        <ele>97.1999969482421875</ele>
        <time>2022-07-29T10:43:23.000Z</time>
      </trkpt>
      <trkpt lat="42.08012379705905914306640625" lon="2.818235568702220916748046875">
        <ele>97.1999969482421875</ele>
        <time>2022-07-29T10:43:24.000Z</time>
      </trkpt>
      <trkpt lat="42.08064607344567775726318359375" lon="2.81820011325180530548095703125">
        <ele>97</ele>
        <time>2022-07-29T10:43:30.000Z</time>
      </trkpt>
      <trkpt lat="42.08118771202862262725830078125" lon="2.81807371415197849273681640625">
        <ele>97</ele>
        <time>2022-07-29T10:43:36.000Z</time>
      </trkpt>
      <trkpt lat="42.08136708475649356842041015625" lon="2.81801353208720684051513671875">
        <ele>97</ele>
        <time>2022-07-29T10:43:38.000Z</time>
      </trkpt>
      <trkpt lat="42.08171996288001537322998046875" lon="2.8178605623543262481689453125">
        <ele>96.59999847412109375</ele>
        <time>2022-07-29T10:43:42.000Z</time>
      </trkpt>
      <trkpt lat="42.0820578373968601226806640625" lon="2.81767465174198150634765625">
        <ele>95.40000152587890625</ele>
        <time>2022-07-29T10:43:46.000Z</time>
      </trkpt>
      <trkpt lat="42.082449607551097869873046875" lon="2.8174062632024288177490234375">
        <ele>94.1999969482421875</ele>
        <time>2022-07-29T10:43:51.000Z</time>
      </trkpt>
      <trkpt lat="42.0825936086475849151611328125" lon="2.81728749163448810577392578125">
        <ele>94</ele>
        <time>2022-07-29T10:43:53.000Z</time>
      </trkpt>
      <trkpt lat="42.0830629952251911163330078125" lon="2.81684727407991886138916015625">
        <ele>93.8000030517578125</ele>
        <time>2022-07-29T10:44:00.000Z</time>
      </trkpt>
      <trkpt lat="42.083126865327358245849609375" lon="2.81678139232099056243896484375">
        <ele>94</ele>
        <time>2022-07-29T10:44:01.000Z</time>
      </trkpt>
      <trkpt lat="42.083559371531009674072265625" lon="2.81631946563720703125">
        <ele>94.59999847412109375</ele>
        <time>2022-07-29T10:44:08.000Z</time>
      </trkpt>
      <trkpt lat="42.083737067878246307373046875" lon="2.81612073071300983428955078125">
        <ele>94.8000030517578125</ele>
        <time>2022-07-29T10:44:11.000Z</time>
      </trkpt>
      <trkpt lat="42.0842113159596920013427734375" lon="2.81560624949634075164794921875">
        <ele>95</ele>
        <time>2022-07-29T10:44:19.000Z</time>
      </trkpt>
      <trkpt lat="42.08438985049724578857421875" lon="2.815415561199188232421875">
        <ele>95.1999969482421875</ele>
        <time>2022-07-29T10:44:22.000Z</time>
      </trkpt>
      <trkpt lat="42.08485261537134647369384765625" lon="2.8149144910275936126708984375">
        <ele>95.8000030517578125</ele>
        <time>2022-07-29T10:44:30.000Z</time>
      </trkpt>
      <trkpt lat="42.0849093608558177947998046875" lon="2.8148548118770122528076171875">
        <ele>95.8000030517578125</ele>
        <time>2022-07-29T10:44:31.000Z</time>
      </trkpt>
      <trkpt lat="42.08503131754696369171142578125" lon="2.81475699506700038909912109375">
        <ele>95.8000030517578125</ele>
        <time>2022-07-29T10:44:33.000Z</time>
      </trkpt>
      <trkpt lat="42.08521052263677120208740234375" lon="2.814605534076690673828125">
        <ele>95.8000030517578125</ele>
        <time>2022-07-29T10:44:36.000Z</time>
      </trkpt>
      <trkpt lat="42.08558837883174419403076171875" lon="2.81416992656886577606201171875">
        <ele>96.40000152587890625</ele>
        <time>2022-07-29T10:44:43.000Z</time>
      </trkpt>
      <trkpt lat="42.085748054087162017822265625" lon="2.81397580169141292572021484375">
        <ele>96.8000030517578125</ele>
        <time>2022-07-29T10:44:46.000Z</time>
      </trkpt>
      <trkpt lat="42.08618483506143093109130859375" lon="2.8134687803685665130615234375">
        <ele>97.40000152587890625</ele>
        <time>2022-07-29T10:44:55.000Z</time>
      </trkpt>
      <trkpt lat="42.0862404070794582366943359375" lon="2.8134080953896045684814453125">
        <ele>97.59999847412109375</ele>
        <time>2022-07-29T10:44:56.000Z</time>
      </trkpt>
      <trkpt lat="42.08669244311749935150146484375" lon="2.81291951425373554229736328125">
        <ele>98.1999969482421875</ele>
        <time>2022-07-29T10:45:03.000Z</time>
      </trkpt>
      <trkpt lat="42.0868648588657379150390625" lon="2.81273393891751766204833984375">
        <ele>98.1999969482421875</ele>
        <time>2022-07-29T10:45:06.000Z</time>
      </trkpt>
      <trkpt lat="42.086922191083431243896484375" lon="2.81267157755792140960693359375">
        <ele>98.40000152587890625</ele>
        <time>2022-07-29T10:45:08.000Z</time>
      </trkpt>
      <trkpt lat="42.08738210611045360565185546875" lon="2.81217436306178569793701171875">
        <ele>98.59999847412109375</ele>
        <time>2022-07-29T10:45:15.000Z</time>
      </trkpt>
      <trkpt lat="42.08766072057187557220458984375" lon="2.8118658252060413360595703125">
        <ele>98.59999847412109375</ele>
        <time>2022-07-29T10:45:20.000Z</time>
      </trkpt>
      <trkpt lat="42.0881089009344577789306640625" lon="2.8113880567252635955810546875">
        <ele>99</ele>
        <time>2022-07-29T10:45:28.000Z</time>
      </trkpt>
      <trkpt lat="42.08845566026866436004638671875" lon="2.81101330183446407318115234375">
        <ele>99.40000152587890625</ele>
        <time>2022-07-29T10:45:34.000Z</time>
      </trkpt>
      <trkpt lat="42.08899059332907199859619140625" lon="2.8104311786592006683349609375">
        <ele>99.59999847412109375</ele>
        <time>2022-07-29T10:45:43.000Z</time>
      </trkpt>
      <trkpt lat="42.08944790996611118316650390625" lon="2.80993404798209667205810546875">
        <ele>99.40000152587890625</ele>
        <time>2022-07-29T10:45:50.000Z</time>
      </trkpt>
      <trkpt lat="42.08964656107127666473388671875" lon="2.80971108935773372650146484375">
        <ele>98.59999847412109375</ele>
        <time>2022-07-29T10:45:53.000Z</time>
      </trkpt>
      <trkpt lat="42.08971328102052211761474609375" lon="2.809634394943714141845703125">
        <ele>98.1999969482421875</ele>
        <time>2022-07-29T10:45:54.000Z</time>
      </trkpt>
      <trkpt lat="42.089913524687290191650390625" lon="2.8093938343226909637451171875">
        <ele>97.1999969482421875</ele>
        <time>2022-07-29T10:45:58.000Z</time>
      </trkpt>
      <trkpt lat="42.0903240703046321868896484375" lon="2.8089153952896595001220703125">
        <ele>96.8000030517578125</ele>
        <time>2022-07-29T10:46:03.000Z</time>
      </trkpt>
      <trkpt lat="42.09067367948591709136962890625" lon="2.80837769620120525360107421875">
        <ele>96</ele>
        <time>2022-07-29T10:46:09.000Z</time>
      </trkpt>
      <trkpt lat="42.09078096784651279449462890625" lon="2.80819748528301715850830078125">
        <ele>96</ele>
        <time>2022-07-29T10:46:11.000Z</time>
      </trkpt>
      <trkpt lat="42.09119704551994800567626953125" lon="2.8075072355568408966064453125">
        <ele>96</ele>
        <time>2022-07-29T10:46:19.000Z</time>
      </trkpt>
      <trkpt lat="42.09155461750924587249755859375" lon="2.8069241903722286224365234375">
        <ele>96.59999847412109375</ele>
        <time>2022-07-29T10:46:26.000Z</time>
      </trkpt>
      <trkpt lat="42.09160474129021167755126953125" lon="2.80684313736855983734130859375">
        <ele>96.59999847412109375</ele>
        <time>2022-07-29T10:46:27.000Z</time>
      </trkpt>
      <trkpt lat="42.0918502472341060638427734375" lon="2.8064407221972942352294921875">
        <ele>97</ele>
        <time>2022-07-29T10:46:32.000Z</time>
      </trkpt>
      <trkpt lat="42.09209575317800045013427734375" lon="2.80603679828345775604248046875">
        <ele>97.8000030517578125</ele>
        <time>2022-07-29T10:46:38.000Z</time>
      </trkpt>
      <trkpt lat="42.092242352664470672607421875" lon="2.80579992569983005523681640625">
        <ele>98</ele>
        <time>2022-07-29T10:46:41.000Z</time>
      </trkpt>
      <trkpt lat="42.09257134236395359039306640625" lon="2.805257029831409454345703125">
        <ele>98.1999969482421875</ele>
        <time>2022-07-29T10:46:47.000Z</time>
      </trkpt>
      <trkpt lat="42.09294215776026248931884765625" lon="2.80463919974863529205322265625">
        <ele>98.59999847412109375</ele>
        <time>2022-07-29T10:46:55.000Z</time>
      </trkpt>
      <trkpt lat="42.09298892877995967864990234375" lon="2.804563008248805999755859375">
        <ele>98.59999847412109375</ele>
        <time>2022-07-29T10:46:56.000Z</time>
      </trkpt>
      <trkpt lat="42.0932216942310333251953125" lon="2.804184816777706146240234375">
        <ele>98.8000030517578125</ele>
        <time>2022-07-29T10:47:01.000Z</time>
      </trkpt>
      <trkpt lat="42.093445993959903717041015625" lon="2.80380452983081340789794921875">
        <ele>99.1999969482421875</ele>
        <time>2022-07-29T10:47:06.000Z</time>
      </trkpt>
      <trkpt lat="42.09376794286072254180908203125" lon="2.8032783977687358856201171875">
        <ele>100</ele>
        <time>2022-07-29T10:47:13.000Z</time>
      </trkpt>
      <trkpt lat="42.09394966252148151397705078125" lon="2.80297757126390933990478515625">
        <ele>100.59999847412109375</ele>
        <time>2022-07-29T10:47:17.000Z</time>
      </trkpt>
      <trkpt lat="42.09413154982030391693115234375" lon="2.80267531983554363250732421875">
        <ele>101</ele>
        <time>2022-07-29T10:47:21.000Z</time>
      </trkpt>
      <trkpt lat="42.094506807625293731689453125" lon="2.80204952694475650787353515625">
        <ele>101.59999847412109375</ele>
        <time>2022-07-29T10:47:29.000Z</time>
      </trkpt>
      <trkpt lat="42.094848789274692535400390625" lon="2.80149296857416629791259765625">
        <ele>102</ele>
        <time>2022-07-29T10:47:36.000Z</time>
      </trkpt>
      <trkpt lat="42.09504366852343082427978515625" lon="2.80117512680590152740478515625">
        <ele>102</ele>
        <time>2022-07-29T10:47:41.000Z</time>
      </trkpt>
      <trkpt lat="42.09541532211005687713623046875" lon="2.80056660063564777374267578125">
        <ele>102.1999969482421875</ele>
        <time>2022-07-29T10:47:48.000Z</time>
      </trkpt>
      <trkpt lat="42.09546075202524662017822265625" lon="2.80049300752580165863037109375">
        <ele>102.1999969482421875</ele>
        <time>2022-07-29T10:47:49.000Z</time>
      </trkpt>
      <trkpt lat="42.09586693905293941497802734375" lon="2.79987660236656665802001953125">
        <ele>102.8000030517578125</ele>
        <time>2022-07-29T10:47:57.000Z</time>
      </trkpt>
      <trkpt lat="42.09591756574809551239013671875" lon="2.79979865066707134246826171875">
        <ele>102.8000030517578125</ele>
        <time>2022-07-29T10:47:58.000Z</time>
      </trkpt>
      <trkpt lat="42.0962815918028354644775390625" lon="2.7992565929889678955078125">
        <ele>103.1999969482421875</ele>
        <time>2022-07-29T10:48:05.000Z</time>
      </trkpt>
      <trkpt lat="42.09650865755975246429443359375" lon="2.7989664115011692047119140625">
        <ele>103.1999969482421875</ele>
        <time>2022-07-29T10:48:09.000Z</time>
      </trkpt>
      <trkpt lat="42.09663019515573978424072265625" lon="2.79885149560868740081787109375">
        <ele>103.1999969482421875</ele>
        <time>2022-07-29T10:48:11.000Z</time>
      </trkpt>
      <trkpt lat="42.096751146018505096435546875" lon="2.798753678798675537109375">
        <ele>103.1999969482421875</ele>
        <time>2022-07-29T10:48:13.000Z</time>
      </trkpt>
      <trkpt lat="42.0969901978969573974609375" lon="2.7986049838364124298095703125">
        <ele>103.1999969482421875</ele>
        <time>2022-07-29T10:48:17.000Z</time>
      </trkpt>
      <trkpt lat="42.0972776971757411956787109375" lon="2.79846257530152797698974609375">
        <ele>103</ele>
        <time>2022-07-29T10:48:23.000Z</time>
      </trkpt>
      <trkpt lat="42.09733880124986171722412109375" lon="2.7984527684748172760009765625">
        <ele>102.8000030517578125</ele>
        <time>2022-07-29T10:48:24.000Z</time>
      </trkpt>
      <trkpt lat="42.0975368656218051910400390625" lon="2.79844899661839008331298828125">
        <ele>102.8000030517578125</ele>
        <time>2022-07-29T10:48:27.000Z</time>
      </trkpt>
      <trkpt lat="42.09767223335802555084228515625" lon="2.798409350216388702392578125">
        <ele>102.59999847412109375</ele>
        <time>2022-07-29T10:48:29.000Z</time>
      </trkpt>
      <trkpt lat="42.097842805087566375732421875" lon="2.79825604520738124847412109375">
        <ele>102.59999847412109375</ele>
        <time>2022-07-29T10:48:32.000Z</time>
      </trkpt>
      <trkpt lat="42.09794380702078342437744140625" lon="2.798007689416408538818359375">
        <ele>102.8000030517578125</ele>
        <time>2022-07-29T10:48:35.000Z</time>
      </trkpt>
      <trkpt lat="42.09794246591627597808837890625" lon="2.79764634557068347930908203125">
        <ele>103</ele>
        <time>2022-07-29T10:48:39.000Z</time>
      </trkpt>
      <trkpt lat="42.09790994413197040557861328125" lon="2.797564454376697540283203125">
        <ele>103.1999969482421875</ele>
        <time>2022-07-29T10:48:40.000Z</time>
      </trkpt>
      <trkpt lat="42.09781103767454624176025390625" lon="2.7974160946905612945556640625">
        <ele>103.40000152587890625</ele>
        <time>2022-07-29T10:48:42.000Z</time>
      </trkpt>
      <trkpt lat="42.09775990806519985198974609375" lon="2.79733772389590740203857421875">
        <ele>103.59999847412109375</ele>
        <time>2022-07-29T10:48:43.000Z</time>
      </trkpt>
      <trkpt lat="42.09772185422480106353759765625" lon="2.79725491069257259368896484375">
        <ele>103.59999847412109375</ele>
        <time>2022-07-29T10:48:44.000Z</time>
      </trkpt>
      <trkpt lat="42.09769654087722301483154296875" lon="2.7971646375954151153564453125">
        <ele>103.8000030517578125</ele>
        <time>2022-07-29T10:48:45.000Z</time>
      </trkpt>
      <trkpt lat="42.09770324639976024627685546875" lon="2.796892225742340087890625">
        <ele>104.1999969482421875</ele>
        <time>2022-07-29T10:48:48.000Z</time>
      </trkpt>
      <trkpt lat="42.0977511070668697357177734375" lon="2.79672752134501934051513671875">
        <ele>104.40000152587890625</ele>
        <time>2022-07-29T10:48:50.000Z</time>
      </trkpt>
      <trkpt lat="42.097820676863193511962890625" lon="2.7965819276869297027587890625">
        <ele>104.40000152587890625</ele>
        <time>2022-07-29T10:48:51.000Z</time>
      </trkpt>
      <trkpt lat="42.097820676863193511962890625" lon="2.7965819276869297027587890625">
        <ele>104.40000152587890625</ele>
        <time>2022-07-29T10:48:52.000Z</time>
      </trkpt>
      <trkpt lat="42.09794481284916400909423828125" lon="2.79637816362082958221435546875">
        <ele>104.8000030517578125</ele>
        <time>2022-07-29T10:48:54.000Z</time>
      </trkpt>
      <trkpt lat="42.098157294094562530517578125" lon="2.79603836126625537872314453125">
        <ele>105.59999847412109375</ele>
        <time>2022-07-29T10:48:59.000Z</time>
      </trkpt>
      <trkpt lat="42.09819895215332508087158203125" lon="2.795969881117343902587890625">
        <ele>106</ele>
        <time>2022-07-29T10:49:00.000Z</time>
      </trkpt>
      <trkpt lat="42.0984917320311069488525390625" lon="2.79548280872404575347900390625">
        <ele>106.40000152587890625</ele>
        <time>2022-07-29T10:49:07.000Z</time>
      </trkpt>
      <trkpt lat="42.09876389242708683013916015625" lon="2.79505600221455097198486328125">
        <ele>106.8000030517578125</ele>
        <time>2022-07-29T10:49:14.000Z</time>
      </trkpt>
      <trkpt lat="42.09911626763641834259033203125" lon="2.79446281492710113525390625">
        <ele>106.8000030517578125</ele>
        <time>2022-07-29T10:49:21.000Z</time>
      </trkpt>
      <trkpt lat="42.09915943443775177001953125" lon="2.7943898923695087432861328125">
        <ele>106.8000030517578125</ele>
        <time>2022-07-29T10:49:22.000Z</time>
      </trkpt>
      <trkpt lat="42.099497057497501373291015625" lon="2.79381883330643177032470703125">
        <ele>106.59999847412109375</ele>
        <time>2022-07-29T10:49:30.000Z</time>
      </trkpt>
      <trkpt lat="42.09966578520834445953369140625" lon="2.79353854246437549591064453125">
        <ele>106.8000030517578125</ele>
        <time>2022-07-29T10:49:34.000Z</time>
      </trkpt>
      <trkpt lat="42.0997895859181880950927734375" lon="2.7933287434279918670654296875">
        <ele>107</ele>
        <time>2022-07-29T10:49:37.000Z</time>
      </trkpt>
      <trkpt lat="42.10016266442835330963134765625" lon="2.79271795414388179779052734375">
        <ele>108</ele>
        <time>2022-07-29T10:49:46.000Z</time>
      </trkpt>
      <trkpt lat="42.10016266442835330963134765625" lon="2.79271795414388179779052734375">
        <ele>108</ele>
        <time>2022-07-29T10:49:47.000Z</time>
      </trkpt>
      <trkpt lat="42.1002039872109889984130859375" lon="2.79265123419463634490966796875">
        <ele>108</ele>
        <time>2022-07-29T10:49:48.000Z</time>
      </trkpt>
      <trkpt lat="42.10053113289177417755126953125" lon="2.7921234257519245147705078125">
        <ele>109</ele>
        <time>2022-07-29T10:49:55.000Z</time>
      </trkpt>
      <trkpt lat="42.10061243735253810882568359375" lon="2.79199191369116306304931640625">
        <ele>109.1999969482421875</ele>
        <time>2022-07-29T10:49:57.000Z</time>
      </trkpt>
      <trkpt lat="42.100976966321468353271484375" lon="2.791387327015399932861328125">
        <ele>109.8000030517578125</ele>
        <time>2022-07-29T10:50:06.000Z</time>
      </trkpt>
      <trkpt lat="42.10106036625802516937255859375" lon="2.79125128872692584991455078125">
        <ele>110</ele>
        <time>2022-07-29T10:50:09.000Z</time>
      </trkpt>
      <trkpt lat="42.101334370672702789306640625" lon="2.79079883359372615814208984375">
        <ele>110.59999847412109375</ele>
        <time>2022-07-29T10:50:16.000Z</time>
      </trkpt>
      <trkpt lat="42.10140469484031200408935546875" lon="2.79069204814732074737548828125">
        <ele>110.8000030517578125</ele>
        <time>2022-07-29T10:50:17.000Z</time>
      </trkpt>
      <trkpt lat="42.10156043060123920440673828125" lon="2.79050110839307308197021484375">
        <ele>110.8000030517578125</ele>
        <time>2022-07-29T10:50:21.000Z</time>
      </trkpt>
      <trkpt lat="42.10166403092443943023681640625" lon="2.7903484739363193511962890625">
        <ele>111</ele>
        <time>2022-07-29T10:50:24.000Z</time>
      </trkpt>
      <trkpt lat="42.10172588936984539031982421875" lon="2.79024361632764339447021484375">
        <ele>111.1999969482421875</ele>
        <time>2022-07-29T10:50:27.000Z</time>
      </trkpt>
      <trkpt lat="42.10206368006765842437744140625" lon="2.789682112634181976318359375">
        <ele>111.59999847412109375</ele>
        <time>2022-07-29T10:50:36.000Z</time>
      </trkpt>
      <trkpt lat="42.10224338807165622711181640625" lon="2.7893899194896221160888671875">
        <ele>112</ele>
        <time>2022-07-29T10:50:41.000Z</time>
      </trkpt>
      <trkpt lat="42.1024664305150508880615234375" lon="2.78902404941618442535400390625">
        <ele>112.59999847412109375</ele>
        <time>2022-07-29T10:50:47.000Z</time>
      </trkpt>
      <trkpt lat="42.10275803692638874053955078125" lon="2.7885326184332370758056640625">
        <ele>113</ele>
        <time>2022-07-29T10:50:55.000Z</time>
      </trkpt>
      <trkpt lat="42.10290321148931980133056640625" lon="2.78828560374677181243896484375">
        <ele>113.1999969482421875</ele>
        <time>2022-07-29T10:50:59.000Z</time>
      </trkpt>
      <trkpt lat="42.103275619447231292724609375" lon="2.7876595593988895416259765625">
        <ele>114.1999969482421875</ele>
        <time>2022-07-29T10:51:09.000Z</time>
      </trkpt>
      <trkpt lat="42.10331191308796405792236328125" lon="2.7875943481922149658203125">
        <ele>114.40000152587890625</ele>
        <time>2022-07-29T10:51:10.000Z</time>
      </trkpt>
      <trkpt lat="42.10354945622384548187255859375" lon="2.78721137903630733489990234375">
        <ele>115.40000152587890625</ele>
        <time>2022-07-29T10:51:16.000Z</time>
      </trkpt>
      <trkpt lat="42.10363059304654598236083984375" lon="2.7870855666697025299072265625">
        <ele>115.40000152587890625</ele>
        <time>2022-07-29T10:51:18.000Z</time>
      </trkpt>
      <trkpt lat="42.10390099324285984039306640625" lon="2.7866426669061183929443359375">
        <ele>115.8000030517578125</ele>
        <time>2022-07-29T10:51:25.000Z</time>
      </trkpt>
      <trkpt lat="42.1041961200535297393798828125" lon="2.7861357294023036956787109375">
        <ele>116.40000152587890625</ele>
        <time>2022-07-29T10:51:33.000Z</time>
      </trkpt>
      <trkpt lat="42.104234509170055389404296875" lon="2.78607227839529514312744140625">
        <ele>116.40000152587890625</ele>
        <time>2022-07-29T10:51:34.000Z</time>
      </trkpt>
      <trkpt lat="42.10446325130760669708251953125" lon="2.78571152128279209136962890625">
        <ele>117</ele>
        <time>2022-07-29T10:51:40.000Z</time>
      </trkpt>
      <trkpt lat="42.1045002155005931854248046875" lon="2.78565066866576671600341796875">
        <ele>117.1999969482421875</ele>
        <time>2022-07-29T10:51:41.000Z</time>
      </trkpt>
      <trkpt lat="42.1045404486358165740966796875" lon="2.78559434227645397186279296875">
        <ele>117.40000152587890625</ele>
        <time>2022-07-29T10:51:42.000Z</time>
      </trkpt>
      <trkpt lat="42.104634828865528106689453125" lon="2.78550230897963047027587890625">
        <ele>117.59999847412109375</ele>
        <time>2022-07-29T10:51:44.000Z</time>
      </trkpt>
      <trkpt lat="42.104706577956676483154296875" lon="2.7853793464601039886474609375">
        <ele>117.8000030517578125</ele>
        <time>2022-07-29T10:51:47.000Z</time>
      </trkpt>
      <trkpt lat="42.1047342382371425628662109375" lon="2.7853117883205413818359375">
        <ele>117.8000030517578125</ele>
        <time>2022-07-29T10:51:48.000Z</time>
      </trkpt>
      <trkpt lat="42.104789726436138153076171875" lon="2.78509117662906646728515625">
        <ele>118</ele>
        <time>2022-07-29T10:51:51.000Z</time>
      </trkpt>
      <trkpt lat="42.1048153750598430633544921875" lon="2.7850206010043621063232421875">
        <ele>118</ele>
        <time>2022-07-29T10:51:52.000Z</time>
      </trkpt>
      <trkpt lat="42.10493699647486209869384765625" lon="2.78486008755862712860107421875">
        <ele>118.1999969482421875</ele>
        <time>2022-07-29T10:51:55.000Z</time>
      </trkpt>
      <trkpt lat="42.10502802394330501556396484375" lon="2.784766964614391326904296875">
        <ele>118.1999969482421875</ele>
        <time>2022-07-29T10:51:56.000Z</time>
      </trkpt>
      <trkpt lat="42.1051050536334514617919921875" lon="2.78465590439736843109130859375">
        <ele>118.59999847412109375</ele>
        <time>2022-07-29T10:51:58.000Z</time>
      </trkpt>
      <trkpt lat="42.1051050536334514617919921875" lon="2.78465590439736843109130859375">
        <ele>118.59999847412109375</ele>
        <time>2022-07-29T10:51:59.000Z</time>
      </trkpt>
      <trkpt lat="42.1054088138043880462646484375" lon="2.784163467586040496826171875">
        <ele>119.40000152587890625</ele>
        <time>2022-07-29T10:52:06.000Z</time>
      </trkpt>
      <trkpt lat="42.10548550821840763092041015625" lon="2.784036062657833099365234375">
        <ele>119.59999847412109375</ele>
        <time>2022-07-29T10:52:08.000Z</time>
      </trkpt>
      <trkpt lat="42.10585447959601879119873046875" lon="2.78340884484350681304931640625">
        <ele>119.59999847412109375</ele>
        <time>2022-07-29T10:52:18.000Z</time>
      </trkpt>
      <trkpt lat="42.1061169169843196868896484375" lon="2.78298296034336090087890625">
        <ele>120.1999969482421875</ele>
        <time>2022-07-29T10:52:25.000Z</time>
      </trkpt>
      <trkpt lat="42.10615153424441814422607421875" lon="2.78293023817241191864013671875">
        <ele>120.40000152587890625</ele>
        <time>2022-07-29T10:52:26.000Z</time>
      </trkpt>
      <trkpt lat="42.106299139559268951416015625" lon="2.7826927788555622100830078125">
        <ele>121</ele>
        <time>2022-07-29T10:52:32.000Z</time>
      </trkpt>
      <trkpt lat="42.10634465329349040985107421875" lon="2.782580293715000152587890625">
        <ele>121.1999969482421875</ele>
        <time>2022-07-29T10:52:34.000Z</time>
      </trkpt>
      <trkpt lat="42.1064290590584278106689453125" lon="2.78239932842552661895751953125">
        <ele>121.59999847412109375</ele>
        <time>2022-07-29T10:52:37.000Z</time>
      </trkpt>
      <trkpt lat="42.106687389314174652099609375" lon="2.78191351331770420074462890625">
        <ele>122.1999969482421875</ele>
        <time>2022-07-29T10:52:45.000Z</time>
      </trkpt>
      <trkpt lat="42.106786631047725677490234375" lon="2.78173380531370639801025390625">
        <ele>122.1999969482421875</ele>
        <time>2022-07-29T10:52:47.000Z</time>
      </trkpt>
      <trkpt lat="42.10707999765872955322265625" lon="2.78126827441155910491943359375">
        <ele>122.40000152587890625</ele>
        <time>2022-07-29T10:52:55.000Z</time>
      </trkpt>
      <trkpt lat="42.107168175280094146728515625" lon="2.7811528556048870086669921875">
        <ele>122.59999847412109375</ele>
        <time>2022-07-29T10:52:57.000Z</time>
      </trkpt>
      <trkpt lat="42.1072776429355144500732421875" lon="2.78096786700189113616943359375">
        <ele>123.1999969482421875</ele>
        <time>2022-07-29T10:53:00.000Z</time>
      </trkpt>
      <trkpt lat="42.107631862163543701171875" lon="2.78039102442562580108642578125">
        <ele>124</ele>
        <time>2022-07-29T10:53:09.000Z</time>
      </trkpt>
      <trkpt lat="42.10775381885468959808349609375" lon="2.7801887691020965576171875">
        <ele>124.1999969482421875</ele>
        <time>2022-07-29T10:53:12.000Z</time>
      </trkpt>
      <trkpt lat="42.10807752795517444610595703125" lon="2.77964687906205654144287109375">
        <ele>124.40000152587890625</ele>
        <time>2022-07-29T10:53:20.000Z</time>
      </trkpt>
      <trkpt lat="42.10851422511041164398193359375" lon="2.77900792658329010009765625">
        <ele>124.59999847412109375</ele>
        <time>2022-07-29T10:53:30.000Z</time>
      </trkpt>
      <trkpt lat="42.10880558006465435028076171875" lon="2.778668291866779327392578125">
        <ele>124.8000030517578125</ele>
        <time>2022-07-29T10:53:37.000Z</time>
      </trkpt>
      <trkpt lat="42.10918360389769077301025390625" lon="2.77822195552289485931396484375">
        <ele>125.40000152587890625</ele>
        <time>2022-07-29T10:53:44.000Z</time>
      </trkpt>
      <trkpt lat="42.10927345789968967437744140625" lon="2.77810092084109783172607421875">
        <ele>125.59999847412109375</ele>
        <time>2022-07-29T10:53:46.000Z</time>
      </trkpt>
      <trkpt lat="42.10931318812072277069091796875" lon="2.77803587727248668670654296875">
        <ele>125.59999847412109375</ele>
        <time>2022-07-29T10:53:47.000Z</time>
      </trkpt>
      <trkpt lat="42.10950043983757495880126953125" lon="2.77771317400038242340087890625">
        <ele>126.1999969482421875</ele>
        <time>2022-07-29T10:53:52.000Z</time>
      </trkpt>
      <trkpt lat="42.1095752902328968048095703125" lon="2.77759046293795108795166015625">
        <ele>126.59999847412109375</ele>
        <time>2022-07-29T10:53:55.000Z</time>
      </trkpt>
      <trkpt lat="42.10966430604457855224609375" lon="2.7774866111576557159423828125">
        <ele>126.59999847412109375</ele>
        <time>2022-07-29T10:53:56.000Z</time>
      </trkpt>
      <trkpt lat="42.1098813973367214202880859375" lon="2.7771499939262866973876953125">
        <ele>127</ele>
        <time>2022-07-29T10:54:02.000Z</time>
      </trkpt>
      <trkpt lat="42.10994602181017398834228515625" lon="2.77703625150024890899658203125">
        <ele>127.40000152587890625</ele>
        <time>2022-07-29T10:54:04.000Z</time>
      </trkpt>
      <trkpt lat="42.11005213670432567596435546875" lon="2.7768727205693721771240234375">
        <ele>128.399993896484375</ele>
        <time>2022-07-29T10:54:08.000Z</time>
      </trkpt>
      <trkpt lat="42.11016613058745861053466796875" lon="2.77670927345752716064453125">
        <ele>129.1999969482421875</ele>
        <time>2022-07-29T10:54:10.000Z</time>
      </trkpt>
      <trkpt lat="42.11016613058745861053466796875" lon="2.77670927345752716064453125">
        <ele>129.399993896484375</ele>
        <time>2022-07-29T10:54:11.000Z</time>
      </trkpt>
      <trkpt lat="42.1104962937533855438232421875" lon="2.776185907423496246337890625">
        <ele>129.8000030517578125</ele>
        <time>2022-07-29T10:54:19.000Z</time>
      </trkpt>
      <trkpt lat="42.1106813661754131317138671875" lon="2.77588491328060626983642578125">
        <ele>129.8000030517578125</ele>
        <time>2022-07-29T10:54:25.000Z</time>
      </trkpt>
      <trkpt lat="42.11071514524519443511962890625" lon="2.7758487872779369354248046875">
        <ele>130</ele>
        <time>2022-07-29T10:54:27.000Z</time>
      </trkpt>
      <trkpt lat="42.11084975861012935638427734375" lon="2.7757944725453853607177734375">
        <ele>130</ele>
        <time>2022-07-29T10:54:29.000Z</time>
      </trkpt>
      <trkpt lat="42.1108962781727313995361328125" lon="2.77577008120715618133544921875">
        <ele>130.399993896484375</ele>
        <time>2022-07-29T10:54:31.000Z</time>
      </trkpt>
      <trkpt lat="42.1109403669834136962890625" lon="2.77573755942285060882568359375">
        <ele>130.8000030517578125</ele>
        <time>2022-07-29T10:54:32.000Z</time>
      </trkpt>
      <trkpt lat="42.111007086932659149169921875" lon="2.7756419219076633453369140625">
        <ele>131</ele>
        <time>2022-07-29T10:54:34.000Z</time>
      </trkpt>
      <trkpt lat="42.1110551990568637847900390625" lon="2.77538166381418704986572265625">
        <ele>131.399993896484375</ele>
        <time>2022-07-29T10:54:37.000Z</time>
      </trkpt>
      <trkpt lat="42.11106969974935054779052734375" lon="2.77531645260751247406005859375">
        <ele>131.600006103515625</ele>
        <time>2022-07-29T10:54:38.000Z</time>
      </trkpt>
      <trkpt lat="42.1111299656331539154052734375" lon="2.77520991861820220947265625">
        <ele>131.8000030517578125</ele>
        <time>2022-07-29T10:54:40.000Z</time>
      </trkpt>
      <trkpt lat="42.111391313374042510986328125" lon="2.77490414679050445556640625">
        <ele>132.399993896484375</ele>
        <time>2022-07-29T10:54:47.000Z</time>
      </trkpt>
      <trkpt lat="42.111601531505584716796875" lon="2.77465662918984889984130859375">
        <ele>132.8000030517578125</ele>
        <time>2022-07-29T10:54:52.000Z</time>
      </trkpt>
      <trkpt lat="42.1116878651082515716552734375" lon="2.77455571107566356658935546875">
        <ele>133.1999969482421875</ele>
        <time>2022-07-29T10:54:55.000Z</time>
      </trkpt>
      <trkpt lat="42.1121176891028881072998046875" lon="2.7740523777902126312255859375">
        <ele>133.600006103515625</ele>
        <time>2022-07-29T10:55:04.000Z</time>
      </trkpt>
      <trkpt lat="42.1121589280664920806884765625" lon="2.77400066144764423370361328125">
        <ele>133.600006103515625</ele>
        <time>2022-07-29T10:55:05.000Z</time>
      </trkpt>
      <trkpt lat="42.11224199272692203521728515625" lon="2.7738984860479831695556640625">
        <ele>133.8000030517578125</ele>
        <time>2022-07-29T10:55:08.000Z</time>
      </trkpt>
      <trkpt lat="42.112395800650119781494140625" lon="2.7737321890890598297119140625">
        <ele>134.8000030517578125</ele>
        <time>2022-07-29T10:55:12.000Z</time>
      </trkpt>
      <trkpt lat="42.11247551254928112030029296875" lon="2.77369891293346881866455078125">
        <ele>134.8000030517578125</ele>
        <time>2022-07-29T10:55:13.000Z</time>
      </trkpt>
      <trkpt lat="42.11247551254928112030029296875" lon="2.77369891293346881866455078125">
        <ele>135</ele>
        <time>2022-07-29T10:55:14.000Z</time>
      </trkpt>
      <trkpt lat="42.1125535480678081512451171875" lon="2.77365046553313732147216796875">
        <ele>135</ele>
        <time>2022-07-29T10:55:15.000Z</time>
      </trkpt>
      <trkpt lat="42.1126226149499416351318359375" lon="2.77357217855751514434814453125">
        <ele>135.8000030517578125</ele>
        <time>2022-07-29T10:55:18.000Z</time>
      </trkpt>
      <trkpt lat="42.11265220306813716888427734375" lon="2.7734572626650333404541015625">
        <ele>136</ele>
        <time>2022-07-29T10:55:20.000Z</time>
      </trkpt>
      <trkpt lat="42.11264750920236110687255859375" lon="2.77339481748640537261962890625">
        <ele>136</ele>
        <time>2022-07-29T10:55:21.000Z</time>
      </trkpt>
      <trkpt lat="42.1125800348818302154541015625" lon="2.77321862988173961639404296875">
        <ele>136.1999969482421875</ele>
        <time>2022-07-29T10:55:24.000Z</time>
      </trkpt>
      <trkpt lat="42.11254843510687351226806640625" lon="2.77316071093082427978515625">
        <ele>136.399993896484375</ele>
        <time>2022-07-29T10:55:25.000Z</time>
      </trkpt>
      <trkpt lat="42.11248221807181835174560546875" lon="2.77295887470245361328125">
        <ele>136.399993896484375</ele>
        <time>2022-07-29T10:55:28.000Z</time>
      </trkpt>
      <trkpt lat="42.112467549741268157958984375" lon="2.77288444340229034423828125">
        <ele>136.600006103515625</ele>
        <time>2022-07-29T10:55:29.000Z</time>
      </trkpt>
      <trkpt lat="42.1123895980417728424072265625" lon="2.77227415703237056732177734375">
        <ele>136.8000030517578125</ele>
        <time>2022-07-29T10:55:37.000Z</time>
      </trkpt>
      <trkpt lat="42.11230066604912281036376953125" lon="2.7715683169662952423095703125">
        <ele>136.8000030517578125</ele>
        <time>2022-07-29T10:55:46.000Z</time>
      </trkpt>
      <trkpt lat="42.1121646277606487274169921875" lon="2.77080698870122432708740234375">
        <ele>136.8000030517578125</ele>
        <time>2022-07-29T10:55:54.000Z</time>
      </trkpt>
      <trkpt lat="42.1121492050588130950927734375" lon="2.77072216384112834930419921875">
        <ele>136.8000030517578125</ele>
        <time>2022-07-29T10:55:55.000Z</time>
      </trkpt>
      <trkpt lat="42.1120851673185825347900390625" lon="2.770408429205417633056640625">
        <ele>136.8000030517578125</ele>
        <time>2022-07-29T10:56:00.000Z</time>
      </trkpt>
      <trkpt lat="42.112061195075511932373046875" lon="2.7702672779560089111328125">
        <ele>137</ele>
        <time>2022-07-29T10:56:02.000Z</time>
      </trkpt>
      <trkpt lat="42.1120590157806873321533203125" lon="2.77019955217838287353515625">
        <ele>137</ele>
        <time>2022-07-29T10:56:03.000Z</time>
      </trkpt>
      <trkpt lat="42.11208768188953399658203125" lon="2.7699821256101131439208984375">
        <ele>137.1999969482421875</ele>
        <time>2022-07-29T10:56:06.000Z</time>
      </trkpt>
      <trkpt lat="42.11209732107818126678466796875" lon="2.76990677230060100555419921875">
        <ele>137.399993896484375</ele>
        <time>2022-07-29T10:56:07.000Z</time>
      </trkpt>
      <trkpt lat="42.11208525113761425018310546875" lon="2.76967677287757396697998046875">
        <ele>137.600006103515625</ele>
        <time>2022-07-29T10:56:10.000Z</time>
      </trkpt>
      <trkpt lat="42.11205306462943553924560546875" lon="2.7695362083613872528076171875">
        <ele>137.600006103515625</ele>
        <time>2022-07-29T10:56:12.000Z</time>
      </trkpt>
      <trkpt lat="42.11200076155364513397216796875" lon="2.7694191969931125640869140625">
        <ele>137.8000030517578125</ele>
        <time>2022-07-29T10:56:14.000Z</time>
      </trkpt>
      <trkpt lat="42.11196891032159328460693359375" lon="2.769369073212146759033203125">
        <ele>138</ele>
        <time>2022-07-29T10:56:15.000Z</time>
      </trkpt>
      <trkpt lat="42.1118394099175930023193359375" lon="2.76905466802418231964111328125">
        <ele>138.8000030517578125</ele>
        <time>2022-07-29T10:56:19.000Z</time>
      </trkpt>
      <trkpt lat="42.1118394099175930023193359375" lon="2.76905466802418231964111328125">
        <ele>139</ele>
        <time>2022-07-29T10:56:20.000Z</time>
      </trkpt>
      <trkpt lat="42.1118005178868770599365234375" lon="2.768732048571109771728515625">
        <ele>139.8000030517578125</ele>
        <time>2022-07-29T10:56:24.000Z</time>
      </trkpt>
      <trkpt lat="42.11180546320974826812744140625" lon="2.76850649155676364898681640625">
        <ele>140</ele>
        <time>2022-07-29T10:56:26.000Z</time>
      </trkpt>
      <trkpt lat="42.11186715401709079742431640625" lon="2.768122516572475433349609375">
        <ele>140.8000030517578125</ele>
        <time>2022-07-29T10:56:32.000Z</time>
      </trkpt>
      <trkpt lat="42.11186715401709079742431640625" lon="2.768122516572475433349609375">
        <ele>140.8000030517578125</ele>
        <time>2022-07-29T10:56:33.000Z</time>
      </trkpt>
      <trkpt lat="42.11188190616667270660400390625" lon="2.7680700458586215972900390625">
        <ele>140.8000030517578125</ele>
        <time>2022-07-29T10:56:34.000Z</time>
      </trkpt>
      <trkpt lat="42.1119446866214275360107421875" lon="2.7679208479821681976318359375">
        <ele>142</ele>
        <time>2022-07-29T10:56:38.000Z</time>
      </trkpt>
      <trkpt lat="42.1119812317192554473876953125" lon="2.76787449605762958526611328125">
        <ele>142.399993896484375</ele>
        <time>2022-07-29T10:56:40.000Z</time>
      </trkpt>
      <trkpt lat="42.1120248176157474517822265625" lon="2.767811380326747894287109375">
        <ele>143.1999969482421875</ele>
        <time>2022-07-29T10:56:42.000Z</time>
      </trkpt>
      <trkpt lat="42.11204702965915203094482421875" lon="2.7677746675908565521240234375">
        <ele>143.399993896484375</ele>
        <time>2022-07-29T10:56:43.000Z</time>
      </trkpt>
      <trkpt lat="42.11210972629487514495849609375" lon="2.76764902286231517791748046875">
        <ele>144.399993896484375</ele>
        <time>2022-07-29T10:56:46.000Z</time>
      </trkpt>
      <trkpt lat="42.1121917851269245147705078125" lon="2.76747132651507854461669921875">
        <ele>145.1999969482421875</ele>
        <time>2022-07-29T10:56:50.000Z</time>
      </trkpt>
      <trkpt lat="42.112214080989360809326171875" lon="2.76743042282760143280029296875">
        <ele>145.600006103515625</ele>
        <time>2022-07-29T10:56:51.000Z</time>
      </trkpt>
      <trkpt lat="42.11231566965579986572265625" lon="2.7672201208770275115966796875">
        <ele>146.1999969482421875</ele>
        <time>2022-07-29T10:56:56.000Z</time>
      </trkpt>
      <trkpt lat="42.11237777955830097198486328125" lon="2.76710000820457935333251953125">
        <ele>146.600006103515625</ele>
        <time>2022-07-29T10:56:59.000Z</time>
      </trkpt>
      <trkpt lat="42.11247769184410572052001953125" lon="2.76688341982662677764892578125">
        <ele>147.600006103515625</ele>
        <time>2022-07-29T10:57:04.000Z</time>
      </trkpt>
      <trkpt lat="42.11251842789351940155029296875" lon="2.7668020315468311309814453125">
        <ele>148</ele>
        <time>2022-07-29T10:57:06.000Z</time>
      </trkpt>
      <trkpt lat="42.11259453557431697845458984375" lon="2.7666434459388256072998046875">
        <ele>148.600006103515625</ele>
        <time>2022-07-29T10:57:10.000Z</time>
      </trkpt>
      <trkpt lat="42.1126648597419261932373046875" lon="2.7664788253605365753173828125">
        <ele>149.8000030517578125</ele>
        <time>2022-07-29T10:57:14.000Z</time>
      </trkpt>
      <trkpt lat="42.112738788127899169921875" lon="2.766316719353199005126953125">
        <ele>150.8000030517578125</ele>
        <time>2022-07-29T10:57:18.000Z</time>
      </trkpt>
      <trkpt lat="42.11277692578732967376708984375" lon="2.76624019257724285125732421875">
        <ele>151.399993896484375</ele>
        <time>2022-07-29T10:57:20.000Z</time>
      </trkpt>
      <trkpt lat="42.11287088692188262939453125" lon="2.766029722988605499267578125">
        <ele>151.8000030517578125</ele>
        <time>2022-07-29T10:57:24.000Z</time>
      </trkpt>
      <trkpt lat="42.11294657550752162933349609375" lon="2.76585881598293781280517578125">
        <ele>152.399993896484375</ele>
        <time>2022-07-29T10:57:29.000Z</time>
      </trkpt>
      <trkpt lat="42.11301916278898715972900390625" lon="2.76568648405373096466064453125">
        <ele>152.8000030517578125</ele>
        <time>2022-07-29T10:57:33.000Z</time>
      </trkpt>
      <trkpt lat="42.11308688856661319732666015625" lon="2.76550459675490856170654296875">
        <ele>153.399993896484375</ele>
        <time>2022-07-29T10:57:37.000Z</time>
      </trkpt>
      <trkpt lat="42.11316534318029880523681640625" lon="2.76532807387411594390869140625">
        <ele>154</ele>
        <time>2022-07-29T10:57:41.000Z</time>
      </trkpt>
      <trkpt lat="42.113248072564601898193359375" lon="2.76515272445976734161376953125">
        <ele>154.600006103515625</ele>
        <time>2022-07-29T10:57:45.000Z</time>
      </trkpt>
      <trkpt lat="42.11330397985875606536865234375" lon="2.7650089748203754425048828125">
        <ele>155</ele>
        <time>2022-07-29T10:57:48.000Z</time>
      </trkpt>
      <trkpt lat="42.11339391767978668212890625" lon="2.76482029817998409271240234375">
        <ele>156.1999969482421875</ele>
        <time>2022-07-29T10:57:52.000Z</time>
      </trkpt>
      <trkpt lat="42.1134534291923046112060546875" lon="2.76474402286112308502197265625">
        <ele>156.600006103515625</ele>
        <time>2022-07-29T10:57:54.000Z</time>
      </trkpt>
      <trkpt lat="42.11351302452385425567626953125" lon="2.764664478600025177001953125">
        <ele>156.8000030517578125</ele>
        <time>2022-07-29T10:57:55.000Z</time>
      </trkpt>
      <trkpt lat="42.1135610528290271759033203125" lon="2.7645744569599628448486328125">
        <ele>157.1999969482421875</ele>
        <time>2022-07-29T10:57:58.000Z</time>
      </trkpt>
      <trkpt lat="42.11358242668211460113525390625" lon="2.7645255066454410552978515625">
        <ele>157.1999969482421875</ele>
        <time>2022-07-29T10:57:59.000Z</time>
      </trkpt>
      <trkpt lat="42.11372005753219127655029296875" lon="2.76422149501740932464599609375">
        <ele>157.600006103515625</ele>
        <time>2022-07-29T10:58:04.000Z</time>
      </trkpt>
      <trkpt lat="42.11379733867943286895751953125" lon="2.76409157551825046539306640625">
        <ele>157.8000030517578125</ele>
        <time>2022-07-29T10:58:08.000Z</time>
      </trkpt>
      <trkpt lat="42.11388073861598968505859375" lon="2.76396081782877445220947265625">
        <ele>158</ele>
        <time>2022-07-29T10:58:10.000Z</time>
      </trkpt>
      <trkpt lat="42.11388073861598968505859375" lon="2.76396081782877445220947265625">
        <ele>158.1999969482421875</ele>
        <time>2022-07-29T10:58:11.000Z</time>
      </trkpt>
      <trkpt lat="42.113907895982265472412109375" lon="2.76392058469355106353759765625">
        <ele>158.399993896484375</ele>
        <time>2022-07-29T10:58:12.000Z</time>
      </trkpt>
      <trkpt lat="42.1139627136290073394775390625" lon="2.7638267911970615386962890625">
        <ele>158.600006103515625</ele>
        <time>2022-07-29T10:58:14.000Z</time>
      </trkpt>
      <trkpt lat="42.114037312567234039306640625" lon="2.76366225443780422210693359375">
        <ele>159.1999969482421875</ele>
        <time>2022-07-29T10:58:17.000Z</time>
      </trkpt>
      <trkpt lat="42.114170752465724945068359375" lon="2.7633852325379848480224609375">
        <ele>160</ele>
        <time>2022-07-29T10:58:22.000Z</time>
      </trkpt>
      <trkpt lat="42.1142808906733989715576171875" lon="2.76316319592297077178955078125">
        <ele>160.1999969482421875</ele>
        <time>2022-07-29T10:58:26.000Z</time>
      </trkpt>
      <trkpt lat="42.11433478631079196929931640625" lon="2.76304970495402812957763671875">
        <ele>160.399993896484375</ele>
        <time>2022-07-29T10:58:28.000Z</time>
      </trkpt>
      <trkpt lat="42.1143683977425098419189453125" lon="2.76299790479242801666259765625">
        <ele>160.399993896484375</ele>
        <time>2022-07-29T10:58:29.000Z</time>
      </trkpt>
      <trkpt lat="42.1143950521945953369140625" lon="2.762940824031829833984375">
        <ele>160.399993896484375</ele>
        <time>2022-07-29T10:58:30.000Z</time>
      </trkpt>
      <trkpt lat="42.11446948349475860595703125" lon="2.76276723481714725494384765625">
        <ele>160.8000030517578125</ele>
        <time>2022-07-29T10:58:33.000Z</time>
      </trkpt>
      <trkpt lat="42.114516757428646087646484375" lon="2.762656174600124359130859375">
        <ele>161.1999969482421875</ele>
        <time>2022-07-29T10:58:35.000Z</time>
      </trkpt>
      <trkpt lat="42.11454316042363643646240234375" lon="2.76259959675371646881103515625">
        <ele>161.399993896484375</ele>
        <time>2022-07-29T10:58:36.000Z</time>
      </trkpt>
      <trkpt lat="42.11459420621395111083984375" lon="2.7624876983463764190673828125">
        <ele>161.600006103515625</ele>
        <time>2022-07-29T10:58:38.000Z</time>
      </trkpt>
      <trkpt lat="42.1147975511848926544189453125" lon="2.762098275125026702880859375">
        <ele>162.1999969482421875</ele>
        <time>2022-07-29T10:58:45.000Z</time>
      </trkpt>
      <trkpt lat="42.1149501018226146697998046875" lon="2.76182997040450572967529296875">
        <ele>163</ele>
        <time>2022-07-29T10:58:51.000Z</time>
      </trkpt>
      <trkpt lat="42.114979438483715057373046875" lon="2.76178856380283832550048828125">
        <ele>163</ele>
        <time>2022-07-29T10:58:52.000Z</time>
      </trkpt>
      <trkpt lat="42.11508329026401042938232421875" lon="2.76164473034441471099853515625">
        <ele>163.1999969482421875</ele>
        <time>2022-07-29T10:58:55.000Z</time>
      </trkpt>
      <trkpt lat="42.11511380039155483245849609375" lon="2.7615834586322307586669921875">
        <ele>163.1999969482421875</ele>
        <time>2022-07-29T10:58:56.000Z</time>
      </trkpt>
      <trkpt lat="42.11514984257519245147705078125" lon="2.76153107173740863800048828125">
        <ele>163.1999969482421875</ele>
        <time>2022-07-29T10:58:57.000Z</time>
      </trkpt>
      <trkpt lat="42.11528194136917591094970703125" lon="2.7614014036953449249267578125">
        <ele>163.1999969482421875</ele>
        <time>2022-07-29T10:58:59.000Z</time>
      </trkpt>
      <trkpt lat="42.1155680157244205474853515625" lon="2.76113661937415599822998046875">
        <ele>163.1999969482421875</ele>
        <time>2022-07-29T10:59:06.000Z</time>
      </trkpt>
      <trkpt lat="42.11572282947599887847900390625" lon="2.76089002378284931182861328125">
        <ele>163.1999969482421875</ele>
        <time>2022-07-29T10:59:09.000Z</time>
      </trkpt>
      <trkpt lat="42.1157547645270824432373046875" lon="2.76082397438585758209228515625">
        <ele>163.1999969482421875</ele>
        <time>2022-07-29T10:59:11.000Z</time>
      </trkpt>
      <trkpt lat="42.11591108702123165130615234375" lon="2.76039750315248966217041015625">
        <ele>163.1999969482421875</ele>
        <time>2022-07-29T10:59:17.000Z</time>
      </trkpt>
      <trkpt lat="42.11607285775244235992431640625" lon="2.75978411547839641571044921875">
        <ele>164</ele>
        <time>2022-07-29T10:59:24.000Z</time>
      </trkpt>
      <trkpt lat="42.1161854267120361328125" lon="2.75923468172550201416015625">
        <ele>164</ele>
        <time>2022-07-29T10:59:31.000Z</time>
      </trkpt>
      <trkpt lat="42.116237394511699676513671875" lon="2.75905706919729709625244140625">
        <ele>164</ele>
        <time>2022-07-29T10:59:32.000Z</time>
      </trkpt>
      <trkpt lat="42.11633839644491672515869140625" lon="2.758829332888126373291015625">
        <ele>163.8000030517578125</ele>
        <time>2022-07-29T10:59:35.000Z</time>
      </trkpt>
      <trkpt lat="42.11645876057446002960205078125" lon="2.7586035244166851043701171875">
        <ele>163.600006103515625</ele>
        <time>2022-07-29T10:59:39.000Z</time>
      </trkpt>
      <trkpt lat="42.11645876057446002960205078125" lon="2.7586035244166851043701171875">
        <ele>163.600006103515625</ele>
        <time>2022-07-29T10:59:40.000Z</time>
      </trkpt>
      <trkpt lat="42.116492874920368194580078125" lon="2.75856287218630313873291015625">
        <ele>163.399993896484375</ele>
        <time>2022-07-29T10:59:41.000Z</time>
      </trkpt>
      <trkpt lat="42.11665472947061061859130859375" lon="2.758386433124542236328125">
        <ele>163.399993896484375</ele>
        <time>2022-07-29T10:59:45.000Z</time>
      </trkpt>
      <trkpt lat="42.116810716688632965087890625" lon="2.75824360549449920654296875">
        <ele>163.1999969482421875</ele>
        <time>2022-07-29T10:59:48.000Z</time>
      </trkpt>
      <trkpt lat="42.116965614259243011474609375" lon="2.75809474289417266845703125">
        <ele>163.1999969482421875</ele>
        <time>2022-07-29T10:59:51.000Z</time>
      </trkpt>
      <trkpt lat="42.11728253401815891265869140625" lon="2.75778184644877910614013671875">
        <ele>162.399993896484375</ele>
        <time>2022-07-29T10:59:56.000Z</time>
      </trkpt>
      <trkpt lat="42.1173315681517124176025390625" lon="2.7577230893075466156005859375">
        <ele>162.600006103515625</ele>
        <time>2022-07-29T10:59:57.000Z</time>
      </trkpt>
      <trkpt lat="42.11749057285487651824951171875" lon="2.75746031664311885833740234375">
        <ele>162.1999969482421875</ele>
        <time>2022-07-29T11:00:02.000Z</time>
      </trkpt>
      <trkpt lat="42.1177563630044460296630859375" lon="2.756916917860507965087890625">
        <ele>162.1999969482421875</ele>
        <time>2022-07-29T11:00:10.000Z</time>
      </trkpt>
      <trkpt lat="42.11787681095302104949951171875" lon="2.75674584321677684783935546875">
        <ele>162.1999969482421875</ele>
        <time>2022-07-29T11:00:14.000Z</time>
      </trkpt>
      <trkpt lat="42.11809641681611537933349609375" lon="2.756760008633136749267578125">
        <ele>164</ele>
        <time>2022-07-29T11:00:45.000Z</time>
      </trkpt>
      <trkpt lat="42.11813765577971935272216796875" lon="2.75678942911326885223388671875">
        <ele>164</ele>
        <time>2022-07-29T11:00:47.000Z</time>
      </trkpt>
      <trkpt lat="42.1182012744247913360595703125" lon="2.75683586485683917999267578125">
        <ele>164</ele>
        <time>2022-07-29T11:00:49.000Z</time>
      </trkpt>
      <trkpt lat="42.1182676590979099273681640625" lon="2.75689319707453250885009765625">
        <ele>164</ele>
        <time>2022-07-29T11:00:51.000Z</time>
      </trkpt>
      <trkpt lat="42.1184800565242767333984375" lon="2.75708883069455623626708984375">
        <ele>163.399993896484375</ele>
        <time>2022-07-29T11:00:57.000Z</time>
      </trkpt>
      <trkpt lat="42.1185643784701824188232421875" lon="2.757156305015087127685546875">
        <ele>163</ele>
        <time>2022-07-29T11:00:59.000Z</time>
      </trkpt>
      <trkpt lat="42.118691615760326385498046875" lon="2.757264263927936553955078125">
        <ele>162.600006103515625</ele>
        <time>2022-07-29T11:01:02.000Z</time>
      </trkpt>
      <trkpt lat="42.11894097737967967987060546875" lon="2.75748110376298427581787109375">
        <ele>162.399993896484375</ele>
        <time>2022-07-29T11:01:08.000Z</time>
      </trkpt>
      <trkpt lat="42.1192339248955249786376953125" lon="2.7577240951359272003173828125">
        <ele>162.399993896484375</ele>
        <time>2022-07-29T11:01:14.000Z</time>
      </trkpt>
      <trkpt lat="42.11929838173091411590576171875" lon="2.75776977650821208953857421875">
        <ele>162.399993896484375</ele>
        <time>2022-07-29T11:01:15.000Z</time>
      </trkpt>
      <trkpt lat="42.11942084133625030517578125" lon="2.7578380890190601348876953125">
        <ele>162.399993896484375</ele>
        <time>2022-07-29T11:01:17.000Z</time>
      </trkpt>
      <trkpt lat="42.1194793470203876495361328125" lon="2.75786063633859157562255859375">
        <ele>162.399993896484375</ele>
        <time>2022-07-29T11:01:18.000Z</time>
      </trkpt>
      <trkpt lat="42.11978453211486339569091796875" lon="2.75792953558266162872314453125">
        <ele>162.399993896484375</ele>
        <time>2022-07-29T11:01:23.000Z</time>
      </trkpt>
      <trkpt lat="42.120044790208339691162109375" lon="2.757960297167301177978515625">
        <ele>162.600006103515625</ele>
        <time>2022-07-29T11:01:28.000Z</time>
      </trkpt>
      <trkpt lat="42.1201924793422222137451171875" lon="2.7579800784587860107421875">
        <ele>162.399993896484375</ele>
        <time>2022-07-29T11:01:31.000Z</time>
      </trkpt>
      <trkpt lat="42.12029733695089817047119140625" lon="2.75801335461437702178955078125">
        <ele>162.399993896484375</ele>
        <time>2022-07-29T11:01:33.000Z</time>
      </trkpt>
      <trkpt lat="42.1203892864286899566650390625" lon="2.7580583654344081878662109375">
        <ele>162.399993896484375</ele>
        <time>2022-07-29T11:01:35.000Z</time>
      </trkpt>
      <trkpt lat="42.12053052149713039398193359375" lon="2.75815634988248348236083984375">
        <ele>162.600006103515625</ele>
        <time>2022-07-29T11:01:38.000Z</time>
      </trkpt>
      <trkpt lat="42.12077359668910503387451171875" lon="2.7583081461489200592041015625">
        <ele>163</ele>
        <time>2022-07-29T11:01:43.000Z</time>
      </trkpt>
      <trkpt lat="42.12100896053016185760498046875" lon="2.75834024883806705474853515625">
        <ele>163</ele>
        <time>2022-07-29T11:01:48.000Z</time>
      </trkpt>
      <trkpt lat="42.12129578925669193267822265625" lon="2.7583577670156955718994140625">
        <ele>163</ele>
        <time>2022-07-29T11:01:54.000Z</time>
      </trkpt>
      <trkpt lat="42.12153282947838306427001953125" lon="2.7583872713148593902587890625">
        <ele>163</ele>
        <time>2022-07-29T11:02:00.000Z</time>
      </trkpt>
      <trkpt lat="42.12177322246134281158447265625" lon="2.75839741341769695281982421875">
        <ele>163</ele>
        <time>2022-07-29T11:02:05.000Z</time>
      </trkpt>
      <trkpt lat="42.12208737619221210479736328125" lon="2.75840830989181995391845703125">
        <ele>163.399993896484375</ele>
        <time>2022-07-29T11:02:12.000Z</time>
      </trkpt>
      <trkpt lat="42.1222450397908687591552734375" lon="2.75841551832854747772216796875">
        <ele>163.1999969482421875</ele>
        <time>2022-07-29T11:02:16.000Z</time>
      </trkpt>
      <trkpt lat="42.122426591813564300537109375" lon="2.75871793739497661590576171875">
        <ele>164.1999969482421875</ele>
        <time>2022-07-29T11:02:50.000Z</time>
      </trkpt>
      <trkpt lat="42.12246305309236049652099609375" lon="2.75884802453219890594482421875">
        <ele>164</ele>
        <time>2022-07-29T11:02:53.000Z</time>
      </trkpt>
      <trkpt lat="42.12252373807132244110107421875" lon="2.75893427431583404541015625">
        <ele>164</ele>
        <time>2022-07-29T11:02:55.000Z</time>
      </trkpt>
      <trkpt lat="42.12268031202256679534912109375" lon="2.7589738368988037109375">
        <ele>163.8000030517578125</ele>
        <time>2022-07-29T11:02:58.000Z</time>
      </trkpt>
      <trkpt lat="42.12279631756246089935302734375" lon="2.75899864733219146728515625">
        <ele>163.600006103515625</ele>
        <time>2022-07-29T11:03:00.000Z</time>
      </trkpt>
      <trkpt lat="42.1230175159871578216552734375" lon="2.75908942334353923797607421875">
        <ele>163.1999969482421875</ele>
        <time>2022-07-29T11:03:04.000Z</time>
      </trkpt>
      <trkpt lat="42.1230693161487579345703125" lon="2.759116329252719879150390625">
        <ele>163</ele>
        <time>2022-07-29T11:03:05.000Z</time>
      </trkpt>
      <trkpt lat="42.12330727837979793548583984375" lon="2.7592482604086399078369140625">
        <ele>162.399993896484375</ele>
        <time>2022-07-29T11:03:10.000Z</time>
      </trkpt>
      <trkpt lat="42.12352671660482883453369140625" lon="2.75925605557858943939208984375">
        <ele>162.1999969482421875</ele>
        <time>2022-07-29T11:03:14.000Z</time>
      </trkpt>
      <trkpt lat="42.12402326054871082305908203125" lon="2.75924675166606903076171875">
        <ele>162.600006103515625</ele>
        <time>2022-07-29T11:03:22.000Z</time>
      </trkpt>
      <trkpt lat="42.12439239956438541412353515625" lon="2.75921967811882495880126953125">
        <ele>163.1999969482421875</ele>
        <time>2022-07-29T11:03:29.000Z</time>
      </trkpt>
      <trkpt lat="42.1245245821774005889892578125" lon="2.7592083625495433807373046875">
        <ele>163.1999969482421875</ele>
        <time>2022-07-29T11:03:33.000Z</time>
      </trkpt>
      <trkpt lat="42.12455634959042072296142578125" lon="2.75919872336089611053466796875">
        <ele>163.1999969482421875</ele>
        <time>2022-07-29T11:03:35.000Z</time>
      </trkpt>
      <trkpt lat="42.12456674315035343170166015625" lon="2.7592192590236663818359375">
        <ele>163.399993896484375</ele>
        <time>2022-07-29T11:03:36.000Z</time>
      </trkpt>
      <trkpt lat="42.12458074092864990234375" lon="2.75939150713384151458740234375">
        <ele>163.1999969482421875</ele>
        <time>2022-07-29T11:03:40.000Z</time>
      </trkpt>
      <trkpt lat="42.12460161186754703521728515625" lon="2.7598106861114501953125">
        <ele>163.1999969482421875</ele>
        <time>2022-07-29T11:03:47.000Z</time>
      </trkpt>
      <trkpt lat="42.12462390772998332977294921875" lon="2.7603685855865478515625">
        <ele>162.1999969482421875</ele>
        <time>2022-07-29T11:03:55.000Z</time>
      </trkpt>
      <trkpt lat="42.124636732041835784912109375" lon="2.76068500243127346038818359375">
        <ele>162</ele>
        <time>2022-07-29T11:04:00.000Z</time>
      </trkpt>
      <trkpt lat="42.12466481141746044158935546875" lon="2.7607905305922031402587890625">
        <ele>162</ele>
        <time>2022-07-29T11:04:02.000Z</time>
      </trkpt>
      <trkpt lat="42.12475684471428394317626953125" lon="2.76082296855747699737548828125">
        <ele>162.8000030517578125</ele>
        <time>2022-07-29T11:04:05.000Z</time>
      </trkpt>
      <trkpt lat="42.12488827295601367950439453125" lon="2.76071601547300815582275390625">
        <ele>163.1999969482421875</ele>
        <time>2022-07-29T11:04:08.000Z</time>
      </trkpt>
      <trkpt lat="42.1249379776418209075927734375" lon="2.76067636907100677490234375">
        <ele>163.1999969482421875</ele>
        <time>2022-07-29T11:04:09.000Z</time>
      </trkpt>
      <trkpt lat="42.1253275685012340545654296875" lon="2.760366238653659820556640625">
        <ele>163.1999969482421875</ele>
        <time>2022-07-29T11:04:16.000Z</time>
      </trkpt>
      <trkpt lat="42.1256511099636554718017578125" lon="2.76012542657554149627685546875">
        <ele>162.600006103515625</ele>
        <time>2022-07-29T11:04:22.000Z</time>
      </trkpt>
      <trkpt lat="42.12570391595363616943359375" lon="2.76008821092545986175537109375">
        <ele>162.399993896484375</ele>
        <time>2022-07-29T11:04:23.000Z</time>
      </trkpt>
      <trkpt lat="42.1258754096925258636474609375" lon="2.76001981459558010101318359375">
        <ele>162.1999969482421875</ele>
        <time>2022-07-29T11:04:26.000Z</time>
      </trkpt>
      <trkpt lat="42.1259867213666439056396484375" lon="2.75999684818089008331298828125">
        <ele>162.1999969482421875</ele>
        <time>2022-07-29T11:04:28.000Z</time>
      </trkpt>
      <trkpt lat="42.1264520846307277679443359375" lon="2.7599483169615268707275390625">
        <ele>162.1999969482421875</ele>
        <time>2022-07-29T11:04:36.000Z</time>
      </trkpt>
      <trkpt lat="42.12686740793287754058837890625" lon="2.7598809264600276947021484375">
        <ele>162.600006103515625</ele>
        <time>2022-07-29T11:04:44.000Z</time>
      </trkpt>
      <trkpt lat="42.12699548341333866119384765625" lon="2.75983876548707485198974609375">
        <ele>162.8000030517578125</ele>
        <time>2022-07-29T11:04:48.000Z</time>
      </trkpt>
      <trkpt lat="42.12703831493854522705078125" lon="2.75980641134083271026611328125">
        <ele>162.8000030517578125</ele>
        <time>2022-07-29T11:04:51.000Z</time>
      </trkpt>
      <trkpt lat="42.12704828940331935882568359375" lon="2.759812362492084503173828125">
        <ele>163</ele>
        <time>2022-07-29T11:04:52.000Z</time>
      </trkpt>
      <trkpt lat="42.12709506042301654815673828125" lon="2.75988939218223094940185546875">
        <ele>163.399993896484375</ele>
        <time>2022-07-29T11:04:56.000Z</time>
      </trkpt>
      <trkpt lat="42.1271098963916301727294921875" lon="2.7599228359758853912353515625">
        <ele>163.600006103515625</ele>
        <time>2022-07-29T11:04:57.000Z</time>
      </trkpt>
      <trkpt lat="42.12715088389813899993896484375" lon="2.76000439189374446868896484375">
        <ele>163.600006103515625</ele>
        <time>2022-07-29T11:04:59.000Z</time>
      </trkpt>
      <trkpt lat="42.127180807292461395263671875" lon="2.760051079094409942626953125">
        <ele>163.8000030517578125</ele>
        <time>2022-07-29T11:05:00.000Z</time>
      </trkpt>
      <trkpt lat="42.127386666834354400634765625" lon="2.76037755422294139862060546875">
        <ele>163.600006103515625</ele>
        <time>2022-07-29T11:05:06.000Z</time>
      </trkpt>
      <trkpt lat="42.12751465849578380584716796875" lon="2.76062062941491603851318359375">
        <ele>163.1999969482421875</ele>
        <time>2022-07-29T11:05:10.000Z</time>
      </trkpt>
      <trkpt lat="42.127540223300457000732421875" lon="2.76068215258419513702392578125">
        <ele>163</ele>
        <time>2022-07-29T11:05:11.000Z</time>
      </trkpt>
      <trkpt lat="42.127744071185588836669921875" lon="2.7612555585801601409912109375">
        <ele>163</ele>
        <time>2022-07-29T11:05:19.000Z</time>
      </trkpt>
      <trkpt lat="42.12779067456722259521484375" lon="2.7613849751651287078857421875">
        <ele>163</ele>
        <time>2022-07-29T11:05:20.000Z</time>
      </trkpt>
      <trkpt lat="42.12784322910010814666748046875" lon="2.76150408200919628143310546875">
        <ele>163.1999969482421875</ele>
        <time>2022-07-29T11:05:23.000Z</time>
      </trkpt>
      <trkpt lat="42.12787575088441371917724609375" lon="2.76155345141887664794921875">
        <ele>163.1999969482421875</ele>
        <time>2022-07-29T11:05:24.000Z</time>
      </trkpt>
      <trkpt lat="42.128004916012287139892578125" lon="2.7616706304252147674560546875">
        <ele>163.600006103515625</ele>
        <time>2022-07-29T11:05:28.000Z</time>
      </trkpt>
      <trkpt lat="42.12809485383331775665283203125" lon="2.7616726420819759368896484375">
        <ele>164.600006103515625</ele>
        <time>2022-07-29T11:05:31.000Z</time>
      </trkpt>
      <trkpt lat="42.12816660292446613311767578125" lon="2.76166417635977268218994140625">
        <ele>165.1999969482421875</ele>
        <time>2022-07-29T11:05:33.000Z</time>
      </trkpt>
      <trkpt lat="42.1282595582306385040283203125" lon="2.7616552077233791351318359375">
        <ele>165.600006103515625</ele>
        <time>2022-07-29T11:05:35.000Z</time>
      </trkpt>
      <trkpt lat="42.1284204907715320587158203125" lon="2.76161774061620235443115234375">
        <ele>165.8000030517578125</ele>
        <time>2022-07-29T11:05:38.000Z</time>
      </trkpt>
      <trkpt lat="42.128789126873016357421875" lon="2.76153199374675750732421875">
        <ele>165.600006103515625</ele>
        <time>2022-07-29T11:05:44.000Z</time>
      </trkpt>
      <trkpt lat="42.12912532500922679901123046875" lon="2.76144255883991718292236328125">
        <ele>164.600006103515625</ele>
        <time>2022-07-29T11:05:49.000Z</time>
      </trkpt>
      <trkpt lat="42.12926094420254230499267578125" lon="2.7614138089120388031005859375">
        <ele>164.399993896484375</ele>
        <time>2022-07-29T11:05:51.000Z</time>
      </trkpt>
      <trkpt lat="42.1295208670198917388916015625" lon="2.7613484300673007965087890625">
        <ele>164</ele>
        <time>2022-07-29T11:05:55.000Z</time>
      </trkpt>
      <trkpt lat="42.13005588389933109283447265625" lon="2.7612143196165561676025390625">
        <ele>164.1999969482421875</ele>
        <time>2022-07-29T11:06:02.000Z</time>
      </trkpt>
      <trkpt lat="42.13005588389933109283447265625" lon="2.7612143196165561676025390625">
        <ele>164.399993896484375</ele>
        <time>2022-07-29T11:06:03.000Z</time>
      </trkpt>
      <trkpt lat="42.13053884916007518768310546875" lon="2.7610738389194011688232421875">
        <ele>165.1999969482421875</ele>
        <time>2022-07-29T11:06:11.000Z</time>
      </trkpt>
      <trkpt lat="42.13068922050297260284423828125" lon="2.76105481199920177459716796875">
        <ele>165.1999969482421875</ele>
        <time>2022-07-29T11:06:14.000Z</time>
      </trkpt>
      <trkpt lat="42.13078024797141551971435546875" lon="2.76105699129402637481689453125">
        <ele>165.399993896484375</ele>
        <time>2022-07-29T11:06:16.000Z</time>
      </trkpt>
      <trkpt lat="42.13082299567759037017822265625" lon="2.7610594220459461212158203125">
        <ele>165.399993896484375</ele>
        <time>2022-07-29T11:06:17.000Z</time>
      </trkpt>
      <trkpt lat="42.130863480269908905029296875" lon="2.76106319390237331390380859375">
        <ele>165.1999969482421875</ele>
        <time>2022-07-29T11:06:18.000Z</time>
      </trkpt>
      <trkpt lat="42.13094101287424564361572265625" lon="2.76104693301022052764892578125">
        <ele>165.399993896484375</ele>
        <time>2022-07-29T11:06:21.000Z</time>
      </trkpt>
      <trkpt lat="42.130944617092609405517578125" lon="2.7609611861407756805419921875">
        <ele>165.8000030517578125</ele>
        <time>2022-07-29T11:06:25.000Z</time>
      </trkpt>
      <trkpt lat="42.1309431083500385284423828125" lon="2.76093008928000926971435546875">
        <ele>165.8000030517578125</ele>
        <time>2022-07-29T11:06:26.000Z</time>
      </trkpt>
      <trkpt lat="42.13093112222850322723388671875" lon="2.76078960858285427093505859375">
        <ele>165.8000030517578125</ele>
        <time>2022-07-29T11:06:30.000Z</time>
      </trkpt>
      <trkpt lat="42.13083875365555286407470703125" lon="2.7606363035738468170166015625">
        <ele>165</ele>
        <time>2022-07-29T11:06:34.000Z</time>
      </trkpt>
      <trkpt lat="42.1307613886892795562744140625" lon="2.76053681038320064544677734375">
        <ele>164.8000030517578125</ele>
        <time>2022-07-29T11:06:38.000Z</time>
      </trkpt>
      <trkpt lat="42.13074512779712677001953125" lon="2.76051585562527179718017578125">
        <ele>164.8000030517578125</ele>
        <time>2022-07-29T11:06:39.000Z</time>
      </trkpt>
      <trkpt lat="42.13068938814103603363037109375" lon="2.76045114733278751373291015625">
        <ele>164.8000030517578125</ele>
        <time>2022-07-29T11:06:44.000Z</time>
      </trkpt>
      <trkpt lat="42.13065803982317447662353515625" lon="2.76036347262561321258544921875">
        <ele>165.1999969482421875</ele>
        <time>2022-07-29T11:06:49.000Z</time>
      </trkpt>
      <trkpt lat="42.13234665803611278533935546875" lon="2.76073797605931758880615234375">
        <ele>179.8000030517578125</ele>
        <time>2022-07-29T12:07:00.000Z</time>
      </trkpt>
      <trkpt lat="42.13261135853826999664306640625" lon="2.76066421531140804290771484375">
        <ele>179.8000030517578125</ele>
        <time>2022-07-29T12:07:07.000Z</time>
      </trkpt>
      <trkpt lat="42.132828198373317718505859375" lon="2.7605494670569896697998046875">
        <ele>180</ele>
        <time>2022-07-29T12:07:13.000Z</time>
      </trkpt>
      <trkpt lat="42.1331079863011837005615234375" lon="2.76039071381092071533203125">
        <ele>180.1999969482421875</ele>
        <time>2022-07-29T12:07:19.000Z</time>
      </trkpt>
      <trkpt lat="42.1331418491899967193603515625" lon="2.7603697590529918670654296875">
        <ele>180.1999969482421875</ele>
        <time>2022-07-29T12:07:20.000Z</time>
      </trkpt>
      <trkpt lat="42.1341919340193271636962890625" lon="2.76074937544763088226318359375">
        <ele>182</ele>
        <time>2022-07-29T12:45:13.000Z</time>
      </trkpt>
      <trkpt lat="42.13435295037925243377685546875" lon="2.7606218867003917694091796875">
        <ele>182</ele>
        <time>2022-07-29T12:45:18.000Z</time>
      </trkpt>
      <trkpt lat="42.13461111299693584442138671875" lon="2.76042960584163665771484375">
        <ele>182</ele>
        <time>2022-07-29T12:45:25.000Z</time>
      </trkpt>
      <trkpt lat="42.1347261965274810791015625" lon="2.76032994501292705535888671875">
        <ele>182.1999969482421875</ele>
        <time>2022-07-29T12:45:28.000Z</time>
      </trkpt>
      <trkpt lat="42.13484496809542179107666015625" lon="2.7602101676166057586669921875">
        <ele>182.399993896484375</ele>
        <time>2022-07-29T12:45:31.000Z</time>
      </trkpt>
      <trkpt lat="42.13492208160459995269775390625" lon="2.760123498737812042236328125">
        <ele>182.600006103515625</ele>
        <time>2022-07-29T12:45:33.000Z</time>
      </trkpt>
      <trkpt lat="42.13510103523731231689453125" lon="2.75988536886870861053466796875">
        <ele>182.600006103515625</ele>
        <time>2022-07-29T12:45:38.000Z</time>
      </trkpt>
      <trkpt lat="42.13535022921860218048095703125" lon="2.7594266273081302642822265625">
        <ele>181.600006103515625</ele>
        <time>2022-07-29T12:45:46.000Z</time>
      </trkpt>
      <trkpt lat="42.13554234243929386138916015625" lon="2.758936621248722076416015625">
        <ele>181.600006103515625</ele>
        <time>2022-07-29T12:45:53.000Z</time>
      </trkpt>
      <trkpt lat="42.13568173348903656005859375" lon="2.758454494178295135498046875">
        <ele>181.600006103515625</ele>
        <time>2022-07-29T12:45:59.000Z</time>
      </trkpt>
      <trkpt lat="42.13581995107233524322509765625" lon="2.75798016227781772613525390625">
        <ele>181.399993896484375</ele>
        <time>2022-07-29T12:46:05.000Z</time>
      </trkpt>
      <trkpt lat="42.13593729771673679351806640625" lon="2.75756844319403171539306640625">
        <ele>181.1999969482421875</ele>
        <time>2022-07-29T12:46:10.000Z</time>
      </trkpt>
      <trkpt lat="42.135985158383846282958984375" lon="2.757421173155307769775390625">
        <ele>181.1999969482421875</ele>
        <time>2022-07-29T12:46:12.000Z</time>
      </trkpt>
      <trkpt lat="42.13612019084393978118896484375" lon="2.75704960338771343231201171875">
        <ele>181.1999969482421875</ele>
        <time>2022-07-29T12:46:18.000Z</time>
      </trkpt>
      <trkpt lat="42.136288248002529144287109375" lon="2.7566497027873992919921875">
        <ele>182</ele>
        <time>2022-07-29T12:46:25.000Z</time>
      </trkpt>
      <trkpt lat="42.13650492019951343536376953125" lon="2.75614737533032894134521484375">
        <ele>182.600006103515625</ele>
        <time>2022-07-29T12:46:33.000Z</time>
      </trkpt>
      <trkpt lat="42.1367212571203708648681640625" lon="2.755616046488285064697265625">
        <ele>182.600006103515625</ele>
        <time>2022-07-29T12:46:41.000Z</time>
      </trkpt>
      <trkpt lat="42.13680415414273738861083984375" lon="2.75541546754539012908935546875">
        <ele>182.600006103515625</ele>
        <time>2022-07-29T12:46:44.000Z</time>
      </trkpt>
      <trkpt lat="42.1369519270956516265869140625" lon="2.7550700493156909942626953125">
        <ele>182.8000030517578125</ele>
        <time>2022-07-29T12:46:49.000Z</time>
      </trkpt>
      <trkpt lat="42.13706709444522857666015625" lon="2.75481867603957653045654296875">
        <ele>182.8000030517578125</ele>
        <time>2022-07-29T12:46:53.000Z</time>
      </trkpt>
      <trkpt lat="42.1371658332645893096923828125" lon="2.75466059334576129913330078125">
        <ele>182.8000030517578125</ele>
        <time>2022-07-29T12:46:56.000Z</time>
      </trkpt>
      <trkpt lat="42.137188129127025604248046875" lon="2.754607535898685455322265625">
        <ele>183</ele>
        <time>2022-07-29T12:46:57.000Z</time>
      </trkpt>
      <trkpt lat="42.13719206862151622772216796875" lon="2.7545114792883396148681640625">
        <ele>183</ele>
        <time>2022-07-29T12:46:59.000Z</time>
      </trkpt>
      <trkpt lat="42.13715887628495693206787109375" lon="2.75442682206630706787109375">
        <ele>183.1999969482421875</ele>
        <time>2022-07-29T12:47:01.000Z</time>
      </trkpt>
      <trkpt lat="42.1371088363230228424072265625" lon="2.75434442795813083648681640625">
        <ele>183.1999969482421875</ele>
        <time>2022-07-29T12:47:03.000Z</time>
      </trkpt>
      <trkpt lat="42.13703918270766735076904296875" lon="2.754176370799541473388671875">
        <ele>183.1999969482421875</ele>
        <time>2022-07-29T12:47:06.000Z</time>
      </trkpt>
      <trkpt lat="42.1370421163737773895263671875" lon="2.754020132124423980712890625">
        <ele>183.1999969482421875</ele>
        <time>2022-07-29T12:47:08.000Z</time>
      </trkpt>
      <trkpt lat="42.13705594651401042938232421875" lon="2.753847800195217132568359375">
        <ele>183.1999969482421875</ele>
        <time>2022-07-29T12:47:10.000Z</time>
      </trkpt>
      <trkpt lat="42.13709182105958461761474609375" lon="2.7533973567187786102294921875">
        <ele>181.600006103515625</ele>
        <time>2022-07-29T12:47:15.000Z</time>
      </trkpt>
      <trkpt lat="42.13709467090666294097900390625" lon="2.75302696041762828826904296875">
        <ele>180.8000030517578125</ele>
        <time>2022-07-29T12:47:19.000Z</time>
      </trkpt>
      <trkpt lat="42.1370427869260311126708984375" lon="2.75226990692317485809326171875">
        <ele>180.8000030517578125</ele>
        <time>2022-07-29T12:47:28.000Z</time>
      </trkpt>
      <trkpt lat="42.13702417910099029541015625" lon="2.75212146341800689697265625">
        <ele>181</ele>
        <time>2022-07-29T12:47:30.000Z</time>
      </trkpt>
      <trkpt lat="42.1369593031704425811767578125" lon="2.751915939152240753173828125">
        <ele>182.1999969482421875</ele>
        <time>2022-07-29T12:47:33.000Z</time>
      </trkpt>
      <trkpt lat="42.13689099065959453582763671875" lon="2.75179465301334857940673828125">
        <ele>182.600006103515625</ele>
        <time>2022-07-29T12:47:35.000Z</time>
      </trkpt>
      <trkpt lat="42.13680197484791278839111328125" lon="2.7516965009272098541259765625">
        <ele>183</ele>
        <time>2022-07-29T12:47:37.000Z</time>
      </trkpt>
      <trkpt lat="42.13670759461820125579833984375" lon="2.75161645375192165374755859375">
        <ele>183</ele>
        <time>2022-07-29T12:47:39.000Z</time>
      </trkpt>
      <trkpt lat="42.1365643478929996490478515625" lon="2.7515332214534282684326171875">
        <ele>183.1999969482421875</ele>
        <time>2022-07-29T12:47:42.000Z</time>
      </trkpt>
      <trkpt lat="42.13620836846530437469482421875" lon="2.7514328062534332275390625">
        <ele>183.1999969482421875</ele>
        <time>2022-07-29T12:47:48.000Z</time>
      </trkpt>
      <trkpt lat="42.1356676518917083740234375" lon="2.75130338966846466064453125">
        <ele>182.8000030517578125</ele>
        <time>2022-07-29T12:47:56.000Z</time>
      </trkpt>
      <trkpt lat="42.1355990879237651824951171875" lon="2.7513008750975131988525390625">
        <ele>182.8000030517578125</ele>
        <time>2022-07-29T12:47:57.000Z</time>
      </trkpt>
      <trkpt lat="42.135460115969181060791015625" lon="2.75131411850452423095703125">
        <ele>182.8000030517578125</ele>
        <time>2022-07-29T12:47:59.000Z</time>
      </trkpt>
      <trkpt lat="42.1353198029100894927978515625" lon="2.75136969052255153656005859375">
        <ele>182.8000030517578125</ele>
        <time>2022-07-29T12:48:01.000Z</time>
      </trkpt>
      <trkpt lat="42.13517974130809307098388671875" lon="2.7514554373919963836669921875">
        <ele>182.600006103515625</ele>
        <time>2022-07-29T12:48:03.000Z</time>
      </trkpt>
      <trkpt lat="42.13490297086536884307861328125" lon="2.75162902660667896270751953125">
        <ele>182.1999969482421875</ele>
        <time>2022-07-29T12:48:07.000Z</time>
      </trkpt>
      <trkpt lat="42.13482879102230072021484375" lon="2.7516626380383968353271484375">
        <ele>182.1999969482421875</ele>
        <time>2022-07-29T12:48:08.000Z</time>
      </trkpt>
      <trkpt lat="42.13466928340494632720947265625" lon="2.75167487561702728271484375">
        <ele>182</ele>
        <time>2022-07-29T12:48:10.000Z</time>
      </trkpt>
      <trkpt lat="42.134588398039340972900390625" lon="2.751650400459766387939453125">
        <ele>181.8000030517578125</ele>
        <time>2022-07-29T12:48:11.000Z</time>
      </trkpt>
      <trkpt lat="42.13444062508642673492431640625" lon="2.75155375711619853973388671875">
        <ele>181.399993896484375</ele>
        <time>2022-07-29T12:48:13.000Z</time>
      </trkpt>
      <trkpt lat="42.13437340222299098968505859375" lon="2.75149910710752010345458984375">
        <ele>181</ele>
        <time>2022-07-29T12:48:14.000Z</time>
      </trkpt>
      <trkpt lat="42.134051956236362457275390625" lon="2.751260809600353240966796875">
        <ele>180.1999969482421875</ele>
        <time>2022-07-29T12:48:19.000Z</time>
      </trkpt>
      <trkpt lat="42.13371969759464263916015625" lon="2.75106676854193210601806640625">
        <ele>180.1999969482421875</ele>
        <time>2022-07-29T12:48:24.000Z</time>
      </trkpt>
      <trkpt lat="42.1333493851125240325927734375" lon="2.75077365338802337646484375">
        <ele>180.600006103515625</ele>
        <time>2022-07-29T12:48:30.000Z</time>
      </trkpt>
      <trkpt lat="42.1331839263439178466796875" lon="2.75062437169253826141357421875">
        <ele>180.600006103515625</ele>
        <time>2022-07-29T12:48:33.000Z</time>
      </trkpt>
      <trkpt lat="42.133001200854778289794921875" lon="2.75053787045180797576904296875">
        <ele>180.8000030517578125</ele>
        <time>2022-07-29T12:48:36.000Z</time>
      </trkpt>
      <trkpt lat="42.13274613954126834869384765625" lon="2.75056133978068828582763671875">
        <ele>182.1999969482421875</ele>
        <time>2022-07-29T12:48:40.000Z</time>
      </trkpt>
      <trkpt lat="42.132631056010723114013671875" lon="2.75061012245714664459228515625">
        <ele>182.399993896484375</ele>
        <time>2022-07-29T12:48:42.000Z</time>
      </trkpt>
      <trkpt lat="42.132382281124591827392578125" lon="2.7507339231669902801513671875">
        <ele>182.399993896484375</ele>
        <time>2022-07-29T12:48:46.000Z</time>
      </trkpt>
      <trkpt lat="42.13202093727886676788330078125" lon="2.75091270916163921356201171875">
        <ele>182.8000030517578125</ele>
        <time>2022-07-29T12:48:52.000Z</time>
      </trkpt>
      <trkpt lat="42.13179009966552257537841796875" lon="2.75103106163442134857177734375">
        <ele>182.8000030517578125</ele>
        <time>2022-07-29T12:48:56.000Z</time>
      </trkpt>
      <trkpt lat="42.13167727924883365631103515625" lon="2.75109476409852504730224609375">
        <ele>182.8000030517578125</ele>
        <time>2022-07-29T12:48:58.000Z</time>
      </trkpt>
      <trkpt lat="42.13123957626521587371826171875" lon="2.7513753063976764678955078125">
        <ele>182.8000030517578125</ele>
        <time>2022-07-29T12:49:05.000Z</time>
      </trkpt>
      <trkpt lat="42.13116891682147979736328125" lon="2.751401960849761962890625">
        <ele>182.8000030517578125</ele>
        <time>2022-07-29T12:49:06.000Z</time>
      </trkpt>
      <trkpt lat="42.13097713887691497802734375" lon="2.75147236883640289306640625">
        <ele>181.1999969482421875</ele>
        <time>2022-07-29T12:49:09.000Z</time>
      </trkpt>
      <trkpt lat="42.13091268204152584075927734375" lon="2.75148971937596797943115234375">
        <ele>180.8000030517578125</ele>
        <time>2022-07-29T12:49:10.000Z</time>
      </trkpt>
      <trkpt lat="42.13047866709530353546142578125" lon="2.751589715480804443359375">
        <ele>180</ele>
        <time>2022-07-29T12:49:16.000Z</time>
      </trkpt>
      <trkpt lat="42.1301937662065029144287109375" lon="2.7516441978514194488525390625">
        <ele>179.8000030517578125</ele>
        <time>2022-07-29T12:49:20.000Z</time>
      </trkpt>
      <trkpt lat="42.12990693747997283935546875" lon="2.75170194916427135467529296875">
        <ele>178.399993896484375</ele>
        <time>2022-07-29T12:49:24.000Z</time>
      </trkpt>
      <trkpt lat="42.12963377125561237335205078125" lon="2.7517622150480747222900390625">
        <ele>177.1999969482421875</ele>
        <time>2022-07-29T12:49:28.000Z</time>
      </trkpt>
      <trkpt lat="42.1294578351080417633056640625" lon="2.75182281620800495147705078125">
        <ele>177.1999969482421875</ele>
        <time>2022-07-29T12:49:31.000Z</time>
      </trkpt>
      <trkpt lat="42.12935029529035091400146484375" lon="2.75188677012920379638671875">
        <ele>177.1999969482421875</ele>
        <time>2022-07-29T12:49:33.000Z</time>
      </trkpt>
      <trkpt lat="42.12924443185329437255859375" lon="2.75197930634021759033203125">
        <ele>177.1999969482421875</ele>
        <time>2022-07-29T12:49:35.000Z</time>
      </trkpt>
      <trkpt lat="42.12919749319553375244140625" lon="2.7520388178527355194091796875">
        <ele>177.1999969482421875</ele>
        <time>2022-07-29T12:49:36.000Z</time>
      </trkpt>
      <trkpt lat="42.1290715970098972320556640625" lon="2.75226085446774959564208984375">
        <ele>177.1999969482421875</ele>
        <time>2022-07-29T12:49:39.000Z</time>
      </trkpt>
      <trkpt lat="42.12899775244295597076416015625" lon="2.75242480449378490447998046875">
        <ele>177.1999969482421875</ele>
        <time>2022-07-29T12:49:41.000Z</time>
      </trkpt>
      <trkpt lat="42.128886692225933074951171875" lon="2.7526852302253246307373046875">
        <ele>176.8000030517578125</ele>
        <time>2022-07-29T12:49:44.000Z</time>
      </trkpt>
      <trkpt lat="42.1287400089204311370849609375" lon="2.752916403114795684814453125">
        <ele>176.8000030517578125</ele>
        <time>2022-07-29T12:49:47.000Z</time>
      </trkpt>
      <trkpt lat="42.12856222875416278839111328125" lon="2.75310449302196502685546875">
        <ele>176.600006103515625</ele>
        <time>2022-07-29T12:49:50.000Z</time>
      </trkpt>
      <trkpt lat="42.12844119407236576080322265625" lon="2.75320432148873805999755859375">
        <ele>176.600006103515625</ele>
        <time>2022-07-29T12:49:52.000Z</time>
      </trkpt>
      <trkpt lat="42.12816693820059299468994140625" lon="2.75342166423797607421875">
        <ele>176.600006103515625</ele>
        <time>2022-07-29T12:49:57.000Z</time>
      </trkpt>
      <trkpt lat="42.12798957712948322296142578125" lon="2.75351629592478275299072265625">
        <ele>176.8000030517578125</ele>
        <time>2022-07-29T12:50:00.000Z</time>
      </trkpt>
      <trkpt lat="42.12785345502197742462158203125" lon="2.75352719239890575408935546875">
        <ele>176.600006103515625</ele>
        <time>2022-07-29T12:50:02.000Z</time>
      </trkpt>
      <trkpt lat="42.1275856532156467437744140625" lon="2.75341738946735858917236328125">
        <ele>176.600006103515625</ele>
        <time>2022-07-29T12:50:06.000Z</time>
      </trkpt>
      <trkpt lat="42.12734467349946498870849609375" lon="2.75326819159090518951416015625">
        <ele>176.600006103515625</ele>
        <time>2022-07-29T12:50:10.000Z</time>
      </trkpt>
      <trkpt lat="42.12728717364370822906494140625" lon="2.75323114357888698577880859375">
        <ele>176.600006103515625</ele>
        <time>2022-07-29T12:50:11.000Z</time>
      </trkpt>
      <trkpt lat="42.127117775380611419677734375" lon="2.75311647914350032806396484375">
        <ele>176.600006103515625</ele>
        <time>2022-07-29T12:50:14.000Z</time>
      </trkpt>
      <trkpt lat="42.126940079033374786376953125" lon="2.75300391018390655517578125">
        <ele>176.600006103515625</ele>
        <time>2022-07-29T12:50:17.000Z</time>
      </trkpt>
      <trkpt lat="42.12655442766845226287841796875" lon="2.7527915127575397491455078125">
        <ele>176.600006103515625</ele>
        <time>2022-07-29T12:50:23.000Z</time>
      </trkpt>
      <trkpt lat="42.12612125091254711151123046875" lon="2.75255992077291011810302734375">
        <ele>176.600006103515625</ele>
        <time>2022-07-29T12:50:30.000Z</time>
      </trkpt>
      <trkpt lat="42.1257369406521320343017578125" lon="2.752436287701129913330078125">
        <ele>176.600006103515625</ele>
        <time>2022-07-29T12:50:36.000Z</time>
      </trkpt>
      <trkpt lat="42.1255927719175815582275390625" lon="2.75240041315555572509765625">
        <ele>176.600006103515625</ele>
        <time>2022-07-29T12:50:38.000Z</time>
      </trkpt>
      <trkpt lat="42.125373668968677520751953125" lon="2.75235640816390514373779296875">
        <ele>176.600006103515625</ele>
        <time>2022-07-29T12:50:41.000Z</time>
      </trkpt>
      <trkpt lat="42.124814428389072418212890625" lon="2.75223805569112300872802734375">
        <ele>176.399993896484375</ele>
        <time>2022-07-29T12:50:49.000Z</time>
      </trkpt>
      <trkpt lat="42.1243361569941043853759765625" lon="2.75209598243236541748046875">
        <ele>176.1999969482421875</ele>
        <time>2022-07-29T12:50:56.000Z</time>
      </trkpt>
      <trkpt lat="42.12393390946090221405029296875" lon="2.75191887281835079193115234375">
        <ele>176.1999969482421875</ele>
        <time>2022-07-29T12:51:02.000Z</time>
      </trkpt>
      <trkpt lat="42.12355655618011951446533203125" lon="2.75178023613989353179931640625">
        <ele>176.399993896484375</ele>
        <time>2022-07-29T12:51:08.000Z</time>
      </trkpt>
      <trkpt lat="42.12343485094606876373291015625" lon="2.751731537282466888427734375">
        <ele>176.399993896484375</ele>
        <time>2022-07-29T12:51:10.000Z</time>
      </trkpt>
      <trkpt lat="42.12331532500684261322021484375" lon="2.7516733668744564056396484375">
        <ele>176.399993896484375</ele>
        <time>2022-07-29T12:51:12.000Z</time>
      </trkpt>
      <trkpt lat="42.12291819043457508087158203125" lon="2.75150991976261138916015625">
        <ele>176.1999969482421875</ele>
        <time>2022-07-29T12:51:18.000Z</time>
      </trkpt>
      <trkpt lat="42.12258584797382354736328125" lon="2.75131923146545886993408203125">
        <ele>176</ele>
        <time>2022-07-29T12:51:23.000Z</time>
      </trkpt>
      <trkpt lat="42.12244830094277858734130859375" lon="2.7510946802794933319091796875">
        <ele>176</ele>
        <time>2022-07-29T12:51:26.000Z</time>
      </trkpt>
      <trkpt lat="42.1223905496299266815185546875" lon="2.75074607692658901214599609375">
        <ele>176</ele>
        <time>2022-07-29T12:51:30.000Z</time>
      </trkpt>
      <trkpt lat="42.12240857072174549102783203125" lon="2.75038582272827625274658203125">
        <ele>176.1999969482421875</ele>
        <time>2022-07-29T12:51:34.000Z</time>
      </trkpt>
      <trkpt lat="42.12241460569202899932861328125" lon="2.75029513053596019744873046875">
        <ele>176.399993896484375</ele>
        <time>2022-07-29T12:51:35.000Z</time>
      </trkpt>
      <trkpt lat="42.122427262365818023681640625" lon="2.75011307559907436370849609375">
        <ele>176.600006103515625</ele>
        <time>2022-07-29T12:51:37.000Z</time>
      </trkpt>
      <trkpt lat="42.12246992625296115875244140625" lon="2.74937043897807598114013671875">
        <ele>177</ele>
        <time>2022-07-29T12:51:45.000Z</time>
      </trkpt>
      <trkpt lat="42.12239080108702182769775390625" lon="2.7490434609353542327880859375">
        <ele>177.1999969482421875</ele>
        <time>2022-07-29T12:51:49.000Z</time>
      </trkpt>
      <trkpt lat="42.12235459126532077789306640625" lon="2.74897330440580844879150390625">
        <ele>177.399993896484375</ele>
        <time>2022-07-29T12:51:50.000Z</time>
      </trkpt>
      <trkpt lat="42.1223144419491291046142578125" lon="2.74890608154237270355224609375">
        <ele>177.399993896484375</ele>
        <time>2022-07-29T12:51:51.000Z</time>
      </trkpt>
      <trkpt lat="42.12215158157050609588623046875" lon="2.7486565522849559783935546875">
        <ele>177.8000030517578125</ele>
        <time>2022-07-29T12:51:55.000Z</time>
      </trkpt>
      <trkpt lat="42.12208737619221210479736328125" lon="2.74853669106960296630859375">
        <ele>177.8000030517578125</ele>
        <time>2022-07-29T12:51:57.000Z</time>
      </trkpt>
      <trkpt lat="42.12200841866433620452880859375" lon="2.748400233685970306396484375">
        <ele>178.1999969482421875</ele>
        <time>2022-07-29T12:52:00.000Z</time>
      </trkpt>
      <trkpt lat="42.12198042310774326324462890625" lon="2.74836008436977863311767578125">
        <ele>179.399993896484375</ele>
        <time>2022-07-29T12:52:01.000Z</time>
      </trkpt>
      <trkpt lat="42.12191370315849781036376953125" lon="2.74823988787829875946044921875">
        <ele>180.600006103515625</ele>
        <time>2022-07-29T12:52:04.000Z</time>
      </trkpt>
      <trkpt lat="42.121917642652988433837890625" lon="2.74819378741085529327392578125">
        <ele>181</ele>
        <time>2022-07-29T12:52:05.000Z</time>
      </trkpt>
      <trkpt lat="42.12195309810340404510498046875" lon="2.7480336092412471771240234375">
        <ele>181.8000030517578125</ele>
        <time>2022-07-29T12:52:08.000Z</time>
      </trkpt>
      <trkpt lat="42.1219727955758571624755859375" lon="2.74790930561721324920654296875">
        <ele>182.399993896484375</ele>
        <time>2022-07-29T12:52:10.000Z</time>
      </trkpt>
      <trkpt lat="42.1219613961875438690185546875" lon="2.74776295758783817291259765625">
        <ele>183</ele>
        <time>2022-07-29T12:52:12.000Z</time>
      </trkpt>
      <trkpt lat="42.12193683721125125885009765625" lon="2.7476909570395946502685546875">
        <ele>183.1999969482421875</ele>
        <time>2022-07-29T12:52:13.000Z</time>
      </trkpt>
      <trkpt lat="42.12177623994648456573486328125" lon="2.74756112135946750640869140625">
        <ele>183.1999969482421875</ele>
        <time>2022-07-29T12:52:16.000Z</time>
      </trkpt>
      <trkpt lat="42.1216264553368091583251953125" lon="2.74755123071372509002685546875">
        <ele>183.1999969482421875</ele>
        <time>2022-07-29T12:52:18.000Z</time>
      </trkpt>
      <trkpt lat="42.1214842982590198516845703125" lon="2.74755232036113739013671875">
        <ele>183.1999969482421875</ele>
        <time>2022-07-29T12:52:20.000Z</time>
      </trkpt>
      <trkpt lat="42.12128874845802783966064453125" lon="2.74756832979619503021240234375">
        <ele>181.399993896484375</ele>
        <time>2022-07-29T12:52:23.000Z</time>
      </trkpt>
      <trkpt lat="42.12115681730210781097412109375" lon="2.74757034145295619964599609375">
        <ele>180</ele>
        <time>2022-07-29T12:52:25.000Z</time>
      </trkpt>
      <trkpt lat="42.12108515202999114990234375" lon="2.7475742809474468231201171875">
        <ele>179.1999969482421875</ele>
        <time>2022-07-29T12:52:26.000Z</time>
      </trkpt>
      <trkpt lat="42.12102019228041172027587890625" lon="2.7475796453654766082763671875">
        <ele>178.600006103515625</ele>
        <time>2022-07-29T12:52:27.000Z</time>
      </trkpt>
      <trkpt lat="42.12077912874519824981689453125" lon="2.74759297259151935577392578125">
        <ele>177.1999969482421875</ele>
        <time>2022-07-29T12:52:31.000Z</time>
      </trkpt>
      <trkpt lat="42.1207225508987903594970703125" lon="2.74759179912507534027099609375">
        <ele>177.1999969482421875</ele>
        <time>2022-07-29T12:52:32.000Z</time>
      </trkpt>
      <trkpt lat="42.1203426830470561981201171875" lon="2.74760755710303783416748046875">
        <ele>176.600006103515625</ele>
        <time>2022-07-29T12:52:39.000Z</time>
      </trkpt>
      <trkpt lat="42.12001495063304901123046875" lon="2.7476135082542896270751953125">
        <ele>176.399993896484375</ele>
        <time>2022-07-29T12:52:45.000Z</time>
      </trkpt>
      <trkpt lat="42.11967162787914276123046875" lon="2.7476832456886768341064453125">
        <ele>176.600006103515625</ele>
        <time>2022-07-29T12:52:51.000Z</time>
      </trkpt>
      <trkpt lat="42.11960951797664165496826171875" lon="2.747687436640262603759765625">
        <ele>176.600006103515625</ele>
        <time>2022-07-29T12:52:52.000Z</time>
      </trkpt>
      <trkpt lat="42.11943157017230987548828125" lon="2.74763203226029872894287109375">
        <ele>176.600006103515625</ele>
        <time>2022-07-29T12:52:55.000Z</time>
      </trkpt>
      <trkpt lat="42.11926200427114963531494140625" lon="2.7474002726376056671142578125">
        <ele>176.600006103515625</ele>
        <time>2022-07-29T12:52:59.000Z</time>
      </trkpt>
      <trkpt lat="42.1192288957536220550537109375" lon="2.74732760153710842132568359375">
        <ele>176.600006103515625</ele>
        <time>2022-07-29T12:53:00.000Z</time>
      </trkpt>
      <trkpt lat="42.119016833603382110595703125" lon="2.74690029211342334747314453125">
        <ele>176.600006103515625</ele>
        <time>2022-07-29T12:53:06.000Z</time>
      </trkpt>
      <trkpt lat="42.1188072860240936279296875" lon="2.746740616858005523681640625">
        <ele>176.600006103515625</ele>
        <time>2022-07-29T12:53:10.000Z</time>
      </trkpt>
      <trkpt lat="42.11862212978303432464599609375" lon="2.74672511033713817596435546875">
        <ele>176.8000030517578125</ele>
        <time>2022-07-29T12:53:13.000Z</time>
      </trkpt>
      <trkpt lat="42.11849682033061981201171875" lon="2.74673181585967540740966796875">
        <ele>177</ele>
        <time>2022-07-29T12:53:15.000Z</time>
      </trkpt>
      <trkpt lat="42.11790380068123340606689453125" lon="2.74680322967469692230224609375">
        <ele>177.8000030517578125</ele>
        <time>2022-07-29T12:53:24.000Z</time>
      </trkpt>
      <trkpt lat="42.117713950574398040771484375" lon="2.74685670621693134307861328125">
        <ele>177.8000030517578125</ele>
        <time>2022-07-29T12:53:27.000Z</time>
      </trkpt>
      <trkpt lat="42.11760766804218292236328125" lon="2.74695075117051601409912109375">
        <ele>177.8000030517578125</ele>
        <time>2022-07-29T12:53:29.000Z</time>
      </trkpt>
      <trkpt lat="42.1175196580588817596435546875" lon="2.747161053121089935302734375">
        <ele>177.8000030517578125</ele>
        <time>2022-07-29T12:53:32.000Z</time>
      </trkpt>
      <trkpt lat="42.11750633083283901214599609375" lon="2.74724143557250499725341796875">
        <ele>177.8000030517578125</ele>
        <time>2022-07-29T12:53:33.000Z</time>
      </trkpt>
      <trkpt lat="42.11748939938843250274658203125" lon="2.74742315523326396942138671875">
        <ele>177.8000030517578125</ele>
        <time>2022-07-29T12:53:35.000Z</time>
      </trkpt>
      <trkpt lat="42.11749208159744739532470703125" lon="2.747518457472324371337890625">
        <ele>177.8000030517578125</ele>
        <time>2022-07-29T12:53:36.000Z</time>
      </trkpt>
      <trkpt lat="42.1175786666572093963623046875" lon="2.747883237898349761962890625">
        <ele>177.1999969482421875</ele>
        <time>2022-07-29T12:53:40.000Z</time>
      </trkpt>
      <trkpt lat="42.11761529557406902313232421875" lon="2.74796672165393829345703125">
        <ele>177</ele>
        <time>2022-07-29T12:53:41.000Z</time>
      </trkpt>
      <trkpt lat="42.11782149039208889007568359375" lon="2.74850182235240936279296875">
        <ele>176</ele>
        <time>2022-07-29T12:53:47.000Z</time>
      </trkpt>
      <trkpt lat="42.117811180651187896728515625" lon="2.74881522171199321746826171875">
        <ele>175.8000030517578125</ele>
        <time>2022-07-29T12:53:50.000Z</time>
      </trkpt>
      <trkpt lat="42.117703892290592193603515625" lon="2.74906240403652191162109375">
        <ele>175.600006103515625</ele>
        <time>2022-07-29T12:53:53.000Z</time>
      </trkpt>
      <trkpt lat="42.1176138706505298614501953125" lon="2.74918042123317718505859375">
        <ele>175.600006103515625</ele>
        <time>2022-07-29T12:53:55.000Z</time>
      </trkpt>
      <trkpt lat="42.1174857951700687408447265625" lon="2.74934177286922931671142578125">
        <ele>175.600006103515625</ele>
        <time>2022-07-29T12:53:58.000Z</time>
      </trkpt>
      <trkpt lat="42.1172990463674068450927734375" lon="2.749572694301605224609375">
        <ele>175.600006103515625</ele>
        <time>2022-07-29T12:54:02.000Z</time>
      </trkpt>
      <trkpt lat="42.11700593121349811553955078125" lon="2.7499473653733730316162109375">
        <ele>175.600006103515625</ele>
        <time>2022-07-29T12:54:08.000Z</time>
      </trkpt>
      <trkpt lat="42.116957567632198333740234375" lon="2.75001333095133304595947265625">
        <ele>175.600006103515625</ele>
        <time>2022-07-29T12:54:09.000Z</time>
      </trkpt>
      <trkpt lat="42.11686871945858001708984375" lon="2.7501589246094226837158203125">
        <ele>175.8000030517578125</ele>
        <time>2022-07-29T12:54:11.000Z</time>
      </trkpt>
      <trkpt lat="42.11682974360883235931396484375" lon="2.75023846887052059173583984375">
        <ele>175.8000030517578125</ele>
        <time>2022-07-29T12:54:12.000Z</time>
      </trkpt>
      <trkpt lat="42.11662271060049533843994140625" lon="2.7507493458688259124755859375">
        <ele>175.600006103515625</ele>
        <time>2022-07-29T12:54:18.000Z</time>
      </trkpt>
      <trkpt lat="42.11646680720150470733642578125" lon="2.751254104077816009521484375">
        <ele>176</ele>
        <time>2022-07-29T12:54:24.000Z</time>
      </trkpt>
      <trkpt lat="42.11633152328431606292724609375" lon="2.751766405999660491943359375">
        <ele>176.1999969482421875</ele>
        <time>2022-07-29T12:54:30.000Z</time>
      </trkpt>
      <trkpt lat="42.11629916913807392120361328125" lon="2.75192968547344207763671875">
        <ele>176.1999969482421875</ele>
        <time>2022-07-29T12:54:32.000Z</time>
      </trkpt>
      <trkpt lat="42.11625206284224987030029296875" lon="2.752251885831356048583984375">
        <ele>176.1999969482421875</ele>
        <time>2022-07-29T12:54:36.000Z</time>
      </trkpt>
      <trkpt lat="42.11624317802488803863525390625" lon="2.75232824496924877166748046875">
        <ele>176.1999969482421875</ele>
        <time>2022-07-29T12:54:37.000Z</time>
      </trkpt>
      <trkpt lat="42.1162189543247222900390625" lon="2.7525413967669010162353515625">
        <ele>175.8000030517578125</ele>
        <time>2022-07-29T12:54:40.000Z</time>
      </trkpt>
      <trkpt lat="42.11618014611303806304931640625" lon="2.7526620961725711822509765625">
        <ele>175.8000030517578125</ele>
        <time>2022-07-29T12:54:42.000Z</time>
      </trkpt>
      <trkpt lat="42.11603128351271152496337890625" lon="2.75275354273617267608642578125">
        <ele>175.8000030517578125</ele>
        <time>2022-07-29T12:54:45.000Z</time>
      </trkpt>
      <trkpt lat="42.115638591349124908447265625" lon="2.7528679557144641876220703125">
        <ele>175.8000030517578125</ele>
        <time>2022-07-29T12:54:52.000Z</time>
      </trkpt>
      <trkpt lat="42.11519191972911357879638671875" lon="2.75300080887973308563232421875">
        <ele>176</ele>
        <time>2022-07-29T12:54:59.000Z</time>
      </trkpt>
      <trkpt lat="42.11480475962162017822265625" lon="2.75311815552413463592529296875">
        <ele>176.1999969482421875</ele>
        <time>2022-07-29T12:55:05.000Z</time>
      </trkpt>
      <trkpt lat="42.11468875408172607421875" lon="2.75315000675618648529052734375">
        <ele>176.1999969482421875</ele>
        <time>2022-07-29T12:55:07.000Z</time>
      </trkpt>
      <trkpt lat="42.11458188481628894805908203125" lon="2.75319426320493221282958984375">
        <ele>176.1999969482421875</ele>
        <time>2022-07-29T12:55:09.000Z</time>
      </trkpt>
      <trkpt lat="42.1144763566553592681884765625" lon="2.75323080830276012420654296875">
        <ele>176.399993896484375</ele>
        <time>2022-07-29T12:55:11.000Z</time>
      </trkpt>
      <trkpt lat="42.11431249044835567474365234375" lon="2.75328478775918483734130859375">
        <ele>176.600006103515625</ele>
        <time>2022-07-29T12:55:14.000Z</time>
      </trkpt>
      <trkpt lat="42.11419313214719295501708984375" lon="2.7533105202019214630126953125">
        <ele>176.8000030517578125</ele>
        <time>2022-07-29T12:55:16.000Z</time>
      </trkpt>
      <trkpt lat="42.11406187154352664947509765625" lon="2.75335016660392284393310546875">
        <ele>177.1999969482421875</ele>
        <time>2022-07-29T12:55:18.000Z</time>
      </trkpt>
      <trkpt lat="42.11392826400697231292724609375" lon="2.7533940039575099945068359375">
        <ele>177.1999969482421875</ele>
        <time>2022-07-29T12:55:20.000Z</time>
      </trkpt>
      <trkpt lat="42.11359952576458454132080078125" lon="2.75353104807436466217041015625">
        <ele>177.399993896484375</ele>
        <time>2022-07-29T12:55:26.000Z</time>
      </trkpt>
      <trkpt lat="42.11326559074223041534423828125" lon="2.75362056680023670196533203125">
        <ele>177.600006103515625</ele>
        <time>2022-07-29T12:55:32.000Z</time>
      </trkpt>
      <trkpt lat="42.1132120303809642791748046875" lon="2.75361402891576290130615234375">
        <ele>177.600006103515625</ele>
        <time>2022-07-29T12:55:33.000Z</time>
      </trkpt>
      <trkpt lat="42.113099209964275360107421875" lon="2.75358997285366058349609375">
        <ele>177.8000030517578125</ele>
        <time>2022-07-29T12:55:35.000Z</time>
      </trkpt>
      <trkpt lat="42.112924195826053619384765625" lon="2.75354093872010707855224609375">
        <ele>178</ele>
        <time>2022-07-29T12:55:38.000Z</time>
      </trkpt>
      <trkpt lat="42.1128769218921661376953125" lon="2.7535328082740306854248046875">
        <ele>178</ele>
        <time>2022-07-29T12:55:39.000Z</time>
      </trkpt>
      <trkpt lat="42.11271397769451141357421875" lon="2.753490395843982696533203125">
        <ele>177.8000030517578125</ele>
        <time>2022-07-29T12:55:42.000Z</time>
      </trkpt>
      <trkpt lat="42.112416587769985198974609375" lon="2.75342493318021297454833984375">
        <ele>177.8000030517578125</ele>
        <time>2022-07-29T12:55:47.000Z</time>
      </trkpt>
      <trkpt lat="42.1123530529439449310302734375" lon="2.75340783409774303436279296875">
        <ele>177.8000030517578125</ele>
        <time>2022-07-29T12:55:48.000Z</time>
      </trkpt>
      <trkpt lat="42.112216763198375701904296875" lon="2.75337883271276950836181640625">
        <ele>177.8000030517578125</ele>
        <time>2022-07-29T12:55:50.000Z</time>
      </trkpt>
      <trkpt lat="42.1118571795523166656494140625" lon="2.75327355600893497467041015625">
        <ele>178</ele>
        <time>2022-07-29T12:55:55.000Z</time>
      </trkpt>
      <trkpt lat="42.11148879490792751312255859375" lon="2.75317045859992504119873046875">
        <ele>178</ele>
        <time>2022-07-29T12:56:00.000Z</time>
      </trkpt>
      <trkpt lat="42.111424170434474945068359375" lon="2.75313089601695537567138671875">
        <ele>178</ele>
        <time>2022-07-29T12:56:01.000Z</time>
      </trkpt>
      <trkpt lat="42.11126801557838916778564453125" lon="2.7529487572610378265380859375">
        <ele>178.1999969482421875</ele>
        <time>2022-07-29T12:56:04.000Z</time>
      </trkpt>
      <trkpt lat="42.1112231723964214324951171875" lon="2.7528806962072849273681640625">
        <ele>178.1999969482421875</ele>
        <time>2022-07-29T12:56:05.000Z</time>
      </trkpt>
      <trkpt lat="42.1111031435430049896240234375" lon="2.752555310726165771484375">
        <ele>178.399993896484375</ele>
        <time>2022-07-29T12:56:09.000Z</time>
      </trkpt>
      <trkpt lat="42.11107908748090267181396484375" lon="2.75248733349144458770751953125">
        <ele>178.399993896484375</ele>
        <time>2022-07-29T12:56:10.000Z</time>
      </trkpt>
      <trkpt lat="42.11102963425219058990478515625" lon="2.7522426657378673553466796875">
        <ele>178.600006103515625</ele>
        <time>2022-07-29T12:56:13.000Z</time>
      </trkpt>
      <trkpt lat="42.1109968610107898712158203125" lon="2.75196581147611141204833984375">
        <ele>179</ele>
        <time>2022-07-29T12:56:16.000Z</time>
      </trkpt>
      <trkpt lat="42.11103600449860095977783203125" lon="2.7512904815375804901123046875">
        <ele>179.399993896484375</ele>
        <time>2022-07-29T12:56:23.000Z</time>
      </trkpt>
      <trkpt lat="42.1110441349446773529052734375" lon="2.75118880905210971832275390625">
        <ele>179.600006103515625</ele>
        <time>2022-07-29T12:56:24.000Z</time>
      </trkpt>
      <trkpt lat="42.11111647076904773712158203125" lon="2.75049529038369655609130859375">
        <ele>179.8000030517578125</ele>
        <time>2022-07-29T12:56:31.000Z</time>
      </trkpt>
      <trkpt lat="42.11124756373465061187744140625" lon="2.74971057660877704620361328125">
        <ele>179.600006103515625</ele>
        <time>2022-07-29T12:56:39.000Z</time>
      </trkpt>
      <trkpt lat="42.1112714521586894989013671875" lon="2.74961368180811405181884765625">
        <ele>179.600006103515625</ele>
        <time>2022-07-29T12:56:40.000Z</time>
      </trkpt>
      <trkpt lat="42.11136214435100555419921875" lon="2.74934001266956329345703125">
        <ele>179.600006103515625</ele>
        <time>2022-07-29T12:56:43.000Z</time>
      </trkpt>
      <trkpt lat="42.111447639763355255126953125" lon="2.74918167851865291595458984375">
        <ele>179.600006103515625</ele>
        <time>2022-07-29T12:56:45.000Z</time>
      </trkpt>
      <trkpt lat="42.1117772161960601806640625" lon="2.7487460710108280181884765625">
        <ele>179.600006103515625</ele>
        <time>2022-07-29T12:56:51.000Z</time>
      </trkpt>
      <trkpt lat="42.11183764971792697906494140625" lon="2.74867943488061428070068359375">
        <ele>179.600006103515625</ele>
        <time>2022-07-29T12:56:52.000Z</time>
      </trkpt>
      <trkpt lat="42.11228038184344768524169921875" lon="2.7482267282903194427490234375">
        <ele>179.399993896484375</ele>
        <time>2022-07-29T12:56:59.000Z</time>
      </trkpt>
      <trkpt lat="42.112733423709869384765625" lon="2.74778458289802074432373046875">
        <ele>179</ele>
        <time>2022-07-29T12:57:06.000Z</time>
      </trkpt>
      <trkpt lat="42.11291874758899211883544921875" lon="2.74760118685662746429443359375">
        <ele>179</ele>
        <time>2022-07-29T12:57:09.000Z</time>
      </trkpt>
      <trkpt lat="42.11332057602703571319580078125" lon="2.74719902314245700836181640625">
        <ele>179</ele>
        <time>2022-07-29T12:57:16.000Z</time>
      </trkpt>
      <trkpt lat="42.11368150077760219573974609375" lon="2.746842205524444580078125">
        <ele>180.1999969482421875</ele>
        <time>2022-07-29T12:57:23.000Z</time>
      </trkpt>
      <trkpt lat="42.11377571336925029754638671875" lon="2.74674908258020877838134765625">
        <ele>180.600006103515625</ele>
        <time>2022-07-29T12:57:25.000Z</time>
      </trkpt>
      <trkpt lat="42.1140005998313426971435546875" lon="2.74651472456753253936767578125">
        <ele>181.8000030517578125</ele>
        <time>2022-07-29T12:57:30.000Z</time>
      </trkpt>
      <trkpt lat="42.11419464088976383209228515625" lon="2.746326215565204620361328125">
        <ele>182.8000030517578125</ele>
        <time>2022-07-29T12:57:34.000Z</time>
      </trkpt>
      <trkpt lat="42.11429472081363201141357421875" lon="2.74622739292681217193603515625">
        <ele>183.399993896484375</ele>
        <time>2022-07-29T12:57:36.000Z</time>
      </trkpt>
      <trkpt lat="42.11444936692714691162109375" lon="2.74607735686004161834716796875">
        <ele>183.8000030517578125</ele>
        <time>2022-07-29T12:57:39.000Z</time>
      </trkpt>
      <trkpt lat="42.11480467580258846282958984375" lon="2.7457305975258350372314453125">
        <ele>184.1999969482421875</ele>
        <time>2022-07-29T12:57:46.000Z</time>
      </trkpt>
      <trkpt lat="42.11527423001825809478759765625" lon="2.7452672459185123443603515625">
        <ele>184</ele>
        <time>2022-07-29T12:57:55.000Z</time>
      </trkpt>
      <trkpt lat="42.11570941843092441558837890625" lon="2.74483582936227321624755859375">
        <ele>184</ele>
        <time>2022-07-29T12:58:03.000Z</time>
      </trkpt>
      <trkpt lat="42.11576524190604686737060546875" lon="2.74478050880134105682373046875">
        <ele>184</ele>
        <time>2022-07-29T12:58:04.000Z</time>
      </trkpt>
      <trkpt lat="42.1162187866866588592529296875" lon="2.74433366954326629638671875">
        <ele>183.600006103515625</ele>
        <time>2022-07-29T12:58:12.000Z</time>
      </trkpt>
      <trkpt lat="42.116333283483982086181640625" lon="2.74422327987849712371826171875">
        <ele>183.8000030517578125</ele>
        <time>2022-07-29T12:58:14.000Z</time>
      </trkpt>
      <trkpt lat="42.11679403670132160186767578125" lon="2.74377333931624889373779296875">
        <ele>183.8000030517578125</ele>
        <time>2022-07-29T12:58:22.000Z</time>
      </trkpt>
      <trkpt lat="42.11685103364288806915283203125" lon="2.74371567182242870330810546875">
        <ele>183.8000030517578125</ele>
        <time>2022-07-29T12:58:23.000Z</time>
      </trkpt>
      <trkpt lat="42.11730415932834148406982421875" lon="2.7432713471353054046630859375">
        <ele>183.8000030517578125</ele>
        <time>2022-07-29T12:58:31.000Z</time>
      </trkpt>
      <trkpt lat="42.117583863437175750732421875" lon="2.74301041848957538604736328125">
        <ele>184.8000030517578125</ele>
        <time>2022-07-29T12:58:36.000Z</time>
      </trkpt>
      <trkpt lat="42.1176946721971035003662109375" lon="2.7429022081196308135986328125">
        <ele>185.1999969482421875</ele>
        <time>2022-07-29T12:58:38.000Z</time>
      </trkpt>
      <trkpt lat="42.11814972572028636932373046875" lon="2.74245486594736576080322265625">
        <ele>185.8000030517578125</ele>
        <time>2022-07-29T12:58:46.000Z</time>
      </trkpt>
      <trkpt lat="42.11820739321410655975341796875" lon="2.74239602498710155487060546875">
        <ele>185.8000030517578125</ele>
        <time>2022-07-29T12:58:47.000Z</time>
      </trkpt>
      <trkpt lat="42.11860938929021358489990234375" lon="2.741989754140377044677734375">
        <ele>186</ele>
        <time>2022-07-29T12:58:54.000Z</time>
      </trkpt>
      <trkpt lat="42.11872707121074199676513671875" lon="2.74187517352402210235595703125">
        <ele>186</ele>
        <time>2022-07-29T12:58:56.000Z</time>
      </trkpt>
      <trkpt lat="42.11915102787315845489501953125" lon="2.74144685827195644378662109375">
        <ele>186.399993896484375</ele>
        <time>2022-07-29T12:59:03.000Z</time>
      </trkpt>
      <trkpt lat="42.119605578482151031494140625" lon="2.7410008572041988372802734375">
        <ele>186.399993896484375</ele>
        <time>2022-07-29T12:59:10.000Z</time>
      </trkpt>
      <trkpt lat="42.11973541416227817535400390625" lon="2.74087093770503997802734375">
        <ele>186.1999969482421875</ele>
        <time>2022-07-29T12:59:12.000Z</time>
      </trkpt>
      <trkpt lat="42.12019373662769794464111328125" lon="2.74041253142058849334716796875">
        <ele>186.1999969482421875</ele>
        <time>2022-07-29T12:59:19.000Z</time>
      </trkpt>
      <trkpt lat="42.120465226471424102783203125" lon="2.74014799855649471282958984375">
        <ele>186.1999969482421875</ele>
        <time>2022-07-29T12:59:23.000Z</time>
      </trkpt>
      <trkpt lat="42.1209518797695636749267578125" lon="2.7396624349057674407958984375">
        <ele>186.1999969482421875</ele>
        <time>2022-07-29T12:59:30.000Z</time>
      </trkpt>
      <trkpt lat="42.12124407291412353515625" lon="2.73937401361763477325439453125">
        <ele>186.600006103515625</ele>
        <time>2022-07-29T12:59:34.000Z</time>
      </trkpt>
      <trkpt lat="42.12169761769473552703857421875" lon="2.73892155848443508148193359375">
        <ele>186.8000030517578125</ele>
        <time>2022-07-29T12:59:40.000Z</time>
      </trkpt>
      <trkpt lat="42.12192644365131855010986328125" lon="2.73869172669947147369384765625">
        <ele>186.600006103515625</ele>
        <time>2022-07-29T12:59:43.000Z</time>
      </trkpt>
      <trkpt lat="42.12236858904361724853515625" lon="2.73824580945074558258056640625">
        <ele>185.8000030517578125</ele>
        <time>2022-07-29T12:59:49.000Z</time>
      </trkpt>
      <trkpt lat="42.12250529788434505462646484375" lon="2.7381127886474132537841796875">
        <ele>185.8000030517578125</ele>
        <time>2022-07-29T12:59:51.000Z</time>
      </trkpt>
      <trkpt lat="42.12285180576145648956298828125" lon="2.7377711422741413116455078125">
        <ele>186.1999969482421875</ele>
        <time>2022-07-29T12:59:57.000Z</time>
      </trkpt>
      <trkpt lat="42.12299597449600696563720703125" lon="2.73763158358633518218994140625">
        <ele>187.1999969482421875</ele>
        <time>2022-07-29T13:00:00.000Z</time>
      </trkpt>
      <trkpt lat="42.12308180518448352813720703125" lon="2.7375424839556217193603515625">
        <ele>188.399993896484375</ele>
        <time>2022-07-29T13:00:02.000Z</time>
      </trkpt>
      <trkpt lat="42.123124636709690093994140625" lon="2.73750300519168376922607421875">
        <ele>189</ele>
        <time>2022-07-29T13:00:03.000Z</time>
      </trkpt>
      <trkpt lat="42.1231650374829769134521484375" lon="2.737464867532253265380859375">
        <ele>189.399993896484375</ele>
        <time>2022-07-29T13:00:04.000Z</time>
      </trkpt>
      <trkpt lat="42.12324156425893306732177734375" lon="2.73739102296531200408935546875">
        <ele>190.399993896484375</ele>
        <time>2022-07-29T13:00:06.000Z</time>
      </trkpt>
      <trkpt lat="42.123282216489315032958984375" lon="2.7373627759516239166259765625">
        <ele>190.8000030517578125</ele>
        <time>2022-07-29T13:00:07.000Z</time>
      </trkpt>
      <trkpt lat="42.1233252994716167449951171875" lon="2.7373413182795047760009765625">
        <ele>191.1999969482421875</ele>
        <time>2022-07-29T13:00:08.000Z</time>
      </trkpt>
      <trkpt lat="42.1234151534736156463623046875" lon="2.73731910623610019683837890625">
        <ele>192.1999969482421875</ele>
        <time>2022-07-29T13:00:10.000Z</time>
      </trkpt>
      <trkpt lat="42.12353811599314212799072265625" lon="2.73733486421406269073486328125">
        <ele>193.1999969482421875</ele>
        <time>2022-07-29T13:00:13.000Z</time>
      </trkpt>
      <trkpt lat="42.12357583455741405487060546875" lon="2.7373473532497882843017578125">
        <ele>193.1999969482421875</ele>
        <time>2022-07-29T13:00:14.000Z</time>
      </trkpt>
      <trkpt lat="42.1236870624125003814697265625" lon="2.73738984949886798858642578125">
        <ele>194.399993896484375</ele>
        <time>2022-07-29T13:00:17.000Z</time>
      </trkpt>
      <trkpt lat="42.123797871172428131103515625" lon="2.73743427358567714691162109375">
        <ele>195.8000030517578125</ele>
        <time>2022-07-29T13:00:20.000Z</time>
      </trkpt>
      <trkpt lat="42.1239311434328556060791015625" lon="2.73751172237098217010498046875">
        <ele>196.8000030517578125</ele>
        <time>2022-07-29T13:00:24.000Z</time>
      </trkpt>
      <trkpt lat="42.123990990221500396728515625" lon="2.737554721534252166748046875">
        <ele>197.1999969482421875</ele>
        <time>2022-07-29T13:00:26.000Z</time>
      </trkpt>
      <trkpt lat="42.124095596373081207275390625" lon="2.7376678772270679473876953125">
        <ele>198</ele>
        <time>2022-07-29T13:00:30.000Z</time>
      </trkpt>
      <trkpt lat="42.1241463907063007354736328125" lon="2.73772294633090496063232421875">
        <ele>198.600006103515625</ele>
        <time>2022-07-29T13:00:32.000Z</time>
      </trkpt>
      <trkpt lat="42.124221660196781158447265625" lon="2.7378083579242229461669921875">
        <ele>199.1999969482421875</ele>
        <time>2022-07-29T13:00:35.000Z</time>
      </trkpt>
      <trkpt lat="42.1242680959403514862060546875" lon="2.7378707192838191986083984375">
        <ele>199.600006103515625</ele>
        <time>2022-07-29T13:00:37.000Z</time>
      </trkpt>
      <trkpt lat="42.12431679479777812957763671875" lon="2.73793249391019344329833984375">
        <ele>200.399993896484375</ele>
        <time>2022-07-29T13:00:39.000Z</time>
      </trkpt>
      <trkpt lat="42.124412097036838531494140625" lon="2.7380551211535930633544921875">
        <ele>201.399993896484375</ele>
        <time>2022-07-29T13:00:43.000Z</time>
      </trkpt>
      <trkpt lat="42.12451175786554813385009765625" lon="2.73816735483705997467041015625">
        <ele>202.1999969482421875</ele>
        <time>2022-07-29T13:00:47.000Z</time>
      </trkpt>
      <trkpt lat="42.1246389113366603851318359375" lon="2.73830314166843891143798828125">
        <ele>203.1999969482421875</ele>
        <time>2022-07-29T13:00:52.000Z</time>
      </trkpt>
      <trkpt lat="42.12469272315502166748046875" lon="2.73834773339331150054931640625">
        <ele>203.600006103515625</ele>
        <time>2022-07-29T13:00:54.000Z</time>
      </trkpt>
      <trkpt lat="42.12483161129057407379150390625" lon="2.7384214103221893310546875">
        <ele>204.600006103515625</ele>
        <time>2022-07-29T13:00:59.000Z</time>
      </trkpt>
      <trkpt lat="42.1249996684491634368896484375" lon="2.73844781331717967987060546875">
        <ele>205.8000030517578125</ele>
        <time>2022-07-29T13:01:05.000Z</time>
      </trkpt>
      <trkpt lat="42.12512397207319736480712890625" lon="2.73842903785407543182373046875">
        <ele>206.8000030517578125</ele>
        <time>2022-07-29T13:01:09.000Z</time>
      </trkpt>
      <trkpt lat="42.125190608203411102294921875" lon="2.7384148724377155303955078125">
        <ele>207.399993896484375</ele>
        <time>2022-07-29T13:01:11.000Z</time>
      </trkpt>
      <trkpt lat="42.12525556795299053192138671875" lon="2.73839986883103847503662109375">
        <ele>208</ele>
        <time>2022-07-29T13:01:13.000Z</time>
      </trkpt>
      <trkpt lat="42.12537291459739208221435546875" lon="2.73832359351217746734619140625">
        <ele>208.600006103515625</ele>
        <time>2022-07-29T13:01:17.000Z</time>
      </trkpt>
      <trkpt lat="42.1254224516451358795166015625" lon="2.73826248943805694580078125">
        <ele>209</ele>
        <time>2022-07-29T13:01:19.000Z</time>
      </trkpt>
      <trkpt lat="42.12549160234630107879638671875" lon="2.73814941756427288055419921875">
        <ele>209.600006103515625</ele>
        <time>2022-07-29T13:01:22.000Z</time>
      </trkpt>
      <trkpt lat="42.1255612559616565704345703125" lon="2.73802754469215869903564453125">
        <ele>210</ele>
        <time>2022-07-29T13:01:25.000Z</time>
      </trkpt>
      <trkpt lat="42.12565639056265354156494140625" lon="2.7378184162080287933349609375">
        <ele>210.399993896484375</ele>
        <time>2022-07-29T13:01:30.000Z</time>
      </trkpt>
      <trkpt lat="42.12576032616198062896728515625" lon="2.73759621195495128631591796875">
        <ele>211.1999969482421875</ele>
        <time>2022-07-29T13:01:36.000Z</time>
      </trkpt>
      <trkpt lat="42.12577625177800655364990234375" lon="2.7375579066574573516845703125">
        <ele>211.399993896484375</ele>
        <time>2022-07-29T13:01:37.000Z</time>
      </trkpt>
      <trkpt lat="42.1258502639830112457275390625" lon="2.73740225471556186676025390625">
        <ele>212.1999969482421875</ele>
        <time>2022-07-29T13:01:41.000Z</time>
      </trkpt>
      <trkpt lat="42.12591539137065410614013671875" lon="2.73724450729787349700927734375">
        <ele>213.1999969482421875</ele>
        <time>2022-07-29T13:01:45.000Z</time>
      </trkpt>
      <trkpt lat="42.12593257427215576171875" lon="2.7372055314481258392333984375">
        <ele>213.1999969482421875</ele>
        <time>2022-07-29T13:01:46.000Z</time>
      </trkpt>
      <trkpt lat="42.12597724981606006622314453125" lon="2.7370030246675014495849609375">
        <ele>214.399993896484375</ele>
        <time>2022-07-29T13:01:51.000Z</time>
      </trkpt>
      <trkpt lat="42.12598261423408985137939453125" lon="2.7369637973606586456298828125">
        <ele>214.399993896484375</ele>
        <time>2022-07-29T13:01:52.000Z</time>
      </trkpt>
      <trkpt lat="42.12598420679569244384765625" lon="2.73682340048253536224365234375">
        <ele>215.399993896484375</ele>
        <time>2022-07-29T13:01:56.000Z</time>
      </trkpt>
      <trkpt lat="42.12597347795963287353515625" lon="2.73671024478971958160400390625">
        <ele>216</ele>
        <time>2022-07-29T13:01:59.000Z</time>
      </trkpt>
      <trkpt lat="42.12596945464611053466796875" lon="2.7365778945386409759521484375">
        <ele>216.399993896484375</ele>
        <time>2022-07-29T13:02:02.000Z</time>
      </trkpt>
      <trkpt lat="42.12597574107348918914794921875" lon="2.73644604720175266265869140625">
        <ele>217</ele>
        <time>2022-07-29T13:02:05.000Z</time>
      </trkpt>
      <trkpt lat="42.126000635325908660888671875" lon="2.736332304775714874267578125">
        <ele>217.600006103515625</ele>
        <time>2022-07-29T13:02:08.000Z</time>
      </trkpt>
      <trkpt lat="42.12604246102273464202880859375" lon="2.73622828535735607147216796875">
        <ele>218.1999969482421875</ele>
        <time>2022-07-29T13:02:11.000Z</time>
      </trkpt>
      <trkpt lat="42.12609744630753993988037109375" lon="2.736153267323970794677734375">
        <ele>218.600006103515625</ele>
        <time>2022-07-29T13:02:14.000Z</time>
      </trkpt>
      <trkpt lat="42.12613969109952449798583984375" lon="2.7361254394054412841796875">
        <ele>219</ele>
        <time>2022-07-29T13:02:16.000Z</time>
      </trkpt>
      <trkpt lat="42.1262294612824916839599609375" lon="2.736089564859867095947265625">
        <ele>219.600006103515625</ele>
        <time>2022-07-29T13:02:20.000Z</time>
      </trkpt>
      <trkpt lat="42.12627346627414226531982421875" lon="2.73607925511896610260009765625">
        <ele>220.1999969482421875</ele>
        <time>2022-07-29T13:02:22.000Z</time>
      </trkpt>
      <trkpt lat="42.12639047764241695404052734375" lon="2.7360887266695499420166015625">
        <ele>220.8000030517578125</ele>
        <time>2022-07-29T13:02:26.000Z</time>
      </trkpt>
      <trkpt lat="42.12646004743874073028564453125" lon="2.73609635420143604278564453125">
        <ele>221.399993896484375</ele>
        <time>2022-07-29T13:02:28.000Z</time>
      </trkpt>
      <trkpt lat="42.12653397582471370697021484375" lon="2.73609970696270465850830078125">
        <ele>221.600006103515625</ele>
        <time>2022-07-29T13:02:30.000Z</time>
      </trkpt>
      <trkpt lat="42.12666674517095088958740234375" lon="2.73605796508491039276123046875">
        <ele>222.600006103515625</ele>
        <time>2022-07-29T13:02:34.000Z</time>
      </trkpt>
      <trkpt lat="42.12669633328914642333984375" lon="2.73602996952831745147705078125">
        <ele>222.8000030517578125</ele>
        <time>2022-07-29T13:02:35.000Z</time>
      </trkpt>
      <trkpt lat="42.12680571712553501129150390625" lon="2.73587775416672229766845703125">
        <ele>223.399993896484375</ele>
        <time>2022-07-29T13:02:39.000Z</time>
      </trkpt>
      <trkpt lat="42.12682650424540042877197265625" lon="2.73583265952765941619873046875">
        <ele>223.8000030517578125</ele>
        <time>2022-07-29T13:02:40.000Z</time>
      </trkpt>
      <trkpt lat="42.1269037015736103057861328125" lon="2.7356374450027942657470703125">
        <ele>224.600006103515625</ele>
        <time>2022-07-29T13:02:44.000Z</time>
      </trkpt>
      <trkpt lat="42.12691099382936954498291015625" lon="2.73547709919512271881103515625">
        <ele>225</ele>
        <time>2022-07-29T13:02:47.000Z</time>
      </trkpt>
      <trkpt lat="42.1269060485064983367919921875" lon="2.735373415052890777587890625">
        <ele>225</ele>
        <time>2022-07-29T13:02:49.000Z</time>
      </trkpt>
      <trkpt lat="42.12685416452586650848388671875" lon="2.735081724822521209716796875">
        <ele>226</ele>
        <time>2022-07-29T13:02:55.000Z</time>
      </trkpt>
      <trkpt lat="42.126818709075450897216796875" lon="2.7348371408879756927490234375">
        <ele>227</ele>
        <time>2022-07-29T13:03:00.000Z</time>
      </trkpt>
      <trkpt lat="42.12677889503538608551025390625" lon="2.73460856638848781585693359375">
        <ele>228.1999969482421875</ele>
        <time>2022-07-29T13:03:05.000Z</time>
      </trkpt>
      <trkpt lat="42.12674972601234912872314453125" lon="2.73443422280251979827880859375">
        <ele>229.1999969482421875</ele>
        <time>2022-07-29T13:03:09.000Z</time>
      </trkpt>
      <trkpt lat="42.12671066634356975555419921875" lon="2.73424923419952392578125">
        <ele>229.600006103515625</ele>
        <time>2022-07-29T13:03:13.000Z</time>
      </trkpt>
      <trkpt lat="42.12668786756694316864013671875" lon="2.73415527306497097015380859375">
        <ele>230.399993896484375</ele>
        <time>2022-07-29T13:03:15.000Z</time>
      </trkpt>
      <trkpt lat="42.12664294056594371795654296875" lon="2.73397154174745082855224609375">
        <ele>231.399993896484375</ele>
        <time>2022-07-29T13:03:19.000Z</time>
      </trkpt>
      <trkpt lat="42.12663304992020130157470703125" lon="2.73392460308969020843505859375">
        <ele>231.600006103515625</ele>
        <time>2022-07-29T13:03:20.000Z</time>
      </trkpt>
      <trkpt lat="42.12659197859466075897216796875" lon="2.73372528143227100372314453125">
        <ele>232</ele>
        <time>2022-07-29T13:03:24.000Z</time>
      </trkpt>
      <trkpt lat="42.1265868656337261199951171875" lon="2.7336137183010578155517578125">
        <ele>232.399993896484375</ele>
        <time>2022-07-29T13:03:26.000Z</time>
      </trkpt>
      <trkpt lat="42.126590050756931304931640625" lon="2.73355362005531787872314453125">
        <ele>232.399993896484375</ele>
        <time>2022-07-29T13:03:27.000Z</time>
      </trkpt>
      <trkpt lat="42.1265964210033416748046875" lon="2.7334916777908802032470703125">
        <ele>232.399993896484375</ele>
        <time>2022-07-29T13:03:28.000Z</time>
      </trkpt>
      <trkpt lat="42.126651741564273834228515625" lon="2.733314149081707000732421875">
        <ele>232.399993896484375</ele>
        <time>2022-07-29T13:03:31.000Z</time>
      </trkpt>
      <trkpt lat="42.126851566135883331298828125" lon="2.7330940403044223785400390625">
        <ele>232.8000030517578125</ele>
        <time>2022-07-29T13:03:36.000Z</time>
      </trkpt>
      <trkpt lat="42.12712355889379978179931640625" lon="2.7329673059284687042236328125">
        <ele>232.600006103515625</ele>
        <time>2022-07-29T13:03:41.000Z</time>
      </trkpt>
      <trkpt lat="42.12739094160497188568115234375" lon="2.7328343689441680908203125">
        <ele>232.399993896484375</ele>
        <time>2022-07-29T13:03:46.000Z</time>
      </trkpt>
      <trkpt lat="42.12743553332984447479248046875" lon="2.73279421962797641754150390625">
        <ele>232.1999969482421875</ele>
        <time>2022-07-29T13:03:47.000Z</time>
      </trkpt>
      <trkpt lat="42.12760451249778270721435546875" lon="2.73259959183633327484130859375">
        <ele>232</ele>
        <time>2022-07-29T13:03:51.000Z</time>
      </trkpt>
      <trkpt lat="42.1277177520096302032470703125" lon="2.73244553245604038238525390625">
        <ele>232</ele>
        <time>2022-07-29T13:03:54.000Z</time>
      </trkpt>
      <trkpt lat="42.1278049238026142120361328125" lon="2.7322585321962833404541015625">
        <ele>232</ele>
        <time>2022-07-29T13:03:57.000Z</time>
      </trkpt>
      <trkpt lat="42.12791078723967075347900390625" lon="2.731808088719844818115234375">
        <ele>232.1999969482421875</ele>
        <time>2022-07-29T13:04:03.000Z</time>
      </trkpt>
      <trkpt lat="42.127973735332489013671875" lon="2.73124985396862030029296875">
        <ele>232.1999969482421875</ele>
        <time>2022-07-29T13:04:10.000Z</time>
      </trkpt>
      <trkpt lat="42.1280741505324840545654296875" lon="2.73083754815161228179931640625">
        <ele>233.1999969482421875</ele>
        <time>2022-07-29T13:04:15.000Z</time>
      </trkpt>
      <trkpt lat="42.12820884771645069122314453125" lon="2.73025517351925373077392578125">
        <ele>233.399993896484375</ele>
        <time>2022-07-29T13:04:22.000Z</time>
      </trkpt>
      <trkpt lat="42.1281626634299755096435546875" lon="2.7299042232334613800048828125">
        <ele>233.600006103515625</ele>
        <time>2022-07-29T13:04:26.000Z</time>
      </trkpt>
      <trkpt lat="42.1280107833445072174072265625" lon="2.72946559824049472808837890625">
        <ele>233.600006103515625</ele>
        <time>2022-07-29T13:04:31.000Z</time>
      </trkpt>
      <trkpt lat="42.12795051746070384979248046875" lon="2.72928639315068721771240234375">
        <ele>233.399993896484375</ele>
        <time>2022-07-29T13:04:33.000Z</time>
      </trkpt>
      <trkpt lat="42.12795420549809932708740234375" lon="2.729091346263885498046875">
        <ele>233.399993896484375</ele>
        <time>2022-07-29T13:04:35.000Z</time>
      </trkpt>
      <trkpt lat="42.128061242401599884033203125" lon="2.72883410565555095672607421875">
        <ele>232.1999969482421875</ele>
        <time>2022-07-29T13:04:38.000Z</time>
      </trkpt>
      <trkpt lat="42.128102146089076995849609375" lon="2.72875213064253330230712890625">
        <ele>232.1999969482421875</ele>
        <time>2022-07-29T13:04:39.000Z</time>
      </trkpt>
      <trkpt lat="42.12818873114883899688720703125" lon="2.72859086282551288604736328125">
        <ele>232</ele>
        <time>2022-07-29T13:04:41.000Z</time>
      </trkpt>
      <trkpt lat="42.1283470652997493743896484375" lon="2.7283642999827861785888671875">
        <ele>231.8000030517578125</ele>
        <time>2022-07-29T13:04:44.000Z</time>
      </trkpt>
      <trkpt lat="42.1284141205251216888427734375" lon="2.72830344736576080322265625">
        <ele>231.8000030517578125</ele>
        <time>2022-07-29T13:04:45.000Z</time>
      </trkpt>
      <trkpt lat="42.12864738889038562774658203125" lon="2.728250138461589813232421875">
        <ele>231.399993896484375</ele>
        <time>2022-07-29T13:04:48.000Z</time>
      </trkpt>
      <trkpt lat="42.12890387512743473052978515625" lon="2.72839120589196681976318359375">
        <ele>231.399993896484375</ele>
        <time>2022-07-29T13:04:52.000Z</time>
      </trkpt>
      <trkpt lat="42.129161618649959564208984375" lon="2.72854476235806941986083984375">
        <ele>231.8000030517578125</ele>
        <time>2022-07-29T13:04:57.000Z</time>
      </trkpt>
      <trkpt lat="42.12920998223125934600830078125" lon="2.728557586669921875">
        <ele>231.8000030517578125</ele>
        <time>2022-07-29T13:04:58.000Z</time>
      </trkpt>
      <trkpt lat="42.12934560142457485198974609375" lon="2.72854191251099109649658203125">
        <ele>232.1999969482421875</ele>
        <time>2022-07-29T13:05:01.000Z</time>
      </trkpt>
      <trkpt lat="42.12946479208767414093017578125" lon="2.72846664302051067352294921875">
        <ele>233</ele>
        <time>2022-07-29T13:05:04.000Z</time>
      </trkpt>
      <trkpt lat="42.1295332722365856170654296875" lon="2.728407718241214752197265625">
        <ele>234</ele>
        <time>2022-07-29T13:05:06.000Z</time>
      </trkpt>
      <trkpt lat="42.12956252507865428924560546875" lon="2.72837896831333637237548828125">
        <ele>234.600006103515625</ele>
        <time>2022-07-29T13:05:07.000Z</time>
      </trkpt>
      <trkpt lat="42.12958750315010547637939453125" lon="2.72834292612969875335693359375">
        <ele>235.1999969482421875</ele>
        <time>2022-07-29T13:05:08.000Z</time>
      </trkpt>
      <trkpt lat="42.12963628582656383514404296875" lon="2.72826413623988628387451171875">
        <ele>236.1999969482421875</ele>
        <time>2022-07-29T13:05:10.000Z</time>
      </trkpt>
      <trkpt lat="42.12967718951404094696044921875" lon="2.72818434052169322967529296875">
        <ele>236.8000030517578125</ele>
        <time>2022-07-29T13:05:12.000Z</time>
      </trkpt>
      <trkpt lat="42.12969495914876461029052734375" lon="2.7281436882913112640380859375">
        <ele>237.1999969482421875</ele>
        <time>2022-07-29T13:05:13.000Z</time>
      </trkpt>
      <trkpt lat="42.129757069051265716552734375" lon="2.72803195752203464508056640625">
        <ele>238.600006103515625</ele>
        <time>2022-07-29T13:05:16.000Z</time>
      </trkpt>
      <trkpt lat="42.129790596663951873779296875" lon="2.72796456702053546905517578125">
        <ele>239.1999969482421875</ele>
        <time>2022-07-29T13:05:18.000Z</time>
      </trkpt>
      <trkpt lat="42.1298149041831493377685546875" lon="2.727892398834228515625">
        <ele>239.8000030517578125</ele>
        <time>2022-07-29T13:05:20.000Z</time>
      </trkpt>
      <trkpt lat="42.1298554725944995880126953125" lon="2.72779642604291439056396484375">
        <ele>240.600006103515625</ele>
        <time>2022-07-29T13:05:23.000Z</time>
      </trkpt>
      <trkpt lat="42.1298829652369022369384765625" lon="2.72772937081754207611083984375">
        <ele>241</ele>
        <time>2022-07-29T13:05:25.000Z</time>
      </trkpt>
      <trkpt lat="42.12993367575109004974365234375" lon="2.72762426175177097320556640625">
        <ele>241.600006103515625</ele>
        <time>2022-07-29T13:05:28.000Z</time>
      </trkpt>
      <trkpt lat="42.12996250949800014495849609375" lon="2.72755687125027179718017578125">
        <ele>242.1999969482421875</ele>
        <time>2022-07-29T13:05:30.000Z</time>
      </trkpt>
      <trkpt lat="42.130013890564441680908203125" lon="2.72742812521755695343017578125">
        <ele>243.1999969482421875</ele>
        <time>2022-07-29T13:05:34.000Z</time>
      </trkpt>
      <trkpt lat="42.13002621196210384368896484375" lon="2.72739392705261707305908203125">
        <ele>243.1999969482421875</ele>
        <time>2022-07-29T13:05:35.000Z</time>
      </trkpt>
      <trkpt lat="42.1300403773784637451171875" lon="2.727362997829914093017578125">
        <ele>243.600006103515625</ele>
        <time>2022-07-29T13:05:36.000Z</time>
      </trkpt>
      <trkpt lat="42.130081616342067718505859375" lon="2.7272662706673145294189453125">
        <ele>244.1999969482421875</ele>
        <time>2022-07-29T13:05:39.000Z</time>
      </trkpt>
      <trkpt lat="42.1300945244729518890380859375" lon="2.72723467089235782623291015625">
        <ele>244.399993896484375</ele>
        <time>2022-07-29T13:05:40.000Z</time>
      </trkpt>
      <trkpt lat="42.1301686204969882965087890625" lon="2.727080695331096649169921875">
        <ele>245.399993896484375</ele>
        <time>2022-07-29T13:05:45.000Z</time>
      </trkpt>
      <trkpt lat="42.13019737042486667633056640625" lon="2.72701489739120006561279296875">
        <ele>245.600006103515625</ele>
        <time>2022-07-29T13:05:47.000Z</time>
      </trkpt>
      <trkpt lat="42.13026191107928752899169921875" lon="2.726839296519756317138671875">
        <ele>246.8000030517578125</ele>
        <time>2022-07-29T13:05:52.000Z</time>
      </trkpt>
      <trkpt lat="42.13029946200549602508544921875" lon="2.726683728396892547607421875">
        <ele>247.600006103515625</ele>
        <time>2022-07-29T13:05:56.000Z</time>
      </trkpt>
      <trkpt lat="42.130334414541721343994140625" lon="2.72655825130641460418701171875">
        <ele>248.1999969482421875</ele>
        <time>2022-07-29T13:05:59.000Z</time>
      </trkpt>
      <trkpt lat="42.13035243563354015350341796875" lon="2.72647342644631862640380859375">
        <ele>248.600006103515625</ele>
        <time>2022-07-29T13:06:01.000Z</time>
      </trkpt>
      <trkpt lat="42.1303885616362094879150390625" lon="2.72630788385868072509765625">
        <ele>249.600006103515625</ele>
        <time>2022-07-29T13:06:05.000Z</time>
      </trkpt>
      <trkpt lat="42.1304053254425525665283203125" lon="2.7262225560843944549560546875">
        <ele>250.1999969482421875</ele>
        <time>2022-07-29T13:06:07.000Z</time>
      </trkpt>
      <trkpt lat="42.13042669929563999176025390625" lon="2.726093642413616180419921875">
        <ele>250.8000030517578125</ele>
        <time>2022-07-29T13:06:10.000Z</time>
      </trkpt>
      <trkpt lat="42.13047648780047893524169921875" lon="2.7258896268904209136962890625">
        <ele>251.8000030517578125</ele>
        <time>2022-07-29T13:06:15.000Z</time>
      </trkpt>
      <trkpt lat="42.130487971007823944091796875" lon="2.72584897466003894805908203125">
        <ele>252</ele>
        <time>2022-07-29T13:06:16.000Z</time>
      </trkpt>
      <trkpt lat="42.1305320598185062408447265625" lon="2.7256465516984462738037109375">
        <ele>252.8000030517578125</ele>
        <time>2022-07-29T13:06:21.000Z</time>
      </trkpt>
      <trkpt lat="42.130544967949390411376953125" lon="2.72560506127774715423583984375">
        <ele>253</ele>
        <time>2022-07-29T13:06:22.000Z</time>
      </trkpt>
      <trkpt lat="42.13060858659446239471435546875" lon="2.725376822054386138916015625">
        <ele>253.8000030517578125</ele>
        <time>2022-07-29T13:06:27.000Z</time>
      </trkpt>
      <trkpt lat="42.130634821951389312744140625" lon="2.72528101690113544464111328125">
        <ele>254.1999969482421875</ele>
        <time>2022-07-29T13:06:29.000Z</time>
      </trkpt>
      <trkpt lat="42.13072341866791248321533203125" lon="2.72493182681500911712646484375">
        <ele>254.600006103515625</ele>
        <time>2022-07-29T13:06:35.000Z</time>
      </trkpt>
      <trkpt lat="42.13075359351933002471923828125" lon="2.72451457567512989044189453125">
        <ele>254.600006103515625</ele>
        <time>2022-07-29T13:06:40.000Z</time>
      </trkpt>
      <trkpt lat="42.130783013999462127685546875" lon="2.72387755103409290313720703125">
        <ele>253.1999969482421875</ele>
        <time>2022-07-29T13:06:46.000Z</time>
      </trkpt>
      <trkpt lat="42.13079080916941165924072265625" lon="2.7236429415643215179443359375">
        <ele>252.399993896484375</ele>
        <time>2022-07-29T13:06:48.000Z</time>
      </trkpt>
      <trkpt lat="42.13080086745321750640869140625" lon="2.7233981899917125701904296875">
        <ele>251</ele>
        <time>2022-07-29T13:06:50.000Z</time>
      </trkpt>
      <trkpt lat="42.1308116801083087921142578125" lon="2.7231427095830440521240234375">
        <ele>249.8000030517578125</ele>
        <time>2022-07-29T13:06:52.000Z</time>
      </trkpt>
      <trkpt lat="42.1308167092502117156982421875" lon="2.7230112813413143157958984375">
        <ele>249.399993896484375</ele>
        <time>2022-07-29T13:06:53.000Z</time>
      </trkpt>
      <trkpt lat="42.1308220736682415008544921875" lon="2.72274456918239593505859375">
        <ele>248.399993896484375</ele>
        <time>2022-07-29T13:06:55.000Z</time>
      </trkpt>
      <trkpt lat="42.13084059767425060272216796875" lon="2.7223494462668895721435546875">
        <ele>247</ele>
        <time>2022-07-29T13:06:58.000Z</time>
      </trkpt>
      <trkpt lat="42.13085065595805644989013671875" lon="2.72208902053534984588623046875">
        <ele>246.1999969482421875</ele>
        <time>2022-07-29T13:07:00.000Z</time>
      </trkpt>
      <trkpt lat="42.1308584511280059814453125" lon="2.721832282841205596923828125">
        <ele>245.600006103515625</ele>
        <time>2022-07-29T13:07:02.000Z</time>
      </trkpt>
      <trkpt lat="42.1308475546538829803466796875" lon="2.72157940082252025604248046875">
        <ele>244.399993896484375</ele>
        <time>2022-07-29T13:07:04.000Z</time>
      </trkpt>
      <trkpt lat="42.13083322159945964813232421875" lon="2.72145702503621578216552734375">
        <ele>244.1999969482421875</ele>
        <time>2022-07-29T13:07:05.000Z</time>
      </trkpt>
      <trkpt lat="42.13075242005288600921630859375" lon="2.7211131155490875244140625">
        <ele>243.8000030517578125</ele>
        <time>2022-07-29T13:07:08.000Z</time>
      </trkpt>
      <trkpt lat="42.1307121030986309051513671875" lon="2.721009515225887298583984375">
        <ele>243.8000030517578125</ele>
        <time>2022-07-29T13:07:09.000Z</time>
      </trkpt>
      <trkpt lat="42.1305528469383716583251953125" lon="2.72074037231504917144775390625">
        <ele>243.600006103515625</ele>
        <time>2022-07-29T13:07:12.000Z</time>
      </trkpt>
      <trkpt lat="42.1304945088922977447509765625" lon="2.72065822966396808624267578125">
        <ele>243.399993896484375</ele>
        <time>2022-07-29T13:07:13.000Z</time>
      </trkpt>
      <trkpt lat="42.13031924329698085784912109375" lon="2.72042177617549896240234375">
        <ele>243.399993896484375</ele>
        <time>2022-07-29T13:07:16.000Z</time>
      </trkpt>
      <trkpt lat="42.13003107346594333648681640625" lon="2.7200524695217609405517578125">
        <ele>243.399993896484375</ele>
        <time>2022-07-29T13:07:21.000Z</time>
      </trkpt>
      <trkpt lat="42.12997290305793285369873046875" lon="2.7199897728860378265380859375">
        <ele>243.399993896484375</ele>
        <time>2022-07-29T13:07:22.000Z</time>
      </trkpt>
      <trkpt lat="42.12978221476078033447265625" lon="2.719836048781871795654296875">
        <ele>243.8000030517578125</ele>
        <time>2022-07-29T13:07:25.000Z</time>
      </trkpt>
      <trkpt lat="42.129588425159454345703125" lon="2.71963991224765777587890625">
        <ele>243.8000030517578125</ele>
        <time>2022-07-29T13:07:28.000Z</time>
      </trkpt>
      <trkpt lat="42.1295349486172199249267578125" lon="2.7195535786449909210205078125">
        <ele>243.8000030517578125</ele>
        <time>2022-07-29T13:07:29.000Z</time>
      </trkpt>
      <trkpt lat="42.1294823102653026580810546875" lon="2.71923280321061611175537109375">
        <ele>243.8000030517578125</ele>
        <time>2022-07-29T13:07:32.000Z</time>
      </trkpt>
      <trkpt lat="42.1294859983026981353759765625" lon="2.71912501193583011627197265625">
        <ele>243.8000030517578125</ele>
        <time>2022-07-29T13:07:33.000Z</time>
      </trkpt>
      <trkpt lat="42.1295010857284069061279296875" lon="2.71892267279326915740966796875">
        <ele>243.1999969482421875</ele>
        <time>2022-07-29T13:07:35.000Z</time>
      </trkpt>
      <trkpt lat="42.12953134439885616302490234375" lon="2.71874606609344482421875">
        <ele>243</ele>
        <time>2022-07-29T13:07:37.000Z</time>
      </trkpt>
      <trkpt lat="42.1296009980142116546630859375" lon="2.71838732063770294189453125">
        <ele>242.8000030517578125</ele>
        <time>2022-07-29T13:07:42.000Z</time>
      </trkpt>
      <trkpt lat="42.12957325391471385955810546875" lon="2.71808884106576442718505859375">
        <ele>244.1999969482421875</ele>
        <time>2022-07-29T13:07:47.000Z</time>
      </trkpt>
      <trkpt lat="42.12956185452640056610107421875" lon="2.7180351130664348602294921875">
        <ele>244.600006103515625</ele>
        <time>2022-07-29T13:07:48.000Z</time>
      </trkpt>
      <trkpt lat="42.12952514179050922393798828125" lon="2.71788164041936397552490234375">
        <ele>246</ele>
        <time>2022-07-29T13:07:51.000Z</time>
      </trkpt>
      <trkpt lat="42.1294891834259033203125" lon="2.7177335321903228759765625">
        <ele>247.399993896484375</ele>
        <time>2022-07-29T13:07:54.000Z</time>
      </trkpt>
      <trkpt lat="42.12947652675211429595947265625" lon="2.7176830731332302093505859375">
        <ele>247.8000030517578125</ele>
        <time>2022-07-29T13:07:55.000Z</time>
      </trkpt>
      <trkpt lat="42.12945557199418544769287109375" lon="2.71758668124675750732421875">
        <ele>248.399993896484375</ele>
        <time>2022-07-29T13:07:57.000Z</time>
      </trkpt>
      <trkpt lat="42.12941030971705913543701171875" lon="2.7174024470150470733642578125">
        <ele>250.1999969482421875</ele>
        <time>2022-07-29T13:08:01.000Z</time>
      </trkpt>
      <trkpt lat="42.12939740158617496490478515625" lon="2.71735575981438159942626953125">
        <ele>250.600006103515625</ele>
        <time>2022-07-29T13:08:02.000Z</time>
      </trkpt>
      <trkpt lat="42.12934560142457485198974609375" lon="2.7172247506678104400634765625">
        <ele>251.1999969482421875</ele>
        <time>2022-07-29T13:08:05.000Z</time>
      </trkpt>
      <trkpt lat="42.1292891912162303924560546875" lon="2.7171087451279163360595703125">
        <ele>251.8000030517578125</ele>
        <time>2022-07-29T13:08:08.000Z</time>
      </trkpt>
      <trkpt lat="42.12925113737583160400390625" lon="2.717037834227085113525390625">
        <ele>252.399993896484375</ele>
        <time>2022-07-29T13:08:10.000Z</time>
      </trkpt>
      <trkpt lat="42.12915818206965923309326171875" lon="2.716896347701549530029296875">
        <ele>253.399993896484375</ele>
        <time>2022-07-29T13:08:14.000Z</time>
      </trkpt>
      <trkpt lat="42.1290930546820163726806640625" lon="2.71678872406482696533203125">
        <ele>254.1999969482421875</ele>
        <time>2022-07-29T13:08:17.000Z</time>
      </trkpt>
      <trkpt lat="42.12907939217984676361083984375" lon="2.71674974821507930755615234375">
        <ele>254.600006103515625</ele>
        <time>2022-07-29T13:08:18.000Z</time>
      </trkpt>
      <trkpt lat="42.12905374355614185333251953125" lon="2.71656132303178310394287109375">
        <ele>255.1999969482421875</ele>
        <time>2022-07-29T13:08:23.000Z</time>
      </trkpt>
      <trkpt lat="42.12905508466064929962158203125" lon="2.7165297232568264007568359375">
        <ele>255.399993896484375</ele>
        <time>2022-07-29T13:08:24.000Z</time>
      </trkpt>
      <trkpt lat="42.12907277047634124755859375" lon="2.71638236939907073974609375">
        <ele>256.20001220703125</ele>
        <time>2022-07-29T13:08:28.000Z</time>
      </trkpt>
      <trkpt lat="42.1290746144950389862060546875" lon="2.71633668802678585052490234375">
        <ele>256.399993896484375</ele>
        <time>2022-07-29T13:08:29.000Z</time>
      </trkpt>
      <trkpt lat="42.12908710353076457977294921875" lon="2.71613560616970062255859375">
        <ele>257.399993896484375</ele>
        <time>2022-07-29T13:08:33.000Z</time>
      </trkpt>
      <trkpt lat="42.12902583181858062744140625" lon="2.71590753458440303802490234375">
        <ele>258.399993896484375</ele>
        <time>2022-07-29T13:08:38.000Z</time>
      </trkpt>
      <trkpt lat="42.12900646962225437164306640625" lon="2.715865708887577056884765625">
        <ele>258.600006103515625</ele>
        <time>2022-07-29T13:08:39.000Z</time>
      </trkpt>
      <trkpt lat="42.1288788132369518280029296875" lon="2.71567233838140964508056640625">
        <ele>259.79998779296875</ele>
        <time>2022-07-29T13:08:44.000Z</time>
      </trkpt>
      <trkpt lat="42.12870405055582523345947265625" lon="2.7154249884188175201416015625">
        <ele>260.399993896484375</ele>
        <time>2022-07-29T13:08:51.000Z</time>
      </trkpt>
      <trkpt lat="42.12864856235682964324951171875" lon="2.715359441936016082763671875">
        <ele>260.79998779296875</ele>
        <time>2022-07-29T13:08:53.000Z</time>
      </trkpt>
      <trkpt lat="42.12854445911943912506103515625" lon="2.71522088907659053802490234375">
        <ele>261.79998779296875</ele>
        <time>2022-07-29T13:08:57.000Z</time>
      </trkpt>
      <trkpt lat="42.12852417491376399993896484375" lon="2.715183086693286895751953125">
        <ele>262.399993896484375</ele>
        <time>2022-07-29T13:08:58.000Z</time>
      </trkpt>
      <trkpt lat="42.12843415327370166778564453125" lon="2.71499122492969036102294921875">
        <ele>263.20001220703125</ele>
        <time>2022-07-29T13:09:03.000Z</time>
      </trkpt>
      <trkpt lat="42.12841604836285114288330078125" lon="2.71490455605089664459228515625">
        <ele>263.20001220703125</ele>
        <time>2022-07-29T13:09:05.000Z</time>
      </trkpt>
      <trkpt lat="42.1283722110092639923095703125" lon="2.71463030017912387847900390625">
        <ele>264.20001220703125</ele>
        <time>2022-07-29T13:09:11.000Z</time>
      </trkpt>
      <trkpt lat="42.1283447183668613433837890625" lon="2.7143574692308902740478515625">
        <ele>265.399993896484375</ele>
        <time>2022-07-29T13:09:17.000Z</time>
      </trkpt>
      <trkpt lat="42.1283371746540069580078125" lon="2.71426870487630367279052734375">
        <ele>265.600006103515625</ele>
        <time>2022-07-29T13:09:19.000Z</time>
      </trkpt>
      <trkpt lat="42.1283209137618541717529296875" lon="2.71409184671938419342041015625">
        <ele>266.399993896484375</ele>
        <time>2022-07-29T13:09:23.000Z</time>
      </trkpt>
      <trkpt lat="42.12829836644232273101806640625" lon="2.71395002491772174835205078125">
        <ele>267</ele>
        <time>2022-07-29T13:09:26.000Z</time>
      </trkpt>
      <trkpt lat="42.1282867155969142913818359375" lon="2.71385799162089824676513671875">
        <ele>267.79998779296875</ele>
        <time>2022-07-29T13:09:28.000Z</time>
      </trkpt>
      <trkpt lat="42.12826073169708251953125" lon="2.71359153091907501220703125">
        <ele>268.79998779296875</ele>
        <time>2022-07-29T13:09:34.000Z</time>
      </trkpt>
      <trkpt lat="42.128238938748836517333984375" lon="2.71337083540856838226318359375">
        <ele>269.79998779296875</ele>
        <time>2022-07-29T13:09:39.000Z</time>
      </trkpt>
      <trkpt lat="42.1282153017818927764892578125" lon="2.71319028921425342559814453125">
        <ele>270.79998779296875</ele>
        <time>2022-07-29T13:09:43.000Z</time>
      </trkpt>
      <trkpt lat="42.1281909942626953125" lon="2.71296246908605098724365234375">
        <ele>271.79998779296875</ele>
        <time>2022-07-29T13:09:48.000Z</time>
      </trkpt>
      <trkpt lat="42.128159143030643463134765625" lon="2.71273900754749774932861328125">
        <ele>272.600006103515625</ele>
        <time>2022-07-29T13:09:53.000Z</time>
      </trkpt>
      <trkpt lat="42.12814531289041042327880859375" lon="2.7126489020884037017822265625">
        <ele>272.79998779296875</ele>
        <time>2022-07-29T13:09:55.000Z</time>
      </trkpt>
      <trkpt lat="42.12811245582997798919677734375" lon="2.7124668471515178680419921875">
        <ele>274</ele>
        <time>2022-07-29T13:09:59.000Z</time>
      </trkpt>
      <trkpt lat="42.12802126072347164154052734375" lon="2.712220251560211181640625">
        <ele>274.79998779296875</ele>
        <time>2022-07-29T13:10:05.000Z</time>
      </trkpt>
      <trkpt lat="42.127987481653690338134765625" lon="2.71214204840362071990966796875">
        <ele>275</ele>
        <time>2022-07-29T13:10:07.000Z</time>
      </trkpt>
      <trkpt lat="42.12787524797022342681884765625" lon="2.7118690498173236846923828125">
        <ele>276.20001220703125</ele>
        <time>2022-07-29T13:10:14.000Z</time>
      </trkpt>
      <trkpt lat="42.1278599090874195098876953125" lon="2.7118298225104808807373046875">
        <ele>276.20001220703125</ele>
        <time>2022-07-29T13:10:15.000Z</time>
      </trkpt>
      <trkpt lat="42.12774331681430339813232421875" lon="2.71154475398361682891845703125">
        <ele>277.20001220703125</ele>
        <time>2022-07-29T13:10:22.000Z</time>
      </trkpt>
      <trkpt lat="42.12771649472415447235107421875" lon="2.7114509604871273040771484375">
        <ele>277.399993896484375</ele>
        <time>2022-07-29T13:10:24.000Z</time>
      </trkpt>
      <trkpt lat="42.1277050115168094635009765625" lon="2.71140008233487606048583984375">
        <ele>277.600006103515625</ele>
        <time>2022-07-29T13:10:25.000Z</time>
      </trkpt>
      <trkpt lat="42.12769570760428905487060546875" lon="2.71129019558429718017578125">
        <ele>278.20001220703125</ele>
        <time>2022-07-29T13:10:27.000Z</time>
      </trkpt>
      <trkpt lat="42.1276989765465259552001953125" lon="2.7111770398914813995361328125">
        <ele>278.399993896484375</ele>
        <time>2022-07-29T13:10:29.000Z</time>
      </trkpt>
      <trkpt lat="42.1276693046092987060546875" lon="2.7109487168490886688232421875">
        <ele>279</ele>
        <time>2022-07-29T13:10:34.000Z</time>
      </trkpt>
      <trkpt lat="42.1276520378887653350830078125" lon="2.71091074682772159576416015625">
        <ele>279.20001220703125</ele>
        <time>2022-07-29T13:10:35.000Z</time>
      </trkpt>
      <trkpt lat="42.1275574900209903717041015625" lon="2.71078552119433879852294921875">
        <ele>280.20001220703125</ele>
        <time>2022-07-29T13:10:39.000Z</time>
      </trkpt>
      <trkpt lat="42.12752790190279483795166015625" lon="2.710754759609699249267578125">
        <ele>280.399993896484375</ele>
        <time>2022-07-29T13:10:40.000Z</time>
      </trkpt>
      <trkpt lat="42.12742782197892665863037109375" lon="2.7106737904250621795654296875">
        <ele>281.399993896484375</ele>
        <time>2022-07-29T13:10:43.000Z</time>
      </trkpt>
      <trkpt lat="42.12734903208911418914794921875" lon="2.7106432802975177764892578125">
        <ele>281.600006103515625</ele>
        <time>2022-07-29T13:10:45.000Z</time>
      </trkpt>
      <trkpt lat="42.1273098886013031005859375" lon="2.7106345631182193756103515625">
        <ele>281.600006103515625</ele>
        <time>2022-07-29T13:10:46.000Z</time>
      </trkpt>
      <trkpt lat="42.127195559442043304443359375" lon="2.71061788313090801239013671875">
        <ele>282.399993896484375</ele>
        <time>2022-07-29T13:10:49.000Z</time>
      </trkpt>
      <trkpt lat="42.126988358795642852783203125" lon="2.7105708606541156768798828125">
        <ele>283.399993896484375</ele>
        <time>2022-07-29T13:10:54.000Z</time>
      </trkpt>
      <trkpt lat="42.12690646760165691375732421875" lon="2.71053674630820751190185546875">
        <ele>283.600006103515625</ele>
        <time>2022-07-29T13:10:56.000Z</time>
      </trkpt>
      <trkpt lat="42.1268292702734470367431640625" lon="2.7104910649359226226806640625">
        <ele>283.600006103515625</ele>
        <time>2022-07-29T13:10:58.000Z</time>
      </trkpt>
      <trkpt lat="42.12667831219732761383056640625" lon="2.71036885678768157958984375">
        <ele>283.79998779296875</ele>
        <time>2022-07-29T13:11:02.000Z</time>
      </trkpt>
      <trkpt lat="42.1265570260584354400634765625" lon="2.71026852540671825408935546875">
        <ele>284</ele>
        <time>2022-07-29T13:11:05.000Z</time>
      </trkpt>
      <trkpt lat="42.1264373324811458587646484375" lon="2.71014262922108173370361328125">
        <ele>284.20001220703125</ele>
        <time>2022-07-29T13:11:08.000Z</time>
      </trkpt>
      <trkpt lat="42.12640103884041309356689453125" lon="2.71009770222008228302001953125">
        <ele>284.20001220703125</ele>
        <time>2022-07-29T13:11:09.000Z</time>
      </trkpt>
      <trkpt lat="42.12627212516963481903076171875" lon="2.7098853886127471923828125">
        <ele>284.399993896484375</ele>
        <time>2022-07-29T13:11:13.000Z</time>
      </trkpt>
      <trkpt lat="42.12613600306212902069091796875" lon="2.70965941250324249267578125">
        <ele>284.399993896484375</ele>
        <time>2022-07-29T13:11:17.000Z</time>
      </trkpt>
      <trkpt lat="42.12605972774326801300048828125" lon="2.70956276915967464447021484375">
        <ele>284.20001220703125</ele>
        <time>2022-07-29T13:11:19.000Z</time>
      </trkpt>
      <trkpt lat="42.1256916783750057220458984375" lon="2.70909857936203479766845703125">
        <ele>284</ele>
        <time>2022-07-29T13:11:28.000Z</time>
      </trkpt>
      <trkpt lat="42.12559419684112071990966796875" lon="2.7089377306401729583740234375">
        <ele>284</ele>
        <time>2022-07-29T13:11:31.000Z</time>
      </trkpt>
      <trkpt lat="42.12550132535398006439208984375" lon="2.70874905399978160858154296875">
        <ele>284</ele>
        <time>2022-07-29T13:11:34.000Z</time>
      </trkpt>
      <trkpt lat="42.12535858154296875" lon="2.70843456499278545379638671875">
        <ele>284</ele>
        <time>2022-07-29T13:11:38.000Z</time>
      </trkpt>
      <trkpt lat="42.1253299154341220855712890625" lon="2.70833146758377552032470703125">
        <ele>284</ele>
        <time>2022-07-29T13:11:39.000Z</time>
      </trkpt>
      <trkpt lat="42.12526881136000156402587890625" lon="2.70796819590032100677490234375">
        <ele>284</ele>
        <time>2022-07-29T13:11:42.000Z</time>
      </trkpt>
      <trkpt lat="42.12526160292327404022216796875" lon="2.70783685147762298583984375">
        <ele>283.79998779296875</ele>
        <time>2022-07-29T13:11:43.000Z</time>
      </trkpt>
      <trkpt lat="42.12525741197168827056884765625" lon="2.7075667865574359893798828125">
        <ele>283</ele>
        <time>2022-07-29T13:11:45.000Z</time>
      </trkpt>
      <trkpt lat="42.12525062263011932373046875" lon="2.70728565752506256103515625">
        <ele>281.79998779296875</ele>
        <time>2022-07-29T13:11:47.000Z</time>
      </trkpt>
      <trkpt lat="42.12526998482644557952880859375" lon="2.7071446739137172698974609375">
        <ele>281</ele>
        <time>2022-07-29T13:11:48.000Z</time>
      </trkpt>
      <trkpt lat="42.12532061152160167694091796875" lon="2.7070172689855098724365234375">
        <ele>280.20001220703125</ele>
        <time>2022-07-29T13:11:49.000Z</time>
      </trkpt>
      <trkpt lat="42.12546193040907382965087890625" lon="2.70680260844528675079345703125">
        <ele>278.79998779296875</ele>
        <time>2022-07-29T13:11:51.000Z</time>
      </trkpt>
      <trkpt lat="42.12558162398636341094970703125" lon="2.7065790630877017974853515625">
        <ele>277.600006103515625</ele>
        <time>2022-07-29T13:11:53.000Z</time>
      </trkpt>
      <trkpt lat="42.125607691705226898193359375" lon="2.7063198946416378021240234375">
        <ele>276.399993896484375</ele>
        <time>2022-07-29T13:11:55.000Z</time>
      </trkpt>
      <trkpt lat="42.125510461628437042236328125" lon="2.70608603954315185546875">
        <ele>275</ele>
        <time>2022-07-29T13:11:57.000Z</time>
      </trkpt>
      <trkpt lat="42.12534240446984767913818359375" lon="2.70591680891811847686767578125">
        <ele>273.20001220703125</ele>
        <time>2022-07-29T13:11:59.000Z</time>
      </trkpt>
      <trkpt lat="42.12526177056133747100830078125" lon="2.70582930184900760650634765625">
        <ele>272.399993896484375</ele>
        <time>2022-07-29T13:12:00.000Z</time>
      </trkpt>
      <trkpt lat="42.12519655935466289520263671875" lon="2.705712206661701202392578125">
        <ele>272</ele>
        <time>2022-07-29T13:12:01.000Z</time>
      </trkpt>
      <trkpt lat="42.1251445077359676361083984375" lon="2.7055762521922588348388671875">
        <ele>271.600006103515625</ele>
        <time>2022-07-29T13:12:02.000Z</time>
      </trkpt>
      <trkpt lat="42.1250720880925655364990234375" lon="2.7051041834056377410888671875">
        <ele>270.399993896484375</ele>
        <time>2022-07-29T13:12:05.000Z</time>
      </trkpt>
      <trkpt lat="42.12514869868755340576171875" lon="2.70478173159062862396240234375">
        <ele>268.79998779296875</ele>
        <time>2022-07-29T13:12:07.000Z</time>
      </trkpt>
      <trkpt lat="42.12524433620274066925048828125" lon="2.70444922149181365966796875">
        <ele>267</ele>
        <time>2022-07-29T13:12:09.000Z</time>
      </trkpt>
      <trkpt lat="42.1252745948731899261474609375" lon="2.70427194423973560333251953125">
        <ele>265.79998779296875</ele>
        <time>2022-07-29T13:12:10.000Z</time>
      </trkpt>
      <trkpt lat="42.12529211305081844329833984375" lon="2.70409072749316692352294921875">
        <ele>264.600006103515625</ele>
        <time>2022-07-29T13:12:11.000Z</time>
      </trkpt>
      <trkpt lat="42.12530585937201976776123046875" lon="2.70391135476529598236083984375">
        <ele>263.600006103515625</ele>
        <time>2022-07-29T13:12:12.000Z</time>
      </trkpt>
      <trkpt lat="42.12532999925315380096435546875" lon="2.7035446465015411376953125">
        <ele>262.20001220703125</ele>
        <time>2022-07-29T13:12:14.000Z</time>
      </trkpt>
      <trkpt lat="42.1253724955022335052490234375" lon="2.70336837507784366607666015625">
        <ele>261.600006103515625</ele>
        <time>2022-07-29T13:12:15.000Z</time>
      </trkpt>
      <trkpt lat="42.12549176998436450958251953125" lon="2.703036703169345855712890625">
        <ele>260.79998779296875</ele>
        <time>2022-07-29T13:12:17.000Z</time>
      </trkpt>
      <trkpt lat="42.12554792873561382293701171875" lon="2.70286847837269306182861328125">
        <ele>259.79998779296875</ele>
        <time>2022-07-29T13:12:18.000Z</time>
      </trkpt>
      <trkpt lat="42.12559252046048641204833984375" lon="2.7026901952922344207763671875">
        <ele>258.600006103515625</ele>
        <time>2022-07-29T13:12:19.000Z</time>
      </trkpt>
      <trkpt lat="42.1256469190120697021484375" lon="2.702321894466876983642578125">
        <ele>257</ele>
        <time>2022-07-29T13:12:21.000Z</time>
      </trkpt>
      <trkpt lat="42.1256474219262599945068359375" lon="2.70213288255035877227783203125">
        <ele>256</ele>
        <time>2022-07-29T13:12:22.000Z</time>
      </trkpt>
      <trkpt lat="42.125645577907562255859375" lon="2.70194328390061855316162109375">
        <ele>254.1999969482421875</ele>
        <time>2022-07-29T13:12:23.000Z</time>
      </trkpt>
      <trkpt lat="42.125635184347629547119140625" lon="2.70137214101850986480712890625">
        <ele>252.600006103515625</ele>
        <time>2022-07-29T13:12:26.000Z</time>
      </trkpt>
      <trkpt lat="42.1256343461573123931884765625" lon="2.701181285083293914794921875">
        <ele>251.8000030517578125</ele>
        <time>2022-07-29T13:12:27.000Z</time>
      </trkpt>
      <trkpt lat="42.12563275359570980072021484375" lon="2.70099378190934658050537109375">
        <ele>250.600006103515625</ele>
        <time>2022-07-29T13:12:28.000Z</time>
      </trkpt>
      <trkpt lat="42.12561615742743015289306640625" lon="2.70062170922756195068359375">
        <ele>248.8000030517578125</ele>
        <time>2022-07-29T13:12:30.000Z</time>
      </trkpt>
      <trkpt lat="42.12560827843844890594482421875" lon="2.70044200122356414794921875">
        <ele>248.399993896484375</ele>
        <time>2022-07-29T13:12:31.000Z</time>
      </trkpt>
      <trkpt lat="42.12556578218936920166015625" lon="2.700081579387187957763671875">
        <ele>247.8000030517578125</ele>
        <time>2022-07-29T13:12:33.000Z</time>
      </trkpt>
      <trkpt lat="42.12552286684513092041015625" lon="2.69990530796349048614501953125">
        <ele>247.600006103515625</ele>
        <time>2022-07-29T13:12:34.000Z</time>
      </trkpt>
      <trkpt lat="42.12538464926183223724365234375" lon="2.699426114559173583984375">
        <ele>246.600006103515625</ele>
        <time>2022-07-29T13:12:37.000Z</time>
      </trkpt>
      <trkpt lat="42.12533653713762760162353515625" lon="2.69927121698856353759765625">
        <ele>246.399993896484375</ele>
        <time>2022-07-29T13:12:38.000Z</time>
      </trkpt>
      <trkpt lat="42.1252075396478176116943359375" lon="2.698830664157867431640625">
        <ele>245.1999969482421875</ele>
        <time>2022-07-29T13:12:41.000Z</time>
      </trkpt>
      <trkpt lat="42.12513570673763751983642578125" lon="2.69856219179928302764892578125">
        <ele>244.8000030517578125</ele>
        <time>2022-07-29T13:12:43.000Z</time>
      </trkpt>
      <trkpt lat="42.1249641291797161102294921875" lon="2.6978689245879650115966796875">
        <ele>244.399993896484375</ele>
        <time>2022-07-29T13:12:48.000Z</time>
      </trkpt>
      <trkpt lat="42.12493001483380794525146484375" lon="2.69772148691117763519287109375">
        <ele>244.1999969482421875</ele>
        <time>2022-07-29T13:12:49.000Z</time>
      </trkpt>
      <trkpt lat="42.1248920448124408721923828125" lon="2.69757346250116825103759765625">
        <ele>243.600006103515625</ele>
        <time>2022-07-29T13:12:50.000Z</time>
      </trkpt>
      <trkpt lat="42.12481048889458179473876953125" lon="2.69727473147213459014892578125">
        <ele>242.8000030517578125</ele>
        <time>2022-07-29T13:12:52.000Z</time>
      </trkpt>
      <trkpt lat="42.1247535757720470428466796875" lon="2.6969598233699798583984375">
        <ele>242.8000030517578125</ele>
        <time>2022-07-29T13:12:54.000Z</time>
      </trkpt>
      <trkpt lat="42.124749384820461273193359375" lon="2.69679822027683258056640625">
        <ele>242.399993896484375</ele>
        <time>2022-07-29T13:12:55.000Z</time>
      </trkpt>
      <trkpt lat="42.12477528490126132965087890625" lon="2.69632187671959400177001953125">
        <ele>241.8000030517578125</ele>
        <time>2022-07-29T13:12:58.000Z</time>
      </trkpt>
      <trkpt lat="42.12479732930660247802734375" lon="2.69601375795900821685791015625">
        <ele>240.600006103515625</ele>
        <time>2022-07-29T13:13:00.000Z</time>
      </trkpt>
      <trkpt lat="42.12480629794299602508544921875" lon="2.69586204551160335540771484375">
        <ele>240.1999969482421875</ele>
        <time>2022-07-29T13:13:01.000Z</time>
      </trkpt>
      <trkpt lat="42.1248145960271358489990234375" lon="2.6957114227116107940673828125">
        <ele>239.600006103515625</ele>
        <time>2022-07-29T13:13:02.000Z</time>
      </trkpt>
      <trkpt lat="42.12486631236970424652099609375" lon="2.694971971213817596435546875">
        <ele>238.399993896484375</ele>
        <time>2022-07-29T13:13:07.000Z</time>
      </trkpt>
      <trkpt lat="42.1248769573867321014404296875" lon="2.69482755102217197418212890625">
        <ele>238.399993896484375</ele>
        <time>2022-07-29T13:13:08.000Z</time>
      </trkpt>
      <trkpt lat="42.124930433928966522216796875" lon="2.69410234875977039337158203125">
        <ele>238.1999969482421875</ele>
        <time>2022-07-29T13:13:13.000Z</time>
      </trkpt>
      <trkpt lat="42.12496857158839702606201171875" lon="2.693381421267986297607421875">
        <ele>238.1999969482421875</ele>
        <time>2022-07-29T13:13:18.000Z</time>
      </trkpt>
      <trkpt lat="42.12502137757837772369384765625" lon="2.69266719929873943328857421875">
        <ele>237.600006103515625</ele>
        <time>2022-07-29T13:13:23.000Z</time>
      </trkpt>
      <trkpt lat="42.12503227405250072479248046875" lon="2.6925261318683624267578125">
        <ele>237.1999969482421875</ele>
        <time>2022-07-29T13:13:24.000Z</time>
      </trkpt>
      <trkpt lat="42.12507485412061214447021484375" lon="2.691819705069065093994140625">
        <ele>236</ele>
        <time>2022-07-29T13:13:29.000Z</time>
      </trkpt>
      <trkpt lat="42.1250834874808788299560546875" lon="2.69167897291481494903564453125">
        <ele>236</ele>
        <time>2022-07-29T13:13:30.000Z</time>
      </trkpt>
      <trkpt lat="42.12510469369590282440185546875" lon="2.69139901734888553619384765625">
        <ele>235</ele>
        <time>2022-07-29T13:13:32.000Z</time>
      </trkpt>
      <trkpt lat="42.12514869868755340576171875" lon="2.69071371294558048248291015625">
        <ele>233.8000030517578125</ele>
        <time>2022-07-29T13:13:37.000Z</time>
      </trkpt>
      <trkpt lat="42.1251652948558330535888671875" lon="2.69045454449951648712158203125">
        <ele>233.1999969482421875</ele>
        <time>2022-07-29T13:13:39.000Z</time>
      </trkpt>
      <trkpt lat="42.125217430293560028076171875" lon="2.68972883932292461395263671875">
        <ele>232.8000030517578125</ele>
        <time>2022-07-29T13:13:45.000Z</time>
      </trkpt>
      <trkpt lat="42.12523377500474452972412109375" lon="2.68947310745716094970703125">
        <ele>232.8000030517578125</ele>
        <time>2022-07-29T13:13:47.000Z</time>
      </trkpt>
      <trkpt lat="42.12525573559105396270751953125" lon="2.6889629848301410675048828125">
        <ele>232.600006103515625</ele>
        <time>2022-07-29T13:13:51.000Z</time>
      </trkpt>
      <trkpt lat="42.12530820630490779876708984375" lon="2.68819193355739116668701171875">
        <ele>232.1999969482421875</ele>
        <time>2022-07-29T13:13:57.000Z</time>
      </trkpt>
      <trkpt lat="42.1253332681953907012939453125" lon="2.68780251033604145050048828125">
        <ele>231.600006103515625</ele>
        <time>2022-07-29T13:14:00.000Z</time>
      </trkpt>
      <trkpt lat="42.12534584105014801025390625" lon="2.68752322532236576080322265625">
        <ele>231.1999969482421875</ele>
        <time>2022-07-29T13:14:02.000Z</time>
      </trkpt>
      <trkpt lat="42.12536838836967945098876953125" lon="2.68723011016845703125">
        <ele>230.600006103515625</ele>
        <time>2022-07-29T13:14:04.000Z</time>
      </trkpt>
      <trkpt lat="42.12540996260941028594970703125" lon="2.68660792149603366851806640625">
        <ele>230</ele>
        <time>2022-07-29T13:14:08.000Z</time>
      </trkpt>
      <trkpt lat="42.1254296600818634033203125" lon="2.686282955110073089599609375">
        <ele>229.1999969482421875</ele>
        <time>2022-07-29T13:14:10.000Z</time>
      </trkpt>
      <trkpt lat="42.12545044720172882080078125" lon="2.68595782108604907989501953125">
        <ele>227.8000030517578125</ele>
        <time>2022-07-29T13:14:12.000Z</time>
      </trkpt>
      <trkpt lat="42.1254667080938816070556640625" lon="2.68564048223197460174560546875">
        <ele>226.1999969482421875</ele>
        <time>2022-07-29T13:14:14.000Z</time>
      </trkpt>
      <trkpt lat="42.12547668255865573883056640625" lon="2.6854865066707134246826171875">
        <ele>225.8000030517578125</ele>
        <time>2022-07-29T13:14:15.000Z</time>
      </trkpt>
      <trkpt lat="42.12550702504813671112060546875" lon="2.68505039624869823455810546875">
        <ele>224.399993896484375</ele>
        <time>2022-07-29T13:14:18.000Z</time>
      </trkpt>
      <trkpt lat="42.125517167150974273681640625" lon="2.68491427414119243621826171875">
        <ele>223.1999969482421875</ele>
        <time>2022-07-29T13:14:19.000Z</time>
      </trkpt>
      <trkpt lat="42.1255253814160823822021484375" lon="2.68478184007108211517333984375">
        <ele>222.8000030517578125</ele>
        <time>2022-07-29T13:14:20.000Z</time>
      </trkpt>
      <trkpt lat="42.12557676248252391815185546875" lon="2.68401623703539371490478515625">
        <ele>222.399993896484375</ele>
        <time>2022-07-29T13:14:26.000Z</time>
      </trkpt>
      <trkpt lat="42.125594280660152435302734375" lon="2.683767713606357574462890625">
        <ele>222.1999969482421875</ele>
        <time>2022-07-29T13:14:28.000Z</time>
      </trkpt>
      <trkpt lat="42.12563727982342243194580078125" lon="2.6832012645900249481201171875">
        <ele>222.1999969482421875</ele>
        <time>2022-07-29T13:14:33.000Z</time>
      </trkpt>
      <trkpt lat="42.12563610635697841644287109375" lon="2.68304829485714435577392578125">
        <ele>222.399993896484375</ele>
        <time>2022-07-29T13:14:36.000Z</time>
      </trkpt>
      <trkpt lat="42.12559084407985210418701171875" lon="2.68305349163711071014404296875">
        <ele>222.600006103515625</ele>
        <time>2022-07-29T13:14:38.000Z</time>
      </trkpt>
      <trkpt lat="42.1256125532090663909912109375" lon="2.68319497816264629364013671875">
        <ele>222.600006103515625</ele>
        <time>2022-07-29T13:14:41.000Z</time>
      </trkpt>
      <trkpt lat="42.12567600421607494354248046875" lon="2.68328248523175716400146484375">
        <ele>222.600006103515625</ele>
        <time>2022-07-29T13:14:43.000Z</time>
      </trkpt>
      <trkpt lat="42.125713638961315155029296875" lon="2.6833236403763294219970703125">
        <ele>222.600006103515625</ele>
        <time>2022-07-29T13:14:44.000Z</time>
      </trkpt>
      <trkpt lat="42.1258013136684894561767578125" lon="2.6833923719823360443115234375">
        <ele>222.8000030517578125</ele>
        <time>2022-07-29T13:14:46.000Z</time>
      </trkpt>
      <trkpt lat="42.1258982084691524505615234375" lon="2.6834503747522830963134765625">
        <ele>222.8000030517578125</ele>
        <time>2022-07-29T13:14:48.000Z</time>
      </trkpt>
      <trkpt lat="42.12609526701271533966064453125" lon="2.6835353672504425048828125">
        <ele>222.8000030517578125</ele>
        <time>2022-07-29T13:14:52.000Z</time>
      </trkpt>
      <trkpt lat="42.12642484344542026519775390625" lon="2.68361289985477924346923828125">
        <ele>222.8000030517578125</ele>
        <time>2022-07-29T13:14:59.000Z</time>
      </trkpt>
      <trkpt lat="42.1264661662280559539794921875" lon="2.683614157140254974365234375">
        <ele>222.8000030517578125</ele>
        <time>2022-07-29T13:15:00.000Z</time>
      </trkpt>
      <trkpt lat="42.1264202333986759185791015625" lon="2.6835700683295726776123046875">
        <ele>223.1999969482421875</ele>
        <time>2022-07-29T13:17:05.000Z</time>
      </trkpt>
      <trkpt lat="42.126090489327907562255859375" lon="2.6834932900965213775634765625">
        <ele>222.8000030517578125</ele>
        <time>2022-07-29T13:17:12.000Z</time>
      </trkpt>
      <trkpt lat="42.12578631006181240081787109375" lon="2.68338273279368877410888671875">
        <ele>222.8000030517578125</ele>
        <time>2022-07-29T13:17:18.000Z</time>
      </trkpt>
      <trkpt lat="42.1257386170327663421630859375" lon="2.6833474449813365936279296875">
        <ele>222.8000030517578125</ele>
        <time>2022-07-29T13:17:19.000Z</time>
      </trkpt>
      <trkpt lat="42.12564985267817974090576171875" lon="2.683170922100543975830078125">
        <ele>222.8000030517578125</ele>
        <time>2022-07-29T13:17:22.000Z</time>
      </trkpt>
      <trkpt lat="42.12565488182008266448974609375" lon="2.68300923518836498260498046875">
        <ele>222.8000030517578125</ele>
        <time>2022-07-29T13:17:24.000Z</time>
      </trkpt>
      <trkpt lat="42.1256725676357746124267578125" lon="2.68274554051458835601806640625">
        <ele>222.8000030517578125</ele>
        <time>2022-07-29T13:17:27.000Z</time>
      </trkpt>
      <trkpt lat="42.1257091127336025238037109375" lon="2.682179175317287445068359375">
        <ele>222.399993896484375</ele>
        <time>2022-07-29T13:17:33.000Z</time>
      </trkpt>
      <trkpt lat="42.1257273852825164794921875" lon="2.68188572488725185394287109375">
        <ele>222.1999969482421875</ele>
        <time>2022-07-29T13:17:36.000Z</time>
      </trkpt>
      <trkpt lat="42.12578077800571918487548828125" lon="2.6810685731470584869384765625">
        <ele>222.600006103515625</ele>
        <time>2022-07-29T13:17:44.000Z</time>
      </trkpt>
      <trkpt lat="42.125792764127254486083984375" lon="2.68085642717778682708740234375">
        <ele>222.600006103515625</ele>
        <time>2022-07-29T13:17:46.000Z</time>
      </trkpt>
      <trkpt lat="42.1258438937366008758544921875" lon="2.680092416703701019287109375">
        <ele>222.600006103515625</ele>
        <time>2022-07-29T13:17:53.000Z</time>
      </trkpt>
      <trkpt lat="42.12586459703743457794189453125" lon="2.67975336872041225433349609375">
        <ele>222.600006103515625</ele>
        <time>2022-07-29T13:17:56.000Z</time>
      </trkpt>
      <trkpt lat="42.125910781323909759521484375" lon="2.6789513044059276580810546875">
        <ele>221.8000030517578125</ele>
        <time>2022-07-29T13:18:03.000Z</time>
      </trkpt>
      <trkpt lat="42.1259303949773311614990234375" lon="2.678611166775226593017578125">
        <ele>221.8000030517578125</ele>
        <time>2022-07-29T13:18:06.000Z</time>
      </trkpt>
      <trkpt lat="42.12594288401305675506591796875" lon="2.67839348874986171722412109375">
        <ele>221.399993896484375</ele>
        <time>2022-07-29T13:18:08.000Z</time>
      </trkpt>
      <trkpt lat="42.125955708324909210205078125" lon="2.67788085155189037322998046875">
        <ele>221</ele>
        <time>2022-07-29T13:18:13.000Z</time>
      </trkpt>
      <trkpt lat="42.1259464882314205169677734375" lon="2.67777842469513416290283203125">
        <ele>221</ele>
        <time>2022-07-29T13:18:14.000Z</time>
      </trkpt>
      <trkpt lat="42.125891335308551788330078125" lon="2.67747801728546619415283203125">
        <ele>221</ele>
        <time>2022-07-29T13:18:17.000Z</time>
      </trkpt>
      <trkpt lat="42.12574817240238189697265625" lon="2.67673102207481861114501953125">
        <ele>221.600006103515625</ele>
        <time>2022-07-29T13:18:25.000Z</time>
      </trkpt>
      <trkpt lat="42.1256410516798496246337890625" lon="2.67615501768887042999267578125">
        <ele>222</ele>
        <time>2022-07-29T13:18:32.000Z</time>
      </trkpt>
      <trkpt lat="42.12562638334929943084716796875" lon="2.6760810054838657379150390625">
        <ele>222.399993896484375</ele>
        <time>2022-07-29T13:18:33.000Z</time>
      </trkpt>
      <trkpt lat="42.12555714882910251617431640625" lon="2.6757313124835491180419921875">
        <ele>223.600006103515625</ele>
        <time>2022-07-29T13:18:38.000Z</time>
      </trkpt>
      <trkpt lat="42.125539965927600860595703125" lon="2.67566786147654056549072265625">
        <ele>223.8000030517578125</ele>
        <time>2022-07-29T13:18:39.000Z</time>
      </trkpt>
      <trkpt lat="42.12549612857401371002197265625" lon="2.6755556277930736541748046875">
        <ele>224.399993896484375</ele>
        <time>2022-07-29T13:18:41.000Z</time>
      </trkpt>
      <trkpt lat="42.12546075694262981414794921875" lon="2.6755182445049285888671875">
        <ele>225</ele>
        <time>2022-07-29T13:18:42.000Z</time>
      </trkpt>
      <trkpt lat="42.12541951797902584075927734375" lon="2.675495110452175140380859375">
        <ele>225.1999969482421875</ele>
        <time>2022-07-29T13:18:43.000Z</time>
      </trkpt>
      <trkpt lat="42.1252517960965633392333984375" lon="2.67546233721077442169189453125">
        <ele>226.1999969482421875</ele>
        <time>2022-07-29T13:18:47.000Z</time>
      </trkpt>
      <trkpt lat="42.1252098865807056427001953125" lon="2.6754630915820598602294921875">
        <ele>226.399993896484375</ele>
        <time>2022-07-29T13:18:48.000Z</time>
      </trkpt>
      <trkpt lat="42.12517040781676769256591796875" lon="2.675464935600757598876953125">
        <ele>226.8000030517578125</ele>
        <time>2022-07-29T13:18:49.000Z</time>
      </trkpt>
      <trkpt lat="42.125088013708591461181640625" lon="2.6754590682685375213623046875">
        <ele>227.1999969482421875</ele>
        <time>2022-07-29T13:18:51.000Z</time>
      </trkpt>
      <trkpt lat="42.1249299310147762298583984375" lon="2.6754134707152843475341796875">
        <ele>228</ele>
        <time>2022-07-29T13:18:55.000Z</time>
      </trkpt>
      <trkpt lat="42.12489229626953601837158203125" lon="2.67539645545184612274169921875">
        <ele>228.399993896484375</ele>
        <time>2022-07-29T13:18:56.000Z</time>
      </trkpt>
      <trkpt lat="42.12465961463749408721923828125" lon="2.6752525381743907928466796875">
        <ele>229.399993896484375</ele>
        <time>2022-07-29T13:19:02.000Z</time>
      </trkpt>
      <trkpt lat="42.1246276795864105224609375" lon="2.6752206869423389434814453125">
        <ele>229.600006103515625</ele>
        <time>2022-07-29T13:19:03.000Z</time>
      </trkpt>
      <trkpt lat="42.124538831412792205810546875" lon="2.675045840442180633544921875">
        <ele>230.1999969482421875</ele>
        <time>2022-07-29T13:19:07.000Z</time>
      </trkpt>
      <trkpt lat="42.124519385397434234619140625" lon="2.67494668252766132354736328125">
        <ele>230.600006103515625</ele>
        <time>2022-07-29T13:19:09.000Z</time>
      </trkpt>
      <trkpt lat="42.12451075203716754913330078125" lon="2.67484559677541255950927734375">
        <ele>231.399993896484375</ele>
        <time>2022-07-29T13:19:11.000Z</time>
      </trkpt>
      <trkpt lat="42.1245004422962665557861328125" lon="2.67469421960413455963134765625">
        <ele>232</ele>
        <time>2022-07-29T13:19:14.000Z</time>
      </trkpt>
      <trkpt lat="42.12449298240244388580322265625" lon="2.67454150132834911346435546875">
        <ele>232.399993896484375</ele>
        <time>2022-07-29T13:19:17.000Z</time>
      </trkpt>
      <trkpt lat="42.1244900487363338470458984375" lon="2.6743486337363719940185546875">
        <ele>233.600006103515625</ele>
        <time>2022-07-29T13:19:21.000Z</time>
      </trkpt>
      <trkpt lat="42.12449449114501476287841796875" lon="2.67425517551600933074951171875">
        <ele>233.8000030517578125</ele>
        <time>2022-07-29T13:19:23.000Z</time>
      </trkpt>
      <trkpt lat="42.12452634237706661224365234375" lon="2.67402651719748973846435546875">
        <ele>234.8000030517578125</ele>
        <time>2022-07-29T13:19:28.000Z</time>
      </trkpt>
      <trkpt lat="42.12454142980277538299560546875" lon="2.67394135706126689910888671875">
        <ele>235.399993896484375</ele>
        <time>2022-07-29T13:19:30.000Z</time>
      </trkpt>
      <trkpt lat="42.12457076646387577056884765625" lon="2.67381881363689899444580078125">
        <ele>236</ele>
        <time>2022-07-29T13:19:33.000Z</time>
      </trkpt>
      <trkpt lat="42.1246352232992649078369140625" lon="2.673620916903018951416015625">
        <ele>237</ele>
        <time>2022-07-29T13:19:38.000Z</time>
      </trkpt>
      <trkpt lat="42.1246503107249736785888671875" lon="2.67358261160552501678466796875">
        <ele>237.1999969482421875</ele>
        <time>2022-07-29T13:19:39.000Z</time>
      </trkpt>
      <trkpt lat="42.124715186655521392822265625" lon="2.6733860559761524200439453125">
        <ele>238.399993896484375</ele>
        <time>2022-07-29T13:19:44.000Z</time>
      </trkpt>
      <trkpt lat="42.1247267536818981170654296875" lon="2.67334708012640476226806640625">
        <ele>238.399993896484375</ele>
        <time>2022-07-29T13:19:45.000Z</time>
      </trkpt>
      <trkpt lat="42.12475064210593700408935546875" lon="2.67314708791673183441162109375">
        <ele>239.600006103515625</ele>
        <time>2022-07-29T13:19:50.000Z</time>
      </trkpt>
      <trkpt lat="42.12474393658339977264404296875" lon="2.67310936935245990753173828125">
        <ele>239.8000030517578125</ele>
        <time>2022-07-29T13:19:51.000Z</time>
      </trkpt>
      <trkpt lat="42.12468844838440418243408203125" lon="2.67297844402492046356201171875">
        <ele>240.8000030517578125</ele>
        <time>2022-07-29T13:19:55.000Z</time>
      </trkpt>
      <trkpt lat="42.124666236340999603271484375" lon="2.67294877208769321441650390625">
        <ele>240.8000030517578125</ele>
        <time>2022-07-29T13:19:56.000Z</time>
      </trkpt>
      <trkpt lat="42.12448426522314548492431640625" lon="2.67271692864596843719482421875">
        <ele>241.600006103515625</ele>
        <time>2022-07-29T13:20:03.000Z</time>
      </trkpt>
      <trkpt lat="42.12446062825620174407958984375" lon="2.67249078489840030670166015625">
        <ele>242.399993896484375</ele>
        <time>2022-07-29T13:20:08.000Z</time>
      </trkpt>
      <trkpt lat="42.12446783669292926788330078125" lon="2.672446779906749725341796875">
        <ele>242.600006103515625</ele>
        <time>2022-07-29T13:20:09.000Z</time>
      </trkpt>
      <trkpt lat="42.124520726501941680908203125" lon="2.67223991453647613525390625">
        <ele>243.8000030517578125</ele>
        <time>2022-07-29T13:20:14.000Z</time>
      </trkpt>
      <trkpt lat="42.1245440281927585601806640625" lon="2.67215944826602935791015625">
        <ele>244</ele>
        <time>2022-07-29T13:20:16.000Z</time>
      </trkpt>
      <trkpt lat="42.124567665159702301025390625" lon="2.67202827148139476776123046875">
        <ele>244.8000030517578125</ele>
        <time>2022-07-29T13:20:19.000Z</time>
      </trkpt>
      <trkpt lat="42.12458903901278972625732421875" lon="2.6718357391655445098876953125">
        <ele>245.600006103515625</ele>
        <time>2022-07-29T13:20:23.000Z</time>
      </trkpt>
      <trkpt lat="42.12459348142147064208984375" lon="2.67174026928842067718505859375">
        <ele>245.8000030517578125</ele>
        <time>2022-07-29T13:20:25.000Z</time>
      </trkpt>
      <trkpt lat="42.12461820803582668304443359375" lon="2.67152778804302215576171875">
        <ele>246.8000030517578125</ele>
        <time>2022-07-29T13:20:30.000Z</time>
      </trkpt>
      <trkpt lat="42.12462558411061763763427734375" lon="2.67148747108876705169677734375">
        <ele>246.8000030517578125</ele>
        <time>2022-07-29T13:20:31.000Z</time>
      </trkpt>
      <trkpt lat="42.124717868864536285400390625" lon="2.671231739223003387451171875">
        <ele>247.8000030517578125</ele>
        <time>2022-07-29T13:20:38.000Z</time>
      </trkpt>
      <trkpt lat="42.1248427592217922210693359375" lon="2.67111581750214099884033203125">
        <ele>248.8000030517578125</ele>
        <time>2022-07-29T13:20:43.000Z</time>
      </trkpt>
      <trkpt lat="42.1248692460358142852783203125" lon="2.6711008138954639434814453125">
        <ele>248.8000030517578125</ele>
        <time>2022-07-29T13:20:44.000Z</time>
      </trkpt>
      <trkpt lat="42.1250097267329692840576171875" lon="2.67103426158428192138671875">
        <ele>250</ele>
        <time>2022-07-29T13:20:50.000Z</time>
      </trkpt>
      <trkpt lat="42.125123552978038787841796875" lon="2.670998387038707733154296875">
        <ele>251.1999969482421875</ele>
        <time>2022-07-29T13:20:54.000Z</time>
      </trkpt>
      <trkpt lat="42.12520477361977100372314453125" lon="2.67093510366976261138916015625">
        <ele>251.8000030517578125</ele>
        <time>2022-07-29T13:20:57.000Z</time>
      </trkpt>
      <trkpt lat="42.12524525821208953857421875" lon="2.670872993767261505126953125">
        <ele>252.399993896484375</ele>
        <time>2022-07-29T13:20:59.000Z</time>
      </trkpt>
      <trkpt lat="42.1252960525453090667724609375" lon="2.67072019167244434356689453125">
        <ele>253.399993896484375</ele>
        <time>2022-07-29T13:21:03.000Z</time>
      </trkpt>
      <trkpt lat="42.12530158460140228271484375" lon="2.6706766895949840545654296875">
        <ele>253.600006103515625</ele>
        <time>2022-07-29T13:21:04.000Z</time>
      </trkpt>
      <trkpt lat="42.125323377549648284912109375" lon="2.670498825609683990478515625">
        <ele>254.600006103515625</ele>
        <time>2022-07-29T13:21:08.000Z</time>
      </trkpt>
      <trkpt lat="42.12533787824213504791259765625" lon="2.6704564131796360015869140625">
        <ele>254.600006103515625</ele>
        <time>2022-07-29T13:21:09.000Z</time>
      </trkpt>
      <trkpt lat="42.12543435394763946533203125" lon="2.6703523099422454833984375">
        <ele>255</ele>
        <time>2022-07-29T13:21:13.000Z</time>
      </trkpt>
      <trkpt lat="42.12559503503143787384033203125" lon="2.67029271461069583892822265625">
        <ele>255.8000030517578125</ele>
        <time>2022-07-29T13:21:19.000Z</time>
      </trkpt>
      <trkpt lat="42.125733755528926849365234375" lon="2.67030579037964344024658203125">
        <ele>257</ele>
        <time>2022-07-29T13:21:24.000Z</time>
      </trkpt>
      <trkpt lat="42.1257885731756687164306640625" lon="2.67032624222338199615478515625">
        <ele>257.399993896484375</ele>
        <time>2022-07-29T13:21:26.000Z</time>
      </trkpt>
      <trkpt lat="42.12586241774260997772216796875" lon="2.6703715883195400238037109375">
        <ele>258</ele>
        <time>2022-07-29T13:21:29.000Z</time>
      </trkpt>
      <trkpt lat="42.12594489566981792449951171875" lon="2.67042917199432849884033203125">
        <ele>258.600006103515625</ele>
        <time>2022-07-29T13:21:32.000Z</time>
      </trkpt>
      <trkpt lat="42.12599636055529117584228515625" lon="2.67047326080501079559326171875">
        <ele>259</ele>
        <time>2022-07-29T13:21:34.000Z</time>
      </trkpt>
      <trkpt lat="42.126109935343265533447265625" lon="2.670573256909847259521484375">
        <ele>260</ele>
        <time>2022-07-29T13:21:38.000Z</time>
      </trkpt>
      <trkpt lat="42.1261342428624629974365234375" lon="2.67060167156159877777099609375">
        <ele>260.20001220703125</ele>
        <time>2022-07-29T13:21:39.000Z</time>
      </trkpt>
      <trkpt lat="42.12626592256128787994384765625" lon="2.670718096196651458740234375">
        <ele>261</ele>
        <time>2022-07-29T13:21:44.000Z</time>
      </trkpt>
      <trkpt lat="42.12629660032689571380615234375" lon="2.670733518898487091064453125">
        <ele>261.20001220703125</ele>
        <time>2022-07-29T13:21:45.000Z</time>
      </trkpt>
      <trkpt lat="42.126390226185321807861328125" lon="2.67073108814656734466552734375">
        <ele>261.79998779296875</ele>
        <time>2022-07-29T13:21:48.000Z</time>
      </trkpt>
      <trkpt lat="42.12646440602838993072509765625" lon="2.67065313644707202911376953125">
        <ele>262.20001220703125</ele>
        <time>2022-07-29T13:21:51.000Z</time>
      </trkpt>
      <trkpt lat="42.1264784038066864013671875" lon="2.67061240039765834808349609375">
        <ele>262.20001220703125</ele>
        <time>2022-07-29T13:21:52.000Z</time>
      </trkpt>
      <trkpt lat="42.12656364776194095611572265625" lon="2.6703263260424137115478515625">
        <ele>263</ele>
        <time>2022-07-29T13:21:59.000Z</time>
      </trkpt>
      <trkpt lat="42.12659977376461029052734375" lon="2.6702394895255565643310546875">
        <ele>263.399993896484375</ele>
        <time>2022-07-29T13:22:01.000Z</time>
      </trkpt>
      <trkpt lat="42.12670245207846164703369140625" lon="2.670107893645763397216796875">
        <ele>264</ele>
        <time>2022-07-29T13:22:05.000Z</time>
      </trkpt>
      <trkpt lat="42.126767076551914215087890625" lon="2.67006464302539825439453125">
        <ele>264.79998779296875</ele>
        <time>2022-07-29T13:22:07.000Z</time>
      </trkpt>
      <trkpt lat="42.1268953196704387664794921875" lon="2.66999750398099422454833984375">
        <ele>265.399993896484375</ele>
        <time>2022-07-29T13:22:11.000Z</time>
      </trkpt>
      <trkpt lat="42.12699539959430694580078125" lon="2.66995869576930999755859375">
        <ele>265.79998779296875</ele>
        <time>2022-07-29T13:22:14.000Z</time>
      </trkpt>
      <trkpt lat="42.12706438265740871429443359375" lon="2.6699333824217319488525390625">
        <ele>266.399993896484375</ele>
        <time>2022-07-29T13:22:16.000Z</time>
      </trkpt>
      <trkpt lat="42.12716303765773773193359375" lon="2.669909410178661346435546875">
        <ele>267</ele>
        <time>2022-07-29T13:22:19.000Z</time>
      </trkpt>
      <trkpt lat="42.12722472846508026123046875" lon="2.66989675350487232208251953125">
        <ele>267.20001220703125</ele>
        <time>2022-07-29T13:22:21.000Z</time>
      </trkpt>
      <trkpt lat="42.12740837596356868743896484375" lon="2.66992474906146526336669921875">
        <ele>268</ele>
        <time>2022-07-29T13:22:27.000Z</time>
      </trkpt>
      <trkpt lat="42.12743553332984447479248046875" lon="2.669943273067474365234375">
        <ele>268.20001220703125</ele>
        <time>2022-07-29T13:22:28.000Z</time>
      </trkpt>
      <trkpt lat="42.1275682188570499420166015625" lon="2.6700519025325775146484375">
        <ele>269</ele>
        <time>2022-07-29T13:22:33.000Z</time>
      </trkpt>
      <trkpt lat="42.12759344838559627532958984375" lon="2.67007964663207530975341796875">
        <ele>269.20001220703125</ele>
        <time>2022-07-29T13:22:34.000Z</time>
      </trkpt>
      <trkpt lat="42.127704508602619171142578125" lon="2.67016866244375705718994140625">
        <ele>270.20001220703125</ele>
        <time>2022-07-29T13:22:38.000Z</time>
      </trkpt>
      <trkpt lat="42.1277931891381740570068359375" lon="2.670219875872135162353515625">
        <ele>270.600006103515625</ele>
        <time>2022-07-29T13:22:41.000Z</time>
      </trkpt>
      <trkpt lat="42.12788916192948818206787109375" lon="2.67024208791553974151611328125">
        <ele>271</ele>
        <time>2022-07-29T13:22:44.000Z</time>
      </trkpt>
      <trkpt lat="42.127986140549182891845703125" lon="2.67026052810251712799072265625">
        <ele>271.399993896484375</ele>
        <time>2022-07-29T13:22:47.000Z</time>
      </trkpt>
      <trkpt lat="42.1281834505498409271240234375" lon="2.67029154114425182342529296875">
        <ele>272.20001220703125</ele>
        <time>2022-07-29T13:22:53.000Z</time>
      </trkpt>
      <trkpt lat="42.12824991904199123382568359375" lon="2.6702783815562725067138671875">
        <ele>272.399993896484375</ele>
        <time>2022-07-29T13:22:55.000Z</time>
      </trkpt>
      <trkpt lat="42.1283779107034206390380859375" lon="2.670231275260448455810546875">
        <ele>273.20001220703125</ele>
        <time>2022-07-29T13:22:59.000Z</time>
      </trkpt>
      <trkpt lat="42.128476314246654510498046875" lon="2.6702160201966762542724609375">
        <ele>273.79998779296875</ele>
        <time>2022-07-29T13:23:02.000Z</time>
      </trkpt>
      <trkpt lat="42.12856994010508060455322265625" lon="2.6702415011823177337646484375">
        <ele>274.399993896484375</ele>
        <time>2022-07-29T13:23:05.000Z</time>
      </trkpt>
      <trkpt lat="42.12866733781993389129638671875" lon="2.6702639646828174591064453125">
        <ele>274.79998779296875</ele>
        <time>2022-07-29T13:23:08.000Z</time>
      </trkpt>
      <trkpt lat="42.12880563922226428985595703125" lon="2.67022700048983097076416015625">
        <ele>275.399993896484375</ele>
        <time>2022-07-29T13:23:12.000Z</time>
      </trkpt>
      <trkpt lat="42.12883447296917438507080078125" lon="2.6701989211142063140869140625">
        <ele>275.600006103515625</ele>
        <time>2022-07-29T13:23:13.000Z</time>
      </trkpt>
      <trkpt lat="42.128945030272006988525390625" lon="2.6700198836624622344970703125">
        <ele>276.20001220703125</ele>
        <time>2022-07-29T13:23:18.000Z</time>
      </trkpt>
      <trkpt lat="42.12897663004696369171142578125" lon="2.66993715427815914154052734375">
        <ele>276.600006103515625</ele>
        <time>2022-07-29T13:23:20.000Z</time>
      </trkpt>
      <trkpt lat="42.12909816764295101165771484375" lon="2.66970983706414699554443359375">
        <ele>277.399993896484375</ele>
        <time>2022-07-29T13:23:26.000Z</time>
      </trkpt>
      <trkpt lat="42.1291182003915309906005859375" lon="2.6696735434234142303466796875">
        <ele>277.600006103515625</ele>
        <time>2022-07-29T13:23:27.000Z</time>
      </trkpt>
      <trkpt lat="42.12925122119486331939697265625" lon="2.6693888939917087554931640625">
        <ele>278.399993896484375</ele>
        <time>2022-07-29T13:23:34.000Z</time>
      </trkpt>
      <trkpt lat="42.12926320731639862060546875" lon="2.6693469844758510589599609375">
        <ele>278.79998779296875</ele>
        <time>2022-07-29T13:23:35.000Z</time>
      </trkpt>
      <trkpt lat="42.12927066721022129058837890625" lon="2.66917683184146881103515625">
        <ele>279.399993896484375</ele>
        <time>2022-07-29T13:23:39.000Z</time>
      </trkpt>
      <trkpt lat="42.1292305178940296173095703125" lon="2.66910784877836704254150390625">
        <ele>279.79998779296875</ele>
        <time>2022-07-29T13:23:41.000Z</time>
      </trkpt>
      <trkpt lat="42.12915097363293170928955078125" lon="2.66901992261409759521484375">
        <ele>280.399993896484375</ele>
        <time>2022-07-29T13:23:44.000Z</time>
      </trkpt>
      <trkpt lat="42.1290397457778453826904296875" lon="2.66896820627152919769287109375">
        <ele>280.79998779296875</ele>
        <time>2022-07-29T13:23:48.000Z</time>
      </trkpt>
      <trkpt lat="42.1290038712322711944580078125" lon="2.6689629256725311279296875">
        <ele>281</ele>
        <time>2022-07-29T13:23:49.000Z</time>
      </trkpt>
      <trkpt lat="42.1288328804075717926025390625" lon="2.668983042240142822265625">
        <ele>282.20001220703125</ele>
        <time>2022-07-29T13:23:54.000Z</time>
      </trkpt>
      <trkpt lat="42.128796167671680450439453125" lon="2.66899066977202892303466796875">
        <ele>282.399993896484375</ele>
        <time>2022-07-29T13:23:55.000Z</time>
      </trkpt>
      <trkpt lat="42.128653340041637420654296875" lon="2.6689956150949001312255859375">
        <ele>283.20001220703125</ele>
        <time>2022-07-29T13:23:59.000Z</time>
      </trkpt>
      <trkpt lat="42.1285961754620075225830078125" lon="2.66895747743546962738037109375">
        <ele>283.399993896484375</ele>
        <time>2022-07-29T13:24:01.000Z</time>
      </trkpt>
      <trkpt lat="42.128535993397235870361328125" lon="2.66878900118172168731689453125">
        <ele>283.79998779296875</ele>
        <time>2022-07-29T13:24:05.000Z</time>
      </trkpt>
      <trkpt lat="42.1285559423267841339111328125" lon="2.66868674196302890777587890625">
        <ele>284</ele>
        <time>2022-07-29T13:24:07.000Z</time>
      </trkpt>
      <trkpt lat="42.12860145606100559234619140625" lon="2.66859018243849277496337890625">
        <ele>284.20001220703125</ele>
        <time>2022-07-29T13:24:09.000Z</time>
      </trkpt>
      <trkpt lat="42.128623835742473602294921875" lon="2.66854056157171726226806640625">
        <ele>284.20001220703125</ele>
        <time>2022-07-29T13:24:10.000Z</time>
      </trkpt>
      <trkpt lat="42.12867337279021739959716796875" lon="2.66837191767990589141845703125">
        <ele>284.600006103515625</ele>
        <time>2022-07-29T13:24:13.000Z</time>
      </trkpt>
      <trkpt lat="42.12867823429405689239501953125" lon="2.66831072978675365447998046875">
        <ele>284.79998779296875</ele>
        <time>2022-07-29T13:24:14.000Z</time>
      </trkpt>
      <trkpt lat="42.128677479922771453857421875" lon="2.66811425797641277313232421875">
        <ele>285</ele>
        <time>2022-07-29T13:24:17.000Z</time>
      </trkpt>
      <trkpt lat="42.12867085821926593780517578125" lon="2.667978890240192413330078125">
        <ele>285</ele>
        <time>2022-07-29T13:24:19.000Z</time>
      </trkpt>
      <trkpt lat="42.12867446243762969970703125" lon="2.667915858328342437744140625">
        <ele>285</ele>
        <time>2022-07-29T13:24:20.000Z</time>
      </trkpt>
      <trkpt lat="42.12873992510139942169189453125" lon="2.6677359826862812042236328125">
        <ele>285.20001220703125</ele>
        <time>2022-07-29T13:24:23.000Z</time>
      </trkpt>
      <trkpt lat="42.128830365836620330810546875" lon="2.66766213811933994293212890625">
        <ele>285.20001220703125</ele>
        <time>2022-07-29T13:24:25.000Z</time>
      </trkpt>
      <trkpt lat="42.12888090871274471282958984375" lon="2.667630873620510101318359375">
        <ele>285.20001220703125</ele>
        <time>2022-07-29T13:24:26.000Z</time>
      </trkpt>
      <trkpt lat="42.128937654197216033935546875" lon="2.66760949976742267608642578125">
        <ele>285.20001220703125</ele>
        <time>2022-07-29T13:24:27.000Z</time>
      </trkpt>
      <trkpt lat="42.129175364971160888671875" lon="2.667646966874599456787109375">
        <ele>285</ele>
        <time>2022-07-29T13:24:31.000Z</time>
      </trkpt>
      <trkpt lat="42.12930469773709774017333984375" lon="2.66782843507826328277587890625">
        <ele>284.79998779296875</ele>
        <time>2022-07-29T13:24:34.000Z</time>
      </trkpt>
      <trkpt lat="42.12942824698984622955322265625" lon="2.66802079975605010986328125">
        <ele>284.79998779296875</ele>
        <time>2022-07-29T13:24:37.000Z</time>
      </trkpt>
      <trkpt lat="42.1295426599681377410888671875" lon="2.66810604371130466461181640625">
        <ele>284.600006103515625</ele>
        <time>2022-07-29T13:24:39.000Z</time>
      </trkpt>
      <trkpt lat="42.12972111068665981292724609375" lon="2.66809565015137195587158203125">
        <ele>284.600006103515625</ele>
        <time>2022-07-29T13:24:42.000Z</time>
      </trkpt>
      <trkpt lat="42.1298175863921642303466796875" lon="2.6678865216672420501708984375">
        <ele>284.600006103515625</ele>
        <time>2022-07-29T13:24:45.000Z</time>
      </trkpt>
      <trkpt lat="42.1298765949904918670654296875" lon="2.66752048395574092864990234375">
        <ele>284.399993896484375</ele>
        <time>2022-07-29T13:24:49.000Z</time>
      </trkpt>
      <trkpt lat="42.12999385781586170196533203125" lon="2.66739391721785068511962890625">
        <ele>284.399993896484375</ele>
        <time>2022-07-29T13:24:51.000Z</time>
      </trkpt>
      <trkpt lat="42.13015504181385040283203125" lon="2.6673993654549121856689453125">
        <ele>284.20001220703125</ele>
        <time>2022-07-29T13:24:53.000Z</time>
      </trkpt>
      <trkpt lat="42.13033986277878284454345703125" lon="2.6675193943083286285400390625">
        <ele>284</ele>
        <time>2022-07-29T13:24:56.000Z</time>
      </trkpt>
      <trkpt lat="42.13039912283420562744140625" lon="2.6675495691597461700439453125">
        <ele>284</ele>
        <time>2022-07-29T13:24:57.000Z</time>
      </trkpt>
      <trkpt lat="42.13049325160682201385498046875" lon="2.66750707291066646575927734375">
        <ele>284</ele>
        <time>2022-07-29T13:24:59.000Z</time>
      </trkpt>
      <trkpt lat="42.13054756633937358856201171875" lon="2.66725896857678890228271484375">
        <ele>283.79998779296875</ele>
        <time>2022-07-29T13:25:02.000Z</time>
      </trkpt>
      <trkpt lat="42.13054454885423183441162109375" lon="2.66716039739549160003662109375">
        <ele>283.79998779296875</ele>
        <time>2022-07-29T13:25:03.000Z</time>
      </trkpt>
      <trkpt lat="42.1305501647293567657470703125" lon="2.66697096638381481170654296875">
        <ele>283.79998779296875</ele>
        <time>2022-07-29T13:25:05.000Z</time>
      </trkpt>
      <trkpt lat="42.13056969456374645233154296875" lon="2.66687608323991298675537109375">
        <ele>283.79998779296875</ele>
        <time>2022-07-29T13:25:06.000Z</time>
      </trkpt>
      <trkpt lat="42.13066139258444309234619140625" lon="2.66672571189701557159423828125">
        <ele>283.600006103515625</ele>
        <time>2022-07-29T13:25:08.000Z</time>
      </trkpt>
      <trkpt lat="42.1308666653931140899658203125" lon="2.666640467941761016845703125">
        <ele>283.79998779296875</ele>
        <time>2022-07-29T13:25:11.000Z</time>
      </trkpt>
      <trkpt lat="42.131011672317981719970703125" lon="2.66661339439451694488525390625">
        <ele>283.79998779296875</ele>
        <time>2022-07-29T13:25:13.000Z</time>
      </trkpt>
      <trkpt lat="42.131147123873233795166015625" lon="2.66656343825161457061767578125">
        <ele>284</ele>
        <time>2022-07-29T13:25:15.000Z</time>
      </trkpt>
      <trkpt lat="42.13120940141379833221435546875" lon="2.66651884652674198150634765625">
        <ele>284</ele>
        <time>2022-07-29T13:25:16.000Z</time>
      </trkpt>
      <trkpt lat="42.13126874528825283050537109375" lon="2.66646889038383960723876953125">
        <ele>283.79998779296875</ele>
        <time>2022-07-29T13:25:17.000Z</time>
      </trkpt>
      <trkpt lat="42.13148675858974456787109375" lon="2.666249535977840423583984375">
        <ele>284.20001220703125</ele>
        <time>2022-07-29T13:25:21.000Z</time>
      </trkpt>
      <trkpt lat="42.13157518766820430755615234375" lon="2.66612757928669452667236328125">
        <ele>284.399993896484375</ele>
        <time>2022-07-29T13:25:23.000Z</time>
      </trkpt>
      <trkpt lat="42.1316414885222911834716796875" lon="2.6659801416099071502685546875">
        <ele>284.399993896484375</ele>
        <time>2022-07-29T13:25:25.000Z</time>
      </trkpt>
      <trkpt lat="42.13168432004749774932861328125" lon="2.6658175326883792877197265625">
        <ele>284.399993896484375</ele>
        <time>2022-07-29T13:25:27.000Z</time>
      </trkpt>
      <trkpt lat="42.13176931254565715789794921875" lon="2.665475718677043914794921875">
        <ele>284.600006103515625</ele>
        <time>2022-07-29T13:25:31.000Z</time>
      </trkpt>
      <trkpt lat="42.131798565387725830078125" lon="2.66530380584299564361572265625">
        <ele>285.20001220703125</ele>
        <time>2022-07-29T13:25:33.000Z</time>
      </trkpt>
      <trkpt lat="42.13185153901576995849609375" lon="2.66498261131346225738525390625">
        <ele>286.20001220703125</ele>
        <time>2022-07-29T13:25:37.000Z</time>
      </trkpt>
      <trkpt lat="42.13186620734632015228271484375" lon="2.6649062521755695343017578125">
        <ele>286.399993896484375</ele>
        <time>2022-07-29T13:25:38.000Z</time>
      </trkpt>
      <trkpt lat="42.13192395865917205810546875" lon="2.66461112536489963531494140625">
        <ele>287.20001220703125</ele>
        <time>2022-07-29T13:25:42.000Z</time>
      </trkpt>
      <trkpt lat="42.1319432370364665985107421875" lon="2.66454205848276615142822265625">
        <ele>287.600006103515625</ele>
        <time>2022-07-29T13:25:43.000Z</time>
      </trkpt>
      <trkpt lat="42.1319905109703540802001953125" lon="2.66440710984170436859130859375">
        <ele>288</ele>
        <time>2022-07-29T13:25:45.000Z</time>
      </trkpt>
      <trkpt lat="42.13205127976834774017333984375" lon="2.664270065724849700927734375">
        <ele>288.399993896484375</ele>
        <time>2022-07-29T13:25:47.000Z</time>
      </trkpt>
      <trkpt lat="42.1321923471987247467041015625" lon="2.66398943960666656494140625">
        <ele>288.79998779296875</ele>
        <time>2022-07-29T13:25:51.000Z</time>
      </trkpt>
      <trkpt lat="42.13239602744579315185546875" lon="2.663693390786647796630859375">
        <ele>289</ele>
        <time>2022-07-29T13:25:56.000Z</time>
      </trkpt>
      <trkpt lat="42.1324424631893634796142578125" lon="2.66365374438464641571044921875">
        <ele>289</ele>
        <time>2022-07-29T13:25:57.000Z</time>
      </trkpt>
      <trkpt lat="42.1327955089509487152099609375" lon="2.66328644938766956329345703125">
        <ele>288.399993896484375</ele>
        <time>2022-07-29T13:26:04.000Z</time>
      </trkpt>
      <trkpt lat="42.13301687501370906829833984375" lon="2.66297279857099056243896484375">
        <ele>287.600006103515625</ele>
        <time>2022-07-29T13:26:09.000Z</time>
      </trkpt>
      <trkpt lat="42.13305073790252208709716796875" lon="2.662902139127254486083984375">
        <ele>287.399993896484375</ele>
        <time>2022-07-29T13:26:10.000Z</time>
      </trkpt>
      <trkpt lat="42.1331275999546051025390625" lon="2.6626568846404552459716796875">
        <ele>287.399993896484375</ele>
        <time>2022-07-29T13:26:13.000Z</time>
      </trkpt>
      <trkpt lat="42.13323866017162799835205078125" lon="2.66225480474531650543212890625">
        <ele>287.399993896484375</ele>
        <time>2022-07-29T13:26:18.000Z</time>
      </trkpt>
      <trkpt lat="42.1332508139312267303466796875" lon="2.6621769368648529052734375">
        <ele>287.600006103515625</ele>
        <time>2022-07-29T13:26:19.000Z</time>
      </trkpt>
      <trkpt lat="42.13321745395660400390625" lon="2.66182917170226573944091796875">
        <ele>287.600006103515625</ele>
        <time>2022-07-29T13:26:23.000Z</time>
      </trkpt>
      <trkpt lat="42.13320110924541950225830078125" lon="2.661736048758029937744140625">
        <ele>287.600006103515625</ele>
        <time>2022-07-29T13:26:24.000Z</time>
      </trkpt>
      <trkpt lat="42.13315450586378574371337890625" lon="2.6614619605243206024169921875">
        <ele>287.600006103515625</ele>
        <time>2022-07-29T13:26:27.000Z</time>
      </trkpt>
      <trkpt lat="42.133158110082149505615234375" lon="2.6613654009997844696044921875">
        <ele>287.600006103515625</ele>
        <time>2022-07-29T13:26:28.000Z</time>
      </trkpt>
      <trkpt lat="42.13322407566010951995849609375" lon="2.661080248653888702392578125">
        <ele>287.600006103515625</ele>
        <time>2022-07-29T13:26:31.000Z</time>
      </trkpt>
      <trkpt lat="42.1333627961575984954833984375" lon="2.66075737774372100830078125">
        <ele>287.399993896484375</ele>
        <time>2022-07-29T13:26:35.000Z</time>
      </trkpt>
      <trkpt lat="42.13338375091552734375" lon="2.66066609881818294525146484375">
        <ele>287.399993896484375</ele>
        <time>2022-07-29T13:26:36.000Z</time>
      </trkpt>
      <trkpt lat="42.1334677375853061676025390625" lon="2.66017139889299869537353515625">
        <ele>287.20001220703125</ele>
        <time>2022-07-29T13:26:41.000Z</time>
      </trkpt>
      <trkpt lat="42.13363076560199260711669921875" lon="2.65969027765095233917236328125">
        <ele>287.20001220703125</ele>
        <time>2022-07-29T13:26:46.000Z</time>
      </trkpt>
      <trkpt lat="42.13391692377626895904541015625" lon="2.65925668179988861083984375">
        <ele>287.399993896484375</ele>
        <time>2022-07-29T13:26:52.000Z</time>
      </trkpt>
      <trkpt lat="42.1341376192867755889892578125" lon="2.65882861800491809844970703125">
        <ele>287.600006103515625</ele>
        <time>2022-07-29T13:26:58.000Z</time>
      </trkpt>
      <trkpt lat="42.13416150771081447601318359375" lon="2.65874379314482212066650390625">
        <ele>288</ele>
        <time>2022-07-29T13:26:59.000Z</time>
      </trkpt>
      <trkpt lat="42.1341951191425323486328125" lon="2.65846350230276584625244140625">
        <ele>289</ele>
        <time>2022-07-29T13:27:02.000Z</time>
      </trkpt>
      <trkpt lat="42.1342117153108119964599609375" lon="2.658265940845012664794921875">
        <ele>289.20001220703125</ele>
        <time>2022-07-29T13:27:04.000Z</time>
      </trkpt>
      <trkpt lat="42.13426158763468265533447265625" lon="2.65766479074954986572265625">
        <ele>289.20001220703125</ele>
        <time>2022-07-29T13:27:10.000Z</time>
      </trkpt>
      <trkpt lat="42.13428472168743610382080078125" lon="2.657567225396633148193359375">
        <ele>289.20001220703125</ele>
        <time>2022-07-29T13:27:11.000Z</time>
      </trkpt>
      <trkpt lat="42.13436451740562915802001953125" lon="2.65739246271550655364990234375">
        <ele>289.20001220703125</ele>
        <time>2022-07-29T13:27:13.000Z</time>
      </trkpt>
      <trkpt lat="42.1345003880560398101806640625" lon="2.65716313384473323822021484375">
        <ele>289.20001220703125</ele>
        <time>2022-07-29T13:27:16.000Z</time>
      </trkpt>
      <trkpt lat="42.13457725010812282562255859375" lon="2.65699448995292186737060546875">
        <ele>289.20001220703125</ele>
        <time>2022-07-29T13:27:18.000Z</time>
      </trkpt>
      <trkpt lat="42.1346086822450160980224609375" lon="2.65690706670284271240234375">
        <ele>289.20001220703125</ele>
        <time>2022-07-29T13:27:19.000Z</time>
      </trkpt>
      <trkpt lat="42.1346817724406719207763671875" lon="2.65663239173591136932373046875">
        <ele>289.20001220703125</ele>
        <time>2022-07-29T13:27:22.000Z</time>
      </trkpt>
      <trkpt lat="42.134754694998264312744140625" lon="2.65644815750420093536376953125">
        <ele>289.20001220703125</ele>
        <time>2022-07-29T13:27:24.000Z</time>
      </trkpt>
      <trkpt lat="42.1348403580486774444580078125" lon="2.65627465210855007171630859375">
        <ele>289.20001220703125</ele>
        <time>2022-07-29T13:27:26.000Z</time>
      </trkpt>
      <trkpt lat="42.13496281765401363372802734375" lon="2.65601565130054950714111328125">
        <ele>289</ele>
        <time>2022-07-29T13:27:29.000Z</time>
      </trkpt>
      <trkpt lat="42.13500673882663249969482421875" lon="2.6559300720691680908203125">
        <ele>289</ele>
        <time>2022-07-29T13:27:30.000Z</time>
      </trkpt>
      <trkpt lat="42.13511151261627674102783203125" lon="2.6556476019322872161865234375">
        <ele>289</ele>
        <time>2022-07-29T13:27:33.000Z</time>
      </trkpt>
      <trkpt lat="42.13515878655016422271728515625" lon="2.6554457657039165496826171875">
        <ele>289</ele>
        <time>2022-07-29T13:27:35.000Z</time>
      </trkpt>
      <trkpt lat="42.1352975070476531982421875" lon="2.654702626168727874755859375">
        <ele>289</ele>
        <time>2022-07-29T13:27:42.000Z</time>
      </trkpt>
      <trkpt lat="42.13534109294414520263671875" lon="2.65416794456541538238525390625">
        <ele>289.20001220703125</ele>
        <time>2022-07-29T13:27:47.000Z</time>
      </trkpt>
      <trkpt lat="42.1353244967758655548095703125" lon="2.65352371148765087127685546875">
        <ele>289.20001220703125</ele>
        <time>2022-07-29T13:27:53.000Z</time>
      </trkpt>
      <trkpt lat="42.1352695114910602569580078125" lon="2.65322296880185604095458984375">
        <ele>289.20001220703125</ele>
        <time>2022-07-29T13:27:56.000Z</time>
      </trkpt>
      <trkpt lat="42.135210335254669189453125" lon="2.6530240662395954132080078125">
        <ele>289</ele>
        <time>2022-07-29T13:27:58.000Z</time>
      </trkpt>
      <trkpt lat="42.1350227482616901397705078125" lon="2.65243557281792163848876953125">
        <ele>288.399993896484375</ele>
        <time>2022-07-29T13:28:04.000Z</time>
      </trkpt>
      <trkpt lat="42.13483708910644054412841796875" lon="2.65172612853348255157470703125">
        <ele>288.600006103515625</ele>
        <time>2022-07-29T13:28:11.000Z</time>
      </trkpt>
      <trkpt lat="42.13474019430577754974365234375" lon="2.65109798870980739593505859375">
        <ele>288.79998779296875</ele>
        <time>2022-07-29T13:28:17.000Z</time>
      </trkpt>
      <trkpt lat="42.13462100364267826080322265625" lon="2.65058510005474090576171875">
        <ele>288.79998779296875</ele>
        <time>2022-07-29T13:28:22.000Z</time>
      </trkpt>
      <trkpt lat="42.13446132838726043701171875" lon="2.6498426310718059539794921875">
        <ele>288.79998779296875</ele>
        <time>2022-07-29T13:28:29.000Z</time>
      </trkpt>
      <trkpt lat="42.13428656570613384246826171875" lon="2.6491221226751804351806640625">
        <ele>288.79998779296875</ele>
        <time>2022-07-29T13:28:36.000Z</time>
      </trkpt>
      <trkpt lat="42.13419838808476924896240234375" lon="2.64867746271193027496337890625">
        <ele>288.20001220703125</ele>
        <time>2022-07-29T13:28:40.000Z</time>
      </trkpt>
      <trkpt lat="42.134157232940196990966796875" lon="2.64856539666652679443359375">
        <ele>288.20001220703125</ele>
        <time>2022-07-29T13:28:41.000Z</time>
      </trkpt>
      <trkpt lat="42.13403997011482715606689453125" lon="2.6483543403446674346923828125">
        <ele>288</ele>
        <time>2022-07-29T13:28:43.000Z</time>
      </trkpt>
      <trkpt lat="42.13390351273119449615478515625" lon="2.64815610833466053009033203125">
        <ele>287.600006103515625</ele>
        <time>2022-07-29T13:28:45.000Z</time>
      </trkpt>
      <trkpt lat="42.13377493433654308319091796875" lon="2.6479590497910976409912109375">
        <ele>286.399993896484375</ele>
        <time>2022-07-29T13:28:47.000Z</time>
      </trkpt>
      <trkpt lat="42.13362707756459712982177734375" lon="2.6477917470037937164306640625">
        <ele>285.20001220703125</ele>
        <time>2022-07-29T13:28:49.000Z</time>
      </trkpt>
      <trkpt lat="42.1334375627338886260986328125" lon="2.6477243565022945404052734375">
        <ele>283.79998779296875</ele>
        <time>2022-07-29T13:28:51.000Z</time>
      </trkpt>
      <trkpt lat="42.13322323746979236602783203125" lon="2.64773617498576641082763671875">
        <ele>282.399993896484375</ele>
        <time>2022-07-29T13:28:53.000Z</time>
      </trkpt>
      <trkpt lat="42.13311192579567432403564453125" lon="2.64770884998142719268798828125">
        <ele>281.79998779296875</ele>
        <time>2022-07-29T13:28:54.000Z</time>
      </trkpt>
      <trkpt lat="42.13300698436796665191650390625" lon="2.6476529426872730255126953125">
        <ele>281</ele>
        <time>2022-07-29T13:28:55.000Z</time>
      </trkpt>
      <trkpt lat="42.13290941901504993438720703125" lon="2.6475892402231693267822265625">
        <ele>280</ele>
        <time>2022-07-29T13:28:56.000Z</time>
      </trkpt>
      <trkpt lat="42.13281503878533840179443359375" lon="2.64753601513803005218505859375">
        <ele>279.600006103515625</ele>
        <time>2022-07-29T13:28:57.000Z</time>
      </trkpt>
      <trkpt lat="42.1326305530965328216552734375" lon="2.64751153998076915740966796875">
        <ele>278.399993896484375</ele>
        <time>2022-07-29T13:28:59.000Z</time>
      </trkpt>
      <trkpt lat="42.1324669383466243743896484375" lon="2.6476328261196613311767578125">
        <ele>277.20001220703125</ele>
        <time>2022-07-29T13:29:01.000Z</time>
      </trkpt>
      <trkpt lat="42.13230659253895282745361328125" lon="2.64778998680412769317626953125">
        <ele>275.399993896484375</ele>
        <time>2022-07-29T13:29:03.000Z</time>
      </trkpt>
      <trkpt lat="42.13220584206283092498779296875" lon="2.64782820828258991241455078125">
        <ele>274.79998779296875</ele>
        <time>2022-07-29T13:29:04.000Z</time>
      </trkpt>
      <trkpt lat="42.13199478574097156524658203125" lon="2.64777959324419498443603515625">
        <ele>274.20001220703125</ele>
        <time>2022-07-29T13:29:06.000Z</time>
      </trkpt>
      <trkpt lat="42.131898812949657440185546875" lon="2.6477250270545482635498046875">
        <ele>274</ele>
        <time>2022-07-29T13:29:07.000Z</time>
      </trkpt>
      <trkpt lat="42.13152942247688770294189453125" lon="2.64747013337910175323486328125">
        <ele>272.79998779296875</ele>
        <time>2022-07-29T13:29:11.000Z</time>
      </trkpt>
      <trkpt lat="42.1313652209937572479248046875" lon="2.64729176647961139678955078125">
        <ele>271</ele>
        <time>2022-07-29T13:29:13.000Z</time>
      </trkpt>
      <trkpt lat="42.1312042884528636932373046875" lon="2.647101245820522308349609375">
        <ele>269.600006103515625</ele>
        <time>2022-07-29T13:29:15.000Z</time>
      </trkpt>
      <trkpt lat="42.1310354769229888916015625" lon="2.64690904878079891204833984375">
        <ele>268.20001220703125</ele>
        <time>2022-07-29T13:29:17.000Z</time>
      </trkpt>
      <trkpt lat="42.13087479583919048309326171875" lon="2.64672095887362957000732421875">
        <ele>267</ele>
        <time>2022-07-29T13:29:19.000Z</time>
      </trkpt>
      <trkpt lat="42.130645215511322021484375" lon="2.64645516872406005859375">
        <ele>265.600006103515625</ele>
        <time>2022-07-29T13:29:22.000Z</time>
      </trkpt>
      <trkpt lat="42.13057137094438076019287109375" lon="2.6463711820542812347412109375">
        <ele>265.20001220703125</ele>
        <time>2022-07-29T13:29:23.000Z</time>
      </trkpt>
      <trkpt lat="42.130499370396137237548828125" lon="2.6462873630225658416748046875">
        <ele>264.399993896484375</ele>
        <time>2022-07-29T13:29:24.000Z</time>
      </trkpt>
      <trkpt lat="42.13009427301585674285888671875" lon="2.64580448158085346221923828125">
        <ele>263.600006103515625</ele>
        <time>2022-07-29T13:29:30.000Z</time>
      </trkpt>
      <trkpt lat="42.12966243736445903778076171875" lon="2.64530072920024394989013671875">
        <ele>265</ele>
        <time>2022-07-29T13:29:37.000Z</time>
      </trkpt>
      <trkpt lat="42.129604183137416839599609375" lon="2.6452315784990787506103515625">
        <ele>265.20001220703125</ele>
        <time>2022-07-29T13:29:38.000Z</time>
      </trkpt>
      <trkpt lat="42.12943394668400287628173828125" lon="2.64503183774650096893310546875">
        <ele>265.600006103515625</ele>
        <time>2022-07-29T13:29:41.000Z</time>
      </trkpt>
      <trkpt lat="42.1291567571461200714111328125" lon="2.64471081085503101348876953125">
        <ele>266.20001220703125</ele>
        <time>2022-07-29T13:29:46.000Z</time>
      </trkpt>
      <trkpt lat="42.128707654774188995361328125" lon="2.64418710954487323760986328125">
        <ele>267</ele>
        <time>2022-07-29T13:29:54.000Z</time>
      </trkpt>
      <trkpt lat="42.12865166366100311279296875" lon="2.6441211439669132232666015625">
        <ele>267.20001220703125</ele>
        <time>2022-07-29T13:29:55.000Z</time>
      </trkpt>
      <trkpt lat="42.12842895649373531341552734375" lon="2.64385820366442203521728515625">
        <ele>268</ele>
        <time>2022-07-29T13:29:59.000Z</time>
      </trkpt>
      <trkpt lat="42.12815922684967517852783203125" lon="2.6435424573719501495361328125">
        <ele>268.20001220703125</ele>
        <time>2022-07-29T13:30:04.000Z</time>
      </trkpt>
      <trkpt lat="42.1279135532677173614501953125" lon="2.6432648487389087677001953125">
        <ele>268.399993896484375</ele>
        <time>2022-07-29T13:30:09.000Z</time>
      </trkpt>
      <trkpt lat="42.1275829710066318511962890625" lon="2.64286880381405353546142578125">
        <ele>268.79998779296875</ele>
        <time>2022-07-29T13:30:16.000Z</time>
      </trkpt>
      <trkpt lat="42.12742857635021209716796875" lon="2.64268808998167514801025390625">
        <ele>269</ele>
        <time>2022-07-29T13:30:19.000Z</time>
      </trkpt>
      <trkpt lat="42.1272160112857818603515625" lon="2.6424383930861949920654296875">
        <ele>269</ele>
        <time>2022-07-29T13:30:23.000Z</time>
      </trkpt>
      <trkpt lat="42.126785852015018463134765625" lon="2.6419294439256191253662109375">
        <ele>268.600006103515625</ele>
        <time>2022-07-29T13:30:31.000Z</time>
      </trkpt>
      <trkpt lat="42.1267407573759555816650390625" lon="2.6418603770434856414794921875">
        <ele>268.600006103515625</ele>
        <time>2022-07-29T13:30:32.000Z</time>
      </trkpt>
      <trkpt lat="42.12667697109282016754150390625" lon="2.64169089496135711669921875">
        <ele>268.399993896484375</ele>
        <time>2022-07-29T13:30:34.000Z</time>
      </trkpt>
      <trkpt lat="42.12668686173856258392333984375" lon="2.64139585196971893310546875">
        <ele>268.399993896484375</ele>
        <time>2022-07-29T13:30:37.000Z</time>
      </trkpt>
      <trkpt lat="42.12674218229949474334716796875" lon="2.64120684005320072174072265625">
        <ele>268.399993896484375</ele>
        <time>2022-07-29T13:30:39.000Z</time>
      </trkpt>
      <trkpt lat="42.1268673241138458251953125" lon="2.64084809459745883941650390625">
        <ele>268.399993896484375</ele>
        <time>2022-07-29T13:30:43.000Z</time>
      </trkpt>
      <trkpt lat="42.12702666409313678741455078125" lon="2.640364877879619598388671875">
        <ele>268.600006103515625</ele>
        <time>2022-07-29T13:30:49.000Z</time>
      </trkpt>
      <trkpt lat="42.12702163495123386383056640625" lon="2.64018307439982891082763671875">
        <ele>268.79998779296875</ele>
        <time>2022-07-29T13:30:52.000Z</time>
      </trkpt>
      <trkpt lat="42.1270321123301982879638671875" lon="2.64000118710100650787353515625">
        <ele>269</ele>
        <time>2022-07-29T13:30:55.000Z</time>
      </trkpt>
      <trkpt lat="42.1270485408604145050048828125" lon="2.6399494707584381103515625">
        <ele>269.20001220703125</ele>
        <time>2022-07-29T13:30:56.000Z</time>
      </trkpt>
      <trkpt lat="42.12706035934388637542724609375" lon="2.6399040408432483673095703125">
        <ele>269.20001220703125</ele>
        <time>2022-07-29T13:30:57.000Z</time>
      </trkpt>
      <trkpt lat="42.12707678787410259246826171875" lon="2.63975610025227069854736328125">
        <ele>270.600006103515625</ele>
        <time>2022-07-29T13:31:58.000Z</time>
      </trkpt>
      <trkpt lat="42.12707729078829288482666015625" lon="2.63975677080452442169189453125">
        <ele>270.600006103515625</ele>
        <time>2022-07-29T13:31:59.000Z</time>
      </trkpt>
      <trkpt lat="42.1270780451595783233642578125" lon="2.6397585310041904449462890625">
        <ele>270.79998779296875</ele>
        <time>2022-07-29T13:32:11.000Z</time>
      </trkpt>
      <trkpt lat="42.1270800568163394927978515625" lon="2.64023403637111186981201171875">
        <ele>272.79998779296875</ele>
        <time>2022-07-29T14:20:59.000Z</time>
      </trkpt>
      <trkpt lat="42.12710193358361721038818359375" lon="2.640204615890979766845703125">
        <ele>272.79998779296875</ele>
        <time>2022-07-29T14:21:00.000Z</time>
      </trkpt>
      <trkpt lat="42.12715205736458301544189453125" lon="2.64008953236043453216552734375">
        <ele>272.79998779296875</ele>
        <time>2022-07-29T14:21:03.000Z</time>
      </trkpt>
      <trkpt lat="42.127252556383609771728515625" lon="2.63983304612338542938232421875">
        <ele>273.79998779296875</ele>
        <time>2022-07-29T14:21:09.000Z</time>
      </trkpt>
      <trkpt lat="42.1272708289325237274169921875" lon="2.63979616574943065643310546875">
        <ele>273.79998779296875</ele>
        <time>2022-07-29T14:21:10.000Z</time>
      </trkpt>
      <trkpt lat="42.1273984014987945556640625" lon="2.63957169838249683380126953125">
        <ele>274</ele>
        <time>2022-07-29T14:21:16.000Z</time>
      </trkpt>
      <trkpt lat="42.12752781808376312255859375" lon="2.6392767392098903656005859375">
        <ele>274.20001220703125</ele>
        <time>2022-07-29T14:21:23.000Z</time>
      </trkpt>
      <trkpt lat="42.12767927907407283782958984375" lon="2.63896015472710132598876953125">
        <ele>274.20001220703125</ele>
        <time>2022-07-29T14:21:29.000Z</time>
      </trkpt>
      <trkpt lat="42.1277107112109661102294921875" lon="2.63891556300222873687744140625">
        <ele>274.20001220703125</ele>
        <time>2022-07-29T14:21:30.000Z</time>
      </trkpt>
      <trkpt lat="42.1279722265899181365966796875" lon="2.63857022859156131744384765625">
        <ele>273.79998779296875</ele>
        <time>2022-07-29T14:21:38.000Z</time>
      </trkpt>
      <trkpt lat="42.12830943055450916290283203125" lon="2.6381441764533519744873046875">
        <ele>273.79998779296875</ele>
        <time>2022-07-29T14:21:48.000Z</time>
      </trkpt>
      <trkpt lat="42.1284342370927333831787109375" lon="2.63798408210277557373046875">
        <ele>274.600006103515625</ele>
        <time>2022-07-29T14:21:52.000Z</time>
      </trkpt>
      <trkpt lat="42.12859399616718292236328125" lon="2.63775198720395565032958984375">
        <ele>275.600006103515625</ele>
        <time>2022-07-29T14:21:58.000Z</time>
      </trkpt>
      <trkpt lat="42.128622494637966156005859375" lon="2.6377193816006183624267578125">
        <ele>276</ele>
        <time>2022-07-29T14:21:59.000Z</time>
      </trkpt>
      <trkpt lat="42.12878854013979434967041015625" lon="2.63750723563134670257568359375">
        <ele>277</ele>
        <time>2022-07-29T14:22:05.000Z</time>
      </trkpt>
      <trkpt lat="42.1290038712322711944580078125" lon="2.63723331503570079803466796875">
        <ele>278.20001220703125</ele>
        <time>2022-07-29T14:22:12.000Z</time>
      </trkpt>
      <trkpt lat="42.12903580628335475921630859375" lon="2.63719207607209682464599609375">
        <ele>278.20001220703125</ele>
        <time>2022-07-29T14:22:13.000Z</time>
      </trkpt>
      <trkpt lat="42.12922138161957263946533203125" lon="2.63696752488613128662109375">
        <ele>279.20001220703125</ele>
        <time>2022-07-29T14:22:19.000Z</time>
      </trkpt>
      <trkpt lat="42.12928256951272487640380859375" lon="2.63689384795725345611572265625">
        <ele>279.399993896484375</ele>
        <time>2022-07-29T14:22:21.000Z</time>
      </trkpt>
      <trkpt lat="42.129464037716388702392578125" lon="2.636660747230052947998046875">
        <ele>280.399993896484375</ele>
        <time>2022-07-29T14:22:27.000Z</time>
      </trkpt>
      <trkpt lat="42.12964701466262340545654296875" lon="2.63642647303640842437744140625">
        <ele>281.399993896484375</ele>
        <time>2022-07-29T14:22:33.000Z</time>
      </trkpt>
      <trkpt lat="42.12970803491771221160888671875" lon="2.6363491080701351165771484375">
        <ele>281.600006103515625</ele>
        <time>2022-07-29T14:22:35.000Z</time>
      </trkpt>
      <trkpt lat="42.12986142374575138092041015625" lon="2.6361541450023651123046875">
        <ele>282.399993896484375</ele>
        <time>2022-07-29T14:22:40.000Z</time>
      </trkpt>
      <trkpt lat="42.12989218533039093017578125" lon="2.63611466623842716217041015625">
        <ele>282.600006103515625</ele>
        <time>2022-07-29T14:22:41.000Z</time>
      </trkpt>
      <trkpt lat="42.13014104403555393218994140625" lon="2.63578760437667369842529296875">
        <ele>283.600006103515625</ele>
        <time>2022-07-29T14:22:49.000Z</time>
      </trkpt>
      <trkpt lat="42.130474559962749481201171875" lon="2.63534889556467533111572265625">
        <ele>284.20001220703125</ele>
        <time>2022-07-29T14:22:58.000Z</time>
      </trkpt>
      <trkpt lat="42.13081126101315021514892578125" lon="2.6349684409797191619873046875">
        <ele>284.20001220703125</ele>
        <time>2022-07-29T14:23:06.000Z</time>
      </trkpt>
      <trkpt lat="42.1311992593109607696533203125" lon="2.63471354730427265167236328125">
        <ele>284</ele>
        <time>2022-07-29T14:23:13.000Z</time>
      </trkpt>
      <trkpt lat="42.13170133531093597412109375" lon="2.6344849728047847747802734375">
        <ele>283</ele>
        <time>2022-07-29T14:23:21.000Z</time>
      </trkpt>
      <trkpt lat="42.13196276687085628509521484375" lon="2.63437223620712757110595703125">
        <ele>282.600006103515625</ele>
        <time>2022-07-29T14:23:25.000Z</time>
      </trkpt>
      <trkpt lat="42.13215605355799198150634765625" lon="2.63428355567157268524169921875">
        <ele>282.20001220703125</ele>
        <time>2022-07-29T14:23:28.000Z</time>
      </trkpt>
      <trkpt lat="42.132620327174663543701171875" lon="2.63407534919679164886474609375">
        <ele>281.399993896484375</ele>
        <time>2022-07-29T14:23:35.000Z</time>
      </trkpt>
      <trkpt lat="42.132691405713558197021484375" lon="2.634043581783771514892578125">
        <ele>281.399993896484375</ele>
        <time>2022-07-29T14:23:36.000Z</time>
      </trkpt>
      <trkpt lat="42.133135981857776641845703125" lon="2.63383948244154453277587890625">
        <ele>280.20001220703125</ele>
        <time>2022-07-29T14:23:42.000Z</time>
      </trkpt>
      <trkpt lat="42.13328786194324493408203125" lon="2.6337725110352039337158203125">
        <ele>279.600006103515625</ele>
        <time>2022-07-29T14:23:44.000Z</time>
      </trkpt>
      <trkpt lat="42.13336489163339138031005859375" lon="2.63373739086091518402099609375">
        <ele>279.20001220703125</ele>
        <time>2022-07-29T14:23:45.000Z</time>
      </trkpt>
      <trkpt lat="42.133675776422023773193359375" lon="2.6335944794118404388427734375">
        <ele>278.20001220703125</ele>
        <time>2022-07-29T14:23:49.000Z</time>
      </trkpt>
      <trkpt lat="42.13406947441399097442626953125" lon="2.6334147714078426361083984375">
        <ele>277.79998779296875</ele>
        <time>2022-07-29T14:23:54.000Z</time>
      </trkpt>
      <trkpt lat="42.13430617935955524444580078125" lon="2.63331427238881587982177734375">
        <ele>277.20001220703125</ele>
        <time>2022-07-29T14:23:57.000Z</time>
      </trkpt>
      <trkpt lat="42.13483189232647418975830078125" lon="2.63307924382388591766357421875">
        <ele>276.600006103515625</ele>
        <time>2022-07-29T14:24:04.000Z</time>
      </trkpt>
      <trkpt lat="42.135111428797245025634765625" lon="2.6329314708709716796875">
        <ele>276.600006103515625</ele>
        <time>2022-07-29T14:24:08.000Z</time>
      </trkpt>
      <trkpt lat="42.1352232433855533599853515625" lon="2.63280599378049373626708984375">
        <ele>276.600006103515625</ele>
        <time>2022-07-29T14:24:10.000Z</time>
      </trkpt>
      <trkpt lat="42.1353117562830448150634765625" lon="2.63265076093375682830810546875">
        <ele>276.600006103515625</ele>
        <time>2022-07-29T14:24:12.000Z</time>
      </trkpt>
      <trkpt lat="42.13549875654280185699462890625" lon="2.63235169462859630584716796875">
        <ele>277.600006103515625</ele>
        <time>2022-07-29T14:24:16.000Z</time>
      </trkpt>
      <trkpt lat="42.13581182062625885009765625" lon="2.63195489533245563507080078125">
        <ele>278.20001220703125</ele>
        <time>2022-07-29T14:24:22.000Z</time>
      </trkpt>
      <trkpt lat="42.13591039180755615234375" lon="2.631834112107753753662109375">
        <ele>278.399993896484375</ele>
        <time>2022-07-29T14:24:24.000Z</time>
      </trkpt>
      <trkpt lat="42.1361439116299152374267578125" lon="2.63155105523765087127685546875">
        <ele>278.79998779296875</ele>
        <time>2022-07-29T14:24:30.000Z</time>
      </trkpt>
      <trkpt lat="42.13621088303625583648681640625" lon="2.63146522454917430877685546875">
        <ele>279.20001220703125</ele>
        <time>2022-07-29T14:24:32.000Z</time>
      </trkpt>
      <trkpt lat="42.136304341256618499755859375" lon="2.63134553097188472747802734375">
        <ele>281.20001220703125</ele>
        <time>2022-07-29T14:24:35.000Z</time>
      </trkpt>
      <trkpt lat="42.13638271205127239227294921875" lon="2.63122449629008769989013671875">
        <ele>282.399993896484375</ele>
        <time>2022-07-29T14:24:38.000Z</time>
      </trkpt>
      <trkpt lat="42.1364409662783145904541015625" lon="2.63110094703733921051025390625">
        <ele>283.399993896484375</ele>
        <time>2022-07-29T14:24:41.000Z</time>
      </trkpt>
      <trkpt lat="42.1364910900592803955078125" lon="2.630938589572906494140625">
        <ele>284.79998779296875</ele>
        <time>2022-07-29T14:24:45.000Z</time>
      </trkpt>
      <trkpt lat="42.13654599152505397796630859375" lon="2.6307439617812633514404296875">
        <ele>285.79998779296875</ele>
        <time>2022-07-29T14:24:50.000Z</time>
      </trkpt>
      <trkpt lat="42.1365700475871562957763671875" lon="2.6306618191301822662353515625">
        <ele>286.20001220703125</ele>
        <time>2022-07-29T14:24:52.000Z</time>
      </trkpt>
      <trkpt lat="42.1366236917674541473388671875" lon="2.63044799678027629852294921875">
        <ele>287</ele>
        <time>2022-07-29T14:24:57.000Z</time>
      </trkpt>
      <trkpt lat="42.1366359293460845947265625" lon="2.63040843419730663299560546875">
        <ele>287.20001220703125</ele>
        <time>2022-07-29T14:24:58.000Z</time>
      </trkpt>
      <trkpt lat="42.13669988326728343963623046875" lon="2.6301706396043300628662109375">
        <ele>288.20001220703125</ele>
        <time>2022-07-29T14:25:04.000Z</time>
      </trkpt>
      <trkpt lat="42.13672284968197345733642578125" lon="2.630092017352581024169921875">
        <ele>289</ele>
        <time>2022-07-29T14:25:06.000Z</time>
      </trkpt>
      <trkpt lat="42.1367453970015048980712890625" lon="2.63001431711018085479736328125">
        <ele>289.20001220703125</ele>
        <time>2022-07-29T14:25:08.000Z</time>
      </trkpt>
      <trkpt lat="42.1368044055998325347900390625" lon="2.62981834821403026580810546875">
        <ele>290.20001220703125</ele>
        <time>2022-07-29T14:25:13.000Z</time>
      </trkpt>
      <trkpt lat="42.13681438006460666656494140625" lon="2.62977895326912403106689453125">
        <ele>290.399993896484375</ele>
        <time>2022-07-29T14:25:14.000Z</time>
      </trkpt>
      <trkpt lat="42.1368835307657718658447265625" lon="2.6295953057706356048583984375">
        <ele>291.399993896484375</ele>
        <time>2022-07-29T14:25:19.000Z</time>
      </trkpt>
      <trkpt lat="42.13692652992904186248779296875" lon="2.62953151948750019073486328125">
        <ele>291.600006103515625</ele>
        <time>2022-07-29T14:25:21.000Z</time>
      </trkpt>
      <trkpt lat="42.137029878795146942138671875" lon="2.629440240561962127685546875">
        <ele>292.399993896484375</ele>
        <time>2022-07-29T14:25:25.000Z</time>
      </trkpt>
      <trkpt lat="42.13708880357444286346435546875" lon="2.629425488412380218505859375">
        <ele>292.79998779296875</ele>
        <time>2022-07-29T14:25:27.000Z</time>
      </trkpt>
      <trkpt lat="42.137228362262248992919921875" lon="2.62943898327648639678955078125">
        <ele>293.600006103515625</ele>
        <time>2022-07-29T14:25:32.000Z</time>
      </trkpt>
      <trkpt lat="42.13727085851132869720458984375" lon="2.62945792637765407562255859375">
        <ele>294.399993896484375</ele>
        <time>2022-07-29T14:25:34.000Z</time>
      </trkpt>
      <trkpt lat="42.13729181326925754547119140625" lon="2.6294673979282379150390625">
        <ele>294.600006103515625</ele>
        <time>2022-07-29T14:25:35.000Z</time>
      </trkpt>
      <trkpt lat="42.13740111328661441802978515625" lon="2.62950520031154155731201171875">
        <ele>295.79998779296875</ele>
        <time>2022-07-29T14:25:40.000Z</time>
      </trkpt>
      <trkpt lat="42.1374431066215038299560546875" lon="2.629511319100856781005859375">
        <ele>296.20001220703125</ele>
        <time>2022-07-29T14:25:42.000Z</time>
      </trkpt>
      <trkpt lat="42.13750203140079975128173828125" lon="2.6295279152691364288330078125">
        <ele>297</ele>
        <time>2022-07-29T14:25:45.000Z</time>
      </trkpt>
      <trkpt lat="42.13755450211465358734130859375" lon="2.62953604571521282196044921875">
        <ele>297.600006103515625</ele>
        <time>2022-07-29T14:25:48.000Z</time>
      </trkpt>
      <trkpt lat="42.137595154345035552978515625" lon="2.62953336350619792938232421875">
        <ele>298</ele>
        <time>2022-07-29T14:25:50.000Z</time>
      </trkpt>
      <trkpt lat="42.13771409355103969573974609375" lon="2.62951240874826908111572265625">
        <ele>299.20001220703125</ele>
        <time>2022-07-29T14:25:55.000Z</time>
      </trkpt>
      <trkpt lat="42.1378259919583797454833984375" lon="2.62945868074893951416015625">
        <ele>300.20001220703125</ele>
        <time>2022-07-29T14:26:00.000Z</time>
      </trkpt>
      <trkpt lat="42.13786329142749309539794921875" lon="2.62942506931722164154052734375">
        <ele>300.600006103515625</ele>
        <time>2022-07-29T14:26:02.000Z</time>
      </trkpt>
      <trkpt lat="42.13789983652532100677490234375" lon="2.629383243620395660400390625">
        <ele>301.20001220703125</ele>
        <time>2022-07-29T14:26:04.000Z</time>
      </trkpt>
      <trkpt lat="42.137990109622478485107421875" lon="2.62924854643642902374267578125">
        <ele>302.399993896484375</ele>
        <time>2022-07-29T14:26:10.000Z</time>
      </trkpt>
      <trkpt lat="42.13801315985620021820068359375" lon="2.6291872747242450714111328125">
        <ele>302.600006103515625</ele>
        <time>2022-07-29T14:26:12.000Z</time>
      </trkpt>
      <trkpt lat="42.1380402334034442901611328125" lon="2.629091553390026092529296875">
        <ele>303.399993896484375</ele>
        <time>2022-07-29T14:26:15.000Z</time>
      </trkpt>
      <trkpt lat="42.13804065249860286712646484375" lon="2.628992982208728790283203125">
        <ele>304</ele>
        <time>2022-07-29T14:26:18.000Z</time>
      </trkpt>
      <trkpt lat="42.138048112392425537109375" lon="2.62892802245914936065673828125">
        <ele>304.399993896484375</ele>
        <time>2022-07-29T14:26:20.000Z</time>
      </trkpt>
      <trkpt lat="42.13802556507289409637451171875" lon="2.628821991384029388427734375">
        <ele>305</ele>
        <time>2022-07-29T14:26:23.000Z</time>
      </trkpt>
      <trkpt lat="42.1380097232758998870849609375" lon="2.62872434221208095550537109375">
        <ele>305.600006103515625</ele>
        <time>2022-07-29T14:26:26.000Z</time>
      </trkpt>
      <trkpt lat="42.13798667304217815399169921875" lon="2.6286645792424678802490234375">
        <ele>306</ele>
        <time>2022-07-29T14:26:28.000Z</time>
      </trkpt>
      <trkpt lat="42.1379487030208110809326171875" lon="2.6285888068377971649169921875">
        <ele>306.600006103515625</ele>
        <time>2022-07-29T14:26:31.000Z</time>
      </trkpt>
      <trkpt lat="42.13792498223483562469482421875" lon="2.628500461578369140625">
        <ele>307.20001220703125</ele>
        <time>2022-07-29T14:26:34.000Z</time>
      </trkpt>
      <trkpt lat="42.137896232306957244873046875" lon="2.628446482121944427490234375">
        <ele>307.79998779296875</ele>
        <time>2022-07-29T14:26:36.000Z</time>
      </trkpt>
      <trkpt lat="42.1378440968692302703857421875" lon="2.6283755712211132049560546875">
        <ele>308.399993896484375</ele>
        <time>2022-07-29T14:26:39.000Z</time>
      </trkpt>
      <trkpt lat="42.13781383819878101348876953125" lon="2.62828228063881397247314453125">
        <ele>309</ele>
        <time>2022-07-29T14:26:42.000Z</time>
      </trkpt>
      <trkpt lat="42.13778735138475894927978515625" lon="2.62822486460208892822265625">
        <ele>309.399993896484375</ele>
        <time>2022-07-29T14:26:44.000Z</time>
      </trkpt>
      <trkpt lat="42.13771644048392772674560546875" lon="2.62806233949959278106689453125">
        <ele>310</ele>
        <time>2022-07-29T14:26:49.000Z</time>
      </trkpt>
      <trkpt lat="42.13769766502082347869873046875" lon="2.62803384102880954742431640625">
        <ele>310.20001220703125</ele>
        <time>2022-07-29T14:26:50.000Z</time>
      </trkpt>
      <trkpt lat="42.1375639736652374267578125" lon="2.62778506614267826080322265625">
        <ele>311</ele>
        <time>2022-07-29T14:26:58.000Z</time>
      </trkpt>
      <trkpt lat="42.1374659053981304168701171875" lon="2.62751533649861812591552734375">
        <ele>311.79998779296875</ele>
        <time>2022-07-29T14:27:04.000Z</time>
      </trkpt>
      <trkpt lat="42.1374648995697498321533203125" lon="2.6272748596966266632080078125">
        <ele>312</ele>
        <time>2022-07-29T14:27:09.000Z</time>
      </trkpt>
      <trkpt lat="42.137503959238529205322265625" lon="2.6271016895771026611328125">
        <ele>312.20001220703125</ele>
        <time>2022-07-29T14:27:13.000Z</time>
      </trkpt>
      <trkpt lat="42.13753421790897846221923828125" lon="2.6269778050482273101806640625">
        <ele>312.399993896484375</ele>
        <time>2022-07-29T14:27:16.000Z</time>
      </trkpt>
      <trkpt lat="42.13760890066623687744140625" lon="2.62669810093939304351806640625">
        <ele>313</ele>
        <time>2022-07-29T14:27:23.000Z</time>
      </trkpt>
      <trkpt lat="42.13761560618877410888671875" lon="2.62665652669966220855712890625">
        <ele>313.20001220703125</ele>
        <time>2022-07-29T14:27:24.000Z</time>
      </trkpt>
      <trkpt lat="42.1376379020512104034423828125" lon="2.6264472305774688720703125">
        <ele>314.20001220703125</ele>
        <time>2022-07-29T14:27:29.000Z</time>
      </trkpt>
      <trkpt lat="42.13763513602316379547119140625" lon="2.6263243518769741058349609375">
        <ele>315</ele>
        <time>2022-07-29T14:27:32.000Z</time>
      </trkpt>
      <trkpt lat="42.13763295672833919525146484375" lon="2.62628319673240184783935546875">
        <ele>315.20001220703125</ele>
        <time>2022-07-29T14:27:33.000Z</time>
      </trkpt>
      <trkpt lat="42.13759875856339931488037109375" lon="2.62604816816747188568115234375">
        <ele>316.399993896484375</ele>
        <time>2022-07-29T14:27:39.000Z</time>
      </trkpt>
      <trkpt lat="42.13754343800246715545654296875" lon="2.62582805939018726348876953125">
        <ele>317.600006103515625</ele>
        <time>2022-07-29T14:27:45.000Z</time>
      </trkpt>
      <trkpt lat="42.13753522373735904693603515625" lon="2.62579084374010562896728515625">
        <ele>317.79998779296875</ele>
        <time>2022-07-29T14:27:46.000Z</time>
      </trkpt>
      <trkpt lat="42.137478478252887725830078125" lon="2.625538296997547149658203125">
        <ele>318.79998779296875</ele>
        <time>2022-07-29T14:27:53.000Z</time>
      </trkpt>
      <trkpt lat="42.13745811022818088531494140625" lon="2.6254328526556491851806640625">
        <ele>319.399993896484375</ele>
        <time>2022-07-29T14:27:56.000Z</time>
      </trkpt>
      <trkpt lat="42.137435562908649444580078125" lon="2.62532464228570461273193359375">
        <ele>319.79998779296875</ele>
        <time>2022-07-29T14:27:59.000Z</time>
      </trkpt>
      <trkpt lat="42.137419469654560089111328125" lon="2.62521634809672832489013671875">
        <ele>320.600006103515625</ele>
        <time>2022-07-29T14:28:02.000Z</time>
      </trkpt>
      <trkpt lat="42.13740865699946880340576171875" lon="2.62514577247202396392822265625">
        <ele>321</ele>
        <time>2022-07-29T14:28:04.000Z</time>
      </trkpt>
      <trkpt lat="42.13738267309963703155517578125" lon="2.6249701716005802154541015625">
        <ele>321.399993896484375</ele>
        <time>2022-07-29T14:28:09.000Z</time>
      </trkpt>
      <trkpt lat="42.13737278245389461517333984375" lon="2.62490102089941501617431640625">
        <ele>322</ele>
        <time>2022-07-29T14:28:11.000Z</time>
      </trkpt>
      <trkpt lat="42.1373552642762660980224609375" lon="2.62476087547838687896728515625">
        <ele>322.600006103515625</ele>
        <time>2022-07-29T14:28:15.000Z</time>
      </trkpt>
      <trkpt lat="42.1373462118208408355712890625" lon="2.62468795292079448699951171875">
        <ele>323</ele>
        <time>2022-07-29T14:28:17.000Z</time>
      </trkpt>
      <trkpt lat="42.1373240835964679718017578125" lon="2.62450288049876689910888671875">
        <ele>323.79998779296875</ele>
        <time>2022-07-29T14:28:22.000Z</time>
      </trkpt>
      <trkpt lat="42.13732047937810420989990234375" lon="2.62446482665836811065673828125">
        <ele>324</ele>
        <time>2022-07-29T14:28:23.000Z</time>
      </trkpt>
      <trkpt lat="42.1372855268418788909912109375" lon="2.6242469809949398040771484375">
        <ele>325.20001220703125</ele>
        <time>2022-07-29T14:28:29.000Z</time>
      </trkpt>
      <trkpt lat="42.13727672584354877471923828125" lon="2.62417607009410858154296875">
        <ele>325.600006103515625</ele>
        <time>2022-07-29T14:28:31.000Z</time>
      </trkpt>
      <trkpt lat="42.1372704394161701202392578125" lon="2.62402812950313091278076171875">
        <ele>326.20001220703125</ele>
        <time>2022-07-29T14:28:35.000Z</time>
      </trkpt>
      <trkpt lat="42.13725912384688854217529296875" lon="2.623890750110149383544921875">
        <ele>326.79998779296875</ele>
        <time>2022-07-29T14:28:39.000Z</time>
      </trkpt>
      <trkpt lat="42.13725828565657138824462890625" lon="2.6237819530069828033447265625">
        <ele>327.399993896484375</ele>
        <time>2022-07-29T14:28:42.000Z</time>
      </trkpt>
      <trkpt lat="42.13726381771266460418701171875" lon="2.6236733235418796539306640625">
        <ele>327.79998779296875</ele>
        <time>2022-07-29T14:28:45.000Z</time>
      </trkpt>
      <trkpt lat="42.1372694335877895355224609375" lon="2.623548097908496856689453125">
        <ele>328.399993896484375</ele>
        <time>2022-07-29T14:28:49.000Z</time>
      </trkpt>
      <trkpt lat="42.13727354072034358978271484375" lon="2.6235147379338741302490234375">
        <ele>328.600006103515625</ele>
        <time>2022-07-29T14:28:50.000Z</time>
      </trkpt>
      <trkpt lat="42.1373029612004756927490234375" lon="2.62335103936493396759033203125">
        <ele>329.399993896484375</ele>
        <time>2022-07-29T14:28:55.000Z</time>
      </trkpt>
      <trkpt lat="42.1373172104358673095703125" lon="2.6232854090631008148193359375">
        <ele>329.79998779296875</ele>
        <time>2022-07-29T14:28:57.000Z</time>
      </trkpt>
      <trkpt lat="42.13735115714371204376220703125" lon="2.6231657154858112335205078125">
        <ele>330.600006103515625</ele>
        <time>2022-07-29T14:29:00.000Z</time>
      </trkpt>
      <trkpt lat="42.13740312494337558746337890625" lon="2.62301945127546787261962890625">
        <ele>331.20001220703125</ele>
        <time>2022-07-29T14:29:04.000Z</time>
      </trkpt>
      <trkpt lat="42.137431539595127105712890625" lon="2.622946612536907196044921875">
        <ele>331.600006103515625</ele>
        <time>2022-07-29T14:29:06.000Z</time>
      </trkpt>
      <trkpt lat="42.13751502335071563720703125" lon="2.62274083681404590606689453125">
        <ele>332.79998779296875</ele>
        <time>2022-07-29T14:29:12.000Z</time>
      </trkpt>
      <trkpt lat="42.1375919692218303680419921875" lon="2.62258811853826045989990234375">
        <ele>333.79998779296875</ele>
        <time>2022-07-29T14:29:17.000Z</time>
      </trkpt>
      <trkpt lat="42.13760579936206340789794921875" lon="2.622557021677494049072265625">
        <ele>334</ele>
        <time>2022-07-29T14:29:18.000Z</time>
      </trkpt>
      <trkpt lat="42.13771124370396137237548828125" lon="2.62232090346515178680419921875">
        <ele>335</ele>
        <time>2022-07-29T14:29:25.000Z</time>
      </trkpt>
      <trkpt lat="42.13782674632966518402099609375" lon="2.62207916937768459320068359375">
        <ele>335.79998779296875</ele>
        <time>2022-07-29T14:29:32.000Z</time>
      </trkpt>
      <trkpt lat="42.1378736011683940887451171875" lon="2.622017562389373779296875">
        <ele>336</ele>
        <time>2022-07-29T14:29:34.000Z</time>
      </trkpt>
      <trkpt lat="42.1379658021032810211181640625" lon="2.6219704560935497283935546875">
        <ele>336</ele>
        <time>2022-07-29T14:29:37.000Z</time>
      </trkpt>
      <trkpt lat="42.13809840381145477294921875" lon="2.622004486620426177978515625">
        <ele>336.399993896484375</ele>
        <time>2022-07-29T14:29:41.000Z</time>
      </trkpt>
      <trkpt lat="42.13821717537939548492431640625" lon="2.6221168041229248046875">
        <ele>336.600006103515625</ele>
        <time>2022-07-29T14:29:46.000Z</time>
      </trkpt>
      <trkpt lat="42.1382792852818965911865234375" lon="2.62226172722876071929931640625">
        <ele>337</ele>
        <time>2022-07-29T14:29:51.000Z</time>
      </trkpt>
      <trkpt lat="42.13829697109758853912353515625" lon="2.622318975627422332763671875">
        <ele>337.399993896484375</ele>
        <time>2022-07-29T14:29:53.000Z</time>
      </trkpt>
      <trkpt lat="42.13831700384616851806640625" lon="2.6223741285502910614013671875">
        <ele>338</ele>
        <time>2022-07-29T14:29:55.000Z</time>
      </trkpt>
      <trkpt lat="42.1383755095303058624267578125" lon="2.62246842496097087860107421875">
        <ele>339</ele>
        <time>2022-07-29T14:29:59.000Z</time>
      </trkpt>
      <trkpt lat="42.138397805392742156982421875" lon="2.6224968396127223968505859375">
        <ele>339.20001220703125</ele>
        <time>2022-07-29T14:30:00.000Z</time>
      </trkpt>
      <trkpt lat="42.1384797804057598114013671875" lon="2.6225786469876766204833984375">
        <ele>340.20001220703125</ele>
        <time>2022-07-29T14:30:03.000Z</time>
      </trkpt>
      <trkpt lat="42.13853267021477222442626953125" lon="2.6226074807345867156982421875">
        <ele>340.600006103515625</ele>
        <time>2022-07-29T14:30:05.000Z</time>
      </trkpt>
      <trkpt lat="42.13868639431893825531005859375" lon="2.62261812575161457061767578125">
        <ele>341.399993896484375</ele>
        <time>2022-07-29T14:30:11.000Z</time>
      </trkpt>
      <trkpt lat="42.1387661062180995941162109375" lon="2.62258711270987987518310546875">
        <ele>342.399993896484375</ele>
        <time>2022-07-29T14:30:14.000Z</time>
      </trkpt>
      <trkpt lat="42.1388489194214344024658203125" lon="2.62255475856363773345947265625">
        <ele>343.20001220703125</ele>
        <time>2022-07-29T14:30:17.000Z</time>
      </trkpt>
      <trkpt lat="42.138875238597393035888671875" lon="2.622543275356292724609375">
        <ele>343.399993896484375</ele>
        <time>2022-07-29T14:30:18.000Z</time>
      </trkpt>
      <trkpt lat="42.139019072055816650390625" lon="2.6224569417536258697509765625">
        <ele>344.399993896484375</ele>
        <time>2022-07-29T14:30:24.000Z</time>
      </trkpt>
      <trkpt lat="42.13911588303744792938232421875" lon="2.6224009506404399871826171875">
        <ele>345.600006103515625</ele>
        <time>2022-07-29T14:30:28.000Z</time>
      </trkpt>
      <trkpt lat="42.13918327353894710540771484375" lon="2.622360549867153167724609375">
        <ele>345.79998779296875</ele>
        <time>2022-07-29T14:30:31.000Z</time>
      </trkpt>
      <trkpt lat="42.13927262462675571441650390625" lon="2.6223077438771724700927734375">
        <ele>346.399993896484375</ele>
        <time>2022-07-29T14:30:35.000Z</time>
      </trkpt>
      <trkpt lat="42.1393478102982044219970703125" lon="2.62226927094161510467529296875">
        <ele>346.79998779296875</ele>
        <time>2022-07-29T14:30:38.000Z</time>
      </trkpt>
      <trkpt lat="42.13945283554494380950927734375" lon="2.62219400145113468170166015625">
        <ele>347.600006103515625</ele>
        <time>2022-07-29T14:30:42.000Z</time>
      </trkpt>
      <trkpt lat="42.13948351331055164337158203125" lon="2.6221813447773456573486328125">
        <ele>347.79998779296875</ele>
        <time>2022-07-29T14:30:43.000Z</time>
      </trkpt>
      <trkpt lat="42.1396260894834995269775390625" lon="2.6221085898578166961669921875">
        <ele>348.600006103515625</ele>
        <time>2022-07-29T14:30:48.000Z</time>
      </trkpt>
      <trkpt lat="42.13967428542673587799072265625" lon="2.62207187712192535400390625">
        <ele>349</ele>
        <time>2022-07-29T14:30:50.000Z</time>
      </trkpt>
      <trkpt lat="42.13978559710085391998291015625" lon="2.62201286852359771728515625">
        <ele>349.79998779296875</ele>
        <time>2022-07-29T14:30:54.000Z</time>
      </trkpt>
      <trkpt lat="42.139842174947261810302734375" lon="2.621980011463165283203125">
        <ele>350</ele>
        <time>2022-07-29T14:30:56.000Z</time>
      </trkpt>
      <trkpt lat="42.1399482898414134979248046875" lon="2.6219142973423004150390625">
        <ele>350.79998779296875</ele>
        <time>2022-07-29T14:31:00.000Z</time>
      </trkpt>
      <trkpt lat="42.13997729122638702392578125" lon="2.621904574334621429443359375">
        <ele>350.79998779296875</ele>
        <time>2022-07-29T14:31:01.000Z</time>
      </trkpt>
      <trkpt lat="42.14014090597629547119140625" lon="2.62187431566417217254638671875">
        <ele>351.79998779296875</ele>
        <time>2022-07-29T14:31:07.000Z</time>
      </trkpt>
      <trkpt lat="42.14030745439231395721435546875" lon="2.62196819297969341278076171875">
        <ele>352.600006103515625</ele>
        <time>2022-07-29T14:31:13.000Z</time>
      </trkpt>
      <trkpt lat="42.14032857678830623626708984375" lon="2.62199535034596920013427734375">
        <ele>352.79998779296875</ele>
        <time>2022-07-29T14:31:14.000Z</time>
      </trkpt>
      <trkpt lat="42.1403467655181884765625" lon="2.6220247708261013031005859375">
        <ele>353.20001220703125</ele>
        <time>2022-07-29T14:31:15.000Z</time>
      </trkpt>
      <trkpt lat="42.140381298959255218505859375" lon="2.62210674583911895751953125">
        <ele>354</ele>
        <time>2022-07-29T14:31:18.000Z</time>
      </trkpt>
      <trkpt lat="42.14038901031017303466796875" lon="2.62213063426315784454345703125">
        <ele>354</ele>
        <time>2022-07-29T14:31:19.000Z</time>
      </trkpt>
      <trkpt lat="42.1404304169118404388427734375" lon="2.62225669808685779571533203125">
        <ele>355</ele>
        <time>2022-07-29T14:31:24.000Z</time>
      </trkpt>
      <trkpt lat="42.14044642634689807891845703125" lon="2.62229274027049541473388671875">
        <ele>355.600006103515625</ele>
        <time>2022-07-29T14:31:26.000Z</time>
      </trkpt>
      <trkpt lat="42.14047827757894992828369140625" lon="2.622363902628421783447265625">
        <ele>356.20001220703125</ele>
        <time>2022-07-29T14:31:29.000Z</time>
      </trkpt>
      <trkpt lat="42.14054055511951446533203125" lon="2.62245819903910160064697265625">
        <ele>357</ele>
        <time>2022-07-29T14:31:33.000Z</time>
      </trkpt>
      <trkpt lat="42.14056293480098247528076171875" lon="2.62248015962541103363037109375">
        <ele>357.20001220703125</ele>
        <time>2022-07-29T14:31:34.000Z</time>
      </trkpt>
      <trkpt lat="42.14069788344204425811767578125" lon="2.6225706003606319427490234375">
        <ele>358.20001220703125</ele>
        <time>2022-07-29T14:31:39.000Z</time>
      </trkpt>
      <trkpt lat="42.14072202332317829132080078125" lon="2.6225809939205646514892578125">
        <ele>358.20001220703125</ele>
        <time>2022-07-29T14:31:40.000Z</time>
      </trkpt>
      <trkpt lat="42.14087490923702716827392578125" lon="2.62260940857231616973876953125">
        <ele>359.20001220703125</ele>
        <time>2022-07-29T14:31:46.000Z</time>
      </trkpt>
      <trkpt lat="42.14090122841298580169677734375" lon="2.62260136194527149200439453125">
        <ele>359.399993896484375</ele>
        <time>2022-07-29T14:31:47.000Z</time>
      </trkpt>
      <trkpt lat="42.1410389430820941925048828125" lon="2.6225250028073787689208984375">
        <ele>360.600006103515625</ele>
        <time>2022-07-29T14:31:52.000Z</time>
      </trkpt>
      <trkpt lat="42.1411795914173126220703125" lon="2.6223915629088878631591796875">
        <ele>361.600006103515625</ele>
        <time>2022-07-29T14:31:58.000Z</time>
      </trkpt>
      <trkpt lat="42.141196690499782562255859375" lon="2.62236063368618488311767578125">
        <ele>361.79998779296875</ele>
        <time>2022-07-29T14:31:59.000Z</time>
      </trkpt>
      <trkpt lat="42.14128495194017887115478515625" lon="2.62215276248753070831298828125">
        <ele>362.600006103515625</ele>
        <time>2022-07-29T14:32:05.000Z</time>
      </trkpt>
      <trkpt lat="42.141390144824981689453125" lon="2.6218940131366252899169921875">
        <ele>363.79998779296875</ele>
        <time>2022-07-29T14:32:12.000Z</time>
      </trkpt>
      <trkpt lat="42.14151729829609394073486328125" lon="2.6217216812074184417724609375">
        <ele>364.399993896484375</ele>
        <time>2022-07-29T14:32:18.000Z</time>
      </trkpt>
      <trkpt lat="42.14169817976653575897216796875" lon="2.62165605090558528900146484375">
        <ele>364.79998779296875</ele>
        <time>2022-07-29T14:32:24.000Z</time>
      </trkpt>
      <trkpt lat="42.141727097332477569580078125" lon="2.62165722437202930450439453125">
        <ele>365</ele>
        <time>2022-07-29T14:32:25.000Z</time>
      </trkpt>
      <trkpt lat="42.14175484143197536468505859375" lon="2.621668875217437744140625">
        <ele>365.20001220703125</ele>
        <time>2022-07-29T14:32:26.000Z</time>
      </trkpt>
      <trkpt lat="42.14180932380259037017822265625" lon="2.62170282192528247833251953125">
        <ele>365.600006103515625</ele>
        <time>2022-07-29T14:32:28.000Z</time>
      </trkpt>
      <trkpt lat="42.14188492856919765472412109375" lon="2.62175529263913631439208984375">
        <ele>366</ele>
        <time>2022-07-29T14:32:31.000Z</time>
      </trkpt>
      <trkpt lat="42.1419549174606800079345703125" lon="2.62182402424514293670654296875">
        <ele>366.600006103515625</ele>
        <time>2022-07-29T14:32:34.000Z</time>
      </trkpt>
      <trkpt lat="42.142039239406585693359375" lon="2.6218997128307819366455078125">
        <ele>367.20001220703125</ele>
        <time>2022-07-29T14:32:37.000Z</time>
      </trkpt>
      <trkpt lat="42.1421188674867153167724609375" lon="2.6219801791012287139892578125">
        <ele>367.399993896484375</ele>
        <time>2022-07-29T14:32:40.000Z</time>
      </trkpt>
      <trkpt lat="42.14219992049038410186767578125" lon="2.622040025889873504638671875">
        <ele>368</ele>
        <time>2022-07-29T14:32:43.000Z</time>
      </trkpt>
      <trkpt lat="42.14229379780590534210205078125" lon="2.622086964547634124755859375">
        <ele>368.600006103515625</ele>
        <time>2022-07-29T14:32:46.000Z</time>
      </trkpt>
      <trkpt lat="42.1424370445311069488525390625" lon="2.62208319269120693206787109375">
        <ele>369.20001220703125</ele>
        <time>2022-07-29T14:32:50.000Z</time>
      </trkpt>
      <trkpt lat="42.142471410334110260009765625" lon="2.622073553502559661865234375">
        <ele>369.399993896484375</ele>
        <time>2022-07-29T14:32:51.000Z</time>
      </trkpt>
      <trkpt lat="42.14261281304061412811279296875" lon="2.621933408081531524658203125">
        <ele>370</ele>
        <time>2022-07-29T14:32:56.000Z</time>
      </trkpt>
      <trkpt lat="42.14265539310872554779052734375" lon="2.62185520492494106292724609375">
        <ele>370.399993896484375</ele>
        <time>2022-07-29T14:32:58.000Z</time>
      </trkpt>
      <trkpt lat="42.14275740087032318115234375" lon="2.62160710059106349945068359375">
        <ele>371</ele>
        <time>2022-07-29T14:33:04.000Z</time>
      </trkpt>
      <trkpt lat="42.14281280525028705596923828125" lon="2.62140057049691677093505859375">
        <ele>371.399993896484375</ele>
        <time>2022-07-29T14:33:09.000Z</time>
      </trkpt>
      <trkpt lat="42.1428286470472812652587890625" lon="2.6213173381984233856201171875">
        <ele>371.600006103515625</ele>
        <time>2022-07-29T14:33:11.000Z</time>
      </trkpt>
      <trkpt lat="42.1428672038018703460693359375" lon="2.62110670097172260284423828125">
        <ele>372.399993896484375</ele>
        <time>2022-07-29T14:33:16.000Z</time>
      </trkpt>
      <trkpt lat="42.1428779326379299163818359375" lon="2.6210182718932628631591796875">
        <ele>372.600006103515625</ele>
        <time>2022-07-29T14:33:18.000Z</time>
      </trkpt>
      <trkpt lat="42.1429201774299144744873046875" lon="2.62076941318809986114501953125">
        <ele>373.20001220703125</ele>
        <time>2022-07-29T14:33:24.000Z</time>
      </trkpt>
      <trkpt lat="42.142933420836925506591796875" lon="2.62072934769093990325927734375">
        <ele>373.20001220703125</ele>
        <time>2022-07-29T14:33:25.000Z</time>
      </trkpt>
      <trkpt lat="42.14301045052707195281982421875" lon="2.62050705961883068084716796875">
        <ele>374.399993896484375</ele>
        <time>2022-07-29T14:33:31.000Z</time>
      </trkpt>
      <trkpt lat="42.1430254541337490081787109375" lon="2.6204737834632396697998046875">
        <ele>374.600006103515625</ele>
        <time>2022-07-29T14:33:32.000Z</time>
      </trkpt>
      <trkpt lat="42.14309996925294399261474609375" lon="2.6203225739300251007080078125">
        <ele>375.600006103515625</ele>
        <time>2022-07-29T14:33:38.000Z</time>
      </trkpt>
      <trkpt lat="42.143158055841922760009765625" lon="2.62020614929497241973876953125">
        <ele>376.79998779296875</ele>
        <time>2022-07-29T14:33:43.000Z</time>
      </trkpt>
      <trkpt lat="42.14317909441888332366943359375" lon="2.62014915235340595245361328125">
        <ele>377.20001220703125</ele>
        <time>2022-07-29T14:33:45.000Z</time>
      </trkpt>
      <trkpt lat="42.14322888292372226715087890625" lon="2.62005644850432872772216796875">
        <ele>377.79998779296875</ele>
        <time>2022-07-29T14:33:48.000Z</time>
      </trkpt>
      <trkpt lat="42.143305577337741851806640625" lon="2.61989392340183258056640625">
        <ele>378.600006103515625</ele>
        <time>2022-07-29T14:33:52.000Z</time>
      </trkpt>
      <trkpt lat="42.14335955679416656494140625" lon="2.61977548711001873016357421875">
        <ele>379</ele>
        <time>2022-07-29T14:33:55.000Z</time>
      </trkpt>
      <trkpt lat="42.1434318087995052337646484375" lon="2.619630061089992523193359375">
        <ele>379.399993896484375</ele>
        <time>2022-07-29T14:33:59.000Z</time>
      </trkpt>
      <trkpt lat="42.14347128756344318389892578125" lon="2.619515396654605865478515625">
        <ele>380</ele>
        <time>2022-07-29T14:34:02.000Z</time>
      </trkpt>
      <trkpt lat="42.14351101778447628021240234375" lon="2.61944205500185489654541015625">
        <ele>380.399993896484375</ele>
        <time>2022-07-29T14:34:04.000Z</time>
      </trkpt>
      <trkpt lat="42.14360824786126613616943359375" lon="2.61925597675144672393798828125">
        <ele>381</ele>
        <time>2022-07-29T14:34:09.000Z</time>
      </trkpt>
      <trkpt lat="42.14363356120884418487548828125" lon="2.61922605335712432861328125">
        <ele>381.20001220703125</ele>
        <time>2022-07-29T14:34:10.000Z</time>
      </trkpt>
      <trkpt lat="42.14366306550800800323486328125" lon="2.61919713579118251800537109375">
        <ele>381.20001220703125</ele>
        <time>2022-07-29T14:34:11.000Z</time>
      </trkpt>
      <trkpt lat="42.14383690617978572845458984375" lon="2.61906453408300876617431640625">
        <ele>381.399993896484375</ele>
        <time>2022-07-29T14:34:16.000Z</time>
      </trkpt>
      <trkpt lat="42.1441016905009746551513671875" lon="2.618985660374164581298828125">
        <ele>381.399993896484375</ele>
        <time>2022-07-29T14:34:22.000Z</time>
      </trkpt>
      <trkpt lat="42.144430093467235565185546875" lon="2.6189040206372737884521484375">
        <ele>381.399993896484375</ele>
        <time>2022-07-29T14:34:29.000Z</time>
      </trkpt>
      <trkpt lat="42.14461206458508968353271484375" lon="2.6188235543668270111083984375">
        <ele>381.399993896484375</ele>
        <time>2022-07-29T14:34:33.000Z</time>
      </trkpt>
      <trkpt lat="42.14469504542648792266845703125" lon="2.61875691823661327362060546875">
        <ele>381.399993896484375</ele>
        <time>2022-07-29T14:34:35.000Z</time>
      </trkpt>
      <trkpt lat="42.1448567323386669158935546875" lon="2.61858140118420124053955078125">
        <ele>381.20001220703125</ele>
        <time>2022-07-29T14:34:39.000Z</time>
      </trkpt>
      <trkpt lat="42.1449304930865764617919921875" lon="2.6184825785458087921142578125">
        <ele>381.20001220703125</ele>
        <time>2022-07-29T14:34:41.000Z</time>
      </trkpt>
      <trkpt lat="42.145177759230136871337890625" lon="2.61816389858722686767578125">
        <ele>381.20001220703125</ele>
        <time>2022-07-29T14:34:47.000Z</time>
      </trkpt>
      <trkpt lat="42.1454471535980701446533203125" lon="2.61775561608374118804931640625">
        <ele>380.600006103515625</ele>
        <time>2022-07-29T14:34:54.000Z</time>
      </trkpt>
      <trkpt lat="42.1454793401062488555908203125" lon="2.6176987029612064361572265625">
        <ele>380.600006103515625</ele>
        <time>2022-07-29T14:34:55.000Z</time>
      </trkpt>
      <trkpt lat="42.145561985671520233154296875" lon="2.61737306602299213409423828125">
        <ele>380.600006103515625</ele>
        <time>2022-07-29T14:35:00.000Z</time>
      </trkpt>
      <trkpt lat="42.14555670507252216339111328125" lon="2.6172246225178241729736328125">
        <ele>380.600006103515625</ele>
        <time>2022-07-29T14:35:02.000Z</time>
      </trkpt>
      <trkpt lat="42.145525775849819183349609375" lon="2.616994120180606842041015625">
        <ele>380.600006103515625</ele>
        <time>2022-07-29T14:35:05.000Z</time>
      </trkpt>
      <trkpt lat="42.1453941799700260162353515625" lon="2.6165409944951534271240234375">
        <ele>380.600006103515625</ele>
        <time>2022-07-29T14:35:11.000Z</time>
      </trkpt>
      <trkpt lat="42.14531966485083103179931640625" lon="2.6163854263722896575927734375">
        <ele>380.600006103515625</ele>
        <time>2022-07-29T14:35:13.000Z</time>
      </trkpt>
      <trkpt lat="42.14517633430659770965576171875" lon="2.61615492403507232666015625">
        <ele>380.399993896484375</ele>
        <time>2022-07-29T14:35:16.000Z</time>
      </trkpt>
      <trkpt lat="42.14494247920811176300048828125" lon="2.61585242114961147308349609375">
        <ele>379</ele>
        <time>2022-07-29T14:35:20.000Z</time>
      </trkpt>
      <trkpt lat="42.14489151723682880401611328125" lon="2.6157681830227375030517578125">
        <ele>378.600006103515625</ele>
        <time>2022-07-29T14:35:21.000Z</time>
      </trkpt>
      <trkpt lat="42.14482672512531280517578125" lon="2.6155770756304264068603515625">
        <ele>377.600006103515625</ele>
        <time>2022-07-29T14:35:23.000Z</time>
      </trkpt>
      <trkpt lat="42.14480836875736713409423828125" lon="2.61547389440238475799560546875">
        <ele>377.20001220703125</ele>
        <time>2022-07-29T14:35:24.000Z</time>
      </trkpt>
      <trkpt lat="42.14476411230862140655517578125" lon="2.61527515947818756103515625">
        <ele>376.20001220703125</ele>
        <time>2022-07-29T14:35:26.000Z</time>
      </trkpt>
      <trkpt lat="42.144683562219142913818359375" lon="2.615119256079196929931640625">
        <ele>375.20001220703125</ele>
        <time>2022-07-29T14:35:28.000Z</time>
      </trkpt>
      <trkpt lat="42.14454517699778079986572265625" lon="2.614902667701244354248046875">
        <ele>374</ele>
        <time>2022-07-29T14:35:31.000Z</time>
      </trkpt>
      <trkpt lat="42.14450620114803314208984375" lon="2.614825554192066192626953125">
        <ele>373.79998779296875</ele>
        <time>2022-07-29T14:35:32.000Z</time>
      </trkpt>
      <trkpt lat="42.14447535574436187744140625" lon="2.61474139988422393798828125">
        <ele>373.399993896484375</ele>
        <time>2022-07-29T14:35:33.000Z</time>
      </trkpt>
      <trkpt lat="42.14447426609694957733154296875" lon="2.6145474426448345184326171875">
        <ele>372.79998779296875</ele>
        <time>2022-07-29T14:35:35.000Z</time>
      </trkpt>
      <trkpt lat="42.14450888335704803466796875" lon="2.61445012874901294708251953125">
        <ele>372.600006103515625</ele>
        <time>2022-07-29T14:35:36.000Z</time>
      </trkpt>
      <trkpt lat="42.14466604404151439666748046875" lon="2.61418609879910945892333984375">
        <ele>371.79998779296875</ele>
        <time>2022-07-29T14:35:39.000Z</time>
      </trkpt>
      <trkpt lat="42.14472807012498378753662109375" lon="2.6140907965600490570068359375">
        <ele>371.600006103515625</ele>
        <time>2022-07-29T14:35:40.000Z</time>
      </trkpt>
      <trkpt lat="42.144857235252857208251953125" lon="2.61388569138944149017333984375">
        <ele>370.399993896484375</ele>
        <time>2022-07-29T14:35:42.000Z</time>
      </trkpt>
      <trkpt lat="42.14498589746654033660888671875" lon="2.613652758300304412841796875">
        <ele>369</ele>
        <time>2022-07-29T14:35:44.000Z</time>
      </trkpt>
      <trkpt lat="42.1450478397309780120849609375" lon="2.61352594010531902313232421875">
        <ele>367.20001220703125</ele>
        <time>2022-07-29T14:35:45.000Z</time>
      </trkpt>
      <trkpt lat="42.1451078541576862335205078125" lon="2.61339149437844753265380859375">
        <ele>366</ele>
        <time>2022-07-29T14:35:46.000Z</time>
      </trkpt>
      <trkpt lat="42.14516124688088893890380859375" lon="2.61325168423354625701904296875">
        <ele>364.79998779296875</ele>
        <time>2022-07-29T14:35:47.000Z</time>
      </trkpt>
      <trkpt lat="42.145208604633808135986328125" lon="2.61311195790767669677734375">
        <ele>363.600006103515625</ele>
        <time>2022-07-29T14:35:48.000Z</time>
      </trkpt>
      <trkpt lat="42.14525244198739528656005859375" lon="2.61297457851469516754150390625">
        <ele>362.600006103515625</ele>
        <time>2022-07-29T14:35:49.000Z</time>
      </trkpt>
      <trkpt lat="42.14529368095099925994873046875" lon="2.612839043140411376953125">
        <ele>361.399993896484375</ele>
        <time>2022-07-29T14:35:50.000Z</time>
      </trkpt>
      <trkpt lat="42.1453324891626834869384765625" lon="2.61270216666162014007568359375">
        <ele>360.399993896484375</ele>
        <time>2022-07-29T14:35:51.000Z</time>
      </trkpt>
      <trkpt lat="42.14536509476602077484130859375" lon="2.61256570927798748016357421875">
        <ele>359.20001220703125</ele>
        <time>2022-07-29T14:35:52.000Z</time>
      </trkpt>
      <trkpt lat="42.145394347608089447021484375" lon="2.61243109591305255889892578125">
        <ele>358</ele>
        <time>2022-07-29T14:35:53.000Z</time>
      </trkpt>
      <trkpt lat="42.14541924186050891876220703125" lon="2.6122947223484516143798828125">
        <ele>356.600006103515625</ele>
        <time>2022-07-29T14:35:54.000Z</time>
      </trkpt>
      <trkpt lat="42.1454335749149322509765625" lon="2.61215264908969402313232421875">
        <ele>355.399993896484375</ele>
        <time>2022-07-29T14:35:55.000Z</time>
      </trkpt>
      <trkpt lat="42.1454260312020778656005859375" lon="2.61186196468770503997802734375">
        <ele>354</ele>
        <time>2022-07-29T14:35:57.000Z</time>
      </trkpt>
      <trkpt lat="42.14540733955800533294677734375" lon="2.61171586811542510986328125">
        <ele>353.399993896484375</ele>
        <time>2022-07-29T14:35:58.000Z</time>
      </trkpt>
      <trkpt lat="42.1453814394772052764892578125" lon="2.61157228611409664154052734375">
        <ele>352.79998779296875</ele>
        <time>2022-07-29T14:35:59.000Z</time>
      </trkpt>
      <trkpt lat="42.145349420607089996337890625" lon="2.61143214069306850433349609375">
        <ele>352</ele>
        <time>2022-07-29T14:36:00.000Z</time>
      </trkpt>
      <trkpt lat="42.1453153900802135467529296875" lon="2.6112952642142772674560546875">
        <ele>351.399993896484375</ele>
        <time>2022-07-29T14:36:01.000Z</time>
      </trkpt>
      <trkpt lat="42.1452389471232891082763671875" lon="2.61102494783699512481689453125">
        <ele>350</ele>
        <time>2022-07-29T14:36:03.000Z</time>
      </trkpt>
      <trkpt lat="42.14517080225050449371337890625" lon="2.61075303889811038970947265625">
        <ele>348.20001220703125</ele>
        <time>2022-07-29T14:36:05.000Z</time>
      </trkpt>
      <trkpt lat="42.14513610117137432098388671875" lon="2.6104986481368541717529296875">
        <ele>346.399993896484375</ele>
        <time>2022-07-29T14:36:07.000Z</time>
      </trkpt>
      <trkpt lat="42.14515605010092258453369140625" lon="2.61024593375623226165771484375">
        <ele>345</ele>
        <time>2022-07-29T14:36:09.000Z</time>
      </trkpt>
      <trkpt lat="42.14519041590392589569091796875" lon="2.61013261042535305023193359375">
        <ele>344.399993896484375</ele>
        <time>2022-07-29T14:36:10.000Z</time>
      </trkpt>
      <trkpt lat="42.145238779485225677490234375" lon="2.61003278195858001708984375">
        <ele>344</ele>
        <time>2022-07-29T14:36:11.000Z</time>
      </trkpt>
      <trkpt lat="42.14528806507587432861328125" lon="2.60994301177561283111572265625">
        <ele>343.399993896484375</ele>
        <time>2022-07-29T14:36:12.000Z</time>
      </trkpt>
      <trkpt lat="42.14533542282879352569580078125" lon="2.6098441891372203826904296875">
        <ele>342.600006103515625</ele>
        <time>2022-07-29T14:36:13.000Z</time>
      </trkpt>
      <trkpt lat="42.14537733234465122222900390625" lon="2.60974536649882793426513671875">
        <ele>341.600006103515625</ele>
        <time>2022-07-29T14:36:14.000Z</time>
      </trkpt>
      <trkpt lat="42.145446650683879852294921875" lon="2.60954252444207668304443359375">
        <ele>340.79998779296875</ele>
        <time>2022-07-29T14:36:16.000Z</time>
      </trkpt>
      <trkpt lat="42.1454692818224430084228515625" lon="2.609434314072132110595703125">
        <ele>340.399993896484375</ele>
        <time>2022-07-29T14:36:17.000Z</time>
      </trkpt>
      <trkpt lat="42.14547942392528057098388671875" lon="2.6093221642076969146728515625">
        <ele>340</ele>
        <time>2022-07-29T14:36:18.000Z</time>
      </trkpt>
      <trkpt lat="42.14546634815633296966552734375" lon="2.60910767130553722381591796875">
        <ele>339.20001220703125</ele>
        <time>2022-07-29T14:36:20.000Z</time>
      </trkpt>
      <trkpt lat="42.1454659290611743927001953125" lon="2.6090083457529544830322265625">
        <ele>338.600006103515625</ele>
        <time>2022-07-29T14:36:21.000Z</time>
      </trkpt>
      <trkpt lat="42.14547540061175823211669921875" lon="2.608912289142608642578125">
        <ele>338.20001220703125</ele>
        <time>2022-07-29T14:36:22.000Z</time>
      </trkpt>
      <trkpt lat="42.14554689824581146240234375" lon="2.60875864885747432708740234375">
        <ele>337.600006103515625</ele>
        <time>2022-07-29T14:36:24.000Z</time>
      </trkpt>
      <trkpt lat="42.1456530131399631500244140625" lon="2.60868019424378871917724609375">
        <ele>337</ele>
        <time>2022-07-29T14:36:26.000Z</time>
      </trkpt>
      <trkpt lat="42.145775891840457916259765625" lon="2.60861649177968502044677734375">
        <ele>336</ele>
        <time>2022-07-29T14:36:28.000Z</time>
      </trkpt>
      <trkpt lat="42.1459825895726680755615234375" lon="2.608612887561321258544921875">
        <ele>334.79998779296875</ele>
        <time>2022-07-29T14:36:31.000Z</time>
      </trkpt>
      <trkpt lat="42.1461545862257480621337890625" lon="2.60877080261707305908203125">
        <ele>334.79998779296875</ele>
        <time>2022-07-29T14:36:34.000Z</time>
      </trkpt>
      <trkpt lat="42.14627905748784542083740234375" lon="2.6090861298143863677978515625">
        <ele>334.79998779296875</ele>
        <time>2022-07-29T14:36:38.000Z</time>
      </trkpt>
      <trkpt lat="42.14642724953591823577880859375" lon="2.60981082916259765625">
        <ele>335</ele>
        <time>2022-07-29T14:36:46.000Z</time>
      </trkpt>
      <trkpt lat="42.146474607288837432861328125" lon="2.60999799706041812896728515625">
        <ele>335.20001220703125</ele>
        <time>2022-07-29T14:36:48.000Z</time>
      </trkpt>
      <trkpt lat="42.1465601027011871337890625" lon="2.610158510506153106689453125">
        <ele>335.20001220703125</ele>
        <time>2022-07-29T14:36:50.000Z</time>
      </trkpt>
      <trkpt lat="42.1466752700507640838623046875" lon="2.610291279852390289306640625">
        <ele>335</ele>
        <time>2022-07-29T14:36:52.000Z</time>
      </trkpt>
      <trkpt lat="42.14680359698832035064697265625" lon="2.61041156016290187835693359375">
        <ele>335</ele>
        <time>2022-07-29T14:36:54.000Z</time>
      </trkpt>
      <trkpt lat="42.146937288343906402587890625" lon="2.61051164008677005767822265625">
        <ele>334.79998779296875</ele>
        <time>2022-07-29T14:36:56.000Z</time>
      </trkpt>
      <trkpt lat="42.14707575738430023193359375" lon="2.61057349853217601776123046875">
        <ele>335</ele>
        <time>2022-07-29T14:36:58.000Z</time>
      </trkpt>
      <trkpt lat="42.14721850119531154632568359375" lon="2.61060400865972042083740234375">
        <ele>334.79998779296875</ele>
        <time>2022-07-29T14:37:00.000Z</time>
      </trkpt>
      <trkpt lat="42.14742134325206279754638671875" lon="2.6106344349682331085205078125">
        <ele>334.79998779296875</ele>
        <time>2022-07-29T14:37:03.000Z</time>
      </trkpt>
      <trkpt lat="42.1479533426463603973388671875" lon="2.61070325039327144622802734375">
        <ele>335.20001220703125</ele>
        <time>2022-07-29T14:37:11.000Z</time>
      </trkpt>
      <trkpt lat="42.1483791433274745941162109375" lon="2.61069872416555881500244140625">
        <ele>336.20001220703125</ele>
        <time>2022-07-29T14:37:18.000Z</time>
      </trkpt>
      <trkpt lat="42.148471176624298095703125" lon="2.61068698950111865997314453125">
        <ele>336.600006103515625</ele>
        <time>2022-07-29T14:37:20.000Z</time>
      </trkpt>
      <trkpt lat="42.1485219709575176239013671875" lon="2.61068682186305522918701171875">
        <ele>336.79998779296875</ele>
        <time>2022-07-29T14:37:21.000Z</time>
      </trkpt>
      <trkpt lat="42.14870729483664035797119140625" lon="2.6106991432607173919677734375">
        <ele>337.399993896484375</ele>
        <time>2022-07-29T14:37:24.000Z</time>
      </trkpt>
      <trkpt lat="42.14876630343496799468994140625" lon="2.610721774399280548095703125">
        <ele>337.600006103515625</ele>
        <time>2022-07-29T14:37:25.000Z</time>
      </trkpt>
      <trkpt lat="42.14915723539888858795166015625" lon="2.61091078631579875946044921875">
        <ele>338.20001220703125</ele>
        <time>2022-07-29T14:37:32.000Z</time>
      </trkpt>
      <trkpt lat="42.149448506534099578857421875" lon="2.6110567152500152587890625">
        <ele>338.399993896484375</ele>
        <time>2022-07-29T14:37:37.000Z</time>
      </trkpt>
      <trkpt lat="42.14963869191706180572509765625" lon="2.6111443899571895599365234375">
        <ele>339.20001220703125</ele>
        <time>2022-07-29T14:37:40.000Z</time>
      </trkpt>
      <trkpt lat="42.15016901493072509765625" lon="2.61138059198856353759765625">
        <ele>339.399993896484375</ele>
        <time>2022-07-29T14:37:48.000Z</time>
      </trkpt>
      <trkpt lat="42.1503071486949920654296875" lon="2.61144085787236690521240234375">
        <ele>339.399993896484375</ele>
        <time>2022-07-29T14:37:50.000Z</time>
      </trkpt>
      <trkpt lat="42.150375880300998687744140625" lon="2.61147178709506988525390625">
        <ele>339.600006103515625</ele>
        <time>2022-07-29T14:37:51.000Z</time>
      </trkpt>
      <trkpt lat="42.15072280727326869964599609375" lon="2.6115973480045795440673828125">
        <ele>339.600006103515625</ele>
        <time>2022-07-29T14:37:56.000Z</time>
      </trkpt>
      <trkpt lat="42.1509936265647411346435546875" lon="2.6116801612079143524169921875">
        <ele>339.600006103515625</ele>
        <time>2022-07-29T14:38:00.000Z</time>
      </trkpt>
      <trkpt lat="42.1511240489780902862548828125" lon="2.61175434105098247528076171875">
        <ele>339.600006103515625</ele>
        <time>2022-07-29T14:38:02.000Z</time>
      </trkpt>
      <trkpt lat="42.151248268783092498779296875" lon="2.61185224168002605438232421875">
        <ele>339.600006103515625</ele>
        <time>2022-07-29T14:38:04.000Z</time>
      </trkpt>
      <trkpt lat="42.151482291519641876220703125" lon="2.6120938919484615325927734375">
        <ele>339.20001220703125</ele>
        <time>2022-07-29T14:38:08.000Z</time>
      </trkpt>
      <trkpt lat="42.15179401449859142303466796875" lon="2.612461857497692108154296875">
        <ele>339</ele>
        <time>2022-07-29T14:38:14.000Z</time>
      </trkpt>
      <trkpt lat="42.15183927677571773529052734375" lon="2.612532265484333038330078125">
        <ele>339</ele>
        <time>2022-07-29T14:38:15.000Z</time>
      </trkpt>
      <trkpt lat="42.1519069187343120574951171875" lon="2.61269629932940006256103515625">
        <ele>339</ele>
        <time>2022-07-29T14:38:17.000Z</time>
      </trkpt>
      <trkpt lat="42.15201504528522491455078125" lon="2.612937279045581817626953125">
        <ele>339</ele>
        <time>2022-07-29T14:38:20.000Z</time>
      </trkpt>
      <trkpt lat="42.15211235918104648590087890625" lon="2.6130785979330539703369140625">
        <ele>339</ele>
        <time>2022-07-29T14:38:22.000Z</time>
      </trkpt>
      <trkpt lat="42.1524671651422977447509765625" lon="2.6134303025901317596435546875">
        <ele>339.20001220703125</ele>
        <time>2022-07-29T14:38:28.000Z</time>
      </trkpt>
      <trkpt lat="42.15265751816332340240478515625" lon="2.6135691069066524505615234375">
        <ele>339.600006103515625</ele>
        <time>2022-07-29T14:38:31.000Z</time>
      </trkpt>
      <trkpt lat="42.1527940593659877777099609375" lon="2.61362786404788494110107421875">
        <ele>339.600006103515625</ele>
        <time>2022-07-29T14:38:33.000Z</time>
      </trkpt>
      <trkpt lat="42.15286538936197757720947265625" lon="2.6136485673487186431884765625">
        <ele>339.79998779296875</ele>
        <time>2022-07-29T14:38:34.000Z</time>
      </trkpt>
      <trkpt lat="42.15314400382339954376220703125" lon="2.61368595063686370849609375">
        <ele>339.600006103515625</ele>
        <time>2022-07-29T14:38:38.000Z</time>
      </trkpt>
      <trkpt lat="42.153352797031402587890625" lon="2.613670863211154937744140625">
        <ele>339.600006103515625</ele>
        <time>2022-07-29T14:38:41.000Z</time>
      </trkpt>
      <trkpt lat="42.15347995050251483917236328125" lon="2.61362367309629917144775390625">
        <ele>339.600006103515625</ele>
        <time>2022-07-29T14:38:43.000Z</time>
      </trkpt>
      <trkpt lat="42.1536577306687831878662109375" lon="2.61351303197443485260009765625">
        <ele>339.600006103515625</ele>
        <time>2022-07-29T14:38:46.000Z</time>
      </trkpt>
      <trkpt lat="42.15374565683305263519287109375" lon="2.61339652352035045623779296875">
        <ele>339.600006103515625</ele>
        <time>2022-07-29T14:38:48.000Z</time>
      </trkpt>
      <trkpt lat="42.153819501399993896484375" lon="2.61312763206660747528076171875">
        <ele>339.79998779296875</ele>
        <time>2022-07-29T14:38:52.000Z</time>
      </trkpt>
      <trkpt lat="42.15385646559298038482666015625" lon="2.6129377819597721099853515625">
        <ele>340.20001220703125</ele>
        <time>2022-07-29T14:38:55.000Z</time>
      </trkpt>
      <trkpt lat="42.1539054997265338897705078125" lon="2.612710297107696533203125">
        <ele>341.600006103515625</ele>
        <time>2022-07-29T14:38:59.000Z</time>
      </trkpt>
      <trkpt lat="42.15391547419130802154541015625" lon="2.61265606619417667388916015625">
        <ele>342</ele>
        <time>2022-07-29T14:39:00.000Z</time>
      </trkpt>
      <trkpt lat="42.15393525548279285430908203125" lon="2.6125512085855007171630859375">
        <ele>342.79998779296875</ele>
        <time>2022-07-29T14:39:02.000Z</time>
      </trkpt>
      <trkpt lat="42.1539745666086673736572265625" lon="2.61234023608267307281494140625">
        <ele>344.20001220703125</ele>
        <time>2022-07-29T14:39:06.000Z</time>
      </trkpt>
      <trkpt lat="42.153998874127864837646484375" lon="2.61219187639653682708740234375">
        <ele>345.399993896484375</ele>
        <time>2022-07-29T14:39:09.000Z</time>
      </trkpt>
      <trkpt lat="42.15400993824005126953125" lon="2.61188560165464878082275390625">
        <ele>346.600006103515625</ele>
        <time>2022-07-29T14:39:15.000Z</time>
      </trkpt>
      <trkpt lat="42.15400465764105319976806640625" lon="2.61183631606400012969970703125">
        <ele>346.79998779296875</ele>
        <time>2022-07-29T14:39:16.000Z</time>
      </trkpt>
      <trkpt lat="42.153980098664760589599609375" lon="2.61162945069372653961181640625">
        <ele>347.600006103515625</ele>
        <time>2022-07-29T14:39:20.000Z</time>
      </trkpt>
      <trkpt lat="42.15394883416593074798583984375" lon="2.611422501504421234130859375">
        <ele>348.600006103515625</ele>
        <time>2022-07-29T14:39:24.000Z</time>
      </trkpt>
      <trkpt lat="42.15394087135791778564453125" lon="2.61136977933347225189208984375">
        <ele>348.79998779296875</ele>
        <time>2022-07-29T14:39:25.000Z</time>
      </trkpt>
      <trkpt lat="42.1538887359201908111572265625" lon="2.611014135181903839111328125">
        <ele>349.79998779296875</ele>
        <time>2022-07-29T14:39:32.000Z</time>
      </trkpt>
      <trkpt lat="42.1538315713405609130859375" lon="2.6105730794370174407958984375">
        <ele>350.79998779296875</ele>
        <time>2022-07-29T14:39:41.000Z</time>
      </trkpt>
      <trkpt lat="42.153823859989643096923828125" lon="2.6105244643986225128173828125">
        <ele>351</ele>
        <time>2022-07-29T14:39:42.000Z</time>
      </trkpt>
      <trkpt lat="42.15377750806510448455810546875" lon="2.61013110168278217315673828125">
        <ele>352</ele>
        <time>2022-07-29T14:39:50.000Z</time>
      </trkpt>
      <trkpt lat="42.153739370405673980712890625" lon="2.609772272408008575439453125">
        <ele>352.79998779296875</ele>
        <time>2022-07-29T14:39:57.000Z</time>
      </trkpt>
      <trkpt lat="42.15372956357896327972412109375" lon="2.609665654599666595458984375">
        <ele>353</ele>
        <time>2022-07-29T14:39:59.000Z</time>
      </trkpt>
      <trkpt lat="42.1537066809833049774169921875" lon="2.60932392440736293792724609375">
        <ele>354.20001220703125</ele>
        <time>2022-07-29T14:40:05.000Z</time>
      </trkpt>
      <trkpt lat="42.15370140038430690765380859375" lon="2.60926508344709873199462890625">
        <ele>354.399993896484375</ele>
        <time>2022-07-29T14:40:06.000Z</time>
      </trkpt>
      <trkpt lat="42.15367357246577739715576171875" lon="2.60891891084611415863037109375">
        <ele>355.399993896484375</ele>
        <time>2022-07-29T14:40:12.000Z</time>
      </trkpt>
      <trkpt lat="42.1536518633365631103515625" lon="2.60864876210689544677734375">
        <ele>356</ele>
        <time>2022-07-29T14:40:17.000Z</time>
      </trkpt>
      <trkpt lat="42.1536342613399028778076171875" lon="2.6084913499653339385986328125">
        <ele>356.20001220703125</ele>
        <time>2022-07-29T14:40:20.000Z</time>
      </trkpt>
      <trkpt lat="42.15358279645442962646484375" lon="2.6082321815192699432373046875">
        <ele>356.600006103515625</ele>
        <time>2022-07-29T14:40:25.000Z</time>
      </trkpt>
      <trkpt lat="42.153463773429393768310546875" lon="2.607786096632480621337890625">
        <ele>357.399993896484375</ele>
        <time>2022-07-29T14:40:33.000Z</time>
      </trkpt>
      <trkpt lat="42.15344608761370182037353515625" lon="2.60772767476737499237060546875">
        <ele>357.399993896484375</ele>
        <time>2022-07-29T14:40:34.000Z</time>
      </trkpt>
      <trkpt lat="42.15335690416395664215087890625" lon="2.60735015384852886199951171875">
        <ele>357.600006103515625</ele>
        <time>2022-07-29T14:40:40.000Z</time>
      </trkpt>
      <trkpt lat="42.15334835462272167205810546875" lon="2.607223503291606903076171875">
        <ele>357.600006103515625</ele>
        <time>2022-07-29T14:40:42.000Z</time>
      </trkpt>
      <trkpt lat="42.15335187502205371856689453125" lon="2.607038430869579315185546875">
        <ele>357.79998779296875</ele>
        <time>2022-07-29T14:40:45.000Z</time>
      </trkpt>
      <trkpt lat="42.1533459238708019256591796875" lon="2.60679309256374835968017578125">
        <ele>357.79998779296875</ele>
        <time>2022-07-29T14:40:49.000Z</time>
      </trkpt>
      <trkpt lat="42.15324492193758487701416015625" lon="2.60630677454173564910888671875">
        <ele>358.20001220703125</ele>
        <time>2022-07-29T14:40:57.000Z</time>
      </trkpt>
      <trkpt lat="42.15319027192890644073486328125" lon="2.606096975505352020263671875">
        <ele>358.600006103515625</ele>
        <time>2022-07-29T14:41:00.000Z</time>
      </trkpt>
      <trkpt lat="42.15313545428216457366943359375" lon="2.60591081343591213226318359375">
        <ele>358.79998779296875</ele>
        <time>2022-07-29T14:41:03.000Z</time>
      </trkpt>
      <trkpt lat="42.1531031839549541473388671875" lon="2.605793215334415435791015625">
        <ele>358.79998779296875</ele>
        <time>2022-07-29T14:41:05.000Z</time>
      </trkpt>
      <trkpt lat="42.15307577513158321380615234375" lon="2.60567846707999706268310546875">
        <ele>359</ele>
        <time>2022-07-29T14:41:07.000Z</time>
      </trkpt>
      <trkpt lat="42.15302749536931514739990234375" lon="2.60550965555012226104736328125">
        <ele>359.399993896484375</ele>
        <time>2022-07-29T14:41:10.000Z</time>
      </trkpt>
      <trkpt lat="42.1529043652117252349853515625" lon="2.6051238365471363067626953125">
        <ele>360.399993896484375</ele>
        <time>2022-07-29T14:41:17.000Z</time>
      </trkpt>
      <trkpt lat="42.1527930535376071929931640625" lon="2.60470725595951080322265625">
        <ele>361.399993896484375</ele>
        <time>2022-07-29T14:41:24.000Z</time>
      </trkpt>
      <trkpt lat="42.15276874601840972900390625" lon="2.60458655655384063720703125">
        <ele>361.600006103515625</ele>
        <time>2022-07-29T14:41:26.000Z</time>
      </trkpt>
      <trkpt lat="42.1527427621185779571533203125" lon="2.60434272699058055877685546875">
        <ele>361.79998779296875</ele>
        <time>2022-07-29T14:41:30.000Z</time>
      </trkpt>
      <trkpt lat="42.15273396112024784088134765625" lon="2.60428589768707752227783203125">
        <ele>362</ele>
        <time>2022-07-29T14:41:31.000Z</time>
      </trkpt>
      <trkpt lat="42.15270613320171833038330078125" lon="2.604178525507450103759765625">
        <ele>362.600006103515625</ele>
        <time>2022-07-29T14:41:33.000Z</time>
      </trkpt>
      <trkpt lat="42.15266455896198749542236328125" lon="2.60408389382064342498779296875">
        <ele>362.600006103515625</ele>
        <time>2022-07-29T14:41:35.000Z</time>
      </trkpt>
      <trkpt lat="42.152519635856151580810546875" lon="2.60378315113484859466552734375">
        <ele>363.600006103515625</ele>
        <time>2022-07-29T14:41:41.000Z</time>
      </trkpt>
      <trkpt lat="42.15247814543545246124267578125" lon="2.6036767847836017608642578125">
        <ele>364</ele>
        <time>2022-07-29T14:41:43.000Z</time>
      </trkpt>
      <trkpt lat="42.15231218375265598297119140625" lon="2.60315082035958766937255859375">
        <ele>364.399993896484375</ele>
        <time>2022-07-29T14:41:52.000Z</time>
      </trkpt>
      <trkpt lat="42.15226843021810054779052734375" lon="2.6029368303716182708740234375">
        <ele>364.600006103515625</ele>
        <time>2022-07-29T14:41:55.000Z</time>
      </trkpt>
      <trkpt lat="42.15223741717636585235595703125" lon="2.60264388285577297210693359375">
        <ele>365.20001220703125</ele>
        <time>2022-07-29T14:41:59.000Z</time>
      </trkpt>
      <trkpt lat="42.1522200666368007659912109375" lon="2.602036111056804656982421875">
        <ele>365</ele>
        <time>2022-07-29T14:42:07.000Z</time>
      </trkpt>
      <trkpt lat="42.1522639878094196319580078125" lon="2.60154065676033496856689453125">
        <ele>365.20001220703125</ele>
        <time>2022-07-29T14:42:14.000Z</time>
      </trkpt>
      <trkpt lat="42.152247726917266845703125" lon="2.6012658141553401947021484375">
        <ele>365.399993896484375</ele>
        <time>2022-07-29T14:42:19.000Z</time>
      </trkpt>
      <trkpt lat="42.15223926119506359100341796875" lon="2.60122239589691162109375">
        <ele>365.600006103515625</ele>
        <time>2022-07-29T14:42:20.000Z</time>
      </trkpt>
      <trkpt lat="42.15218209661543369293212890625" lon="2.6010301150381565093994140625">
        <ele>366.399993896484375</ele>
        <time>2022-07-29T14:42:24.000Z</time>
      </trkpt>
      <trkpt lat="42.15216315351426601409912109375" lon="2.600979991257190704345703125">
        <ele>367</ele>
        <time>2022-07-29T14:42:25.000Z</time>
      </trkpt>
      <trkpt lat="42.152120657265186309814453125" lon="2.600884772837162017822265625">
        <ele>367.79998779296875</ele>
        <time>2022-07-29T14:42:27.000Z</time>
      </trkpt>
      <trkpt lat="42.1520601399242877960205078125" lon="2.60074085555970668792724609375">
        <ele>368.79998779296875</ele>
        <time>2022-07-29T14:42:30.000Z</time>
      </trkpt>
      <trkpt lat="42.1520162187516689300537109375" lon="2.6005961000919342041015625">
        <ele>369.399993896484375</ele>
        <time>2022-07-29T14:42:33.000Z</time>
      </trkpt>
      <trkpt lat="42.151979841291904449462890625" lon="2.60034036822617053985595703125">
        <ele>370</ele>
        <time>2022-07-29T14:42:38.000Z</time>
      </trkpt>
      <trkpt lat="42.151959724724292755126953125" lon="2.60022939182817935943603515625">
        <ele>370</ele>
        <time>2022-07-29T14:42:40.000Z</time>
      </trkpt>
      <trkpt lat="42.15190214104950428009033203125" lon="2.60003392584621906280517578125">
        <ele>371</ele>
        <time>2022-07-29T14:42:44.000Z</time>
      </trkpt>
      <trkpt lat="42.15186886489391326904296875" lon="2.59993468411266803741455078125">
        <ele>372</ele>
        <time>2022-07-29T14:42:46.000Z</time>
      </trkpt>
      <trkpt lat="42.15185050852596759796142578125" lon="2.59988866746425628662109375">
        <ele>372.399993896484375</ele>
        <time>2022-07-29T14:42:47.000Z</time>
      </trkpt>
      <trkpt lat="42.1517278812825679779052734375" lon="2.5996330194175243377685546875">
        <ele>373.399993896484375</ele>
        <time>2022-07-29T14:42:53.000Z</time>
      </trkpt>
      <trkpt lat="42.1517060883343219757080078125" lon="2.59959169663488864898681640625">
        <ele>373.600006103515625</ele>
        <time>2022-07-29T14:42:54.000Z</time>
      </trkpt>
      <trkpt lat="42.15166258625686168670654296875" lon="2.59950871579349040985107421875">
        <ele>374.20001220703125</ele>
        <time>2022-07-29T14:42:56.000Z</time>
      </trkpt>
      <trkpt lat="42.15162335895001888275146484375" lon="2.5993175245821475982666015625">
        <ele>375.399993896484375</ele>
        <time>2022-07-29T14:43:00.000Z</time>
      </trkpt>
      <trkpt lat="42.1516249515116214752197265625" lon="2.59916941635310649871826171875">
        <ele>376.399993896484375</ele>
        <time>2022-07-29T14:43:03.000Z</time>
      </trkpt>
      <trkpt lat="42.15162268839776515960693359375" lon="2.59897830896079540252685546875">
        <ele>376.79998779296875</ele>
        <time>2022-07-29T14:43:07.000Z</time>
      </trkpt>
      <trkpt lat="42.1516272984445095062255859375" lon="2.5987368263304233551025390625">
        <ele>377.600006103515625</ele>
        <time>2022-07-29T14:43:12.000Z</time>
      </trkpt>
      <trkpt lat="42.1516189165413379669189453125" lon="2.598633728921413421630859375">
        <ele>378.20001220703125</ele>
        <time>2022-07-29T14:43:14.000Z</time>
      </trkpt>
      <trkpt lat="42.151610367000102996826171875" lon="2.59853071533143520355224609375">
        <ele>378.600006103515625</ele>
        <time>2022-07-29T14:43:16.000Z</time>
      </trkpt>
      <trkpt lat="42.15157574974000453948974609375" lon="2.5984005443751811981201171875">
        <ele>379.79998779296875</ele>
        <time>2022-07-29T14:43:19.000Z</time>
      </trkpt>
      <trkpt lat="42.15147751383483409881591796875" lon="2.5981759093701839447021484375">
        <ele>380.20001220703125</ele>
        <time>2022-07-29T14:43:25.000Z</time>
      </trkpt>
      <trkpt lat="42.15142839588224887847900390625" lon="2.5981189124286174774169921875">
        <ele>381</ele>
        <time>2022-07-29T14:43:27.000Z</time>
      </trkpt>
      <trkpt lat="42.15131440199911594390869140625" lon="2.59802679531276226043701171875">
        <ele>382</ele>
        <time>2022-07-29T14:43:31.000Z</time>
      </trkpt>
      <trkpt lat="42.1512564830482006072998046875" lon="2.5979834608733654022216796875">
        <ele>382.79998779296875</ele>
        <time>2022-07-29T14:43:33.000Z</time>
      </trkpt>
      <trkpt lat="42.1511780284345149993896484375" lon="2.597908861935138702392578125">
        <ele>383.20001220703125</ele>
        <time>2022-07-29T14:43:36.000Z</time>
      </trkpt>
      <trkpt lat="42.1511012502014636993408203125" lon="2.59783250279724597930908203125">
        <ele>383.79998779296875</ele>
        <time>2022-07-29T14:43:39.000Z</time>
      </trkpt>
      <trkpt lat="42.1510325185954570770263671875" lon="2.59773191995918750762939453125">
        <ele>384</ele>
        <time>2022-07-29T14:43:42.000Z</time>
      </trkpt>
      <trkpt lat="42.15097577311098575592041015625" lon="2.59763502515852451324462890625">
        <ele>384</ele>
        <time>2022-07-29T14:43:45.000Z</time>
      </trkpt>
      <trkpt lat="42.1509413234889507293701171875" lon="2.59757014922797679901123046875">
        <ele>384.399993896484375</ele>
        <time>2022-07-29T14:43:47.000Z</time>
      </trkpt>
      <trkpt lat="42.15089044533669948577880859375" lon="2.5974785350263118743896484375">
        <ele>385.20001220703125</ele>
        <time>2022-07-29T14:43:50.000Z</time>
      </trkpt>
      <trkpt lat="42.15080025605857372283935546875" lon="2.59733445011079311370849609375">
        <ele>386.20001220703125</ele>
        <time>2022-07-29T14:43:55.000Z</time>
      </trkpt>
      <trkpt lat="42.15069145895540714263916015625" lon="2.5971958972513675689697265625">
        <ele>387.20001220703125</ele>
        <time>2022-07-29T14:44:00.000Z</time>
      </trkpt>
      <trkpt lat="42.15064418502151966094970703125" lon="2.59713311679661273956298828125">
        <ele>387.600006103515625</ele>
        <time>2022-07-29T14:44:02.000Z</time>
      </trkpt>
      <trkpt lat="42.15057092718780040740966796875" lon="2.596988193690776824951171875">
        <ele>388.20001220703125</ele>
        <time>2022-07-29T14:44:06.000Z</time>
      </trkpt>
      <trkpt lat="42.15056128799915313720703125" lon="2.59694754146039485931396484375">
        <ele>388.399993896484375</ele>
        <time>2022-07-29T14:44:07.000Z</time>
      </trkpt>
      <trkpt lat="42.15054251253604888916015625" lon="2.5966648198664188385009765625">
        <ele>389.399993896484375</ele>
        <time>2022-07-29T14:44:14.000Z</time>
      </trkpt>
      <trkpt lat="42.15054276399314403533935546875" lon="2.5966212339699268341064453125">
        <ele>389.79998779296875</ele>
        <time>2022-07-29T14:44:15.000Z</time>
      </trkpt>
      <trkpt lat="42.1505470387637615203857421875" lon="2.596540935337543487548828125">
        <ele>390.399993896484375</ele>
        <time>2022-07-29T14:44:17.000Z</time>
      </trkpt>
      <trkpt lat="42.150557599961757659912109375" lon="2.59641864337027072906494140625">
        <ele>391.20001220703125</ele>
        <time>2022-07-29T14:44:20.000Z</time>
      </trkpt>
      <trkpt lat="42.15056288056075572967529296875" lon="2.59633700363337993621826171875">
        <ele>391.600006103515625</ele>
        <time>2022-07-29T14:44:22.000Z</time>
      </trkpt>
      <trkpt lat="42.15055634267628192901611328125" lon="2.5962168909609317779541015625">
        <ele>392.20001220703125</ele>
        <time>2022-07-29T14:44:25.000Z</time>
      </trkpt>
      <trkpt lat="42.150561623275279998779296875" lon="2.59609795175492763519287109375">
        <ele>392.600006103515625</ele>
        <time>2022-07-29T14:44:28.000Z</time>
      </trkpt>
      <trkpt lat="42.15055952779948711395263671875" lon="2.59602184407413005828857421875">
        <ele>393</ele>
        <time>2022-07-29T14:44:30.000Z</time>
      </trkpt>
      <trkpt lat="42.15052180923521518707275390625" lon="2.59578061290085315704345703125">
        <ele>393.600006103515625</ele>
        <time>2022-07-29T14:44:36.000Z</time>
      </trkpt>
      <trkpt lat="42.15051912702620029449462890625" lon="2.59574390016496181488037109375">
        <ele>394</ele>
        <time>2022-07-29T14:44:37.000Z</time>
      </trkpt>
      <trkpt lat="42.1504843421280384063720703125" lon="2.5955208577215671539306640625">
        <ele>395</ele>
        <time>2022-07-29T14:44:43.000Z</time>
      </trkpt>
      <trkpt lat="42.150473110377788543701171875" lon="2.59548221714794635772705078125">
        <ele>395.20001220703125</ele>
        <time>2022-07-29T14:44:44.000Z</time>
      </trkpt>
      <trkpt lat="42.150404043495655059814453125" lon="2.59532396681606769561767578125">
        <ele>396</ele>
        <time>2022-07-29T14:44:48.000Z</time>
      </trkpt>
      <trkpt lat="42.15038619004189968109130859375" lon="2.59528541006147861480712890625">
        <ele>396.399993896484375</ele>
        <time>2022-07-29T14:44:49.000Z</time>
      </trkpt>
      <trkpt lat="42.1502825058996677398681640625" lon="2.59511441923677921295166015625">
        <ele>397.20001220703125</ele>
        <time>2022-07-29T14:44:54.000Z</time>
      </trkpt>
      <trkpt lat="42.15022458694875240325927734375" lon="2.59500168263912200927734375">
        <ele>397.399993896484375</ele>
        <time>2022-07-29T14:44:57.000Z</time>
      </trkpt>
      <trkpt lat="42.15016993694007396697998046875" lon="2.59485743008553981781005859375">
        <ele>398.20001220703125</ele>
        <time>2022-07-29T14:45:01.000Z</time>
      </trkpt>
      <trkpt lat="42.15014646761119365692138671875" lon="2.59478534571826457977294921875">
        <ele>398.600006103515625</ele>
        <time>2022-07-29T14:45:03.000Z</time>
      </trkpt>
      <trkpt lat="42.1501131914556026458740234375" lon="2.59458719752728939056396484375">
        <ele>399.20001220703125</ele>
        <time>2022-07-29T14:45:08.000Z</time>
      </trkpt>
      <trkpt lat="42.1501059830188751220703125" lon="2.59446582756936550140380859375">
        <ele>399.600006103515625</ele>
        <time>2022-07-29T14:45:11.000Z</time>
      </trkpt>
      <trkpt lat="42.15012408792972564697265625" lon="2.59424152784049510955810546875">
        <ele>400.399993896484375</ele>
        <time>2022-07-29T14:45:16.000Z</time>
      </trkpt>
      <trkpt lat="42.15013682842254638671875" lon="2.59415469132363796234130859375">
        <ele>400.79998779296875</ele>
        <time>2022-07-29T14:45:18.000Z</time>
      </trkpt>
      <trkpt lat="42.15016256086528301239013671875" lon="2.5940194912254810333251953125">
        <ele>401</ele>
        <time>2022-07-29T14:45:21.000Z</time>
      </trkpt>
      <trkpt lat="42.1501799114048480987548828125" lon="2.59387389756739139556884765625">
        <ele>401.79998779296875</ele>
        <time>2022-07-29T14:45:24.000Z</time>
      </trkpt>
      <trkpt lat="42.150186784565448760986328125" lon="2.59357080794870853424072265625">
        <ele>402.600006103515625</ele>
        <time>2022-07-29T14:45:30.000Z</time>
      </trkpt>
      <trkpt lat="42.15017446316778659820556640625" lon="2.59342412464320659637451171875">
        <ele>402.79998779296875</ele>
        <time>2022-07-29T14:45:33.000Z</time>
      </trkpt>
      <trkpt lat="42.15014822781085968017578125" lon="2.593183480203151702880859375">
        <ele>403.79998779296875</ele>
        <time>2022-07-29T14:45:38.000Z</time>
      </trkpt>
      <trkpt lat="42.15014093555510044097900390625" lon="2.593085579574108123779296875">
        <ele>403.79998779296875</ele>
        <time>2022-07-29T14:45:40.000Z</time>
      </trkpt>
      <trkpt lat="42.15012274682521820068359375" lon="2.5928849168121814727783203125">
        <ele>404.399993896484375</ele>
        <time>2022-07-29T14:45:44.000Z</time>
      </trkpt>
      <trkpt lat="42.1501044742763042449951171875" lon="2.59268852882087230682373046875">
        <ele>404.79998779296875</ele>
        <time>2022-07-29T14:45:48.000Z</time>
      </trkpt>
      <trkpt lat="42.15009047649800777435302734375" lon="2.5924872793257236480712890625">
        <ele>406.399993896484375</ele>
        <time>2022-07-29T14:45:52.000Z</time>
      </trkpt>
      <trkpt lat="42.150072120130062103271484375" lon="2.592295669019222259521484375">
        <ele>407.600006103515625</ele>
        <time>2022-07-29T14:45:56.000Z</time>
      </trkpt>
      <trkpt lat="42.15004353784024715423583984375" lon="2.59201328270137310028076171875">
        <ele>408.20001220703125</ele>
        <time>2022-07-29T14:46:02.000Z</time>
      </trkpt>
      <trkpt lat="42.15003532357513904571533203125" lon="2.59192108176648616790771484375">
        <ele>408.600006103515625</ele>
        <time>2022-07-29T14:46:04.000Z</time>
      </trkpt>
      <trkpt lat="42.1500169672071933746337890625" lon="2.59169393219053745269775390625">
        <ele>409.600006103515625</ele>
        <time>2022-07-29T14:46:09.000Z</time>
      </trkpt>
      <trkpt lat="42.15000531636178493499755859375" lon="2.59159804321825504302978515625">
        <ele>410</ele>
        <time>2022-07-29T14:46:11.000Z</time>
      </trkpt>
      <trkpt lat="42.14997530914843082427978515625" lon="2.5912584923207759857177734375">
        <ele>410.79998779296875</ele>
        <time>2022-07-29T14:46:18.000Z</time>
      </trkpt>
      <trkpt lat="42.14996516704559326171875" lon="2.59116738103330135345458984375">
        <ele>411.20001220703125</ele>
        <time>2022-07-29T14:46:20.000Z</time>
      </trkpt>
      <trkpt lat="42.14994966052472591400146484375" lon="2.59098515845835208892822265625">
        <ele>411.79998779296875</ele>
        <time>2022-07-29T14:46:24.000Z</time>
      </trkpt>
      <trkpt lat="42.14992535300552845001220703125" lon="2.59074241854250431060791015625">
        <ele>413</ele>
        <time>2022-07-29T14:46:29.000Z</time>
      </trkpt>
      <trkpt lat="42.14990138076245784759521484375" lon="2.590493224561214447021484375">
        <ele>414</ele>
        <time>2022-07-29T14:46:34.000Z</time>
      </trkpt>
      <trkpt lat="42.14988511987030506134033203125" lon="2.59034536778926849365234375">
        <ele>414.600006103515625</ele>
        <time>2022-07-29T14:46:37.000Z</time>
      </trkpt>
      <trkpt lat="42.1498707868158817291259765625" lon="2.59018242359161376953125">
        <ele>415</ele>
        <time>2022-07-29T14:46:40.000Z</time>
      </trkpt>
      <trkpt lat="42.1498489938676357269287109375" lon="2.58994571864604949951171875">
        <ele>415.399993896484375</ele>
        <time>2022-07-29T14:46:44.000Z</time>
      </trkpt>
      <trkpt lat="42.14979124255478382110595703125" lon="2.58930777199566364288330078125">
        <ele>415.600006103515625</ele>
        <time>2022-07-29T14:46:54.000Z</time>
      </trkpt>
      <trkpt lat="42.14972854591906070709228515625" lon="2.58862473070621490478515625">
        <ele>415.600006103515625</ele>
        <time>2022-07-29T14:47:04.000Z</time>
      </trkpt>
      <trkpt lat="42.14967825450003147125244140625" lon="2.588067837059497833251953125">
        <ele>415.79998779296875</ele>
        <time>2022-07-29T14:47:12.000Z</time>
      </trkpt>
      <trkpt lat="42.14965562336146831512451171875" lon="2.5878544338047504425048828125">
        <ele>416.20001220703125</ele>
        <time>2022-07-29T14:47:15.000Z</time>
      </trkpt>
      <trkpt lat="42.149618826806545257568359375" lon="2.5874184072017669677734375">
        <ele>417</ele>
        <time>2022-07-29T14:47:21.000Z</time>
      </trkpt>
      <trkpt lat="42.14959527365863323211669921875" lon="2.5872038304805755615234375">
        <ele>417.20001220703125</ele>
        <time>2022-07-29T14:47:24.000Z</time>
      </trkpt>
      <trkpt lat="42.149565517902374267578125" lon="2.586856819689273834228515625">
        <ele>417.399993896484375</ele>
        <time>2022-07-29T14:47:29.000Z</time>
      </trkpt>
      <trkpt lat="42.1495080180466175079345703125" lon="2.586245276033878326416015625">
        <ele>418.20001220703125</ele>
        <time>2022-07-29T14:47:38.000Z</time>
      </trkpt>
      <trkpt lat="42.149461917579174041748046875" lon="2.585753090679645538330078125">
        <ele>419.399993896484375</ele>
        <time>2022-07-29T14:47:45.000Z</time>
      </trkpt>
      <trkpt lat="42.1494407951831817626953125" lon="2.585535831749439239501953125">
        <ele>419.79998779296875</ele>
        <time>2022-07-29T14:47:48.000Z</time>
      </trkpt>
      <trkpt lat="42.1493844687938690185546875" lon="2.58491129614412784576416015625">
        <ele>420</ele>
        <time>2022-07-29T14:47:57.000Z</time>
      </trkpt>
      <trkpt lat="42.14935454539954662322998046875" lon="2.58458926342427730560302734375">
        <ele>420.399993896484375</ele>
        <time>2022-07-29T14:48:02.000Z</time>
      </trkpt>
      <trkpt lat="42.14932755567133426666259765625" lon="2.58432473056018352508544921875">
        <ele>421.20001220703125</ele>
        <time>2022-07-29T14:48:06.000Z</time>
      </trkpt>
      <trkpt lat="42.1493152342736721038818359375" lon="2.584201432764530181884765625">
        <ele>421.399993896484375</ele>
        <time>2022-07-29T14:48:08.000Z</time>
      </trkpt>
      <trkpt lat="42.14928321540355682373046875" lon="2.58403371088206768035888671875">
        <ele>422.600006103515625</ele>
        <time>2022-07-29T14:48:11.000Z</time>
      </trkpt>
      <trkpt lat="42.1492686308920383453369140625" lon="2.58398090489208698272705078125">
        <ele>422.79998779296875</ele>
        <time>2022-07-29T14:48:12.000Z</time>
      </trkpt>
      <trkpt lat="42.149250693619251251220703125" lon="2.5839280150830745697021484375">
        <ele>423</ele>
        <time>2022-07-29T14:48:13.000Z</time>
      </trkpt>
      <trkpt lat="42.1492092870175838470458984375" lon="2.583826594054698944091796875">
        <ele>423.79998779296875</ele>
        <time>2022-07-29T14:48:15.000Z</time>
      </trkpt>
      <trkpt lat="42.1491063572466373443603515625" lon="2.5836235843598842620849609375">
        <ele>424.600006103515625</ele>
        <time>2022-07-29T14:48:19.000Z</time>
      </trkpt>
      <trkpt lat="42.1490798704326152801513671875" lon="2.58357203565537929534912109375">
        <ele>424.600006103515625</ele>
        <time>2022-07-29T14:48:20.000Z</time>
      </trkpt>
      <trkpt lat="42.148926146328449249267578125" lon="2.58327950723469257354736328125">
        <ele>425.600006103515625</ele>
        <time>2022-07-29T14:48:26.000Z</time>
      </trkpt>
      <trkpt lat="42.14884576387703418731689453125" lon="2.58314095437526702880859375">
        <ele>426.399993896484375</ele>
        <time>2022-07-29T14:48:29.000Z</time>
      </trkpt>
      <trkpt lat="42.148787677288055419921875" lon="2.58305512368679046630859375">
        <ele>426.79998779296875</ele>
        <time>2022-07-29T14:48:31.000Z</time>
      </trkpt>
      <trkpt lat="42.14862339198589324951171875" lon="2.582856975495815277099609375">
        <ele>427.600006103515625</ele>
        <time>2022-07-29T14:48:36.000Z</time>
      </trkpt>
      <trkpt lat="42.1485886909067630767822265625" lon="2.5828175805509090423583984375">
        <ele>428</ele>
        <time>2022-07-29T14:48:37.000Z</time>
      </trkpt>
      <trkpt lat="42.14838056825101375579833984375" lon="2.582592107355594635009765625">
        <ele>429.20001220703125</ele>
        <time>2022-07-29T14:48:43.000Z</time>
      </trkpt>
      <trkpt lat="42.148315608501434326171875" lon="2.5825181789696216583251953125">
        <ele>429.399993896484375</ele>
        <time>2022-07-29T14:48:45.000Z</time>
      </trkpt>
      <trkpt lat="42.14817755855619907379150390625" lon="2.58231592364609241485595703125">
        <ele>430.20001220703125</ele>
        <time>2022-07-29T14:48:50.000Z</time>
      </trkpt>
      <trkpt lat="42.1481317095458507537841796875" lon="2.58221936412155628204345703125">
        <ele>430.399993896484375</ele>
        <time>2022-07-29T14:48:52.000Z</time>
      </trkpt>
      <trkpt lat="42.1480784006416797637939453125" lon="2.58206999860703945159912109375">
        <ele>431.20001220703125</ele>
        <time>2022-07-29T14:48:55.000Z</time>
      </trkpt>
      <trkpt lat="42.14804227463901042938232421875" lon="2.58191694505512714385986328125">
        <ele>431.600006103515625</ele>
        <time>2022-07-29T14:48:58.000Z</time>
      </trkpt>
      <trkpt lat="42.1480143629014492034912109375" lon="2.581757269799709320068359375">
        <ele>432.20001220703125</ele>
        <time>2022-07-29T14:49:01.000Z</time>
      </trkpt>
      <trkpt lat="42.1479848586022853851318359375" lon="2.581543363630771636962890625">
        <ele>432.79998779296875</ele>
        <time>2022-07-29T14:49:05.000Z</time>
      </trkpt>
      <trkpt lat="42.14797002263367176055908203125" lon="2.5814370810985565185546875">
        <ele>433.399993896484375</ele>
        <time>2022-07-29T14:49:07.000Z</time>
      </trkpt>
      <trkpt lat="42.147933058440685272216796875" lon="2.5810803472995758056640625">
        <ele>434.399993896484375</ele>
        <time>2022-07-29T14:49:14.000Z</time>
      </trkpt>
      <trkpt lat="42.1479070745408535003662109375" lon="2.58083031512796878814697265625">
        <ele>435.600006103515625</ele>
        <time>2022-07-29T14:49:19.000Z</time>
      </trkpt>
      <trkpt lat="42.14788938872516155242919921875" lon="2.58067843504250049591064453125">
        <ele>435.79998779296875</ele>
        <time>2022-07-29T14:49:22.000Z</time>
      </trkpt>
      <trkpt lat="42.14786692522466182708740234375" lon="2.58047123439610004425048828125">
        <ele>436.600006103515625</ele>
        <time>2022-07-29T14:49:26.000Z</time>
      </trkpt>
      <trkpt lat="42.14782300405204296112060546875" lon="2.58006689138710498809814453125">
        <ele>437.20001220703125</ele>
        <time>2022-07-29T14:49:34.000Z</time>
      </trkpt>
      <trkpt lat="42.14781009592115879058837890625" lon="2.5799264945089817047119140625">
        <ele>437.79998779296875</ele>
        <time>2022-07-29T14:49:37.000Z</time>
      </trkpt>
      <trkpt lat="42.14779919944703578948974609375" lon="2.57968316785991191864013671875">
        <ele>438.600006103515625</ele>
        <time>2022-07-29T14:49:42.000Z</time>
      </trkpt>
      <trkpt lat="42.14779970236122608184814453125" lon="2.5796319544315338134765625">
        <ele>438.79998779296875</ele>
        <time>2022-07-29T14:49:43.000Z</time>
      </trkpt>
      <trkpt lat="42.14781730435788631439208984375" lon="2.57947948761284351348876953125">
        <ele>440</ele>
        <time>2022-07-29T14:49:46.000Z</time>
      </trkpt>
      <trkpt lat="42.1478547714650630950927734375" lon="2.57933598943054676055908203125">
        <ele>440.399993896484375</ele>
        <time>2022-07-29T14:49:49.000Z</time>
      </trkpt>
      <trkpt lat="42.14795946143567562103271484375" lon="2.57912308908998966217041015625">
        <ele>441</ele>
        <time>2022-07-29T14:49:54.000Z</time>
      </trkpt>
      <trkpt lat="42.1480026282370090484619140625" lon="2.5790500827133655548095703125">
        <ele>441.399993896484375</ele>
        <time>2022-07-29T14:49:56.000Z</time>
      </trkpt>
      <trkpt lat="42.14815945364534854888916015625" lon="2.5788425467908382415771484375">
        <ele>442.20001220703125</ele>
        <time>2022-07-29T14:50:03.000Z</time>
      </trkpt>
      <trkpt lat="42.14825366623699665069580078125" lon="2.5787091068923473358154296875">
        <ele>443.399993896484375</ele>
        <time>2022-07-29T14:50:07.000Z</time>
      </trkpt>
      <trkpt lat="42.1483251638710498809814453125" lon="2.5785931013524532318115234375">
        <ele>444</ele>
        <time>2022-07-29T14:50:10.000Z</time>
      </trkpt>
      <trkpt lat="42.14837185107171535491943359375" lon="2.57851406000554561614990234375">
        <ele>444.600006103515625</ele>
        <time>2022-07-29T14:50:12.000Z</time>
      </trkpt>
      <trkpt lat="42.1484864316880702972412109375" lon="2.57826679386198520660400390625">
        <ele>445</ele>
        <time>2022-07-29T14:50:18.000Z</time>
      </trkpt>
      <trkpt lat="42.1485154330730438232421875" lon="2.57813754491508007049560546875">
        <ele>445.79998779296875</ele>
        <time>2022-07-29T14:50:21.000Z</time>
      </trkpt>
      <trkpt lat="42.14853110723197460174560546875" lon="2.57792028598487377166748046875">
        <ele>447</ele>
        <time>2022-07-29T14:50:26.000Z</time>
      </trkpt>
      <trkpt lat="42.14849355630576610565185546875" lon="2.577601186931133270263671875">
        <ele>448</ele>
        <time>2022-07-29T14:50:33.000Z</time>
      </trkpt>
      <trkpt lat="42.1484857611358165740966796875" lon="2.577556930482387542724609375">
        <ele>448</ele>
        <time>2022-07-29T14:50:34.000Z</time>
      </trkpt>
      <trkpt lat="42.148427255451679229736328125" lon="2.57729709148406982421875">
        <ele>448.600006103515625</ele>
        <time>2022-07-29T14:50:40.000Z</time>
      </trkpt>
      <trkpt lat="42.14839532040059566497802734375" lon="2.5771688483655452728271484375">
        <ele>449.20001220703125</ele>
        <time>2022-07-29T14:50:43.000Z</time>
      </trkpt>
      <trkpt lat="42.14836615137755870819091796875" lon="2.57704521529376506805419921875">
        <ele>450.20001220703125</ele>
        <time>2022-07-29T14:50:46.000Z</time>
      </trkpt>
      <trkpt lat="42.1482963301241397857666015625" lon="2.5768161378800868988037109375">
        <ele>451</ele>
        <time>2022-07-29T14:50:52.000Z</time>
      </trkpt>
      <trkpt lat="42.14828467927873134613037109375" lon="2.57673307321965694427490234375">
        <ele>451.399993896484375</ele>
        <time>2022-07-29T14:50:54.000Z</time>
      </trkpt>
      <trkpt lat="42.14823422022163867950439453125" lon="2.57652905769646167755126953125">
        <ele>452.20001220703125</ele>
        <time>2022-07-29T14:50:59.000Z</time>
      </trkpt>
      <trkpt lat="42.1482225693762302398681640625" lon="2.57648748345673084259033203125">
        <ele>452.399993896484375</ele>
        <time>2022-07-29T14:51:00.000Z</time>
      </trkpt>
      <trkpt lat="42.14815828017890453338623046875" lon="2.57623703218996524810791015625">
        <ele>453.600006103515625</ele>
        <time>2022-07-29T14:51:06.000Z</time>
      </trkpt>
      <trkpt lat="42.14813162572681903839111328125" lon="2.576154135167598724365234375">
        <ele>453.79998779296875</ele>
        <time>2022-07-29T14:51:08.000Z</time>
      </trkpt>
      <trkpt lat="42.1480938233435153961181640625" lon="2.57598674856126308441162109375">
        <ele>454.600006103515625</ele>
        <time>2022-07-29T14:51:12.000Z</time>
      </trkpt>
      <trkpt lat="42.1480867825448513031005859375" lon="2.57594550959765911102294921875">
        <ele>454.600006103515625</ele>
        <time>2022-07-29T14:51:13.000Z</time>
      </trkpt>
      <trkpt lat="42.1480599604547023773193359375" lon="2.575826905667781829833984375">
        <ele>455.600006103515625</ele>
        <time>2022-07-29T14:51:16.000Z</time>
      </trkpt>
      <trkpt lat="42.14800153858959674835205078125" lon="2.57559682242572307586669921875">
        <ele>456.600006103515625</ele>
        <time>2022-07-29T14:51:22.000Z</time>
      </trkpt>
      <trkpt lat="42.14794236235320568084716796875" lon="2.5753741152584552764892578125">
        <ele>457.79998779296875</ele>
        <time>2022-07-29T14:51:28.000Z</time>
      </trkpt>
      <trkpt lat="42.147884778678417205810546875" lon="2.575148977339267730712890625">
        <ele>458.79998779296875</ele>
        <time>2022-07-29T14:51:34.000Z</time>
      </trkpt>
      <trkpt lat="42.147878073155879974365234375" lon="2.57511117495596408843994140625">
        <ele>459</ele>
        <time>2022-07-29T14:51:35.000Z</time>
      </trkpt>
      <trkpt lat="42.14782954193651676177978515625" lon="2.57492895238101482391357421875">
        <ele>460.20001220703125</ele>
        <time>2022-07-29T14:51:40.000Z</time>
      </trkpt>
      <trkpt lat="42.14779081754386425018310546875" lon="2.57477841340005397796630859375">
        <ele>461.399993896484375</ele>
        <time>2022-07-29T14:51:44.000Z</time>
      </trkpt>
      <trkpt lat="42.14771118946373462677001953125" lon="2.57448068819940090179443359375">
        <ele>462.399993896484375</ele>
        <time>2022-07-29T14:51:52.000Z</time>
      </trkpt>
      <trkpt lat="42.1476780809462070465087890625" lon="2.57435345090925693511962890625">
        <ele>463.20001220703125</ele>
        <time>2022-07-29T14:51:55.000Z</time>
      </trkpt>
      <trkpt lat="42.1476519294083118438720703125" lon="2.57425152696669101715087890625">
        <ele>463.399993896484375</ele>
        <time>2022-07-29T14:51:57.000Z</time>
      </trkpt>
      <trkpt lat="42.1476230956614017486572265625" lon="2.574151195585727691650390625">
        <ele>463.600006103515625</ele>
        <time>2022-07-29T14:51:59.000Z</time>
      </trkpt>
      <trkpt lat="42.1476039849221706390380859375" lon="2.57405455224215984344482421875">
        <ele>464</ele>
        <time>2022-07-29T14:52:01.000Z</time>
      </trkpt>
      <trkpt lat="42.14755495078861713409423828125" lon="2.57384517230093479156494140625">
        <ele>464.79998779296875</ele>
        <time>2022-07-29T14:52:06.000Z</time>
      </trkpt>
      <trkpt lat="42.14754455722868442535400390625" lon="2.5738048553466796875">
        <ele>464.79998779296875</ele>
        <time>2022-07-29T14:52:07.000Z</time>
      </trkpt>
      <trkpt lat="42.14750315062701702117919921875" lon="2.5736387260258197784423828125">
        <ele>466</ele>
        <time>2022-07-29T14:52:11.000Z</time>
      </trkpt>
      <trkpt lat="42.14748211205005645751953125" lon="2.57355599664151668548583984375">
        <ele>466.399993896484375</ele>
        <time>2022-07-29T14:52:13.000Z</time>
      </trkpt>
      <trkpt lat="42.1474306471645832061767578125" lon="2.5733636319637298583984375">
        <ele>467</ele>
        <time>2022-07-29T14:52:18.000Z</time>
      </trkpt>
      <trkpt lat="42.1474068425595760345458984375" lon="2.57328827865421772003173828125">
        <ele>467.600006103515625</ele>
        <time>2022-07-29T14:52:20.000Z</time>
      </trkpt>
      <trkpt lat="42.147368453443050384521484375" lon="2.573131956160068511962890625">
        <ele>468.399993896484375</ele>
        <time>2022-07-29T14:52:24.000Z</time>
      </trkpt>
      <trkpt lat="42.14735747314989566802978515625" lon="2.5730925612151622772216796875">
        <ele>468.600006103515625</ele>
        <time>2022-07-29T14:52:25.000Z</time>
      </trkpt>
      <trkpt lat="42.14730198495090007781982421875" lon="2.57286566309630870819091796875">
        <ele>469.20001220703125</ele>
        <time>2022-07-29T14:52:31.000Z</time>
      </trkpt>
      <trkpt lat="42.14729092083871364593505859375" lon="2.57282911799848079681396484375">
        <ele>469.399993896484375</ele>
        <time>2022-07-29T14:52:32.000Z</time>
      </trkpt>
      <trkpt lat="42.1472408808767795562744140625" lon="2.57265443913638591766357421875">
        <ele>470.399993896484375</ele>
        <time>2022-07-29T14:52:37.000Z</time>
      </trkpt>
      <trkpt lat="42.14722864329814910888671875" lon="2.57261470891535282135009765625">
        <ele>470.79998779296875</ele>
        <time>2022-07-29T14:52:38.000Z</time>
      </trkpt>
      <trkpt lat="42.14718346484005451202392578125" lon="2.5724501721560955047607421875">
        <ele>471.399993896484375</ele>
        <time>2022-07-29T14:52:42.000Z</time>
      </trkpt>
      <trkpt lat="42.14712881483137607574462890625" lon="2.57220952771604061126708984375">
        <ele>472</ele>
        <time>2022-07-29T14:52:48.000Z</time>
      </trkpt>
      <trkpt lat="42.14709813706576824188232421875" lon="2.57208078168332576751708984375">
        <ele>472.79998779296875</ele>
        <time>2022-07-29T14:52:51.000Z</time>
      </trkpt>
      <trkpt lat="42.14706611819565296173095703125" lon="2.571956478059291839599609375">
        <ele>473.600006103515625</ele>
        <time>2022-07-29T14:52:54.000Z</time>
      </trkpt>
      <trkpt lat="42.14705471880733966827392578125" lon="2.57191515527665615081787109375">
        <ele>473.79998779296875</ele>
        <time>2022-07-29T14:52:55.000Z</time>
      </trkpt>
      <trkpt lat="42.14697073213756084442138671875" lon="2.5715841539204120635986328125">
        <ele>475</ele>
        <time>2022-07-29T14:53:03.000Z</time>
      </trkpt>
      <trkpt lat="42.1469421498477458953857421875" lon="2.571446858346462249755859375">
        <ele>475.399993896484375</ele>
        <time>2022-07-29T14:53:06.000Z</time>
      </trkpt>
      <trkpt lat="42.14692245237529277801513671875" lon="2.57135868072509765625">
        <ele>476.20001220703125</ele>
        <time>2022-07-29T14:53:08.000Z</time>
      </trkpt>
      <trkpt lat="42.14690334163606166839599609375" lon="2.57127461023628711700439453125">
        <ele>476.600006103515625</ele>
        <time>2022-07-29T14:53:10.000Z</time>
      </trkpt>
      <trkpt lat="42.14688087813556194305419921875" lon="2.57119305431842803955078125">
        <ele>477.20001220703125</ele>
        <time>2022-07-29T14:53:12.000Z</time>
      </trkpt>
      <trkpt lat="42.14684240520000457763671875" lon="2.57103254087269306182861328125">
        <ele>478.20001220703125</ele>
        <time>2022-07-29T14:53:16.000Z</time>
      </trkpt>
      <trkpt lat="42.1468224562704563140869140625" lon="2.57095324806869029998779296875">
        <ele>478.600006103515625</ele>
        <time>2022-07-29T14:53:18.000Z</time>
      </trkpt>
      <trkpt lat="42.146774344146251678466796875" lon="2.5707587040960788726806640625">
        <ele>479.399993896484375</ele>
        <time>2022-07-29T14:53:23.000Z</time>
      </trkpt>
      <trkpt lat="42.14676487259566783905029296875" lon="2.57071830332279205322265625">
        <ele>479.399993896484375</ele>
        <time>2022-07-29T14:53:24.000Z</time>
      </trkpt>
      <trkpt lat="42.14671474881470203399658203125" lon="2.5705186463892459869384765625">
        <ele>480.399993896484375</ele>
        <time>2022-07-29T14:53:29.000Z</time>
      </trkpt>
      <trkpt lat="42.14667518623173236846923828125" lon="2.5703546963632106781005859375">
        <ele>480.79998779296875</ele>
        <time>2022-07-29T14:53:33.000Z</time>
      </trkpt>
      <trkpt lat="42.14662648737430572509765625" lon="2.5701602362096309661865234375">
        <ele>481.20001220703125</ele>
        <time>2022-07-29T14:53:38.000Z</time>
      </trkpt>
      <trkpt lat="42.14661818929016590118408203125" lon="2.57012017071247100830078125">
        <ele>481.79998779296875</ele>
        <time>2022-07-29T14:53:39.000Z</time>
      </trkpt>
      <trkpt lat="42.14655700139701366424560546875" lon="2.56987466476857662200927734375">
        <ele>482.79998779296875</ele>
        <time>2022-07-29T14:53:45.000Z</time>
      </trkpt>
      <trkpt lat="42.1465465240180492401123046875" lon="2.56983510218560695648193359375">
        <ele>483.20001220703125</ele>
        <time>2022-07-29T14:53:46.000Z</time>
      </trkpt>
      <trkpt lat="42.1465032733976840972900390625" lon="2.56968288682401180267333984375">
        <ele>483.79998779296875</ele>
        <time>2022-07-29T14:53:50.000Z</time>
      </trkpt>
      <trkpt lat="42.14646731503307819366455078125" lon="2.5694824755191802978515625">
        <ele>484.600006103515625</ele>
        <time>2022-07-29T14:53:55.000Z</time>
      </trkpt>
      <trkpt lat="42.1464120782911777496337890625" lon="2.56928541697561740875244140625">
        <ele>484.79998779296875</ele>
        <time>2022-07-29T14:54:00.000Z</time>
      </trkpt>
      <trkpt lat="42.14640319347381591796875" lon="2.56924719549715518951416015625">
        <ele>485</ele>
        <time>2022-07-29T14:54:01.000Z</time>
      </trkpt>
      <trkpt lat="42.1463446877896785736083984375" lon="2.568980567157268524169921875">
        <ele>486</ele>
        <time>2022-07-29T14:54:07.000Z</time>
      </trkpt>
      <trkpt lat="42.1462776325643062591552734375" lon="2.56876766681671142578125">
        <ele>487.20001220703125</ele>
        <time>2022-07-29T14:54:12.000Z</time>
      </trkpt>
      <trkpt lat="42.14625877328217029571533203125" lon="2.56868426688015460968017578125">
        <ele>487.399993896484375</ele>
        <time>2022-07-29T14:54:14.000Z</time>
      </trkpt>
      <trkpt lat="42.14621669612824916839599609375" lon="2.568496428430080413818359375">
        <ele>488.20001220703125</ele>
        <time>2022-07-29T14:54:19.000Z</time>
      </trkpt>
      <trkpt lat="42.14617931284010410308837890625" lon="2.5683661736547946929931640625">
        <ele>488.399993896484375</ele>
        <time>2022-07-29T14:54:22.000Z</time>
      </trkpt>
      <trkpt lat="42.14612801559269428253173828125" lon="2.56815838627517223358154296875">
        <ele>489.399993896484375</ele>
        <time>2022-07-29T14:54:27.000Z</time>
      </trkpt>
      <trkpt lat="42.14610588736832141876220703125" lon="2.56807188503444194793701171875">
        <ele>489.79998779296875</ele>
        <time>2022-07-29T14:54:29.000Z</time>
      </trkpt>
      <trkpt lat="42.14602726511657238006591796875" lon="2.5677687115967273712158203125">
        <ele>490.399993896484375</ele>
        <time>2022-07-29T14:54:36.000Z</time>
      </trkpt>
      <trkpt lat="42.14598284102976322174072265625" lon="2.56758741103112697601318359375">
        <ele>491.399993896484375</ele>
        <time>2022-07-29T14:54:40.000Z</time>
      </trkpt>
      <trkpt lat="42.14597177691757678985595703125" lon="2.567541562020778656005859375">
        <ele>491.600006103515625</ele>
        <time>2022-07-29T14:54:41.000Z</time>
      </trkpt>
      <trkpt lat="42.14587940834462642669677734375" lon="2.5671799667179584503173828125">
        <ele>492.600006103515625</ele>
        <time>2022-07-29T14:54:49.000Z</time>
      </trkpt>
      <trkpt lat="42.1457608044147491455078125" lon="2.56671552546322345733642578125">
        <ele>493.399993896484375</ele>
        <time>2022-07-29T14:54:59.000Z</time>
      </trkpt>
      <trkpt lat="42.145736329257488250732421875" lon="2.56661946885287761688232421875">
        <ele>493.600006103515625</ele>
        <time>2022-07-29T14:55:01.000Z</time>
      </trkpt>
      <trkpt lat="42.145672626793384552001953125" lon="2.56637304089963436126708984375">
        <ele>494.600006103515625</ele>
        <time>2022-07-29T14:55:06.000Z</time>
      </trkpt>
      <trkpt lat="42.14560724794864654541015625" lon="2.56612191908061504364013671875">
        <ele>495.399993896484375</ele>
        <time>2022-07-29T14:55:11.000Z</time>
      </trkpt>
      <trkpt lat="42.14553340338170528411865234375" lon="2.56581983529031276702880859375">
        <ele>495.79998779296875</ele>
        <time>2022-07-29T14:55:17.000Z</time>
      </trkpt>
      <trkpt lat="42.14544086717069149017333984375" lon="2.565437369048595428466796875">
        <ele>496.399993896484375</ele>
        <time>2022-07-29T14:55:25.000Z</time>
      </trkpt>
      <trkpt lat="42.14539493434131145477294921875" lon="2.56524031050503253936767578125">
        <ele>496.79998779296875</ele>
        <time>2022-07-29T14:55:30.000Z</time>
      </trkpt>
      <trkpt lat="42.14537632651627063751220703125" lon="2.56516789086163043975830078125">
        <ele>497.20001220703125</ele>
        <time>2022-07-29T14:55:32.000Z</time>
      </trkpt>
      <trkpt lat="42.14533927850425243377685546875" lon="2.56501131691038608551025390625">
        <ele>498</ele>
        <time>2022-07-29T14:55:36.000Z</time>
      </trkpt>
      <trkpt lat="42.14527959935367107391357421875" lon="2.56477394141256809234619140625">
        <ele>498.79998779296875</ele>
        <time>2022-07-29T14:55:42.000Z</time>
      </trkpt>
      <trkpt lat="42.14525864459574222564697265625" lon="2.564695067703723907470703125">
        <ele>499.20001220703125</ele>
        <time>2022-07-29T14:55:44.000Z</time>
      </trkpt>
      <trkpt lat="42.14520298875868320465087890625" lon="2.56449951790273189544677734375">
        <ele>500.399993896484375</ele>
        <time>2022-07-29T14:55:49.000Z</time>
      </trkpt>
      <trkpt lat="42.14517096988856792449951171875" lon="2.56438015960156917572021484375">
        <ele>500.79998779296875</ele>
        <time>2022-07-29T14:55:52.000Z</time>
      </trkpt>
      <trkpt lat="42.1451199240982532501220703125" lon="2.564169354736804962158203125">
        <ele>501.399993896484375</ele>
        <time>2022-07-29T14:55:57.000Z</time>
      </trkpt>
      <trkpt lat="42.1450860612094402313232421875" lon="2.56404387764632701873779296875">
        <ele>501.79998779296875</ele>
        <time>2022-07-29T14:56:00.000Z</time>
      </trkpt>
      <trkpt lat="42.1450582332909107208251953125" lon="2.56392535753548145294189453125">
        <ele>502.399993896484375</ele>
        <time>2022-07-29T14:56:03.000Z</time>
      </trkpt>
      <trkpt lat="42.145016491413116455078125" lon="2.5637410394847393035888671875">
        <ele>503.20001220703125</ele>
        <time>2022-07-29T14:56:08.000Z</time>
      </trkpt>
      <trkpt lat="42.145009450614452362060546875" lon="2.56370432674884796142578125">
        <ele>503.399993896484375</ele>
        <time>2022-07-29T14:56:09.000Z</time>
      </trkpt>
      <trkpt lat="42.1449998952448368072509765625" lon="2.563494779169559478759765625">
        <ele>504.600006103515625</ele>
        <time>2022-07-29T14:56:15.000Z</time>
      </trkpt>
      <trkpt lat="42.1450391225516796112060546875" lon="2.5633375346660614013671875">
        <ele>506</ele>
        <time>2022-07-29T14:56:20.000Z</time>
      </trkpt>
      <trkpt lat="42.1450652740895748138427734375" lon="2.5632847286760807037353515625">
        <ele>506.600006103515625</ele>
        <time>2022-07-29T14:56:22.000Z</time>
      </trkpt>
      <trkpt lat="42.145097292959690093994140625" lon="2.563239969313144683837890625">
        <ele>507</ele>
        <time>2022-07-29T14:56:24.000Z</time>
      </trkpt>
      <trkpt lat="42.14519896544516086578369140625" lon="2.5631462596356868743896484375">
        <ele>508</ele>
        <time>2022-07-29T14:56:29.000Z</time>
      </trkpt>
      <trkpt lat="42.14529586024582386016845703125" lon="2.56310208700597286224365234375">
        <ele>509</ele>
        <time>2022-07-29T14:56:33.000Z</time>
      </trkpt>
      <trkpt lat="42.1454491652548313140869140625" lon="2.56306671537458896636962890625">
        <ele>510.20001220703125</ele>
        <time>2022-07-29T14:56:39.000Z</time>
      </trkpt>
      <trkpt lat="42.14557715691626071929931640625" lon="2.5630339421331882476806640625">
        <ele>511.20001220703125</ele>
        <time>2022-07-29T14:56:44.000Z</time>
      </trkpt>
      <trkpt lat="42.14568109251558780670166015625" lon="2.56298256106674671173095703125">
        <ele>512</ele>
        <time>2022-07-29T14:56:48.000Z</time>
      </trkpt>
      <trkpt lat="42.14571227319538593292236328125" lon="2.5629578344523906707763671875">
        <ele>512.20001220703125</ele>
        <time>2022-07-29T14:56:49.000Z</time>
      </trkpt>
      <trkpt lat="42.1458853594958782196044921875" lon="2.56276957690715789794921875">
        <ele>513.4000244140625</ele>
        <time>2022-07-29T14:56:55.000Z</time>
      </trkpt>
      <trkpt lat="42.14599843136966228485107421875" lon="2.5625337101519107818603515625">
        <ele>513.79998779296875</ele>
        <time>2022-07-29T14:57:01.000Z</time>
      </trkpt>
      <trkpt lat="42.14605115354061126708984375" lon="2.56232055835425853729248046875">
        <ele>514.4000244140625</ele>
        <time>2022-07-29T14:57:06.000Z</time>
      </trkpt>
      <trkpt lat="42.14606112800538539886474609375" lon="2.56223824806511402130126953125">
        <ele>515.4000244140625</ele>
        <time>2022-07-29T14:57:08.000Z</time>
      </trkpt>
      <trkpt lat="42.1460630558431148529052734375" lon="2.56219851784408092498779296875">
        <ele>515.79998779296875</ele>
        <time>2022-07-29T14:57:09.000Z</time>
      </trkpt>
      <trkpt lat="42.1460332162678241729736328125" lon="2.56191822700202465057373046875">
        <ele>516.5999755859375</ele>
        <time>2022-07-29T14:57:16.000Z</time>
      </trkpt>
      <trkpt lat="42.1460154466331005096435546875" lon="2.56184446625411510467529296875">
        <ele>516.79998779296875</ele>
        <time>2022-07-29T14:57:18.000Z</time>
      </trkpt>
      <trkpt lat="42.14595551602542400360107421875" lon="2.56166894920170307159423828125">
        <ele>517.79998779296875</ele>
        <time>2022-07-29T14:57:23.000Z</time>
      </trkpt>
      <trkpt lat="42.14594294317066669464111328125" lon="2.561638690531253814697265625">
        <ele>518</ele>
        <time>2022-07-29T14:57:24.000Z</time>
      </trkpt>
      <trkpt lat="42.1458927355706691741943359375" lon="2.561558894813060760498046875">
        <ele>518.79998779296875</ele>
        <time>2022-07-29T14:57:27.000Z</time>
      </trkpt>
      <trkpt lat="42.14586063288152217864990234375" lon="2.56150634028017520904541015625">
        <ele>519.20001220703125</ele>
        <time>2022-07-29T14:57:29.000Z</time>
      </trkpt>
      <trkpt lat="42.14578921906650066375732421875" lon="2.56139360368251800537109375">
        <ele>519.79998779296875</ele>
        <time>2022-07-29T14:57:34.000Z</time>
      </trkpt>
      <trkpt lat="42.14575787074863910675048828125" lon="2.56134825758635997772216796875">
        <ele>520.4000244140625</ele>
        <time>2022-07-29T14:57:36.000Z</time>
      </trkpt>
      <trkpt lat="42.1457049809396266937255859375" lon="2.5612841360270977020263671875">
        <ele>521</ele>
        <time>2022-07-29T14:57:39.000Z</time>
      </trkpt>
      <trkpt lat="42.14561370201408863067626953125" lon="2.56117810495197772979736328125">
        <ele>522</ele>
        <time>2022-07-29T14:57:44.000Z</time>
      </trkpt>
      <trkpt lat="42.14560012333095073699951171875" lon="2.56115547381341457366943359375">
        <ele>522.20001220703125</ele>
        <time>2022-07-29T14:57:45.000Z</time>
      </trkpt>
      <trkpt lat="42.14548847638070583343505859375" lon="2.56096352823078632354736328125">
        <ele>523</ele>
        <time>2022-07-29T14:57:52.000Z</time>
      </trkpt>
      <trkpt lat="42.14547355659306049346923828125" lon="2.56093335337936878204345703125">
        <ele>523</ele>
        <time>2022-07-29T14:57:53.000Z</time>
      </trkpt>
      <trkpt lat="42.145427204668521881103515625" lon="2.56074249744415283203125">
        <ele>524</ele>
        <time>2022-07-29T14:57:59.000Z</time>
      </trkpt>
      <trkpt lat="42.14542561210691928863525390625" lon="2.560711987316608428955078125">
        <ele>524.4000244140625</ele>
        <time>2022-07-29T14:58:00.000Z</time>
      </trkpt>
      <trkpt lat="42.145434580743312835693359375" lon="2.56057511083781719207763671875">
        <ele>525.20001220703125</ele>
        <time>2022-07-29T14:58:04.000Z</time>
      </trkpt>
      <trkpt lat="42.145470790565013885498046875" lon="2.56044737063348293304443359375">
        <ele>525.79998779296875</ele>
        <time>2022-07-29T14:58:08.000Z</time>
      </trkpt>
      <trkpt lat="42.14549995958805084228515625" lon="2.56038953550159931182861328125">
        <ele>526.20001220703125</ele>
        <time>2022-07-29T14:58:10.000Z</time>
      </trkpt>
      <trkpt lat="42.1455805934965610504150390625" lon="2.5602905452251434326171875">
        <ele>527.20001220703125</ele>
        <time>2022-07-29T14:58:14.000Z</time>
      </trkpt>
      <trkpt lat="42.1456033922731876373291015625" lon="2.5602729432284832000732421875">
        <ele>527.5999755859375</ele>
        <time>2022-07-29T14:58:15.000Z</time>
      </trkpt>
      <trkpt lat="42.14567338116466999053955078125" lon="2.56022952497005462646484375">
        <ele>528.20001220703125</ele>
        <time>2022-07-29T14:58:18.000Z</time>
      </trkpt>
      <trkpt lat="42.1457867883145809173583984375" lon="2.560176551342010498046875">
        <ele>529.4000244140625</ele>
        <time>2022-07-29T14:58:23.000Z</time>
      </trkpt>
      <trkpt lat="42.14592467062175273895263671875" lon="2.56014193408191204071044921875">
        <ele>530.79998779296875</ele>
        <time>2022-07-29T14:58:29.000Z</time>
      </trkpt>
      <trkpt lat="42.1460375748574733734130859375" lon="2.56011293269693851470947265625">
        <ele>532</ele>
        <time>2022-07-29T14:58:34.000Z</time>
      </trkpt>
      <trkpt lat="42.14616808108985424041748046875" lon="2.5600821711122989654541015625">
        <ele>532.79998779296875</ele>
        <time>2022-07-29T14:58:39.000Z</time>
      </trkpt>
      <trkpt lat="42.14619557373225688934326171875" lon="2.560078315436840057373046875">
        <ele>533</ele>
        <time>2022-07-29T14:58:40.000Z</time>
      </trkpt>
      <trkpt lat="42.1462943963706493377685546875" lon="2.56002743728458881378173828125">
        <ele>534</ele>
        <time>2022-07-29T14:58:44.000Z</time>
      </trkpt>
      <trkpt lat="42.14632130227982997894287109375" lon="2.56001905538141727447509765625">
        <ele>534.20001220703125</ele>
        <time>2022-07-29T14:58:45.000Z</time>
      </trkpt>
      <trkpt lat="42.14650067500770092010498046875" lon="2.55990807898342609405517578125">
        <ele>535.4000244140625</ele>
        <time>2022-07-29T14:58:52.000Z</time>
      </trkpt>
      <trkpt lat="42.1466233022511005401611328125" lon="2.55973658524453639984130859375">
        <ele>536.5999755859375</ele>
        <time>2022-07-29T14:58:58.000Z</time>
      </trkpt>
      <trkpt lat="42.1466390602290630340576171875" lon="2.5597036443650722503662109375">
        <ele>536.79998779296875</ele>
        <time>2022-07-29T14:58:59.000Z</time>
      </trkpt>
      <trkpt lat="42.14672313071787357330322265625" lon="2.55951873958110809326171875">
        <ele>537.79998779296875</ele>
        <time>2022-07-29T14:59:05.000Z</time>
      </trkpt>
      <trkpt lat="42.146730758249759674072265625" lon="2.55948428995907306671142578125">
        <ele>537.79998779296875</ele>
        <time>2022-07-29T14:59:06.000Z</time>
      </trkpt>
      <trkpt lat="42.14675615541636943817138671875" lon="2.55926116369664669036865234375">
        <ele>538.5999755859375</ele>
        <time>2022-07-29T14:59:12.000Z</time>
      </trkpt>
      <trkpt lat="42.1467587538063526153564453125" lon="2.5592215172946453094482421875">
        <ele>538.5999755859375</ele>
        <time>2022-07-29T14:59:13.000Z</time>
      </trkpt>
      <trkpt lat="42.14676571078598499298095703125" lon="2.558948434889316558837890625">
        <ele>539.5999755859375</ele>
        <time>2022-07-29T14:59:20.000Z</time>
      </trkpt>
      <trkpt lat="42.1467668004333972930908203125" lon="2.55890996195375919342041015625">
        <ele>539.79998779296875</ele>
        <time>2022-07-29T14:59:21.000Z</time>
      </trkpt>
      <trkpt lat="42.1467570774257183074951171875" lon="2.5586431659758090972900390625">
        <ele>540.5999755859375</ele>
        <time>2022-07-29T14:59:28.000Z</time>
      </trkpt>
      <trkpt lat="42.1467543952167034149169921875" lon="2.558607123792171478271484375">
        <ele>541</ele>
        <time>2022-07-29T14:59:29.000Z</time>
      </trkpt>
      <trkpt lat="42.1467413194477558135986328125" lon="2.55847661755979061126708984375">
        <ele>541.79998779296875</ele>
        <time>2022-07-29T14:59:33.000Z</time>
      </trkpt>
      <trkpt lat="42.14673721231520175933837890625" lon="2.5583749450743198394775390625">
        <ele>542.4000244140625</ele>
        <time>2022-07-29T14:59:36.000Z</time>
      </trkpt>
      <trkpt lat="42.14673402719199657440185546875" lon="2.558268494904041290283203125">
        <ele>543</ele>
        <time>2022-07-29T14:59:39.000Z</time>
      </trkpt>
      <trkpt lat="42.146712653338909149169921875" lon="2.55804696120321750640869140625">
        <ele>544</ele>
        <time>2022-07-29T14:59:45.000Z</time>
      </trkpt>
      <trkpt lat="42.1466968953609466552734375" lon="2.55771067924797534942626953125">
        <ele>545</ele>
        <time>2022-07-29T14:59:53.000Z</time>
      </trkpt>
      <trkpt lat="42.1466933749616146087646484375" lon="2.55766935646533966064453125">
        <ele>545.20001220703125</ele>
        <time>2022-07-29T14:59:54.000Z</time>
      </trkpt>
      <trkpt lat="42.1466621942818164825439453125" lon="2.55742401815950870513916015625">
        <ele>546.20001220703125</ele>
        <time>2022-07-29T15:00:00.000Z</time>
      </trkpt>
      <trkpt lat="42.146659679710865020751953125" lon="2.55734019912779331207275390625">
        <ele>546.5999755859375</ele>
        <time>2022-07-29T15:00:02.000Z</time>
      </trkpt>
      <trkpt lat="42.14665708132088184356689453125" lon="2.557174153625965118408203125">
        <ele>547.20001220703125</ele>
        <time>2022-07-29T15:00:06.000Z</time>
      </trkpt>
      <trkpt lat="42.146657668054103851318359375" lon="2.5571335852146148681640625">
        <ele>547.5999755859375</ele>
        <time>2022-07-29T15:00:07.000Z</time>
      </trkpt>
      <trkpt lat="42.14665641076862812042236328125" lon="2.55705202929675579071044921875">
        <ele>548</ele>
        <time>2022-07-29T15:00:09.000Z</time>
      </trkpt>
      <trkpt lat="42.14665121398866176605224609375" lon="2.55697466433048248291015625">
        <ele>548.4000244140625</ele>
        <time>2022-07-29T15:00:11.000Z</time>
      </trkpt>
      <trkpt lat="42.146652638912200927734375" lon="2.55675229243934154510498046875">
        <ele>548.79998779296875</ele>
        <time>2022-07-29T15:00:17.000Z</time>
      </trkpt>
      <trkpt lat="42.14665825478732585906982421875" lon="2.556675933301448822021484375">
        <ele>549.4000244140625</ele>
        <time>2022-07-29T15:00:19.000Z</time>
      </trkpt>
      <trkpt lat="42.1466846577823162078857421875" lon="2.556480802595615386962890625">
        <ele>550.4000244140625</ele>
        <time>2022-07-29T15:00:24.000Z</time>
      </trkpt>
      <trkpt lat="42.14669161476194858551025390625" lon="2.55644224584102630615234375">
        <ele>550.5999755859375</ele>
        <time>2022-07-29T15:00:25.000Z</time>
      </trkpt>
      <trkpt lat="42.14672748930752277374267578125" lon="2.55628793500363826751708984375">
        <ele>551.5999755859375</ele>
        <time>2022-07-29T15:00:29.000Z</time>
      </trkpt>
      <trkpt lat="42.1467916108667850494384765625" lon="2.55610889755189418792724609375">
        <ele>552.4000244140625</ele>
        <time>2022-07-29T15:00:34.000Z</time>
      </trkpt>
      <trkpt lat="42.14680812321603298187255859375" lon="2.556076459586620330810546875">
        <ele>552.79998779296875</ele>
        <time>2022-07-29T15:00:35.000Z</time>
      </trkpt>
      <trkpt lat="42.1469034254550933837890625" lon="2.55590504966676235198974609375">
        <ele>553.79998779296875</ele>
        <time>2022-07-29T15:00:41.000Z</time>
      </trkpt>
      <trkpt lat="42.1470232866704463958740234375" lon="2.5557460449635982513427734375">
        <ele>554.79998779296875</ele>
        <time>2022-07-29T15:00:47.000Z</time>
      </trkpt>
      <trkpt lat="42.14712512679398059844970703125" lon="2.5556069053709506988525390625">
        <ele>555.20001220703125</ele>
        <time>2022-07-29T15:00:52.000Z</time>
      </trkpt>
      <trkpt lat="42.1471904218196868896484375" lon="2.555533982813358306884765625">
        <ele>555.79998779296875</ele>
        <time>2022-07-29T15:00:55.000Z</time>
      </trkpt>
      <trkpt lat="42.14731556363403797149658203125" lon="2.5553856231272220611572265625">
        <ele>556.5999755859375</ele>
        <time>2022-07-29T15:01:00.000Z</time>
      </trkpt>
      <trkpt lat="42.14733769185841083526611328125" lon="2.555356957018375396728515625">
        <ele>557</ele>
        <time>2022-07-29T15:01:01.000Z</time>
      </trkpt>
      <trkpt lat="42.14745931327342987060546875" lon="2.555189318954944610595703125">
        <ele>557.79998779296875</ele>
        <time>2022-07-29T15:01:07.000Z</time>
      </trkpt>
      <trkpt lat="42.1474789269268512725830078125" lon="2.5551599822938442230224609375">
        <ele>558.20001220703125</ele>
        <time>2022-07-29T15:01:08.000Z</time>
      </trkpt>
      <trkpt lat="42.14755293913185596466064453125" lon="2.5550355948507785797119140625">
        <ele>559.20001220703125</ele>
        <time>2022-07-29T15:01:12.000Z</time>
      </trkpt>
      <trkpt lat="42.14760021306574344635009765625" lon="2.5549373589456081390380859375">
        <ele>559.5999755859375</ele>
        <time>2022-07-29T15:01:15.000Z</time>
      </trkpt>
      <trkpt lat="42.14765335433185100555419921875" lon="2.55479914136230945587158203125">
        <ele>560.4000244140625</ele>
        <time>2022-07-29T15:01:19.000Z</time>
      </trkpt>
      <trkpt lat="42.147712446749210357666015625" lon="2.55463041365146636962890625">
        <ele>561.5999755859375</ele>
        <time>2022-07-29T15:01:23.000Z</time>
      </trkpt>
      <trkpt lat="42.1477545239031314849853515625" lon="2.55436529405415058135986328125">
        <ele>562.5999755859375</ele>
        <time>2022-07-29T15:01:30.000Z</time>
      </trkpt>
      <trkpt lat="42.14776332490146160125732421875" lon="2.55418575368821620941162109375">
        <ele>563.5999755859375</ele>
        <time>2022-07-29T15:01:35.000Z</time>
      </trkpt>
      <trkpt lat="42.14776667766273021697998046875" lon="2.55410847254097461700439453125">
        <ele>564</ele>
        <time>2022-07-29T15:01:37.000Z</time>
      </trkpt>
      <trkpt lat="42.14775594882667064666748046875" lon="2.553907223045825958251953125">
        <ele>564.79998779296875</ele>
        <time>2022-07-29T15:01:42.000Z</time>
      </trkpt>
      <trkpt lat="42.1477541886270046234130859375" lon="2.55386807955801486968994140625">
        <ele>565</ele>
        <time>2022-07-29T15:01:43.000Z</time>
      </trkpt>
      <trkpt lat="42.1477437950670719146728515625" lon="2.55371636711061000823974609375">
        <ele>565.5999755859375</ele>
        <time>2022-07-29T15:01:47.000Z</time>
      </trkpt>
      <trkpt lat="42.1477313898503780364990234375" lon="2.5535996071994304656982421875">
        <ele>566</ele>
        <time>2022-07-29T15:01:50.000Z</time>
      </trkpt>
      <trkpt lat="42.14772057719528675079345703125" lon="2.55347949452698230743408203125">
        <ele>566.79998779296875</ele>
        <time>2022-07-29T15:01:53.000Z</time>
      </trkpt>
      <trkpt lat="42.14769660495221614837646484375" lon="2.5532442145049571990966796875">
        <ele>567.79998779296875</ele>
        <time>2022-07-29T15:01:59.000Z</time>
      </trkpt>
      <trkpt lat="42.1476797573268413543701171875" lon="2.55303240381181240081787109375">
        <ele>568.79998779296875</ele>
        <time>2022-07-29T15:02:04.000Z</time>
      </trkpt>
      <trkpt lat="42.14766986668109893798828125" lon="2.55286417901515960693359375">
        <ele>569.20001220703125</ele>
        <time>2022-07-29T15:02:08.000Z</time>
      </trkpt>
      <trkpt lat="42.14764262549579143524169921875" lon="2.55270685069262981414794921875">
        <ele>569.79998779296875</ele>
        <time>2022-07-29T15:02:12.000Z</time>
      </trkpt>
      <trkpt lat="42.14762720279395580291748046875" lon="2.552545331418514251708984375">
        <ele>570.4000244140625</ele>
        <time>2022-07-29T15:02:16.000Z</time>
      </trkpt>
      <trkpt lat="42.147618569433689117431640625" lon="2.5524281524121761322021484375">
        <ele>571</ele>
        <time>2022-07-29T15:02:19.000Z</time>
      </trkpt>
      <trkpt lat="42.1476140432059764862060546875" lon="2.55232161842286586761474609375">
        <ele>571.5999755859375</ele>
        <time>2022-07-29T15:02:22.000Z</time>
      </trkpt>
      <trkpt lat="42.1476088464260101318359375" lon="2.55228473804891109466552734375">
        <ele>571.79998779296875</ele>
        <time>2022-07-29T15:02:23.000Z</time>
      </trkpt>
      <trkpt lat="42.14761228300631046295166015625" lon="2.55208843387663364410400390625">
        <ele>572.4000244140625</ele>
        <time>2022-07-29T15:02:28.000Z</time>
      </trkpt>
      <trkpt lat="42.147622592747211456298828125" lon="2.55197091959416866302490234375">
        <ele>572.79998779296875</ele>
        <time>2022-07-29T15:02:31.000Z</time>
      </trkpt>
      <trkpt lat="42.1476485766470432281494140625" lon="2.5518551655113697052001953125">
        <ele>573.5999755859375</ele>
        <time>2022-07-29T15:02:34.000Z</time>
      </trkpt>
      <trkpt lat="42.14768327772617340087890625" lon="2.55175399594008922576904296875">
        <ele>573.79998779296875</ele>
        <time>2022-07-29T15:02:37.000Z</time>
      </trkpt>
      <trkpt lat="42.147736586630344390869140625" lon="2.55161686800420284271240234375">
        <ele>574</ele>
        <time>2022-07-29T15:02:41.000Z</time>
      </trkpt>
      <trkpt lat="42.14779366739094257354736328125" lon="2.55147789604961872100830078125">
        <ele>575.20001220703125</ele>
        <time>2022-07-29T15:02:45.000Z</time>
      </trkpt>
      <trkpt lat="42.147843539714813232421875" lon="2.55134244449436664581298828125">
        <ele>576</ele>
        <time>2022-07-29T15:02:49.000Z</time>
      </trkpt>
      <trkpt lat="42.1478551067411899566650390625" lon="2.55130807869136333465576171875">
        <ele>576.20001220703125</ele>
        <time>2022-07-29T15:02:50.000Z</time>
      </trkpt>
      <trkpt lat="42.14791235513985157012939453125" lon="2.55111294798552989959716796875">
        <ele>577.20001220703125</ele>
        <time>2022-07-29T15:02:55.000Z</time>
      </trkpt>
      <trkpt lat="42.14792123995721340179443359375" lon="2.551074810326099395751953125">
        <ele>577.4000244140625</ele>
        <time>2022-07-29T15:02:56.000Z</time>
      </trkpt>
      <trkpt lat="42.1479540131986141204833984375" lon="2.55091479979455471038818359375">
        <ele>578.20001220703125</ele>
        <time>2022-07-29T15:03:00.000Z</time>
      </trkpt>
      <trkpt lat="42.14798125438392162322998046875" lon="2.550750933587551116943359375">
        <ele>578.79998779296875</ele>
        <time>2022-07-29T15:03:04.000Z</time>
      </trkpt>
      <trkpt lat="42.14799307286739349365234375" lon="2.55066585727035999298095703125">
        <ele>579.20001220703125</ele>
        <time>2022-07-29T15:03:06.000Z</time>
      </trkpt>
      <trkpt lat="42.148031294345855712890625" lon="2.55039428360760211944580078125">
        <ele>580.20001220703125</ele>
        <time>2022-07-29T15:03:12.000Z</time>
      </trkpt>
      <trkpt lat="42.1480385027825832366943359375" lon="2.55034868605434894561767578125">
        <ele>580.4000244140625</ele>
        <time>2022-07-29T15:03:13.000Z</time>
      </trkpt>
      <trkpt lat="42.148084603250026702880859375" lon="2.55001743324100971221923828125">
        <ele>581.20001220703125</ele>
        <time>2022-07-29T15:03:20.000Z</time>
      </trkpt>
      <trkpt lat="42.14810111559927463531494140625" lon="2.54991601221263408660888671875">
        <ele>581.5999755859375</ele>
        <time>2022-07-29T15:03:22.000Z</time>
      </trkpt>
      <trkpt lat="42.14816716499626636505126953125" lon="2.5495176203548908233642578125">
        <ele>582.4000244140625</ele>
        <time>2022-07-29T15:03:30.000Z</time>
      </trkpt>
      <trkpt lat="42.14817546308040618896484375" lon="2.54946791566908359527587890625">
        <ele>582.4000244140625</ele>
        <time>2022-07-29T15:03:31.000Z</time>
      </trkpt>
      <trkpt lat="42.14820454828441143035888671875" lon="2.54906441085040569305419921875">
        <ele>583.20001220703125</ele>
        <time>2022-07-29T15:03:39.000Z</time>
      </trkpt>
      <trkpt lat="42.148202955722808837890625" lon="2.5489667616784572601318359375">
        <ele>583.4000244140625</ele>
        <time>2022-07-29T15:03:41.000Z</time>
      </trkpt>
      <trkpt lat="42.1481967531144618988037109375" lon="2.548727877438068389892578125">
        <ele>584</ele>
        <time>2022-07-29T15:03:46.000Z</time>
      </trkpt>
      <trkpt lat="42.14819650165736675262451171875" lon="2.548683620989322662353515625">
        <ele>584.4000244140625</ele>
        <time>2022-07-29T15:03:47.000Z</time>
      </trkpt>
      <trkpt lat="42.1481866948306560516357421875" lon="2.54836686886847019195556640625">
        <ele>585.5999755859375</ele>
        <time>2022-07-29T15:03:54.000Z</time>
      </trkpt>
      <trkpt lat="42.14818418025970458984375" lon="2.548320181667804718017578125">
        <ele>585.79998779296875</ele>
        <time>2022-07-29T15:03:55.000Z</time>
      </trkpt>
      <trkpt lat="42.148181833326816558837890625" lon="2.54818246699869632720947265625">
        <ele>586.5999755859375</ele>
        <time>2022-07-29T15:03:58.000Z</time>
      </trkpt>
      <trkpt lat="42.14816750027239322662353515625" lon="2.54796939902007579803466796875">
        <ele>587.5999755859375</ele>
        <time>2022-07-29T15:04:03.000Z</time>
      </trkpt>
      <trkpt lat="42.1481454558670520782470703125" lon="2.5477855838835239410400390625">
        <ele>588.5999755859375</ele>
        <time>2022-07-29T15:04:08.000Z</time>
      </trkpt>
      <trkpt lat="42.14812039397656917572021484375" lon="2.547677122056484222412109375">
        <ele>589.5999755859375</ele>
        <time>2022-07-29T15:04:11.000Z</time>
      </trkpt>
      <trkpt lat="42.14811184443533420562744140625" lon="2.54763923585414886474609375">
        <ele>589.79998779296875</ele>
        <time>2022-07-29T15:04:12.000Z</time>
      </trkpt>
      <trkpt lat="42.14810212142765522003173828125" lon="2.5476010143756866455078125">
        <ele>590</ele>
        <time>2022-07-29T15:04:13.000Z</time>
      </trkpt>
      <trkpt lat="42.148071862757205963134765625" lon="2.5474791415035724639892578125">
        <ele>590.5999755859375</ele>
        <time>2022-07-29T15:04:16.000Z</time>
      </trkpt>
      <trkpt lat="42.1480358205735683441162109375" lon="2.5473524071276187896728515625">
        <ele>591</ele>
        <time>2022-07-29T15:04:19.000Z</time>
      </trkpt>
      <trkpt lat="42.14799382723867893218994140625" lon="2.547213770449161529541015625">
        <ele>591.79998779296875</ele>
        <time>2022-07-29T15:04:22.000Z</time>
      </trkpt>
      <trkpt lat="42.1479459665715694427490234375" lon="2.5470402650535106658935546875">
        <ele>593</ele>
        <time>2022-07-29T15:04:26.000Z</time>
      </trkpt>
      <trkpt lat="42.14793481864035129547119140625" lon="2.5469990260899066925048828125">
        <ele>593.20001220703125</ele>
        <time>2022-07-29T15:04:27.000Z</time>
      </trkpt>
      <trkpt lat="42.14788871817290782928466796875" lon="2.54683432169258594512939453125">
        <ele>593.79998779296875</ele>
        <time>2022-07-29T15:04:31.000Z</time>
      </trkpt>
      <trkpt lat="42.14783473871648311614990234375" lon="2.54667305387556552886962890625">
        <ele>594.5999755859375</ele>
        <time>2022-07-29T15:04:35.000Z</time>
      </trkpt>
      <trkpt lat="42.147822082042694091796875" lon="2.5466342456638813018798828125">
        <ele>594.79998779296875</ele>
        <time>2022-07-29T15:04:36.000Z</time>
      </trkpt>
      <trkpt lat="42.1477712877094745635986328125" lon="2.54649820737540721893310546875">
        <ele>596</ele>
        <time>2022-07-29T15:04:40.000Z</time>
      </trkpt>
      <trkpt lat="42.1477478183805942535400390625" lon="2.54643534310162067413330078125">
        <ele>596.5999755859375</ele>
        <time>2022-07-29T15:04:42.000Z</time>
      </trkpt>
      <trkpt lat="42.14771923609077930450439453125" lon="2.54637247882783412933349609375">
        <ele>597.20001220703125</ele>
        <time>2022-07-29T15:04:44.000Z</time>
      </trkpt>
      <trkpt lat="42.14765452779829502105712890625" lon="2.5462429784238338470458984375">
        <ele>598.20001220703125</ele>
        <time>2022-07-29T15:04:48.000Z</time>
      </trkpt>
      <trkpt lat="42.14764061383903026580810546875" lon="2.54620852880179882049560546875">
        <ele>598.4000244140625</ele>
        <time>2022-07-29T15:04:49.000Z</time>
      </trkpt>
      <trkpt lat="42.14757909066975116729736328125" lon="2.54605379886925220489501953125">
        <ele>599.20001220703125</ele>
        <time>2022-07-29T15:04:53.000Z</time>
      </trkpt>
      <trkpt lat="42.147527374327182769775390625" lon="2.54592589102685451507568359375">
        <ele>599.5999755859375</ele>
        <time>2022-07-29T15:04:56.000Z</time>
      </trkpt>
      <trkpt lat="42.14747850783169269561767578125" lon="2.54580016247928142547607421875">
        <ele>600.4000244140625</ele>
        <time>2022-07-29T15:04:59.000Z</time>
      </trkpt>
      <trkpt lat="42.1474038250744342803955078125" lon="2.54559329710900783538818359375">
        <ele>601.4000244140625</ele>
        <time>2022-07-29T15:05:04.000Z</time>
      </trkpt>
      <trkpt lat="42.14734800159931182861328125" lon="2.54536782391369342803955078125">
        <ele>602.5999755859375</ele>
        <time>2022-07-29T15:05:09.000Z</time>
      </trkpt>
      <trkpt lat="42.14733517728745937347412109375" lon="2.54527193494141101837158203125">
        <ele>603</ele>
        <time>2022-07-29T15:05:11.000Z</time>
      </trkpt>
      <trkpt lat="42.14733551256358623504638671875" lon="2.54511636681854724884033203125">
        <ele>603.4000244140625</ele>
        <time>2022-07-29T15:05:14.000Z</time>
      </trkpt>
      <trkpt lat="42.1473666094243526458740234375" lon="2.54491486586630344390869140625">
        <ele>603.5999755859375</ele>
        <time>2022-07-29T15:05:18.000Z</time>
      </trkpt>
      <trkpt lat="42.1473957784473896026611328125" lon="2.5448160432279109954833984375">
        <ele>603.5999755859375</ele>
        <time>2022-07-29T15:05:20.000Z</time>
      </trkpt>
      <trkpt lat="42.14748211205005645751953125" lon="2.54465368576347827911376953125">
        <ele>604.20001220703125</ele>
        <time>2022-07-29T15:05:24.000Z</time>
      </trkpt>
      <trkpt lat="42.147596776485443115234375" lon="2.54451446235179901123046875">
        <ele>604.4000244140625</ele>
        <time>2022-07-29T15:05:28.000Z</time>
      </trkpt>
      <trkpt lat="42.1476321481168270111083984375" lon="2.54448738880455493927001953125">
        <ele>604.4000244140625</ele>
        <time>2022-07-29T15:05:29.000Z</time>
      </trkpt>
      <trkpt lat="42.1476686932146549224853515625" lon="2.5444616563618183135986328125">
        <ele>604.4000244140625</ele>
        <time>2022-07-29T15:05:30.000Z</time>
      </trkpt>
      <trkpt lat="42.147983349859714508056640625" lon="2.54423911683261394500732421875">
        <ele>604.5999755859375</ele>
        <time>2022-07-29T15:05:38.000Z</time>
      </trkpt>
      <trkpt lat="42.148272693157196044921875" lon="2.54411187954246997833251953125">
        <ele>604.20001220703125</ele>
        <time>2022-07-29T15:05:44.000Z</time>
      </trkpt>
      <trkpt lat="42.14832558296620845794677734375" lon="2.5441060960292816162109375">
        <ele>604.20001220703125</ele>
        <time>2022-07-29T15:05:45.000Z</time>
      </trkpt>
      <trkpt lat="42.1484736911952495574951171875" lon="2.54408136941492557525634765625">
        <ele>604</ele>
        <time>2022-07-29T15:05:48.000Z</time>
      </trkpt>
      <trkpt lat="42.14854560792446136474609375" lon="2.5440197624266147613525390625">
        <ele>603.79998779296875</ele>
        <time>2022-07-29T15:05:50.000Z</time>
      </trkpt>
      <trkpt lat="42.148629091680049896240234375" lon="2.5438819639384746551513671875">
        <ele>603.4000244140625</ele>
        <time>2022-07-29T15:05:54.000Z</time>
      </trkpt>
      <trkpt lat="42.148708887398242950439453125" lon="2.5437649525701999664306640625">
        <ele>603.20001220703125</ele>
        <time>2022-07-29T15:07:33.000Z</time>
      </trkpt>
      <trkpt lat="42.148834280669689178466796875" lon="2.543647103011608123779296875">
        <ele>603.20001220703125</ele>
        <time>2022-07-29T15:07:38.000Z</time>
      </trkpt>
      <trkpt lat="42.149066962301731109619140625" lon="2.5434910319745540618896484375">
        <ele>603.20001220703125</ele>
        <time>2022-07-29T15:07:44.000Z</time>
      </trkpt>
      <trkpt lat="42.1493603289127349853515625" lon="2.54329447634518146514892578125">
        <ele>602.5999755859375</ele>
        <time>2022-07-29T15:07:51.000Z</time>
      </trkpt>
      <trkpt lat="42.14953525923192501068115234375" lon="2.54314796067774295806884765625">
        <ele>602.20001220703125</ele>
        <time>2022-07-29T15:07:55.000Z</time>
      </trkpt>
      <trkpt lat="42.14961673133075237274169921875" lon="2.54306070506572723388671875">
        <ele>602</ele>
        <time>2022-07-29T15:07:57.000Z</time>
      </trkpt>
      <trkpt lat="42.1496531926095485687255859375" lon="2.5430144369602203369140625">
        <ele>602</ele>
        <time>2022-07-29T15:07:58.000Z</time>
      </trkpt>
      <trkpt lat="42.14980649761855602264404296875" lon="2.54273959435522556304931640625">
        <ele>601.5999755859375</ele>
        <time>2022-07-29T15:08:03.000Z</time>
      </trkpt>
      <trkpt lat="42.14982996694743633270263671875" lon="2.542672455310821533203125">
        <ele>601.4000244140625</ele>
        <time>2022-07-29T15:08:04.000Z</time>
      </trkpt>
      <trkpt lat="42.149884700775146484375" lon="2.54238587804138660430908203125">
        <ele>601.20001220703125</ele>
        <time>2022-07-29T15:08:08.000Z</time>
      </trkpt>
      <trkpt lat="42.14989014901220798492431640625" lon="2.54231295548379421234130859375">
        <ele>601.20001220703125</ele>
        <time>2022-07-29T15:08:09.000Z</time>
      </trkpt>
      <trkpt lat="42.14988134801387786865234375" lon="2.5419876538217067718505859375">
        <ele>600.79998779296875</ele>
        <time>2022-07-29T15:08:13.000Z</time>
      </trkpt>
      <trkpt lat="42.14978369884192943572998046875" lon="2.541473172605037689208984375">
        <ele>600.5999755859375</ele>
        <time>2022-07-29T15:08:19.000Z</time>
      </trkpt>
      <trkpt lat="42.1496102772653102874755859375" lon="2.54073112271726131439208984375">
        <ele>600.5999755859375</ele>
        <time>2022-07-29T15:08:27.000Z</time>
      </trkpt>
      <trkpt lat="42.1494057588279247283935546875" lon="2.539968788623809814453125">
        <ele>600.4000244140625</ele>
        <time>2022-07-29T15:08:35.000Z</time>
      </trkpt>
      <trkpt lat="42.14918204583227634429931640625" lon="2.5392105616629123687744140625">
        <ele>599.79998779296875</ele>
        <time>2022-07-29T15:08:43.000Z</time>
      </trkpt>
      <trkpt lat="42.14915312826633453369140625" lon="2.539112828671932220458984375">
        <ele>599.79998779296875</ele>
        <time>2022-07-29T15:08:44.000Z</time>
      </trkpt>
      <trkpt lat="42.14894659817218780517578125" lon="2.53841738216578960418701171875">
        <ele>598.5999755859375</ele>
        <time>2022-07-29T15:08:51.000Z</time>
      </trkpt>
      <trkpt lat="42.1488052792847156524658203125" lon="2.53791731782257556915283203125">
        <ele>597.5999755859375</ele>
        <time>2022-07-29T15:08:56.000Z</time>
      </trkpt>
      <trkpt lat="42.1487774513661861419677734375" lon="2.53781790845096111297607421875">
        <ele>597.4000244140625</ele>
        <time>2022-07-29T15:08:57.000Z</time>
      </trkpt>
      <trkpt lat="42.14862012304365634918212890625" lon="2.53711047582328319549560546875">
        <ele>596.5999755859375</ele>
        <time>2022-07-29T15:09:04.000Z</time>
      </trkpt>
      <trkpt lat="42.14856396429240703582763671875" lon="2.536397092044353485107421875">
        <ele>596.5999755859375</ele>
        <time>2022-07-29T15:09:11.000Z</time>
      </trkpt>
      <trkpt lat="42.14859522879123687744140625" lon="2.5357810221612453460693359375">
        <ele>596.5999755859375</ele>
        <time>2022-07-29T15:09:17.000Z</time>
      </trkpt>
      <trkpt lat="42.1486741863191127777099609375" lon="2.53505758009850978851318359375">
        <ele>596.79998779296875</ele>
        <time>2022-07-29T15:09:24.000Z</time>
      </trkpt>
      <trkpt lat="42.1487097255885601043701171875" lon="2.53474493511021137237548828125">
        <ele>596.79998779296875</ele>
        <time>2022-07-29T15:09:27.000Z</time>
      </trkpt>
      <trkpt lat="42.14875205419957637786865234375" lon="2.53421436063945293426513671875">
        <ele>597</ele>
        <time>2022-07-29T15:09:32.000Z</time>
      </trkpt>
      <trkpt lat="42.1487405709922313690185546875" lon="2.53410791046917438507080078125">
        <ele>597</ele>
        <time>2022-07-29T15:09:33.000Z</time>
      </trkpt>
      <trkpt lat="42.14863940142095088958740234375" lon="2.53381605260074138641357421875">
        <ele>597</ele>
        <time>2022-07-29T15:09:36.000Z</time>
      </trkpt>
      <trkpt lat="42.1485940553247928619384765625" lon="2.53372653387486934661865234375">
        <ele>597</ele>
        <time>2022-07-29T15:09:37.000Z</time>
      </trkpt>
      <trkpt lat="42.148472182452678680419921875" lon="2.53344087861478328704833984375">
        <ele>596.79998779296875</ele>
        <time>2022-07-29T15:09:40.000Z</time>
      </trkpt>
      <trkpt lat="42.1484470367431640625" lon="2.53333568572998046875">
        <ele>596.79998779296875</ele>
        <time>2022-07-29T15:09:41.000Z</time>
      </trkpt>
      <trkpt lat="42.14842013083398342132568359375" lon="2.53300845623016357421875">
        <ele>596.5999755859375</ele>
        <time>2022-07-29T15:09:44.000Z</time>
      </trkpt>
      <trkpt lat="42.148415856063365936279296875" lon="2.53289915621280670166015625">
        <ele>596.4000244140625</ele>
        <time>2022-07-29T15:09:45.000Z</time>
      </trkpt>
      <trkpt lat="42.14837838895618915557861328125" lon="2.53212776966392993927001953125">
        <ele>596.20001220703125</ele>
        <time>2022-07-29T15:09:52.000Z</time>
      </trkpt>
      <trkpt lat="42.1483519859611988067626953125" lon="2.53157925792038440704345703125">
        <ele>596.20001220703125</ele>
        <time>2022-07-29T15:09:57.000Z</time>
      </trkpt>
      <trkpt lat="42.14832658879458904266357421875" lon="2.53085665404796600341796875">
        <ele>596.5999755859375</ele>
        <time>2022-07-29T15:10:04.000Z</time>
      </trkpt>
      <trkpt lat="42.14841627515852451324462890625" lon="2.53058734349906444549560546875">
        <ele>596.5999755859375</ele>
        <time>2022-07-29T15:10:07.000Z</time>
      </trkpt>
      <trkpt lat="42.14860822074115276336669921875" lon="2.53041635267436504364013671875">
        <ele>596.20001220703125</ele>
        <time>2022-07-29T15:10:10.000Z</time>
      </trkpt>
      <trkpt lat="42.14867770671844482421875" lon="2.53036555834114551544189453125">
        <ele>596</ele>
        <time>2022-07-29T15:10:11.000Z</time>
      </trkpt>
      <trkpt lat="42.149168550968170166015625" lon="2.53002827055752277374267578125">
        <ele>595</ele>
        <time>2022-07-29T15:10:18.000Z</time>
      </trkpt>
      <trkpt lat="42.14955470524728298187255859375" lon="2.52968628890812397003173828125">
        <ele>595</ele>
        <time>2022-07-29T15:10:24.000Z</time>
      </trkpt>
      <trkpt lat="42.14973022229969501495361328125" lon="2.529353611171245574951171875">
        <ele>594.79998779296875</ele>
        <time>2022-07-29T15:10:28.000Z</time>
      </trkpt>
      <trkpt lat="42.14979761280119419097900390625" lon="2.52915470860898494720458984375">
        <ele>594.79998779296875</ele>
        <time>2022-07-29T15:10:30.000Z</time>
      </trkpt>
      <trkpt lat="42.149927951395511627197265625" lon="2.52875204198062419891357421875">
        <ele>594.79998779296875</ele>
        <time>2022-07-29T15:10:34.000Z</time>
      </trkpt>
      <trkpt lat="42.15005426667630672454833984375" lon="2.52845850773155689239501953125">
        <ele>593.5999755859375</ele>
        <time>2022-07-29T15:10:37.000Z</time>
      </trkpt>
      <trkpt lat="42.15016457252204418182373046875" lon="2.5282607786357402801513671875">
        <ele>593</ele>
        <time>2022-07-29T15:10:39.000Z</time>
      </trkpt>
      <trkpt lat="42.1503460407257080078125" lon="2.52793983556330204010009765625">
        <ele>592.5999755859375</ele>
        <time>2022-07-29T15:10:42.000Z</time>
      </trkpt>
      <trkpt lat="42.150544188916683197021484375" lon="2.527593076229095458984375">
        <ele>591.5999755859375</ele>
        <time>2022-07-29T15:10:45.000Z</time>
      </trkpt>
      <trkpt lat="42.1506144292652606964111328125" lon="2.527469694614410400390625">
        <ele>591</ele>
        <time>2022-07-29T15:10:46.000Z</time>
      </trkpt>
      <trkpt lat="42.1507616154849529266357421875" lon="2.5272137112915515899658203125">
        <ele>590</ele>
        <time>2022-07-29T15:10:48.000Z</time>
      </trkpt>
      <trkpt lat="42.15091223828494548797607421875" lon="2.5269458256661891937255859375">
        <ele>588</ele>
        <time>2022-07-29T15:10:50.000Z</time>
      </trkpt>
      <trkpt lat="42.15098868124186992645263671875" lon="2.52680794335901737213134765625">
        <ele>587.20001220703125</ele>
        <time>2022-07-29T15:10:51.000Z</time>
      </trkpt>
      <trkpt lat="42.151064537465572357177734375" lon="2.526670731604099273681640625">
        <ele>586</ele>
        <time>2022-07-29T15:10:52.000Z</time>
      </trkpt>
      <trkpt lat="42.15121666900813579559326171875" lon="2.52638851292431354522705078125">
        <ele>584.20001220703125</ele>
        <time>2022-07-29T15:10:54.000Z</time>
      </trkpt>
      <trkpt lat="42.15129026211798191070556640625" lon="2.526242919266223907470703125">
        <ele>583.20001220703125</ele>
        <time>2022-07-29T15:10:55.000Z</time>
      </trkpt>
      <trkpt lat="42.1513612568378448486328125" lon="2.5260902009904384613037109375">
        <ele>581.79998779296875</ele>
        <time>2022-07-29T15:10:56.000Z</time>
      </trkpt>
      <trkpt lat="42.1514304913580417633056640625" lon="2.5259332917630672454833984375">
        <ele>580.4000244140625</ele>
        <time>2022-07-29T15:10:57.000Z</time>
      </trkpt>
      <trkpt lat="42.151500396430492401123046875" lon="2.5257747061550617218017578125">
        <ele>579.20001220703125</ele>
        <time>2022-07-29T15:10:58.000Z</time>
      </trkpt>
      <trkpt lat="42.15164221823215484619140625" lon="2.52545845694839954376220703125">
        <ele>576.4000244140625</ele>
        <time>2022-07-29T15:11:00.000Z</time>
      </trkpt>
      <trkpt lat="42.1517845429480075836181640625" lon="2.52514949999749660491943359375">
        <ele>575</ele>
        <time>2022-07-29T15:11:02.000Z</time>
      </trkpt>
      <trkpt lat="42.15186350047588348388671875" lon="2.52500667236745357513427734375">
        <ele>574.20001220703125</ele>
        <time>2022-07-29T15:11:03.000Z</time>
      </trkpt>
      <trkpt lat="42.1519521810114383697509765625" lon="2.524876333773136138916015625">
        <ele>573.5999755859375</ele>
        <time>2022-07-29T15:11:04.000Z</time>
      </trkpt>
      <trkpt lat="42.152048237621784210205078125" lon="2.52475596964359283447265625">
        <ele>572.5999755859375</ele>
        <time>2022-07-29T15:11:05.000Z</time>
      </trkpt>
      <trkpt lat="42.15214915573596954345703125" lon="2.52464356832206249237060546875">
        <ele>571.4000244140625</ele>
        <time>2022-07-29T15:11:06.000Z</time>
      </trkpt>
      <trkpt lat="42.15225242078304290771484375" lon="2.52453896217048168182373046875">
        <ele>570.5999755859375</ele>
        <time>2022-07-29T15:11:07.000Z</time>
      </trkpt>
      <trkpt lat="42.152356021106243133544921875" lon="2.52443946897983551025390625">
        <ele>569.79998779296875</ele>
        <time>2022-07-29T15:11:08.000Z</time>
      </trkpt>
      <trkpt lat="42.15256012044847011566162109375" lon="2.5242478586733341217041015625">
        <ele>568.4000244140625</ele>
        <time>2022-07-29T15:11:10.000Z</time>
      </trkpt>
      <trkpt lat="42.1529258228838443756103515625" lon="2.523854412138462066650390625">
        <ele>567.4000244140625</ele>
        <time>2022-07-29T15:11:14.000Z</time>
      </trkpt>
      <trkpt lat="42.1531082130968570709228515625" lon="2.52348217181861400604248046875">
        <ele>567.4000244140625</ele>
        <time>2022-07-29T15:11:17.000Z</time>
      </trkpt>
      <trkpt lat="42.153157331049442291259765625" lon="2.52306072972714900970458984375">
        <ele>567.4000244140625</ele>
        <time>2022-07-29T15:11:20.000Z</time>
      </trkpt>
      <trkpt lat="42.15308130718767642974853515625" lon="2.52265336923301219940185546875">
        <ele>568</ele>
        <time>2022-07-29T15:11:23.000Z</time>
      </trkpt>
      <trkpt lat="42.153036631643772125244140625" lon="2.5225252099335193634033203125">
        <ele>568.20001220703125</ele>
        <time>2022-07-29T15:11:24.000Z</time>
      </trkpt>
      <trkpt lat="42.152864970266819000244140625" lon="2.5219850800931453704833984375">
        <ele>568.4000244140625</ele>
        <time>2022-07-29T15:11:28.000Z</time>
      </trkpt>
      <trkpt lat="42.15281459502875804901123046875" lon="2.52168643288314342498779296875">
        <ele>568.4000244140625</ele>
        <time>2022-07-29T15:11:30.000Z</time>
      </trkpt>
      <trkpt lat="42.15279498137533664703369140625" lon="2.52137043513357639312744140625">
        <ele>568.20001220703125</ele>
        <time>2022-07-29T15:11:32.000Z</time>
      </trkpt>
      <trkpt lat="42.15278877876698970794677734375" lon="2.52104337327182292938232421875">
        <ele>567.5999755859375</ele>
        <time>2022-07-29T15:11:34.000Z</time>
      </trkpt>
      <trkpt lat="42.15278542600572109222412109375" lon="2.52087607048451900482177734375">
        <ele>567.20001220703125</ele>
        <time>2022-07-29T15:11:35.000Z</time>
      </trkpt>
      <trkpt lat="42.15278006158769130706787109375" lon="2.520535849034786224365234375">
        <ele>565.79998779296875</ele>
        <time>2022-07-29T15:11:37.000Z</time>
      </trkpt>
      <trkpt lat="42.1527793072164058685302734375" lon="2.52018749713897705078125">
        <ele>564.4000244140625</ele>
        <time>2022-07-29T15:11:39.000Z</time>
      </trkpt>
      <trkpt lat="42.152783162891864776611328125" lon="2.51983419992029666900634765625">
        <ele>563</ele>
        <time>2022-07-29T15:11:41.000Z</time>
      </trkpt>
      <trkpt lat="42.1528088115155696868896484375" lon="2.5194822438061237335205078125">
        <ele>561.4000244140625</ele>
        <time>2022-07-29T15:11:43.000Z</time>
      </trkpt>
      <trkpt lat="42.152832783758640289306640625" lon="2.5193105824291706085205078125">
        <ele>560.4000244140625</ele>
        <time>2022-07-29T15:11:44.000Z</time>
      </trkpt>
      <trkpt lat="42.15286656282842159271240234375" lon="2.519144453108310699462890625">
        <ele>559.4000244140625</ele>
        <time>2022-07-29T15:11:45.000Z</time>
      </trkpt>
      <trkpt lat="42.15291031636297702789306640625" lon="2.5189818441867828369140625">
        <ele>558.4000244140625</ele>
        <time>2022-07-29T15:11:46.000Z</time>
      </trkpt>
      <trkpt lat="42.15296295471489429473876953125" lon="2.51882267184555530548095703125">
        <ele>557.4000244140625</ele>
        <time>2022-07-29T15:11:47.000Z</time>
      </trkpt>
      <trkpt lat="42.1530897729098796844482421875" lon="2.51852025277912616729736328125">
        <ele>555.5999755859375</ele>
        <time>2022-07-29T15:11:49.000Z</time>
      </trkpt>
      <trkpt lat="42.15322983451187610626220703125" lon="2.51823015511035919189453125">
        <ele>554.20001220703125</ele>
        <time>2022-07-29T15:11:51.000Z</time>
      </trkpt>
      <trkpt lat="42.15337090194225311279296875" lon="2.51794852316379547119140625">
        <ele>553</ele>
        <time>2022-07-29T15:11:53.000Z</time>
      </trkpt>
      <trkpt lat="42.1535092033445835113525390625" lon="2.51767971552908420562744140625">
        <ele>552</ele>
        <time>2022-07-29T15:11:55.000Z</time>
      </trkpt>
      <trkpt lat="42.15370844118297100067138671875" lon="2.5172959081828594207763671875">
        <ele>550.79998779296875</ele>
        <time>2022-07-29T15:11:58.000Z</time>
      </trkpt>
      <trkpt lat="42.15403583832085132598876953125" lon="2.51667388714849948883056640625">
        <ele>550.20001220703125</ele>
        <time>2022-07-29T15:12:03.000Z</time>
      </trkpt>
      <trkpt lat="42.15418352745473384857177734375" lon="2.5164365954697132110595703125">
        <ele>550</ele>
        <time>2022-07-29T15:12:05.000Z</time>
      </trkpt>
      <trkpt lat="42.154540680348873138427734375" lon="2.51602898351848125457763671875">
        <ele>549.79998779296875</ele>
        <time>2022-07-29T15:12:09.000Z</time>
      </trkpt>
      <trkpt lat="42.15463983826339244842529296875" lon="2.51594164408743381500244140625">
        <ele>549.4000244140625</ele>
        <time>2022-07-29T15:12:10.000Z</time>
      </trkpt>
      <trkpt lat="42.1548499725759029388427734375" lon="2.51579747535288333892822265625">
        <ele>548.4000244140625</ele>
        <time>2022-07-29T15:12:12.000Z</time>
      </trkpt>
      <trkpt lat="42.15496069751679897308349609375" lon="2.51573880203068256378173828125">
        <ele>547.5999755859375</ele>
        <time>2022-07-29T15:12:13.000Z</time>
      </trkpt>
      <trkpt lat="42.15507318265736103057861328125" lon="2.515685744583606719970703125">
        <ele>547</ele>
        <time>2022-07-29T15:12:14.000Z</time>
      </trkpt>
      <trkpt lat="42.15530167333781719207763671875" lon="2.5155960582196712493896484375">
        <ele>546</ele>
        <time>2022-07-29T15:12:16.000Z</time>
      </trkpt>
      <trkpt lat="42.15553586371243000030517578125" lon="2.51553311012685298919677734375">
        <ele>545</ele>
        <time>2022-07-29T15:12:18.000Z</time>
      </trkpt>
      <trkpt lat="42.15565253980457782745361328125" lon="2.51550729386508464813232421875">
        <ele>544.4000244140625</ele>
        <time>2022-07-29T15:12:19.000Z</time>
      </trkpt>
      <trkpt lat="42.15599938295781612396240234375" lon="2.51544828526675701141357421875">
        <ele>542.79998779296875</ele>
        <time>2022-07-29T15:12:22.000Z</time>
      </trkpt>
      <trkpt lat="42.15622887946665287017822265625" lon="2.51541241072118282318115234375">
        <ele>541.79998779296875</ele>
        <time>2022-07-29T15:12:24.000Z</time>
      </trkpt>
      <trkpt lat="42.1563446335494518280029296875" lon="2.5153984129428863525390625">
        <ele>541.4000244140625</ele>
        <time>2022-07-29T15:12:25.000Z</time>
      </trkpt>
      <trkpt lat="42.15657739900052547454833984375" lon="2.51536957919597625732421875">
        <ele>540.4000244140625</ele>
        <time>2022-07-29T15:12:27.000Z</time>
      </trkpt>
      <trkpt lat="42.15692793019115924835205078125" lon="2.51531300134956836700439453125">
        <ele>539.20001220703125</ele>
        <time>2022-07-29T15:12:30.000Z</time>
      </trkpt>
      <trkpt lat="42.15704209171235561370849609375" lon="2.51527436077594757080078125">
        <ele>538.5999755859375</ele>
        <time>2022-07-29T15:12:31.000Z</time>
      </trkpt>
      <trkpt lat="42.15715189464390277862548828125" lon="2.5152205489575862884521484375">
        <ele>538</ele>
        <time>2022-07-29T15:12:32.000Z</time>
      </trkpt>
      <trkpt lat="42.15736764483153820037841796875" lon="2.5150703452527523040771484375">
        <ele>536.5999755859375</ele>
        <time>2022-07-29T15:12:34.000Z</time>
      </trkpt>
      <trkpt lat="42.1574748493731021881103515625" lon="2.51497470773756504058837890625">
        <ele>536</ele>
        <time>2022-07-29T15:12:35.000Z</time>
      </trkpt>
      <trkpt lat="42.15757836587727069854736328125" lon="2.51487764529883861541748046875">
        <ele>535.4000244140625</ele>
        <time>2022-07-29T15:12:36.000Z</time>
      </trkpt>
      <trkpt lat="42.157783471047878265380859375" lon="2.51468184404075145721435546875">
        <ele>534</ele>
        <time>2022-07-29T15:12:38.000Z</time>
      </trkpt>
      <trkpt lat="42.157992683351039886474609375" lon="2.514494843780994415283203125">
        <ele>532.4000244140625</ele>
        <time>2022-07-29T15:12:40.000Z</time>
      </trkpt>
      <trkpt lat="42.15820063836872577667236328125" lon="2.5143085978925228118896484375">
        <ele>530.79998779296875</ele>
        <time>2022-07-29T15:12:42.000Z</time>
      </trkpt>
      <trkpt lat="42.1583043225109577178955078125" lon="2.5142133794724941253662109375">
        <ele>529.79998779296875</ele>
        <time>2022-07-29T15:12:43.000Z</time>
      </trkpt>
      <trkpt lat="42.15840783901512622833251953125" lon="2.514117658138275146484375">
        <ele>529</ele>
        <time>2022-07-29T15:12:44.000Z</time>
      </trkpt>
      <trkpt lat="42.15871922671794891357421875" lon="2.5138291530311107635498046875">
        <ele>527.79998779296875</ele>
        <time>2022-07-29T15:12:47.000Z</time>
      </trkpt>
      <trkpt lat="42.15903178788721561431884765625" lon="2.513542659580707550048828125">
        <ele>526.5999755859375</ele>
        <time>2022-07-29T15:12:50.000Z</time>
      </trkpt>
      <trkpt lat="42.15934694744646549224853515625" lon="2.5132538191974163055419921875">
        <ele>525.4000244140625</ele>
        <time>2022-07-29T15:12:53.000Z</time>
      </trkpt>
      <trkpt lat="42.15987148694694042205810546875" lon="2.5127685070037841796875">
        <ele>524.5999755859375</ele>
        <time>2022-07-29T15:12:58.000Z</time>
      </trkpt>
      <trkpt lat="42.15997609309852123260498046875" lon="2.512671612203121185302734375">
        <ele>524.20001220703125</ele>
        <time>2022-07-29T15:12:59.000Z</time>
      </trkpt>
      <trkpt lat="42.1601848863065242767333984375" lon="2.5124783255159854888916015625">
        <ele>523</ele>
        <time>2022-07-29T15:13:01.000Z</time>
      </trkpt>
      <trkpt lat="42.1603927575051784515380859375" lon="2.5122882239520549774169921875">
        <ele>521.79998779296875</ele>
        <time>2022-07-29T15:13:03.000Z</time>
      </trkpt>
      <trkpt lat="42.1605996228754520416259765625" lon="2.51210130751132965087890625">
        <ele>521.20001220703125</ele>
        <time>2022-07-29T15:13:05.000Z</time>
      </trkpt>
      <trkpt lat="42.16080489568412303924560546875" lon="2.5119147263467311859130859375">
        <ele>520.5999755859375</ele>
        <time>2022-07-29T15:13:07.000Z</time>
      </trkpt>
      <trkpt lat="42.1612074784934520721435546875" lon="2.5115502811968326568603515625">
        <ele>519.20001220703125</ele>
        <time>2022-07-29T15:13:11.000Z</time>
      </trkpt>
      <trkpt lat="42.16159648261964321136474609375" lon="2.5111942179501056671142578125">
        <ele>518.5999755859375</ele>
        <time>2022-07-29T15:13:15.000Z</time>
      </trkpt>
      <trkpt lat="42.16188414953649044036865234375" lon="2.5109283439815044403076171875">
        <ele>518</ele>
        <time>2022-07-29T15:13:18.000Z</time>
      </trkpt>
      <trkpt lat="42.16239024884998798370361328125" lon="2.51047186553478240966796875">
        <ele>517.20001220703125</ele>
        <time>2022-07-29T15:13:23.000Z</time>
      </trkpt>
      <trkpt lat="42.1624949388206005096435546875" lon="2.51037656329572200775146484375">
        <ele>516.5999755859375</ele>
        <time>2022-07-29T15:13:24.000Z</time>
      </trkpt>
      <trkpt lat="42.16270423494279384613037109375" lon="2.51018646173179149627685546875">
        <ele>515.20001220703125</ele>
        <time>2022-07-29T15:13:26.000Z</time>
      </trkpt>
      <trkpt lat="42.1631098352372646331787109375" lon="2.5098158977925777435302734375">
        <ele>513.5999755859375</ele>
        <time>2022-07-29T15:13:30.000Z</time>
      </trkpt>
      <trkpt lat="42.16321083717048168182373046875" lon="2.50972260721027851104736328125">
        <ele>512.4000244140625</ele>
        <time>2022-07-29T15:13:31.000Z</time>
      </trkpt>
      <trkpt lat="42.1633140183985233306884765625" lon="2.5096325017511844635009765625">
        <ele>511.600006103515625</ele>
        <time>2022-07-29T15:13:32.000Z</time>
      </trkpt>
      <trkpt lat="42.16341845691204071044921875" lon="2.50953870825469493865966796875">
        <ele>511</ele>
        <time>2022-07-29T15:13:33.000Z</time>
      </trkpt>
      <trkpt lat="42.1639622747898101806640625" lon="2.50905591063201427459716796875">
        <ele>510</ele>
        <time>2022-07-29T15:13:38.000Z</time>
      </trkpt>
      <trkpt lat="42.16407501138746738433837890625" lon="2.50895247794687747955322265625">
        <ele>509.600006103515625</ele>
        <time>2022-07-29T15:13:39.000Z</time>
      </trkpt>
      <trkpt lat="42.16429411433637142181396484375" lon="2.5087524019181728363037109375">
        <ele>508.20001220703125</ele>
        <time>2022-07-29T15:13:41.000Z</time>
      </trkpt>
      <trkpt lat="42.16451740823686122894287109375" lon="2.50854847021400928497314453125">
        <ele>506.399993896484375</ele>
        <time>2022-07-29T15:13:43.000Z</time>
      </trkpt>
      <trkpt lat="42.16474346816539764404296875" lon="2.5083468854427337646484375">
        <ele>504.79998779296875</ele>
        <time>2022-07-29T15:13:45.000Z</time>
      </trkpt>
      <trkpt lat="42.1648554503917694091796875" lon="2.50824571587145328521728515625">
        <ele>503.79998779296875</ele>
        <time>2022-07-29T15:13:46.000Z</time>
      </trkpt>
      <trkpt lat="42.16496651060879230499267578125" lon="2.508145384490489959716796875">
        <ele>502.79998779296875</ele>
        <time>2022-07-29T15:13:47.000Z</time>
      </trkpt>
      <trkpt lat="42.1650762297213077545166015625" lon="2.50804404728114604949951171875">
        <ele>501.600006103515625</ele>
        <time>2022-07-29T15:13:48.000Z</time>
      </trkpt>
      <trkpt lat="42.16518460772931575775146484375" lon="2.50794388353824615478515625">
        <ele>500.399993896484375</ele>
        <time>2022-07-29T15:13:49.000Z</time>
      </trkpt>
      <trkpt lat="42.16539566405117511749267578125" lon="2.5077380239963531494140625">
        <ele>498.79998779296875</ele>
        <time>2022-07-29T15:13:51.000Z</time>
      </trkpt>
      <trkpt lat="42.16559213586151599884033203125" lon="2.50751833431422710418701171875">
        <ele>498</ele>
        <time>2022-07-29T15:13:53.000Z</time>
      </trkpt>
      <trkpt lat="42.1656814031302928924560546875" lon="2.50740014947950839996337890625">
        <ele>496.79998779296875</ele>
        <time>2022-07-29T15:13:54.000Z</time>
      </trkpt>
      <trkpt lat="42.16592967510223388671875" lon="2.50701609067618846893310546875">
        <ele>495.79998779296875</ele>
        <time>2022-07-29T15:13:57.000Z</time>
      </trkpt>
      <trkpt lat="42.16601424850523471832275390625" lon="2.50688114203512668609619140625">
        <ele>495.79998779296875</ele>
        <time>2022-07-29T15:13:58.000Z</time>
      </trkpt>
      <trkpt lat="42.16636796481907367706298828125" lon="2.506328523159027099609375">
        <ele>495.20001220703125</ele>
        <time>2022-07-29T15:14:02.000Z</time>
      </trkpt>
      <trkpt lat="42.166638784110546112060546875" lon="2.50590012408792972564697265625">
        <ele>494.600006103515625</ele>
        <time>2022-07-29T15:14:05.000Z</time>
      </trkpt>
      <trkpt lat="42.1668273769319057464599609375" lon="2.50561547465622425079345703125">
        <ele>492.79998779296875</ele>
        <time>2022-07-29T15:14:07.000Z</time>
      </trkpt>
      <trkpt lat="42.167013622820377349853515625" lon="2.5053332559764385223388671875">
        <ele>490.79998779296875</ele>
        <time>2022-07-29T15:14:09.000Z</time>
      </trkpt>
      <trkpt lat="42.1671901457011699676513671875" lon="2.5050573237240314483642578125">
        <ele>489.600006103515625</ele>
        <time>2022-07-29T15:14:11.000Z</time>
      </trkpt>
      <trkpt lat="42.16727572493255138397216796875" lon="2.504923045635223388671875">
        <ele>488.600006103515625</ele>
        <time>2022-07-29T15:14:12.000Z</time>
      </trkpt>
      <trkpt lat="42.16736038215458393096923828125" lon="2.50479052774608135223388671875">
        <ele>487.79998779296875</ele>
        <time>2022-07-29T15:14:13.000Z</time>
      </trkpt>
      <trkpt lat="42.16752760112285614013671875" lon="2.504525072872638702392578125">
        <ele>486.399993896484375</ele>
        <time>2022-07-29T15:14:15.000Z</time>
      </trkpt>
      <trkpt lat="42.16769599355757236480712890625" lon="2.50426012091338634490966796875">
        <ele>485</ele>
        <time>2022-07-29T15:14:17.000Z</time>
      </trkpt>
      <trkpt lat="42.1680474467575550079345703125" lon="2.50373549759387969970703125">
        <ele>484.20001220703125</ele>
        <time>2022-07-29T15:14:21.000Z</time>
      </trkpt>
      <trkpt lat="42.16813520528376102447509765625" lon="2.5036047399044036865234375">
        <ele>484</ele>
        <time>2022-07-29T15:14:22.000Z</time>
      </trkpt>
      <trkpt lat="42.16830275952816009521484375" lon="2.5033450685441493988037109375">
        <ele>482.79998779296875</ele>
        <time>2022-07-29T15:14:24.000Z</time>
      </trkpt>
      <trkpt lat="42.16846427880227565765380859375" lon="2.50309620983898639678955078125">
        <ele>481.399993896484375</ele>
        <time>2022-07-29T15:14:26.000Z</time>
      </trkpt>
      <trkpt lat="42.16854223050177097320556640625" lon="2.50297517515718936920166015625">
        <ele>480.600006103515625</ele>
        <time>2022-07-29T15:14:27.000Z</time>
      </trkpt>
      <trkpt lat="42.16861833818256855010986328125" lon="2.50285497866570949554443359375">
        <ele>480</ele>
        <time>2022-07-29T15:14:28.000Z</time>
      </trkpt>
      <trkpt lat="42.16884682886302471160888671875" lon="2.50249355100095272064208984375">
        <ele>478.600006103515625</ele>
        <time>2022-07-29T15:14:31.000Z</time>
      </trkpt>
      <trkpt lat="42.169167101383209228515625" lon="2.50199340283870697021484375">
        <ele>478.20001220703125</ele>
        <time>2022-07-29T15:14:35.000Z</time>
      </trkpt>
      <trkpt lat="42.16942350380122661590576171875" lon="2.5015945918858051300048828125">
        <ele>477.399993896484375</ele>
        <time>2022-07-29T15:14:38.000Z</time>
      </trkpt>
      <trkpt lat="42.16960539110004901885986328125" lon="2.50131254084408283233642578125">
        <ele>475.600006103515625</ele>
        <time>2022-07-29T15:14:40.000Z</time>
      </trkpt>
      <trkpt lat="42.16969884932041168212890625" lon="2.5011674501001834869384765625">
        <ele>474.600006103515625</ele>
        <time>2022-07-29T15:14:41.000Z</time>
      </trkpt>
      <trkpt lat="42.16979515738785266876220703125" lon="2.5010204315185546875">
        <ele>474</ele>
        <time>2022-07-29T15:14:42.000Z</time>
      </trkpt>
      <trkpt lat="42.1699886955320835113525390625" lon="2.50071725808084011077880859375">
        <ele>472.20001220703125</ele>
        <time>2022-07-29T15:14:44.000Z</time>
      </trkpt>
      <trkpt lat="42.1700862608850002288818359375" lon="2.50056353397667407989501953125">
        <ele>471</ele>
        <time>2022-07-29T15:14:45.000Z</time>
      </trkpt>
      <trkpt lat="42.17018642462790012359619140625" lon="2.500409893691539764404296875">
        <ele>469.79998779296875</ele>
        <time>2022-07-29T15:14:46.000Z</time>
      </trkpt>
      <trkpt lat="42.17028767801821231842041015625" lon="2.50025809742510318756103515625">
        <ele>468.399993896484375</ele>
        <time>2022-07-29T15:14:47.000Z</time>
      </trkpt>
      <trkpt lat="42.17038775794208049774169921875" lon="2.50010873191058635711669921875">
        <ele>467</ele>
        <time>2022-07-29T15:14:48.000Z</time>
      </trkpt>
      <trkpt lat="42.17058272100985050201416015625" lon="2.4998216517269611358642578125">
        <ele>464.79998779296875</ele>
        <time>2022-07-29T15:14:50.000Z</time>
      </trkpt>
      <trkpt lat="42.17067659832537174224853515625" lon="2.49967999756336212158203125">
        <ele>463.600006103515625</ele>
        <time>2022-07-29T15:14:51.000Z</time>
      </trkpt>
      <trkpt lat="42.170767374336719512939453125" lon="2.49953381717205047607421875">
        <ele>461.399993896484375</ele>
        <time>2022-07-29T15:14:52.000Z</time>
      </trkpt>
      <trkpt lat="42.17095269821584224700927734375" lon="2.49924070201814174652099609375">
        <ele>459.600006103515625</ele>
        <time>2022-07-29T15:14:54.000Z</time>
      </trkpt>
      <trkpt lat="42.17123885639011859893798828125" lon="2.49880132265388965606689453125">
        <ele>458.399993896484375</ele>
        <time>2022-07-29T15:14:57.000Z</time>
      </trkpt>
      <trkpt lat="42.17162668704986572265625" lon="2.49820612370967864990234375">
        <ele>457</ele>
        <time>2022-07-29T15:15:01.000Z</time>
      </trkpt>
      <trkpt lat="42.1717192232608795166015625" lon="2.49806337989866733551025390625">
        <ele>456.399993896484375</ele>
        <time>2022-07-29T15:15:02.000Z</time>
      </trkpt>
      <trkpt lat="42.17180882580578327178955078125" lon="2.4979229830205440521240234375">
        <ele>455.600006103515625</ele>
        <time>2022-07-29T15:15:03.000Z</time>
      </trkpt>
      <trkpt lat="42.17198233120143413543701171875" lon="2.49765501357614994049072265625">
        <ele>454.20001220703125</ele>
        <time>2022-07-29T15:15:05.000Z</time>
      </trkpt>
      <trkpt lat="42.17206589877605438232421875" lon="2.4975276924669742584228515625">
        <ele>453</ele>
        <time>2022-07-29T15:15:06.000Z</time>
      </trkpt>
      <trkpt lat="42.1722253225743770599365234375" lon="2.497277073562145233154296875">
        <ele>452.20001220703125</ele>
        <time>2022-07-29T15:15:08.000Z</time>
      </trkpt>
      <trkpt lat="42.1723047830164432525634765625" lon="2.49715268611907958984375">
        <ele>452</ele>
        <time>2022-07-29T15:15:09.000Z</time>
      </trkpt>
      <trkpt lat="42.1727091260254383087158203125" lon="2.4965312518179416656494140625">
        <ele>451</ele>
        <time>2022-07-29T15:15:14.000Z</time>
      </trkpt>
      <trkpt lat="42.172791101038455963134765625" lon="2.496406696736812591552734375">
        <ele>451</ele>
        <time>2022-07-29T15:15:15.000Z</time>
      </trkpt>
      <trkpt lat="42.17303006909787654876708984375" lon="2.496038563549518585205078125">
        <ele>450.20001220703125</ele>
        <time>2022-07-29T15:15:18.000Z</time>
      </trkpt>
      <trkpt lat="42.1731825359165668487548828125" lon="2.495801858603954315185546875">
        <ele>449.399993896484375</ele>
        <time>2022-07-29T15:15:20.000Z</time>
      </trkpt>
      <trkpt lat="42.173464000225067138671875" lon="2.49536323361098766326904296875">
        <ele>448.20001220703125</ele>
        <time>2022-07-29T15:15:24.000Z</time>
      </trkpt>
      <trkpt lat="42.17352879233658313751220703125" lon="2.49526130966842174530029296875">
        <ele>448</ele>
        <time>2022-07-29T15:15:25.000Z</time>
      </trkpt>
      <trkpt lat="42.173925340175628662109375" lon="2.49464389868080615997314453125">
        <ele>447.600006103515625</ele>
        <time>2022-07-29T15:15:31.000Z</time>
      </trkpt>
      <trkpt lat="42.17399306595325469970703125" lon="2.49454222619533538818359375">
        <ele>447.600006103515625</ele>
        <time>2022-07-29T15:15:32.000Z</time>
      </trkpt>
      <trkpt lat="42.17440486885607242584228515625" lon="2.49390092678368091583251953125">
        <ele>446.79998779296875</ele>
        <time>2022-07-29T15:15:38.000Z</time>
      </trkpt>
      <trkpt lat="42.17447452247142791748046875" lon="2.49378525651991367340087890625">
        <ele>446.399993896484375</ele>
        <time>2022-07-29T15:15:39.000Z</time>
      </trkpt>
      <trkpt lat="42.17461693100631237030029296875" lon="2.49355324544012546539306640625">
        <ele>445.399993896484375</ele>
        <time>2022-07-29T15:15:41.000Z</time>
      </trkpt>
      <trkpt lat="42.174767889082431793212890625" lon="2.4933260120451450347900390625">
        <ele>444.20001220703125</ele>
        <time>2022-07-29T15:15:43.000Z</time>
      </trkpt>
      <trkpt lat="42.1749890036880970001220703125" lon="2.49299534596502780914306640625">
        <ele>442.79998779296875</ele>
        <time>2022-07-29T15:15:46.000Z</time>
      </trkpt>
      <trkpt lat="42.17513560317456722259521484375" lon="2.4927788414061069488525390625">
        <ele>441.20001220703125</ele>
        <time>2022-07-29T15:15:48.000Z</time>
      </trkpt>
      <trkpt lat="42.1752059273421764373779296875" lon="2.492674402892589569091796875">
        <ele>439.399993896484375</ele>
        <time>2022-07-29T15:15:49.000Z</time>
      </trkpt>
      <trkpt lat="42.1753306500613689422607421875" lon="2.492488324642181396484375">
        <ele>437.399993896484375</ele>
        <time>2022-07-29T15:15:51.000Z</time>
      </trkpt>
      <trkpt lat="42.17543818987905979156494140625" lon="2.49232797883450984954833984375">
        <ele>436.399993896484375</ele>
        <time>2022-07-29T15:15:53.000Z</time>
      </trkpt>
      <trkpt lat="42.17552502639591693878173828125" lon="2.49218397773802280426025390625">
        <ele>435.20001220703125</ele>
        <time>2022-07-29T15:15:55.000Z</time>
      </trkpt>
      <trkpt lat="42.17556106857955455780029296875" lon="2.4921203590929508209228515625">
        <ele>434.79998779296875</ele>
        <time>2022-07-29T15:15:56.000Z</time>
      </trkpt>
      <trkpt lat="42.17571965418756008148193359375" lon="2.491859011352062225341796875">
        <ele>434.20001220703125</ele>
        <time>2022-07-29T15:16:01.000Z</time>
      </trkpt>
      <trkpt lat="42.1757586300373077392578125" lon="2.491799332201480865478515625">
        <ele>434.20001220703125</ele>
        <time>2022-07-29T15:16:02.000Z</time>
      </trkpt>
      <trkpt lat="42.17584940604865550994873046875" lon="2.491676621139049530029296875">
        <ele>434</ele>
        <time>2022-07-29T15:16:04.000Z</time>
      </trkpt>
      <trkpt lat="42.17597412876784801483154296875" lon="2.4915939755737781524658203125">
        <ele>434</ele>
        <time>2022-07-29T15:16:06.000Z</time>
      </trkpt>
      <trkpt lat="42.17609767802059650421142578125" lon="2.4915275909006595611572265625">
        <ele>433.600006103515625</ele>
        <time>2022-07-29T15:16:08.000Z</time>
      </trkpt>
      <trkpt lat="42.17613841407001018524169921875" lon="2.49147671274840831756591796875">
        <ele>433.20001220703125</ele>
        <time>2022-07-29T15:16:09.000Z</time>
      </trkpt>
      <trkpt lat="42.1761555969715118408203125" lon="2.49141342937946319580078125">
        <ele>432.79998779296875</ele>
        <time>2022-07-29T15:16:10.000Z</time>
      </trkpt>
      <trkpt lat="42.1761460416018962860107421875" lon="2.49134503304958343505859375">
        <ele>432.20001220703125</ele>
        <time>2022-07-29T15:16:11.000Z</time>
      </trkpt>
      <trkpt lat="42.17608384788036346435546875" lon="2.49121787957847118377685546875">
        <ele>431.600006103515625</ele>
        <time>2022-07-29T15:16:13.000Z</time>
      </trkpt>
      <trkpt lat="42.17604788951575756072998046875" lon="2.49115451239049434661865234375">
        <ele>431.20001220703125</ele>
        <time>2022-07-29T15:16:14.000Z</time>
      </trkpt>
      <trkpt lat="42.17601436190307140350341796875" lon="2.4910860322415828704833984375">
        <ele>431</ele>
        <time>2022-07-29T15:16:15.000Z</time>
      </trkpt>
      <trkpt lat="42.1759036369621753692626953125" lon="2.490771710872650146484375">
        <ele>430.399993896484375</ele>
        <time>2022-07-29T15:16:19.000Z</time>
      </trkpt>
      <trkpt lat="42.1758717857301235198974609375" lon="2.49068881385028362274169921875">
        <ele>430.399993896484375</ele>
        <time>2022-07-29T15:16:20.000Z</time>
      </trkpt>
      <trkpt lat="42.17566869221627712249755859375" lon="2.49028698541224002838134765625">
        <ele>429.20001220703125</ele>
        <time>2022-07-29T15:16:25.000Z</time>
      </trkpt>
      <trkpt lat="42.17560230754315853118896484375" lon="2.49012999236583709716796875">
        <ele>428</ele>
        <time>2022-07-29T15:16:27.000Z</time>
      </trkpt>
      <trkpt lat="42.1755469031631946563720703125" lon="2.48997802846133708953857421875">
        <ele>427</ele>
        <time>2022-07-29T15:16:29.000Z</time>
      </trkpt>
      <trkpt lat="42.1754912473261356353759765625" lon="2.4898361228406429290771484375">
        <ele>425.79998779296875</ele>
        <time>2022-07-29T15:16:31.000Z</time>
      </trkpt>
      <trkpt lat="42.17541689984500408172607421875" lon="2.48963512480258941650390625">
        <ele>424.399993896484375</ele>
        <time>2022-07-29T15:16:34.000Z</time>
      </trkpt>
      <trkpt lat="42.1753232739865779876708984375" lon="2.48948064632713794708251953125">
        <ele>423.600006103515625</ele>
        <time>2022-07-29T15:16:36.000Z</time>
      </trkpt>
      <trkpt lat="42.17527725733816623687744140625" lon="2.48940437100827693939208984375">
        <ele>423.399993896484375</ele>
        <time>2022-07-29T15:16:37.000Z</time>
      </trkpt>
      <trkpt lat="42.17513141222298145294189453125" lon="2.48918124474585056304931640625">
        <ele>422.79998779296875</ele>
        <time>2022-07-29T15:16:40.000Z</time>
      </trkpt>
      <trkpt lat="42.17505513690412044525146484375" lon="2.4890693463385105133056640625">
        <ele>422.600006103515625</ele>
        <time>2022-07-29T15:16:42.000Z</time>
      </trkpt>
      <trkpt lat="42.17502429150044918060302734375" lon="2.48901695944368839263916015625">
        <ele>422.20001220703125</ele>
        <time>2022-07-29T15:16:43.000Z</time>
      </trkpt>
      <trkpt lat="42.17498741112649440765380859375" lon="2.48896532692015171051025390625">
        <ele>422</ele>
        <time>2022-07-29T15:16:44.000Z</time>
      </trkpt>
      <trkpt lat="42.1749579906463623046875" lon="2.4889104254543781280517578125">
        <ele>421.79998779296875</ele>
        <time>2022-07-29T15:16:45.000Z</time>
      </trkpt>
      <trkpt lat="42.17486553825438022613525390625" lon="2.488694004714488983154296875">
        <ele>421.600006103515625</ele>
        <time>2022-07-29T15:16:48.000Z</time>
      </trkpt>
      <trkpt lat="42.17478389851748943328857421875" lon="2.48852670192718505859375">
        <ele>421.20001220703125</ele>
        <time>2022-07-29T15:16:50.000Z</time>
      </trkpt>
      <trkpt lat="42.174655906856060028076171875" lon="2.48828756622970104217529296875">
        <ele>420.79998779296875</ele>
        <time>2022-07-29T15:16:53.000Z</time>
      </trkpt>
      <trkpt lat="42.17452389188110828399658203125" lon="2.4880827963352203369140625">
        <ele>420.79998779296875</ele>
        <time>2022-07-29T15:16:56.000Z</time>
      </trkpt>
      <trkpt lat="42.17441794462502002716064453125" lon="2.48796536587178707122802734375">
        <ele>421</ele>
        <time>2022-07-29T15:16:58.000Z</time>
      </trkpt>
      <trkpt lat="42.1741139329969882965087890625" lon="2.48770435340702533721923828125">
        <ele>421</ele>
        <time>2022-07-29T15:17:04.000Z</time>
      </trkpt>
      <trkpt lat="42.174061127007007598876953125" lon="2.487654983997344970703125">
        <ele>421</ele>
        <time>2022-07-29T15:17:05.000Z</time>
      </trkpt>
      <trkpt lat="42.17393950559198856353759765625" lon="2.4874596856534481048583984375">
        <ele>421</ele>
        <time>2022-07-29T15:17:08.000Z</time>
      </trkpt>
      <trkpt lat="42.1738946624100208282470703125" lon="2.4873902834951877593994140625">
        <ele>421</ele>
        <time>2022-07-29T15:17:09.000Z</time>
      </trkpt>
      <trkpt lat="42.17378041706979274749755859375" lon="2.48729414306581020355224609375">
        <ele>421.20001220703125</ele>
        <time>2022-07-29T15:17:11.000Z</time>
      </trkpt>
      <trkpt lat="42.17364429496228694915771484375" lon="2.48725743032991886138916015625">
        <ele>421.20001220703125</ele>
        <time>2022-07-29T15:17:13.000Z</time>
      </trkpt>
      <trkpt lat="42.1735798381268978118896484375" lon="2.48723077587783336639404296875">
        <ele>421.20001220703125</ele>
        <time>2022-07-29T15:17:14.000Z</time>
      </trkpt>
      <trkpt lat="42.173519320785999298095703125" lon="2.48719431459903717041015625">
        <ele>421.20001220703125</ele>
        <time>2022-07-29T15:17:15.000Z</time>
      </trkpt>
      <trkpt lat="42.17328093945980072021484375" lon="2.48699625022709369659423828125">
        <ele>421</ele>
        <time>2022-07-29T15:17:19.000Z</time>
      </trkpt>
      <trkpt lat="42.17322167940437793731689453125" lon="2.48694512061774730682373046875">
        <ele>421</ele>
        <time>2022-07-29T15:17:20.000Z</time>
      </trkpt>
      <trkpt lat="42.17270904220640659332275390625" lon="2.48651227913796901702880859375">
        <ele>421.600006103515625</ele>
        <time>2022-07-29T15:17:29.000Z</time>
      </trkpt>
      <trkpt lat="42.17219238169491291046142578125" lon="2.48607675544917583465576171875">
        <ele>422.20001220703125</ele>
        <time>2022-07-29T15:17:38.000Z</time>
      </trkpt>
      <trkpt lat="42.171799354255199432373046875" lon="2.4857253022491931915283203125">
        <ele>422.79998779296875</ele>
        <time>2022-07-29T15:17:45.000Z</time>
      </trkpt>
      <trkpt lat="42.17146835289895534515380859375" lon="2.48544509522616863250732421875">
        <ele>423.399993896484375</ele>
        <time>2022-07-29T15:17:51.000Z</time>
      </trkpt>
      <trkpt lat="42.171305157244205474853515625" lon="2.485310733318328857421875">
        <ele>423.600006103515625</ele>
        <time>2022-07-29T15:17:54.000Z</time>
      </trkpt>
      <trkpt lat="42.17115922830998897552490234375" lon="2.48516916297376155853271484375">
        <ele>424</ele>
        <time>2022-07-29T15:17:57.000Z</time>
      </trkpt>
      <trkpt lat="42.17105881310999393463134765625" lon="2.48508048243820667266845703125">
        <ele>424.399993896484375</ele>
        <time>2022-07-29T15:17:59.000Z</time>
      </trkpt>
      <trkpt lat="42.17101405374705791473388671875" lon="2.485033459961414337158203125">
        <ele>424.399993896484375</ele>
        <time>2022-07-29T15:18:00.000Z</time>
      </trkpt>
      <trkpt lat="42.1708174981176853179931640625" lon="2.4848643131554126739501953125">
        <ele>424.79998779296875</ele>
        <time>2022-07-29T15:18:04.000Z</time>
      </trkpt>
      <trkpt lat="42.17072085477411746978759765625" lon="2.4847831763327121734619140625">
        <ele>424.600006103515625</ele>
        <time>2022-07-29T15:18:06.000Z</time>
      </trkpt>
      <trkpt lat="42.170611135661602020263671875" lon="2.48461042530834674835205078125">
        <ele>425</ele>
        <time>2022-07-29T15:18:09.000Z</time>
      </trkpt>
      <trkpt lat="42.17054852284491062164306640625" lon="2.4844814278185367584228515625">
        <ele>425.399993896484375</ele>
        <time>2022-07-29T15:18:11.000Z</time>
      </trkpt>
      <trkpt lat="42.170499823987483978271484375" lon="2.484435327351093292236328125">
        <ele>425.399993896484375</ele>
        <time>2022-07-29T15:18:12.000Z</time>
      </trkpt>
      <trkpt lat="42.170330844819545745849609375" lon="2.484395094215869903564453125">
        <ele>426.20001220703125</ele>
        <time>2022-07-29T15:18:15.000Z</time>
      </trkpt>
      <trkpt lat="42.1702743507921695709228515625" lon="2.48437958769500255584716796875">
        <ele>426.399993896484375</ele>
        <time>2022-07-29T15:18:16.000Z</time>
      </trkpt>
      <trkpt lat="42.170218527317047119140625" lon="2.48435561545193195343017578125">
        <ele>426.20001220703125</ele>
        <time>2022-07-29T15:18:17.000Z</time>
      </trkpt>
      <trkpt lat="42.17011149041354656219482421875" lon="2.48428571037948131561279296875">
        <ele>426.600006103515625</ele>
        <time>2022-07-29T15:18:19.000Z</time>
      </trkpt>
      <trkpt lat="42.1700195409357547760009765625" lon="2.48419334180653095245361328125">
        <ele>427</ele>
        <time>2022-07-29T15:18:21.000Z</time>
      </trkpt>
      <trkpt lat="42.16988660395145416259765625" lon="2.48407222330570220947265625">
        <ele>427.399993896484375</ele>
        <time>2022-07-29T15:18:24.000Z</time>
      </trkpt>
      <trkpt lat="42.16984570026397705078125" lon="2.48403525911271572113037109375">
        <ele>427.600006103515625</ele>
        <time>2022-07-29T15:18:25.000Z</time>
      </trkpt>
      <trkpt lat="42.16967336833477020263671875" lon="2.48387566767632961273193359375">
        <ele>428</ele>
        <time>2022-07-29T15:18:29.000Z</time>
      </trkpt>
      <trkpt lat="42.169579155743122100830078125" lon="2.483796961605548858642578125">
        <ele>428.20001220703125</ele>
        <time>2022-07-29T15:18:31.000Z</time>
      </trkpt>
      <trkpt lat="42.16948519460856914520263671875" lon="2.4837188422679901123046875">
        <ele>428.600006103515625</ele>
        <time>2022-07-29T15:18:33.000Z</time>
      </trkpt>
      <trkpt lat="42.16923616826534271240234375" lon="2.48352211900055408477783203125">
        <ele>429.399993896484375</ele>
        <time>2022-07-29T15:18:38.000Z</time>
      </trkpt>
      <trkpt lat="42.16913902200758457183837890625" lon="2.4834400601685047149658203125">
        <ele>429.79998779296875</ele>
        <time>2022-07-29T15:18:40.000Z</time>
      </trkpt>
      <trkpt lat="42.16884314082562923431396484375" lon="2.48319170437753200531005859375">
        <ele>430.600006103515625</ele>
        <time>2022-07-29T15:18:46.000Z</time>
      </trkpt>
      <trkpt lat="42.16874792240560054779052734375" lon="2.48310662806034088134765625">
        <ele>430.79998779296875</ele>
        <time>2022-07-29T15:18:48.000Z</time>
      </trkpt>
      <trkpt lat="42.1685017459094524383544921875" lon="2.4828962422907352447509765625">
        <ele>431.20001220703125</ele>
        <time>2022-07-29T15:18:53.000Z</time>
      </trkpt>
      <trkpt lat="42.16813922859728336334228515625" lon="2.48260631226003170013427734375">
        <ele>431.600006103515625</ele>
        <time>2022-07-29T15:19:00.000Z</time>
      </trkpt>
      <trkpt lat="42.1678814850747585296630859375" lon="2.48238234780728816986083984375">
        <ele>431.79998779296875</ele>
        <time>2022-07-29T15:19:05.000Z</time>
      </trkpt>
      <trkpt lat="42.16768559999763965606689453125" lon="2.48217799700796604156494140625">
        <ele>431.79998779296875</ele>
        <time>2022-07-29T15:19:09.000Z</time>
      </trkpt>
      <trkpt lat="42.1676451154053211212158203125" lon="2.48211815021932125091552734375">
        <ele>432</ele>
        <time>2022-07-29T15:19:10.000Z</time>
      </trkpt>
      <trkpt lat="42.1675787307322025299072265625" lon="2.4819101952016353607177734375">
        <ele>432</ele>
        <time>2022-07-29T15:19:13.000Z</time>
      </trkpt>
      <trkpt lat="42.16757093556225299835205078125" lon="2.48183350078761577606201171875">
        <ele>432.20001220703125</ele>
        <time>2022-07-29T15:19:14.000Z</time>
      </trkpt>
      <trkpt lat="42.167540676891803741455078125" lon="2.4816835485398769378662109375">
        <ele>432.20001220703125</ele>
        <time>2022-07-29T15:19:16.000Z</time>
      </trkpt>
      <trkpt lat="42.16747538186609745025634765625" lon="2.481544576585292816162109375">
        <ele>432.20001220703125</ele>
        <time>2022-07-29T15:19:18.000Z</time>
      </trkpt>
      <trkpt lat="42.167413942515850067138671875" lon="2.4813945405185222625732421875">
        <ele>432.20001220703125</ele>
        <time>2022-07-29T15:19:20.000Z</time>
      </trkpt>
      <trkpt lat="42.16739474795758724212646484375" lon="2.4812257289886474609375">
        <ele>432.20001220703125</ele>
        <time>2022-07-29T15:19:22.000Z</time>
      </trkpt>
      <trkpt lat="42.16741184704005718231201171875" lon="2.4809660576283931732177734375">
        <ele>432.20001220703125</ele>
        <time>2022-07-29T15:19:25.000Z</time>
      </trkpt>
      <trkpt lat="42.16745358891785144805908203125" lon="2.48071099631488323211669921875">
        <ele>432.20001220703125</ele>
        <time>2022-07-29T15:19:28.000Z</time>
      </trkpt>
      <trkpt lat="42.16760865412652492523193359375" lon="2.4800598062574863433837890625">
        <ele>432.20001220703125</ele>
        <time>2022-07-29T15:19:36.000Z</time>
      </trkpt>
      <trkpt lat="42.1677098236978054046630859375" lon="2.4796445667743682861328125">
        <ele>433</ele>
        <time>2022-07-29T15:19:41.000Z</time>
      </trkpt>
      <trkpt lat="42.16778777539730072021484375" lon="2.479313313961029052734375">
        <ele>433.20001220703125</ele>
        <time>2022-07-29T15:19:45.000Z</time>
      </trkpt>
      <trkpt lat="42.167879976332187652587890625" lon="2.4787200428545475006103515625">
        <ele>433.20001220703125</ele>
        <time>2022-07-29T15:19:52.000Z</time>
      </trkpt>
      <trkpt lat="42.16783245094120502471923828125" lon="2.478293739259243011474609375">
        <ele>433.399993896484375</ele>
        <time>2022-07-29T15:19:57.000Z</time>
      </trkpt>
      <trkpt lat="42.16768325306475162506103515625" lon="2.4775626696646213531494140625">
        <ele>433.79998779296875</ele>
        <time>2022-07-29T15:20:06.000Z</time>
      </trkpt>
      <trkpt lat="42.16765224002301692962646484375" lon="2.4774245359003543853759765625">
        <ele>434.20001220703125</ele>
        <time>2022-07-29T15:20:08.000Z</time>
      </trkpt>
      <trkpt lat="42.167639248073101043701171875" lon="2.47735940851271152496337890625">
        <ele>434.20001220703125</ele>
        <time>2022-07-29T15:20:09.000Z</time>
      </trkpt>
      <trkpt lat="42.16759675182402133941650390625" lon="2.4771465919911861419677734375">
        <ele>434.600006103515625</ele>
        <time>2022-07-29T15:20:12.000Z</time>
      </trkpt>
      <trkpt lat="42.16746649704873561859130859375" lon="2.47652138583362102508544921875">
        <ele>434.79998779296875</ele>
        <time>2022-07-29T15:20:20.000Z</time>
      </trkpt>
      <trkpt lat="42.16736742295324802398681640625" lon="2.47612106613814830780029296875">
        <ele>434.79998779296875</ele>
        <time>2022-07-29T15:20:25.000Z</time>
      </trkpt>
      <trkpt lat="42.16729634441435337066650390625" lon="2.47598092071712017059326171875">
        <ele>434.600006103515625</ele>
        <time>2022-07-29T15:20:27.000Z</time>
      </trkpt>
      <trkpt lat="42.16721151955425739288330078125" lon="2.47585787437856197357177734375">
        <ele>434.600006103515625</ele>
        <time>2022-07-29T15:20:29.000Z</time>
      </trkpt>
      <trkpt lat="42.167162485420703887939453125" lon="2.4758011288940906524658203125">
        <ele>434.600006103515625</ele>
        <time>2022-07-29T15:20:30.000Z</time>
      </trkpt>
      <trkpt lat="42.16705729253590106964111328125" lon="2.47570549137890338897705078125">
        <ele>434.600006103515625</ele>
        <time>2022-07-29T15:20:32.000Z</time>
      </trkpt>
      <trkpt lat="42.16681790538132190704345703125" lon="2.47543592937290668487548828125">
        <ele>435</ele>
        <time>2022-07-29T15:20:37.000Z</time>
      </trkpt>
      <trkpt lat="42.16678136028349399566650390625" lon="2.47538848780095577239990234375">
        <ele>435.399993896484375</ele>
        <time>2022-07-29T15:20:38.000Z</time>
      </trkpt>
      <trkpt lat="42.1667489223182201385498046875" lon="2.4753280542790889739990234375">
        <ele>435.399993896484375</ele>
        <time>2022-07-29T15:20:39.000Z</time>
      </trkpt>
      <trkpt lat="42.1666882373392581939697265625" lon="2.47514189220964908599853515625">
        <ele>435.600006103515625</ele>
        <time>2022-07-29T15:20:42.000Z</time>
      </trkpt>
      <trkpt lat="42.1667036600410938262939453125" lon="2.47494324110448360443115234375">
        <ele>435.79998779296875</ele>
        <time>2022-07-29T15:20:45.000Z</time>
      </trkpt>
      <trkpt lat="42.1667489223182201385498046875" lon="2.47482421807944774627685546875">
        <ele>435.79998779296875</ele>
        <time>2022-07-29T15:20:47.000Z</time>
      </trkpt>
      <trkpt lat="42.16677381657063961029052734375" lon="2.47476135380566120147705078125">
        <ele>436</ele>
        <time>2022-07-29T15:20:48.000Z</time>
      </trkpt>
      <trkpt lat="42.16682620346546173095703125" lon="2.47463730163872241973876953125">
        <ele>436.399993896484375</ele>
        <time>2022-07-29T15:20:50.000Z</time>
      </trkpt>
      <trkpt lat="42.1669061668217182159423828125" lon="2.47447083704173564910888671875">
        <ele>437.20001220703125</ele>
        <time>2022-07-29T15:20:53.000Z</time>
      </trkpt>
      <trkpt lat="42.16701127588748931884765625" lon="2.47436472214758396148681640625">
        <ele>437.600006103515625</ele>
        <time>2022-07-29T15:20:56.000Z</time>
      </trkpt>
      <trkpt lat="42.16715988703072071075439453125" lon="2.47443160973489284515380859375">
        <ele>438</ele>
        <time>2022-07-29T15:20:59.000Z</time>
      </trkpt>
      <trkpt lat="42.16721235774457454681396484375" lon="2.47447519563138484954833984375">
        <ele>438</ele>
        <time>2022-07-29T15:21:00.000Z</time>
      </trkpt>
      <trkpt lat="42.1674298681318759918212890625" lon="2.47466529719531536102294921875">
        <ele>438.20001220703125</ele>
        <time>2022-07-29T15:21:04.000Z</time>
      </trkpt>
      <trkpt lat="42.16754796914756298065185546875" lon="2.47475883923470973968505859375">
        <ele>438.20001220703125</ele>
        <time>2022-07-29T15:21:06.000Z</time>
      </trkpt>
      <trkpt lat="42.16804686002433300018310546875" lon="2.4751664511859416961669921875">
        <ele>436.79998779296875</ele>
        <time>2022-07-29T15:21:14.000Z</time>
      </trkpt>
      <trkpt lat="42.168523035943508148193359375" lon="2.475571967661380767822265625">
        <ele>435.600006103515625</ele>
        <time>2022-07-29T15:21:22.000Z</time>
      </trkpt>
      <trkpt lat="42.16858095489442348480224609375" lon="2.47561982832849025726318359375">
        <ele>435.600006103515625</ele>
        <time>2022-07-29T15:21:23.000Z</time>
      </trkpt>
      <trkpt lat="42.1689449809491634368896484375" lon="2.4759020470082759857177734375">
        <ele>435</ele>
        <time>2022-07-29T15:21:30.000Z</time>
      </trkpt>
      <trkpt lat="42.169057466089725494384765625" lon="2.47600204311311244964599609375">
        <ele>435</ele>
        <time>2022-07-29T15:21:34.000Z</time>
      </trkpt>
      <trkpt lat="42.16908638365566730499267578125" lon="2.476044707000255584716796875">
        <ele>435</ele>
        <time>2022-07-29T15:21:35.000Z</time>
      </trkpt>
      <trkpt lat="42.1691957674920558929443359375" lon="2.4761699326336383819580078125">
        <ele>435</ele>
        <time>2022-07-29T15:21:38.000Z</time>
      </trkpt>
      <trkpt lat="42.1692212484776973724365234375" lon="2.47621175833046436309814453125">
        <ele>434.79998779296875</ele>
        <time>2022-07-29T15:21:39.000Z</time>
      </trkpt>
      <trkpt lat="42.16922300867736339569091796875" lon="2.4763218127191066741943359375">
        <ele>434.79998779296875</ele>
        <time>2022-07-29T15:21:41.000Z</time>
      </trkpt>
      <trkpt lat="42.16917908750474452972412109375" lon="2.4766185320913791656494140625">
        <ele>434.600006103515625</ele>
        <time>2022-07-29T15:21:45.000Z</time>
      </trkpt>
      <trkpt lat="42.16917254962027072906494140625" lon="2.47678575105965137481689453125">
        <ele>434.399993896484375</ele>
        <time>2022-07-29T15:21:47.000Z</time>
      </trkpt>
      <trkpt lat="42.169170789420604705810546875" lon="2.4769531376659870147705078125">
        <ele>434.20001220703125</ele>
        <time>2022-07-29T15:21:49.000Z</time>
      </trkpt>
    </trkseg>
  </trk>
</gpx>
